﻿<?xml version="1.0" encoding="utf-8"?><gpx creator="Garmin Desktop App" version="1.1" xsi:schemaLocation="http://www.topografix.com/GPX/1/1 http://www.topografix.com/GPX/1/1/gpx.xsd http://www.garmin.com/xmlschemas/WaypointExtension/v1 http://www8.garmin.com/xmlschemas/WaypointExtensionv1.xsd http://www.garmin.com/xmlschemas/TrackPointExtension/v1 http://www.garmin.com/xmlschemas/TrackPointExtensionv1.xsd http://www.garmin.com/xmlschemas/GpxExtensions/v3 http://www8.garmin.com/xmlschemas/GpxExtensionsv3.xsd http://www.garmin.com/xmlschemas/ActivityExtension/v1 http://www8.garmin.com/xmlschemas/ActivityExtensionv1.xsd http://www.garmin.com/xmlschemas/AdventuresExtensions/v1 http://www8.garmin.com/xmlschemas/AdventuresExtensionv1.xsd http://www.garmin.com/xmlschemas/PressureExtension/v1 http://www.garmin.com/xmlschemas/PressureExtensionv1.xsd http://www.garmin.com/xmlschemas/TripExtensions/v1 http://www.garmin.com/xmlschemas/TripExtensionsv1.xsd http://www.garmin.com/xmlschemas/TripMetaDataExtensions/v1 http://www.garmin.com/xmlschemas/TripMetaDataExtensionsv1.xsd http://www.garmin.com/xmlschemas/ViaPointTransportationModeExtensions/v1 http://www.garmin.com/xmlschemas/ViaPointTransportationModeExtensionsv1.xsd http://www.garmin.com/xmlschemas/CreationTimeExtension/v1 http://www.garmin.com/xmlschemas/CreationTimeExtensionsv1.xsd http://www.garmin.com/xmlschemas/AccelerationExtension/v1 http://www.garmin.com/xmlschemas/AccelerationExtensionv1.xsd http://www.garmin.com/xmlschemas/PowerExtension/v1 http://www.garmin.com/xmlschemas/PowerExtensionv1.xsd http://www.garmin.com/xmlschemas/VideoExtension/v1 http://www.garmin.com/xmlschemas/VideoExtensionv1.xsd" xmlns="http://www.topografix.com/GPX/1/1" xmlns:xsi="http://www.w3.org/2001/XMLSchema-instance" xmlns:wptx1="http://www.garmin.com/xmlschemas/WaypointExtension/v1" xmlns:gpxtrx="http://www.garmin.com/xmlschemas/GpxExtensions/v3" xmlns:gpxtpx="http://www.garmin.com/xmlschemas/TrackPointExtension/v1" xmlns:gpxx="http://www.garmin.com/xmlschemas/GpxExtensions/v3" xmlns:trp="http://www.garmin.com/xmlschemas/TripExtensions/v1" xmlns:adv="http://www.garmin.com/xmlschemas/AdventuresExtensions/v1" xmlns:prs="http://www.garmin.com/xmlschemas/PressureExtension/v1" xmlns:tmd="http://www.garmin.com/xmlschemas/TripMetaDataExtensions/v1" xmlns:vptm="http://www.garmin.com/xmlschemas/ViaPointTransportationModeExtensions/v1" xmlns:ctx="http://www.garmin.com/xmlschemas/CreationTimeExtension/v1" xmlns:gpxacc="http://www.garmin.com/xmlschemas/AccelerationExtension/v1" xmlns:gpxpx="http://www.garmin.com/xmlschemas/PowerExtension/v1" xmlns:vidx1="http://www.garmin.com/xmlschemas/VideoExtension/v1">

  <metadata>
    <link href="http://www.garmin.com">
      <text>Garmin International</text>
    </link>
    <time>2025-04-30T18:29:08Z</time>
    <bounds maxlat="43.784396974369884" maxlon="-7.039555041119456" minlat="42.903801016509533" minlon="-9.267526008188725" />
  </metadata>

  <trk>
    <name>250430_G_Track</name>
    <extensions>
      <gpxx:TrackExtension>
        <gpxx:DisplayColor>DarkGray</gpxx:DisplayColor>
      </gpxx:TrackExtension>
    </extensions>
    <trkseg>
      <trkpt lat="43.53937198407948" lon="-7.041909014806151">
        <ele>53.969999999999999</ele>
        <time>2025-04-30T07:18:19Z</time>
      </trkpt>
      <trkpt lat="43.539351029321551" lon="-7.041818993166089">
        <ele>60.700000000000003</ele>
        <time>2025-04-30T07:18:48Z</time>
      </trkpt>
      <trkpt lat="43.539322027936578" lon="-7.04192996956408">
        <ele>69.349999999999994</ele>
        <time>2025-04-30T07:19:10Z</time>
      </trkpt>
      <trkpt lat="43.539324961602688" lon="-7.041923012584448">
        <ele>65.510000000000005</ele>
        <time>2025-04-30T07:19:54Z</time>
      </trkpt>
      <trkpt lat="43.53932797908783" lon="-7.041915971785784">
        <ele>65.510000000000005</ele>
        <time>2025-04-30T07:20:27Z</time>
      </trkpt>
      <trkpt lat="43.539324961602688" lon="-7.04190599732101">
        <ele>65.510000000000005</ele>
        <time>2025-04-30T07:21:05Z</time>
      </trkpt>
      <trkpt lat="43.539330996572971" lon="-7.041902979835868">
        <ele>64.549999999999997</ele>
        <time>2025-04-30T07:21:43Z</time>
      </trkpt>
      <trkpt lat="43.539340971037745" lon="-7.041894011199474">
        <ele>64.549999999999997</ele>
        <time>2025-04-30T07:22:13Z</time>
      </trkpt>
      <trkpt lat="43.539369972422719" lon="-7.041942039504647">
        <ele>63.579999999999998</ele>
        <time>2025-04-30T07:22:16Z</time>
      </trkpt>
      <trkpt lat="43.539394028484821" lon="-7.041958970949054">
        <ele>64.069999999999993</ele>
        <time>2025-04-30T07:22:17Z</time>
      </trkpt>
      <trkpt lat="43.539422024041414" lon="-7.041979003697634">
        <ele>64.069999999999993</ele>
        <time>2025-04-30T07:22:18Z</time>
      </trkpt>
      <trkpt lat="43.53945697657764" lon="-7.042002975940704">
        <ele>64.549999999999997</ele>
        <time>2025-04-30T07:22:19Z</time>
      </trkpt>
      <trkpt lat="43.539514979347587" lon="-7.042038012295961">
        <ele>64.549999999999997</ele>
        <time>2025-04-30T07:22:20Z</time>
      </trkpt>
      <trkpt lat="43.539577005431056" lon="-7.042068019509316">
        <ele>64.069999999999993</ele>
        <time>2025-04-30T07:22:21Z</time>
      </trkpt>
      <trkpt lat="43.539784960448742" lon="-7.042176984250546">
        <ele>60.219999999999999</ele>
        <time>2025-04-30T07:22:24Z</time>
      </trkpt>
      <trkpt lat="43.539858972653747" lon="-7.042216965928674">
        <ele>59.259999999999998</ele>
        <time>2025-04-30T07:22:25Z</time>
      </trkpt>
      <trkpt lat="43.54001403786242" lon="-7.04229298979044">
        <ele>57.340000000000003</ele>
        <time>2025-04-30T07:22:27Z</time>
      </trkpt>
      <trkpt lat="43.540261974558234" lon="-7.042383011430502">
        <ele>54.93</ele>
        <time>2025-04-30T07:22:31Z</time>
      </trkpt>
      <trkpt lat="43.540291981771588" lon="-7.042393991723657">
        <ele>53.969999999999999</ele>
        <time>2025-04-30T07:22:32Z</time>
      </trkpt>
      <trkpt lat="43.5404899623245" lon="-7.042333977296948">
        <ele>53.490000000000002</ele>
        <time>2025-04-30T07:22:33Z</time>
      </trkpt>
      <trkpt lat="43.540516030043364" lon="-7.042257031425834">
        <ele>53.009999999999998</ele>
        <time>2025-04-30T07:22:34Z</time>
      </trkpt>
      <trkpt lat="43.540545031428337" lon="-7.042175978422165">
        <ele>52.530000000000001</ele>
        <time>2025-04-30T07:22:35Z</time>
      </trkpt>
      <trkpt lat="43.540574032813311" lon="-7.042090985924006">
        <ele>52.049999999999997</ele>
        <time>2025-04-30T07:22:36Z</time>
      </trkpt>
      <trkpt lat="43.540549976751208" lon="-7.041650013998151">
        <ele>47.719999999999999</ele>
        <time>2025-04-30T07:22:42Z</time>
      </trkpt>
      <trkpt lat="43.540522987022996" lon="-7.0416060090065">
        <ele>46.759999999999998</ele>
        <time>2025-04-30T07:22:43Z</time>
      </trkpt>
      <trkpt lat="43.540490968152881" lon="-7.041556974872947">
        <ele>46.280000000000001</ele>
        <time>2025-04-30T07:22:44Z</time>
      </trkpt>
      <trkpt lat="43.540458027273417" lon="-7.041505007073283">
        <ele>45.799999999999997</ele>
        <time>2025-04-30T07:22:45Z</time>
      </trkpt>
      <trkpt lat="43.54042399674654" lon="-7.041451027616859">
        <ele>45.32</ele>
        <time>2025-04-30T07:22:46Z</time>
      </trkpt>
      <trkpt lat="43.540388038381934" lon="-7.041395036503673">
        <ele>44.359999999999999</ele>
        <time>2025-04-30T07:22:47Z</time>
      </trkpt>
      <trkpt lat="43.54010003618896" lon="-7.040962027385831">
        <ele>38.109999999999999</ele>
        <time>2025-04-30T07:22:56Z</time>
      </trkpt>
      <trkpt lat="43.54010003618896" lon="-7.040962027385831">
        <ele>36.670000000000002</ele>
        <time>2025-04-30T07:23:05Z</time>
      </trkpt>
      <trkpt lat="43.54010003618896" lon="-7.040962027385831">
        <ele>34.259999999999998</ele>
        <time>2025-04-30T07:23:17Z</time>
      </trkpt>
      <trkpt lat="43.540078997612" lon="-7.040929002687335">
        <ele>33.780000000000001</ele>
        <time>2025-04-30T07:23:22Z</time>
      </trkpt>
      <trkpt lat="43.540060976520181" lon="-7.040902012959123">
        <ele>33.299999999999997</ele>
        <time>2025-04-30T07:23:23Z</time>
      </trkpt>
      <trkpt lat="43.540083020925522" lon="-7.040785001590848">
        <ele>33.299999999999997</ele>
        <time>2025-04-30T07:23:24Z</time>
      </trkpt>
      <trkpt lat="43.540124008432031" lon="-7.040748037397862">
        <ele>33.780000000000001</ele>
        <time>2025-04-30T07:23:25Z</time>
      </trkpt>
      <trkpt lat="43.540177987888455" lon="-7.040697997435927">
        <ele>33.780000000000001</ele>
        <time>2025-04-30T07:23:26Z</time>
      </trkpt>
      <trkpt lat="43.540257029235363" lon="-7.040627002716065">
        <ele>33.780000000000001</ele>
        <time>2025-04-30T07:23:27Z</time>
      </trkpt>
      <trkpt lat="43.540737982839346" lon="-7.040140014141798">
        <ele>34.259999999999998</ele>
        <time>2025-04-30T07:23:37Z</time>
      </trkpt>
      <trkpt lat="43.540976028889418" lon="-7.039857963100076">
        <ele>37.149999999999999</ele>
        <time>2025-04-30T07:23:44Z</time>
      </trkpt>
      <trkpt lat="43.541059009730816" lon="-7.039783028885722">
        <ele>37.149999999999999</ele>
        <time>2025-04-30T07:23:45Z</time>
      </trkpt>
      <trkpt lat="43.541075019165874" lon="-7.039812030270696">
        <ele>37.630000000000003</ele>
        <time>2025-04-30T07:23:46Z</time>
      </trkpt>
      <trkpt lat="43.541091028600931" lon="-7.039839019998908">
        <ele>38.109999999999999</ele>
        <time>2025-04-30T07:23:47Z</time>
      </trkpt>
      <trkpt lat="43.540973011404276" lon="-7.039859974756837">
        <ele>38.109999999999999</ele>
        <time>2025-04-30T07:23:48Z</time>
      </trkpt>
      <trkpt lat="43.540936969220638" lon="-7.039903979748488">
        <ele>38.109999999999999</ele>
        <time>2025-04-30T07:23:49Z</time>
      </trkpt>
      <trkpt lat="43.540895981714129" lon="-7.03995200805366">
        <ele>38.109999999999999</ele>
        <time>2025-04-30T07:23:50Z</time>
      </trkpt>
      <trkpt lat="43.540491973981261" lon="-7.040390968322754">
        <ele>38.109999999999999</ele>
        <time>2025-04-30T07:23:58Z</time>
      </trkpt>
      <trkpt lat="43.540168013423681" lon="-7.040707971900702">
        <ele>37.149999999999999</ele>
        <time>2025-04-30T07:24:08Z</time>
      </trkpt>
      <trkpt lat="43.540226016193628" lon="-7.040581991896033">
        <ele>37.149999999999999</ele>
        <time>2025-04-30T07:24:09Z</time>
      </trkpt>
      <trkpt lat="43.540215035900474" lon="-7.040564976632595">
        <ele>37.149999999999999</ele>
        <time>2025-04-30T07:24:10Z</time>
      </trkpt>
      <trkpt lat="43.540177987888455" lon="-7.040697997435927">
        <ele>37.149999999999999</ele>
        <time>2025-04-30T07:24:11Z</time>
      </trkpt>
      <trkpt lat="43.540206989273429" lon="-7.040672013536096">
        <ele>36.670000000000002</ele>
        <time>2025-04-30T07:24:12Z</time>
      </trkpt>
      <trkpt lat="43.540257029235363" lon="-7.040627002716065">
        <ele>36.189999999999998</ele>
        <time>2025-04-30T07:24:13Z</time>
      </trkpt>
      <trkpt lat="43.540299022570252" lon="-7.040584003552795">
        <ele>36.189999999999998</ele>
        <time>2025-04-30T07:24:14Z</time>
      </trkpt>
      <trkpt lat="43.540353002026677" lon="-7.04053102992475">
        <ele>35.710000000000001</ele>
        <time>2025-04-30T07:24:15Z</time>
      </trkpt>
      <trkpt lat="43.540408993139863" lon="-7.040475038811564">
        <ele>35.229999999999997</ele>
        <time>2025-04-30T07:24:16Z</time>
      </trkpt>
      <trkpt lat="43.540468001738191" lon="-7.040416030213237">
        <ele>35.229999999999997</ele>
        <time>2025-04-30T07:24:17Z</time>
      </trkpt>
      <trkpt lat="43.540756003931165" lon="-7.040118975564838">
        <ele>35.710000000000001</ele>
        <time>2025-04-30T07:24:23Z</time>
      </trkpt>
      <trkpt lat="43.541147019714117" lon="-7.039663000032306">
        <ele>36.670000000000002</ele>
        <time>2025-04-30T07:24:32Z</time>
      </trkpt>
      <trkpt lat="43.541227988898754" lon="-7.039572978392243">
        <ele>36.670000000000002</ele>
        <time>2025-04-30T07:24:34Z</time>
      </trkpt>
      <trkpt lat="43.541309963911772" lon="-7.039555041119456">
        <ele>36.670000000000002</ele>
        <time>2025-04-30T07:24:35Z</time>
      </trkpt>
      <trkpt lat="43.541366038843989" lon="-7.039582030847669">
        <ele>36.670000000000002</ele>
        <time>2025-04-30T07:24:36Z</time>
      </trkpt>
      <trkpt lat="43.541425969451666" lon="-7.039611032232642">
        <ele>36.670000000000002</ele>
        <time>2025-04-30T07:24:37Z</time>
      </trkpt>
      <trkpt lat="43.541493024677038" lon="-7.039642967283726">
        <ele>36.670000000000002</ele>
        <time>2025-04-30T07:24:38Z</time>
      </trkpt>
      <trkpt lat="43.541561001911759" lon="-7.039675991982222">
        <ele>37.149999999999999</ele>
        <time>2025-04-30T07:24:39Z</time>
      </trkpt>
      <trkpt lat="43.542434982955456" lon="-7.040091985836625">
        <ele>34.259999999999998</ele>
        <time>2025-04-30T07:24:50Z</time>
      </trkpt>
      <trkpt lat="43.54293898679316" lon="-7.040304969996214">
        <ele>30.899999999999999</ele>
        <time>2025-04-30T07:24:57Z</time>
      </trkpt>
      <trkpt lat="43.54293898679316" lon="-7.040304969996214">
        <ele>30.420000000000002</ele>
        <time>2025-04-30T07:24:58Z</time>
      </trkpt>
      <trkpt lat="43.543112995103002" lon="-7.040259959176183">
        <ele>30.420000000000002</ele>
        <time>2025-04-30T07:24:59Z</time>
      </trkpt>
      <trkpt lat="43.543114000931382" lon="-7.040297007188201">
        <ele>29.940000000000001</ele>
        <time>2025-04-30T07:25:00Z</time>
      </trkpt>
      <trkpt lat="43.543115006759763" lon="-7.04036196693778">
        <ele>29.460000000000001</ele>
        <time>2025-04-30T07:25:01Z</time>
      </trkpt>
      <trkpt lat="43.543118024244905" lon="-7.04044796526432">
        <ele>29.460000000000001</ele>
        <time>2025-04-30T07:25:02Z</time>
      </trkpt>
      <trkpt lat="43.543120035901666" lon="-7.040543016046286">
        <ele>29.460000000000001</ele>
        <time>2025-04-30T07:25:03Z</time>
      </trkpt>
      <trkpt lat="43.543122969567776" lon="-7.040648041293025">
        <ele>29.460000000000001</ele>
        <time>2025-04-30T07:25:04Z</time>
      </trkpt>
      <trkpt lat="43.543127998709679" lon="-7.041881019249558">
        <ele>31.859999999999999</ele>
        <time>2025-04-30T07:25:13Z</time>
      </trkpt>
      <trkpt lat="43.543112995103002" lon="-7.04248895868659">
        <ele>31.859999999999999</ele>
        <time>2025-04-30T07:25:18Z</time>
      </trkpt>
      <trkpt lat="43.54311098344624" lon="-7.042548973113298">
        <ele>31.859999999999999</ele>
        <time>2025-04-30T07:25:19Z</time>
      </trkpt>
      <trkpt lat="43.54310997761786" lon="-7.042621979489923">
        <ele>31.379999999999999</ele>
        <time>2025-04-30T07:25:20Z</time>
      </trkpt>
      <trkpt lat="43.54310997761786" lon="-7.042712001129985">
        <ele>31.379999999999999</ele>
        <time>2025-04-30T07:25:21Z</time>
      </trkpt>
      <trkpt lat="43.54310997761786" lon="-7.042815014719963">
        <ele>31.379999999999999</ele>
        <time>2025-04-30T07:25:22Z</time>
      </trkpt>
      <trkpt lat="43.54298098012805" lon="-7.043979009613395">
        <ele>35.229999999999997</ele>
        <time>2025-04-30T07:25:30Z</time>
      </trkpt>
      <trkpt lat="43.542832033708692" lon="-7.045716997236013">
        <ele>33.780000000000001</ele>
        <time>2025-04-30T07:25:41Z</time>
      </trkpt>
      <trkpt lat="43.542822981253266" lon="-7.046274980530143">
        <ele>30.899999999999999</ele>
        <time>2025-04-30T07:25:45Z</time>
      </trkpt>
      <trkpt lat="43.542828010395169" lon="-7.046400038525462">
        <ele>29.940000000000001</ele>
        <time>2025-04-30T07:25:46Z</time>
      </trkpt>
      <trkpt lat="43.54289598762989" lon="-7.046657027676702">
        <ele>28.98</ele>
        <time>2025-04-30T07:25:48Z</time>
      </trkpt>
      <trkpt lat="43.542881989851594" lon="-7.04674101434648">
        <ele>28.98</ele>
        <time>2025-04-30T07:25:49Z</time>
      </trkpt>
      <trkpt lat="43.542842008173466" lon="-7.046828018501401">
        <ele>28.5</ele>
        <time>2025-04-30T07:25:50Z</time>
      </trkpt>
      <trkpt lat="43.54280998930335" lon="-7.046871017664671">
        <ele>28.5</ele>
        <time>2025-04-30T07:25:51Z</time>
      </trkpt>
      <trkpt lat="43.542706975713372" lon="-7.046858025714755">
        <ele>27.530000000000001</ele>
        <time>2025-04-30T07:25:52Z</time>
      </trkpt>
      <trkpt lat="43.54263799265027" lon="-7.04684997908771">
        <ele>27.530000000000001</ele>
        <time>2025-04-30T07:25:53Z</time>
      </trkpt>
      <trkpt lat="43.542601028457284" lon="-7.046757023781538">
        <ele>27.050000000000001</ele>
        <time>2025-04-30T07:25:54Z</time>
      </trkpt>
      <trkpt lat="43.542520981281996" lon="-7.046619979664683">
        <ele>27.050000000000001</ele>
        <time>2025-04-30T07:25:55Z</time>
      </trkpt>
      <trkpt lat="43.542362982407212" lon="-7.046541022136807">
        <ele>27.050000000000001</ele>
        <time>2025-04-30T07:25:57Z</time>
      </trkpt>
      <trkpt lat="43.542290981858969" lon="-7.04650497995317">
        <ele>27.050000000000001</ele>
        <time>2025-04-30T07:25:58Z</time>
      </trkpt>
      <trkpt lat="43.542166007682681" lon="-7.046442031860352">
        <ele>26.57</ele>
        <time>2025-04-30T07:26:00Z</time>
      </trkpt>
      <trkpt lat="43.542068023234606" lon="-7.046392997726798">
        <ele>26.57</ele>
        <time>2025-04-30T07:26:02Z</time>
      </trkpt>
      <trkpt lat="43.541909018531442" lon="-7.046463992446661">
        <ele>26.57</ele>
        <time>2025-04-30T07:26:03Z</time>
      </trkpt>
      <trkpt lat="43.541898960247636" lon="-7.046469021588564">
        <ele>26.09</ele>
        <time>2025-04-30T07:26:04Z</time>
      </trkpt>
      <trkpt lat="43.541909018531442" lon="-7.046463992446661">
        <ele>26.09</ele>
        <time>2025-04-30T07:26:05Z</time>
      </trkpt>
      <trkpt lat="43.541782032698393" lon="-7.046664990484715">
        <ele>25.609999999999999</ele>
        <time>2025-04-30T07:26:06Z</time>
      </trkpt>
      <trkpt lat="43.541763005778193" lon="-7.046799017116427">
        <ele>25.129999999999999</ele>
        <time>2025-04-30T07:26:07Z</time>
      </trkpt>
      <trkpt lat="43.541742973029613" lon="-7.046947041526437">
        <ele>24.649999999999999</ele>
        <time>2025-04-30T07:26:08Z</time>
      </trkpt>
      <trkpt lat="43.541721012443304" lon="-7.04710696823895">
        <ele>24.649999999999999</ele>
        <time>2025-04-30T07:26:09Z</time>
      </trkpt>
      <trkpt lat="43.541399985551834" lon="-7.048763986676931">
        <ele>28.5</ele>
        <time>2025-04-30T07:26:19Z</time>
      </trkpt>
      <trkpt lat="43.540813000872731" lon="-7.050341041758657">
        <ele>30.899999999999999</ele>
        <time>2025-04-30T07:26:30Z</time>
      </trkpt>
      <trkpt lat="43.540224004536867" lon="-7.051982972770929">
        <ele>33.299999999999997</ele>
        <time>2025-04-30T07:26:42Z</time>
      </trkpt>
      <trkpt lat="43.539780015125871" lon="-7.0538529753685">
        <ele>34.740000000000002</ele>
        <time>2025-04-30T07:26:55Z</time>
      </trkpt>
      <trkpt lat="43.539663003757596" lon="-7.054868023842573">
        <ele>37.149999999999999</ele>
        <time>2025-04-30T07:27:03Z</time>
      </trkpt>
      <trkpt lat="43.539655962958932" lon="-7.055068016052246">
        <ele>37.630000000000003</ele>
        <time>2025-04-30T07:27:05Z</time>
      </trkpt>
      <trkpt lat="43.539677001535892" lon="-7.055240012705326">
        <ele>37.630000000000003</ele>
        <time>2025-04-30T07:27:06Z</time>
      </trkpt>
      <trkpt lat="43.539612963795662" lon="-7.055389964953065">
        <ele>37.630000000000003</ele>
        <time>2025-04-30T07:27:07Z</time>
      </trkpt>
      <trkpt lat="43.539362009614706" lon="-7.056586984544992">
        <ele>38.590000000000003</ele>
        <time>2025-04-30T07:27:16Z</time>
      </trkpt>
      <trkpt lat="43.53932797908783" lon="-7.056828970089555">
        <ele>38.109999999999999</ele>
        <time>2025-04-30T07:27:18Z</time>
      </trkpt>
      <trkpt lat="43.539313981309533" lon="-7.056941958144307">
        <ele>37.630000000000003</ele>
        <time>2025-04-30T07:27:19Z</time>
      </trkpt>
      <trkpt lat="43.539097979664803" lon="-7.058414993807674">
        <ele>40.509999999999998</ele>
        <time>2025-04-30T07:27:31Z</time>
      </trkpt>
      <trkpt lat="43.539097979664803" lon="-7.058470984920859">
        <ele>40.509999999999998</ele>
        <time>2025-04-30T07:27:32Z</time>
      </trkpt>
      <trkpt lat="43.539097979664803" lon="-7.058586990460753">
        <ele>40.990000000000002</ele>
        <time>2025-04-30T07:27:33Z</time>
      </trkpt>
      <trkpt lat="43.539097979664803" lon="-7.058659996837378">
        <ele>40.990000000000002</ele>
        <time>2025-04-30T07:27:34Z</time>
      </trkpt>
      <trkpt lat="43.539097979664803" lon="-7.058749012649059">
        <ele>40.990000000000002</ele>
        <time>2025-04-30T07:27:35Z</time>
      </trkpt>
      <trkpt lat="43.539183977991343" lon="-7.058866024017334">
        <ele>41.469999999999999</ele>
        <time>2025-04-30T07:27:36Z</time>
      </trkpt>
      <trkpt lat="43.539196969941258" lon="-7.058894019573927">
        <ele>41.469999999999999</ele>
        <time>2025-04-30T07:27:37Z</time>
      </trkpt>
      <trkpt lat="43.539194036275148" lon="-7.059032991528511">
        <ele>41.469999999999999</ele>
        <time>2025-04-30T07:27:38Z</time>
      </trkpt>
      <trkpt lat="43.539163023233414" lon="-7.059112032875419">
        <ele>41.950000000000003</ele>
        <time>2025-04-30T07:27:39Z</time>
      </trkpt>
      <trkpt lat="43.53907098993659" lon="-7.059312025085092">
        <ele>41.950000000000003</ele>
        <time>2025-04-30T07:27:41Z</time>
      </trkpt>
      <trkpt lat="43.539088005200028" lon="-7.059427024796605">
        <ele>42.439999999999998</ele>
        <time>2025-04-30T07:27:42Z</time>
      </trkpt>
      <trkpt lat="43.539108959957957" lon="-7.05954696983099">
        <ele>42.920000000000002</ele>
        <time>2025-04-30T07:27:43Z</time>
      </trkpt>
      <trkpt lat="43.539132010191679" lon="-7.05967403948307">
        <ele>43.399999999999999</ele>
        <time>2025-04-30T07:27:44Z</time>
      </trkpt>
      <trkpt lat="43.539161011576653" lon="-7.059810999780893">
        <ele>43.399999999999999</ele>
        <time>2025-04-30T07:27:45Z</time>
      </trkpt>
      <trkpt lat="43.539538029581308" lon="-7.06132804043591">
        <ele>47.240000000000002</ele>
        <time>2025-04-30T07:27:57Z</time>
      </trkpt>
      <trkpt lat="43.539721006527543" lon="-7.062076041474938">
        <ele>48.68</ele>
        <time>2025-04-30T07:28:03Z</time>
      </trkpt>
      <trkpt lat="43.539753025397658" lon="-7.062213001772761">
        <ele>49.159999999999997</ele>
        <time>2025-04-30T07:28:04Z</time>
      </trkpt>
      <trkpt lat="43.540078997612" lon="-7.063610013574362">
        <ele>52.530000000000001</ele>
        <time>2025-04-30T07:28:14Z</time>
      </trkpt>
      <trkpt lat="43.540483005344868" lon="-7.065208023414016">
        <ele>51.090000000000003</ele>
        <time>2025-04-30T07:28:26Z</time>
      </trkpt>
      <trkpt lat="43.540842002257705" lon="-7.066712994128466">
        <ele>46.759999999999998</ele>
        <time>2025-04-30T07:28:38Z</time>
      </trkpt>
      <trkpt lat="43.541037971153855" lon="-7.067505000159144">
        <ele>45.32</ele>
        <time>2025-04-30T07:28:45Z</time>
      </trkpt>
      <trkpt lat="43.541056998074055" lon="-7.067595021799207">
        <ele>44.840000000000003</ele>
        <time>2025-04-30T07:28:46Z</time>
      </trkpt>
      <trkpt lat="43.541265036910772" lon="-7.067641960456967">
        <ele>44.840000000000003</ele>
        <time>2025-04-30T07:28:47Z</time>
      </trkpt>
      <trkpt lat="43.541277023032308" lon="-7.067654030397534">
        <ele>44.840000000000003</ele>
        <time>2025-04-30T07:28:48Z</time>
      </trkpt>
      <trkpt lat="43.541350029408932" lon="-7.067727036774159">
        <ele>44.359999999999999</ele>
        <time>2025-04-30T07:28:49Z</time>
      </trkpt>
      <trkpt lat="43.541409960016608" lon="-7.067849999293685">
        <ele>43.880000000000003</ele>
        <time>2025-04-30T07:28:50Z</time>
      </trkpt>
      <trkpt lat="43.541427981108427" lon="-7.068002969026566">
        <ele>42.920000000000002</ele>
        <time>2025-04-30T07:28:51Z</time>
      </trkpt>
      <trkpt lat="43.541414989158511" lon="-7.068114029243588">
        <ele>41.950000000000003</ele>
        <time>2025-04-30T07:28:52Z</time>
      </trkpt>
      <trkpt lat="43.541349023580551" lon="-7.068202961236239">
        <ele>41.469999999999999</ele>
        <time>2025-04-30T07:28:53Z</time>
      </trkpt>
      <trkpt lat="43.541318010538816" lon="-7.068389039486647">
        <ele>40.509999999999998</ele>
        <time>2025-04-30T07:28:54Z</time>
      </trkpt>
      <trkpt lat="43.541350029408932" lon="-7.068496998399496">
        <ele>40.030000000000001</ele>
        <time>2025-04-30T07:28:55Z</time>
      </trkpt>
      <trkpt lat="43.541387999430299" lon="-7.068621972575784">
        <ele>39.549999999999997</ele>
        <time>2025-04-30T07:28:56Z</time>
      </trkpt>
      <trkpt lat="43.541428986936808" lon="-7.068757005035877">
        <ele>39.07</ele>
        <time>2025-04-30T07:28:57Z</time>
      </trkpt>
      <trkpt lat="43.541867025196552" lon="-7.070532040670514">
        <ele>37.149999999999999</ele>
        <time>2025-04-30T07:29:08Z</time>
      </trkpt>
      <trkpt lat="43.542231973260641" lon="-7.072324007749558">
        <ele>36.670000000000002</ele>
        <time>2025-04-30T07:29:19Z</time>
      </trkpt>
      <trkpt lat="43.542640004307032" lon="-7.074218988418579">
        <ele>35.229999999999997</ele>
        <time>2025-04-30T07:29:29Z</time>
      </trkpt>
      <trkpt lat="43.542905962094665" lon="-7.07548700273037">
        <ele>36.189999999999998</ele>
        <time>2025-04-30T07:29:36Z</time>
      </trkpt>
      <trkpt lat="43.543011993169785" lon="-7.075997041538358">
        <ele>35.229999999999997</ele>
        <time>2025-04-30T07:29:40Z</time>
      </trkpt>
      <trkpt lat="43.543175021186471" lon="-7.076160991564393">
        <ele>34.740000000000002</ele>
        <time>2025-04-30T07:29:41Z</time>
      </trkpt>
      <trkpt lat="43.543207962065935" lon="-7.076227962970734">
        <ele>33.780000000000001</ele>
        <time>2025-04-30T07:29:43Z</time>
      </trkpt>
      <trkpt lat="43.54328197427094" lon="-7.076375987380743">
        <ele>33.780000000000001</ele>
        <time>2025-04-30T07:29:44Z</time>
      </trkpt>
      <trkpt lat="43.543275017291307" lon="-7.07643298432231">
        <ele>33.299999999999997</ele>
        <time>2025-04-30T07:29:45Z</time>
      </trkpt>
      <trkpt lat="43.543261019513011" lon="-7.076546978205442">
        <ele>33.780000000000001</ele>
        <time>2025-04-30T07:29:46Z</time>
      </trkpt>
      <trkpt lat="43.543188013136387" lon="-7.076713023707271">
        <ele>33.780000000000001</ele>
        <time>2025-04-30T07:29:47Z</time>
      </trkpt>
      <trkpt lat="43.543209973722696" lon="-7.076848978176713">
        <ele>34.259999999999998</ele>
        <time>2025-04-30T07:29:48Z</time>
      </trkpt>
      <trkpt lat="43.543235035613179" lon="-7.077003037557006">
        <ele>34.740000000000002</ele>
        <time>2025-04-30T07:29:49Z</time>
      </trkpt>
      <trkpt lat="43.54360300116241" lon="-7.078809002414346">
        <ele>37.149999999999999</ele>
        <time>2025-04-30T07:29:59Z</time>
      </trkpt>
      <trkpt lat="43.544024024158716" lon="-7.080796016380191">
        <ele>34.259999999999998</ele>
        <time>2025-04-30T07:30:10Z</time>
      </trkpt>
      <trkpt lat="43.544504977762699" lon="-7.083128029480577">
        <ele>35.710000000000001</ele>
        <time>2025-04-30T07:30:24Z</time>
      </trkpt>
      <trkpt lat="43.54515197686851" lon="-7.086196979507804">
        <ele>36.189999999999998</ele>
        <time>2025-04-30T07:30:42Z</time>
      </trkpt>
      <trkpt lat="43.54564399458468" lon="-7.089069960638881">
        <ele>40.509999999999998</ele>
        <time>2025-04-30T07:30:59Z</time>
      </trkpt>
      <trkpt lat="43.545872988179326" lon="-7.090950021520257">
        <ele>39.549999999999997</ele>
        <time>2025-04-30T07:31:10Z</time>
      </trkpt>
      <trkpt lat="43.546179011464119" lon="-7.093799030408263">
        <ele>36.189999999999998</ele>
        <time>2025-04-30T07:31:26Z</time>
      </trkpt>
      <trkpt lat="43.546371962875128" lon="-7.096343021839857">
        <ele>30.420000000000002</ele>
        <time>2025-04-30T07:31:40Z</time>
      </trkpt>
      <trkpt lat="43.546458967030048" lon="-7.099007964134216">
        <ele>30.420000000000002</ele>
        <time>2025-04-30T07:31:52Z</time>
      </trkpt>
      <trkpt lat="43.546523004770279" lon="-7.101569976657629">
        <ele>31.379999999999999</ele>
        <time>2025-04-30T07:32:03Z</time>
      </trkpt>
      <trkpt lat="43.546624006703496" lon="-7.104916032403708">
        <ele>28.5</ele>
        <time>2025-04-30T07:32:17Z</time>
      </trkpt>
      <trkpt lat="43.546743029728532" lon="-7.108699036762118">
        <ele>27.530000000000001</ele>
        <time>2025-04-30T07:32:33Z</time>
      </trkpt>
      <trkpt lat="43.546846965327859" lon="-7.111974013969302">
        <ele>28.02</ele>
        <time>2025-04-30T07:32:48Z</time>
      </trkpt>
      <trkpt lat="43.54693497531116" lon="-7.114359000697732">
        <ele>28.02</ele>
        <time>2025-04-30T07:32:58Z</time>
      </trkpt>
      <trkpt lat="43.547034971415997" lon="-7.117802035063505">
        <ele>22.25</ele>
        <time>2025-04-30T07:33:12Z</time>
      </trkpt>
      <trkpt lat="43.546945033594966" lon="-7.119525019079447">
        <ele>23.210000000000001</ele>
        <time>2025-04-30T07:33:19Z</time>
      </trkpt>
      <trkpt lat="43.546960037201643" lon="-7.119798017665744">
        <ele>23.210000000000001</ele>
        <time>2025-04-30T07:33:20Z</time>
      </trkpt>
      <trkpt lat="43.547367984429002" lon="-7.122740987688303">
        <ele>21.77</ele>
        <time>2025-04-30T07:33:31Z</time>
      </trkpt>
      <trkpt lat="43.547775009647012" lon="-7.125511039048433">
        <ele>25.129999999999999</ele>
        <time>2025-04-30T07:33:43Z</time>
      </trkpt>
      <trkpt lat="43.548255041241646" lon="-7.128830021247268">
        <ele>28.5</ele>
        <time>2025-04-30T07:33:57Z</time>
      </trkpt>
      <trkpt lat="43.548586964607239" lon="-7.131093973293901">
        <ele>28.5</ele>
        <time>2025-04-30T07:34:06Z</time>
      </trkpt>
      <trkpt lat="43.549133967608213" lon="-7.134853005409241">
        <ele>28.98</ele>
        <time>2025-04-30T07:34:21Z</time>
      </trkpt>
      <trkpt lat="43.549592960625887" lon="-7.138058999553323">
        <ele>28.98</ele>
        <time>2025-04-30T07:34:34Z</time>
      </trkpt>
      <trkpt lat="43.549891021102667" lon="-7.140193032100797">
        <ele>28.02</ele>
        <time>2025-04-30T07:34:43Z</time>
      </trkpt>
      <trkpt lat="43.549891021102667" lon="-7.140425965189934">
        <ele>28.02</ele>
        <time>2025-04-30T07:34:44Z</time>
      </trkpt>
      <trkpt lat="43.549878029152751" lon="-7.140658982098103">
        <ele>28.02</ele>
        <time>2025-04-30T07:34:45Z</time>
      </trkpt>
      <trkpt lat="43.549840981140733" lon="-7.140891999006271">
        <ele>28.02</ele>
        <time>2025-04-30T07:34:46Z</time>
      </trkpt>
      <trkpt lat="43.549805022776127" lon="-7.141113029792905">
        <ele>28.02</ele>
        <time>2025-04-30T07:34:47Z</time>
      </trkpt>
      <trkpt lat="43.54919096454978" lon="-7.143650986254215">
        <ele>28.02</ele>
        <time>2025-04-30T07:34:58Z</time>
      </trkpt>
      <trkpt lat="43.549027014523745" lon="-7.144312988966703">
        <ele>28.5</ele>
        <time>2025-04-30T07:35:01Z</time>
      </trkpt>
      <trkpt lat="43.5489740408957" lon="-7.144523961469531">
        <ele>28.5</ele>
        <time>2025-04-30T07:35:02Z</time>
      </trkpt>
      <trkpt lat="43.548453021794558" lon="-7.146705016493797">
        <ele>28.02</ele>
        <time>2025-04-30T07:35:12Z</time>
      </trkpt>
      <trkpt lat="43.547767968848348" lon="-7.149647986516357">
        <ele>28.98</ele>
        <time>2025-04-30T07:35:26Z</time>
      </trkpt>
      <trkpt lat="43.547330014407635" lon="-7.151381028816104">
        <ele>34.259999999999998</ele>
        <time>2025-04-30T07:35:36Z</time>
      </trkpt>
      <trkpt lat="43.547422969713807" lon="-7.151627959683538">
        <ele>34.740000000000002</ele>
        <time>2025-04-30T07:35:37Z</time>
      </trkpt>
      <trkpt lat="43.5474509652704" lon="-7.151856031268835">
        <ele>35.710000000000001</ele>
        <time>2025-04-30T07:35:39Z</time>
      </trkpt>
      <trkpt lat="43.547419030219316" lon="-7.151972036808729">
        <ele>35.710000000000001</ele>
        <time>2025-04-30T07:35:40Z</time>
      </trkpt>
      <trkpt lat="43.547332026064396" lon="-7.152076978236437">
        <ele>36.189999999999998</ele>
        <time>2025-04-30T07:35:41Z</time>
      </trkpt>
      <trkpt lat="43.547144019976258" lon="-7.152274958789349">
        <ele>37.149999999999999</ele>
        <time>2025-04-30T07:35:43Z</time>
      </trkpt>
      <trkpt lat="43.547105966135859" lon="-7.15242700651288">
        <ele>37.630000000000003</ele>
        <time>2025-04-30T07:35:44Z</time>
      </trkpt>
      <trkpt lat="43.546716040000319" lon="-7.15397103689611">
        <ele>40.990000000000002</ele>
        <time>2025-04-30T07:35:52Z</time>
      </trkpt>
      <trkpt lat="43.546005003154278" lon="-7.156864972785115">
        <ele>44.359999999999999</ele>
        <time>2025-04-30T07:36:04Z</time>
      </trkpt>
      <trkpt lat="43.545376025140285" lon="-7.159398989751935">
        <ele>53.009999999999998</ele>
        <time>2025-04-30T07:36:15Z</time>
      </trkpt>
      <trkpt lat="43.544759033247828" lon="-7.161910040304065">
        <ele>62.140000000000001</ele>
        <time>2025-04-30T07:36:26Z</time>
      </trkpt>
      <trkpt lat="43.544196020811796" lon="-7.164121018722653">
        <ele>65.030000000000001</ele>
        <time>2025-04-30T07:36:36Z</time>
      </trkpt>
      <trkpt lat="43.543566036969423" lon="-7.166495025157929">
        <ele>65.510000000000005</ele>
        <time>2025-04-30T07:36:48Z</time>
      </trkpt>
      <trkpt lat="43.542897999286652" lon="-7.169045973569155">
        <ele>66.950000000000003</ele>
        <time>2025-04-30T07:37:02Z</time>
      </trkpt>
      <trkpt lat="43.542408999055624" lon="-7.170841963961721">
        <ele>67.909999999999997</ele>
        <time>2025-04-30T07:37:12Z</time>
      </trkpt>
      <trkpt lat="43.542381003499031" lon="-7.171043967828155">
        <ele>67.430000000000007</ele>
        <time>2025-04-30T07:37:13Z</time>
      </trkpt>
      <trkpt lat="43.542381003499031" lon="-7.171244965866208">
        <ele>67.430000000000007</ele>
        <time>2025-04-30T07:37:14Z</time>
      </trkpt>
      <trkpt lat="43.542381003499031" lon="-7.171445963904262">
        <ele>66.950000000000003</ele>
        <time>2025-04-30T07:37:15Z</time>
      </trkpt>
      <trkpt lat="43.542381003499031" lon="-7.171647967770696">
        <ele>66.950000000000003</ele>
        <time>2025-04-30T07:37:16Z</time>
      </trkpt>
      <trkpt lat="43.542393995448947" lon="-7.171844020485878">
        <ele>66.950000000000003</ele>
        <time>2025-04-30T07:37:17Z</time>
      </trkpt>
      <trkpt lat="43.542569009587169" lon="-7.17436102218926">
        <ele>69.349999999999994</ele>
        <time>2025-04-30T07:37:30Z</time>
      </trkpt>
      <trkpt lat="43.542733965441585" lon="-7.176856985315681">
        <ele>68.390000000000001</ele>
        <time>2025-04-30T07:37:42Z</time>
      </trkpt>
      <trkpt lat="43.542880984023213" lon="-7.178903007879853">
        <ele>61.659999999999997</ele>
        <time>2025-04-30T07:37:53Z</time>
      </trkpt>
      <trkpt lat="43.54289498180151" lon="-7.17919603921473">
        <ele>58.780000000000001</ele>
        <time>2025-04-30T07:37:59Z</time>
      </trkpt>
      <trkpt lat="43.54289498180151" lon="-7.17919603921473">
        <ele>58.780000000000001</ele>
        <time>2025-04-30T07:38:30Z</time>
      </trkpt>
      <trkpt lat="43.542919037863612" lon="-7.17945596203208">
        <ele>56.859999999999999</ele>
        <time>2025-04-30T07:38:51Z</time>
      </trkpt>
      <trkpt lat="43.543006964027882" lon="-7.180624986067414">
        <ele>54.450000000000003</ele>
        <time>2025-04-30T07:38:57Z</time>
      </trkpt>
      <trkpt lat="43.543162029236555" lon="-7.182955993339419">
        <ele>50.609999999999999</ele>
        <time>2025-04-30T07:39:07Z</time>
      </trkpt>
      <trkpt lat="43.54332497343421" lon="-7.185316001996398">
        <ele>48.200000000000003</ele>
        <time>2025-04-30T07:39:19Z</time>
      </trkpt>
      <trkpt lat="43.543461011722684" lon="-7.187160020694137">
        <ele>45.32</ele>
        <time>2025-04-30T07:39:30Z</time>
      </trkpt>
      <trkpt lat="43.543494958430529" lon="-7.187658995389938">
        <ele>45.32</ele>
        <time>2025-04-30T07:39:33Z</time>
      </trkpt>
      <trkpt lat="43.543506022542715" lon="-7.187823029235005">
        <ele>44.840000000000003</ele>
        <time>2025-04-30T07:39:34Z</time>
      </trkpt>
      <trkpt lat="43.54364700615406" lon="-7.19013299793005">
        <ele>42.439999999999998</ele>
        <time>2025-04-30T07:39:48Z</time>
      </trkpt>
      <trkpt lat="43.543787989765406" lon="-7.192115988582373">
        <ele>41.950000000000003</ele>
        <time>2025-04-30T07:40:02Z</time>
      </trkpt>
      <trkpt lat="43.543854961171746" lon="-7.192810010164976">
        <ele>41.950000000000003</ele>
        <time>2025-04-30T07:40:07Z</time>
      </trkpt>
      <trkpt lat="43.543874993920326" lon="-7.192946970462799">
        <ele>41.469999999999999</ele>
        <time>2025-04-30T07:40:08Z</time>
      </trkpt>
      <trkpt lat="43.543929979205132" lon="-7.19307404011488">
        <ele>41.469999999999999</ele>
        <time>2025-04-30T07:40:09Z</time>
      </trkpt>
      <trkpt lat="43.543994016945362" lon="-7.193178981542587">
        <ele>41.469999999999999</ele>
        <time>2025-04-30T07:40:10Z</time>
      </trkpt>
      <trkpt lat="43.544064005836844" lon="-7.193286018446088">
        <ele>41.469999999999999</ele>
        <time>2025-04-30T07:40:11Z</time>
      </trkpt>
      <trkpt lat="43.544150004163384" lon="-7.193373022601008">
        <ele>41.469999999999999</ele>
        <time>2025-04-30T07:40:12Z</time>
      </trkpt>
      <trkpt lat="43.544236002489924" lon="-7.193458015099168">
        <ele>41.950000000000003</ele>
        <time>2025-04-30T07:40:13Z</time>
      </trkpt>
      <trkpt lat="43.544457033276558" lon="-7.193738976493478">
        <ele>42.439999999999998</ele>
        <time>2025-04-30T07:40:16Z</time>
      </trkpt>
      <trkpt lat="43.544515036046505" lon="-7.193854982033372">
        <ele>42.439999999999998</ele>
        <time>2025-04-30T07:40:17Z</time>
      </trkpt>
      <trkpt lat="43.544573038816452" lon="-7.193970987573266">
        <ele>42.920000000000002</ele>
        <time>2025-04-30T07:40:18Z</time>
      </trkpt>
      <trkpt lat="43.544625006616116" lon="-7.194084981456399">
        <ele>43.399999999999999</ele>
        <time>2025-04-30T07:40:19Z</time>
      </trkpt>
      <trkpt lat="43.544668005779386" lon="-7.194210039451718">
        <ele>43.399999999999999</ele>
        <time>2025-04-30T07:40:20Z</time>
      </trkpt>
      <trkpt lat="43.544712010771036" lon="-7.194335013628006">
        <ele>43.399999999999999</ele>
        <time>2025-04-30T07:40:21Z</time>
      </trkpt>
      <trkpt lat="43.545212997123599" lon="-7.196023967117071">
        <ele>44.840000000000003</ele>
        <time>2025-04-30T07:40:34Z</time>
      </trkpt>
      <trkpt lat="43.545434027910233" lon="-7.196873975917697">
        <ele>46.280000000000001</ele>
        <time>2025-04-30T07:40:40Z</time>
      </trkpt>
      <trkpt lat="43.545532012358308" lon="-7.197311008349061">
        <ele>46.759999999999998</ele>
        <time>2025-04-30T07:40:43Z</time>
      </trkpt>
      <trkpt lat="43.545541986823082" lon="-7.197462972253561">
        <ele>46.759999999999998</ele>
        <time>2025-04-30T07:40:44Z</time>
      </trkpt>
      <trkpt lat="43.54549496434629" lon="-7.199267009273171">
        <ele>49.649999999999999</ele>
        <time>2025-04-30T07:40:55Z</time>
      </trkpt>
      <trkpt lat="43.54540896601975" lon="-7.201011031866074">
        <ele>52.049999999999997</ele>
        <time>2025-04-30T07:41:06Z</time>
      </trkpt>
      <trkpt lat="43.545304024592042" lon="-7.203267021104693">
        <ele>52.049999999999997</ele>
        <time>2025-04-30T07:41:19Z</time>
      </trkpt>
      <trkpt lat="43.545187013223767" lon="-7.205467019230127">
        <ele>48.200000000000003</ele>
        <time>2025-04-30T07:41:28Z</time>
      </trkpt>
      <trkpt lat="43.545017028227448" lon="-7.208813996985555">
        <ele>45.32</ele>
        <time>2025-04-30T07:41:41Z</time>
      </trkpt>
      <trkpt lat="43.544894987717271" lon="-7.211685972288251">
        <ele>46.280000000000001</ele>
        <time>2025-04-30T07:41:53Z</time>
      </trkpt>
      <trkpt lat="43.544711004942656" lon="-7.215186003595591">
        <ele>53.009999999999998</ele>
        <time>2025-04-30T07:42:08Z</time>
      </trkpt>
      <trkpt lat="43.544553006067872" lon="-7.21847397275269">
        <ele>58.299999999999997</ele>
        <time>2025-04-30T07:42:22Z</time>
      </trkpt>
      <trkpt lat="43.544466001912951" lon="-7.22047096118331">
        <ele>64.549999999999997</ele>
        <time>2025-04-30T07:42:31Z</time>
      </trkpt>
      <trkpt lat="43.544323006644845" lon="-7.223178986459971">
        <ele>65.030000000000001</ele>
        <time>2025-04-30T07:42:45Z</time>
      </trkpt>
      <trkpt lat="43.544277995824814" lon="-7.22373403608799">
        <ele>64.549999999999997</ele>
        <time>2025-04-30T07:42:49Z</time>
      </trkpt>
      <trkpt lat="43.544244971126318" lon="-7.22386596724391">
        <ele>64.549999999999997</ele>
        <time>2025-04-30T07:42:50Z</time>
      </trkpt>
      <trkpt lat="43.54420498944819" lon="-7.223988007754087">
        <ele>64.549999999999997</ele>
        <time>2025-04-30T07:42:51Z</time>
      </trkpt>
      <trkpt lat="43.544150004163384" lon="-7.224112981930375">
        <ele>64.069999999999993</ele>
        <time>2025-04-30T07:42:52Z</time>
      </trkpt>
      <trkpt lat="43.544093007221818" lon="-7.224240973591805">
        <ele>64.069999999999993</ele>
        <time>2025-04-30T07:42:53Z</time>
      </trkpt>
      <trkpt lat="43.543383982032537" lon="-7.226060014218092">
        <ele>62.140000000000001</ele>
        <time>2025-04-30T07:43:06Z</time>
      </trkpt>
      <trkpt lat="43.543357998132706" lon="-7.226219018921256">
        <ele>62.140000000000001</ele>
        <time>2025-04-30T07:43:07Z</time>
      </trkpt>
      <trkpt lat="43.543221959844232" lon="-7.227057041600347">
        <ele>62.619999999999997</ele>
        <time>2025-04-30T07:43:13Z</time>
      </trkpt>
      <trkpt lat="43.54315297678113" lon="-7.227479992434382">
        <ele>62.140000000000001</ele>
        <time>2025-04-30T07:43:16Z</time>
      </trkpt>
      <trkpt lat="43.542638998478651" lon="-7.228994015604258">
        <ele>63.579999999999998</ele>
        <time>2025-04-30T07:43:27Z</time>
      </trkpt>
      <trkpt lat="43.542276984080672" lon="-7.229980984702706">
        <ele>64.549999999999997</ele>
        <time>2025-04-30T07:43:34Z</time>
      </trkpt>
      <trkpt lat="43.541586985811591" lon="-7.231236007064581">
        <ele>67.909999999999997</ele>
        <time>2025-04-30T07:43:44Z</time>
      </trkpt>
      <trkpt lat="43.5414760094136" lon="-7.231501964852214">
        <ele>68.390000000000001</ele>
        <time>2025-04-30T07:43:46Z</time>
      </trkpt>
      <trkpt lat="43.54106898419559" lon="-7.232651961967349">
        <ele>69.829999999999998</ele>
        <time>2025-04-30T07:43:55Z</time>
      </trkpt>
      <trkpt lat="43.540457021445036" lon="-7.234353991225362">
        <ele>70.790000000000006</ele>
        <time>2025-04-30T07:44:07Z</time>
      </trkpt>
      <trkpt lat="43.539817985147238" lon="-7.236168002709746">
        <ele>69.829999999999998</ele>
        <time>2025-04-30T07:44:19Z</time>
      </trkpt>
      <trkpt lat="43.539761994034052" lon="-7.236341005191207">
        <ele>69.349999999999994</ele>
        <time>2025-04-30T07:44:20Z</time>
      </trkpt>
      <trkpt lat="43.539706002920866" lon="-7.236514007672668">
        <ele>68.870000000000005</ele>
        <time>2025-04-30T07:44:21Z</time>
      </trkpt>
      <trkpt lat="43.539661997929215" lon="-7.236703019589186">
        <ele>68.390000000000001</ele>
        <time>2025-04-30T07:44:22Z</time>
      </trkpt>
      <trkpt lat="43.53958697989583" lon="-7.237065033987165">
        <ele>67.430000000000007</ele>
        <time>2025-04-30T07:44:24Z</time>
      </trkpt>
      <trkpt lat="43.539566025137901" lon="-7.237230995669961">
        <ele>66.950000000000003</ele>
        <time>2025-04-30T07:44:25Z</time>
      </trkpt>
      <trkpt lat="43.539526965469122" lon="-7.237568031996489">
        <ele>65.989999999999995</ele>
        <time>2025-04-30T07:44:27Z</time>
      </trkpt>
      <trkpt lat="43.539526965469122" lon="-7.237737011164427">
        <ele>65.510000000000005</ele>
        <time>2025-04-30T07:44:28Z</time>
      </trkpt>
      <trkpt lat="43.539538029581308" lon="-7.237899033352733">
        <ele>65.030000000000001</ele>
        <time>2025-04-30T07:44:29Z</time>
      </trkpt>
      <trkpt lat="43.539554961025715" lon="-7.238071030005813">
        <ele>64.549999999999997</ele>
        <time>2025-04-30T07:44:30Z</time>
      </trkpt>
      <trkpt lat="43.539583962410688" lon="-7.238231962546706">
        <ele>64.069999999999993</ele>
        <time>2025-04-30T07:44:31Z</time>
      </trkpt>
      <trkpt lat="43.539917981252074" lon="-7.24025703035295">
        <ele>65.510000000000005</ele>
        <time>2025-04-30T07:44:44Z</time>
      </trkpt>
      <trkpt lat="43.540000962093472" lon="-7.241374002769589">
        <ele>65.030000000000001</ele>
        <time>2025-04-30T07:44:52Z</time>
      </trkpt>
      <trkpt lat="43.540100958198309" lon="-7.24322397261858">
        <ele>63.100000000000001</ele>
        <time>2025-04-30T07:45:03Z</time>
      </trkpt>
      <trkpt lat="43.540197014808655" lon="-7.24524300545454">
        <ele>64.069999999999993</ele>
        <time>2025-04-30T07:45:15Z</time>
      </trkpt>
      <trkpt lat="43.540257029235363" lon="-7.247459013015032">
        <ele>59.259999999999998</ele>
        <time>2025-04-30T07:45:27Z</time>
      </trkpt>
      <trkpt lat="43.540222998708487" lon="-7.250182963907719">
        <ele>54.450000000000003</ele>
        <time>2025-04-30T07:45:40Z</time>
      </trkpt>
      <trkpt lat="43.540199026465416" lon="-7.251318963244557">
        <ele>50.609999999999999</ele>
        <time>2025-04-30T07:45:47Z</time>
      </trkpt>
      <trkpt lat="43.540196008980274" lon="-7.251445027068257">
        <ele>50.130000000000003</ele>
        <time>2025-04-30T07:45:48Z</time>
      </trkpt>
      <trkpt lat="43.540347972884774" lon="-7.251700004562736">
        <ele>49.159999999999997</ele>
        <time>2025-04-30T07:45:50Z</time>
      </trkpt>
      <trkpt lat="43.540406981483102" lon="-7.251855991780758">
        <ele>48.68</ele>
        <time>2025-04-30T07:45:51Z</time>
      </trkpt>
      <trkpt lat="43.540392983704805" lon="-7.251981971785426">
        <ele>48.200000000000003</ele>
        <time>2025-04-30T07:45:52Z</time>
      </trkpt>
      <trkpt lat="43.540363982319832" lon="-7.253441009670496">
        <ele>43.399999999999999</ele>
        <time>2025-04-30T07:46:00Z</time>
      </trkpt>
      <trkpt lat="43.540385020896792" lon="-7.256132019683719">
        <ele>38.109999999999999</ele>
        <time>2025-04-30T07:46:12Z</time>
      </trkpt>
      <trkpt lat="43.540428020060062" lon="-7.257953993976116">
        <ele>37.149999999999999</ele>
        <time>2025-04-30T07:46:20Z</time>
      </trkpt>
      <trkpt lat="43.540417961776257" lon="-7.260392960160971">
        <ele>33.780000000000001</ele>
        <time>2025-04-30T07:46:30Z</time>
      </trkpt>
      <trkpt lat="43.540098024532199" lon="-7.262591030448675">
        <ele>26.09</ele>
        <time>2025-04-30T07:46:38Z</time>
      </trkpt>
      <trkpt lat="43.539851009845734" lon="-7.264186022803187">
        <ele>20.32</ele>
        <time>2025-04-30T07:46:45Z</time>
      </trkpt>
      <trkpt lat="43.539833994582295" lon="-7.26445097476244">
        <ele>19.359999999999999</ele>
        <time>2025-04-30T07:46:47Z</time>
      </trkpt>
      <trkpt lat="43.539827959612012" lon="-7.264548037201166">
        <ele>18.879999999999999</ele>
        <time>2025-04-30T07:46:48Z</time>
      </trkpt>
      <trkpt lat="43.539709020406008" lon="-7.264569997787476">
        <ele>18.879999999999999</ele>
        <time>2025-04-30T07:46:49Z</time>
      </trkpt>
      <trkpt lat="43.539641965180635" lon="-7.264576032757759">
        <ele>18.399999999999999</ele>
        <time>2025-04-30T07:46:50Z</time>
      </trkpt>
      <trkpt lat="43.539559990167618" lon="-7.264586007222533">
        <ele>18.399999999999999</ele>
        <time>2025-04-30T07:46:51Z</time>
      </trkpt>
      <trkpt lat="43.539479020982981" lon="-7.264597993344069">
        <ele>17.920000000000002</ele>
        <time>2025-04-30T07:46:52Z</time>
      </trkpt>
      <trkpt lat="43.539397967979312" lon="-7.264610985293984">
        <ele>17.440000000000001</ele>
        <time>2025-04-30T07:46:53Z</time>
      </trkpt>
      <trkpt lat="43.539291014894843" lon="-7.2647949680686">
        <ele>16.960000000000001</ele>
        <time>2025-04-30T07:46:54Z</time>
      </trkpt>
      <trkpt lat="43.539258996024728" lon="-7.264802008867264">
        <ele>16.48</ele>
        <time>2025-04-30T07:46:55Z</time>
      </trkpt>
      <trkpt lat="43.539188001304865" lon="-7.26481600664556">
        <ele>15.52</ele>
        <time>2025-04-30T07:46:56Z</time>
      </trkpt>
      <trkpt lat="43.539135027676821" lon="-7.264908961951733">
        <ele>15.039999999999999</ele>
        <time>2025-04-30T07:46:57Z</time>
      </trkpt>
      <trkpt lat="43.539117006585002" lon="-7.26501096971333">
        <ele>14.56</ele>
        <time>2025-04-30T07:46:58Z</time>
      </trkpt>
      <trkpt lat="43.539096973836422" lon="-7.265121024101973">
        <ele>14.08</ele>
        <time>2025-04-30T07:46:59Z</time>
      </trkpt>
      <trkpt lat="43.539077024906874" lon="-7.265237029641867">
        <ele>13.6</ele>
        <time>2025-04-30T07:47:00Z</time>
      </trkpt>
      <trkpt lat="43.539056992158294" lon="-7.265348006039858">
        <ele>13.6</ele>
        <time>2025-04-30T07:47:01Z</time>
      </trkpt>
      <trkpt lat="43.539033019915223" lon="-7.265482032671571">
        <ele>14.08</ele>
        <time>2025-04-30T07:47:02Z</time>
      </trkpt>
      <trkpt lat="43.539204010739923" lon="-7.26672800257802">
        <ele>11.19</ele>
        <time>2025-04-30T07:47:14Z</time>
      </trkpt>
      <trkpt lat="43.539291014894843" lon="-7.267112983390689">
        <ele>9.27</ele>
        <time>2025-04-30T07:47:17Z</time>
      </trkpt>
      <trkpt lat="43.539393022656441" lon="-7.267391011118889">
        <ele>8.310000000000001</ele>
        <time>2025-04-30T07:47:20Z</time>
      </trkpt>
      <trkpt lat="43.539430992677808" lon="-7.267495030537248">
        <ele>8.310000000000001</ele>
        <time>2025-04-30T07:47:21Z</time>
      </trkpt>
      <trkpt lat="43.539468962699175" lon="-7.267596032470465">
        <ele>7.83</ele>
        <time>2025-04-30T07:47:22Z</time>
      </trkpt>
      <trkpt lat="43.539505004882813" lon="-7.267696028575301">
        <ele>7.83</ele>
        <time>2025-04-30T07:47:23Z</time>
      </trkpt>
      <trkpt lat="43.539541969075799" lon="-7.267795018851757">
        <ele>7.83</ele>
        <time>2025-04-30T07:47:24Z</time>
      </trkpt>
      <trkpt lat="43.539681024849415" lon="-7.268173964694142">
        <ele>7.83</ele>
        <time>2025-04-30T07:47:28Z</time>
      </trkpt>
      <trkpt lat="43.53971497155726" lon="-7.268265997990966">
        <ele>8.310000000000001</ele>
        <time>2025-04-30T07:47:29Z</time>
      </trkpt>
      <trkpt lat="43.540029041469097" lon="-7.269111983478069">
        <ele>12.630000000000001</ele>
        <time>2025-04-30T07:47:38Z</time>
      </trkpt>
      <trkpt lat="43.540075980126858" lon="-7.26921902038157">
        <ele>12.630000000000001</ele>
        <time>2025-04-30T07:47:39Z</time>
      </trkpt>
      <trkpt lat="43.540157033130527" lon="-7.269307030364871">
        <ele>13.119999999999999</ele>
        <time>2025-04-30T07:47:40Z</time>
      </trkpt>
      <trkpt lat="43.540242025628686" lon="-7.269352041184902">
        <ele>13.119999999999999</ele>
        <time>2025-04-30T07:47:41Z</time>
      </trkpt>
      <trkpt lat="43.540335986763239" lon="-7.269403003156185">
        <ele>13.119999999999999</ele>
        <time>2025-04-30T07:47:42Z</time>
      </trkpt>
      <trkpt lat="43.540425002574921" lon="-7.269450025632978">
        <ele>13.119999999999999</ele>
        <time>2025-04-30T07:47:43Z</time>
      </trkpt>
      <trkpt lat="43.540514018386602" lon="-7.269414989277721">
        <ele>13.119999999999999</ele>
        <time>2025-04-30T07:47:44Z</time>
      </trkpt>
      <trkpt lat="43.540589958429337" lon="-7.269381964579225">
        <ele>13.119999999999999</ele>
        <time>2025-04-30T07:47:45Z</time>
      </trkpt>
      <trkpt lat="43.540667993947864" lon="-7.26934902369976">
        <ele>13.119999999999999</ele>
        <time>2025-04-30T07:47:46Z</time>
      </trkpt>
      <trkpt lat="43.54074502363801" lon="-7.269315999001265">
        <ele>13.6</ele>
        <time>2025-04-30T07:47:47Z</time>
      </trkpt>
      <trkpt lat="43.540963958948851" lon="-7.269222037866712">
        <ele>14.56</ele>
        <time>2025-04-30T07:47:50Z</time>
      </trkpt>
      <trkpt lat="43.541029002517462" lon="-7.269193958491087">
        <ele>15.039999999999999</ele>
        <time>2025-04-30T07:47:51Z</time>
      </trkpt>
      <trkpt lat="43.541103014722466" lon="-7.269200999289751">
        <ele>15.039999999999999</ele>
        <time>2025-04-30T07:47:52Z</time>
      </trkpt>
      <trkpt lat="43.541182978078723" lon="-7.269209967926145">
        <ele>15.039999999999999</ele>
        <time>2025-04-30T07:47:53Z</time>
      </trkpt>
      <trkpt lat="43.541260007768869" lon="-7.269231006503105">
        <ele>15.52</ele>
        <time>2025-04-30T07:47:54Z</time>
      </trkpt>
      <trkpt lat="43.541329996660352" lon="-7.269294960424304">
        <ele>15.039999999999999</ele>
        <time>2025-04-30T07:47:55Z</time>
      </trkpt>
      <trkpt lat="43.541403003036976" lon="-7.269362015649676">
        <ele>15.039999999999999</ele>
        <time>2025-04-30T07:47:56Z</time>
      </trkpt>
      <trkpt lat="43.541477015241981" lon="-7.269428987056017">
        <ele>14.56</ele>
        <time>2025-04-30T07:47:57Z</time>
      </trkpt>
      <trkpt lat="43.54164800606668" lon="-7.26958598010242">
        <ele>13.6</ele>
        <time>2025-04-30T07:48:00Z</time>
      </trkpt>
      <trkpt lat="43.541686981916428" lon="-7.269622022286058">
        <ele>13.6</ele>
        <time>2025-04-30T07:48:01Z</time>
      </trkpt>
      <trkpt lat="43.541742973029613" lon="-7.269726041704416">
        <ele>13.119999999999999</ele>
        <time>2025-04-30T07:48:02Z</time>
      </trkpt>
      <trkpt lat="43.54171397164464" lon="-7.269796030595899">
        <ele>12.630000000000001</ele>
        <time>2025-04-30T07:48:03Z</time>
      </trkpt>
      <trkpt lat="43.541680024936795" lon="-7.269881023094058">
        <ele>12.630000000000001</ele>
        <time>2025-04-30T07:48:04Z</time>
      </trkpt>
      <trkpt lat="43.541471986100078" lon="-7.270804960280657">
        <ele>11.19</ele>
        <time>2025-04-30T07:48:11Z</time>
      </trkpt>
      <trkpt lat="43.541308036074042" lon="-7.271940959617496">
        <ele>10.710000000000001</ele>
        <time>2025-04-30T07:48:18Z</time>
      </trkpt>
      <trkpt lat="43.541292026638985" lon="-7.272092001512647">
        <ele>10.710000000000001</ele>
        <time>2025-04-30T07:48:19Z</time>
      </trkpt>
      <trkpt lat="43.541277023032308" lon="-7.272228039801121">
        <ele>10.710000000000001</ele>
        <time>2025-04-30T07:48:20Z</time>
      </trkpt>
      <trkpt lat="43.541264031082392" lon="-7.27235603146255">
        <ele>10.710000000000001</ele>
        <time>2025-04-30T07:48:21Z</time>
      </trkpt>
      <trkpt lat="43.541251961141825" lon="-7.2724639903754">
        <ele>10.710000000000001</ele>
        <time>2025-04-30T07:48:22Z</time>
      </trkpt>
      <trkpt lat="43.541282974183559" lon="-7.272819969803095">
        <ele>9.75</ele>
        <time>2025-04-30T07:48:27Z</time>
      </trkpt>
      <trkpt lat="43.541291020810604" lon="-7.272873027250171">
        <ele>9.75</ele>
        <time>2025-04-30T07:48:28Z</time>
      </trkpt>
      <trkpt lat="43.541298983618617" lon="-7.272927006706595">
        <ele>9.27</ele>
        <time>2025-04-30T07:48:29Z</time>
      </trkpt>
      <trkpt lat="43.541308036074042" lon="-7.272991966456175">
        <ele>9.27</ele>
        <time>2025-04-30T07:48:30Z</time>
      </trkpt>
      <trkpt lat="43.541308036074042" lon="-7.272991966456175">
        <ele>8.789999999999999</ele>
        <time>2025-04-30T07:48:31Z</time>
      </trkpt>
      <trkpt lat="43.541352963075042" lon="-7.273027002811432">
        <ele>8.789999999999999</ele>
        <time>2025-04-30T07:48:32Z</time>
      </trkpt>
      <trkpt lat="43.541423035785556" lon="-7.273081988096237">
        <ele>8.789999999999999</ele>
        <time>2025-04-30T07:48:33Z</time>
      </trkpt>
      <trkpt lat="43.541500987485051" lon="-7.273143008351326">
        <ele>8.310000000000001</ele>
        <time>2025-04-30T07:48:34Z</time>
      </trkpt>
      <trkpt lat="43.541583968326449" lon="-7.273208973929286">
        <ele>8.310000000000001</ele>
        <time>2025-04-30T07:48:35Z</time>
      </trkpt>
      <trkpt lat="43.542444035410881" lon="-7.27401196025312">
        <ele>8.789999999999999</ele>
        <time>2025-04-30T07:48:44Z</time>
      </trkpt>
      <trkpt lat="43.542543025687337" lon="-7.274109022691846">
        <ele>9.27</ele>
        <time>2025-04-30T07:48:45Z</time>
      </trkpt>
      <trkpt lat="43.542638998478651" lon="-7.274202983826399">
        <ele>9.75</ele>
        <time>2025-04-30T07:48:46Z</time>
      </trkpt>
      <trkpt lat="43.543304018676281" lon="-7.274859035387635">
        <ele>15.039999999999999</ele>
        <time>2025-04-30T07:48:53Z</time>
      </trkpt>
      <trkpt lat="43.54336897842586" lon="-7.275000018998981">
        <ele>16</ele>
        <time>2025-04-30T07:48:54Z</time>
      </trkpt>
      <trkpt lat="43.543428992852569" lon="-7.27512801066041">
        <ele>16.960000000000001</ele>
        <time>2025-04-30T07:48:55Z</time>
      </trkpt>
      <trkpt lat="43.543477021157742" lon="-7.275265976786614">
        <ele>17.920000000000002</ele>
        <time>2025-04-30T07:48:56Z</time>
      </trkpt>
      <trkpt lat="43.543515997007489" lon="-7.275409977883101">
        <ele>18.879999999999999</ele>
        <time>2025-04-30T07:48:57Z</time>
      </trkpt>
      <trkpt lat="43.543785978108644" lon="-7.276264009997249">
        <ele>23.210000000000001</ele>
        <time>2025-04-30T07:49:03Z</time>
      </trkpt>
      <trkpt lat="43.543854961171746" lon="-7.276390995830298">
        <ele>24.170000000000002</ele>
        <time>2025-04-30T07:49:04Z</time>
      </trkpt>
      <trkpt lat="43.54392402805388" lon="-7.276516975834966">
        <ele>25.129999999999999</ele>
        <time>2025-04-30T07:49:05Z</time>
      </trkpt>
      <trkpt lat="43.544122008606791" lon="-7.276883013546467">
        <ele>28.5</ele>
        <time>2025-04-30T07:49:08Z</time>
      </trkpt>
      <trkpt lat="43.544238014146686" lon="-7.277097003534436">
        <ele>30.899999999999999</ele>
        <time>2025-04-30T07:49:10Z</time>
      </trkpt>
      <trkpt lat="43.54426902718842" lon="-7.277155006304383">
        <ele>31.859999999999999</ele>
        <time>2025-04-30T07:49:11Z</time>
      </trkpt>
      <trkpt lat="43.544461978599429" lon="-7.277133967727423">
        <ele>32.82</ele>
        <time>2025-04-30T07:49:12Z</time>
      </trkpt>
      <trkpt lat="43.544544037431479" lon="-7.277210997417569">
        <ele>33.780000000000001</ele>
        <time>2025-04-30T07:49:13Z</time>
      </trkpt>
      <trkpt lat="43.544625006616116" lon="-7.277288027107716">
        <ele>34.259999999999998</ele>
        <time>2025-04-30T07:49:14Z</time>
      </trkpt>
      <trkpt lat="43.544706981629133" lon="-7.27736497297883">
        <ele>35.229999999999997</ele>
        <time>2025-04-30T07:49:15Z</time>
      </trkpt>
      <trkpt lat="43.544789040461183" lon="-7.277443008497357">
        <ele>35.710000000000001</ele>
        <time>2025-04-30T07:49:16Z</time>
      </trkpt>
      <trkpt lat="43.54487000964582" lon="-7.277520038187504">
        <ele>36.670000000000002</ele>
        <time>2025-04-30T07:49:17Z</time>
      </trkpt>
      <trkpt lat="43.544905968010426" lon="-7.277645012363792">
        <ele>37.149999999999999</ele>
        <time>2025-04-30T07:49:18Z</time>
      </trkpt>
      <trkpt lat="43.544945027679205" lon="-7.277780966833234">
        <ele>37.630000000000003</ele>
        <time>2025-04-30T07:49:19Z</time>
      </trkpt>
      <trkpt lat="43.545063966885209" lon="-7.278198972344399">
        <ele>40.509999999999998</ele>
        <time>2025-04-30T07:49:22Z</time>
      </trkpt>
      <trkpt lat="43.545093974098563" lon="-7.278340039774776">
        <ele>40.990000000000002</ele>
        <time>2025-04-30T07:49:23Z</time>
      </trkpt>
      <trkpt lat="43.545275023207068" lon="-7.280066041275859">
        <ele>46.759999999999998</ele>
        <time>2025-04-30T07:49:34Z</time>
      </trkpt>
      <trkpt lat="43.545303018763661" lon="-7.280538026243448">
        <ele>47.719999999999999</ele>
        <time>2025-04-30T07:49:37Z</time>
      </trkpt>
      <trkpt lat="43.545316010713577" lon="-7.280796021223068">
        <ele>48.68</ele>
        <time>2025-04-30T07:49:39Z</time>
      </trkpt>
      <trkpt lat="43.545289020985365" lon="-7.28088503703475">
        <ele>48.68</ele>
        <time>2025-04-30T07:49:40Z</time>
      </trkpt>
      <trkpt lat="43.544927006587386" lon="-7.282053977251053">
        <ele>46.759999999999998</ele>
        <time>2025-04-30T07:49:50Z</time>
      </trkpt>
      <trkpt lat="43.544429037719965" lon="-7.283666990697384">
        <ele>37.149999999999999</ele>
        <time>2025-04-30T07:50:02Z</time>
      </trkpt>
      <trkpt lat="43.544303979724646" lon="-7.284072004258633">
        <ele>37.630000000000003</ele>
        <time>2025-04-30T07:50:05Z</time>
      </trkpt>
      <trkpt lat="43.544266009703279" lon="-7.284193960949779">
        <ele>38.109999999999999</ele>
        <time>2025-04-30T07:50:06Z</time>
      </trkpt>
      <trkpt lat="43.544230973348022" lon="-7.284308038651943">
        <ele>39.07</ele>
        <time>2025-04-30T07:50:07Z</time>
      </trkpt>
      <trkpt lat="43.54392402805388" lon="-7.285300958901644">
        <ele>48.68</ele>
        <time>2025-04-30T07:50:18Z</time>
      </trkpt>
      <trkpt lat="43.543869964778423" lon="-7.285473961383104">
        <ele>52.049999999999997</ele>
        <time>2025-04-30T07:50:23Z</time>
      </trkpt>
      <trkpt lat="43.543900977820158" lon="-7.285541016608477">
        <ele>52.530000000000001</ele>
        <time>2025-04-30T07:50:24Z</time>
      </trkpt>
      <trkpt lat="43.543938025832176" lon="-7.285578986629844">
        <ele>53.009999999999998</ele>
        <time>2025-04-30T07:50:25Z</time>
      </trkpt>
      <trkpt lat="43.543985970318317" lon="-7.285627014935017">
        <ele>53.009999999999998</ele>
        <time>2025-04-30T07:50:26Z</time>
      </trkpt>
      <trkpt lat="43.544040033593774" lon="-7.285680994391441">
        <ele>53.490000000000002</ele>
        <time>2025-04-30T07:50:27Z</time>
      </trkpt>
      <trkpt lat="43.544644033536315" lon="-7.286202013492584">
        <ele>54.450000000000003</ele>
        <time>2025-04-30T07:50:36Z</time>
      </trkpt>
      <trkpt lat="43.544697007164359" lon="-7.286308966577053">
        <ele>54.450000000000003</ele>
        <time>2025-04-30T07:50:37Z</time>
      </trkpt>
      <trkpt lat="43.544736988842487" lon="-7.286405023187399">
        <ele>54.450000000000003</ele>
        <time>2025-04-30T07:50:38Z</time>
      </trkpt>
      <trkpt lat="43.544817036017776" lon="-7.286594035103917">
        <ele>55.409999999999997</ele>
        <time>2025-04-30T07:50:40Z</time>
      </trkpt>
      <trkpt lat="43.54482701048255" lon="-7.286618007346988">
        <ele>56.369999999999997</ele>
        <time>2025-04-30T07:50:41Z</time>
      </trkpt>
      <trkpt lat="43.54482701048255" lon="-7.286856975406408">
        <ele>57.82</ele>
        <time>2025-04-30T07:50:43Z</time>
      </trkpt>
      <trkpt lat="43.54482701048255" lon="-7.286946997046471">
        <ele>58.299999999999997</ele>
        <time>2025-04-30T07:50:44Z</time>
      </trkpt>
      <trkpt lat="43.54482701048255" lon="-7.287049004808068">
        <ele>58.780000000000001</ele>
        <time>2025-04-30T07:50:45Z</time>
      </trkpt>
      <trkpt lat="43.54482701048255" lon="-7.287132991477847">
        <ele>59.259999999999998</ele>
        <time>2025-04-30T07:50:46Z</time>
      </trkpt>
      <trkpt lat="43.544844025745988" lon="-7.287290990352631">
        <ele>59.740000000000002</ele>
        <time>2025-04-30T07:50:47Z</time>
      </trkpt>
      <trkpt lat="43.544858023524284" lon="-7.28741898201406">
        <ele>60.219999999999999</ele>
        <time>2025-04-30T07:50:48Z</time>
      </trkpt>
      <trkpt lat="43.544873027130961" lon="-7.287560971453786">
        <ele>60.219999999999999</ele>
        <time>2025-04-30T07:50:49Z</time>
      </trkpt>
      <trkpt lat="43.544888030737638" lon="-7.287700027227402">
        <ele>60.219999999999999</ele>
        <time>2025-04-30T07:50:50Z</time>
      </trkpt>
      <trkpt lat="43.544944021850824" lon="-7.287843022495508">
        <ele>60.700000000000003</ele>
        <time>2025-04-30T07:50:51Z</time>
      </trkpt>
      <trkpt lat="43.545014010742307" lon="-7.287987023591995">
        <ele>61.659999999999997</ele>
        <time>2025-04-30T07:50:52Z</time>
      </trkpt>
      <trkpt lat="43.545088022947311" lon="-7.288142004981637">
        <ele>62.140000000000001</ele>
        <time>2025-04-30T07:50:53Z</time>
      </trkpt>
      <trkpt lat="43.545169997960329" lon="-7.288312995806336">
        <ele>63.100000000000001</ele>
        <time>2025-04-30T07:50:54Z</time>
      </trkpt>
      <trkpt lat="43.545249039307237" lon="-7.288421960547566">
        <ele>64.549999999999997</ele>
        <time>2025-04-30T07:50:55Z</time>
      </trkpt>
      <trkpt lat="43.545346017926931" lon="-7.288554981350899">
        <ele>65.989999999999995</ele>
        <time>2025-04-30T07:50:56Z</time>
      </trkpt>
      <trkpt lat="43.545725969597697" lon="-7.288991007953882">
        <ele>71.760000000000005</ele>
        <time>2025-04-30T07:51:00Z</time>
      </trkpt>
      <trkpt lat="43.545804005116224" lon="-7.289031995460391">
        <ele>72.719999999999999</ele>
        <time>2025-04-30T07:51:01Z</time>
      </trkpt>
      <trkpt lat="43.545867037028074" lon="-7.289066025987268">
        <ele>74.159999999999997</ele>
        <time>2025-04-30T07:51:02Z</time>
      </trkpt>
      <trkpt lat="43.545913975685835" lon="-7.289089998230338">
        <ele>75.120000000000005</ele>
        <time>2025-04-30T07:51:03Z</time>
      </trkpt>
      <trkpt lat="43.545954963192344" lon="-7.289111958816648">
        <ele>76.079999999999998</ele>
        <time>2025-04-30T07:51:04Z</time>
      </trkpt>
      <trkpt lat="43.545933002606034" lon="-7.289257971569896">
        <ele>76.560000000000002</ele>
        <time>2025-04-30T07:51:05Z</time>
      </trkpt>
      <trkpt lat="43.545916993170977" lon="-7.289297031238675">
        <ele>77.519999999999996</ele>
        <time>2025-04-30T07:51:06Z</time>
      </trkpt>
      <trkpt lat="43.545894026756287" lon="-7.289355034008622">
        <ele>78.480000000000004</ele>
        <time>2025-04-30T07:51:07Z</time>
      </trkpt>
      <trkpt lat="43.545864019542933" lon="-7.289429968222976">
        <ele>79.450000000000003</ele>
        <time>2025-04-30T07:51:08Z</time>
      </trkpt>
      <trkpt lat="43.545828983187675" lon="-7.289516972377896">
        <ele>79.930000000000007</ele>
        <time>2025-04-30T07:51:09Z</time>
      </trkpt>
      <trkpt lat="43.545606024563313" lon="-7.290660012513399">
        <ele>85.689999999999998</ele>
        <time>2025-04-30T07:51:18Z</time>
      </trkpt>
      <trkpt lat="43.545603007078171" lon="-7.290795966982842">
        <ele>86.180000000000007</ele>
        <time>2025-04-30T07:51:19Z</time>
      </trkpt>
      <trkpt lat="43.545599989593029" lon="-7.290925970301032">
        <ele>87.140000000000001</ele>
        <time>2025-04-30T07:51:20Z</time>
      </trkpt>
      <trkpt lat="43.545625973492861" lon="-7.291051028296351">
        <ele>87.140000000000001</ele>
        <time>2025-04-30T07:51:21Z</time>
      </trkpt>
      <trkpt lat="43.545662015676498" lon="-7.291183965280652">
        <ele>87.620000000000005</ele>
        <time>2025-04-30T07:51:22Z</time>
      </trkpt>
      <trkpt lat="43.546037022024393" lon="-7.292474023997784">
        <ele>92.420000000000002</ele>
        <time>2025-04-30T07:51:32Z</time>
      </trkpt>
      <trkpt lat="43.546414962038398" lon="-7.293506003916264">
        <ele>103.95999999999999</ele>
        <time>2025-04-30T07:51:42Z</time>
      </trkpt>
      <trkpt lat="43.546415967866778" lon="-7.29351899586618">
        <ele>105.40000000000001</ele>
        <time>2025-04-30T07:51:43Z</time>
      </trkpt>
      <trkpt lat="43.546387972310185" lon="-7.293544979766011">
        <ele>106.36</ele>
        <time>2025-04-30T07:51:44Z</time>
      </trkpt>
      <trkpt lat="43.546345978975296" lon="-7.293607005849481">
        <ele>107.81</ele>
        <time>2025-04-30T07:51:45Z</time>
      </trkpt>
      <trkpt lat="43.546300968155265" lon="-7.293672971427441">
        <ele>108.77</ele>
        <time>2025-04-30T07:51:46Z</time>
      </trkpt>
      <trkpt lat="43.546253023669124" lon="-7.293743966147304">
        <ele>109.73</ele>
        <time>2025-04-30T07:51:47Z</time>
      </trkpt>
      <trkpt lat="43.54620398953557" lon="-7.293815966695547">
        <ele>110.69</ele>
        <time>2025-04-30T07:51:48Z</time>
      </trkpt>
      <trkpt lat="43.546113967895508" lon="-7.293948987498879">
        <ele>112.61</ele>
        <time>2025-04-30T07:51:50Z</time>
      </trkpt>
      <trkpt lat="43.546050013974309" lon="-7.294042026624084">
        <ele>117.90000000000001</ele>
        <time>2025-04-30T07:51:55Z</time>
      </trkpt>
      <trkpt lat="43.546093013137579" lon="-7.294136993587017">
        <ele>118.38</ele>
        <time>2025-04-30T07:51:56Z</time>
      </trkpt>
      <trkpt lat="43.54611799120903" lon="-7.294192984700203">
        <ele>119.34</ele>
        <time>2025-04-30T07:51:57Z</time>
      </trkpt>
      <trkpt lat="43.546146992594004" lon="-7.294257022440434">
        <ele>119.81999999999999</ele>
        <time>2025-04-30T07:51:58Z</time>
      </trkpt>
      <trkpt lat="43.546178005635738" lon="-7.294327011331916">
        <ele>120.78</ele>
        <time>2025-04-30T07:51:59Z</time>
      </trkpt>
      <trkpt lat="43.546209018677473" lon="-7.294397000223398">
        <ele>121.73999999999999</ele>
        <time>2025-04-30T07:52:00Z</time>
      </trkpt>
      <trkpt lat="43.546240031719208" lon="-7.294463971629739">
        <ele>122.22</ele>
        <time>2025-04-30T07:52:01Z</time>
      </trkpt>
      <trkpt lat="43.546270038932562" lon="-7.294532032683492">
        <ele>123.19</ele>
        <time>2025-04-30T07:52:02Z</time>
      </trkpt>
      <trkpt lat="43.546305997297168" lon="-7.294611996039748">
        <ele>124.15000000000001</ele>
        <time>2025-04-30T07:52:03Z</time>
      </trkpt>
      <trkpt lat="43.546344973146915" lon="-7.294697994366288">
        <ele>125.11</ele>
        <time>2025-04-30T07:52:04Z</time>
      </trkpt>
      <trkpt lat="43.546384032815695" lon="-7.294786004349589">
        <ele>126.06999999999999</ele>
        <time>2025-04-30T07:52:05Z</time>
      </trkpt>
      <trkpt lat="43.546428037807345" lon="-7.294883988797665">
        <ele>126.55</ele>
        <time>2025-04-30T07:52:06Z</time>
      </trkpt>
      <trkpt lat="43.546472964808345" lon="-7.294983984902501">
        <ele>127.98999999999999</ele>
        <time>2025-04-30T07:52:07Z</time>
      </trkpt>
      <trkpt lat="43.546612020581961" lon="-7.295294031500816">
        <ele>131.84</ele>
        <time>2025-04-30T07:52:10Z</time>
      </trkpt>
      <trkpt lat="43.546748980879784" lon="-7.295652022585273">
        <ele>136.16</ele>
        <time>2025-04-30T07:52:13Z</time>
      </trkpt>
      <trkpt lat="43.546994989737868" lon="-7.296580988913775">
        <ele>148.66</ele>
        <time>2025-04-30T07:52:22Z</time>
      </trkpt>
      <trkpt lat="43.547017034143209" lon="-7.296662963926792">
        <ele>150.09999999999999</ele>
        <time>2025-04-30T07:52:23Z</time>
      </trkpt>
      <trkpt lat="43.547043018043041" lon="-7.296761032193899">
        <ele>151.53999999999999</ele>
        <time>2025-04-30T07:52:24Z</time>
      </trkpt>
      <trkpt lat="43.547073025256395" lon="-7.296873014420271">
        <ele>152.03</ele>
        <time>2025-04-30T07:52:25Z</time>
      </trkpt>
      <trkpt lat="43.547102026641369" lon="-7.296981979161501">
        <ele>152.50999999999999</ele>
        <time>2025-04-30T07:52:26Z</time>
      </trkpt>
      <trkpt lat="43.547164974734187" lon="-7.297122040763497">
        <ele>152.99000000000001</ele>
        <time>2025-04-30T07:52:27Z</time>
      </trkpt>
      <trkpt lat="43.547215014696121" lon="-7.297233017161489">
        <ele>153.47</ele>
        <time>2025-04-30T07:52:28Z</time>
      </trkpt>
      <trkpt lat="43.547257008031011" lon="-7.297325972467661">
        <ele>153.94999999999999</ele>
        <time>2025-04-30T07:52:29Z</time>
      </trkpt>
      <trkpt lat="43.547438979148865" lon="-7.297835005447269">
        <ele>153.94999999999999</ele>
        <time>2025-04-30T07:52:36Z</time>
      </trkpt>
      <trkpt lat="43.547455994412303" lon="-7.297916980460286">
        <ele>153.94999999999999</ele>
        <time>2025-04-30T07:52:37Z</time>
      </trkpt>
      <trkpt lat="43.547475021332502" lon="-7.298011025413871">
        <ele>153.94999999999999</ele>
        <time>2025-04-30T07:52:38Z</time>
      </trkpt>
      <trkpt lat="43.547508968040347" lon="-7.298184027895331">
        <ele>154.43000000000001</ele>
        <time>2025-04-30T07:52:39Z</time>
      </trkpt>
      <trkpt lat="43.547508968040347" lon="-7.29824697598815">
        <ele>154.43000000000001</ele>
        <time>2025-04-30T07:52:40Z</time>
      </trkpt>
      <trkpt lat="43.547508968040347" lon="-7.298386031761766">
        <ele>154.43000000000001</ele>
        <time>2025-04-30T07:52:41Z</time>
      </trkpt>
      <trkpt lat="43.547508968040347" lon="-7.299189018085599">
        <ele>152.03</ele>
        <time>2025-04-30T07:52:46Z</time>
      </trkpt>
      <trkpt lat="43.547542998567224" lon="-7.299359003081918">
        <ele>151.53999999999999</ele>
        <time>2025-04-30T07:52:47Z</time>
      </trkpt>
      <trkpt lat="43.547607958316803" lon="-7.299476014450193">
        <ele>151.06</ele>
        <time>2025-04-30T07:52:48Z</time>
      </trkpt>
      <trkpt lat="43.547674007713795" lon="-7.299595037475228">
        <ele>150.58000000000001</ele>
        <time>2025-04-30T07:52:49Z</time>
      </trkpt>
      <trkpt lat="43.547735027968884" lon="-7.299702996388078">
        <ele>150.09999999999999</ele>
        <time>2025-04-30T07:52:50Z</time>
      </trkpt>
      <trkpt lat="43.547893026843667" lon="-7.299985969439149">
        <ele>148.66</ele>
        <time>2025-04-30T07:52:53Z</time>
      </trkpt>
      <trkpt lat="43.547936026006937" lon="-7.300090994685888">
        <ele>148.18000000000001</ele>
        <time>2025-04-30T07:52:54Z</time>
      </trkpt>
      <trkpt lat="43.548246994614601" lon="-7.301138984039426">
        <ele>142.41</ele>
        <time>2025-04-30T07:53:03Z</time>
      </trkpt>
      <trkpt lat="43.548286976292729" lon="-7.301354985684156">
        <ele>140.97</ele>
        <time>2025-04-30T07:53:05Z</time>
      </trkpt>
      <trkpt lat="43.548320000991225" lon="-7.301451964303851">
        <ele>140.49000000000001</ele>
        <time>2025-04-30T07:53:06Z</time>
      </trkpt>
      <trkpt lat="43.548350008204579" lon="-7.301542991772294">
        <ele>140.00999999999999</ele>
        <time>2025-04-30T07:53:07Z</time>
      </trkpt>
      <trkpt lat="43.548510018736124" lon="-7.301820013672113">
        <ele>137.61000000000001</ele>
        <time>2025-04-30T07:53:10Z</time>
      </trkpt>
      <trkpt lat="43.548570033162832" lon="-7.301914980635047">
        <ele>136.63999999999999</ele>
        <time>2025-04-30T07:53:11Z</time>
      </trkpt>
      <trkpt lat="43.548666005954146" lon="-7.302066022530198">
        <ele>131.84</ele>
        <time>2025-04-30T07:53:16Z</time>
      </trkpt>
      <trkpt lat="43.548774970695376" lon="-7.302239025011659">
        <ele>127.51000000000001</ele>
        <time>2025-04-30T07:53:36Z</time>
      </trkpt>
      <trkpt lat="43.548582019284368" lon="-7.302582012489438">
        <ele>125.59</ele>
        <time>2025-04-30T07:53:45Z</time>
      </trkpt>
      <trkpt lat="43.548518987372518" lon="-7.302676979452372">
        <ele>125.59</ele>
        <time>2025-04-30T07:53:47Z</time>
      </trkpt>
      <trkpt lat="43.548490991815925" lon="-7.302718972787261">
        <ele>125.11</ele>
        <time>2025-04-30T07:53:48Z</time>
      </trkpt>
      <trkpt lat="43.548462996259332" lon="-7.30276096612215">
        <ele>125.11</ele>
        <time>2025-04-30T07:53:49Z</time>
      </trkpt>
      <trkpt lat="43.548433994874358" lon="-7.30280396528542">
        <ele>124.63</ele>
        <time>2025-04-30T07:53:50Z</time>
      </trkpt>
      <trkpt lat="43.548410022631288" lon="-7.302840007469058">
        <ele>124.63</ele>
        <time>2025-04-30T07:53:51Z</time>
      </trkpt>
      <trkpt lat="43.548380015417933" lon="-7.302849981933832">
        <ele>124.15000000000001</ele>
        <time>2025-04-30T07:53:52Z</time>
      </trkpt>
      <trkpt lat="43.548332992941141" lon="-7.30286599136889">
        <ele>124.15000000000001</ele>
        <time>2025-04-30T07:53:53Z</time>
      </trkpt>
      <trkpt lat="43.548283036798239" lon="-7.302882000803947">
        <ele>124.15000000000001</ele>
        <time>2025-04-30T07:53:54Z</time>
      </trkpt>
      <trkpt lat="43.548230985179543" lon="-7.302900021895766">
        <ele>123.67</ele>
        <time>2025-04-30T07:53:55Z</time>
      </trkpt>
      <trkpt lat="43.547973996028304" lon="-7.303074030205607">
        <ele>123.19</ele>
        <time>2025-04-30T07:54:00Z</time>
      </trkpt>
      <trkpt lat="43.547750031575561" lon="-7.30321099050343">
        <ele>122.70999999999999</ele>
        <time>2025-04-30T07:54:04Z</time>
      </trkpt>
      <trkpt lat="43.547697979956865" lon="-7.303236974403262">
        <ele>122.70999999999999</ele>
        <time>2025-04-30T07:54:05Z</time>
      </trkpt>
      <trkpt lat="43.547433027997613" lon="-7.303366977721453">
        <ele>121.26000000000001</ele>
        <time>2025-04-30T07:54:10Z</time>
      </trkpt>
      <trkpt lat="43.547261031344533" lon="-7.303449958562851">
        <ele>120.78</ele>
        <time>2025-04-30T07:54:13Z</time>
      </trkpt>
      <trkpt lat="43.547151982784271" lon="-7.303504021838307">
        <ele>120.78</ele>
        <time>2025-04-30T07:54:15Z</time>
      </trkpt>
      <trkpt lat="43.547095991671085" lon="-7.30353101156652">
        <ele>120.78</ele>
        <time>2025-04-30T07:54:16Z</time>
      </trkpt>
      <trkpt lat="43.547043018043041" lon="-7.303556995466352">
        <ele>120.78</ele>
        <time>2025-04-30T07:54:17Z</time>
      </trkpt>
      <trkpt lat="43.546990966424346" lon="-7.303581973537803">
        <ele>120.78</ele>
        <time>2025-04-30T07:54:18Z</time>
      </trkpt>
      <trkpt lat="43.546930029988289" lon="-7.303611980751157">
        <ele>120.78</ele>
        <time>2025-04-30T07:54:19Z</time>
      </trkpt>
      <trkpt lat="43.546877978369594" lon="-7.303625978529453">
        <ele>120.78</ele>
        <time>2025-04-30T07:54:20Z</time>
      </trkpt>
      <trkpt lat="43.546825004741549" lon="-7.303638970479369">
        <ele>121.26000000000001</ele>
        <time>2025-04-30T07:54:21Z</time>
      </trkpt>
      <trkpt lat="43.546773036941886" lon="-7.303651962429285">
        <ele>121.26000000000001</ele>
        <time>2025-04-30T07:54:22Z</time>
      </trkpt>
      <trkpt lat="43.54654697701335" lon="-7.303709965199232">
        <ele>121.26000000000001</ele>
        <time>2025-04-30T07:54:26Z</time>
      </trkpt>
      <trkpt lat="43.545873994007707" lon="-7.303882967680693">
        <ele>119.34</ele>
        <time>2025-04-30T07:54:37Z</time>
      </trkpt>
      <trkpt lat="43.545569982379675" lon="-7.30396100319922">
        <ele>117.90000000000001</ele>
        <time>2025-04-30T07:54:42Z</time>
      </trkpt>
      <trkpt lat="43.545294972136617" lon="-7.304053958505392">
        <ele>116.94</ele>
        <time>2025-04-30T07:54:47Z</time>
      </trkpt>
      <trkpt lat="43.545251972973347" lon="-7.304084971547127">
        <ele>116.94</ele>
        <time>2025-04-30T07:54:48Z</time>
      </trkpt>
      <trkpt lat="43.545206040143967" lon="-7.304119002074003">
        <ele>116.94</ele>
        <time>2025-04-30T07:54:49Z</time>
      </trkpt>
      <trkpt lat="43.544787028804421" lon="-7.304453020915389">
        <ele>115.01000000000001</ele>
        <time>2025-04-30T07:54:57Z</time>
      </trkpt>
      <trkpt lat="43.544744029641151" lon="-7.30450096540153">
        <ele>115.01000000000001</ele>
        <time>2025-04-30T07:54:58Z</time>
      </trkpt>
      <trkpt lat="43.54465501382947" lon="-7.304597022011876">
        <ele>114.53</ele>
        <time>2025-04-30T07:55:00Z</time>
      </trkpt>
      <trkpt lat="43.544611008837819" lon="-7.304644966498017">
        <ele>114.05</ele>
        <time>2025-04-30T07:55:01Z</time>
      </trkpt>
      <trkpt lat="43.544530039653182" lon="-7.304732976481319">
        <ele>114.05</ele>
        <time>2025-04-30T07:55:03Z</time>
      </trkpt>
      <trkpt lat="43.544498020783067" lon="-7.304768012836576">
        <ele>113.56999999999999</ele>
        <time>2025-04-30T07:55:04Z</time>
      </trkpt>
      <trkpt lat="43.544469019398093" lon="-7.30479902587831">
        <ele>113.09</ele>
        <time>2025-04-30T07:55:05Z</time>
      </trkpt>
      <trkpt lat="43.544432977214456" lon="-7.304839007556438">
        <ele>113.09</ele>
        <time>2025-04-30T07:55:06Z</time>
      </trkpt>
      <trkpt lat="43.54437799192965" lon="-7.304918970912695">
        <ele>112.13</ele>
        <time>2025-04-30T07:55:07Z</time>
      </trkpt>
      <trkpt lat="43.544384026899934" lon="-7.304980996996164">
        <ele>111.65000000000001</ele>
        <time>2025-04-30T07:55:08Z</time>
      </trkpt>
      <trkpt lat="43.544390983879566" lon="-7.305060038343072">
        <ele>111.17</ele>
        <time>2025-04-30T07:55:09Z</time>
      </trkpt>
      <trkpt lat="43.544417973607779" lon="-7.305171014741063">
        <ele>110.69</ele>
        <time>2025-04-30T07:55:10Z</time>
      </trkpt>
      <trkpt lat="43.544466001912951" lon="-7.305256007239223">
        <ele>110.20999999999999</ele>
        <time>2025-04-30T07:55:11Z</time>
      </trkpt>
      <trkpt lat="43.544519981369376" lon="-7.305352985858917">
        <ele>109.73</ele>
        <time>2025-04-30T07:55:12Z</time>
      </trkpt>
      <trkpt lat="43.544577984139323" lon="-7.305454993620515">
        <ele>109.25</ele>
        <time>2025-04-30T07:55:13Z</time>
      </trkpt>
      <trkpt lat="43.544633975252509" lon="-7.305554989725351">
        <ele>108.77</ele>
        <time>2025-04-30T07:55:14Z</time>
      </trkpt>
      <trkpt lat="43.544688038527966" lon="-7.305650040507317">
        <ele>108.29000000000001</ele>
        <time>2025-04-30T07:55:15Z</time>
      </trkpt>
      <trkpt lat="43.544745035469532" lon="-7.305750958621502">
        <ele>107.31999999999999</ele>
        <time>2025-04-30T07:55:16Z</time>
      </trkpt>
      <trkpt lat="43.545178966596723" lon="-7.306593004614115">
        <ele>97.230000000000004</ele>
        <time>2025-04-30T07:55:24Z</time>
      </trkpt>
      <trkpt lat="43.545274017378688" lon="-7.307001035660505">
        <ele>91.939999999999998</ele>
        <time>2025-04-30T07:55:32Z</time>
      </trkpt>
      <trkpt lat="43.54508500546217" lon="-7.307302029803395">
        <ele>90.019999999999996</ele>
        <time>2025-04-30T07:55:35Z</time>
      </trkpt>
      <trkpt lat="43.54508500546217" lon="-7.307430021464825">
        <ele>89.060000000000002</ele>
        <time>2025-04-30T07:55:36Z</time>
      </trkpt>
      <trkpt lat="43.54508500546217" lon="-7.307574022561312">
        <ele>88.579999999999998</ele>
        <time>2025-04-30T07:55:37Z</time>
      </trkpt>
      <trkpt lat="43.545109983533621" lon="-7.30772003531456">
        <ele>88.099999999999994</ele>
        <time>2025-04-30T07:55:38Z</time>
      </trkpt>
      <trkpt lat="43.545126998797059" lon="-7.307796981185675">
        <ele>87.140000000000001</ele>
        <time>2025-04-30T07:55:39Z</time>
      </trkpt>
      <trkpt lat="43.5451939702034" lon="-7.307967972010374">
        <ele>86.180000000000007</ele>
        <time>2025-04-30T07:55:40Z</time>
      </trkpt>
      <trkpt lat="43.545239986851811" lon="-7.30808699503541">
        <ele>85.689999999999998</ele>
        <time>2025-04-30T07:55:41Z</time>
      </trkpt>
      <trkpt lat="43.545288015156984" lon="-7.308208029717207">
        <ele>85.209999999999994</ele>
        <time>2025-04-30T07:55:42Z</time>
      </trkpt>
      <trkpt lat="43.545551961287856" lon="-7.308885036036372">
        <ele>83.290000000000006</ele>
        <time>2025-04-30T07:55:48Z</time>
      </trkpt>
      <trkpt lat="43.54558196850121" lon="-7.308962987735868">
        <ele>82.810000000000002</ele>
        <time>2025-04-30T07:55:49Z</time>
      </trkpt>
      <trkpt lat="43.545604012906551" lon="-7.309019984677434">
        <ele>82.810000000000002</ele>
        <time>2025-04-30T07:55:50Z</time>
      </trkpt>
      <trkpt lat="43.545620022341609" lon="-7.309059966355562">
        <ele>82.329999999999998</ele>
        <time>2025-04-30T07:55:51Z</time>
      </trkpt>
      <trkpt lat="43.545631002634764" lon="-7.309091985225678">
        <ele>82.329999999999998</ele>
        <time>2025-04-30T07:55:52Z</time>
      </trkpt>
      <trkpt lat="43.545640977099538" lon="-7.309124004095793">
        <ele>81.849999999999994</ele>
        <time>2025-04-30T07:55:53Z</time>
      </trkpt>
      <trkpt lat="43.545656986534595" lon="-7.309170020744205">
        <ele>82.329999999999998</ele>
        <time>2025-04-30T07:55:54Z</time>
      </trkpt>
      <trkpt lat="43.54570702649653" lon="-7.309319972991943">
        <ele>82.329999999999998</ele>
        <time>2025-04-30T07:55:55Z</time>
      </trkpt>
      <trkpt lat="43.545705014839768" lon="-7.309329025447369">
        <ele>81.849999999999994</ele>
        <time>2025-04-30T07:55:56Z</time>
      </trkpt>
      <trkpt lat="43.545677019283175" lon="-7.309434972703457">
        <ele>81.849999999999994</ele>
        <time>2025-04-30T07:55:57Z</time>
      </trkpt>
      <trkpt lat="43.54564500041306" lon="-7.309558019042015">
        <ele>81.370000000000005</ele>
        <time>2025-04-30T07:55:58Z</time>
      </trkpt>
      <trkpt lat="43.545608036220074" lon="-7.309702020138502">
        <ele>81.370000000000005</ele>
        <time>2025-04-30T07:55:59Z</time>
      </trkpt>
      <trkpt lat="43.545565959066153" lon="-7.309863958507776">
        <ele>80.890000000000001</ele>
        <time>2025-04-30T07:56:00Z</time>
      </trkpt>
      <trkpt lat="43.545522037893534" lon="-7.310034027323127">
        <ele>80.409999999999997</ele>
        <time>2025-04-30T07:56:01Z</time>
      </trkpt>
      <trkpt lat="43.545080982148647" lon="-7.311876034364104">
        <ele>77.519999999999996</ele>
        <time>2025-04-30T07:56:10Z</time>
      </trkpt>
      <trkpt lat="43.544639004394412" lon="-7.313819965347648">
        <ele>75.120000000000005</ele>
        <time>2025-04-30T07:56:19Z</time>
      </trkpt>
      <trkpt lat="43.544185040518641" lon="-7.316182991489768">
        <ele>77.040000000000006</ele>
        <time>2025-04-30T07:56:30Z</time>
      </trkpt>
      <trkpt lat="43.544031986966729" lon="-7.318264972418547">
        <ele>83.769999999999996</ele>
        <time>2025-04-30T07:56:40Z</time>
      </trkpt>
      <trkpt lat="43.543773991987109" lon="-7.320540994405747">
        <ele>90.980000000000004</ele>
        <time>2025-04-30T07:56:51Z</time>
      </trkpt>
      <trkpt lat="43.543271999806166" lon="-7.322927992790937">
        <ele>92.900000000000006</ele>
        <time>2025-04-30T07:57:02Z</time>
      </trkpt>
      <trkpt lat="43.543275017291307" lon="-7.324814004823566">
        <ele>95.310000000000002</ele>
        <time>2025-04-30T07:57:10Z</time>
      </trkpt>
      <trkpt lat="43.543808022513986" lon="-7.326959017664194">
        <ele>102.52</ele>
        <time>2025-04-30T07:57:18Z</time>
      </trkpt>
      <trkpt lat="43.544129971414804" lon="-7.329107969999313">
        <ele>111.17</ele>
        <time>2025-04-30T07:57:26Z</time>
      </trkpt>
      <trkpt lat="43.54426902718842" lon="-7.330490984022617">
        <ele>116.94</ele>
        <time>2025-04-30T07:57:32Z</time>
      </trkpt>
      <trkpt lat="43.54426902718842" lon="-7.330727018415928">
        <ele>117.90000000000001</ele>
        <time>2025-04-30T07:57:33Z</time>
      </trkpt>
      <trkpt lat="43.544236002489924" lon="-7.330949977040291">
        <ele>118.86</ele>
        <time>2025-04-30T07:57:34Z</time>
      </trkpt>
      <trkpt lat="43.544193003326654" lon="-7.331178970634937">
        <ele>119.81999999999999</ele>
        <time>2025-04-30T07:57:35Z</time>
      </trkpt>
      <trkpt lat="43.544124020263553" lon="-7.331396983936429">
        <ele>120.78</ele>
        <time>2025-04-30T07:57:36Z</time>
      </trkpt>
      <trkpt lat="43.544045984745026" lon="-7.331618014723063">
        <ele>121.73999999999999</ele>
        <time>2025-04-30T07:57:37Z</time>
      </trkpt>
      <trkpt lat="43.543897960335016" lon="-7.332062004134059">
        <ele>123.19</ele>
        <time>2025-04-30T07:57:39Z</time>
      </trkpt>
      <trkpt lat="43.543793018907309" lon="-7.332534994930029">
        <ele>125.11</ele>
        <time>2025-04-30T07:57:41Z</time>
      </trkpt>
      <trkpt lat="43.543766029179096" lon="-7.332777986302972">
        <ele>126.55</ele>
        <time>2025-04-30T07:57:42Z</time>
      </trkpt>
      <trkpt lat="43.543781032785773" lon="-7.333023995161057">
        <ele>127.51000000000001</ele>
        <time>2025-04-30T07:57:43Z</time>
      </trkpt>
      <trkpt lat="43.543825037777424" lon="-7.333263969048858">
        <ele>128.47</ele>
        <time>2025-04-30T07:57:44Z</time>
      </trkpt>
      <trkpt lat="43.54388102889061" lon="-7.333500003442168">
        <ele>129.43000000000001</ele>
        <time>2025-04-30T07:57:45Z</time>
      </trkpt>
      <trkpt lat="43.543978007510304" lon="-7.333704018965364">
        <ele>129.91999999999999</ele>
        <time>2025-04-30T07:57:46Z</time>
      </trkpt>
      <trkpt lat="43.54407699778676" lon="-7.333909962326288">
        <ele>130.88</ele>
        <time>2025-04-30T07:57:47Z</time>
      </trkpt>
      <trkpt lat="43.544202977791429" lon="-7.334095034748316">
        <ele>130.88</ele>
        <time>2025-04-30T07:57:48Z</time>
      </trkpt>
      <trkpt lat="43.544332981109619" lon="-7.334270970895886">
        <ele>131.36000000000001</ele>
        <time>2025-04-30T07:57:49Z</time>
      </trkpt>
      <trkpt lat="43.54551600292325" lon="-7.335792034864426">
        <ele>132.31999999999999</ele>
        <time>2025-04-30T07:57:59Z</time>
      </trkpt>
      <trkpt lat="43.546026041731238" lon="-7.336492007598281">
        <ele>134.24000000000001</ele>
        <time>2025-04-30T07:58:06Z</time>
      </trkpt>
      <trkpt lat="43.546083960682154" lon="-7.336610024794936">
        <ele>134.72</ele>
        <time>2025-04-30T07:58:07Z</time>
      </trkpt>
      <trkpt lat="43.546140035614371" lon="-7.336746985092759">
        <ele>134.72</ele>
        <time>2025-04-30T07:58:08Z</time>
      </trkpt>
      <trkpt lat="43.546198038384318" lon="-7.336887968704104">
        <ele>135.19999999999999</ele>
        <time>2025-04-30T07:58:09Z</time>
      </trkpt>
      <trkpt lat="43.546225028112531" lon="-7.337044039741159">
        <ele>135.68000000000001</ele>
        <time>2025-04-30T07:58:10Z</time>
      </trkpt>
      <trkpt lat="43.546251012012362" lon="-7.337200026959181">
        <ele>135.68000000000001</ele>
        <time>2025-04-30T07:58:11Z</time>
      </trkpt>
      <trkpt lat="43.546272972598672" lon="-7.337358025833964">
        <ele>136.16</ele>
        <time>2025-04-30T07:58:12Z</time>
      </trkpt>
      <trkpt lat="43.546448992565274" lon="-7.339119985699654">
        <ele>139.53</ele>
        <time>2025-04-30T07:58:23Z</time>
      </trkpt>
      <trkpt lat="43.546542031690478" lon="-7.339778970927">
        <ele>141.44999999999999</ele>
        <time>2025-04-30T07:58:27Z</time>
      </trkpt>
      <trkpt lat="43.546590982005" lon="-7.339940993115306">
        <ele>141.93000000000001</ele>
        <time>2025-04-30T07:58:28Z</time>
      </trkpt>
      <trkpt lat="43.546640016138554" lon="-7.340103015303612">
        <ele>142.41</ele>
        <time>2025-04-30T07:58:29Z</time>
      </trkpt>
      <trkpt lat="43.546688966453075" lon="-7.340265959501267">
        <ele>142.88999999999999</ele>
        <time>2025-04-30T07:58:30Z</time>
      </trkpt>
      <trkpt lat="43.546736994758248" lon="-7.340427981689572">
        <ele>143.37</ele>
        <time>2025-04-30T07:58:31Z</time>
      </trkpt>
      <trkpt lat="43.547563031315804" lon="-7.342288009822369">
        <ele>149.62</ele>
        <time>2025-04-30T07:58:42Z</time>
      </trkpt>
      <trkpt lat="43.548412034288049" lon="-7.344212997704744">
        <ele>157.31</ele>
        <time>2025-04-30T07:58:51Z</time>
      </trkpt>
      <trkpt lat="43.54893397539854" lon="-7.345739006996155">
        <ele>161.16</ele>
        <time>2025-04-30T07:58:58Z</time>
      </trkpt>
      <trkpt lat="43.548993989825249" lon="-7.346188025549054">
        <ele>162.59999999999999</ele>
        <time>2025-04-30T07:59:00Z</time>
      </trkpt>
      <trkpt lat="43.549068002030253" lon="-7.347291000187397">
        <ele>166.93000000000001</ele>
        <time>2025-04-30T07:59:07Z</time>
      </trkpt>
      <trkpt lat="43.54914897121489" lon="-7.348117036744952">
        <ele>169.81</ele>
        <time>2025-04-30T07:59:12Z</time>
      </trkpt>
      <trkpt lat="43.549175038933754" lon="-7.348282998427749">
        <ele>170.28999999999999</ele>
        <time>2025-04-30T07:59:13Z</time>
      </trkpt>
      <trkpt lat="43.549227006733418" lon="-7.348430017009378">
        <ele>170.77000000000001</ele>
        <time>2025-04-30T07:59:14Z</time>
      </trkpt>
      <trkpt lat="43.549290960654616" lon="-7.348573012277484">
        <ele>170.77000000000001</ele>
        <time>2025-04-30T07:59:15Z</time>
      </trkpt>
      <trkpt lat="43.549353992566466" lon="-7.348713995888829">
        <ele>170.77000000000001</ele>
        <time>2025-04-30T07:59:16Z</time>
      </trkpt>
      <trkpt lat="43.549417024478316" lon="-7.348856991156936">
        <ele>170.77000000000001</ele>
        <time>2025-04-30T07:59:17Z</time>
      </trkpt>
      <trkpt lat="43.549497993662953" lon="-7.348989006131887">
        <ele>170.77000000000001</ele>
        <time>2025-04-30T07:59:18Z</time>
      </trkpt>
      <trkpt lat="43.549586003646255" lon="-7.349109034985304">
        <ele>170.28999999999999</ele>
        <time>2025-04-30T07:59:19Z</time>
      </trkpt>
      <trkpt lat="43.550481023266912" lon="-7.350629009306431">
        <ele>164.03999999999999</ele>
        <time>2025-04-30T07:59:29Z</time>
      </trkpt>
      <trkpt lat="43.551201028749347" lon="-7.352393986657262">
        <ele>154.43000000000001</ele>
        <time>2025-04-30T07:59:36Z</time>
      </trkpt>
      <trkpt lat="43.551355004310608" lon="-7.352599008008838">
        <ele>152.50999999999999</ele>
        <time>2025-04-30T07:59:37Z</time>
      </trkpt>
      <trkpt lat="43.551507974043489" lon="-7.352799000218511">
        <ele>150.58000000000001</ele>
        <time>2025-04-30T07:59:38Z</time>
      </trkpt>
      <trkpt lat="43.551855990663171" lon="-7.353065963834524">
        <ele>146.25999999999999</ele>
        <time>2025-04-30T07:59:40Z</time>
      </trkpt>
      <trkpt lat="43.55305896140635" lon="-7.354146977886558">
        <ele>132.80000000000001</ele>
        <time>2025-04-30T07:59:48Z</time>
      </trkpt>
      <trkpt lat="43.553764969110489" lon="-7.355637028813362">
        <ele>121.73999999999999</ele>
        <time>2025-04-30T07:59:56Z</time>
      </trkpt>
      <trkpt lat="43.553906036540866" lon="-7.357196984812617">
        <ele>112.13</ele>
        <time>2025-04-30T08:00:03Z</time>
      </trkpt>
      <trkpt lat="43.55385297909379" lon="-7.357682967558503">
        <ele>109.25</ele>
        <time>2025-04-30T08:00:05Z</time>
      </trkpt>
      <trkpt lat="43.553309999406338" lon="-7.360356040298939">
        <ele>95.790000000000006</ele>
        <time>2025-04-30T08:00:15Z</time>
      </trkpt>
      <trkpt lat="43.553003976121545" lon="-7.362559977918863">
        <ele>84.25</ele>
        <time>2025-04-30T08:00:23Z</time>
      </trkpt>
      <trkpt lat="43.55312098748982" lon="-7.363702012225986">
        <ele>78.969999999999999</ele>
        <time>2025-04-30T08:00:27Z</time>
      </trkpt>
      <trkpt lat="43.553389040753245" lon="-7.365294992923737">
        <ele>71.269999999999996</ele>
        <time>2025-04-30T08:00:33Z</time>
      </trkpt>
      <trkpt lat="43.553389040753245" lon="-7.365564974024892">
        <ele>69.829999999999998</ele>
        <time>2025-04-30T08:00:34Z</time>
      </trkpt>
      <trkpt lat="43.553363978862762" lon="-7.365830009803176">
        <ele>68.390000000000001</ele>
        <time>2025-04-30T08:00:35Z</time>
      </trkpt>
      <trkpt lat="43.553318968042731" lon="-7.366085993126035">
        <ele>66.950000000000003</ele>
        <time>2025-04-30T08:00:36Z</time>
      </trkpt>
      <trkpt lat="43.553273035213351" lon="-7.366343988105655">
        <ele>65.510000000000005</ele>
        <time>2025-04-30T08:00:37Z</time>
      </trkpt>
      <trkpt lat="43.55322802439332" lon="-7.366600977256894">
        <ele>64.069999999999993</ele>
        <time>2025-04-30T08:00:38Z</time>
      </trkpt>
      <trkpt lat="43.55318502523005" lon="-7.366855032742024">
        <ele>63.100000000000001</ele>
        <time>2025-04-30T08:00:39Z</time>
      </trkpt>
      <trkpt lat="43.553149988874793" lon="-7.367114033550024">
        <ele>61.659999999999997</ele>
        <time>2025-04-30T08:00:40Z</time>
      </trkpt>
      <trkpt lat="43.5531410202384" lon="-7.367389965802431">
        <ele>60.700000000000003</ele>
        <time>2025-04-30T08:00:41Z</time>
      </trkpt>
      <trkpt lat="43.553131967782974" lon="-7.367659024894238">
        <ele>59.740000000000002</ele>
        <time>2025-04-30T08:00:42Z</time>
      </trkpt>
      <trkpt lat="43.553175972774625" lon="-7.367917019873858">
        <ele>58.780000000000001</ele>
        <time>2025-04-30T08:00:43Z</time>
      </trkpt>
      <trkpt lat="43.553225006908178" lon="-7.368170991539955">
        <ele>57.82</ele>
        <time>2025-04-30T08:00:44Z</time>
      </trkpt>
      <trkpt lat="43.553287032991648" lon="-7.36841800622642">
        <ele>56.859999999999999</ele>
        <time>2025-04-30T08:00:45Z</time>
      </trkpt>
      <trkpt lat="43.553383005782962" lon="-7.368658985942602">
        <ele>56.369999999999997</ele>
        <time>2025-04-30T08:00:46Z</time>
      </trkpt>
      <trkpt lat="43.554305015131831" lon="-7.370680030435324">
        <ele>55.409999999999997</ele>
        <time>2025-04-30T08:00:55Z</time>
      </trkpt>
      <trkpt lat="43.555069025605917" lon="-7.372669978067279">
        <ele>55.409999999999997</ele>
        <time>2025-04-30T08:01:05Z</time>
      </trkpt>
      <trkpt lat="43.555417964234948" lon="-7.373607996851206">
        <ele>53.009999999999998</ele>
        <time>2025-04-30T08:01:12Z</time>
      </trkpt>
      <trkpt lat="43.555476972833276" lon="-7.373710004612804">
        <ele>52.530000000000001</ele>
        <time>2025-04-30T08:01:13Z</time>
      </trkpt>
      <trkpt lat="43.555531958118081" lon="-7.373805977404118">
        <ele>52.049999999999997</ele>
        <time>2025-04-30T08:01:14Z</time>
      </trkpt>
      <trkpt lat="43.555576968938112" lon="-7.373886024579406">
        <ele>51.57</ele>
        <time>2025-04-30T08:01:15Z</time>
      </trkpt>
      <trkpt lat="43.555691968649626" lon="-7.373962970450521">
        <ele>51.57</ele>
        <time>2025-04-30T08:01:16Z</time>
      </trkpt>
      <trkpt lat="43.555728010833263" lon="-7.374058021232486">
        <ele>51.57</ele>
        <time>2025-04-30T08:01:17Z</time>
      </trkpt>
      <trkpt lat="43.555790958926082" lon="-7.374246027320623">
        <ele>50.609999999999999</ele>
        <time>2025-04-30T08:01:18Z</time>
      </trkpt>
      <trkpt lat="43.555875029414892" lon="-7.374367984011769">
        <ele>50.609999999999999</ele>
        <time>2025-04-30T08:01:19Z</time>
      </trkpt>
      <trkpt lat="43.556068986654282" lon="-7.374608041718602">
        <ele>49.649999999999999</ele>
        <time>2025-04-30T08:01:21Z</time>
      </trkpt>
      <trkpt lat="43.556983033195138" lon="-7.375778993591666">
        <ele>46.759999999999998</ele>
        <time>2025-04-30T08:01:29Z</time>
      </trkpt>
      <trkpt lat="43.557430962100625" lon="-7.377110961824656">
        <ele>43.399999999999999</ele>
        <time>2025-04-30T08:01:36Z</time>
      </trkpt>
      <trkpt lat="43.557471027597785" lon="-7.378552984446287">
        <ele>40.509999999999998</ele>
        <time>2025-04-30T08:01:44Z</time>
      </trkpt>
      <trkpt lat="43.557280004024506" lon="-7.379736006259918">
        <ele>40.030000000000001</ele>
        <time>2025-04-30T08:01:52Z</time>
      </trkpt>
      <trkpt lat="43.557326020672917" lon="-7.379996012896299">
        <ele>40.030000000000001</ele>
        <time>2025-04-30T08:01:54Z</time>
      </trkpt>
      <trkpt lat="43.557294001802802" lon="-7.380109000951052">
        <ele>40.030000000000001</ele>
        <time>2025-04-30T08:01:55Z</time>
      </trkpt>
      <trkpt lat="43.556997030973434" lon="-7.381239971145988">
        <ele>42.439999999999998</ele>
        <time>2025-04-30T08:02:02Z</time>
      </trkpt>
      <trkpt lat="43.55664599686861" lon="-7.383140986785293">
        <ele>46.759999999999998</ele>
        <time>2025-04-30T08:02:13Z</time>
      </trkpt>
      <trkpt lat="43.556340979412198" lon="-7.38487696275115">
        <ele>49.159999999999997</ele>
        <time>2025-04-30T08:02:22Z</time>
      </trkpt>
      <trkpt lat="43.55621600523591" lon="-7.385569978505373">
        <ele>49.159999999999997</ele>
        <time>2025-04-30T08:02:25Z</time>
      </trkpt>
      <trkpt lat="43.55617300607264" lon="-7.385811964049935">
        <ele>48.68</ele>
        <time>2025-04-30T08:02:26Z</time>
      </trkpt>
      <trkpt lat="43.55613000690937" lon="-7.386049004271627">
        <ele>48.68</ele>
        <time>2025-04-30T08:02:27Z</time>
      </trkpt>
      <trkpt lat="43.555659027770162" lon="-7.388669019564986">
        <ele>50.130000000000003</ele>
        <time>2025-04-30T08:02:38Z</time>
      </trkpt>
      <trkpt lat="43.555087968707085" lon="-7.391846012324095">
        <ele>55.890000000000001</ele>
        <time>2025-04-30T08:02:51Z</time>
      </trkpt>
      <trkpt lat="43.554970035329461" lon="-7.392533998936415">
        <ele>56.859999999999999</ele>
        <time>2025-04-30T08:02:54Z</time>
      </trkpt>
      <trkpt lat="43.554933993145823" lon="-7.392732985317707">
        <ele>56.859999999999999</ele>
        <time>2025-04-30T08:02:55Z</time>
      </trkpt>
      <trkpt lat="43.554788986220956" lon="-7.393533037975431">
        <ele>57.340000000000003</ele>
        <time>2025-04-30T08:03:01Z</time>
      </trkpt>
      <trkpt lat="43.554763002321124" lon="-7.393674021586776">
        <ele>57.82</ele>
        <time>2025-04-30T08:03:03Z</time>
      </trkpt>
      <trkpt lat="43.55475596152246" lon="-7.393714003264904">
        <ele>57.82</ele>
        <time>2025-04-30T08:03:04Z</time>
      </trkpt>
      <trkpt lat="43.55475596152246" lon="-7.393714003264904">
        <ele>57.340000000000003</ele>
        <time>2025-04-30T08:03:16Z</time>
      </trkpt>
      <trkpt lat="43.55475596152246" lon="-7.393714003264904">
        <ele>58.299999999999997</ele>
        <time>2025-04-30T08:03:48Z</time>
      </trkpt>
      <trkpt lat="43.554752022027969" lon="-7.393735041841865">
        <ele>58.299999999999997</ele>
        <time>2025-04-30T08:04:03Z</time>
      </trkpt>
      <trkpt lat="43.554741041734815" lon="-7.393796984106302">
        <ele>58.299999999999997</ele>
        <time>2025-04-30T08:04:04Z</time>
      </trkpt>
      <trkpt lat="43.554644985124469" lon="-7.394325966015458">
        <ele>58.780000000000001</ele>
        <time>2025-04-30T08:04:09Z</time>
      </trkpt>
      <trkpt lat="43.554617995396256" lon="-7.394472984597087">
        <ele>58.780000000000001</ele>
        <time>2025-04-30T08:04:10Z</time>
      </trkpt>
      <trkpt lat="43.554360000416636" lon="-7.395951971411705">
        <ele>59.740000000000002</ele>
        <time>2025-04-30T08:04:18Z</time>
      </trkpt>
      <trkpt lat="43.553920034319162" lon="-7.398405019193888">
        <ele>61.659999999999997</ele>
        <time>2025-04-30T08:04:28Z</time>
      </trkpt>
      <trkpt lat="43.553814003244042" lon="-7.398994015529752">
        <ele>63.100000000000001</ele>
        <time>2025-04-30T08:04:32Z</time>
      </trkpt>
      <trkpt lat="43.553791036829352" lon="-7.399123013019562">
        <ele>63.579999999999998</ele>
        <time>2025-04-30T08:04:34Z</time>
      </trkpt>
      <trkpt lat="43.553782990202308" lon="-7.399164000526071">
        <ele>64.069999999999993</ele>
        <time>2025-04-30T08:04:35Z</time>
      </trkpt>
      <trkpt lat="43.553904024884105" lon="-7.399023016914725">
        <ele>64.069999999999993</ele>
        <time>2025-04-30T08:04:36Z</time>
      </trkpt>
      <trkpt lat="43.553967978805304" lon="-7.399061992764473">
        <ele>64.549999999999997</ele>
        <time>2025-04-30T08:04:37Z</time>
      </trkpt>
      <trkpt lat="43.554037967696786" lon="-7.399103986099362">
        <ele>64.549999999999997</ele>
        <time>2025-04-30T08:04:38Z</time>
      </trkpt>
      <trkpt lat="43.554119020700455" lon="-7.399154026061297">
        <ele>64.549999999999997</ele>
        <time>2025-04-30T08:04:39Z</time>
      </trkpt>
      <trkpt lat="43.554625036194921" lon="-7.399461977183819">
        <ele>66.469999999999999</ele>
        <time>2025-04-30T08:04:44Z</time>
      </trkpt>
      <trkpt lat="43.554697958752513" lon="-7.39950698800385">
        <ele>66.469999999999999</ele>
        <time>2025-04-30T08:04:45Z</time>
      </trkpt>
      <trkpt lat="43.554800972342491" lon="-7.399695999920368">
        <ele>67.430000000000007</ele>
        <time>2025-04-30T08:04:46Z</time>
      </trkpt>
      <trkpt lat="43.554873978719115" lon="-7.399831032380462">
        <ele>67.909999999999997</ele>
        <time>2025-04-30T08:04:47Z</time>
      </trkpt>
      <trkpt lat="43.554955031722784" lon="-7.399978972971439">
        <ele>68.390000000000001</ele>
        <time>2025-04-30T08:04:48Z</time>
      </trkpt>
      <trkpt lat="43.555962033569813" lon="-7.402238985523582">
        <ele>76.560000000000002</ele>
        <time>2025-04-30T08:05:02Z</time>
      </trkpt>
      <trkpt lat="43.556027999147773" lon="-7.402381980791688">
        <ele>77.040000000000006</ele>
        <time>2025-04-30T08:05:03Z</time>
      </trkpt>
      <trkpt lat="43.556047026067972" lon="-7.402584990486503">
        <ele>78</ele>
        <time>2025-04-30T08:05:04Z</time>
      </trkpt>
      <trkpt lat="43.55606303550303" lon="-7.402761010453105">
        <ele>78.969999999999999</ele>
        <time>2025-04-30T08:05:05Z</time>
      </trkpt>
      <trkpt lat="43.55612900108099" lon="-7.403230983763933">
        <ele>80.890000000000001</ele>
        <time>2025-04-30T08:05:08Z</time>
      </trkpt>
      <trkpt lat="43.556181974709034" lon="-7.40335101261735">
        <ele>81.370000000000005</ele>
        <time>2025-04-30T08:05:09Z</time>
      </trkpt>
      <trkpt lat="43.556249029934406" lon="-7.403454026207328">
        <ele>81.849999999999994</ele>
        <time>2025-04-30T08:05:10Z</time>
      </trkpt>
      <trkpt lat="43.556350031867623" lon="-7.403584029525518">
        <ele>81.849999999999994</ele>
        <time>2025-04-30T08:05:11Z</time>
      </trkpt>
      <trkpt lat="43.55645296163857" lon="-7.40360900759697">
        <ele>81.849999999999994</ele>
        <time>2025-04-30T08:05:12Z</time>
      </trkpt>
      <trkpt lat="43.556591011583805" lon="-7.403614958748221">
        <ele>82.329999999999998</ele>
        <time>2025-04-30T08:05:13Z</time>
      </trkpt>
      <trkpt lat="43.556724032387137" lon="-7.403592998161912">
        <ele>83.290000000000006</ele>
        <time>2025-04-30T08:05:14Z</time>
      </trkpt>
      <trkpt lat="43.556959982961416" lon="-7.403553016483784">
        <ele>84.25</ele>
        <time>2025-04-30T08:05:16Z</time>
      </trkpt>
      <trkpt lat="43.557040030136704" lon="-7.403542958199978">
        <ele>84.730000000000004</ele>
        <time>2025-04-30T08:05:17Z</time>
      </trkpt>
      <trkpt lat="43.55711898766458" lon="-7.403582017868757">
        <ele>85.209999999999994</ele>
        <time>2025-04-30T08:05:18Z</time>
      </trkpt>
      <trkpt lat="43.557194005697966" lon="-7.403618982061744">
        <ele>85.689999999999998</ele>
        <time>2025-04-30T08:05:19Z</time>
      </trkpt>
      <trkpt lat="43.557262988761067" lon="-7.403705986216664">
        <ele>86.180000000000007</ele>
        <time>2025-04-30T08:05:20Z</time>
      </trkpt>
      <trkpt lat="43.557287966832519" lon="-7.403821991756558">
        <ele>86.180000000000007</ele>
        <time>2025-04-30T08:05:21Z</time>
      </trkpt>
      <trkpt lat="43.557314034551382" lon="-7.403940008953214">
        <ele>86.659999999999997</ele>
        <time>2025-04-30T08:05:22Z</time>
      </trkpt>
      <trkpt lat="43.557342030107975" lon="-7.404071018099785">
        <ele>87.140000000000001</ele>
        <time>2025-04-30T08:05:23Z</time>
      </trkpt>
      <trkpt lat="43.557380000129342" lon="-7.404835028573871">
        <ele>88.579999999999998</ele>
        <time>2025-04-30T08:05:28Z</time>
      </trkpt>
      <trkpt lat="43.557380000129342" lon="-7.404999984428287">
        <ele>88.579999999999998</ele>
        <time>2025-04-30T08:05:29Z</time>
      </trkpt>
      <trkpt lat="43.557337000966072" lon="-7.405173992738128">
        <ele>89.060000000000002</ele>
        <time>2025-04-30T08:05:30Z</time>
      </trkpt>
      <trkpt lat="43.557294001802802" lon="-7.405354036018252">
        <ele>89.540000000000006</ele>
        <time>2025-04-30T08:05:31Z</time>
      </trkpt>
      <trkpt lat="43.557248990982771" lon="-7.405539024621248">
        <ele>90.019999999999996</ele>
        <time>2025-04-30T08:05:32Z</time>
      </trkpt>
      <trkpt lat="43.557202974334359" lon="-7.405727030709386">
        <ele>90.019999999999996</ele>
        <time>2025-04-30T08:05:33Z</time>
      </trkpt>
      <trkpt lat="43.557186964899302" lon="-7.405941020697355">
        <ele>89.540000000000006</ele>
        <time>2025-04-30T08:05:34Z</time>
      </trkpt>
      <trkpt lat="43.55720398016274" lon="-7.406139001250267">
        <ele>89.540000000000006</ele>
        <time>2025-04-30T08:05:35Z</time>
      </trkpt>
      <trkpt lat="43.557234993204474" lon="-7.406330024823546">
        <ele>89.540000000000006</ele>
        <time>2025-04-30T08:05:36Z</time>
      </trkpt>
      <trkpt lat="43.55726801790297" lon="-7.406529011204839">
        <ele>89.540000000000006</ele>
        <time>2025-04-30T08:05:37Z</time>
      </trkpt>
      <trkpt lat="43.557337000966072" lon="-7.407123958691955">
        <ele>89.540000000000006</ele>
        <time>2025-04-30T08:05:40Z</time>
      </trkpt>
      <trkpt lat="43.557315040379763" lon="-7.407342977821827">
        <ele>89.540000000000006</ele>
        <time>2025-04-30T08:05:41Z</time>
      </trkpt>
      <trkpt lat="43.557243961840868" lon="-7.408599006012082">
        <ele>87.140000000000001</ele>
        <time>2025-04-30T08:05:47Z</time>
      </trkpt>
      <trkpt lat="43.557249996811152" lon="-7.408778965473175">
        <ele>86.659999999999997</ele>
        <time>2025-04-30T08:05:48Z</time>
      </trkpt>
      <trkpt lat="43.557294001802802" lon="-7.408949034288526">
        <ele>86.180000000000007</ele>
        <time>2025-04-30T08:05:49Z</time>
      </trkpt>
      <trkpt lat="43.557545961812139" lon="-7.409576000645757">
        <ele>85.689999999999998</ele>
        <time>2025-04-30T08:05:53Z</time>
      </trkpt>
      <trkpt lat="43.557642018422484" lon="-7.409654958173633">
        <ele>85.209999999999994</ele>
        <time>2025-04-30T08:05:54Z</time>
      </trkpt>
      <trkpt lat="43.55774000287056" lon="-7.409737017005682">
        <ele>85.209999999999994</ele>
        <time>2025-04-30T08:05:55Z</time>
      </trkpt>
      <trkpt lat="43.557841004803777" lon="-7.40981999784708">
        <ele>85.689999999999998</ele>
        <time>2025-04-30T08:05:56Z</time>
      </trkpt>
      <trkpt lat="43.557936977595091" lon="-7.409899961203337">
        <ele>86.180000000000007</ele>
        <time>2025-04-30T08:05:57Z</time>
      </trkpt>
      <trkpt lat="43.558029010891914" lon="-7.409975985065103">
        <ele>86.659999999999997</ele>
        <time>2025-04-30T08:05:58Z</time>
      </trkpt>
      <trkpt lat="43.558125989511609" lon="-7.410065000876784">
        <ele>86.659999999999997</ele>
        <time>2025-04-30T08:05:59Z</time>
      </trkpt>
      <trkpt lat="43.558195978403091" lon="-7.410212019458413">
        <ele>87.140000000000001</ele>
        <time>2025-04-30T08:06:00Z</time>
      </trkpt>
      <trkpt lat="43.558227997273207" lon="-7.410331964492798">
        <ele>87.620000000000005</ele>
        <time>2025-04-30T08:06:01Z</time>
      </trkpt>
      <trkpt lat="43.558260016143322" lon="-7.410449981689453">
        <ele>87.620000000000005</ele>
        <time>2025-04-30T08:06:02Z</time>
      </trkpt>
      <trkpt lat="43.558229003101587" lon="-7.410610998049378">
        <ele>88.099999999999994</ele>
        <time>2025-04-30T08:06:03Z</time>
      </trkpt>
      <trkpt lat="43.558201007544994" lon="-7.410756004974246">
        <ele>88.579999999999998</ele>
        <time>2025-04-30T08:06:04Z</time>
      </trkpt>
      <trkpt lat="43.55816999450326" lon="-7.410916015505791">
        <ele>88.099999999999994</ele>
        <time>2025-04-30T08:06:05Z</time>
      </trkpt>
      <trkpt lat="43.558145016431808" lon="-7.411282975226641">
        <ele>88.099999999999994</ele>
        <time>2025-04-30T08:06:07Z</time>
      </trkpt>
      <trkpt lat="43.558139987289906" lon="-7.411478022113442">
        <ele>88.099999999999994</ele>
        <time>2025-04-30T08:06:08Z</time>
      </trkpt>
      <trkpt lat="43.558176029473543" lon="-7.412084033712745">
        <ele>88.099999999999994</ele>
        <time>2025-04-30T08:06:11Z</time>
      </trkpt>
      <trkpt lat="43.558206958696246" lon="-7.412259969860315">
        <ele>88.099999999999994</ele>
        <time>2025-04-30T08:06:12Z</time>
      </trkpt>
      <trkpt lat="43.558292035013437" lon="-7.412349991500378">
        <ele>88.099999999999994</ele>
        <time>2025-04-30T08:06:13Z</time>
      </trkpt>
      <trkpt lat="43.558380967006087" lon="-7.412389973178506">
        <ele>88.099999999999994</ele>
        <time>2025-04-30T08:06:14Z</time>
      </trkpt>
      <trkpt lat="43.558473000302911" lon="-7.412414029240608">
        <ele>88.099999999999994</ele>
        <time>2025-04-30T08:06:15Z</time>
      </trkpt>
      <trkpt lat="43.558592023327947" lon="-7.412433978170157">
        <ele>87.620000000000005</ele>
        <time>2025-04-30T08:06:16Z</time>
      </trkpt>
      <trkpt lat="43.558713980019093" lon="-7.412456022575498">
        <ele>87.620000000000005</ele>
        <time>2025-04-30T08:06:17Z</time>
      </trkpt>
      <trkpt lat="43.558969041332603" lon="-7.412527017295361">
        <ele>87.620000000000005</ele>
        <time>2025-04-30T08:06:19Z</time>
      </trkpt>
      <trkpt lat="43.559079011902213" lon="-7.412590971216559">
        <ele>88.099999999999994</ele>
        <time>2025-04-30T08:06:20Z</time>
      </trkpt>
      <trkpt lat="43.559186970815063" lon="-7.412678981199861">
        <ele>88.099999999999994</ele>
        <time>2025-04-30T08:06:21Z</time>
      </trkpt>
      <trkpt lat="43.559246985241771" lon="-7.412766991183162">
        <ele>88.099999999999994</ele>
        <time>2025-04-30T08:06:22Z</time>
      </trkpt>
      <trkpt lat="43.559310017153621" lon="-7.412953991442919">
        <ele>88.579999999999998</ele>
        <time>2025-04-30T08:06:23Z</time>
      </trkpt>
      <trkpt lat="43.559363996610045" lon="-7.413109978660941">
        <ele>88.579999999999998</ele>
        <time>2025-04-30T08:06:24Z</time>
      </trkpt>
      <trkpt lat="43.559418981894851" lon="-7.413272000849247">
        <ele>89.060000000000002</ele>
        <time>2025-04-30T08:06:25Z</time>
      </trkpt>
      <trkpt lat="43.559904964640737" lon="-7.414182024076581">
        <ele>92.900000000000006</ele>
        <time>2025-04-30T08:06:33Z</time>
      </trkpt>
      <trkpt lat="43.559817960485816" lon="-7.41439500823617">
        <ele>94.829999999999998</ele>
        <time>2025-04-30T08:06:38Z</time>
      </trkpt>
      <trkpt lat="43.55978200212121" lon="-7.414448987692595">
        <ele>95.310000000000002</ele>
        <time>2025-04-30T08:06:39Z</time>
      </trkpt>
      <trkpt lat="43.559730034321547" lon="-7.41452501155436">
        <ele>95.310000000000002</ele>
        <time>2025-04-30T08:06:40Z</time>
      </trkpt>
      <trkpt lat="43.559670019894838" lon="-7.414614027366042">
        <ele>95.790000000000006</ele>
        <time>2025-04-30T08:06:41Z</time>
      </trkpt>
      <trkpt lat="43.559601958841085" lon="-7.414714023470879">
        <ele>95.790000000000006</ele>
        <time>2025-04-30T08:06:42Z</time>
      </trkpt>
      <trkpt lat="43.559526018798351" lon="-7.414823994040489">
        <ele>96.269999999999996</ele>
        <time>2025-04-30T08:06:43Z</time>
      </trkpt>
      <trkpt lat="43.559365002438426" lon="-7.41506103426218">
        <ele>96.269999999999996</ele>
        <time>2025-04-30T08:06:45Z</time>
      </trkpt>
      <trkpt lat="43.559246985241771" lon="-7.41523495875299">
        <ele>96.269999999999996</ele>
        <time>2025-04-30T08:06:46Z</time>
      </trkpt>
      <trkpt lat="43.559216978028417" lon="-7.415352975949645">
        <ele>96.269999999999996</ele>
        <time>2025-04-30T08:06:47Z</time>
      </trkpt>
      <trkpt lat="43.559146989136934" lon="-7.415853962302208">
        <ele>95.790000000000006</ele>
        <time>2025-04-30T08:06:50Z</time>
      </trkpt>
      <trkpt lat="43.559132991358638" lon="-7.41600601002574">
        <ele>95.790000000000006</ele>
        <time>2025-04-30T08:06:51Z</time>
      </trkpt>
      <trkpt lat="43.559117987751961" lon="-7.416152022778988">
        <ele>95.790000000000006</ele>
        <time>2025-04-30T08:06:52Z</time>
      </trkpt>
      <trkpt lat="43.559064008295536" lon="-7.41671402938664">
        <ele>95.310000000000002</ele>
        <time>2025-04-30T08:06:56Z</time>
      </trkpt>
      <trkpt lat="43.559034001082182" lon="-7.417019968852401">
        <ele>95.790000000000006</ele>
        <time>2025-04-30T08:06:58Z</time>
      </trkpt>
      <trkpt lat="43.558866027742624" lon="-7.418368030339479">
        <ele>97.230000000000004</ele>
        <time>2025-04-30T08:07:05Z</time>
      </trkpt>
      <trkpt lat="43.558667041361332" lon="-7.418991979211569">
        <ele>99.150000000000006</ele>
        <time>2025-04-30T08:07:08Z</time>
      </trkpt>
      <trkpt lat="43.55857701972127" lon="-7.419188031926751">
        <ele>100.11</ele>
        <time>2025-04-30T08:07:09Z</time>
      </trkpt>
      <trkpt lat="43.55797603726387" lon="-7.42101302370429">
        <ele>105.40000000000001</ele>
        <time>2025-04-30T08:07:18Z</time>
      </trkpt>
      <trkpt lat="43.557830024510622" lon="-7.421650970354676">
        <ele>108.29000000000001</ele>
        <time>2025-04-30T08:07:22Z</time>
      </trkpt>
      <trkpt lat="43.557838993147016" lon="-7.421783991158009">
        <ele>108.77</ele>
        <time>2025-04-30T08:07:23Z</time>
      </trkpt>
      <trkpt lat="43.55784997344017" lon="-7.421950036659837">
        <ele>109.73</ele>
        <time>2025-04-30T08:07:24Z</time>
      </trkpt>
      <trkpt lat="43.55789196677506" lon="-7.422114992514253">
        <ele>110.20999999999999</ele>
        <time>2025-04-30T08:07:25Z</time>
      </trkpt>
      <trkpt lat="43.557946030050516" lon="-7.422307021915913">
        <ele>111.17</ele>
        <time>2025-04-30T08:07:26Z</time>
      </trkpt>
      <trkpt lat="43.558001015335321" lon="-7.422503996640444">
        <ele>112.13</ele>
        <time>2025-04-30T08:07:27Z</time>
      </trkpt>
      <trkpt lat="43.558292035013437" lon="-7.423518961295486">
        <ele>117.90000000000001</ele>
        <time>2025-04-30T08:07:33Z</time>
      </trkpt>
      <trkpt lat="43.558612978085876" lon="-7.424179036170244">
        <ele>121.26000000000001</ele>
        <time>2025-04-30T08:07:40Z</time>
      </trkpt>
      <trkpt lat="43.558783968910575" lon="-7.424666024744511">
        <ele>121.73999999999999</ele>
        <time>2025-04-30T08:07:46Z</time>
      </trkpt>
      <trkpt lat="43.559113964438438" lon="-7.425940996035934">
        <ele>121.26000000000001</ele>
        <time>2025-04-30T08:07:53Z</time>
      </trkpt>
      <trkpt lat="43.559139026328921" lon="-7.426154986023903">
        <ele>120.78</ele>
        <time>2025-04-30T08:07:54Z</time>
      </trkpt>
      <trkpt lat="43.559139026328921" lon="-7.426383979618549">
        <ele>120.3</ele>
        <time>2025-04-30T08:07:55Z</time>
      </trkpt>
      <trkpt lat="43.559079011902213" lon="-7.428137976676226">
        <ele>117.90000000000001</ele>
        <time>2025-04-30T08:08:03Z</time>
      </trkpt>
      <trkpt lat="43.559031989425421" lon="-7.428323971107602">
        <ele>118.38</ele>
        <time>2025-04-30T08:08:04Z</time>
      </trkpt>
      <trkpt lat="43.558881031349301" lon="-7.428915984928608">
        <ele>121.26000000000001</ele>
        <time>2025-04-30T08:08:08Z</time>
      </trkpt>
      <trkpt lat="43.558837026357651" lon="-7.42909200489521">
        <ele>122.22</ele>
        <time>2025-04-30T08:08:09Z</time>
      </trkpt>
      <trkpt lat="43.558790003880858" lon="-7.429274981841445">
        <ele>122.70999999999999</ele>
        <time>2025-04-30T08:08:10Z</time>
      </trkpt>
      <trkpt lat="43.558436958119273" lon="-7.43072597309947">
        <ele>127.03</ele>
        <time>2025-04-30T08:08:18Z</time>
      </trkpt>
      <trkpt lat="43.558417009189725" lon="-7.430898975580931">
        <ele>127.51000000000001</ele>
        <time>2025-04-30T08:08:19Z</time>
      </trkpt>
      <trkpt lat="43.558394964784384" lon="-7.431077007204294">
        <ele>127.98999999999999</ele>
        <time>2025-04-30T08:08:20Z</time>
      </trkpt>
      <trkpt lat="43.558388007804751" lon="-7.431479003280401">
        <ele>128.94999999999999</ele>
        <time>2025-04-30T08:08:22Z</time>
      </trkpt>
      <trkpt lat="43.558391025289893" lon="-7.433188995346427">
        <ele>130.40000000000001</ele>
        <time>2025-04-30T08:08:31Z</time>
      </trkpt>
      <trkpt lat="43.558394964784384" lon="-7.433493006974459">
        <ele>129.91999999999999</ele>
        <time>2025-04-30T08:08:33Z</time>
      </trkpt>
      <trkpt lat="43.558396976441145" lon="-7.433640025556088">
        <ele>129.91999999999999</ele>
        <time>2025-04-30T08:08:34Z</time>
      </trkpt>
      <trkpt lat="43.558398988097906" lon="-7.433787966147065">
        <ele>129.43000000000001</ele>
        <time>2025-04-30T08:08:35Z</time>
      </trkpt>
      <trkpt lat="43.558400999754667" lon="-7.433939008042216">
        <ele>129.43000000000001</ele>
        <time>2025-04-30T08:08:36Z</time>
      </trkpt>
      <trkpt lat="43.558403011411428" lon="-7.434097006917">
        <ele>129.43000000000001</ele>
        <time>2025-04-30T08:08:37Z</time>
      </trkpt>
      <trkpt lat="43.55840502306819" lon="-7.434264980256558">
        <ele>128.94999999999999</ele>
        <time>2025-04-30T08:08:38Z</time>
      </trkpt>
      <trkpt lat="43.558408040553331" lon="-7.434446029365063">
        <ele>128.94999999999999</ele>
        <time>2025-04-30T08:08:39Z</time>
      </trkpt>
      <trkpt lat="43.55840602889657" lon="-7.434624982997775">
        <ele>129.43000000000001</ele>
        <time>2025-04-30T08:08:40Z</time>
      </trkpt>
      <trkpt lat="43.558364035561681" lon="-7.434794967994094">
        <ele>129.91999999999999</ele>
        <time>2025-04-30T08:08:41Z</time>
      </trkpt>
      <trkpt lat="43.55832003057003" lon="-7.434970987960696">
        <ele>129.91999999999999</ele>
        <time>2025-04-30T08:08:42Z</time>
      </trkpt>
      <trkpt lat="43.55808399617672" lon="-7.435876987874508">
        <ele>127.51000000000001</ele>
        <time>2025-04-30T08:08:48Z</time>
      </trkpt>
      <trkpt lat="43.558035967871547" lon="-7.435972038656473">
        <ele>127.03</ele>
        <time>2025-04-30T08:08:49Z</time>
      </trkpt>
      <trkpt lat="43.557961033657193" lon="-7.436046972870827">
        <ele>126.06999999999999</ele>
        <time>2025-04-30T08:08:50Z</time>
      </trkpt>
      <trkpt lat="43.557878974825144" lon="-7.436129031702876">
        <ele>125.59</ele>
        <time>2025-04-30T08:08:51Z</time>
      </trkpt>
      <trkpt lat="43.557792976498604" lon="-7.436215030029416">
        <ele>124.63</ele>
        <time>2025-04-30T08:08:52Z</time>
      </trkpt>
      <trkpt lat="43.557705972343683" lon="-7.436302034184337">
        <ele>123.67</ele>
        <time>2025-04-30T08:08:53Z</time>
      </trkpt>
      <trkpt lat="43.55763397179544" lon="-7.436400018632412">
        <ele>122.22</ele>
        <time>2025-04-30T08:08:54Z</time>
      </trkpt>
      <trkpt lat="43.557579992339015" lon="-7.436506971716881">
        <ele>121.26000000000001</ele>
        <time>2025-04-30T08:08:55Z</time>
      </trkpt>
      <trkpt lat="43.557531964033842" lon="-7.436602022498846">
        <ele>120.3</ele>
        <time>2025-04-30T08:08:56Z</time>
      </trkpt>
      <trkpt lat="43.557507991790771" lon="-7.436708975583315">
        <ele>119.81999999999999</ele>
        <time>2025-04-30T08:08:57Z</time>
      </trkpt>
      <trkpt lat="43.557485025376081" lon="-7.436814000830054">
        <ele>118.86</ele>
        <time>2025-04-30T08:08:58Z</time>
      </trkpt>
      <trkpt lat="43.55746197514236" lon="-7.436920031905174">
        <ele>118.38</ele>
        <time>2025-04-30T08:08:59Z</time>
      </trkpt>
      <trkpt lat="43.557436997070909" lon="-7.437033019959927">
        <ele>117.90000000000001</ele>
        <time>2025-04-30T08:09:00Z</time>
      </trkpt>
      <trkpt lat="43.557411013171077" lon="-7.437149025499821">
        <ele>117.90000000000001</ele>
        <time>2025-04-30T08:09:01Z</time>
      </trkpt>
      <trkpt lat="43.557380000129342" lon="-7.437294032424688">
        <ele>117.90000000000001</ele>
        <time>2025-04-30T08:09:02Z</time>
      </trkpt>
      <trkpt lat="43.557163998484612" lon="-7.437720000743866">
        <ele>117.42</ele>
        <time>2025-04-30T08:09:06Z</time>
      </trkpt>
      <trkpt lat="43.557099038735032" lon="-7.437775991857052">
        <ele>117.90000000000001</ele>
        <time>2025-04-30T08:09:07Z</time>
      </trkpt>
      <trkpt lat="43.557029971852899" lon="-7.437831982970238">
        <ele>117.90000000000001</ele>
        <time>2025-04-30T08:09:08Z</time>
      </trkpt>
      <trkpt lat="43.556784968823195" lon="-7.437923010438681">
        <ele>117.42</ele>
        <time>2025-04-30T08:09:11Z</time>
      </trkpt>
      <trkpt lat="43.556671980768442" lon="-7.437980007380247">
        <ele>117.42</ele>
        <time>2025-04-30T08:09:12Z</time>
      </trkpt>
      <trkpt lat="43.556612972170115" lon="-7.438042033463717">
        <ele>116.94</ele>
        <time>2025-04-30T08:09:13Z</time>
      </trkpt>
      <trkpt lat="43.556182980537415" lon="-7.438588030636311">
        <ele>113.56999999999999</ele>
        <time>2025-04-30T08:09:18Z</time>
      </trkpt>
      <trkpt lat="43.556107962504029" lon="-7.438728008419275">
        <ele>112.61</ele>
        <time>2025-04-30T08:09:19Z</time>
      </trkpt>
      <trkpt lat="43.555575963109732" lon="-7.439460000023246">
        <ele>106.36</ele>
        <time>2025-04-30T08:09:26Z</time>
      </trkpt>
      <trkpt lat="43.55548501946032" lon="-7.439486989751458">
        <ele>105.40000000000001</ele>
        <time>2025-04-30T08:09:27Z</time>
      </trkpt>
      <trkpt lat="43.555362978950143" lon="-7.439524959772825">
        <ele>104.92</ele>
        <time>2025-04-30T08:09:28Z</time>
      </trkpt>
      <trkpt lat="43.554382966831326" lon="-7.439495036378503">
        <ele>103</ele>
        <time>2025-04-30T08:09:37Z</time>
      </trkpt>
      <trkpt lat="43.553685005754232" lon="-7.439509034156799">
        <ele>100.59999999999999</ele>
        <time>2025-04-30T08:09:44Z</time>
      </trkpt>
      <trkpt lat="43.553109001368284" lon="-7.43955597281456">
        <ele>98.670000000000002</ele>
        <time>2025-04-30T08:09:51Z</time>
      </trkpt>
      <trkpt lat="43.552846983075142" lon="-7.439601989462972">
        <ele>98.670000000000002</ele>
        <time>2025-04-30T08:09:54Z</time>
      </trkpt>
      <trkpt lat="43.552744975313544" lon="-7.439633002504706">
        <ele>98.189999999999998</ele>
        <time>2025-04-30T08:09:55Z</time>
      </trkpt>
      <trkpt lat="43.552679009735584" lon="-7.439697962254286">
        <ele>98.189999999999998</ele>
        <time>2025-04-30T08:09:56Z</time>
      </trkpt>
      <trkpt lat="43.552607009187341" lon="-7.43977096863091">
        <ele>98.189999999999998</ele>
        <time>2025-04-30T08:09:57Z</time>
      </trkpt>
      <trkpt lat="43.552544983103871" lon="-7.439831988885999">
        <ele>98.189999999999998</ele>
        <time>2025-04-30T08:09:58Z</time>
      </trkpt>
      <trkpt lat="43.552486980333924" lon="-7.439890997484326">
        <ele>97.709999999999994</ele>
        <time>2025-04-30T08:09:59Z</time>
      </trkpt>
      <trkpt lat="43.552266033366323" lon="-7.440214036032558">
        <ele>97.709999999999994</ele>
        <time>2025-04-30T08:10:04Z</time>
      </trkpt>
      <trkpt lat="43.552093030884862" lon="-7.440445041283965">
        <ele>99.150000000000006</ele>
        <time>2025-04-30T08:10:07Z</time>
      </trkpt>
      <trkpt lat="43.552039973437786" lon="-7.440512012690306">
        <ele>100.11</ele>
        <time>2025-04-30T08:10:08Z</time>
      </trkpt>
      <trkpt lat="43.551971996203065" lon="-7.440598011016846">
        <ele>100.59999999999999</ele>
        <time>2025-04-30T08:10:09Z</time>
      </trkpt>
      <trkpt lat="43.55178901925683" lon="-7.440873021259904">
        <ele>103.95999999999999</ele>
        <time>2025-04-30T08:10:14Z</time>
      </trkpt>
      <trkpt lat="43.551801005378366" lon="-7.440919959917665">
        <ele>104.44</ele>
        <time>2025-04-30T08:10:15Z</time>
      </trkpt>
      <trkpt lat="43.551855990663171" lon="-7.440993972122669">
        <ele>104.92</ele>
        <time>2025-04-30T08:10:16Z</time>
      </trkpt>
      <trkpt lat="43.551907036453485" lon="-7.441048035398126">
        <ele>105.40000000000001</ele>
        <time>2025-04-30T08:10:17Z</time>
      </trkpt>
      <trkpt lat="43.55196101590991" lon="-7.44110201485455">
        <ele>105.88</ele>
        <time>2025-04-30T08:10:18Z</time>
      </trkpt>
      <trkpt lat="43.552012983709574" lon="-7.441153982654214">
        <ele>106.36</ele>
        <time>2025-04-30T08:10:19Z</time>
      </trkpt>
      <trkpt lat="43.552067968994379" lon="-7.441207962110639">
        <ele>106.84</ele>
        <time>2025-04-30T08:10:20Z</time>
      </trkpt>
      <trkpt lat="43.55290699750185" lon="-7.441699979826808">
        <ele>111.65000000000001</ele>
        <time>2025-04-30T08:10:31Z</time>
      </trkpt>
      <trkpt lat="43.553676037117839" lon="-7.442127037793398">
        <ele>112.13</ele>
        <time>2025-04-30T08:10:41Z</time>
      </trkpt>
      <trkpt lat="43.553749965503812" lon="-7.442170036956668">
        <ele>112.61</ele>
        <time>2025-04-30T08:10:42Z</time>
      </trkpt>
      <trkpt lat="43.553826995193958" lon="-7.442213958129287">
        <ele>113.09</ele>
        <time>2025-04-30T08:10:43Z</time>
      </trkpt>
      <trkpt lat="43.554827040061355" lon="-7.442789040505886">
        <ele>114.05</ele>
        <time>2025-04-30T08:10:54Z</time>
      </trkpt>
      <trkpt lat="43.555750977247953" lon="-7.443311987444758">
        <ele>118.38</ele>
        <time>2025-04-30T08:11:04Z</time>
      </trkpt>
      <trkpt lat="43.555837981402874" lon="-7.443360015749931">
        <ele>118.86</ele>
        <time>2025-04-30T08:11:05Z</time>
      </trkpt>
      <trkpt lat="43.557110019028187" lon="-7.444054959341884">
        <ele>116.94</ele>
        <time>2025-04-30T08:11:18Z</time>
      </trkpt>
      <trkpt lat="43.557300036773086" lon="-7.444160990417004">
        <ele>116.94</ele>
        <time>2025-04-30T08:11:20Z</time>
      </trkpt>
      <trkpt lat="43.558521028608084" lon="-7.444866998121142">
        <ele>121.26000000000001</ele>
        <time>2025-04-30T08:11:33Z</time>
      </trkpt>
      <trkpt lat="43.558811964467168" lon="-7.445094985887408">
        <ele>121.73999999999999</ele>
        <time>2025-04-30T08:11:36Z</time>
      </trkpt>
      <trkpt lat="43.558902991935611" lon="-7.445168998092413">
        <ele>121.73999999999999</ele>
        <time>2025-04-30T08:11:37Z</time>
      </trkpt>
      <trkpt lat="43.558959988877177" lon="-7.445302018895745">
        <ele>122.22</ele>
        <time>2025-04-30T08:11:38Z</time>
      </trkpt>
      <trkpt lat="43.559031989425421" lon="-7.445468986406922">
        <ele>122.22</ele>
        <time>2025-04-30T08:11:39Z</time>
      </trkpt>
      <trkpt lat="43.559041041880846" lon="-7.445589015260339">
        <ele>122.70999999999999</ele>
        <time>2025-04-30T08:11:40Z</time>
      </trkpt>
      <trkpt lat="43.559052022174001" lon="-7.445754976943135">
        <ele>123.19</ele>
        <time>2025-04-30T08:11:41Z</time>
      </trkpt>
      <trkpt lat="43.559063002467155" lon="-7.445920016616583">
        <ele>124.15000000000001</ele>
        <time>2025-04-30T08:11:42Z</time>
      </trkpt>
      <trkpt lat="43.559154029935598" lon="-7.447679964825511">
        <ele>133.28</ele>
        <time>2025-04-30T08:11:53Z</time>
      </trkpt>
      <trkpt lat="43.559170961380005" lon="-7.447852967306972">
        <ele>134.24000000000001</ele>
        <time>2025-04-30T08:11:54Z</time>
      </trkpt>
      <trkpt lat="43.559186970815063" lon="-7.448026975616813">
        <ele>135.19999999999999</ele>
        <time>2025-04-30T08:11:55Z</time>
      </trkpt>
      <trkpt lat="43.55920298025012" lon="-7.448198972269893">
        <ele>136.16</ele>
        <time>2025-04-30T08:11:56Z</time>
      </trkpt>
      <trkpt lat="43.559218989685178" lon="-7.448368035256863">
        <ele>136.63999999999999</ele>
        <time>2025-04-30T08:11:57Z</time>
      </trkpt>
      <trkpt lat="43.559208009392023" lon="-7.448529973626137">
        <ele>137.61000000000001</ele>
        <time>2025-04-30T08:11:58Z</time>
      </trkpt>
      <trkpt lat="43.559178002178669" lon="-7.448702976107597">
        <ele>138.09</ele>
        <time>2025-04-30T08:11:59Z</time>
      </trkpt>
      <trkpt lat="43.55913600884378" lon="-7.448872961103916">
        <ele>139.05000000000001</ele>
        <time>2025-04-30T08:12:00Z</time>
      </trkpt>
      <trkpt lat="43.559022014960647" lon="-7.449404960498214">
        <ele>140.97</ele>
        <time>2025-04-30T08:12:03Z</time>
      </trkpt>
      <trkpt lat="43.558992007747293" lon="-7.449599001556635">
        <ele>140.97</ele>
        <time>2025-04-30T08:12:04Z</time>
      </trkpt>
      <trkpt lat="43.558957977220416" lon="-7.449813997372985">
        <ele>141.44999999999999</ele>
        <time>2025-04-30T08:12:05Z</time>
      </trkpt>
      <trkpt lat="43.558945991098881" lon="-7.450054977089167">
        <ele>141.44999999999999</ele>
        <time>2025-04-30T08:12:06Z</time>
      </trkpt>
      <trkpt lat="43.558945991098881" lon="-7.45029604062438">
        <ele>141.93000000000001</ele>
        <time>2025-04-30T08:12:07Z</time>
      </trkpt>
      <trkpt lat="43.558882037177682" lon="-7.451959010213614">
        <ele>145.30000000000001</ele>
        <time>2025-04-30T08:12:14Z</time>
      </trkpt>
      <trkpt lat="43.558895029127598" lon="-7.452841037884355">
        <ele>149.13999999999999</ele>
        <time>2025-04-30T08:12:18Z</time>
      </trkpt>
      <trkpt lat="43.558909026905894" lon="-7.453036000952125">
        <ele>149.62</ele>
        <time>2025-04-30T08:12:19Z</time>
      </trkpt>
      <trkpt lat="43.558925036340952" lon="-7.453258037567139">
        <ele>150.09999999999999</ele>
        <time>2025-04-30T08:12:20Z</time>
      </trkpt>
      <trkpt lat="43.558984966948628" lon="-7.453437997028232">
        <ele>150.58000000000001</ele>
        <time>2025-04-30T08:12:21Z</time>
      </trkpt>
      <trkpt lat="43.55905101634562" lon="-7.453635977581143">
        <ele>151.06</ele>
        <time>2025-04-30T08:12:22Z</time>
      </trkpt>
      <trkpt lat="43.55933197773993" lon="-7.45468002744019">
        <ele>153.94999999999999</ele>
        <time>2025-04-30T08:12:27Z</time>
      </trkpt>
      <trkpt lat="43.55933197773993" lon="-7.454914972186089">
        <ele>154.91</ele>
        <time>2025-04-30T08:12:28Z</time>
      </trkpt>
      <trkpt lat="43.559303982183337" lon="-7.455144971609116">
        <ele>155.38999999999999</ele>
        <time>2025-04-30T08:12:29Z</time>
      </trkpt>
      <trkpt lat="43.559187976643443" lon="-7.456079972907901">
        <ele>158.27000000000001</ele>
        <time>2025-04-30T08:12:33Z</time>
      </trkpt>
      <trkpt lat="43.559209015220404" lon="-7.456268984824419">
        <ele>158.75</ele>
        <time>2025-04-30T08:12:34Z</time>
      </trkpt>
      <trkpt lat="43.559262994676828" lon="-7.45646202005446">
        <ele>159.24000000000001</ele>
        <time>2025-04-30T08:12:35Z</time>
      </trkpt>
      <trkpt lat="43.559585027396679" lon="-7.457763981074095">
        <ele>164.52000000000001</ele>
        <time>2025-04-30T08:12:41Z</time>
      </trkpt>
      <trkpt lat="43.559677982702851" lon="-7.458387007936835">
        <ele>167.88999999999999</ele>
        <time>2025-04-30T08:12:44Z</time>
      </trkpt>
      <trkpt lat="43.559744032099843" lon="-7.458565039560199">
        <ele>168.84999999999999</ele>
        <time>2025-04-30T08:12:45Z</time>
      </trkpt>
      <trkpt lat="43.559812009334564" lon="-7.458740975707769">
        <ele>170.28999999999999</ele>
        <time>2025-04-30T08:12:46Z</time>
      </trkpt>
      <trkpt lat="43.559918040409684" lon="-7.458893023431301">
        <ele>171.25</ele>
        <time>2025-04-30T08:12:47Z</time>
      </trkpt>
      <trkpt lat="43.560028010979295" lon="-7.459051022306085">
        <ele>172.69</ele>
        <time>2025-04-30T08:12:48Z</time>
      </trkpt>
      <trkpt lat="43.560140999034047" lon="-7.459212960675359">
        <ele>173.66</ele>
        <time>2025-04-30T08:12:49Z</time>
      </trkpt>
      <trkpt lat="43.560235965996981" lon="-7.459410019218922">
        <ele>174.62</ele>
        <time>2025-04-30T08:12:50Z</time>
      </trkpt>
      <trkpt lat="43.560326993465424" lon="-7.459604982286692">
        <ele>176.06</ele>
        <time>2025-04-30T08:12:51Z</time>
      </trkpt>
      <trkpt lat="43.560640979558229" lon="-7.460402017459273">
        <ele>180.38</ele>
        <time>2025-04-30T08:12:55Z</time>
      </trkpt>
      <trkpt lat="43.560672998428345" lon="-7.460621958598495">
        <ele>181.34999999999999</ele>
        <time>2025-04-30T08:12:56Z</time>
      </trkpt>
      <trkpt lat="43.560689007863402" lon="-7.460843995213509">
        <ele>182.31</ele>
        <time>2025-04-30T08:12:57Z</time>
      </trkpt>
      <trkpt lat="43.560781041160226" lon="-7.463238034397364">
        <ele>196.72999999999999</ele>
        <time>2025-04-30T08:13:08Z</time>
      </trkpt>
      <trkpt lat="43.560893023386598" lon="-7.464819028973579">
        <ele>203.94</ele>
        <time>2025-04-30T08:13:15Z</time>
      </trkpt>
      <trkpt lat="43.560935016721487" lon="-7.465052967891097">
        <ele>205.38</ele>
        <time>2025-04-30T08:13:16Z</time>
      </trkpt>
      <trkpt lat="43.561298958957195" lon="-7.466920958831906">
        <ele>213.06999999999999</ele>
        <time>2025-04-30T08:13:24Z</time>
      </trkpt>
      <trkpt lat="43.56128403916955" lon="-7.46714198961854">
        <ele>214.03</ele>
        <time>2025-04-30T08:13:25Z</time>
      </trkpt>
      <trkpt lat="43.561247996985912" lon="-7.467860989272595">
        <ele>218.36000000000001</ele>
        <time>2025-04-30T08:13:28Z</time>
      </trkpt>
      <trkpt lat="43.561285967007279" lon="-7.46838997118175">
        <ele>220.28</ele>
        <time>2025-04-30T08:13:30Z</time>
      </trkpt>
      <trkpt lat="43.561327960342169" lon="-7.469749012961984">
        <ele>225.09</ele>
        <time>2025-04-30T08:13:35Z</time>
      </trkpt>
      <trkpt lat="43.561283033341169" lon="-7.469993010163307">
        <ele>226.53</ele>
        <time>2025-04-30T08:13:36Z</time>
      </trkpt>
      <trkpt lat="43.561241962015629" lon="-7.470210017636418">
        <ele>227.49000000000001</ele>
        <time>2025-04-30T08:13:37Z</time>
      </trkpt>
      <trkpt lat="43.561169039458036" lon="-7.470467006787658">
        <ele>228.44999999999999</ele>
        <time>2025-04-30T08:13:38Z</time>
      </trkpt>
      <trkpt lat="43.561099972575903" lon="-7.47070798650384">
        <ele>229.88999999999999</ele>
        <time>2025-04-30T08:13:39Z</time>
      </trkpt>
      <trkpt lat="43.560755979269743" lon="-7.471839040517807">
        <ele>234.22</ele>
        <time>2025-04-30T08:13:44Z</time>
      </trkpt>
      <trkpt lat="43.560680039227009" lon="-7.472037021070719">
        <ele>234.69999999999999</ele>
        <time>2025-04-30T08:13:45Z</time>
      </trkpt>
      <trkpt lat="43.560537965968251" lon="-7.472404986619949">
        <ele>236.13999999999999</ele>
        <time>2025-04-30T08:13:47Z</time>
      </trkpt>
      <trkpt lat="43.560480969026685" lon="-7.472580000758171">
        <ele>237.09999999999999</ele>
        <time>2025-04-30T08:13:48Z</time>
      </trkpt>
      <trkpt lat="43.560440987348557" lon="-7.472796002402902">
        <ele>237.58000000000001</ele>
        <time>2025-04-30T08:13:49Z</time>
      </trkpt>
      <trkpt lat="43.5603610239923" lon="-7.473225994035602">
        <ele>238.53999999999999</ele>
        <time>2025-04-30T08:13:51Z</time>
      </trkpt>
      <trkpt lat="43.560324981808662" lon="-7.473632013425231">
        <ele>239.02000000000001</ele>
        <time>2025-04-30T08:13:53Z</time>
      </trkpt>
      <trkpt lat="43.560333028435707" lon="-7.473843991756439">
        <ele>239.99000000000001</ele>
        <time>2025-04-30T08:13:54Z</time>
      </trkpt>
      <trkpt lat="43.56034099124372" lon="-7.474094023928046">
        <ele>240.47</ele>
        <time>2025-04-30T08:13:55Z</time>
      </trkpt>
      <trkpt lat="43.560382984578609" lon="-7.474272977560759">
        <ele>241.43000000000001</ele>
        <time>2025-04-30T08:13:56Z</time>
      </trkpt>
      <trkpt lat="43.560433024540544" lon="-7.474486967548728">
        <ele>242.38999999999999</ele>
        <time>2025-04-30T08:13:57Z</time>
      </trkpt>
      <trkpt lat="43.560491027310491" lon="-7.474736999720335">
        <ele>243.34999999999999</ele>
        <time>2025-04-30T08:13:58Z</time>
      </trkpt>
      <trkpt lat="43.560551963746548" lon="-7.474888963624835">
        <ele>243.83000000000001</ele>
        <time>2025-04-30T08:13:59Z</time>
      </trkpt>
      <trkpt lat="43.560631005093455" lon="-7.475081998854876">
        <ele>244.78999999999999</ele>
        <time>2025-04-30T08:14:00Z</time>
      </trkpt>
      <trkpt lat="43.560842983424664" lon="-7.475420963019133">
        <ele>245.75</ele>
        <time>2025-04-30T08:14:02Z</time>
      </trkpt>
      <trkpt lat="43.56102897785604" lon="-7.475771997123957">
        <ele>247.19999999999999</ele>
        <time>2025-04-30T08:14:04Z</time>
      </trkpt>
      <trkpt lat="43.561231987550855" lon="-7.476319000124931">
        <ele>250.08000000000001</ele>
        <time>2025-04-30T08:14:07Z</time>
      </trkpt>
      <trkpt lat="43.561326032504439" lon="-7.476454032585025">
        <ele>251.03999999999999</ele>
        <time>2025-04-30T08:14:08Z</time>
      </trkpt>
      <trkpt lat="43.561431979760528" lon="-7.476587975397706">
        <ele>252.47999999999999</ele>
        <time>2025-04-30T08:14:09Z</time>
      </trkpt>
      <trkpt lat="43.561538010835648" lon="-7.4767230078578">
        <ele>253.93000000000001</ele>
        <time>2025-04-30T08:14:10Z</time>
      </trkpt>
      <trkpt lat="43.561643036082387" lon="-7.476856028661132">
        <ele>255.37</ele>
        <time>2025-04-30T08:14:11Z</time>
      </trkpt>
      <trkpt lat="43.561734985560179" lon="-7.476999023929238">
        <ele>256.81</ele>
        <time>2025-04-30T08:14:12Z</time>
      </trkpt>
      <trkpt lat="43.56180002912879" lon="-7.477160962298513">
        <ele>257.76999999999998</ele>
        <time>2025-04-30T08:14:13Z</time>
      </trkpt>
      <trkpt lat="43.561849985271692" lon="-7.477337988093495">
        <ele>258.73000000000002</ele>
        <time>2025-04-30T08:14:14Z</time>
      </trkpt>
      <trkpt lat="43.561868006363511" lon="-7.477533034980297">
        <ele>259.69</ele>
        <time>2025-04-30T08:14:15Z</time>
      </trkpt>
      <trkpt lat="43.56188703328371" lon="-7.477723974734545">
        <ele>260.64999999999998</ele>
        <time>2025-04-30T08:14:16Z</time>
      </trkpt>
      <trkpt lat="43.561904970556498" lon="-7.477913992479444">
        <ele>261.62</ele>
        <time>2025-04-30T08:14:17Z</time>
      </trkpt>
      <trkpt lat="43.561922991648316" lon="-7.478104010224342">
        <ele>262.57999999999998</ele>
        <time>2025-04-30T08:14:18Z</time>
      </trkpt>
      <trkpt lat="43.561941012740135" lon="-7.478294027969241">
        <ele>263.06</ele>
        <time>2025-04-30T08:14:19Z</time>
      </trkpt>
      <trkpt lat="43.561971019953489" lon="-7.478482034057379">
        <ele>264.01999999999998</ele>
        <time>2025-04-30T08:14:20Z</time>
      </trkpt>
      <trkpt lat="43.562009995803237" lon="-7.478670962154865">
        <ele>264.98000000000002</ele>
        <time>2025-04-30T08:14:21Z</time>
      </trkpt>
      <trkpt lat="43.562049977481365" lon="-7.478857962414622">
        <ele>265.94</ele>
        <time>2025-04-30T08:14:22Z</time>
      </trkpt>
      <trkpt lat="43.562089037150145" lon="-7.47904303483665">
        <ele>266.89999999999998</ele>
        <time>2025-04-30T08:14:23Z</time>
      </trkpt>
      <trkpt lat="43.562121978029609" lon="-7.479200027883053">
        <ele>267.38</ele>
        <time>2025-04-30T08:14:24Z</time>
      </trkpt>
      <trkpt lat="43.56208199635148" lon="-7.479411000385881">
        <ele>268.35000000000002</ele>
        <time>2025-04-30T08:14:25Z</time>
      </trkpt>
      <trkpt lat="43.562036985531449" lon="-7.479579979553819">
        <ele>269.31</ele>
        <time>2025-04-30T08:14:26Z</time>
      </trkpt>
      <trkpt lat="43.561955010518432" lon="-7.479720963165164">
        <ele>269.79000000000002</ele>
        <time>2025-04-30T08:14:27Z</time>
      </trkpt>
      <trkpt lat="43.561873035505414" lon="-7.479863036423922">
        <ele>270.26999999999998</ele>
        <time>2025-04-30T08:14:28Z</time>
      </trkpt>
      <trkpt lat="43.561781002208591" lon="-7.479984993115068">
        <ele>271.23000000000002</ele>
        <time>2025-04-30T08:14:29Z</time>
      </trkpt>
      <trkpt lat="43.56167103163898" lon="-7.480077026411891">
        <ele>272.19</ele>
        <time>2025-04-30T08:14:30Z</time>
      </trkpt>
      <trkpt lat="43.561568018049002" lon="-7.480163024738431">
        <ele>273.14999999999998</ele>
        <time>2025-04-30T08:14:31Z</time>
      </trkpt>
      <trkpt lat="43.561500962823629" lon="-7.480307025834918">
        <ele>274.58999999999997</ele>
        <time>2025-04-30T08:14:32Z</time>
      </trkpt>
      <trkpt lat="43.561455029994249" lon="-7.480465024709702">
        <ele>275.56</ele>
        <time>2025-04-30T08:14:33Z</time>
      </trkpt>
      <trkpt lat="43.561228970065713" lon="-7.481491975486279">
        <ele>280.36000000000001</ele>
        <time>2025-04-30T08:14:38Z</time>
      </trkpt>
      <trkpt lat="43.561158981174231" lon="-7.481702025979757">
        <ele>280.83999999999997</ele>
        <time>2025-04-30T08:14:39Z</time>
      </trkpt>
      <trkpt lat="43.561063008382916" lon="-7.481897994875908">
        <ele>281.80000000000001</ele>
        <time>2025-04-30T08:14:40Z</time>
      </trkpt>
      <trkpt lat="43.560956977307796" lon="-7.482078960165381">
        <ele>282.27999999999997</ele>
        <time>2025-04-30T08:14:41Z</time>
      </trkpt>
      <trkpt lat="43.560848012566566" lon="-7.48226503841579">
        <ele>283.25</ele>
        <time>2025-04-30T08:14:42Z</time>
      </trkpt>
      <trkpt lat="43.560660006478429" lon="-7.482656976208091">
        <ele>284.69</ele>
        <time>2025-04-30T08:14:44Z</time>
      </trkpt>
      <trkpt lat="43.560407962650061" lon="-7.483248990029097">
        <ele>286.61000000000001</ele>
        <time>2025-04-30T08:14:47Z</time>
      </trkpt>
      <trkpt lat="43.560311989858747" lon="-7.483442025259137">
        <ele>287.08999999999997</ele>
        <time>2025-04-30T08:14:48Z</time>
      </trkpt>
      <trkpt lat="43.560197995975614" lon="-7.483586026355624">
        <ele>287.56999999999999</ele>
        <time>2025-04-30T08:14:49Z</time>
      </trkpt>
      <trkpt lat="43.560086013749242" lon="-7.48372801579535">
        <ele>288.05000000000001</ele>
        <time>2025-04-30T08:14:50Z</time>
      </trkpt>
      <trkpt lat="43.55997403152287" lon="-7.483868999406695">
        <ele>289.00999999999999</ele>
        <time>2025-04-30T08:14:51Z</time>
      </trkpt>
      <trkpt lat="43.559875963255763" lon="-7.484032027423382">
        <ele>289.00999999999999</ele>
        <time>2025-04-30T08:14:52Z</time>
      </trkpt>
      <trkpt lat="43.559785019606352" lon="-7.484209975227714">
        <ele>289.49000000000001</ele>
        <time>2025-04-30T08:14:53Z</time>
      </trkpt>
      <trkpt lat="43.55969600379467" lon="-7.484383983537555">
        <ele>289.49000000000001</ele>
        <time>2025-04-30T08:14:54Z</time>
      </trkpt>
      <trkpt lat="43.559486037120223" lon="-7.484858985990286">
        <ele>290.45999999999998</ele>
        <time>2025-04-30T08:14:57Z</time>
      </trkpt>
      <trkpt lat="43.559458963572979" lon="-7.485001981258392">
        <ele>290.94</ele>
        <time>2025-04-30T08:14:58Z</time>
      </trkpt>
      <trkpt lat="43.559451000764966" lon="-7.485164003446698">
        <ele>290.94</ele>
        <time>2025-04-30T08:14:59Z</time>
      </trkpt>
      <trkpt lat="43.559442032128572" lon="-7.485351003706455">
        <ele>291.42000000000002</ele>
        <time>2025-04-30T08:15:00Z</time>
      </trkpt>
      <trkpt lat="43.559403978288174" lon="-7.485562982037664">
        <ele>291.89999999999998</ele>
        <time>2025-04-30T08:15:01Z</time>
      </trkpt>
      <trkpt lat="43.559357961639762" lon="-7.485768003389239">
        <ele>292.38</ele>
        <time>2025-04-30T08:15:02Z</time>
      </trkpt>
      <trkpt lat="43.559314040467143" lon="-7.485967995598912">
        <ele>292.38</ele>
        <time>2025-04-30T08:15:03Z</time>
      </trkpt>
      <trkpt lat="43.559268023818731" lon="-7.486174022778869">
        <ele>292.86000000000001</ele>
        <time>2025-04-30T08:15:04Z</time>
      </trkpt>
      <trkpt lat="43.559259977191687" lon="-7.486362028867006">
        <ele>293.81999999999999</ele>
        <time>2025-04-30T08:15:05Z</time>
      </trkpt>
      <trkpt lat="43.559251008555293" lon="-7.486579958349466">
        <ele>294.30000000000001</ele>
        <time>2025-04-30T08:15:06Z</time>
      </trkpt>
      <trkpt lat="43.559356033802032" lon="-7.487514959648252">
        <ele>296.22000000000003</ele>
        <time>2025-04-30T08:15:10Z</time>
      </trkpt>
      <trkpt lat="43.559368019923568" lon="-7.487736996263266">
        <ele>296.69999999999999</ele>
        <time>2025-04-30T08:15:11Z</time>
      </trkpt>
      <trkpt lat="43.559389980509877" lon="-7.488182997331023">
        <ele>298.63</ele>
        <time>2025-04-30T08:15:13Z</time>
      </trkpt>
      <trkpt lat="43.559410013258457" lon="-7.488397993147373">
        <ele>300.06999999999999</ele>
        <time>2025-04-30T08:15:14Z</time>
      </trkpt>
      <trkpt lat="43.559443037956953" lon="-7.488595973700285">
        <ele>301.50999999999999</ele>
        <time>2025-04-30T08:15:15Z</time>
      </trkpt>
      <trkpt lat="43.559744032099843" lon="-7.489321008324623">
        <ele>307.75999999999999</ele>
        <time>2025-04-30T08:15:19Z</time>
      </trkpt>
      <trkpt lat="43.559821983799338" lon="-7.489491999149323">
        <ele>308.72000000000003</ele>
        <time>2025-04-30T08:15:20Z</time>
      </trkpt>
      <trkpt lat="43.559941006824374" lon="-7.489614961668849">
        <ele>310.16000000000003</ele>
        <time>2025-04-30T08:15:21Z</time>
      </trkpt>
      <trkpt lat="43.56006002984941" lon="-7.489733984693885">
        <ele>312.08999999999997</ele>
        <time>2025-04-30T08:15:22Z</time>
      </trkpt>
      <trkpt lat="43.560167988762259" lon="-7.489842027425766">
        <ele>313.52999999999997</ele>
        <time>2025-04-30T08:15:23Z</time>
      </trkpt>
      <trkpt lat="43.560277037322521" lon="-7.489950992166996">
        <ele>314.49000000000001</ele>
        <time>2025-04-30T08:15:24Z</time>
      </trkpt>
      <trkpt lat="43.560329005122185" lon="-7.490056017413735">
        <ele>315.93000000000001</ele>
        <time>2025-04-30T08:15:25Z</time>
      </trkpt>
      <trkpt lat="43.560362029820681" lon="-7.490193983539939">
        <ele>316.88999999999999</ele>
        <time>2025-04-30T08:15:26Z</time>
      </trkpt>
      <trkpt lat="43.560362029820681" lon="-7.490316024050117">
        <ele>317.85000000000002</ele>
        <time>2025-04-30T08:15:27Z</time>
      </trkpt>
      <trkpt lat="43.560310984030366" lon="-7.490482991561294">
        <ele>318.81</ele>
        <time>2025-04-30T08:15:28Z</time>
      </trkpt>
      <trkpt lat="43.560251975432038" lon="-7.490621963515878">
        <ele>319.77999999999997</ele>
        <time>2025-04-30T08:15:29Z</time>
      </trkpt>
      <trkpt lat="43.560150973498821" lon="-7.490736963227391">
        <ele>320.74000000000001</ele>
        <time>2025-04-30T08:15:30Z</time>
      </trkpt>
      <trkpt lat="43.560047037899494" lon="-7.490853974595666">
        <ele>322.18000000000001</ele>
        <time>2025-04-30T08:15:31Z</time>
      </trkpt>
      <trkpt lat="43.559940000995994" lon="-7.490971991792321">
        <ele>323.62</ele>
        <time>2025-04-30T08:15:32Z</time>
      </trkpt>
      <trkpt lat="43.559827012941241" lon="-7.491073999553919">
        <ele>324.57999999999998</ele>
        <time>2025-04-30T08:15:33Z</time>
      </trkpt>
      <trkpt lat="43.559714024886489" lon="-7.491193022578955">
        <ele>326.01999999999998</ele>
        <time>2025-04-30T08:15:34Z</time>
      </trkpt>
      <trkpt lat="43.559616962447762" lon="-7.491343980655074">
        <ele>327.47000000000003</ele>
        <time>2025-04-30T08:15:35Z</time>
      </trkpt>
      <trkpt lat="43.559521995484829" lon="-7.491504997014999">
        <ele>328.43000000000001</ele>
        <time>2025-04-30T08:15:36Z</time>
      </trkpt>
      <trkpt lat="43.559252014383674" lon="-7.492077983915806">
        <ele>332.26999999999998</ele>
        <time>2025-04-30T08:15:39Z</time>
      </trkpt>
      <trkpt lat="43.559055039659142" lon="-7.492651976644993">
        <ele>336.12</ele>
        <time>2025-04-30T08:15:42Z</time>
      </trkpt>
      <trkpt lat="43.558981027454138" lon="-7.492811987176538">
        <ele>337.07999999999998</ele>
        <time>2025-04-30T08:15:43Z</time>
      </trkpt>
      <trkpt lat="43.558902991935611" lon="-7.492954982444644">
        <ele>338.04000000000002</ele>
        <time>2025-04-30T08:15:44Z</time>
      </trkpt>
      <trkpt lat="43.558791009709239" lon="-7.493060007691383">
        <ele>339.48000000000002</ele>
        <time>2025-04-30T08:15:45Z</time>
      </trkpt>
      <trkpt lat="43.558680033311248" lon="-7.493164027109742">
        <ele>340.44</ele>
        <time>2025-04-30T08:15:46Z</time>
      </trkpt>
      <trkpt lat="43.558560004457831" lon="-7.493277015164495">
        <ele>341.88999999999999</ele>
        <time>2025-04-30T08:15:47Z</time>
      </trkpt>
      <trkpt lat="43.557915017008781" lon="-7.493713963776827">
        <ele>348.62</ele>
        <time>2025-04-30T08:15:52Z</time>
      </trkpt>
      <trkpt lat="43.557813009247184" lon="-7.493824018165469">
        <ele>349.57999999999998</ele>
        <time>2025-04-30T08:15:53Z</time>
      </trkpt>
      <trkpt lat="43.557717958465219" lon="-7.493960978463292">
        <ele>351.01999999999998</ele>
        <time>2025-04-30T08:15:54Z</time>
      </trkpt>
      <trkpt lat="43.55769700370729" lon="-7.494118977338076">
        <ele>351.98000000000002</ele>
        <time>2025-04-30T08:15:55Z</time>
      </trkpt>
      <trkpt lat="43.557699015364051" lon="-7.494303965941072">
        <ele>353.89999999999998</ele>
        <time>2025-04-30T08:15:56Z</time>
      </trkpt>
      <trkpt lat="43.557749977335334" lon="-7.494467999786139">
        <ele>355.33999999999997</ele>
        <time>2025-04-30T08:15:57Z</time>
      </trkpt>
      <trkpt lat="43.55780596844852" lon="-7.494646031409502">
        <ele>356.79000000000002</ele>
        <time>2025-04-30T08:15:58Z</time>
      </trkpt>
      <trkpt lat="43.558175023645163" lon="-7.495885966345668">
        <ele>366.39999999999998</ele>
        <time>2025-04-30T08:16:05Z</time>
      </trkpt>
      <trkpt lat="43.558178041130304" lon="-7.49608101323247">
        <ele>367.83999999999997</ele>
        <time>2025-04-30T08:16:06Z</time>
      </trkpt>
      <trkpt lat="43.558177035301924" lon="-7.497408036142588">
        <ele>374.08999999999997</ele>
        <time>2025-04-30T08:16:12Z</time>
      </trkpt>
      <trkpt lat="43.558136969804764" lon="-7.497595958411694">
        <ele>375.05000000000001</ele>
        <time>2025-04-30T08:16:13Z</time>
      </trkpt>
      <trkpt lat="43.558074021711946" lon="-7.497791005298495">
        <ele>376.49000000000001</ele>
        <time>2025-04-30T08:16:14Z</time>
      </trkpt>
      <trkpt lat="43.557937983423471" lon="-7.498206999152899">
        <ele>378.42000000000002</ele>
        <time>2025-04-30T08:16:16Z</time>
      </trkpt>
      <trkpt lat="43.557608993723989" lon="-7.499235039576888">
        <ele>383.69999999999999</ele>
        <time>2025-04-30T08:16:21Z</time>
      </trkpt>
      <trkpt lat="43.557574041187763" lon="-7.499435031786561">
        <ele>384.66000000000003</ele>
        <time>2025-04-30T08:16:22Z</time>
      </trkpt>
      <trkpt lat="43.557537999004126" lon="-7.499635023996234">
        <ele>385.63</ele>
        <time>2025-04-30T08:16:23Z</time>
      </trkpt>
      <trkpt lat="43.557501034811139" lon="-7.499827975407243">
        <ele>386.58999999999997</ele>
        <time>2025-04-30T08:16:24Z</time>
      </trkpt>
      <trkpt lat="43.557450994849205" lon="-7.50001598149538">
        <ele>387.06999999999999</ele>
        <time>2025-04-30T08:16:25Z</time>
      </trkpt>
      <trkpt lat="43.557404978200793" lon="-7.50018797814846">
        <ele>387.55000000000001</ele>
        <time>2025-04-30T08:16:26Z</time>
      </trkpt>
      <trkpt lat="43.557359967380762" lon="-7.500355029478669">
        <ele>388.50999999999999</ele>
        <time>2025-04-30T08:16:27Z</time>
      </trkpt>
      <trkpt lat="43.55733297765255" lon="-7.500523002818227">
        <ele>389.47000000000003</ele>
        <time>2025-04-30T08:16:28Z</time>
      </trkpt>
      <trkpt lat="43.557326020672917" lon="-7.50070296227932">
        <ele>390.43000000000001</ele>
        <time>2025-04-30T08:16:29Z</time>
      </trkpt>
      <trkpt lat="43.557317974045873" lon="-7.500883005559444">
        <ele>390.91000000000003</ele>
        <time>2025-04-30T08:16:30Z</time>
      </trkpt>
      <trkpt lat="43.557283021509647" lon="-7.501061037182808">
        <ele>391.87</ele>
        <time>2025-04-30T08:16:31Z</time>
      </trkpt>
      <trkpt lat="43.557238010689616" lon="-7.501236973330379">
        <ele>392.83999999999997</ele>
        <time>2025-04-30T08:16:32Z</time>
      </trkpt>
      <trkpt lat="43.557196017354727" lon="-7.501397989690304">
        <ele>393.31999999999999</ele>
        <time>2025-04-30T08:16:33Z</time>
      </trkpt>
      <trkpt lat="43.557159975171089" lon="-7.50154098495841">
        <ele>394.27999999999997</ele>
        <time>2025-04-30T08:16:34Z</time>
      </trkpt>
      <trkpt lat="43.557143965736032" lon="-7.501667970791459">
        <ele>395.24000000000001</ele>
        <time>2025-04-30T08:16:35Z</time>
      </trkpt>
      <trkpt lat="43.557143965736032" lon="-7.501817001029849">
        <ele>395.72000000000003</ele>
        <time>2025-04-30T08:16:36Z</time>
      </trkpt>
      <trkpt lat="43.557201968505979" lon="-7.501932000741363">
        <ele>396.68000000000001</ele>
        <time>2025-04-30T08:16:37Z</time>
      </trkpt>
      <trkpt lat="43.557276986539364" lon="-7.502024034038186">
        <ele>397.63999999999999</ele>
        <time>2025-04-30T08:16:38Z</time>
      </trkpt>
      <trkpt lat="43.557401038706303" lon="-7.502116989344358">
        <ele>399.07999999999998</ele>
        <time>2025-04-30T08:16:39Z</time>
      </trkpt>
      <trkpt lat="43.557502962648869" lon="-7.502125035971403">
        <ele>400.52999999999997</ele>
        <time>2025-04-30T08:16:40Z</time>
      </trkpt>
      <trkpt lat="43.557640006765723" lon="-7.502136016264558">
        <ele>401.49000000000001</ele>
        <time>2025-04-30T08:16:41Z</time>
      </trkpt>
      <trkpt lat="43.5582369659096" lon="-7.502279011532664">
        <ele>405.32999999999998</ele>
        <time>2025-04-30T08:16:45Z</time>
      </trkpt>
      <trkpt lat="43.558379039168358" lon="-7.502340031787753">
        <ele>405.81</ele>
        <time>2025-04-30T08:16:46Z</time>
      </trkpt>
      <trkpt lat="43.558488003909588" lon="-7.502471040934324">
        <ele>406.76999999999998</ele>
        <time>2025-04-30T08:16:47Z</time>
      </trkpt>
      <trkpt lat="43.558582970872521" lon="-7.50261303037405">
        <ele>407.25999999999999</ele>
        <time>2025-04-30T08:16:48Z</time>
      </trkpt>
      <trkpt lat="43.558654971420765" lon="-7.502793995663524">
        <ele>407.74000000000001</ele>
        <time>2025-04-30T08:16:49Z</time>
      </trkpt>
      <trkpt lat="43.558708028867841" lon="-7.502994993701577">
        <ele>408.69999999999999</ele>
        <time>2025-04-30T08:16:50Z</time>
      </trkpt>
      <trkpt lat="43.558859992772341" lon="-7.503607962280512">
        <ele>411.57999999999998</ele>
        <time>2025-04-30T08:16:53Z</time>
      </trkpt>
      <trkpt lat="43.558859992772341" lon="-7.503809966146946">
        <ele>413.01999999999998</ele>
        <time>2025-04-30T08:16:54Z</time>
      </trkpt>
      <trkpt lat="43.558850018307567" lon="-7.504021022468805">
        <ele>413.98000000000002</ele>
        <time>2025-04-30T08:16:55Z</time>
      </trkpt>
      <trkpt lat="43.558796038851142" lon="-7.504217997193337">
        <ele>414.94999999999999</ele>
        <time>2025-04-30T08:16:56Z</time>
      </trkpt>
      <trkpt lat="43.558694031089544" lon="-7.504387982189655">
        <ele>415.91000000000003</ele>
        <time>2025-04-30T08:16:57Z</time>
      </trkpt>
      <trkpt lat="43.558590011671185" lon="-7.504559978842735">
        <ele>416.87</ele>
        <time>2025-04-30T08:16:58Z</time>
      </trkpt>
      <trkpt lat="43.558479035273194" lon="-7.504743039608002">
        <ele>417.82999999999998</ele>
        <time>2025-04-30T08:16:59Z</time>
      </trkpt>
      <trkpt lat="43.558366969227791" lon="-7.504928028210998">
        <ele>418.79000000000002</ele>
        <time>2025-04-30T08:17:00Z</time>
      </trkpt>
      <trkpt lat="43.55827895924449" lon="-7.505140006542206">
        <ele>419.26999999999998</ele>
        <time>2025-04-30T08:17:01Z</time>
      </trkpt>
      <trkpt lat="43.55776397511363" lon="-7.506584962829948">
        <ele>425.04000000000002</ele>
        <time>2025-04-30T08:17:08Z</time>
      </trkpt>
      <trkpt lat="43.557685017585754" lon="-7.506784033030272">
        <ele>425.51999999999998</ele>
        <time>2025-04-30T08:17:09Z</time>
      </trkpt>
      <trkpt lat="43.55761100538075" lon="-7.506967009976506">
        <ele>426</ele>
        <time>2025-04-30T08:17:10Z</time>
      </trkpt>
      <trkpt lat="43.557522995397449" lon="-7.507073963060975">
        <ele>426.48000000000002</ele>
        <time>2025-04-30T08:17:11Z</time>
      </trkpt>
      <trkpt lat="43.557429034262896" lon="-7.507158033549786">
        <ele>426.95999999999998</ele>
        <time>2025-04-30T08:17:12Z</time>
      </trkpt>
      <trkpt lat="43.557329038158059" lon="-7.507202960550785">
        <ele>426.95999999999998</ele>
        <time>2025-04-30T08:17:13Z</time>
      </trkpt>
      <trkpt lat="43.557202974334359" lon="-7.507202960550785">
        <ele>427.44</ele>
        <time>2025-04-30T08:17:14Z</time>
      </trkpt>
      <trkpt lat="43.557071965187788" lon="-7.507186029106379">
        <ele>427.44</ele>
        <time>2025-04-30T08:17:15Z</time>
      </trkpt>
      <trkpt lat="43.55694598518312" lon="-7.507111011072993">
        <ele>427.92000000000002</ele>
        <time>2025-04-30T08:17:16Z</time>
      </trkpt>
      <trkpt lat="43.556818999350071" lon="-7.507034987211227">
        <ele>428.39999999999998</ele>
        <time>2025-04-30T08:17:17Z</time>
      </trkpt>
      <trkpt lat="43.556699976325035" lon="-7.506964998319745">
        <ele>428.88999999999999</ele>
        <time>2025-04-30T08:17:18Z</time>
      </trkpt>
      <trkpt lat="43.556594029068947" lon="-7.506901966407895">
        <ele>429.37</ele>
        <time>2025-04-30T08:17:19Z</time>
      </trkpt>
      <trkpt lat="43.556510964408517" lon="-7.506861984729767">
        <ele>429.85000000000002</ele>
        <time>2025-04-30T08:17:20Z</time>
      </trkpt>
      <trkpt lat="43.556426977738738" lon="-7.506886040791869">
        <ele>429.85000000000002</ele>
        <time>2025-04-30T08:17:21Z</time>
      </trkpt>
      <trkpt lat="43.556351959705353" lon="-7.506940020248294">
        <ele>430.32999999999998</ele>
        <time>2025-04-30T08:17:22Z</time>
      </trkpt>
      <trkpt lat="43.556303009390831" lon="-7.507046973332763">
        <ele>430.32999999999998</ele>
        <time>2025-04-30T08:17:23Z</time>
      </trkpt>
      <trkpt lat="43.556267973035574" lon="-7.507185023277998">
        <ele>430.81</ele>
        <time>2025-04-30T08:17:24Z</time>
      </trkpt>
      <trkpt lat="43.556227991357446" lon="-7.507346039637923">
        <ele>430.81</ele>
        <time>2025-04-30T08:17:25Z</time>
      </trkpt>
      <trkpt lat="43.556142998859286" lon="-7.50770696438849">
        <ele>431.29000000000002</ele>
        <time>2025-04-30T08:17:27Z</time>
      </trkpt>
      <trkpt lat="43.556118020787835" lon="-7.507895976305008">
        <ele>431.29000000000002</ele>
        <time>2025-04-30T08:17:28Z</time>
      </trkpt>
      <trkpt lat="43.556140987202525" lon="-7.508075013756752">
        <ele>431.76999999999998</ele>
        <time>2025-04-30T08:17:29Z</time>
      </trkpt>
      <trkpt lat="43.556179041042924" lon="-7.508256984874606">
        <ele>431.76999999999998</ele>
        <time>2025-04-30T08:17:30Z</time>
      </trkpt>
      <trkpt lat="43.556236959993839" lon="-7.508430993184447">
        <ele>432.25</ele>
        <time>2025-04-30T08:17:31Z</time>
      </trkpt>
      <trkpt lat="43.556297980248928" lon="-7.508614975959063">
        <ele>432.73000000000002</ele>
        <time>2025-04-30T08:17:32Z</time>
      </trkpt>
      <trkpt lat="43.556337039917707" lon="-7.508821003139019">
        <ele>432.25</ele>
        <time>2025-04-30T08:17:33Z</time>
      </trkpt>
      <trkpt lat="43.556337961927056" lon="-7.509048990905285">
        <ele>432.25</ele>
        <time>2025-04-30T08:17:34Z</time>
      </trkpt>
      <trkpt lat="43.556288005784154" lon="-7.509245965629816">
        <ele>432.25</ele>
        <time>2025-04-30T08:17:35Z</time>
      </trkpt>
      <trkpt lat="43.556134030222893" lon="-7.509840996935964">
        <ele>432.73000000000002</ele>
        <time>2025-04-30T08:17:38Z</time>
      </trkpt>
      <trkpt lat="43.556079966947436" lon="-7.510050963610411">
        <ele>432.73000000000002</ele>
        <time>2025-04-30T08:17:39Z</time>
      </trkpt>
      <trkpt lat="43.555880980566144" lon="-7.510665021836758">
        <ele>433.20999999999998</ele>
        <time>2025-04-30T08:17:42Z</time>
      </trkpt>
      <trkpt lat="43.555801017209888" lon="-7.510851016268134">
        <ele>433.69</ele>
        <time>2025-04-30T08:17:43Z</time>
      </trkpt>
      <trkpt lat="43.555698003619909" lon="-7.511007003486157">
        <ele>434.17000000000002</ele>
        <time>2025-04-30T08:17:44Z</time>
      </trkpt>
      <trkpt lat="43.555386029183865" lon="-7.511477982625365">
        <ele>435.13</ele>
        <time>2025-04-30T08:17:47Z</time>
      </trkpt>
      <trkpt lat="43.555318973958492" lon="-7.511646039783955">
        <ele>435.13</ele>
        <time>2025-04-30T08:17:48Z</time>
      </trkpt>
      <trkpt lat="43.555276980623603" lon="-7.511806972324848">
        <ele>435.61000000000001</ele>
        <time>2025-04-30T08:17:49Z</time>
      </trkpt>
      <trkpt lat="43.555277986451983" lon="-7.511974023655057">
        <ele>436.57999999999998</ele>
        <time>2025-04-30T08:17:50Z</time>
      </trkpt>
      <trkpt lat="43.55531201697886" lon="-7.512125987559557">
        <ele>437.54000000000002</ele>
        <time>2025-04-30T08:17:51Z</time>
      </trkpt>
      <trkpt lat="43.55539902113378" lon="-7.512238975614309">
        <ele>438.01999999999998</ele>
        <time>2025-04-30T08:17:52Z</time>
      </trkpt>
      <trkpt lat="43.555498011410236" lon="-7.512332014739513">
        <ele>438.5</ele>
        <time>2025-04-30T08:17:53Z</time>
      </trkpt>
      <trkpt lat="43.555615022778511" lon="-7.512349030002952">
        <ele>438.98000000000002</ele>
        <time>2025-04-30T08:17:54Z</time>
      </trkpt>
      <trkpt lat="43.555741002783179" lon="-7.512366967275739">
        <ele>439.45999999999998</ele>
        <time>2025-04-30T08:17:55Z</time>
      </trkpt>
      <trkpt lat="43.555880980566144" lon="-7.512387000024319">
        <ele>439.94</ele>
        <time>2025-04-30T08:17:56Z</time>
      </trkpt>
      <trkpt lat="43.556026993319392" lon="-7.512428993359208">
        <ele>440.42000000000002</ele>
        <time>2025-04-30T08:17:57Z</time>
      </trkpt>
      <trkpt lat="43.556310972198844" lon="-7.512542987242341">
        <ele>441.86000000000001</ele>
        <time>2025-04-30T08:17:59Z</time>
      </trkpt>
      <trkpt lat="43.556438963860273" lon="-7.512556985020638">
        <ele>442.81999999999999</ele>
        <time>2025-04-30T08:18:00Z</time>
      </trkpt>
      <trkpt lat="43.556566033512354" lon="-7.512538963928819">
        <ele>443.31</ele>
        <time>2025-04-30T08:18:01Z</time>
      </trkpt>
      <trkpt lat="43.55684095993638" lon="-7.512499988079071">
        <ele>444.26999999999998</ele>
        <time>2025-04-30T08:18:03Z</time>
      </trkpt>
      <trkpt lat="43.556995019316673" lon="-7.512491019442678">
        <ele>444.75</ele>
        <time>2025-04-30T08:18:04Z</time>
      </trkpt>
      <trkpt lat="43.557129967957735" lon="-7.512552039697766">
        <ele>445.23000000000002</ele>
        <time>2025-04-30T08:18:05Z</time>
      </trkpt>
      <trkpt lat="43.557255025953054" lon="-7.512646000832319">
        <ele>445.70999999999998</ele>
        <time>2025-04-30T08:18:06Z</time>
      </trkpt>
      <trkpt lat="43.557371031492949" lon="-7.512758988887072">
        <ele>446.19</ele>
        <time>2025-04-30T08:18:07Z</time>
      </trkpt>
      <trkpt lat="43.557475972920656" lon="-7.512887986376882">
        <ele>447.63</ele>
        <time>2025-04-30T08:18:08Z</time>
      </trkpt>
      <trkpt lat="43.558593029156327" lon="-7.514257002621889">
        <ele>457.72000000000003</ele>
        <time>2025-04-30T08:18:18Z</time>
      </trkpt>
      <trkpt lat="43.558718003332615" lon="-7.514379965141416">
        <ele>458.69</ele>
        <time>2025-04-30T08:18:19Z</time>
      </trkpt>
      <trkpt lat="43.558859992772341" lon="-7.514466969296336">
        <ele>459.64999999999998</ele>
        <time>2025-04-30T08:18:20Z</time>
      </trkpt>
      <trkpt lat="43.559010028839111" lon="-7.514537964016199">
        <ele>461.08999999999997</ele>
        <time>2025-04-30T08:18:21Z</time>
      </trkpt>
      <trkpt lat="43.560302015393972" lon="-7.51511799171567">
        <ele>470.22000000000003</ele>
        <time>2025-04-30T08:18:30Z</time>
      </trkpt>
      <trkpt lat="43.561730962246656" lon="-7.516249967738986">
        <ele>476.47000000000003</ele>
        <time>2025-04-30T08:18:40Z</time>
      </trkpt>
      <trkpt lat="43.563180025666952" lon="-7.517378004267812">
        <ele>478.87</ele>
        <time>2025-04-30T08:18:49Z</time>
      </trkpt>
      <trkpt lat="43.563366020098329" lon="-7.51752401702106">
        <ele>479.35000000000002</ele>
        <time>2025-04-30T08:18:51Z</time>
      </trkpt>
      <trkpt lat="43.563449000939727" lon="-7.51767598092556">
        <ele>479.35000000000002</ele>
        <time>2025-04-30T08:18:52Z</time>
      </trkpt>
      <trkpt lat="43.563495017588139" lon="-7.517759967595339">
        <ele>479.35000000000002</ele>
        <time>2025-04-30T08:18:53Z</time>
      </trkpt>
      <trkpt lat="43.563484959304333" lon="-7.517839008942246">
        <ele>479.35000000000002</ele>
        <time>2025-04-30T08:18:54Z</time>
      </trkpt>
      <trkpt lat="43.563467022031546" lon="-7.517950991168618">
        <ele>478.87</ele>
        <time>2025-04-30T08:18:55Z</time>
      </trkpt>
      <trkpt lat="43.563419999554753" lon="-7.518080994486809">
        <ele>478.87</ele>
        <time>2025-04-30T08:18:56Z</time>
      </trkpt>
      <trkpt lat="43.563366020098329" lon="-7.518230024725199">
        <ele>478.87</ele>
        <time>2025-04-30T08:18:57Z</time>
      </trkpt>
      <trkpt lat="43.563307011500001" lon="-7.518393974751234">
        <ele>478.38999999999999</ele>
        <time>2025-04-30T08:18:58Z</time>
      </trkpt>
      <trkpt lat="43.563273986801505" lon="-7.518587009981275">
        <ele>478.38999999999999</ele>
        <time>2025-04-30T08:18:59Z</time>
      </trkpt>
      <trkpt lat="43.563265018165112" lon="-7.518773004412651">
        <ele>477.91000000000003</ele>
        <time>2025-04-30T08:19:00Z</time>
      </trkpt>
      <trkpt lat="43.563295025378466" lon="-7.518956987187266">
        <ele>477.91000000000003</ele>
        <time>2025-04-30T08:19:01Z</time>
      </trkpt>
      <trkpt lat="43.563359985128045" lon="-7.519105011597276">
        <ele>477.91000000000003</ele>
        <time>2025-04-30T08:19:02Z</time>
      </trkpt>
      <trkpt lat="43.563441038131714" lon="-7.519258987158537">
        <ele>478.38999999999999</ele>
        <time>2025-04-30T08:19:03Z</time>
      </trkpt>
      <trkpt lat="43.563548997044563" lon="-7.519396031275392">
        <ele>478.87</ele>
        <time>2025-04-30T08:19:04Z</time>
      </trkpt>
      <trkpt lat="43.563665002584457" lon="-7.51954497769475">
        <ele>479.83999999999997</ele>
        <time>2025-04-30T08:19:05Z</time>
      </trkpt>
      <trkpt lat="43.563956022262573" lon="-7.519969018176198">
        <ele>481.75999999999999</ele>
        <time>2025-04-30T08:19:08Z</time>
      </trkpt>
      <trkpt lat="43.56399298645556" lon="-7.520096004009247">
        <ele>482.24000000000001</ele>
        <time>2025-04-30T08:19:09Z</time>
      </trkpt>
      <trkpt lat="43.564001033082604" lon="-7.520231958478689">
        <ele>482.24000000000001</ele>
        <time>2025-04-30T08:19:10Z</time>
      </trkpt>
      <trkpt lat="43.564010001718998" lon="-7.520377971231937">
        <ele>482.72000000000003</ele>
        <time>2025-04-30T08:19:11Z</time>
      </trkpt>
      <trkpt lat="43.563976977020502" lon="-7.520537981763482">
        <ele>482.72000000000003</ele>
        <time>2025-04-30T08:19:12Z</time>
      </trkpt>
      <trkpt lat="43.563940012827516" lon="-7.520718025043607">
        <ele>483.19999999999999</ele>
        <time>2025-04-30T08:19:13Z</time>
      </trkpt>
      <trkpt lat="43.563731973990798" lon="-7.521728966385126">
        <ele>482.24000000000001</ele>
        <time>2025-04-30T08:19:18Z</time>
      </trkpt>
      <trkpt lat="43.56371596455574" lon="-7.521917978301644">
        <ele>481.75999999999999</ele>
        <time>2025-04-30T08:19:19Z</time>
      </trkpt>
      <trkpt lat="43.563730968162417" lon="-7.522092992439866">
        <ele>481.27999999999997</ele>
        <time>2025-04-30T08:19:20Z</time>
      </trkpt>
      <trkpt lat="43.563812021166086" lon="-7.52223196439445">
        <ele>480.80000000000001</ele>
        <time>2025-04-30T08:19:21Z</time>
      </trkpt>
      <trkpt lat="43.563897013664246" lon="-7.522375965490937">
        <ele>480.31999999999999</ele>
        <time>2025-04-30T08:19:22Z</time>
      </trkpt>
      <trkpt lat="43.563988963142037" lon="-7.52248995937407">
        <ele>479.83999999999997</ele>
        <time>2025-04-30T08:19:23Z</time>
      </trkpt>
      <trkpt lat="43.564109997823834" lon="-7.522576041519642">
        <ele>478.87</ele>
        <time>2025-04-30T08:19:24Z</time>
      </trkpt>
      <trkpt lat="43.56422902084887" lon="-7.522662039846182">
        <ele>478.38999999999999</ele>
        <time>2025-04-30T08:19:25Z</time>
      </trkpt>
      <trkpt lat="43.564351983368397" lon="-7.522748960182071">
        <ele>477.91000000000003</ele>
        <time>2025-04-30T08:19:26Z</time>
      </trkpt>
      <trkpt lat="43.564608972519636" lon="-7.522933026775718">
        <ele>475.99000000000001</ele>
        <time>2025-04-30T08:19:28Z</time>
      </trkpt>
      <trkpt lat="43.564742999151349" lon="-7.52304601483047">
        <ele>475.50999999999999</ele>
        <time>2025-04-30T08:19:29Z</time>
      </trkpt>
      <trkpt lat="43.564864033833146" lon="-7.523180963471532">
        <ele>474.06999999999999</ele>
        <time>2025-04-30T08:19:30Z</time>
      </trkpt>
      <trkpt lat="43.564966963604093" lon="-7.523349020630121">
        <ele>473.11000000000001</ele>
        <time>2025-04-30T08:19:31Z</time>
      </trkpt>
      <trkpt lat="43.565061008557677" lon="-7.523520011454821">
        <ele>472.13999999999999</ele>
        <time>2025-04-30T08:19:32Z</time>
      </trkpt>
      <trkpt lat="43.565157987177372" lon="-7.523695025593042">
        <ele>470.69999999999999</ele>
        <time>2025-04-30T08:19:33Z</time>
      </trkpt>
      <trkpt lat="43.565340964123607" lon="-7.524026026949287">
        <ele>468.30000000000001</ele>
        <time>2025-04-30T08:19:35Z</time>
      </trkpt>
      <trkpt lat="43.565455041825771" lon="-7.524140020832419">
        <ele>467.81999999999999</ele>
        <time>2025-04-30T08:19:36Z</time>
      </trkpt>
      <trkpt lat="43.56558202765882" lon="-7.524241022765636">
        <ele>466.86000000000001</ele>
        <time>2025-04-30T08:19:37Z</time>
      </trkpt>
      <trkpt lat="43.565729968249798" lon="-7.524309000000358">
        <ele>465.89999999999998</ele>
        <time>2025-04-30T08:19:38Z</time>
      </trkpt>
      <trkpt lat="43.565890984609723" lon="-7.524350993335247">
        <ele>465.42000000000002</ele>
        <time>2025-04-30T08:19:39Z</time>
      </trkpt>
      <trkpt lat="43.566061975434422" lon="-7.524359961971641">
        <ele>464.44999999999999</ele>
        <time>2025-04-30T08:19:40Z</time>
      </trkpt>
      <trkpt lat="43.566237995401025" lon="-7.524364991113544">
        <ele>463.00999999999999</ele>
        <time>2025-04-30T08:19:41Z</time>
      </trkpt>
      <trkpt lat="43.566413009539247" lon="-7.524327021092176">
        <ele>462.05000000000001</ele>
        <time>2025-04-30T08:19:42Z</time>
      </trkpt>
      <trkpt lat="43.566907038912177" lon="-7.524218978360295">
        <ele>458.20999999999998</ele>
        <time>2025-04-30T08:19:45Z</time>
      </trkpt>
      <trkpt lat="43.567050034180284" lon="-7.524134991690517">
        <ele>456.75999999999999</ele>
        <time>2025-04-30T08:19:46Z</time>
      </trkpt>
      <trkpt lat="43.567176014184952" lon="-7.524052010849118">
        <ele>455.31999999999999</ele>
        <time>2025-04-30T08:19:47Z</time>
      </trkpt>
      <trkpt lat="43.567272992804646" lon="-7.523921001702547">
        <ele>453.88</ele>
        <time>2025-04-30T08:19:48Z</time>
      </trkpt>
      <trkpt lat="43.567371983081102" lon="-7.523784963414073">
        <ele>452.92000000000002</ele>
        <time>2025-04-30T08:19:49Z</time>
      </trkpt>
      <trkpt lat="43.56749402359128" lon="-7.523703994229436">
        <ele>451.48000000000002</ele>
        <time>2025-04-30T08:19:50Z</time>
      </trkpt>
      <trkpt lat="43.567618997767568" lon="-7.523645991459489">
        <ele>450.02999999999997</ele>
        <time>2025-04-30T08:19:51Z</time>
      </trkpt>
      <trkpt lat="43.567749001085758" lon="-7.523624030873179">
        <ele>448.58999999999997</ele>
        <time>2025-04-30T08:19:52Z</time>
      </trkpt>
      <trkpt lat="43.567879004403949" lon="-7.523636016994715">
        <ele>447.14999999999998</ele>
        <time>2025-04-30T08:19:53Z</time>
      </trkpt>
      <trkpt lat="43.567996015772223" lon="-7.52371396869421">
        <ele>445.70999999999998</ele>
        <time>2025-04-30T08:19:54Z</time>
      </trkpt>
      <trkpt lat="43.568109003826976" lon="-7.523818993940949">
        <ele>444.26999999999998</ele>
        <time>2025-04-30T08:19:55Z</time>
      </trkpt>
      <trkpt lat="43.568229032680392" lon="-7.523934999480844">
        <ele>443.31</ele>
        <time>2025-04-30T08:19:56Z</time>
      </trkpt>
      <trkpt lat="43.568343026563525" lon="-7.524074977263808">
        <ele>441.86000000000001</ele>
        <time>2025-04-30T08:19:57Z</time>
      </trkpt>
      <trkpt lat="43.568457020446658" lon="-7.524215960875154">
        <ele>441.38</ele>
        <time>2025-04-30T08:19:58Z</time>
      </trkpt>
      <trkpt lat="43.568642009049654" lon="-7.524545034393668">
        <ele>439.94</ele>
        <time>2025-04-30T08:20:00Z</time>
      </trkpt>
      <trkpt lat="43.568707974627614" lon="-7.524733040481806">
        <ele>439.45999999999998</ele>
        <time>2025-04-30T08:20:01Z</time>
      </trkpt>
      <trkpt lat="43.568844012916088" lon="-7.525105029344559">
        <ele>437.06</ele>
        <time>2025-04-30T08:20:03Z</time>
      </trkpt>
      <trkpt lat="43.568927999585867" lon="-7.525255987420678">
        <ele>435.61000000000001</ele>
        <time>2025-04-30T08:20:04Z</time>
      </trkpt>
      <trkpt lat="43.569055991247296" lon="-7.525394037365913">
        <ele>434.64999999999998</ele>
        <time>2025-04-30T08:20:05Z</time>
      </trkpt>
      <trkpt lat="43.570098029449582" lon="-7.526600025594235">
        <ele>426.48000000000002</ele>
        <time>2025-04-30T08:20:13Z</time>
      </trkpt>
      <trkpt lat="43.570586023852229" lon="-7.527422960847616">
        <ele>423.60000000000002</ele>
        <time>2025-04-30T08:20:18Z</time>
      </trkpt>
      <trkpt lat="43.570620976388454" lon="-7.527606021612883">
        <ele>423.12</ele>
        <time>2025-04-30T08:20:19Z</time>
      </trkpt>
      <trkpt lat="43.570627011358738" lon="-7.527810037136078">
        <ele>422.63999999999999</ele>
        <time>2025-04-30T08:20:20Z</time>
      </trkpt>
      <trkpt lat="43.570637991651893" lon="-7.528215972706676">
        <ele>421.19</ele>
        <time>2025-04-30T08:20:22Z</time>
      </trkpt>
      <trkpt lat="43.570678979158401" lon="-7.528402972966433">
        <ele>420.70999999999998</ele>
        <time>2025-04-30T08:20:23Z</time>
      </trkpt>
      <trkpt lat="43.570748968049884" lon="-7.528574969619513">
        <ele>420.23000000000002</ele>
        <time>2025-04-30T08:20:24Z</time>
      </trkpt>
      <trkpt lat="43.570836978033185" lon="-7.528741015121341">
        <ele>418.79000000000002</ele>
        <time>2025-04-30T08:20:25Z</time>
      </trkpt>
      <trkpt lat="43.570925993844867" lon="-7.52891200594604">
        <ele>417.82999999999998</ele>
        <time>2025-04-30T08:20:26Z</time>
      </trkpt>
      <trkpt lat="43.57101702131331" lon="-7.529086014255881">
        <ele>416.87</ele>
        <time>2025-04-30T08:20:27Z</time>
      </trkpt>
      <trkpt lat="43.571110982447863" lon="-7.529263962060213">
        <ele>415.91000000000003</ele>
        <time>2025-04-30T08:20:28Z</time>
      </trkpt>
      <trkpt lat="43.57121198438108" lon="-7.529435036703944">
        <ele>415.43000000000001</ele>
        <time>2025-04-30T08:20:29Z</time>
      </trkpt>
      <trkpt lat="43.571332013234496" lon="-7.529593035578728">
        <ele>414.47000000000003</ele>
        <time>2025-04-30T08:20:30Z</time>
      </trkpt>
      <trkpt lat="43.571568969637156" lon="-7.529859999194741">
        <ele>413.01999999999998</ele>
        <time>2025-04-30T08:20:32Z</time>
      </trkpt>
      <trkpt lat="43.571853032335639" lon="-7.530085975304246">
        <ele>412.06</ele>
        <time>2025-04-30T08:20:34Z</time>
      </trkpt>
      <trkpt lat="43.571998961269855" lon="-7.530164010822773">
        <ele>411.57999999999998</ele>
        <time>2025-04-30T08:20:35Z</time>
      </trkpt>
      <trkpt lat="43.572150003165007" lon="-7.530197035521269">
        <ele>411.10000000000002</ele>
        <time>2025-04-30T08:20:36Z</time>
      </trkpt>
      <trkpt lat="43.572302972897887" lon="-7.530213966965675">
        <ele>411.10000000000002</ele>
        <time>2025-04-30T08:20:37Z</time>
      </trkpt>
      <trkpt lat="43.572446973994374" lon="-7.530217990279198">
        <ele>410.62</ele>
        <time>2025-04-30T08:20:38Z</time>
      </trkpt>
      <trkpt lat="43.572602039203048" lon="-7.530167028307915">
        <ele>410.13999999999999</ele>
        <time>2025-04-30T08:20:39Z</time>
      </trkpt>
      <trkpt lat="43.573024990037084" lon="-7.529971981421113">
        <ele>409.18000000000001</ele>
        <time>2025-04-30T08:20:42Z</time>
      </trkpt>
      <trkpt lat="43.573303017765284" lon="-7.529789004474878">
        <ele>408.22000000000003</ele>
        <time>2025-04-30T08:20:44Z</time>
      </trkpt>
      <trkpt lat="43.573693027719855" lon="-7.529488010331988">
        <ele>406.76999999999998</ele>
        <time>2025-04-30T08:20:47Z</time>
      </trkpt>
      <trkpt lat="43.573805009946227" lon="-7.529437970370054">
        <ele>406.76999999999998</ele>
        <time>2025-04-30T08:20:48Z</time>
      </trkpt>
      <trkpt lat="43.573895031586289" lon="-7.529451968148351">
        <ele>405.81</ele>
        <time>2025-04-30T08:20:49Z</time>
      </trkpt>
      <trkpt lat="43.573987986892462" lon="-7.529476024210453">
        <ele>405.32999999999998</ele>
        <time>2025-04-30T08:20:50Z</time>
      </trkpt>
      <trkpt lat="43.574057975783944" lon="-7.529570991173387">
        <ele>404.85000000000002</ele>
        <time>2025-04-30T08:20:51Z</time>
      </trkpt>
      <trkpt lat="43.574142968282104" lon="-7.529686996713281">
        <ele>404.37</ele>
        <time>2025-04-30T08:20:52Z</time>
      </trkpt>
      <trkpt lat="43.574224021285772" lon="-7.529797973111272">
        <ele>404.37</ele>
        <time>2025-04-30T08:20:53Z</time>
      </trkpt>
      <trkpt lat="43.574287975206971" lon="-7.529953038319945">
        <ele>403.88999999999999</ele>
        <time>2025-04-30T08:20:54Z</time>
      </trkpt>
      <trkpt lat="43.574357964098454" lon="-7.530120005831122">
        <ele>403.88999999999999</ele>
        <time>2025-04-30T08:20:55Z</time>
      </trkpt>
      <trkpt lat="43.574527027085423" lon="-7.530658962205052">
        <ele>403.88999999999999</ele>
        <time>2025-04-30T08:20:58Z</time>
      </trkpt>
      <trkpt lat="43.574567008763552" lon="-7.530871024355292">
        <ele>404.37</ele>
        <time>2025-04-30T08:20:59Z</time>
      </trkpt>
      <trkpt lat="43.574556028470397" lon="-7.531058024615049">
        <ele>404.37</ele>
        <time>2025-04-30T08:21:00Z</time>
      </trkpt>
      <trkpt lat="43.574542030692101" lon="-7.531284000724554">
        <ele>404.37</ele>
        <time>2025-04-30T08:21:01Z</time>
      </trkpt>
      <trkpt lat="43.574526021257043" lon="-7.531525986269116">
        <ele>404.37</ele>
        <time>2025-04-30T08:21:02Z</time>
      </trkpt>
      <trkpt lat="43.574511017650366" lon="-7.531780041754246">
        <ele>404.37</ele>
        <time>2025-04-30T08:21:03Z</time>
      </trkpt>
      <trkpt lat="43.574433987960219" lon="-7.532757958397269">
        <ele>405.32999999999998</ele>
        <time>2025-04-30T08:21:07Z</time>
      </trkpt>
      <trkpt lat="43.574385037645698" lon="-7.532989969477058">
        <ele>405.32999999999998</ele>
        <time>2025-04-30T08:21:08Z</time>
      </trkpt>
      <trkpt lat="43.574171969667077" lon="-7.533869985491037">
        <ele>406.29000000000002</ele>
        <time>2025-04-30T08:21:12Z</time>
      </trkpt>
      <trkpt lat="43.574078008532524" lon="-7.534052040427923">
        <ele>406.29000000000002</ele>
        <time>2025-04-30T08:21:13Z</time>
      </trkpt>
      <trkpt lat="43.573983963578939" lon="-7.534236023202539">
        <ele>406.76999999999998</ele>
        <time>2025-04-30T08:21:14Z</time>
      </trkpt>
      <trkpt lat="43.573800986632705" lon="-7.534593008458614">
        <ele>406.76999999999998</ele>
        <time>2025-04-30T08:21:16Z</time>
      </trkpt>
      <trkpt lat="43.573738960549235" lon="-7.53477699123323">
        <ele>406.76999999999998</ele>
        <time>2025-04-30T08:21:17Z</time>
      </trkpt>
      <trkpt lat="43.573686992749572" lon="-7.534974971786141">
        <ele>407.25999999999999</ele>
        <time>2025-04-30T08:21:18Z</time>
      </trkpt>
      <trkpt lat="43.573625972494483" lon="-7.535410998389125">
        <ele>407.25999999999999</ele>
        <time>2025-04-30T08:21:20Z</time>
      </trkpt>
      <trkpt lat="43.573551960289478" lon="-7.536542974412441">
        <ele>408.22000000000003</ele>
        <time>2025-04-30T08:21:25Z</time>
      </trkpt>
      <trkpt lat="43.573562018573284" lon="-7.53677498549223">
        <ele>408.22000000000003</ele>
        <time>2025-04-30T08:21:26Z</time>
      </trkpt>
      <trkpt lat="43.573571993038058" lon="-7.537002973258495">
        <ele>408.22000000000003</ele>
        <time>2025-04-30T08:21:27Z</time>
      </trkpt>
      <trkpt lat="43.573581967502832" lon="-7.537233978509903">
        <ele>408.69999999999999</ele>
        <time>2025-04-30T08:21:28Z</time>
      </trkpt>
      <trkpt lat="43.573592025786638" lon="-7.537470012903214">
        <ele>408.69999999999999</ele>
        <time>2025-04-30T08:21:29Z</time>
      </trkpt>
      <trkpt lat="43.573602000251412" lon="-7.537693977355957">
        <ele>408.69999999999999</ele>
        <time>2025-04-30T08:21:30Z</time>
      </trkpt>
      <trkpt lat="43.573579033836722" lon="-7.537920959293842">
        <ele>409.18000000000001</ele>
        <time>2025-04-30T08:21:31Z</time>
      </trkpt>
      <trkpt lat="43.573508039116859" lon="-7.538611963391304">
        <ele>409.66000000000003</ele>
        <time>2025-04-30T08:21:34Z</time>
      </trkpt>
      <trkpt lat="43.573484988883138" lon="-7.538844980299473">
        <ele>410.13999999999999</ele>
        <time>2025-04-30T08:21:35Z</time>
      </trkpt>
      <trkpt lat="43.573473002761602" lon="-7.539071040228009">
        <ele>410.13999999999999</ele>
        <time>2025-04-30T08:21:36Z</time>
      </trkpt>
      <trkpt lat="43.573524970561266" lon="-7.539699012413621">
        <ele>410.62</ele>
        <time>2025-04-30T08:21:39Z</time>
      </trkpt>
      <trkpt lat="43.5735750105232" lon="-7.539896992966533">
        <ele>410.62</ele>
        <time>2025-04-30T08:21:40Z</time>
      </trkpt>
      <trkpt lat="43.573636030778289" lon="-7.540094973519445">
        <ele>410.62</ele>
        <time>2025-04-30T08:21:41Z</time>
      </trkpt>
      <trkpt lat="43.573695961385965" lon="-7.540293037891388">
        <ele>410.62</ele>
        <time>2025-04-30T08:21:42Z</time>
      </trkpt>
      <trkpt lat="43.573779026046395" lon="-7.540472997352481">
        <ele>411.10000000000002</ele>
        <time>2025-04-30T08:21:43Z</time>
      </trkpt>
      <trkpt lat="43.573864018544555" lon="-7.54064398817718">
        <ele>411.10000000000002</ele>
        <time>2025-04-30T08:21:44Z</time>
      </trkpt>
      <trkpt lat="43.573951022699475" lon="-7.540811961516738">
        <ele>410.62</ele>
        <time>2025-04-30T08:21:45Z</time>
      </trkpt>
      <trkpt lat="43.574065016582608" lon="-7.540951017290354">
        <ele>410.62</ele>
        <time>2025-04-30T08:21:46Z</time>
      </trkpt>
      <trkpt lat="43.574270959943533" lon="-7.541199959814549">
        <ele>411.10000000000002</ele>
        <time>2025-04-30T08:21:48Z</time>
      </trkpt>
      <trkpt lat="43.574353018775582" lon="-7.541299033910036">
        <ele>411.10000000000002</ele>
        <time>2025-04-30T08:21:49Z</time>
      </trkpt>
      <trkpt lat="43.574353018775582" lon="-7.541428031399846">
        <ele>411.57999999999998</ele>
        <time>2025-04-30T08:21:50Z</time>
      </trkpt>
      <trkpt lat="43.574350001290441" lon="-7.54154596477747">
        <ele>411.10000000000002</ele>
        <time>2025-04-30T08:21:51Z</time>
      </trkpt>
      <trkpt lat="43.574309013783932" lon="-7.541682003065944">
        <ele>411.10000000000002</ele>
        <time>2025-04-30T08:21:52Z</time>
      </trkpt>
      <trkpt lat="43.57426299713552" lon="-7.541840001940727">
        <ele>410.62</ele>
        <time>2025-04-30T08:21:53Z</time>
      </trkpt>
      <trkpt lat="43.574233995750546" lon="-7.542031025514007">
        <ele>410.62</ele>
        <time>2025-04-30T08:21:54Z</time>
      </trkpt>
      <trkpt lat="43.574213963001966" lon="-7.542240992188454">
        <ele>410.62</ele>
        <time>2025-04-30T08:21:55Z</time>
      </trkpt>
      <trkpt lat="43.574210023507476" lon="-7.542453976348043">
        <ele>410.13999999999999</ele>
        <time>2025-04-30T08:21:56Z</time>
      </trkpt>
      <trkpt lat="43.574229972437024" lon="-7.542669977992773">
        <ele>410.13999999999999</ele>
        <time>2025-04-30T08:21:57Z</time>
      </trkpt>
      <trkpt lat="43.574254028499126" lon="-7.542886985465884">
        <ele>410.13999999999999</ele>
        <time>2025-04-30T08:21:58Z</time>
      </trkpt>
      <trkpt lat="43.574294010177255" lon="-7.543097035959363">
        <ele>410.13999999999999</ele>
        <time>2025-04-30T08:21:59Z</time>
      </trkpt>
      <trkpt lat="43.574333991855383" lon="-7.543302979320288">
        <ele>410.13999999999999</ele>
        <time>2025-04-30T08:22:00Z</time>
      </trkpt>
      <trkpt lat="43.574400041252375" lon="-7.543500037863851">
        <ele>410.13999999999999</ele>
        <time>2025-04-30T08:22:01Z</time>
      </trkpt>
      <trkpt lat="43.574487967416644" lon="-7.543682008981705">
        <ele>410.13999999999999</ele>
        <time>2025-04-30T08:22:02Z</time>
      </trkpt>
      <trkpt lat="43.574576983228326" lon="-7.54386599175632">
        <ele>410.13999999999999</ele>
        <time>2025-04-30T08:22:03Z</time>
      </trkpt>
      <trkpt lat="43.575400002300739" lon="-7.545057982206345">
        <ele>410.62</ele>
        <time>2025-04-30T08:22:11Z</time>
      </trkpt>
      <trkpt lat="43.575472002848983" lon="-7.545203994959593">
        <ele>410.62</ele>
        <time>2025-04-30T08:22:12Z</time>
      </trkpt>
      <trkpt lat="43.575517013669014" lon="-7.545360988005996">
        <ele>410.62</ele>
        <time>2025-04-30T08:22:13Z</time>
      </trkpt>
      <trkpt lat="43.575523970648646" lon="-7.545504989102483">
        <ele>410.13999999999999</ele>
        <time>2025-04-30T08:22:14Z</time>
      </trkpt>
      <trkpt lat="43.575504021719098" lon="-7.545662987977266">
        <ele>409.66000000000003</ele>
        <time>2025-04-30T08:22:15Z</time>
      </trkpt>
      <trkpt lat="43.575458005070686" lon="-7.545839007943869">
        <ele>409.18000000000001</ele>
        <time>2025-04-30T08:22:16Z</time>
      </trkpt>
      <trkpt lat="43.575406037271023" lon="-7.546039000153542">
        <ele>408.69999999999999</ele>
        <time>2025-04-30T08:22:17Z</time>
      </trkpt>
      <trkpt lat="43.575349962338805" lon="-7.546255001798272">
        <ele>408.22000000000003</ele>
        <time>2025-04-30T08:22:18Z</time>
      </trkpt>
      <trkpt lat="43.575073024258018" lon="-7.547896010801196">
        <ele>404.37</ele>
        <time>2025-04-30T08:22:25Z</time>
      </trkpt>
      <trkpt lat="43.575032036751509" lon="-7.548554996028543">
        <ele>403.41000000000003</ele>
        <time>2025-04-30T08:22:28Z</time>
      </trkpt>
      <trkpt lat="43.57503698207438" lon="-7.549253962934017">
        <ele>403.88999999999999</ele>
        <time>2025-04-30T08:22:32Z</time>
      </trkpt>
      <trkpt lat="43.575072018429637" lon="-7.549561997875571">
        <ele>404.85000000000002</ele>
        <time>2025-04-30T08:22:34Z</time>
      </trkpt>
      <trkpt lat="43.575108982622623" lon="-7.5497090164572">
        <ele>405.32999999999998</ele>
        <time>2025-04-30T08:22:35Z</time>
      </trkpt>
      <trkpt lat="43.575162962079048" lon="-7.549842037260532">
        <ele>405.81</ele>
        <time>2025-04-30T08:22:36Z</time>
      </trkpt>
      <trkpt lat="43.575494969263673" lon="-7.550676958635449">
        <ele>410.13999999999999</ele>
        <time>2025-04-30T08:22:43Z</time>
      </trkpt>
      <trkpt lat="43.575558001175523" lon="-7.550786007195711">
        <ele>410.62</ele>
        <time>2025-04-30T08:22:44Z</time>
      </trkpt>
      <trkpt lat="43.57563897036016" lon="-7.550857001915574">
        <ele>411.10000000000002</ele>
        <time>2025-04-30T08:22:45Z</time>
      </trkpt>
      <trkpt lat="43.575726980343461" lon="-7.550934031605721">
        <ele>411.10000000000002</ele>
        <time>2025-04-30T08:22:46Z</time>
      </trkpt>
      <trkpt lat="43.575827982276678" lon="-7.550973007455468">
        <ele>411.10000000000002</ele>
        <time>2025-04-30T08:22:47Z</time>
      </trkpt>
      <trkpt lat="43.575938958674669" lon="-7.551016006618738">
        <ele>411.10000000000002</ele>
        <time>2025-04-30T08:22:48Z</time>
      </trkpt>
      <trkpt lat="43.576056975871325" lon="-7.55106202326715">
        <ele>410.62</ele>
        <time>2025-04-30T08:22:49Z</time>
      </trkpt>
      <trkpt lat="43.576193014159799" lon="-7.551102004945278">
        <ele>410.13999999999999</ele>
        <time>2025-04-30T08:22:50Z</time>
      </trkpt>
      <trkpt lat="43.5768629796803" lon="-7.551307026296854">
        <ele>408.69999999999999</ele>
        <time>2025-04-30T08:22:55Z</time>
      </trkpt>
      <trkpt lat="43.576984014362097" lon="-7.551391012966633">
        <ele>408.22000000000003</ele>
        <time>2025-04-30T08:22:56Z</time>
      </trkpt>
      <trkpt lat="43.577351979911327" lon="-7.55164397880435">
        <ele>406.76999999999998</ele>
        <time>2025-04-30T08:22:59Z</time>
      </trkpt>
      <trkpt lat="43.577482989057899" lon="-7.551714973524213">
        <ele>406.29000000000002</ele>
        <time>2025-04-30T08:23:00Z</time>
      </trkpt>
      <trkpt lat="43.577624978497624" lon="-7.551745986565948">
        <ele>405.32999999999998</ele>
        <time>2025-04-30T08:23:01Z</time>
      </trkpt>
      <trkpt lat="43.577770991250873" lon="-7.551700975745916">
        <ele>404.85000000000002</ele>
        <time>2025-04-30T08:23:02Z</time>
      </trkpt>
      <trkpt lat="43.577911974862218" lon="-7.551651019603014">
        <ele>404.37</ele>
        <time>2025-04-30T08:23:03Z</time>
      </trkpt>
      <trkpt lat="43.57804499566555" lon="-7.551583964377642">
        <ele>403.41000000000003</ele>
        <time>2025-04-30T08:23:04Z</time>
      </trkpt>
      <trkpt lat="43.578167036175728" lon="-7.551486985757947">
        <ele>402.44999999999999</ele>
        <time>2025-04-30T08:23:05Z</time>
      </trkpt>
      <trkpt lat="43.57825898565352" lon="-7.551367962732911">
        <ele>401.49000000000001</ele>
        <time>2025-04-30T08:23:06Z</time>
      </trkpt>
      <trkpt lat="43.578336015343666" lon="-7.551226979121566">
        <ele>400.52999999999997</ele>
        <time>2025-04-30T08:23:07Z</time>
      </trkpt>
      <trkpt lat="43.578378008678555" lon="-7.551059005782008">
        <ele>400.05000000000001</ele>
        <time>2025-04-30T08:23:08Z</time>
      </trkpt>
      <trkpt lat="43.578417990356684" lon="-7.550880974158645">
        <ele>399.07999999999998</ele>
        <time>2025-04-30T08:23:09Z</time>
      </trkpt>
      <trkpt lat="43.578456966206431" lon="-7.550704032182694">
        <ele>398.12</ele>
        <time>2025-04-30T08:23:10Z</time>
      </trkpt>
      <trkpt lat="43.578509017825127" lon="-7.550549972802401">
        <ele>397.63999999999999</ele>
        <time>2025-04-30T08:23:11Z</time>
      </trkpt>
      <trkpt lat="43.57858101837337" lon="-7.550418041646481">
        <ele>397.16000000000003</ele>
        <time>2025-04-30T08:23:12Z</time>
      </trkpt>
      <trkpt lat="43.5787090100348" lon="-7.550289966166019">
        <ele>396.68000000000001</ele>
        <time>2025-04-30T08:23:13Z</time>
      </trkpt>
      <trkpt lat="43.578799031674862" lon="-7.550229029729962">
        <ele>396.19999999999999</ele>
        <time>2025-04-30T08:23:14Z</time>
      </trkpt>
      <trkpt lat="43.578914031386375" lon="-7.550149988383055">
        <ele>395.72000000000003</ele>
        <time>2025-04-30T08:23:15Z</time>
      </trkpt>
      <trkpt lat="43.579028025269508" lon="-7.550073964521289">
        <ele>395.24000000000001</ele>
        <time>2025-04-30T08:23:16Z</time>
      </trkpt>
      <trkpt lat="43.579141013324261" lon="-7.549997018650174">
        <ele>394.75999999999999</ele>
        <time>2025-04-30T08:23:17Z</time>
      </trkpt>
      <trkpt lat="43.579249978065491" lon="-7.549923006445169">
        <ele>394.75999999999999</ele>
        <time>2025-04-30T08:23:18Z</time>
      </trkpt>
      <trkpt lat="43.57937403023243" lon="-7.549896016716957">
        <ele>394.27999999999997</ele>
        <time>2025-04-30T08:23:19Z</time>
      </trkpt>
      <trkpt lat="43.579508978873491" lon="-7.549925018101931">
        <ele>394.27999999999997</ele>
        <time>2025-04-30T08:23:20Z</time>
      </trkpt>
      <trkpt lat="43.579648034647107" lon="-7.549971034750342">
        <ele>393.80000000000001</ele>
        <time>2025-04-30T08:23:21Z</time>
      </trkpt>
      <trkpt lat="43.579780971631408" lon="-7.550055021420121">
        <ele>393.31999999999999</ele>
        <time>2025-04-30T08:23:22Z</time>
      </trkpt>
      <trkpt lat="43.579894965514541" lon="-7.55016197450459">
        <ele>393.31999999999999</ele>
        <time>2025-04-30T08:23:23Z</time>
      </trkpt>
      <trkpt lat="43.579980041831732" lon="-7.550274962559342">
        <ele>392.83999999999997</ele>
        <time>2025-04-30T08:23:24Z</time>
      </trkpt>
      <trkpt lat="43.580043995752931" lon="-7.550405971705914">
        <ele>392.36000000000001</ele>
        <time>2025-04-30T08:23:25Z</time>
      </trkpt>
      <trkpt lat="43.580056987702847" lon="-7.550550978630781">
        <ele>391.38999999999999</ele>
        <time>2025-04-30T08:23:26Z</time>
      </trkpt>
      <trkpt lat="43.580028992146254" lon="-7.550720041617751">
        <ele>390.91000000000003</ele>
        <time>2025-04-30T08:23:27Z</time>
      </trkpt>
      <trkpt lat="43.579988004639745" lon="-7.55089002661407">
        <ele>389.94999999999999</ele>
        <time>2025-04-30T08:23:28Z</time>
      </trkpt>
      <trkpt lat="43.579942993819714" lon="-7.551074009388685">
        <ele>389.47000000000003</ele>
        <time>2025-04-30T08:23:29Z</time>
      </trkpt>
      <trkpt lat="43.579902006313205" lon="-7.551243994385004">
        <ele>388.50999999999999</ele>
        <time>2025-04-30T08:23:30Z</time>
      </trkpt>
      <trkpt lat="43.579879961907864" lon="-7.551576001569629">
        <ele>387.55000000000001</ele>
        <time>2025-04-30T08:23:32Z</time>
      </trkpt>
      <trkpt lat="43.579866969957948" lon="-7.55218000151217">
        <ele>384.66000000000003</ele>
        <time>2025-04-30T08:23:35Z</time>
      </trkpt>
      <trkpt lat="43.579825982451439" lon="-7.552414024248719">
        <ele>383.69999999999999</ele>
        <time>2025-04-30T08:23:36Z</time>
      </trkpt>
      <trkpt lat="43.579735038802028" lon="-7.552624996751547">
        <ele>383.22000000000003</ele>
        <time>2025-04-30T08:23:37Z</time>
      </trkpt>
      <trkpt lat="43.579265987500548" lon="-7.553596962243319">
        <ele>382.25999999999999</ele>
        <time>2025-04-30T08:23:42Z</time>
      </trkpt>
      <trkpt lat="43.578876983374357" lon="-7.554761040955782">
        <ele>382.25999999999999</ele>
        <time>2025-04-30T08:23:48Z</time>
      </trkpt>
      <trkpt lat="43.57883901335299" lon="-7.554948041215539">
        <ele>382.74000000000001</ele>
        <time>2025-04-30T08:23:49Z</time>
      </trkpt>
      <trkpt lat="43.578808000311255" lon="-7.555151972919703">
        <ele>383.22000000000003</ele>
        <time>2025-04-30T08:23:50Z</time>
      </trkpt>
      <trkpt lat="43.57875200919807" lon="-7.555562015622854">
        <ele>384.66000000000003</ele>
        <time>2025-04-30T08:23:52Z</time>
      </trkpt>
      <trkpt lat="43.57875200919807" lon="-7.555748010054231">
        <ele>385.63</ele>
        <time>2025-04-30T08:23:53Z</time>
      </trkpt>
      <trkpt lat="43.57875200919807" lon="-7.555920006707311">
        <ele>386.11000000000001</ele>
        <time>2025-04-30T08:23:54Z</time>
      </trkpt>
      <trkpt lat="43.578799031674862" lon="-7.556083034723997">
        <ele>387.06999999999999</ele>
        <time>2025-04-30T08:23:55Z</time>
      </trkpt>
      <trkpt lat="43.57885804027319" lon="-7.556243967264891">
        <ele>388.02999999999997</ele>
        <time>2025-04-30T08:23:56Z</time>
      </trkpt>
      <trkpt lat="43.578931968659163" lon="-7.556411018595099">
        <ele>388.99000000000001</ele>
        <time>2025-04-30T08:23:57Z</time>
      </trkpt>
      <trkpt lat="43.579024001955986" lon="-7.55656398832798">
        <ele>389.94999999999999</ele>
        <time>2025-04-30T08:23:58Z</time>
      </trkpt>
      <trkpt lat="43.579863030463457" lon="-7.557950019836426">
        <ele>397.16000000000003</ele>
        <time>2025-04-30T08:24:06Z</time>
      </trkpt>
      <trkpt lat="43.580221021547914" lon="-7.558326032012701">
        <ele>398.12</ele>
        <time>2025-04-30T08:24:09Z</time>
      </trkpt>
      <trkpt lat="43.580371979624033" lon="-7.558393003419042">
        <ele>398.60000000000002</ele>
        <time>2025-04-30T08:24:10Z</time>
      </trkpt>
      <trkpt lat="43.581451987847686" lon="-7.558652004227042">
        <ele>401.97000000000003</ele>
        <time>2025-04-30T08:24:17Z</time>
      </trkpt>
      <trkpt lat="43.581565981730819" lon="-7.558707995340228">
        <ele>402.44999999999999</ele>
        <time>2025-04-30T08:24:18Z</time>
      </trkpt>
      <trkpt lat="43.5816740244627" lon="-7.558786030858755">
        <ele>402.93000000000001</ele>
        <time>2025-04-30T08:24:19Z</time>
      </trkpt>
      <trkpt lat="43.581771003082395" lon="-7.558893989771605">
        <ele>403.88999999999999</ele>
        <time>2025-04-30T08:24:20Z</time>
      </trkpt>
      <trkpt lat="43.581854989752173" lon="-7.559042014181614">
        <ele>404.85000000000002</ele>
        <time>2025-04-30T08:24:21Z</time>
      </trkpt>
      <trkpt lat="43.581918021664023" lon="-7.559220967814326">
        <ele>406.29000000000002</ele>
        <time>2025-04-30T08:24:22Z</time>
      </trkpt>
      <trkpt lat="43.581944005563855" lon="-7.559423977509141">
        <ele>406.76999999999998</ele>
        <time>2025-04-30T08:24:23Z</time>
      </trkpt>
      <trkpt lat="43.581969989463687" lon="-7.55963402800262">
        <ele>407.25999999999999</ele>
        <time>2025-04-30T08:24:24Z</time>
      </trkpt>
      <trkpt lat="43.581964960321784" lon="-7.559852041304112">
        <ele>407.74000000000001</ele>
        <time>2025-04-30T08:24:25Z</time>
      </trkpt>
      <trkpt lat="43.581961020827293" lon="-7.560053039342165">
        <ele>408.22000000000003</ele>
        <time>2025-04-30T08:24:26Z</time>
      </trkpt>
      <trkpt lat="43.581992033869028" lon="-7.560682017356157">
        <ele>409.66000000000003</ele>
        <time>2025-04-30T08:24:30Z</time>
      </trkpt>
      <trkpt lat="43.582048024982214" lon="-7.560802968218923">
        <ele>410.13999999999999</ele>
        <time>2025-04-30T08:24:31Z</time>
      </trkpt>
      <trkpt lat="43.582098986953497" lon="-7.560911010950804">
        <ele>410.62</ele>
        <time>2025-04-30T08:24:32Z</time>
      </trkpt>
      <trkpt lat="43.582182973623276" lon="-7.560982005670667">
        <ele>411.10000000000002</ele>
        <time>2025-04-30T08:24:33Z</time>
      </trkpt>
      <trkpt lat="43.582287998870015" lon="-7.561069009825587">
        <ele>411.57999999999998</ele>
        <time>2025-04-30T08:24:34Z</time>
      </trkpt>
      <trkpt lat="43.582390006631613" lon="-7.561137992888689">
        <ele>411.57999999999998</ele>
        <time>2025-04-30T08:24:35Z</time>
      </trkpt>
      <trkpt lat="43.58251104131341" lon="-7.561184009537101">
        <ele>411.57999999999998</ele>
        <time>2025-04-30T08:24:36Z</time>
      </trkpt>
      <trkpt lat="43.582637021318078" lon="-7.561231032013893">
        <ele>412.06</ele>
        <time>2025-04-30T08:24:37Z</time>
      </trkpt>
      <trkpt lat="43.582763001322746" lon="-7.561277970671654">
        <ele>412.06</ele>
        <time>2025-04-30T08:24:38Z</time>
      </trkpt>
      <trkpt lat="43.583234986290336" lon="-7.561476035043597">
        <ele>413.01999999999998</ele>
        <time>2025-04-30T08:24:42Z</time>
      </trkpt>
      <trkpt lat="43.58330899849534" lon="-7.561578964814544">
        <ele>413.01999999999998</ele>
        <time>2025-04-30T08:24:43Z</time>
      </trkpt>
      <trkpt lat="43.583386028185487" lon="-7.561687007546425">
        <ele>413.01999999999998</ele>
        <time>2025-04-30T08:24:44Z</time>
      </trkpt>
      <trkpt lat="43.583441013470292" lon="-7.561813993379474">
        <ele>413.01999999999998</ele>
        <time>2025-04-30T08:24:45Z</time>
      </trkpt>
      <trkpt lat="43.583466997370124" lon="-7.561969980597496">
        <ele>413.5</ele>
        <time>2025-04-30T08:24:46Z</time>
      </trkpt>
      <trkpt lat="43.583494992926717" lon="-7.562134014442563">
        <ele>413.98000000000002</ele>
        <time>2025-04-30T08:24:47Z</time>
      </trkpt>
      <trkpt lat="43.583754999563098" lon="-7.563718026503921">
        <ele>416.87</ele>
        <time>2025-04-30T08:24:56Z</time>
      </trkpt>
      <trkpt lat="43.58380202203989" lon="-7.563880970701575">
        <ele>417.82999999999998</ele>
        <time>2025-04-30T08:24:57Z</time>
      </trkpt>
      <trkpt lat="43.583878967911005" lon="-7.56401801481843">
        <ele>418.31</ele>
        <time>2025-04-30T08:24:58Z</time>
      </trkpt>
      <trkpt lat="43.583965972065926" lon="-7.564172996208072">
        <ele>418.79000000000002</ele>
        <time>2025-04-30T08:24:59Z</time>
      </trkpt>
      <trkpt lat="43.584065968170762" lon="-7.564295036718249">
        <ele>418.79000000000002</ele>
        <time>2025-04-30T08:25:00Z</time>
      </trkpt>
      <trkpt lat="43.584466958418489" lon="-7.564859976992011">
        <ele>419.75</ele>
        <time>2025-04-30T08:25:04Z</time>
      </trkpt>
      <trkpt lat="43.584711961448193" lon="-7.565279994159937">
        <ele>420.70999999999998</ele>
        <time>2025-04-30T08:25:07Z</time>
      </trkpt>
      <trkpt lat="43.584820004180074" lon="-7.565376972779632">
        <ele>421.19</ele>
        <time>2025-04-30T08:25:08Z</time>
      </trkpt>
      <trkpt lat="43.585820971056819" lon="-7.565982984378934">
        <ele>423.60000000000002</ele>
        <time>2025-04-30T08:25:15Z</time>
      </trkpt>
      <trkpt lat="43.587073981761932" lon="-7.56661799736321">
        <ele>423.12</ele>
        <time>2025-04-30T08:25:24Z</time>
      </trkpt>
      <trkpt lat="43.587344968691468" lon="-7.566708019003272">
        <ele>421.68000000000001</ele>
        <time>2025-04-30T08:25:26Z</time>
      </trkpt>
      <trkpt lat="43.58771201223135" lon="-7.566723022609949">
        <ele>418.79000000000002</ele>
        <time>2025-04-30T08:25:29Z</time>
      </trkpt>
      <trkpt lat="43.587834974750876" lon="-7.566711036488414">
        <ele>417.35000000000002</ele>
        <time>2025-04-30T08:25:30Z</time>
      </trkpt>
      <trkpt lat="43.587950980290771" lon="-7.566655967384577">
        <ele>415.91000000000003</ele>
        <time>2025-04-30T08:25:31Z</time>
      </trkpt>
      <trkpt lat="43.588059023022652" lon="-7.566565023735166">
        <ele>414.94999999999999</ele>
        <time>2025-04-30T08:25:32Z</time>
      </trkpt>
      <trkpt lat="43.588168993592262" lon="-7.566472990438342">
        <ele>413.98000000000002</ele>
        <time>2025-04-30T08:25:33Z</time>
      </trkpt>
      <trkpt lat="43.588281981647015" lon="-7.566378023475409">
        <ele>413.01999999999998</ele>
        <time>2025-04-30T08:25:34Z</time>
      </trkpt>
      <trkpt lat="43.588493037968874" lon="-7.566195968538523">
        <ele>411.10000000000002</ele>
        <time>2025-04-30T08:25:36Z</time>
      </trkpt>
      <trkpt lat="43.58859596773982" lon="-7.56610200740397">
        <ele>410.13999999999999</ele>
        <time>2025-04-30T08:25:37Z</time>
      </trkpt>
      <trkpt lat="43.589344974607229" lon="-7.565402034670115">
        <ele>402.93000000000001</ele>
        <time>2025-04-30T08:25:44Z</time>
      </trkpt>
      <trkpt lat="43.589730961248279" lon="-7.564752018079162">
        <ele>398.12</ele>
        <time>2025-04-30T08:25:49Z</time>
      </trkpt>
      <trkpt lat="43.589876974001527" lon="-7.564308028668165">
        <ele>395.24000000000001</ele>
        <time>2025-04-30T08:25:52Z</time>
      </trkpt>
      <trkpt lat="43.59003396704793" lon="-7.563617024570704">
        <ele>393.31999999999999</ele>
        <time>2025-04-30T08:25:56Z</time>
      </trkpt>
      <trkpt lat="43.590066991746426" lon="-7.563443016260862">
        <ele>392.83999999999997</ele>
        <time>2025-04-30T08:25:57Z</time>
      </trkpt>
      <trkpt lat="43.5901840031147" lon="-7.562963990494609">
        <ele>391.87</ele>
        <time>2025-04-30T08:26:00Z</time>
      </trkpt>
      <trkpt lat="43.590239994227886" lon="-7.56281303241849">
        <ele>391.87</ele>
        <time>2025-04-30T08:26:01Z</time>
      </trkpt>
      <trkpt lat="43.590326998382807" lon="-7.562739020213485">
        <ele>391.87</ele>
        <time>2025-04-30T08:26:02Z</time>
      </trkpt>
      <trkpt lat="43.59042095951736" lon="-7.562685962766409">
        <ele>392.36000000000001</ele>
        <time>2025-04-30T08:26:03Z</time>
      </trkpt>
      <trkpt lat="43.590523973107338" lon="-7.562668025493622">
        <ele>392.36000000000001</ele>
        <time>2025-04-30T08:26:04Z</time>
      </trkpt>
      <trkpt lat="43.590638972818851" lon="-7.562648998573422">
        <ele>392.36000000000001</ele>
        <time>2025-04-30T08:26:05Z</time>
      </trkpt>
      <trkpt lat="43.591724010184407" lon="-7.562392009422183">
        <ele>389.47000000000003</ele>
        <time>2025-04-30T08:26:13Z</time>
      </trkpt>
      <trkpt lat="43.592703016474843" lon="-7.561986995860934">
        <ele>384.18000000000001</ele>
        <time>2025-04-30T08:26:21Z</time>
      </trkpt>
      <trkpt lat="43.593738013878465" lon="-7.561652977019548">
        <ele>377.44999999999999</ele>
        <time>2025-04-30T08:26:29Z</time>
      </trkpt>
      <trkpt lat="43.593862988054752" lon="-7.561579970642924">
        <ele>376.00999999999999</ele>
        <time>2025-04-30T08:26:30Z</time>
      </trkpt>
      <trkpt lat="43.59398796223104" lon="-7.561485003679991">
        <ele>375.05000000000001</ele>
        <time>2025-04-30T08:26:31Z</time>
      </trkpt>
      <trkpt lat="43.59409399330616" lon="-7.561359023675323">
        <ele>373.61000000000001</ele>
        <time>2025-04-30T08:26:32Z</time>
      </trkpt>
      <trkpt lat="43.594201030209661" lon="-7.561232959851623">
        <ele>372.64999999999998</ele>
        <time>2025-04-30T08:26:33Z</time>
      </trkpt>
      <trkpt lat="43.594287028536201" lon="-7.561083007603884">
        <ele>372.17000000000002</ele>
        <time>2025-04-30T08:26:34Z</time>
      </trkpt>
      <trkpt lat="43.595332000404596" lon="-7.559179980307818">
        <ele>365.92000000000002</ele>
        <time>2025-04-30T08:26:47Z</time>
      </trkpt>
      <trkpt lat="43.595616985112429" lon="-7.558572962880135">
        <ele>362.55000000000001</ele>
        <time>2025-04-30T08:26:51Z</time>
      </trkpt>
      <trkpt lat="43.596014035865664" lon="-7.557366974651814">
        <ele>353.42000000000002</ele>
        <time>2025-04-30T08:26:58Z</time>
      </trkpt>
      <trkpt lat="43.596105985343456" lon="-7.55724904127419">
        <ele>352.45999999999998</ele>
        <time>2025-04-30T08:26:59Z</time>
      </trkpt>
      <trkpt lat="43.596211010590196" lon="-7.557191960513592">
        <ele>351.01999999999998</ele>
        <time>2025-04-30T08:27:00Z</time>
      </trkpt>
      <trkpt lat="43.596316035836935" lon="-7.557159019634128">
        <ele>349.57999999999998</ele>
        <time>2025-04-30T08:27:01Z</time>
      </trkpt>
      <trkpt lat="43.596442015841603" lon="-7.557168994098902">
        <ele>348.13</ele>
        <time>2025-04-30T08:27:02Z</time>
      </trkpt>
      <trkpt lat="43.596716020256281" lon="-7.557191960513592">
        <ele>344.76999999999998</ele>
        <time>2025-04-30T08:27:04Z</time>
      </trkpt>
      <trkpt lat="43.596851974725723" lon="-7.557228002697229">
        <ele>342.85000000000002</ele>
        <time>2025-04-30T08:27:05Z</time>
      </trkpt>
      <trkpt lat="43.596999999135733" lon="-7.557304026558995">
        <ele>341.41000000000003</ele>
        <time>2025-04-30T08:27:06Z</time>
      </trkpt>
      <trkpt lat="43.597601987421513" lon="-7.557619018480182">
        <ele>334.68000000000001</ele>
        <time>2025-04-30T08:27:10Z</time>
      </trkpt>
      <trkpt lat="43.597748000174761" lon="-7.557694958522916">
        <ele>333.23000000000002</ele>
        <time>2025-04-30T08:27:11Z</time>
      </trkpt>
      <trkpt lat="43.59832601621747" lon="-7.557913977652788">
        <ele>326.99000000000001</ele>
        <time>2025-04-30T08:27:15Z</time>
      </trkpt>
      <trkpt lat="43.5984349809587" lon="-7.558006010949612">
        <ele>325.06</ele>
        <time>2025-04-30T08:27:16Z</time>
      </trkpt>
      <trkpt lat="43.598544029518962" lon="-7.558124028146267">
        <ele>323.13999999999999</ele>
        <time>2025-04-30T08:27:17Z</time>
      </trkpt>
      <trkpt lat="43.598659029230475" lon="-7.558247996494174">
        <ele>321.22000000000003</ele>
        <time>2025-04-30T08:27:18Z</time>
      </trkpt>
      <trkpt lat="43.59877503477037" lon="-7.558373976498842">
        <ele>319.30000000000001</ele>
        <time>2025-04-30T08:27:19Z</time>
      </trkpt>
      <trkpt lat="43.598878970369697" lon="-7.558486964553595">
        <ele>316.88999999999999</ele>
        <time>2025-04-30T08:27:20Z</time>
      </trkpt>
      <trkpt lat="43.599015008658171" lon="-7.558584026992321">
        <ele>314.49000000000001</ele>
        <time>2025-04-30T08:27:21Z</time>
      </trkpt>
      <trkpt lat="43.599150041118264" lon="-7.558679999783635">
        <ele>312.08999999999997</ele>
        <time>2025-04-30T08:27:22Z</time>
      </trkpt>
      <trkpt lat="43.599267974495888" lon="-7.558713024482131">
        <ele>309.68000000000001</ele>
        <time>2025-04-30T08:27:23Z</time>
      </trkpt>
      <trkpt lat="43.599411975592375" lon="-7.558730961754918">
        <ele>307.27999999999997</ele>
        <time>2025-04-30T08:27:24Z</time>
      </trkpt>
      <trkpt lat="43.599548013880849" lon="-7.558748982846737">
        <ele>305.36000000000001</ele>
        <time>2025-04-30T08:27:25Z</time>
      </trkpt>
      <trkpt lat="43.599677011370659" lon="-7.558764992281795">
        <ele>303.43000000000001</ele>
        <time>2025-04-30T08:27:26Z</time>
      </trkpt>
      <trkpt lat="43.599800979718566" lon="-7.558781001716852">
        <ele>301.02999999999997</ele>
        <time>2025-04-30T08:27:27Z</time>
      </trkpt>
      <trkpt lat="43.599940035492182" lon="-7.558882003650069">
        <ele>298.63</ele>
        <time>2025-04-30T08:27:28Z</time>
      </trkpt>
      <trkpt lat="43.600055035203695" lon="-7.558997003361583">
        <ele>296.69999999999999</ele>
        <time>2025-04-30T08:27:29Z</time>
      </trkpt>
      <trkpt lat="43.601112999022007" lon="-7.560159992426634">
        <ele>277</ele>
        <time>2025-04-30T08:27:38Z</time>
      </trkpt>
      <trkpt lat="43.601929983124137" lon="-7.561217034235597">
        <ele>268.35000000000002</ele>
        <time>2025-04-30T08:27:47Z</time>
      </trkpt>
      <trkpt lat="43.602144978940487" lon="-7.561531020328403">
        <ele>268.35000000000002</ele>
        <time>2025-04-30T08:27:50Z</time>
      </trkpt>
      <trkpt lat="43.602416971698403" lon="-7.561965035274625">
        <ele>268.35000000000002</ele>
        <time>2025-04-30T08:27:54Z</time>
      </trkpt>
      <trkpt lat="43.602505987510085" lon="-7.562076011672616">
        <ele>267.86000000000001</ele>
        <time>2025-04-30T08:27:55Z</time>
      </trkpt>
      <trkpt lat="43.603466972708702" lon="-7.562877992168069">
        <ele>259.20999999999998</ele>
        <time>2025-04-30T08:28:03Z</time>
      </trkpt>
      <trkpt lat="43.60382404178381" lon="-7.563106985762715">
        <ele>256.32999999999998</ele>
        <time>2025-04-30T08:28:06Z</time>
      </trkpt>
      <trkpt lat="43.603921020403504" lon="-7.563120983541012">
        <ele>255.37</ele>
        <time>2025-04-30T08:28:07Z</time>
      </trkpt>
      <trkpt lat="43.60403903760016" lon="-7.563044959679246">
        <ele>253.93000000000001</ele>
        <time>2025-04-30T08:28:08Z</time>
      </trkpt>
      <trkpt lat="43.604140039533377" lon="-7.562978994101286">
        <ele>253.44</ele>
        <time>2025-04-30T08:28:09Z</time>
      </trkpt>
      <trkpt lat="43.604252021759748" lon="-7.562905987724662">
        <ele>252.96000000000001</ele>
        <time>2025-04-30T08:28:10Z</time>
      </trkpt>
      <trkpt lat="43.604370960965753" lon="-7.562828036025167">
        <ele>252</ele>
        <time>2025-04-30T08:28:11Z</time>
      </trkpt>
      <trkpt lat="43.604501970112324" lon="-7.562800040468574">
        <ele>251.52000000000001</ele>
        <time>2025-04-30T08:28:12Z</time>
      </trkpt>
      <trkpt lat="43.604637002572417" lon="-7.562800040468574">
        <ele>250.56</ele>
        <time>2025-04-30T08:28:13Z</time>
      </trkpt>
      <trkpt lat="43.604772035032511" lon="-7.562800040468574">
        <ele>250.08000000000001</ele>
        <time>2025-04-30T08:28:14Z</time>
      </trkpt>
      <trkpt lat="43.604904972016811" lon="-7.562800040468574">
        <ele>248.63999999999999</ele>
        <time>2025-04-30T08:28:15Z</time>
      </trkpt>
      <trkpt lat="43.605043021962047" lon="-7.562787970528007">
        <ele>247.68000000000001</ele>
        <time>2025-04-30T08:28:16Z</time>
      </trkpt>
      <trkpt lat="43.605337981134653" lon="-7.562757041305304">
        <ele>245.75</ele>
        <time>2025-04-30T08:28:18Z</time>
      </trkpt>
      <trkpt lat="43.605463039129972" lon="-7.562700966373086">
        <ele>245.27000000000001</ele>
        <time>2025-04-30T08:28:19Z</time>
      </trkpt>
      <trkpt lat="43.605980034917593" lon="-7.562442971393466">
        <ele>241.91</ele>
        <time>2025-04-30T08:28:23Z</time>
      </trkpt>
      <trkpt lat="43.60608397051692" lon="-7.562350016087294">
        <ele>240.94999999999999</ele>
        <time>2025-04-30T08:28:24Z</time>
      </trkpt>
      <trkpt lat="43.606186984106898" lon="-7.562259994447231">
        <ele>239.99000000000001</ele>
        <time>2025-04-30T08:28:25Z</time>
      </trkpt>
      <trkpt lat="43.606688976287842" lon="-7.561811981722713">
        <ele>235.18000000000001</ele>
        <time>2025-04-30T08:28:30Z</time>
      </trkpt>
      <trkpt lat="43.606817973777652" lon="-7.561811981722713">
        <ele>235.18000000000001</ele>
        <time>2025-04-30T08:28:31Z</time>
      </trkpt>
      <trkpt lat="43.606968009844422" lon="-7.561811981722713">
        <ele>234.22</ele>
        <time>2025-04-30T08:28:32Z</time>
      </trkpt>
      <trkpt lat="43.607060965150595" lon="-7.561840983107686">
        <ele>233.25999999999999</ele>
        <time>2025-04-30T08:28:33Z</time>
      </trkpt>
      <trkpt lat="43.607195997610688" lon="-7.561881970614195">
        <ele>232.30000000000001</ele>
        <time>2025-04-30T08:28:34Z</time>
      </trkpt>
      <trkpt lat="43.607333963736892" lon="-7.561923963949084">
        <ele>231.33000000000001</ele>
        <time>2025-04-30T08:28:35Z</time>
      </trkpt>
      <trkpt lat="43.607474025338888" lon="-7.561966963112354">
        <ele>230.84999999999999</ele>
        <time>2025-04-30T08:28:36Z</time>
      </trkpt>
      <trkpt lat="43.607740988954902" lon="-7.562049021944404">
        <ele>228.93000000000001</ele>
        <time>2025-04-30T08:28:38Z</time>
      </trkpt>
      <trkpt lat="43.607883984223008" lon="-7.562139965593815">
        <ele>227.97</ele>
        <time>2025-04-30T08:28:39Z</time>
      </trkpt>
      <trkpt lat="43.60799303278327" lon="-7.562225963920355">
        <ele>227.00999999999999</ele>
        <time>2025-04-30T08:28:40Z</time>
      </trkpt>
      <trkpt lat="43.608071990311146" lon="-7.562367031350732">
        <ele>226.05000000000001</ele>
        <time>2025-04-30T08:28:41Z</time>
      </trkpt>
      <trkpt lat="43.608169974759221" lon="-7.562541961669922">
        <ele>225.09</ele>
        <time>2025-04-30T08:28:42Z</time>
      </trkpt>
      <trkpt lat="43.608202999457717" lon="-7.562670959159732">
        <ele>223.63999999999999</ele>
        <time>2025-04-30T08:28:43Z</time>
      </trkpt>
      <trkpt lat="43.608247004449368" lon="-7.562844967469573">
        <ele>222.19999999999999</ele>
        <time>2025-04-30T08:28:44Z</time>
      </trkpt>
      <trkpt lat="43.608484966680408" lon="-7.563897985965014">
        <ele>215.94999999999999</ele>
        <time>2025-04-30T08:28:50Z</time>
      </trkpt>
      <trkpt lat="43.608500976115465" lon="-7.564089009538293">
        <ele>215.47</ele>
        <time>2025-04-30T08:28:51Z</time>
      </trkpt>
      <trkpt lat="43.608512040227652" lon="-7.564280033111572">
        <ele>214.50999999999999</ele>
        <time>2025-04-30T08:28:52Z</time>
      </trkpt>
      <trkpt lat="43.608502987772226" lon="-7.564481031149626">
        <ele>213.55000000000001</ele>
        <time>2025-04-30T08:28:53Z</time>
      </trkpt>
      <trkpt lat="43.608494019135833" lon="-7.56468596868217">
        <ele>212.59</ele>
        <time>2025-04-30T08:28:54Z</time>
      </trkpt>
      <trkpt lat="43.608428975567222" lon="-7.565464982762933">
        <ele>208.25999999999999</ele>
        <time>2025-04-30T08:28:58Z</time>
      </trkpt>
      <trkpt lat="43.608369966968894" lon="-7.565840994939208">
        <ele>205.86000000000001</ele>
        <time>2025-04-30T08:29:00Z</time>
      </trkpt>
      <trkpt lat="43.608344988897443" lon="-7.566052973270416">
        <ele>204.90000000000001</ele>
        <time>2025-04-30T08:29:01Z</time>
      </trkpt>
      <trkpt lat="43.608384970575571" lon="-7.566453963518143">
        <ele>202.49000000000001</ele>
        <time>2025-04-30T08:29:03Z</time>
      </trkpt>
      <trkpt lat="43.608406009152532" lon="-7.566657979041338">
        <ele>201.05000000000001</ele>
        <time>2025-04-30T08:29:04Z</time>
      </trkpt>
      <trkpt lat="43.60846702940762" lon="-7.567273965105414">
        <ele>197.21000000000001</ele>
        <time>2025-04-30T08:29:07Z</time>
      </trkpt>
      <trkpt lat="43.608438028022647" lon="-7.567474963143468">
        <ele>195.77000000000001</ele>
        <time>2025-04-30T08:29:08Z</time>
      </trkpt>
      <trkpt lat="43.608398968353868" lon="-7.567675961181521">
        <ele>194.31999999999999</ele>
        <time>2025-04-30T08:29:09Z</time>
      </trkpt>
      <trkpt lat="43.60835999250412" lon="-7.567877965047956">
        <ele>192.88</ele>
        <time>2025-04-30T08:29:10Z</time>
      </trkpt>
      <trkpt lat="43.608298972249031" lon="-7.568059014156461">
        <ele>190.96000000000001</ele>
        <time>2025-04-30T08:29:11Z</time>
      </trkpt>
      <trkpt lat="43.608212973922491" lon="-7.568238973617554">
        <ele>189.52000000000001</ele>
        <time>2025-04-30T08:29:12Z</time>
      </trkpt>
      <trkpt lat="43.608029996976256" lon="-7.56855295971036">
        <ele>185.66999999999999</ele>
        <time>2025-04-30T08:29:14Z</time>
      </trkpt>
      <trkpt lat="43.607919020578265" lon="-7.568644993007183">
        <ele>184.22999999999999</ele>
        <time>2025-04-30T08:29:15Z</time>
      </trkpt>
      <trkpt lat="43.60782103613019" lon="-7.56872202269733">
        <ele>182.31</ele>
        <time>2025-04-30T08:29:16Z</time>
      </trkpt>
      <trkpt lat="43.607701007276773" lon="-7.568734008818865">
        <ele>180.87</ele>
        <time>2025-04-30T08:29:17Z</time>
      </trkpt>
      <trkpt lat="43.607585001736879" lon="-7.568729985505343">
        <ele>179.41999999999999</ele>
        <time>2025-04-30T08:29:18Z</time>
      </trkpt>
      <trkpt lat="43.607466984540224" lon="-7.568670976907015">
        <ele>177.97999999999999</ele>
        <time>2025-04-30T08:29:19Z</time>
      </trkpt>
      <trkpt lat="43.607345027849078" lon="-7.568610040470958">
        <ele>176.06</ele>
        <time>2025-04-30T08:29:20Z</time>
      </trkpt>
      <trkpt lat="43.607222987338901" lon="-7.568549020215869">
        <ele>174.62</ele>
        <time>2025-04-30T08:29:21Z</time>
      </trkpt>
      <trkpt lat="43.607088038697839" lon="-7.568491017445922">
        <ele>173.16999999999999</ele>
        <time>2025-04-30T08:29:22Z</time>
      </trkpt>
      <trkpt lat="43.606987036764622" lon="-7.56855295971036">
        <ele>172.21000000000001</ele>
        <time>2025-04-30T08:29:23Z</time>
      </trkpt>
      <trkpt lat="43.606876982375979" lon="-7.568621020764113">
        <ele>170.77000000000001</ele>
        <time>2025-04-30T08:29:24Z</time>
      </trkpt>
      <trkpt lat="43.606817973777652" lon="-7.568656979128718">
        <ele>169.81</ele>
        <time>2025-04-30T08:29:25Z</time>
      </trkpt>
      <trkpt lat="43.606714038178325" lon="-7.568843979388475">
        <ele>168.37</ele>
        <time>2025-04-30T08:29:26Z</time>
      </trkpt>
      <trkpt lat="43.606682019308209" lon="-7.568977000191808">
        <ele>167.41</ele>
        <time>2025-04-30T08:29:27Z</time>
      </trkpt>
      <trkpt lat="43.606646982952952" lon="-7.569129969924688">
        <ele>166.44999999999999</ele>
        <time>2025-04-30T08:29:28Z</time>
      </trkpt>
      <trkpt lat="43.606652012094855" lon="-7.56930397823453">
        <ele>165.47999999999999</ele>
        <time>2025-04-30T08:29:29Z</time>
      </trkpt>
      <trkpt lat="43.606657963246107" lon="-7.569486033171415">
        <ele>164.52000000000001</ele>
        <time>2025-04-30T08:29:30Z</time>
      </trkpt>
      <trkpt lat="43.606665004044771" lon="-7.569671021774411">
        <ele>163.08000000000001</ele>
        <time>2025-04-30T08:29:31Z</time>
      </trkpt>
      <trkpt lat="43.606653017923236" lon="-7.569877970963717">
        <ele>162.12</ele>
        <time>2025-04-30T08:29:32Z</time>
      </trkpt>
      <trkpt lat="43.60661999322474" lon="-7.570086009800434">
        <ele>161.16</ele>
        <time>2025-04-30T08:29:33Z</time>
      </trkpt>
      <trkpt lat="43.606548998504877" lon="-7.570251971483231">
        <ele>160.19999999999999</ele>
        <time>2025-04-30T08:29:34Z</time>
      </trkpt>
      <trkpt lat="43.606475992128253" lon="-7.570422040298581">
        <ele>159.72</ele>
        <time>2025-04-30T08:29:35Z</time>
      </trkpt>
      <trkpt lat="43.606240041553974" lon="-7.570909028872848">
        <ele>157.31</ele>
        <time>2025-04-30T08:29:38Z</time>
      </trkpt>
      <trkpt lat="43.606140967458487" lon="-7.571041965857148">
        <ele>156.34999999999999</ele>
        <time>2025-04-30T08:29:39Z</time>
      </trkpt>
      <trkpt lat="43.606042983010411" lon="-7.571170041337609">
        <ele>155.38999999999999</ele>
        <time>2025-04-30T08:29:40Z</time>
      </trkpt>
      <trkpt lat="43.605704018846154" lon="-7.571445973590016">
        <ele>152.03</ele>
        <time>2025-04-30T08:29:43Z</time>
      </trkpt>
      <trkpt lat="43.605568986386061" lon="-7.571481009945273">
        <ele>151.06</ele>
        <time>2025-04-30T08:29:44Z</time>
      </trkpt>
      <trkpt lat="43.605440994724631" lon="-7.57151504047215">
        <ele>150.09999999999999</ele>
        <time>2025-04-30T08:29:45Z</time>
      </trkpt>
      <trkpt lat="43.605320965871215" lon="-7.571545969694853">
        <ele>149.13999999999999</ele>
        <time>2025-04-30T08:29:46Z</time>
      </trkpt>
      <trkpt lat="43.605203032493591" lon="-7.571575976908207">
        <ele>147.22</ele>
        <time>2025-04-30T08:29:47Z</time>
      </trkpt>
      <trkpt lat="43.605088032782078" lon="-7.571626016870141">
        <ele>145.78</ele>
        <time>2025-04-30T08:29:48Z</time>
      </trkpt>
      <trkpt lat="43.604987030848861" lon="-7.571731964126229">
        <ele>143.37</ele>
        <time>2025-04-30T08:29:49Z</time>
      </trkpt>
      <trkpt lat="43.604950988665223" lon="-7.571876971051097">
        <ele>141.93000000000001</ele>
        <time>2025-04-30T08:29:50Z</time>
      </trkpt>
      <trkpt lat="43.604907989501953" lon="-7.572047961875796">
        <ele>140.49000000000001</ele>
        <time>2025-04-30T08:29:51Z</time>
      </trkpt>
      <trkpt lat="43.604925004765391" lon="-7.572222976014018">
        <ele>139.53</ele>
        <time>2025-04-30T08:29:52Z</time>
      </trkpt>
      <trkpt lat="43.604950988665223" lon="-7.572497986257076">
        <ele>139.05000000000001</ele>
        <time>2025-04-30T08:29:53Z</time>
      </trkpt>
      <trkpt lat="43.605009997263551" lon="-7.572616003453732">
        <ele>138.56999999999999</ele>
        <time>2025-04-30T08:29:54Z</time>
      </trkpt>
      <trkpt lat="43.605081997811794" lon="-7.572758998721838">
        <ele>138.56999999999999</ele>
        <time>2025-04-30T08:29:55Z</time>
      </trkpt>
      <trkpt lat="43.605204960331321" lon="-7.572857988998294">
        <ele>138.09</ele>
        <time>2025-04-30T08:29:56Z</time>
      </trkpt>
      <trkpt lat="43.605332029983401" lon="-7.572872992604971">
        <ele>137.61000000000001</ele>
        <time>2025-04-30T08:29:57Z</time>
      </trkpt>
      <trkpt lat="43.60545901581645" lon="-7.572853965684772">
        <ele>137.61000000000001</ele>
        <time>2025-04-30T08:29:58Z</time>
      </trkpt>
      <trkpt lat="43.605592958629131" lon="-7.572835022583604">
        <ele>137.13</ele>
        <time>2025-04-30T08:29:59Z</time>
      </trkpt>
      <trkpt lat="43.605726985260844" lon="-7.572814989835024">
        <ele>136.63999999999999</ele>
        <time>2025-04-30T08:30:00Z</time>
      </trkpt>
      <trkpt lat="43.605981040745974" lon="-7.572777019813657">
        <ele>136.16</ele>
        <time>2025-04-30T08:30:02Z</time>
      </trkpt>
      <trkpt lat="43.606144990772009" lon="-7.572825970128179">
        <ele>136.16</ele>
        <time>2025-04-30T08:30:03Z</time>
      </trkpt>
      <trkpt lat="43.606256972998381" lon="-7.572895959019661">
        <ele>135.68000000000001</ele>
        <time>2025-04-30T08:30:04Z</time>
      </trkpt>
      <trkpt lat="43.606368033215404" lon="-7.572995033115149">
        <ele>135.68000000000001</ele>
        <time>2025-04-30T08:30:05Z</time>
      </trkpt>
      <trkpt lat="43.606455037370324" lon="-7.573125036433339">
        <ele>135.68000000000001</ele>
        <time>2025-04-30T08:30:06Z</time>
      </trkpt>
      <trkpt lat="43.606546986848116" lon="-7.573280017822981">
        <ele>136.16</ele>
        <time>2025-04-30T08:30:07Z</time>
      </trkpt>
      <trkpt lat="43.606632985174656" lon="-7.573426030576229">
        <ele>135.68000000000001</ele>
        <time>2025-04-30T08:30:08Z</time>
      </trkpt>
      <trkpt lat="43.606720995157957" lon="-7.573573971167207">
        <ele>135.19999999999999</ele>
        <time>2025-04-30T08:30:09Z</time>
      </trkpt>
      <trkpt lat="43.606837000697851" lon="-7.573675978928804">
        <ele>134.72</ele>
        <time>2025-04-30T08:30:10Z</time>
      </trkpt>
      <trkpt lat="43.606957029551268" lon="-7.573773041367531">
        <ele>134.24000000000001</ele>
        <time>2025-04-30T08:30:11Z</time>
      </trkpt>
      <trkpt lat="43.607088960707188" lon="-7.573877982795239">
        <ele>133.28</ele>
        <time>2025-04-30T08:30:12Z</time>
      </trkpt>
      <trkpt lat="43.607748029753566" lon="-7.574366983026266">
        <ele>128.94999999999999</ele>
        <time>2025-04-30T08:30:17Z</time>
      </trkpt>
      <trkpt lat="43.60788700170815" lon="-7.574423979967833">
        <ele>127.98999999999999</ele>
        <time>2025-04-30T08:30:18Z</time>
      </trkpt>
      <trkpt lat="43.608027985319495" lon="-7.574450969696045">
        <ele>127.03</ele>
        <time>2025-04-30T08:30:19Z</time>
      </trkpt>
      <trkpt lat="43.608320010825992" lon="-7.574506960809231">
        <ele>125.11</ele>
        <time>2025-04-30T08:30:21Z</time>
      </trkpt>
      <trkpt lat="43.608454959467053" lon="-7.574564963579178">
        <ele>123.67</ele>
        <time>2025-04-30T08:30:22Z</time>
      </trkpt>
      <trkpt lat="43.608587980270386" lon="-7.574637969955802">
        <ele>122.22</ele>
        <time>2025-04-30T08:30:23Z</time>
      </trkpt>
      <trkpt lat="43.608702979981899" lon="-7.574741989374161">
        <ele>121.26000000000001</ele>
        <time>2025-04-30T08:30:24Z</time>
      </trkpt>
      <trkpt lat="43.608820997178555" lon="-7.574852965772152">
        <ele>119.81999999999999</ele>
        <time>2025-04-30T08:30:25Z</time>
      </trkpt>
      <trkpt lat="43.608943037688732" lon="-7.574966959655285">
        <ele>118.86</ele>
        <time>2025-04-30T08:30:26Z</time>
      </trkpt>
      <trkpt lat="43.609041022136807" lon="-7.575110038742423">
        <ele>117.42</ele>
        <time>2025-04-30T08:30:27Z</time>
      </trkpt>
      <trkpt lat="43.609139006584883" lon="-7.575264014303684">
        <ele>115.98</ele>
        <time>2025-04-30T08:30:28Z</time>
      </trkpt>
      <trkpt lat="43.609304968267679" lon="-7.575561990961433">
        <ele>113.09</ele>
        <time>2025-04-30T08:30:30Z</time>
      </trkpt>
      <trkpt lat="43.60934603959322" lon="-7.575718984007835">
        <ele>112.13</ele>
        <time>2025-04-30T08:30:31Z</time>
      </trkpt>
      <trkpt lat="43.609371017664671" lon="-7.575885029509664">
        <ele>110.69</ele>
        <time>2025-04-30T08:30:32Z</time>
      </trkpt>
      <trkpt lat="43.609334975481033" lon="-7.57605099119246">
        <ele>109.73</ele>
        <time>2025-04-30T08:30:33Z</time>
      </trkpt>
      <trkpt lat="43.609295999631286" lon="-7.576217958703637">
        <ele>108.29000000000001</ele>
        <time>2025-04-30T08:30:34Z</time>
      </trkpt>
      <trkpt lat="43.609258029609919" lon="-7.576386015862227">
        <ele>107.31999999999999</ele>
        <time>2025-04-30T08:30:35Z</time>
      </trkpt>
      <trkpt lat="43.609200026839972" lon="-7.576908962801099">
        <ele>103.48</ele>
        <time>2025-04-30T08:30:38Z</time>
      </trkpt>
      <trkpt lat="43.609200026839972" lon="-7.577005019411445">
        <ele>102.04000000000001</ele>
        <time>2025-04-30T08:30:39Z</time>
      </trkpt>
      <trkpt lat="43.609264986589551" lon="-7.577215991914272">
        <ele>101.08</ele>
        <time>2025-04-30T08:30:40Z</time>
      </trkpt>
      <trkpt lat="43.609320977702737" lon="-7.57736099883914">
        <ele>99.629999999999995</ele>
        <time>2025-04-30T08:30:41Z</time>
      </trkpt>
      <trkpt lat="43.609393984079361" lon="-7.577517991885543">
        <ele>98.670000000000002</ele>
        <time>2025-04-30T08:30:42Z</time>
      </trkpt>
      <trkpt lat="43.609469002112746" lon="-7.577683031558991">
        <ele>97.709999999999994</ele>
        <time>2025-04-30T08:30:43Z</time>
      </trkpt>
      <trkpt lat="43.609546031802893" lon="-7.577851004898548">
        <ele>96.75</ele>
        <time>2025-04-30T08:30:44Z</time>
      </trkpt>
      <trkpt lat="43.609820958226919" lon="-7.57856598123908">
        <ele>91.939999999999998</ele>
        <time>2025-04-30T08:30:48Z</time>
      </trkpt>
      <trkpt lat="43.609999995678663" lon="-7.579281041398644">
        <ele>87.140000000000001</ele>
        <time>2025-04-30T08:30:52Z</time>
      </trkpt>
      <trkpt lat="43.61003695987165" lon="-7.579428981989622">
        <ele>86.180000000000007</ele>
        <time>2025-04-30T08:30:53Z</time>
      </trkpt>
      <trkpt lat="43.610178027302027" lon="-7.579654036089778">
        <ele>84.730000000000004</ele>
        <time>2025-04-30T08:30:55Z</time>
      </trkpt>
      <trkpt lat="43.610251033678651" lon="-7.579772975295782">
        <ele>84.25</ele>
        <time>2025-04-30T08:30:56Z</time>
      </trkpt>
      <trkpt lat="43.610579017549753" lon="-7.580233979970217">
        <ele>81.370000000000005</ele>
        <time>2025-04-30T08:31:00Z</time>
      </trkpt>
      <trkpt lat="43.610648000612855" lon="-7.580373035743833">
        <ele>80.409999999999997</ele>
        <time>2025-04-30T08:31:01Z</time>
      </trkpt>
      <trkpt lat="43.610700974240899" lon="-7.580527011305094">
        <ele>79.930000000000007</ele>
        <time>2025-04-30T08:31:02Z</time>
      </trkpt>
      <trkpt lat="43.610741039738059" lon="-7.580695990473032">
        <ele>79.930000000000007</ele>
        <time>2025-04-30T08:31:03Z</time>
      </trkpt>
      <trkpt lat="43.610781021416187" lon="-7.580869998782873">
        <ele>79.450000000000003</ele>
        <time>2025-04-30T08:31:04Z</time>
      </trkpt>
      <trkpt lat="43.610821003094316" lon="-7.581038977950811">
        <ele>78.969999999999999</ele>
        <time>2025-04-30T08:31:05Z</time>
      </trkpt>
      <trkpt lat="43.61083097755909" lon="-7.581213992089033">
        <ele>78.480000000000004</ele>
        <time>2025-04-30T08:31:06Z</time>
      </trkpt>
      <trkpt lat="43.61083097755909" lon="-7.581389006227255">
        <ele>78</ele>
        <time>2025-04-30T08:31:07Z</time>
      </trkpt>
      <trkpt lat="43.610818991437554" lon="-7.581559997051954">
        <ele>77.519999999999996</ele>
        <time>2025-04-30T08:31:08Z</time>
      </trkpt>
      <trkpt lat="43.610790995880961" lon="-7.581720007583499">
        <ele>76.560000000000002</ele>
        <time>2025-04-30T08:31:09Z</time>
      </trkpt>
      <trkpt lat="43.610764006152749" lon="-7.581875994801521">
        <ele>76.079999999999998</ele>
        <time>2025-04-30T08:31:10Z</time>
      </trkpt>
      <trkpt lat="43.61059301532805" lon="-7.582673029974103">
        <ele>70.310000000000002</ele>
        <time>2025-04-30T08:31:16Z</time>
      </trkpt>
      <trkpt lat="43.610542975366116" lon="-7.582772020250559">
        <ele>69.349999999999994</ele>
        <time>2025-04-30T08:31:17Z</time>
      </trkpt>
      <trkpt lat="43.610477009788156" lon="-7.582832034677267">
        <ele>68.390000000000001</ele>
        <time>2025-04-30T08:31:18Z</time>
      </trkpt>
      <trkpt lat="43.610393023118377" lon="-7.582884002476931">
        <ele>67.430000000000007</ele>
        <time>2025-04-30T08:31:19Z</time>
      </trkpt>
      <trkpt lat="43.610300989821553" lon="-7.582940999418497">
        <ele>66.469999999999999</ele>
        <time>2025-04-30T08:31:20Z</time>
      </trkpt>
      <trkpt lat="43.610209040343761" lon="-7.582999002188444">
        <ele>65.510000000000005</ele>
        <time>2025-04-30T08:31:21Z</time>
      </trkpt>
      <trkpt lat="43.609814001247287" lon="-7.583262026309967">
        <ele>62.619999999999997</ele>
        <time>2025-04-30T08:31:25Z</time>
      </trkpt>
      <trkpt lat="43.609707970172167" lon="-7.583336960524321">
        <ele>62.140000000000001</ele>
        <time>2025-04-30T08:31:26Z</time>
      </trkpt>
      <trkpt lat="43.609631024301052" lon="-7.583464030176401">
        <ele>61.18</ele>
        <time>2025-04-30T08:31:27Z</time>
      </trkpt>
      <trkpt lat="43.60960403457284" lon="-7.583581041544676">
        <ele>60.700000000000003</ele>
        <time>2025-04-30T08:31:28Z</time>
      </trkpt>
      <trkpt lat="43.609601017087698" lon="-7.583721019327641">
        <ele>59.740000000000002</ele>
        <time>2025-04-30T08:31:29Z</time>
      </trkpt>
      <trkpt lat="43.609631024301052" lon="-7.58384901098907">
        <ele>58.780000000000001</ele>
        <time>2025-04-30T08:31:30Z</time>
      </trkpt>
      <trkpt lat="43.60969003289938" lon="-7.584006004035473">
        <ele>58.299999999999997</ele>
        <time>2025-04-30T08:31:31Z</time>
      </trkpt>
      <trkpt lat="43.609766978770494" lon="-7.584146987646818">
        <ele>57.340000000000003</ele>
        <time>2025-04-30T08:31:32Z</time>
      </trkpt>
      <trkpt lat="43.610116001218557" lon="-7.584792980924249">
        <ele>53.490000000000002</ele>
        <time>2025-04-30T08:31:36Z</time>
      </trkpt>
      <trkpt lat="43.610247010365129" lon="-7.585172010585666">
        <ele>50.609999999999999</ele>
        <time>2025-04-30T08:31:38Z</time>
      </trkpt>
      <trkpt lat="43.610309036448598" lon="-7.585351970046759">
        <ele>49.159999999999997</ele>
        <time>2025-04-30T08:31:39Z</time>
      </trkpt>
      <trkpt lat="43.610491007566452" lon="-7.585879024118185">
        <ele>43.880000000000003</ele>
        <time>2025-04-30T08:31:42Z</time>
      </trkpt>
      <trkpt lat="43.610565019771457" lon="-7.586032999679446">
        <ele>42.439999999999998</ele>
        <time>2025-04-30T08:31:43Z</time>
      </trkpt>
      <trkpt lat="43.6107889842242" lon="-7.586436001583934">
        <ele>38.590000000000003</ele>
        <time>2025-04-30T08:31:46Z</time>
      </trkpt>
      <trkpt lat="43.611008003354073" lon="-7.586812013760209">
        <ele>36.189999999999998</ele>
        <time>2025-04-30T08:31:49Z</time>
      </trkpt>
      <trkpt lat="43.611065000295639" lon="-7.586946962401271">
        <ele>35.710000000000001</ele>
        <time>2025-04-30T08:31:50Z</time>
      </trkpt>
      <trkpt lat="43.61111001111567" lon="-7.587110996246338">
        <ele>34.740000000000002</ele>
        <time>2025-04-30T08:31:51Z</time>
      </trkpt>
      <trkpt lat="43.611116968095303" lon="-7.587246028706431">
        <ele>33.780000000000001</ele>
        <time>2025-04-30T08:31:52Z</time>
      </trkpt>
      <trkpt lat="43.611126020550728" lon="-7.587400004267693">
        <ele>33.299999999999997</ele>
        <time>2025-04-30T08:31:53Z</time>
      </trkpt>
      <trkpt lat="43.611130965873599" lon="-7.58756403811276">
        <ele>32.340000000000003</ele>
        <time>2025-04-30T08:31:54Z</time>
      </trkpt>
      <trkpt lat="43.611130965873599" lon="-7.587733017280698">
        <ele>31.379999999999999</ele>
        <time>2025-04-30T08:31:55Z</time>
      </trkpt>
      <trkpt lat="43.611148986965418" lon="-7.587905013933778">
        <ele>30.899999999999999</ele>
        <time>2025-04-30T08:31:56Z</time>
      </trkpt>
      <trkpt lat="43.611199026927352" lon="-7.588077010586858">
        <ele>29.940000000000001</ele>
        <time>2025-04-30T08:31:57Z</time>
      </trkpt>
      <trkpt lat="43.611273961141706" lon="-7.588226962834597">
        <ele>28.98</ele>
        <time>2025-04-30T08:31:58Z</time>
      </trkpt>
      <trkpt lat="43.611362976953387" lon="-7.588358977809548">
        <ele>28.5</ele>
        <time>2025-04-30T08:31:59Z</time>
      </trkpt>
      <trkpt lat="43.611450986936688" lon="-7.588491998612881">
        <ele>28.02</ele>
        <time>2025-04-30T08:32:00Z</time>
      </trkpt>
      <trkpt lat="43.611590964719653" lon="-7.588566010817885">
        <ele>27.050000000000001</ele>
        <time>2025-04-30T08:32:01Z</time>
      </trkpt>
      <trkpt lat="43.611721973866224" lon="-7.588610015809536">
        <ele>26.57</ele>
        <time>2025-04-30T08:32:02Z</time>
      </trkpt>
      <trkpt lat="43.612970961257815" lon="-7.588976975530386">
        <ele>17.920000000000002</ele>
        <time>2025-04-30T08:32:13Z</time>
      </trkpt>
      <trkpt lat="43.614724958315492" lon="-7.589440997689962">
        <ele>12.630000000000001</ele>
        <time>2025-04-30T08:32:28Z</time>
      </trkpt>
      <trkpt lat="43.616183996200562" lon="-7.589847017079592">
        <ele>16</ele>
        <time>2025-04-30T08:32:40Z</time>
      </trkpt>
      <trkpt lat="43.616678025573492" lon="-7.589976014569402">
        <ele>18.399999999999999</ele>
        <time>2025-04-30T08:32:45Z</time>
      </trkpt>
      <trkpt lat="43.617380009964108" lon="-7.590168965980411">
        <ele>20.32</ele>
        <time>2025-04-30T08:32:52Z</time>
      </trkpt>
      <trkpt lat="43.617486963048577" lon="-7.590196039527655">
        <ele>19.84</ele>
        <time>2025-04-30T08:32:53Z</time>
      </trkpt>
      <trkpt lat="43.61864903010428" lon="-7.590487981215119">
        <ele>18.879999999999999</ele>
        <time>2025-04-30T08:33:04Z</time>
      </trkpt>
      <trkpt lat="43.619889970868826" lon="-7.590806996449828">
        <ele>23.210000000000001</ele>
        <time>2025-04-30T08:33:16Z</time>
      </trkpt>
      <trkpt lat="43.62090703099966" lon="-7.59106800891459">
        <ele>23.690000000000001</ele>
        <time>2025-04-30T08:33:25Z</time>
      </trkpt>
      <trkpt lat="43.622308988124132" lon="-7.591422982513905">
        <ele>19.84</ele>
        <time>2025-04-30T08:33:34Z</time>
      </trkpt>
      <trkpt lat="43.623799039050937" lon="-7.591795977205038">
        <ele>17.920000000000002</ele>
        <time>2025-04-30T08:33:43Z</time>
      </trkpt>
      <trkpt lat="43.625688990578055" lon="-7.592259999364615">
        <ele>17.920000000000002</ele>
        <time>2025-04-30T08:33:55Z</time>
      </trkpt>
      <trkpt lat="43.627185998484492" lon="-7.592676999047399">
        <ele>18.879999999999999</ele>
        <time>2025-04-30T08:34:05Z</time>
      </trkpt>
      <trkpt lat="43.627305021509528" lon="-7.5927650090307">
        <ele>18.879999999999999</ele>
        <time>2025-04-30T08:34:06Z</time>
      </trkpt>
      <trkpt lat="43.627433013170958" lon="-7.592884032055736">
        <ele>18.879999999999999</ele>
        <time>2025-04-30T08:34:07Z</time>
      </trkpt>
      <trkpt lat="43.628369020298123" lon="-7.594125978648663">
        <ele>16.960000000000001</ele>
        <time>2025-04-30T08:34:15Z</time>
      </trkpt>
      <trkpt lat="43.629234032705426" lon="-7.595277987420559">
        <ele>17.440000000000001</ele>
        <time>2025-04-30T08:34:25Z</time>
      </trkpt>
      <trkpt lat="43.629960995167494" lon="-7.596238972619176">
        <ele>16.48</ele>
        <time>2025-04-30T08:34:33Z</time>
      </trkpt>
      <trkpt lat="43.631306039169431" lon="-7.597587034106255">
        <ele>14.56</ele>
        <time>2025-04-30T08:34:46Z</time>
      </trkpt>
      <trkpt lat="43.631577026098967" lon="-7.597934966906905">
        <ele>14.08</ele>
        <time>2025-04-30T08:34:49Z</time>
      </trkpt>
      <trkpt lat="43.631651038303971" lon="-7.59807201102376">
        <ele>14.08</ele>
        <time>2025-04-30T08:34:50Z</time>
      </trkpt>
      <trkpt lat="43.631722033023834" lon="-7.59822104126215">
        <ele>14.08</ele>
        <time>2025-04-30T08:34:51Z</time>
      </trkpt>
      <trkpt lat="43.631793027743697" lon="-7.598370993509889">
        <ele>14.08</ele>
        <time>2025-04-30T08:34:52Z</time>
      </trkpt>
      <trkpt lat="43.631844995543361" lon="-7.598526980727911">
        <ele>14.08</ele>
        <time>2025-04-30T08:34:53Z</time>
      </trkpt>
      <trkpt lat="43.631889000535011" lon="-7.598690008744597">
        <ele>13.6</ele>
        <time>2025-04-30T08:34:54Z</time>
      </trkpt>
      <trkpt lat="43.632166022434831" lon="-7.599559966474772">
        <ele>12.630000000000001</ele>
        <time>2025-04-30T08:35:01Z</time>
      </trkpt>
      <trkpt lat="43.632275993004441" lon="-7.599807986989617">
        <ele>12.15</ele>
        <time>2025-04-30T08:35:04Z</time>
      </trkpt>
      <trkpt lat="43.632362997159362" lon="-7.599969003349543">
        <ele>11.67</ele>
        <time>2025-04-30T08:35:06Z</time>
      </trkpt>
      <trkpt lat="43.632653011009097" lon="-7.60050100274384">
        <ele>11.19</ele>
        <time>2025-04-30T08:35:12Z</time>
      </trkpt>
      <trkpt lat="43.632710007950664" lon="-7.600580966100097">
        <ele>11.67</ele>
        <time>2025-04-30T08:35:13Z</time>
      </trkpt>
      <trkpt lat="43.632985018193722" lon="-7.600970976054668">
        <ele>14.56</ele>
        <time>2025-04-30T08:35:18Z</time>
      </trkpt>
      <trkpt lat="43.633006978780031" lon="-7.601004000753164">
        <ele>15.039999999999999</ele>
        <time>2025-04-30T08:35:19Z</time>
      </trkpt>
      <trkpt lat="43.633013013750315" lon="-7.601011041551828">
        <ele>15.52</ele>
        <time>2025-04-30T08:35:29Z</time>
      </trkpt>
      <trkpt lat="43.633029023185372" lon="-7.601035013794899">
        <ele>16.960000000000001</ele>
        <time>2025-04-30T08:35:30Z</time>
      </trkpt>
      <trkpt lat="43.633055007085204" lon="-7.60108295828104">
        <ele>17.440000000000001</ele>
        <time>2025-04-30T08:35:31Z</time>
      </trkpt>
      <trkpt lat="43.632997004315257" lon="-7.601111959666014">
        <ele>17.440000000000001</ele>
        <time>2025-04-30T08:35:32Z</time>
      </trkpt>
      <trkpt lat="43.632921986281872" lon="-7.601149007678032">
        <ele>17.920000000000002</ele>
        <time>2025-04-30T08:35:33Z</time>
      </trkpt>
      <trkpt lat="43.632844034582376" lon="-7.601198041811585">
        <ele>17.920000000000002</ele>
        <time>2025-04-30T08:35:34Z</time>
      </trkpt>
      <trkpt lat="43.632217990234494" lon="-7.60159601457417">
        <ele>17.440000000000001</ele>
        <time>2025-04-30T08:35:40Z</time>
      </trkpt>
      <trkpt lat="43.631497984752059" lon="-7.601921986788511">
        <ele>15.52</ele>
        <time>2025-04-30T08:35:46Z</time>
      </trkpt>
      <trkpt lat="43.631427995860577" lon="-7.601942019537091">
        <ele>14.56</ele>
        <time>2025-04-30T08:35:47Z</time>
      </trkpt>
      <trkpt lat="43.631367981433868" lon="-7.602081997320056">
        <ele>14.08</ele>
        <time>2025-04-30T08:35:48Z</time>
      </trkpt>
      <trkpt lat="43.63137099891901" lon="-7.60219800285995">
        <ele>13.6</ele>
        <time>2025-04-30T08:35:49Z</time>
      </trkpt>
      <trkpt lat="43.631374016404152" lon="-7.602332029491663">
        <ele>12.630000000000001</ele>
        <time>2025-04-30T08:35:50Z</time>
      </trkpt>
      <trkpt lat="43.631406035274267" lon="-7.603840017691255">
        <ele>8.789999999999999</ele>
        <time>2025-04-30T08:35:59Z</time>
      </trkpt>
      <trkpt lat="43.631389020010829" lon="-7.604030035436153">
        <ele>8.789999999999999</ele>
        <time>2025-04-30T08:36:00Z</time>
      </trkpt>
      <trkpt lat="43.631340991705656" lon="-7.604209994897246">
        <ele>8.310000000000001</ele>
        <time>2025-04-30T08:36:01Z</time>
      </trkpt>
      <trkpt lat="43.631162038072944" lon="-7.604749035090208">
        <ele>7.35</ele>
        <time>2025-04-30T08:36:04Z</time>
      </trkpt>
      <trkpt lat="43.63104603253305" lon="-7.605091016739607">
        <ele>6.87</ele>
        <time>2025-04-30T08:36:06Z</time>
      </trkpt>
      <trkpt lat="43.630991969257593" lon="-7.605251027271152">
        <ele>6.39</ele>
        <time>2025-04-30T08:36:07Z</time>
      </trkpt>
      <trkpt lat="43.630958022549748" lon="-7.605402991175652">
        <ele>5.91</ele>
        <time>2025-04-30T08:36:08Z</time>
      </trkpt>
      <trkpt lat="43.630958022549748" lon="-7.605556966736913">
        <ele>5.42</ele>
        <time>2025-04-30T08:36:09Z</time>
      </trkpt>
      <trkpt lat="43.630958022549748" lon="-7.605699962005019">
        <ele>5.42</ele>
        <time>2025-04-30T08:36:10Z</time>
      </trkpt>
      <trkpt lat="43.631016025319695" lon="-7.605815967544913">
        <ele>4.94</ele>
        <time>2025-04-30T08:36:11Z</time>
      </trkpt>
      <trkpt lat="43.631090959534049" lon="-7.605918981134892">
        <ele>5.42</ele>
        <time>2025-04-30T08:36:12Z</time>
      </trkpt>
      <trkpt lat="43.63117896951735" lon="-7.606001039966941">
        <ele>5.42</ele>
        <time>2025-04-30T08:36:13Z</time>
      </trkpt>
      <trkpt lat="43.63128399476409" lon="-7.606060970574617">
        <ele>5.42</ele>
        <time>2025-04-30T08:36:14Z</time>
      </trkpt>
      <trkpt lat="43.631389020010829" lon="-7.606122996658087">
        <ele>5.91</ele>
        <time>2025-04-30T08:36:15Z</time>
      </trkpt>
      <trkpt lat="43.631741981953382" lon="-7.606375040486455">
        <ele>6.87</ele>
        <time>2025-04-30T08:36:19Z</time>
      </trkpt>
      <trkpt lat="43.631795039400458" lon="-7.606464978307486">
        <ele>7.35</ele>
        <time>2025-04-30T08:36:20Z</time>
      </trkpt>
      <trkpt lat="43.631832003593445" lon="-7.606577966362238">
        <ele>8.310000000000001</ele>
        <time>2025-04-30T08:36:21Z</time>
      </trkpt>
      <trkpt lat="43.631924036890268" lon="-7.606851970776916">
        <ele>9.75</ele>
        <time>2025-04-30T08:36:23Z</time>
      </trkpt>
      <trkpt lat="43.63199301995337" lon="-7.606932017952204">
        <ele>10.23</ele>
        <time>2025-04-30T08:36:24Z</time>
      </trkpt>
      <trkpt lat="43.632082035765052" lon="-7.607035031542182">
        <ele>10.23</ele>
        <time>2025-04-30T08:36:25Z</time>
      </trkpt>
      <trkpt lat="43.632173985242844" lon="-7.60713997296989">
        <ele>10.23</ele>
        <time>2025-04-30T08:36:26Z</time>
      </trkpt>
      <trkpt lat="43.632265012711287" lon="-7.607239969074726">
        <ele>10.23</ele>
        <time>2025-04-30T08:36:27Z</time>
      </trkpt>
      <trkpt lat="43.632439021021128" lon="-7.607425963506103">
        <ele>10.23</ele>
        <time>2025-04-30T08:36:29Z</time>
      </trkpt>
      <trkpt lat="43.632516972720623" lon="-7.607509028166533">
        <ele>10.710000000000001</ele>
        <time>2025-04-30T08:36:30Z</time>
      </trkpt>
      <trkpt lat="43.632525019347668" lon="-7.60767599567771">
        <ele>10.710000000000001</ele>
        <time>2025-04-30T08:36:31Z</time>
      </trkpt>
      <trkpt lat="43.632525019347668" lon="-7.607824020087719">
        <ele>10.710000000000001</ele>
        <time>2025-04-30T08:36:32Z</time>
      </trkpt>
      <trkpt lat="43.632525019347668" lon="-7.607988975942135">
        <ele>11.19</ele>
        <time>2025-04-30T08:36:33Z</time>
      </trkpt>
      <trkpt lat="43.632456036284566" lon="-7.60810598731041">
        <ele>11.19</ele>
        <time>2025-04-30T08:36:34Z</time>
      </trkpt>
      <trkpt lat="43.632395016029477" lon="-7.608210006728768">
        <ele>11.19</ele>
        <time>2025-04-30T08:36:35Z</time>
      </trkpt>
      <trkpt lat="43.632343970239162" lon="-7.608297010883689">
        <ele>11.19</ele>
        <time>2025-04-30T08:36:36Z</time>
      </trkpt>
      <trkpt lat="43.632266018539667" lon="-7.608447968959808">
        <ele>10.710000000000001</ele>
        <time>2025-04-30T08:36:38Z</time>
      </trkpt>
      <trkpt lat="43.632233999669552" lon="-7.6085140183568">
        <ele>10.710000000000001</ele>
        <time>2025-04-30T08:36:39Z</time>
      </trkpt>
      <trkpt lat="43.632026966661215" lon="-7.609097985550761">
        <ele>8.310000000000001</ele>
        <time>2025-04-30T08:36:50Z</time>
      </trkpt>
      <trkpt lat="43.632011963054538" lon="-7.609153976663947">
        <ele>8.310000000000001</ele>
        <time>2025-04-30T08:36:51Z</time>
      </trkpt>
      <trkpt lat="43.631997965276241" lon="-7.609208039939404">
        <ele>8.310000000000001</ele>
        <time>2025-04-30T08:36:52Z</time>
      </trkpt>
      <trkpt lat="43.631983967497945" lon="-7.609259001910687">
        <ele>8.310000000000001</ele>
        <time>2025-04-30T08:36:53Z</time>
      </trkpt>
      <trkpt lat="43.631973993033171" lon="-7.609296971932054">
        <ele>7.83</ele>
        <time>2025-04-30T08:36:54Z</time>
      </trkpt>
      <trkpt lat="43.631968963891268" lon="-7.609315998852253">
        <ele>7.83</ele>
        <time>2025-04-30T08:36:55Z</time>
      </trkpt>
      <trkpt lat="43.631935017183423" lon="-7.609252966940403">
        <ele>7.83</ele>
        <time>2025-04-30T08:36:58Z</time>
      </trkpt>
      <trkpt lat="43.63201498053968" lon="-7.609141990542412">
        <ele>7.83</ele>
        <time>2025-04-30T08:37:02Z</time>
      </trkpt>
      <trkpt lat="43.632034007459879" lon="-7.609074013307691">
        <ele>7.83</ele>
        <time>2025-04-30T08:37:03Z</time>
      </trkpt>
      <trkpt lat="43.632056973874569" lon="-7.60898600332439">
        <ele>7.83</ele>
        <time>2025-04-30T08:37:04Z</time>
      </trkpt>
      <trkpt lat="43.632452012971044" lon="-7.608113028109074">
        <ele>9.75</ele>
        <time>2025-04-30T08:37:14Z</time>
      </trkpt>
      <trkpt lat="43.632506998255849" lon="-7.608018983155489">
        <ele>9.75</ele>
        <time>2025-04-30T08:37:16Z</time>
      </trkpt>
      <trkpt lat="43.63255200907588" lon="-7.608029963448644">
        <ele>9.75</ele>
        <time>2025-04-30T08:37:17Z</time>
      </trkpt>
      <trkpt lat="43.632570030167699" lon="-7.608057959005237">
        <ele>9.75</ele>
        <time>2025-04-30T08:37:18Z</time>
      </trkpt>
      <trkpt lat="43.632592996582389" lon="-7.608090983703733">
        <ele>9.75</ele>
        <time>2025-04-30T08:37:19Z</time>
      </trkpt>
      <trkpt lat="43.632615962997079" lon="-7.60812702588737">
        <ele>9.75</ele>
        <time>2025-04-30T08:37:20Z</time>
      </trkpt>
      <trkpt lat="43.632646976038814" lon="-7.60817295871675">
        <ele>10.23</ele>
        <time>2025-04-30T08:37:21Z</time>
      </trkpt>
      <trkpt lat="43.632677989080548" lon="-7.608219981193543">
        <ele>10.23</ele>
        <time>2025-04-30T08:37:22Z</time>
      </trkpt>
      <trkpt lat="43.632740015164018" lon="-7.608313020318747">
        <ele>9.75</ele>
        <time>2025-04-30T08:37:24Z</time>
      </trkpt>
      <trkpt lat="43.632848979905248" lon="-7.608474958688021">
        <ele>10.23</ele>
        <time>2025-04-30T08:37:27Z</time>
      </trkpt>
      <trkpt lat="43.632863983511925" lon="-7.60855601169169">
        <ele>10.710000000000001</ele>
        <time>2025-04-30T08:37:28Z</time>
      </trkpt>
      <trkpt lat="43.632900025695562" lon="-7.608747035264969">
        <ele>12.15</ele>
        <time>2025-04-30T08:37:30Z</time>
      </trkpt>
      <trkpt lat="43.632929027080536" lon="-7.608842002227902">
        <ele>13.119999999999999</ele>
        <time>2025-04-30T08:37:31Z</time>
      </trkpt>
      <trkpt lat="43.632970014587045" lon="-7.60892297141254">
        <ele>13.6</ele>
        <time>2025-04-30T08:37:32Z</time>
      </trkpt>
      <trkpt lat="43.633063975721598" lon="-7.609161017462611">
        <ele>16.48</ele>
        <time>2025-04-30T08:37:35Z</time>
      </trkpt>
      <trkpt lat="43.633069004863501" lon="-7.609250033274293">
        <ele>16.960000000000001</ele>
        <time>2025-04-30T08:37:36Z</time>
      </trkpt>
      <trkpt lat="43.633081996813416" lon="-7.60948003269732">
        <ele>18.879999999999999</ele>
        <time>2025-04-30T08:37:38Z</time>
      </trkpt>
      <trkpt lat="43.633089037612081" lon="-7.609608024358749">
        <ele>19.359999999999999</ele>
        <time>2025-04-30T08:37:39Z</time>
      </trkpt>
      <trkpt lat="43.633095994591713" lon="-7.609728975221515">
        <ele>19.84</ele>
        <time>2025-04-30T08:37:40Z</time>
      </trkpt>
      <trkpt lat="43.633104041218758" lon="-7.609878005459905">
        <ele>20.809999999999999</ele>
        <time>2025-04-30T08:37:41Z</time>
      </trkpt>
      <trkpt lat="43.633135976269841" lon="-7.609968027099967">
        <ele>21.77</ele>
        <time>2025-04-30T08:37:42Z</time>
      </trkpt>
      <trkpt lat="43.633210994303226" lon="-7.610176987946034">
        <ele>23.210000000000001</ele>
        <time>2025-04-30T08:37:44Z</time>
      </trkpt>
      <trkpt lat="43.633330017328262" lon="-7.610508995130658">
        <ele>24.649999999999999</ele>
        <time>2025-04-30T08:37:48Z</time>
      </trkpt>
      <trkpt lat="43.633387014269829" lon="-7.610762966796756">
        <ele>26.57</ele>
        <time>2025-04-30T08:37:54Z</time>
      </trkpt>
      <trkpt lat="43.633366981521249" lon="-7.610819041728973">
        <ele>27.050000000000001</ele>
        <time>2025-04-30T08:37:55Z</time>
      </trkpt>
      <trkpt lat="43.633101023733616" lon="-7.611561007797718">
        <ele>29.940000000000001</ele>
        <time>2025-04-30T08:38:04Z</time>
      </trkpt>
      <trkpt lat="43.633072022348642" lon="-7.611641976982355">
        <ele>30.420000000000002</ele>
        <time>2025-04-30T08:38:05Z</time>
      </trkpt>
      <trkpt lat="43.633043020963669" lon="-7.611723029986024">
        <ele>30.899999999999999</ele>
        <time>2025-04-30T08:38:06Z</time>
      </trkpt>
      <trkpt lat="43.632984012365341" lon="-7.61188899166882">
        <ele>31.379999999999999</ele>
        <time>2025-04-30T08:38:08Z</time>
      </trkpt>
      <trkpt lat="43.632952999323606" lon="-7.61197498999536">
        <ele>31.859999999999999</ele>
        <time>2025-04-30T08:38:09Z</time>
      </trkpt>
      <trkpt lat="43.632829030975699" lon="-7.612322000786662">
        <ele>33.299999999999997</ele>
        <time>2025-04-30T08:38:13Z</time>
      </trkpt>
      <trkpt lat="43.632800029590726" lon="-7.612401964142919">
        <ele>33.299999999999997</ele>
        <time>2025-04-30T08:38:14Z</time>
      </trkpt>
      <trkpt lat="43.632773961871862" lon="-7.612481005489826">
        <ele>33.780000000000001</ele>
        <time>2025-04-30T08:38:15Z</time>
      </trkpt>
      <trkpt lat="43.632749989628792" lon="-7.612561974674463">
        <ele>34.259999999999998</ele>
        <time>2025-04-30T08:38:16Z</time>
      </trkpt>
      <trkpt lat="43.632728029042482" lon="-7.61264001019299">
        <ele>34.740000000000002</ele>
        <time>2025-04-30T08:38:17Z</time>
      </trkpt>
      <trkpt lat="43.63266097381711" lon="-7.612872021272779">
        <ele>35.710000000000001</ele>
        <time>2025-04-30T08:38:20Z</time>
      </trkpt>
      <trkpt lat="43.632635995745659" lon="-7.612957013770938">
        <ele>35.710000000000001</ele>
        <time>2025-04-30T08:38:21Z</time>
      </trkpt>
      <trkpt lat="43.632612023502588" lon="-7.613042006269097">
        <ele>36.189999999999998</ele>
        <time>2025-04-30T08:38:22Z</time>
      </trkpt>
      <trkpt lat="43.632537005469203" lon="-7.613302012905479">
        <ele>37.149999999999999</ele>
        <time>2025-04-30T08:38:25Z</time>
      </trkpt>
      <trkpt lat="43.632511021569371" lon="-7.613389017060399">
        <ele>37.149999999999999</ele>
        <time>2025-04-30T08:38:26Z</time>
      </trkpt>
      <trkpt lat="43.632502974942327" lon="-7.613475015386939">
        <ele>37.630000000000003</ele>
        <time>2025-04-30T08:38:27Z</time>
      </trkpt>
      <trkpt lat="43.632502974942327" lon="-7.61356595903635">
        <ele>37.630000000000003</ele>
        <time>2025-04-30T08:38:28Z</time>
      </trkpt>
      <trkpt lat="43.632502974942327" lon="-7.613658998161554">
        <ele>38.109999999999999</ele>
        <time>2025-04-30T08:38:29Z</time>
      </trkpt>
      <trkpt lat="43.632535999640822" lon="-7.614367017522454">
        <ele>40.509999999999998</ele>
        <time>2025-04-30T08:38:37Z</time>
      </trkpt>
      <trkpt lat="43.6325319763273" lon="-7.614742023870349">
        <ele>40.990000000000002</ele>
        <time>2025-04-30T08:38:40Z</time>
      </trkpt>
      <trkpt lat="43.632525019347668" lon="-7.614882001653314">
        <ele>40.990000000000002</ele>
        <time>2025-04-30T08:38:41Z</time>
      </trkpt>
      <trkpt lat="43.632476991042495" lon="-7.615160029381514">
        <ele>40.990000000000002</ele>
        <time>2025-04-30T08:38:43Z</time>
      </trkpt>
      <trkpt lat="43.632330978289247" lon="-7.615950023755431">
        <ele>40.990000000000002</ele>
        <time>2025-04-30T08:38:49Z</time>
      </trkpt>
      <trkpt lat="43.632353022694588" lon="-7.616092013195157">
        <ele>40.990000000000002</ele>
        <time>2025-04-30T08:38:50Z</time>
      </trkpt>
      <trkpt lat="43.632369032129645" lon="-7.616197960451245">
        <ele>41.469999999999999</ele>
        <time>2025-04-30T08:38:51Z</time>
      </trkpt>
      <trkpt lat="43.632545974105597" lon="-7.616830039769411">
        <ele>42.439999999999998</ele>
        <time>2025-04-30T08:38:57Z</time>
      </trkpt>
      <trkpt lat="43.632612023502588" lon="-7.61685099452734">
        <ele>42.920000000000002</ele>
        <time>2025-04-30T08:38:58Z</time>
      </trkpt>
      <trkpt lat="43.632672037929296" lon="-7.616870021447539">
        <ele>43.880000000000003</ele>
        <time>2025-04-30T08:38:59Z</time>
      </trkpt>
      <trkpt lat="43.632973032072186" lon="-7.616975968703628">
        <ele>44.840000000000003</ele>
        <time>2025-04-30T08:39:04Z</time>
      </trkpt>
      <trkpt lat="43.633008990436792" lon="-7.617008993402124">
        <ele>44.840000000000003</ele>
        <time>2025-04-30T08:39:05Z</time>
      </trkpt>
      <trkpt lat="43.633040003478527" lon="-7.617037994787097">
        <ele>44.840000000000003</ele>
        <time>2025-04-30T08:39:06Z</time>
      </trkpt>
      <trkpt lat="43.633073028177023" lon="-7.617068002000451">
        <ele>44.840000000000003</ele>
        <time>2025-04-30T08:39:07Z</time>
      </trkpt>
      <trkpt lat="43.633116027340293" lon="-7.617106977850199">
        <ele>44.840000000000003</ele>
        <time>2025-04-30T08:39:08Z</time>
      </trkpt>
      <trkpt lat="43.63317403011024" lon="-7.617161041125655">
        <ele>44.840000000000003</ele>
        <time>2025-04-30T08:39:09Z</time>
      </trkpt>
      <trkpt lat="43.633210994303226" lon="-7.6171949878335">
        <ele>44.840000000000003</ele>
        <time>2025-04-30T08:39:10Z</time>
      </trkpt>
      <trkpt lat="43.633328005671501" lon="-7.6171949878335">
        <ele>45.799999999999997</ele>
        <time>2025-04-30T08:39:11Z</time>
      </trkpt>
      <trkpt lat="43.633417021483183" lon="-7.6171949878335">
        <ele>46.759999999999998</ele>
        <time>2025-04-30T08:39:12Z</time>
      </trkpt>
      <trkpt lat="43.633468989282846" lon="-7.6171949878335">
        <ele>47.719999999999999</ele>
        <time>2025-04-30T08:39:13Z</time>
      </trkpt>
      <trkpt lat="43.63356102257967" lon="-7.617102032527328">
        <ele>49.159999999999997</ele>
        <time>2025-04-30T08:39:14Z</time>
      </trkpt>
      <trkpt lat="43.633634028956294" lon="-7.617029026150703">
        <ele>50.130000000000003</ele>
        <time>2025-04-30T08:39:15Z</time>
      </trkpt>
      <trkpt lat="43.633706029504538" lon="-7.61695702560246">
        <ele>51.090000000000003</ele>
        <time>2025-04-30T08:39:16Z</time>
      </trkpt>
      <trkpt lat="43.633854975923896" lon="-7.616830039769411">
        <ele>53.969999999999999</ele>
        <time>2025-04-30T08:39:19Z</time>
      </trkpt>
      <trkpt lat="43.633961006999016" lon="-7.616940010339022">
        <ele>54.450000000000003</ele>
        <time>2025-04-30T08:39:20Z</time>
      </trkpt>
      <trkpt lat="43.634014986455441" lon="-7.616996001452208">
        <ele>54.93</ele>
        <time>2025-04-30T08:39:21Z</time>
      </trkpt>
      <trkpt lat="43.634085981175303" lon="-7.617069007828832">
        <ele>55.890000000000001</ele>
        <time>2025-04-30T08:39:22Z</time>
      </trkpt>
      <trkpt lat="43.63416301086545" lon="-7.617147965356708">
        <ele>56.369999999999997</ele>
        <time>2025-04-30T08:39:23Z</time>
      </trkpt>
      <trkpt lat="43.634523013606668" lon="-7.617519032210112">
        <ele>60.700000000000003</ele>
        <time>2025-04-30T08:39:28Z</time>
      </trkpt>
      <trkpt lat="43.635290041565895" lon="-7.618126971647143">
        <ele>67.430000000000007</ele>
        <time>2025-04-30T08:39:37Z</time>
      </trkpt>
      <trkpt lat="43.635381991043687" lon="-7.618177011609078">
        <ele>68.870000000000005</ele>
        <time>2025-04-30T08:39:38Z</time>
      </trkpt>
      <trkpt lat="43.635477963835001" lon="-7.618228979408741">
        <ele>69.829999999999998</ele>
        <time>2025-04-30T08:39:39Z</time>
      </trkpt>
      <trkpt lat="43.635574020445347" lon="-7.61827097274363">
        <ele>70.790000000000006</ele>
        <time>2025-04-30T08:39:40Z</time>
      </trkpt>
      <trkpt lat="43.63568801432848" lon="-7.61828999966383">
        <ele>72.239999999999995</ele>
        <time>2025-04-30T08:39:41Z</time>
      </trkpt>
      <trkpt lat="43.635810976848006" lon="-7.61831003241241">
        <ele>73.680000000000007</ele>
        <time>2025-04-30T08:39:42Z</time>
      </trkpt>
      <trkpt lat="43.635941985994577" lon="-7.618330987170339">
        <ele>75.120000000000005</ele>
        <time>2025-04-30T08:39:43Z</time>
      </trkpt>
      <trkpt lat="43.636550009250641" lon="-7.618363006040454">
        <ele>80.409999999999997</ele>
        <time>2025-04-30T08:39:49Z</time>
      </trkpt>
      <trkpt lat="43.637328017503023" lon="-7.618158990517259">
        <ele>77.040000000000006</ele>
        <time>2025-04-30T08:39:55Z</time>
      </trkpt>
      <trkpt lat="43.638670966029167" lon="-7.618282036855817">
        <ele>69.829999999999998</ele>
        <time>2025-04-30T08:40:03Z</time>
      </trkpt>
      <trkpt lat="43.638953017070889" lon="-7.618345990777016">
        <ele>67.909999999999997</ele>
        <time>2025-04-30T08:40:05Z</time>
      </trkpt>
      <trkpt lat="43.639053013175726" lon="-7.618447998538613">
        <ele>67.430000000000007</ele>
        <time>2025-04-30T08:40:06Z</time>
      </trkpt>
      <trkpt lat="43.639149991795421" lon="-7.618582025170326">
        <ele>66.950000000000003</ele>
        <time>2025-04-30T08:40:07Z</time>
      </trkpt>
      <trkpt lat="43.640164034441113" lon="-7.619610987603664">
        <ele>61.18</ele>
        <time>2025-04-30T08:40:15Z</time>
      </trkpt>
      <trkpt lat="43.640293031930923" lon="-7.619701009243727">
        <ele>60.700000000000003</ele>
        <time>2025-04-30T08:40:16Z</time>
      </trkpt>
      <trkpt lat="43.640414988622069" lon="-7.619787007570267">
        <ele>60.219999999999999</ele>
        <time>2025-04-30T08:40:17Z</time>
      </trkpt>
      <trkpt lat="43.64056502468884" lon="-7.619781978428364">
        <ele>60.219999999999999</ele>
        <time>2025-04-30T08:40:18Z</time>
      </trkpt>
      <trkpt lat="43.640701984986663" lon="-7.61977300979197">
        <ele>60.700000000000003</ele>
        <time>2025-04-30T08:40:19Z</time>
      </trkpt>
      <trkpt lat="43.640843974426389" lon="-7.619764041155577">
        <ele>61.18</ele>
        <time>2025-04-30T08:40:20Z</time>
      </trkpt>
      <trkpt lat="43.641697000712156" lon="-7.619851967319846">
        <ele>63.100000000000001</ele>
        <time>2025-04-30T08:40:26Z</time>
      </trkpt>
      <trkpt lat="43.641820969060063" lon="-7.619819026440382">
        <ele>62.619999999999997</ele>
        <time>2025-04-30T08:40:27Z</time>
      </trkpt>
      <trkpt lat="43.641935968771577" lon="-7.619789019227028">
        <ele>61.659999999999997</ele>
        <time>2025-04-30T08:40:28Z</time>
      </trkpt>
      <trkpt lat="43.6420280020684" lon="-7.619740990921855">
        <ele>60.700000000000003</ele>
        <time>2025-04-30T08:40:29Z</time>
      </trkpt>
      <trkpt lat="43.642101008445024" lon="-7.619632026180625">
        <ele>59.740000000000002</ele>
        <time>2025-04-30T08:40:30Z</time>
      </trkpt>
      <trkpt lat="43.642174014821649" lon="-7.619521971791983">
        <ele>58.780000000000001</ele>
        <time>2025-04-30T08:40:31Z</time>
      </trkpt>
      <trkpt lat="43.642248027026653" lon="-7.619410995393992">
        <ele>57.340000000000003</ele>
        <time>2025-04-30T08:40:32Z</time>
      </trkpt>
      <trkpt lat="43.642404014244676" lon="-7.619207985699177">
        <ele>54.93</ele>
        <time>2025-04-30T08:40:34Z</time>
      </trkpt>
      <trkpt lat="43.642495963722467" lon="-7.619125004857779">
        <ele>53.969999999999999</ele>
        <time>2025-04-30T08:40:35Z</time>
      </trkpt>
      <trkpt lat="43.642587997019291" lon="-7.619041018188">
        <ele>53.009999999999998</ele>
        <time>2025-04-30T08:40:36Z</time>
      </trkpt>
      <trkpt lat="43.643349995836616" lon="-7.618339033797383">
        <ele>44.359999999999999</ele>
        <time>2025-04-30T08:40:43Z</time>
      </trkpt>
      <trkpt lat="43.643476981669664" lon="-7.618282958865166">
        <ele>43.399999999999999</ele>
        <time>2025-04-30T08:40:44Z</time>
      </trkpt>
      <trkpt lat="43.643602039664984" lon="-7.618271978572011">
        <ele>41.950000000000003</ele>
        <time>2025-04-30T08:40:45Z</time>
      </trkpt>
      <trkpt lat="43.643727013841271" lon="-7.618279019370675">
        <ele>40.509999999999998</ele>
        <time>2025-04-30T08:40:46Z</time>
      </trkpt>
      <trkpt lat="43.64385399967432" lon="-7.618285976350308">
        <ele>39.07</ele>
        <time>2025-04-30T08:40:47Z</time>
      </trkpt>
      <trkpt lat="43.644738961011171" lon="-7.618386978283525">
        <ele>28.98</ele>
        <time>2025-04-30T08:40:55Z</time>
      </trkpt>
      <trkpt lat="43.644839962944388" lon="-7.618378009647131">
        <ele>28.5</ele>
        <time>2025-04-30T08:40:56Z</time>
      </trkpt>
      <trkpt lat="43.64494800567627" lon="-7.618369041010737">
        <ele>28.5</ele>
        <time>2025-04-30T08:40:57Z</time>
      </trkpt>
      <trkpt lat="43.645381014794111" lon="-7.618331992998719">
        <ele>28.5</ele>
        <time>2025-04-30T08:41:01Z</time>
      </trkpt>
      <trkpt lat="43.645634986460209" lon="-7.61835303157568">
        <ele>29.460000000000001</ele>
        <time>2025-04-30T08:41:04Z</time>
      </trkpt>
      <trkpt lat="43.645676979795098" lon="-7.618404999375343">
        <ele>29.460000000000001</ele>
        <time>2025-04-30T08:41:05Z</time>
      </trkpt>
      <trkpt lat="43.645727019757032" lon="-7.618467025458813">
        <ele>29.940000000000001</ele>
        <time>2025-04-30T08:41:06Z</time>
      </trkpt>
      <trkpt lat="43.645934974774718" lon="-7.618729965761304">
        <ele>32.340000000000003</ele>
        <time>2025-04-30T08:41:10Z</time>
      </trkpt>
      <trkpt lat="43.645978979766369" lon="-7.618802972137928">
        <ele>32.82</ele>
        <time>2025-04-30T08:41:11Z</time>
      </trkpt>
      <trkpt lat="43.646022984758019" lon="-7.618874972686172">
        <ele>33.299999999999997</ele>
        <time>2025-04-30T08:41:12Z</time>
      </trkpt>
      <trkpt lat="43.646064978092909" lon="-7.618944039568305">
        <ele>34.259999999999998</ele>
        <time>2025-04-30T08:41:13Z</time>
      </trkpt>
      <trkpt lat="43.64610998891294" lon="-7.619016962125897">
        <ele>35.229999999999997</ele>
        <time>2025-04-30T08:41:14Z</time>
      </trkpt>
      <trkpt lat="43.646149970591068" lon="-7.619083011522889">
        <ele>35.710000000000001</ele>
        <time>2025-04-30T08:41:15Z</time>
      </trkpt>
      <trkpt lat="43.646176038309932" lon="-7.619180995970964">
        <ele>36.189999999999998</ele>
        <time>2025-04-30T08:41:16Z</time>
      </trkpt>
      <trkpt lat="43.646197998896241" lon="-7.619261965155602">
        <ele>36.670000000000002</ele>
        <time>2025-04-30T08:41:17Z</time>
      </trkpt>
      <trkpt lat="43.646220965310931" lon="-7.619348969310522">
        <ele>37.149999999999999</ele>
        <time>2025-04-30T08:41:18Z</time>
      </trkpt>
      <trkpt lat="43.646246027201414" lon="-7.619441002607346">
        <ele>37.630000000000003</ele>
        <time>2025-04-30T08:41:19Z</time>
      </trkpt>
      <trkpt lat="43.646271005272865" lon="-7.619535969570279">
        <ele>38.590000000000003</ele>
        <time>2025-04-30T08:41:20Z</time>
      </trkpt>
      <trkpt lat="43.646294977515936" lon="-7.619626997038722">
        <ele>39.549999999999997</ele>
        <time>2025-04-30T08:41:21Z</time>
      </trkpt>
      <trkpt lat="43.646389022469521" lon="-7.619810979813337">
        <ele>41.469999999999999</ele>
        <time>2025-04-30T08:41:24Z</time>
      </trkpt>
      <trkpt lat="43.646423975005746" lon="-7.619841992855072">
        <ele>41.950000000000003</ele>
        <time>2025-04-30T08:41:25Z</time>
      </trkpt>
      <trkpt lat="43.646476026624441" lon="-7.619834030047059">
        <ele>42.439999999999998</ele>
        <time>2025-04-30T08:41:26Z</time>
      </trkpt>
      <trkpt lat="43.646524976938963" lon="-7.61979203671217">
        <ele>42.920000000000002</ele>
        <time>2025-04-30T08:41:27Z</time>
      </trkpt>
      <trkpt lat="43.646583985537291" lon="-7.619740990921855">
        <ele>43.880000000000003</ele>
        <time>2025-04-30T08:41:28Z</time>
      </trkpt>
      <trkpt lat="43.646649029105902" lon="-7.619714001193643">
        <ele>44.359999999999999</ele>
        <time>2025-04-30T08:41:29Z</time>
      </trkpt>
      <trkpt lat="43.646723041310906" lon="-7.619694974273443">
        <ele>45.32</ele>
        <time>2025-04-30T08:41:30Z</time>
      </trkpt>
      <trkpt lat="43.647148003801703" lon="-7.619585003703833">
        <ele>49.649999999999999</ele>
        <time>2025-04-30T08:41:36Z</time>
      </trkpt>
      <trkpt lat="43.647188991308212" lon="-7.619496993720532">
        <ele>50.609999999999999</ele>
        <time>2025-04-30T08:41:37Z</time>
      </trkpt>
      <trkpt lat="43.647197037935257" lon="-7.619423987343907">
        <ele>51.090000000000003</ele>
        <time>2025-04-30T08:41:38Z</time>
      </trkpt>
      <trkpt lat="43.647206006571651" lon="-7.61934301815927">
        <ele>52.049999999999997</ele>
        <time>2025-04-30T08:41:39Z</time>
      </trkpt>
      <trkpt lat="43.647214975208044" lon="-7.619261965155602">
        <ele>53.009999999999998</ele>
        <time>2025-04-30T08:41:40Z</time>
      </trkpt>
      <trkpt lat="43.647258980199695" lon="-7.619174961000681">
        <ele>53.490000000000002</ele>
        <time>2025-04-30T08:41:41Z</time>
      </trkpt>
      <trkpt lat="43.647308014333248" lon="-7.619154006242752">
        <ele>54.450000000000003</ele>
        <time>2025-04-30T08:41:42Z</time>
      </trkpt>
      <trkpt lat="43.647359982132912" lon="-7.619131961837411">
        <ele>54.450000000000003</ele>
        <time>2025-04-30T08:41:43Z</time>
      </trkpt>
      <trkpt lat="43.647414967417717" lon="-7.61910798959434">
        <ele>54.93</ele>
        <time>2025-04-30T08:41:44Z</time>
      </trkpt>
      <trkpt lat="43.64752602763474" lon="-7.619053004309535">
        <ele>56.369999999999997</ele>
        <time>2025-04-30T08:41:46Z</time>
      </trkpt>
      <trkpt lat="43.647553017362952" lon="-7.618973962962627">
        <ele>56.859999999999999</ele>
        <time>2025-04-30T08:41:47Z</time>
      </trkpt>
      <trkpt lat="43.647587969899178" lon="-7.618868015706539">
        <ele>57.340000000000003</ele>
        <time>2025-04-30T08:41:48Z</time>
      </trkpt>
      <trkpt lat="43.647620994597673" lon="-7.618810012936592">
        <ele>57.82</ele>
        <time>2025-04-30T08:41:49Z</time>
      </trkpt>
      <trkpt lat="43.647726019844413" lon="-7.618726026266813">
        <ele>58.299999999999997</ele>
        <time>2025-04-30T08:41:50Z</time>
      </trkpt>
      <trkpt lat="43.64778402261436" lon="-7.618733989074826">
        <ele>58.780000000000001</ele>
        <time>2025-04-30T08:41:51Z</time>
      </trkpt>
      <trkpt lat="43.647824004292488" lon="-7.61874002404511">
        <ele>58.780000000000001</ele>
        <time>2025-04-30T08:41:52Z</time>
      </trkpt>
      <trkpt lat="43.647898016497493" lon="-7.618819987401366">
        <ele>58.780000000000001</ele>
        <time>2025-04-30T08:41:53Z</time>
      </trkpt>
      <trkpt lat="43.647944033145905" lon="-7.61886902153492">
        <ele>59.259999999999998</ele>
        <time>2025-04-30T08:41:54Z</time>
      </trkpt>
      <trkpt lat="43.647992983460426" lon="-7.618920989334583">
        <ele>59.259999999999998</ele>
        <time>2025-04-30T08:41:55Z</time>
      </trkpt>
      <trkpt lat="43.64804302342236" lon="-7.618975974619389">
        <ele>59.740000000000002</ele>
        <time>2025-04-30T08:41:56Z</time>
      </trkpt>
      <trkpt lat="43.648089962080121" lon="-7.619027020409703">
        <ele>59.740000000000002</ele>
        <time>2025-04-30T08:41:57Z</time>
      </trkpt>
      <trkpt lat="43.648103037849069" lon="-7.619040012359619">
        <ele>59.740000000000002</ele>
        <time>2025-04-30T08:41:58Z</time>
      </trkpt>
      <trkpt lat="43.648173026740551" lon="-7.619073037058115">
        <ele>59.740000000000002</ele>
        <time>2025-04-30T08:41:59Z</time>
      </trkpt>
      <trkpt lat="43.64821401424706" lon="-7.619090974330902">
        <ele>59.740000000000002</ele>
        <time>2025-04-30T08:42:00Z</time>
      </trkpt>
      <trkpt lat="43.64825801923871" lon="-7.619112012907863">
        <ele>59.740000000000002</ele>
        <time>2025-04-30T08:42:01Z</time>
      </trkpt>
      <trkpt lat="43.648295989260077" lon="-7.619129028171301">
        <ele>59.740000000000002</ele>
        <time>2025-04-30T08:42:02Z</time>
      </trkpt>
      <trkpt lat="43.648392967879772" lon="-7.619162974879146">
        <ele>59.259999999999998</ele>
        <time>2025-04-30T08:42:04Z</time>
      </trkpt>
      <trkpt lat="43.648479972034693" lon="-7.619115030393004">
        <ele>59.259999999999998</ele>
        <time>2025-04-30T08:42:06Z</time>
      </trkpt>
      <trkpt lat="43.648529006168246" lon="-7.619088962674141">
        <ele>59.259999999999998</ele>
        <time>2025-04-30T08:42:07Z</time>
      </trkpt>
      <trkpt lat="43.648584997281432" lon="-7.619058033451438">
        <ele>59.259999999999998</ele>
        <time>2025-04-30T08:42:08Z</time>
      </trkpt>
      <trkpt lat="43.648640988394618" lon="-7.619036994874477">
        <ele>59.259999999999998</ele>
        <time>2025-04-30T08:42:09Z</time>
      </trkpt>
      <trkpt lat="43.648711983114481" lon="-7.619027020409703">
        <ele>59.740000000000002</ele>
        <time>2025-04-30T08:42:10Z</time>
      </trkpt>
      <trkpt lat="43.649027980864048" lon="-7.618932975456119">
        <ele>60.219999999999999</ele>
        <time>2025-04-30T08:42:15Z</time>
      </trkpt>
      <trkpt lat="43.649093024432659" lon="-7.618895005434752">
        <ele>60.219999999999999</ele>
        <time>2025-04-30T08:42:16Z</time>
      </trkpt>
      <trkpt lat="43.649176005274057" lon="-7.618846977129579">
        <ele>60.700000000000003</ele>
        <time>2025-04-30T08:42:17Z</time>
      </trkpt>
      <trkpt lat="43.649206012487411" lon="-7.618755027651787">
        <ele>60.219999999999999</ele>
        <time>2025-04-30T08:42:18Z</time>
      </trkpt>
      <trkpt lat="43.649239959195256" lon="-7.618650002405047">
        <ele>60.219999999999999</ele>
        <time>2025-04-30T08:42:19Z</time>
      </trkpt>
      <trkpt lat="43.649276001378894" lon="-7.618541037663817">
        <ele>60.219999999999999</ele>
        <time>2025-04-30T08:42:20Z</time>
      </trkpt>
      <trkpt lat="43.649488985538483" lon="-7.617888003587723">
        <ele>57.82</ele>
        <time>2025-04-30T08:42:26Z</time>
      </trkpt>
      <trkpt lat="43.649578001350164" lon="-7.617717012763023">
        <ele>56.859999999999999</ele>
        <time>2025-04-30T08:42:28Z</time>
      </trkpt>
      <trkpt lat="43.649689983576536" lon="-7.617566976696253">
        <ele>55.890000000000001</ele>
        <time>2025-04-30T08:42:30Z</time>
      </trkpt>
      <trkpt lat="43.649746980518103" lon="-7.617491958662868">
        <ele>55.409999999999997</ele>
        <time>2025-04-30T08:42:31Z</time>
      </trkpt>
      <trkpt lat="43.649854017421603" lon="-7.617348963394761">
        <ele>54.450000000000003</ele>
        <time>2025-04-30T08:42:33Z</time>
      </trkpt>
      <trkpt lat="43.649904979392886" lon="-7.61728098616004">
        <ele>53.490000000000002</ele>
        <time>2025-04-30T08:42:34Z</time>
      </trkpt>
      <trkpt lat="43.649940015748143" lon="-7.617179984226823">
        <ele>53.009999999999998</ele>
        <time>2025-04-30T08:42:35Z</time>
      </trkpt>
      <trkpt lat="43.65023598074913" lon="-7.616344979032874">
        <ele>51.57</ele>
        <time>2025-04-30T08:42:46Z</time>
      </trkpt>
      <trkpt lat="43.650269005447626" lon="-7.616283958777785">
        <ele>52.049999999999997</ele>
        <time>2025-04-30T08:42:50Z</time>
      </trkpt>
      <trkpt lat="43.650300018489361" lon="-7.616226961836219">
        <ele>52.049999999999997</ele>
        <time>2025-04-30T08:42:51Z</time>
      </trkpt>
      <trkpt lat="43.650333965197206" lon="-7.616165019571781">
        <ele>52.530000000000001</ele>
        <time>2025-04-30T08:42:52Z</time>
      </trkpt>
      <trkpt lat="43.65040403790772" lon="-7.616114979609847">
        <ele>53.009999999999998</ele>
        <time>2025-04-30T08:42:53Z</time>
      </trkpt>
      <trkpt lat="43.650476960465312" lon="-7.616063011810184">
        <ele>53.969999999999999</ele>
        <time>2025-04-30T08:42:54Z</time>
      </trkpt>
      <trkpt lat="43.6505570076406" lon="-7.616006014868617">
        <ele>54.450000000000003</ele>
        <time>2025-04-30T08:42:55Z</time>
      </trkpt>
      <trkpt lat="43.650634959340096" lon="-7.615950023755431">
        <ele>54.93</ele>
        <time>2025-04-30T08:42:56Z</time>
      </trkpt>
      <trkpt lat="43.650731015950441" lon="-7.615907024592161">
        <ele>55.890000000000001</ele>
        <time>2025-04-30T08:42:57Z</time>
      </trkpt>
      <trkpt lat="43.651041984558105" lon="-7.615805016830564">
        <ele>57.82</ele>
        <time>2025-04-30T08:43:01Z</time>
      </trkpt>
      <trkpt lat="43.651118008419871" lon="-7.615788001567125">
        <ele>58.299999999999997</ele>
        <time>2025-04-30T08:43:02Z</time>
      </trkpt>
      <trkpt lat="43.65126796066761" lon="-7.61575497686863">
        <ele>59.259999999999998</ele>
        <time>2025-04-30T08:43:04Z</time>
      </trkpt>
      <trkpt lat="43.651324035599828" lon="-7.615741984918714">
        <ele>59.740000000000002</ele>
        <time>2025-04-30T08:43:05Z</time>
      </trkpt>
      <trkpt lat="43.651450015604496" lon="-7.615713989362121">
        <ele>60.700000000000003</ele>
        <time>2025-04-30T08:43:07Z</time>
      </trkpt>
      <trkpt lat="43.651661993935704" lon="-7.615753971040249">
        <ele>62.140000000000001</ele>
        <time>2025-04-30T08:43:10Z</time>
      </trkpt>
      <trkpt lat="43.651746986433864" lon="-7.615786995738745">
        <ele>62.619999999999997</ele>
        <time>2025-04-30T08:43:11Z</time>
      </trkpt>
      <trkpt lat="43.651839019730687" lon="-7.615822032094002">
        <ele>63.579999999999998</ele>
        <time>2025-04-30T08:43:12Z</time>
      </trkpt>
      <trkpt lat="43.652442013844848" lon="-7.616110034286976">
        <ele>68.390000000000001</ele>
        <time>2025-04-30T08:43:17Z</time>
      </trkpt>
      <trkpt lat="43.652743007987738" lon="-7.616293011233211">
        <ele>70.310000000000002</ele>
        <time>2025-04-30T08:43:20Z</time>
      </trkpt>
      <trkpt lat="43.653036039322615" lon="-7.616548994556069">
        <ele>71.269999999999996</ele>
        <time>2025-04-30T08:43:23Z</time>
      </trkpt>
      <trkpt lat="43.653167970478535" lon="-7.616544971242547">
        <ele>71.269999999999996</ele>
        <time>2025-04-30T08:43:24Z</time>
      </trkpt>
      <trkpt lat="43.653294034302235" lon="-7.616540025919676">
        <ele>71.760000000000005</ele>
        <time>2025-04-30T08:43:25Z</time>
      </trkpt>
      <trkpt lat="43.653630986809731" lon="-7.616552012041211">
        <ele>71.760000000000005</ele>
        <time>2025-04-30T08:43:28Z</time>
      </trkpt>
      <trkpt lat="43.653723020106554" lon="-7.616573972627521">
        <ele>71.760000000000005</ele>
        <time>2025-04-30T08:43:29Z</time>
      </trkpt>
      <trkpt lat="43.653811030089855" lon="-7.616594005376101">
        <ele>71.760000000000005</ele>
        <time>2025-04-30T08:43:30Z</time>
      </trkpt>
      <trkpt lat="43.653873978182673" lon="-7.616666005924344">
        <ele>71.269999999999996</ele>
        <time>2025-04-30T08:43:31Z</time>
      </trkpt>
      <trkpt lat="43.653942039236426" lon="-7.616744041442871">
        <ele>70.790000000000006</ele>
        <time>2025-04-30T08:43:32Z</time>
      </trkpt>
      <trkpt lat="43.654018985107541" lon="-7.616792991757393">
        <ele>70.310000000000002</ele>
        <time>2025-04-30T08:43:33Z</time>
      </trkpt>
      <trkpt lat="43.654087968170643" lon="-7.616826016455889">
        <ele>70.310000000000002</ele>
        <time>2025-04-30T08:43:34Z</time>
      </trkpt>
      <trkpt lat="43.654151000082493" lon="-7.616855017840862">
        <ele>69.829999999999998</ele>
        <time>2025-04-30T08:43:35Z</time>
      </trkpt>
      <trkpt lat="43.654258036985993" lon="-7.616904973983765">
        <ele>69.349999999999994</ele>
        <time>2025-04-30T08:43:37Z</time>
      </trkpt>
      <trkpt lat="43.654293995350599" lon="-7.616921989247203">
        <ele>68.870000000000005</ele>
        <time>2025-04-30T08:43:38Z</time>
      </trkpt>
      <trkpt lat="43.654316961765289" lon="-7.616932969540358">
        <ele>68.390000000000001</ele>
        <time>2025-04-30T08:43:39Z</time>
      </trkpt>
      <trkpt lat="43.654305981472135" lon="-7.61695702560246">
        <ele>67.909999999999997</ele>
        <time>2025-04-30T08:43:40Z</time>
      </trkpt>
      <trkpt lat="43.654283015057445" lon="-7.616978986188769">
        <ele>67.430000000000007</ele>
        <time>2025-04-30T08:43:41Z</time>
      </trkpt>
      <trkpt lat="43.654260970652103" lon="-7.617002036422491">
        <ele>67.430000000000007</ele>
        <time>2025-04-30T08:43:42Z</time>
      </trkpt>
      <trkpt lat="43.654215959832072" lon="-7.617002036422491">
        <ele>67.430000000000007</ele>
        <time>2025-04-30T08:43:43Z</time>
      </trkpt>
      <trkpt lat="43.654147982597351" lon="-7.617002036422491">
        <ele>67.430000000000007</ele>
        <time>2025-04-30T08:43:44Z</time>
      </trkpt>
      <trkpt lat="43.653708016499877" lon="-7.61700002476573">
        <ele>67.909999999999997</ele>
        <time>2025-04-30T08:43:49Z</time>
      </trkpt>
      <trkpt lat="43.653610032051802" lon="-7.617032965645194">
        <ele>67.909999999999997</ele>
        <time>2025-04-30T08:43:50Z</time>
      </trkpt>
      <trkpt lat="43.653510035946965" lon="-7.61706599034369">
        <ele>67.909999999999997</ele>
        <time>2025-04-30T08:43:51Z</time>
      </trkpt>
      <trkpt lat="43.653332004323602" lon="-7.617190964519978">
        <ele>67.909999999999997</ele>
        <time>2025-04-30T08:43:53Z</time>
      </trkpt>
      <trkpt lat="43.653223961591721" lon="-7.617236981168389">
        <ele>68.870000000000005</ele>
        <time>2025-04-30T08:43:54Z</time>
      </trkpt>
      <trkpt lat="43.653106028214097" lon="-7.617272017523646">
        <ele>69.349999999999994</ele>
        <time>2025-04-30T08:43:55Z</time>
      </trkpt>
      <trkpt lat="43.652993962168694" lon="-7.617304958403111">
        <ele>69.829999999999998</ele>
        <time>2025-04-30T08:43:56Z</time>
      </trkpt>
      <trkpt lat="43.652887009084225" lon="-7.617335971444845">
        <ele>70.310000000000002</ele>
        <time>2025-04-30T08:43:57Z</time>
      </trkpt>
      <trkpt lat="43.652782989665866" lon="-7.61736698448658">
        <ele>70.310000000000002</ele>
        <time>2025-04-30T08:43:58Z</time>
      </trkpt>
      <trkpt lat="43.651536013931036" lon="-7.617880962789059">
        <ele>73.680000000000007</ele>
        <time>2025-04-30T08:44:09Z</time>
      </trkpt>
      <trkpt lat="43.651096969842911" lon="-7.618541037663817">
        <ele>79.930000000000007</ele>
        <time>2025-04-30T08:44:14Z</time>
      </trkpt>
      <trkpt lat="43.650503028184175" lon="-7.619827995076776">
        <ele>90.5</ele>
        <time>2025-04-30T08:44:23Z</time>
      </trkpt>
      <trkpt lat="43.650068007409573" lon="-7.62061296030879">
        <ele>95.790000000000006</ele>
        <time>2025-04-30T08:44:30Z</time>
      </trkpt>
      <trkpt lat="43.650010004639626" lon="-7.62073801830411">
        <ele>96.269999999999996</ele>
        <time>2025-04-30T08:44:31Z</time>
      </trkpt>
      <trkpt lat="43.649755027145147" lon="-7.621302036568523">
        <ele>97.230000000000004</ele>
        <time>2025-04-30T08:44:36Z</time>
      </trkpt>
      <trkpt lat="43.64971999078989" lon="-7.621402032673359">
        <ele>97.230000000000004</ele>
        <time>2025-04-30T08:44:37Z</time>
      </trkpt>
      <trkpt lat="43.649604991078377" lon="-7.622215999290347">
        <ele>98.189999999999998</ele>
        <time>2025-04-30T08:44:43Z</time>
      </trkpt>
      <trkpt lat="43.649509018287063" lon="-7.622621012851596">
        <ele>99.629999999999995</ele>
        <time>2025-04-30T08:44:46Z</time>
      </trkpt>
      <trkpt lat="43.649483034387231" lon="-7.622734000906348">
        <ele>100.11</ele>
        <time>2025-04-30T08:44:47Z</time>
      </trkpt>
      <trkpt lat="43.649441041052341" lon="-7.622912032529712">
        <ele>101.56</ele>
        <time>2025-04-30T08:44:49Z</time>
      </trkpt>
      <trkpt lat="43.64944196306169" lon="-7.623018985614181">
        <ele>102.52</ele>
        <time>2025-04-30T08:44:50Z</time>
      </trkpt>
      <trkpt lat="43.649409022182226" lon="-7.623562971130014">
        <ele>106.36</ele>
        <time>2025-04-30T08:44:55Z</time>
      </trkpt>
      <trkpt lat="43.649346996098757" lon="-7.623834041878581">
        <ele>108.29000000000001</ele>
        <time>2025-04-30T08:44:57Z</time>
      </trkpt>
      <trkpt lat="43.649319000542164" lon="-7.623962033540011">
        <ele>108.77</ele>
        <time>2025-04-30T08:44:58Z</time>
      </trkpt>
      <trkpt lat="43.649293016642332" lon="-7.624082984402776">
        <ele>109.25</ele>
        <time>2025-04-30T08:44:59Z</time>
      </trkpt>
      <trkpt lat="43.649244988337159" lon="-7.62430602684617">
        <ele>110.69</ele>
        <time>2025-04-30T08:45:01Z</time>
      </trkpt>
      <trkpt lat="43.649222021922469" lon="-7.624411974102259">
        <ele>111.17</ele>
        <time>2025-04-30T08:45:02Z</time>
      </trkpt>
      <trkpt lat="43.649197965860367" lon="-7.624524040147662">
        <ele>111.17</ele>
        <time>2025-04-30T08:45:03Z</time>
      </trkpt>
      <trkpt lat="43.649172987788916" lon="-7.624640967696905">
        <ele>111.17</ele>
        <time>2025-04-30T08:45:04Z</time>
      </trkpt>
      <trkpt lat="43.649150021374226" lon="-7.624763008207083">
        <ele>111.65000000000001</ele>
        <time>2025-04-30T08:45:05Z</time>
      </trkpt>
      <trkpt lat="43.649135017767549" lon="-7.624890999868512">
        <ele>112.13</ele>
        <time>2025-04-30T08:45:06Z</time>
      </trkpt>
      <trkpt lat="43.649119008332491" lon="-7.625024020671845">
        <ele>112.61</ele>
        <time>2025-04-30T08:45:07Z</time>
      </trkpt>
      <trkpt lat="43.649143986403942" lon="-7.625417970120907">
        <ele>114.53</ele>
        <time>2025-04-30T08:45:10Z</time>
      </trkpt>
      <trkpt lat="43.649155972525477" lon="-7.625542022287846">
        <ele>115.5</ele>
        <time>2025-04-30T08:45:11Z</time>
      </trkpt>
      <trkpt lat="43.649167958647013" lon="-7.625662973150611">
        <ele>116.45999999999999</ele>
        <time>2025-04-30T08:45:12Z</time>
      </trkpt>
      <trkpt lat="43.649264015257359" lon="-7.626619013026357">
        <ele>124.15000000000001</ele>
        <time>2025-04-30T08:45:19Z</time>
      </trkpt>
      <trkpt lat="43.649282958358526" lon="-7.626808024942875">
        <ele>125.11</ele>
        <time>2025-04-30T08:45:20Z</time>
      </trkpt>
      <trkpt lat="43.649258986115456" lon="-7.626934004947543">
        <ele>125.59</ele>
        <time>2025-04-30T08:45:21Z</time>
      </trkpt>
      <trkpt lat="43.64922403357923" lon="-7.6273990329355">
        <ele>127.51000000000001</ele>
        <time>2025-04-30T08:45:24Z</time>
      </trkpt>
      <trkpt lat="43.649110961705446" lon="-7.627794994041324">
        <ele>129.91999999999999</ele>
        <time>2025-04-30T08:45:28Z</time>
      </trkpt>
      <trkpt lat="43.649145998060703" lon="-7.627891972661018">
        <ele>130.40000000000001</ele>
        <time>2025-04-30T08:45:29Z</time>
      </trkpt>
      <trkpt lat="43.649205006659031" lon="-7.628060029819608">
        <ele>131.36000000000001</ele>
        <time>2025-04-30T08:45:31Z</time>
      </trkpt>
      <trkpt lat="43.649338027462363" lon="-7.628436964005232">
        <ele>134.24000000000001</ele>
        <time>2025-04-30T08:45:34Z</time>
      </trkpt>
      <trkpt lat="43.649389995262027" lon="-7.628553975373507">
        <ele>135.19999999999999</ele>
        <time>2025-04-30T08:45:35Z</time>
      </trkpt>
      <trkpt lat="43.649919982999563" lon="-7.629574974998832">
        <ele>148.66</ele>
        <time>2025-04-30T08:45:44Z</time>
      </trkpt>
      <trkpt lat="43.650140007957816" lon="-7.629987029358745">
        <ele>155.38999999999999</ele>
        <time>2025-04-30T08:45:48Z</time>
      </trkpt>
      <trkpt lat="43.650199016556144" lon="-7.630078978836536">
        <ele>156.83000000000001</ele>
        <time>2025-04-30T08:45:49Z</time>
      </trkpt>
      <trkpt lat="43.65025601349771" lon="-7.630160031840205">
        <ele>157.31</ele>
        <time>2025-04-30T08:45:50Z</time>
      </trkpt>
      <trkpt lat="43.65034201182425" lon="-7.630218034610152">
        <ele>158.27000000000001</ele>
        <time>2025-04-30T08:45:51Z</time>
      </trkpt>
      <trkpt lat="43.650443013757467" lon="-7.630256004631519">
        <ele>158.75</ele>
        <time>2025-04-30T08:45:52Z</time>
      </trkpt>
      <trkpt lat="43.650554995983839" lon="-7.630282994359732">
        <ele>159.24000000000001</ele>
        <time>2025-04-30T08:45:53Z</time>
      </trkpt>
      <trkpt lat="43.650775020942092" lon="-7.630350971594453">
        <ele>159.72</ele>
        <time>2025-04-30T08:45:55Z</time>
      </trkpt>
      <trkpt lat="43.651549005880952" lon="-7.630925970152021">
        <ele>165</ele>
        <time>2025-04-30T08:46:04Z</time>
      </trkpt>
      <trkpt lat="43.651579013094306" lon="-7.630949020385742">
        <ele>165.47999999999999</ele>
        <time>2025-04-30T08:46:05Z</time>
      </trkpt>
      <trkpt lat="43.651579013094306" lon="-7.631035018712282">
        <ele>165.96000000000001</ele>
        <time>2025-04-30T08:46:06Z</time>
      </trkpt>
      <trkpt lat="43.651579013094306" lon="-7.631035018712282">
        <ele>166.93000000000001</ele>
        <time>2025-04-30T08:46:07Z</time>
      </trkpt>
      <trkpt lat="43.651539031416178" lon="-7.631084974855185">
        <ele>167.41</ele>
        <time>2025-04-30T08:46:08Z</time>
      </trkpt>
      <trkpt lat="43.651495026424527" lon="-7.63114096596837">
        <ele>167.88999999999999</ele>
        <time>2025-04-30T08:46:09Z</time>
      </trkpt>
      <trkpt lat="43.651440963149071" lon="-7.631209027022123">
        <ele>168.37</ele>
        <time>2025-04-30T08:46:10Z</time>
      </trkpt>
      <trkpt lat="43.651374997571111" lon="-7.631294019520283">
        <ele>168.84999999999999</ele>
        <time>2025-04-30T08:46:11Z</time>
      </trkpt>
      <trkpt lat="43.651298973709345" lon="-7.631388986483216">
        <ele>168.84999999999999</ele>
        <time>2025-04-30T08:46:12Z</time>
      </trkpt>
      <trkpt lat="43.651219010353088" lon="-7.63146098703146">
        <ele>169.33000000000001</ele>
        <time>2025-04-30T08:46:13Z</time>
      </trkpt>
      <trkpt lat="43.651126977056265" lon="-7.63150499202311">
        <ele>170.28999999999999</ele>
        <time>2025-04-30T08:46:14Z</time>
      </trkpt>
      <trkpt lat="43.651035027578473" lon="-7.631548997014761">
        <ele>170.28999999999999</ele>
        <time>2025-04-30T08:46:15Z</time>
      </trkpt>
      <trkpt lat="43.650863030925393" lon="-7.631631977856159">
        <ele>171.72999999999999</ele>
        <time>2025-04-30T08:46:17Z</time>
      </trkpt>
      <trkpt lat="43.650780972093344" lon="-7.631671037524939">
        <ele>172.69</ele>
        <time>2025-04-30T08:46:18Z</time>
      </trkpt>
      <trkpt lat="43.6507089715451" lon="-7.631714036688209">
        <ele>173.66</ele>
        <time>2025-04-30T08:46:19Z</time>
      </trkpt>
      <trkpt lat="43.6504499707371" lon="-7.632029028609395">
        <ele>177.97999999999999</ele>
        <time>2025-04-30T08:46:23Z</time>
      </trkpt>
      <trkpt lat="43.650413006544113" lon="-7.632079990580678">
        <ele>178.94</ele>
        <time>2025-04-30T08:46:24Z</time>
      </trkpt>
      <trkpt lat="43.650376964360476" lon="-7.632151991128922">
        <ele>179.41999999999999</ele>
        <time>2025-04-30T08:46:25Z</time>
      </trkpt>
      <trkpt lat="43.650318961590528" lon="-7.632300015538931">
        <ele>180.38</ele>
        <time>2025-04-30T08:46:26Z</time>
      </trkpt>
      <trkpt lat="43.650358021259308" lon="-7.632420966401696">
        <ele>181.34999999999999</ele>
        <time>2025-04-30T08:46:27Z</time>
      </trkpt>
      <trkpt lat="43.650401020422578" lon="-7.632554993033409">
        <ele>182.31</ele>
        <time>2025-04-30T08:46:28Z</time>
      </trkpt>
      <trkpt lat="43.65044703707099" lon="-7.632696982473135">
        <ele>183.27000000000001</ele>
        <time>2025-04-30T08:46:29Z</time>
      </trkpt>
      <trkpt lat="43.65049296990037" lon="-7.632842995226383">
        <ele>184.22999999999999</ele>
        <time>2025-04-30T08:46:30Z</time>
      </trkpt>
      <trkpt lat="43.65066203288734" lon="-7.633389998227358">
        <ele>188.56</ele>
        <time>2025-04-30T08:46:34Z</time>
      </trkpt>
      <trkpt lat="43.650679970160127" lon="-7.633506003767252">
        <ele>189.52000000000001</ele>
        <time>2025-04-30T08:46:35Z</time>
      </trkpt>
      <trkpt lat="43.650697991251945" lon="-7.633622009307146">
        <ele>190.47999999999999</ele>
        <time>2025-04-30T08:46:36Z</time>
      </trkpt>
      <trkpt lat="43.650673013180494" lon="-7.633720999583602">
        <ele>191.91999999999999</ele>
        <time>2025-04-30T08:46:37Z</time>
      </trkpt>
      <trkpt lat="43.650639988481998" lon="-7.633832981809974">
        <ele>191.91999999999999</ele>
        <time>2025-04-30T08:46:38Z</time>
      </trkpt>
      <trkpt lat="43.650606963783503" lon="-7.633944964036346">
        <ele>192.40000000000001</ele>
        <time>2025-04-30T08:46:39Z</time>
      </trkpt>
      <trkpt lat="43.650571005418897" lon="-7.634030962362886">
        <ele>192.40000000000001</ele>
        <time>2025-04-30T08:46:40Z</time>
      </trkpt>
      <trkpt lat="43.650515014305711" lon="-7.63412400148809">
        <ele>192.40000000000001</ele>
        <time>2025-04-30T08:46:41Z</time>
      </trkpt>
      <trkpt lat="43.650462962687016" lon="-7.63421100564301">
        <ele>192.40000000000001</ele>
        <time>2025-04-30T08:46:42Z</time>
      </trkpt>
      <trkpt lat="43.650419041514397" lon="-7.634284012019634">
        <ele>192.40000000000001</ele>
        <time>2025-04-30T08:46:43Z</time>
      </trkpt>
      <trkpt lat="43.650336982682347" lon="-7.634420972317457">
        <ele>192.40000000000001</ele>
        <time>2025-04-30T08:46:45Z</time>
      </trkpt>
      <trkpt lat="43.650329019874334" lon="-7.634528009220958">
        <ele>192.40000000000001</ele>
        <time>2025-04-30T08:46:46Z</time>
      </trkpt>
      <trkpt lat="43.650322984904051" lon="-7.634628005325794">
        <ele>192.40000000000001</ele>
        <time>2025-04-30T08:46:47Z</time>
      </trkpt>
      <trkpt lat="43.650317033752799" lon="-7.634730013087392">
        <ele>192.40000000000001</ele>
        <time>2025-04-30T08:46:48Z</time>
      </trkpt>
      <trkpt lat="43.650310998782516" lon="-7.63483302667737">
        <ele>192.88</ele>
        <time>2025-04-30T08:46:49Z</time>
      </trkpt>
      <trkpt lat="43.650295995175838" lon="-7.635103007778525">
        <ele>193.84</ele>
        <time>2025-04-30T08:46:52Z</time>
      </trkpt>
      <trkpt lat="43.650254001840949" lon="-7.635171990841627">
        <ele>193.84</ele>
        <time>2025-04-30T08:46:53Z</time>
      </trkpt>
      <trkpt lat="43.650201028212905" lon="-7.635166039690375">
        <ele>194.31999999999999</ele>
        <time>2025-04-30T08:46:54Z</time>
      </trkpt>
      <trkpt lat="43.650098014622927" lon="-7.635154975578189">
        <ele>194.80000000000001</ele>
        <time>2025-04-30T08:46:55Z</time>
      </trkpt>
      <trkpt lat="43.650065995752811" lon="-7.635102001950145">
        <ele>195.77000000000001</ele>
        <time>2025-04-30T08:46:56Z</time>
      </trkpt>
      <trkpt lat="43.650014027953148" lon="-7.635016003623605">
        <ele>196.25</ele>
        <time>2025-04-30T08:46:57Z</time>
      </trkpt>
      <trkpt lat="43.649958036839962" lon="-7.634923970326781">
        <ele>196.72999999999999</ele>
        <time>2025-04-30T08:46:58Z</time>
      </trkpt>
      <trkpt lat="43.649895004928112" lon="-7.634821040555835">
        <ele>197.69</ele>
        <time>2025-04-30T08:46:59Z</time>
      </trkpt>
      <trkpt lat="43.649827027693391" lon="-7.634708974510431">
        <ele>198.65000000000001</ele>
        <time>2025-04-30T08:47:00Z</time>
      </trkpt>
      <trkpt lat="43.649659976363182" lon="-7.634434970095754">
        <ele>201.05000000000001</ele>
        <time>2025-04-30T08:47:03Z</time>
      </trkpt>
      <trkpt lat="43.649628963321447" lon="-7.634385013952851">
        <ele>202.00999999999999</ele>
        <time>2025-04-30T08:47:04Z</time>
      </trkpt>
      <trkpt lat="43.649612031877041" lon="-7.634356012567878">
        <ele>202.49000000000001</ele>
        <time>2025-04-30T08:47:05Z</time>
      </trkpt>
      <trkpt lat="43.649582024663687" lon="-7.63449096120894">
        <ele>203.94</ele>
        <time>2025-04-30T08:47:07Z</time>
      </trkpt>
      <trkpt lat="43.649596022441983" lon="-7.634543012827635">
        <ele>204.90000000000001</ele>
        <time>2025-04-30T08:47:08Z</time>
      </trkpt>
      <trkpt lat="43.649614965543151" lon="-7.63461803086102">
        <ele>205.86000000000001</ele>
        <time>2025-04-30T08:47:09Z</time>
      </trkpt>
      <trkpt lat="43.649639021605253" lon="-7.634709980338812">
        <ele>206.81999999999999</ele>
        <time>2025-04-30T08:47:10Z</time>
      </trkpt>
      <trkpt lat="43.649666011333466" lon="-7.63481198810041">
        <ele>208.25999999999999</ele>
        <time>2025-04-30T08:47:11Z</time>
      </trkpt>
      <trkpt lat="43.649693001061678" lon="-7.634917013347149">
        <ele>209.22</ele>
        <time>2025-04-30T08:47:12Z</time>
      </trkpt>
      <trkpt lat="43.649720996618271" lon="-7.635022038593888">
        <ele>210.66999999999999</ele>
        <time>2025-04-30T08:47:13Z</time>
      </trkpt>
      <trkpt lat="43.649749998003244" lon="-7.635131003335118">
        <ele>212.11000000000001</ele>
        <time>2025-04-30T08:47:14Z</time>
      </trkpt>
      <trkpt lat="43.649778999388218" lon="-7.63524298556149">
        <ele>213.06999999999999</ele>
        <time>2025-04-30T08:47:15Z</time>
      </trkpt>
      <trkpt lat="43.649806994944811" lon="-7.635352034121752">
        <ele>214.99000000000001</ele>
        <time>2025-04-30T08:47:16Z</time>
      </trkpt>
      <trkpt lat="43.649835996329784" lon="-7.635460998862982">
        <ele>216.43000000000001</ele>
        <time>2025-04-30T08:47:17Z</time>
      </trkpt>
      <trkpt lat="43.649915959686041" lon="-7.635642969980836">
        <ele>219.80000000000001</ele>
        <time>2025-04-30T08:47:19Z</time>
      </trkpt>
      <trkpt lat="43.649971028789878" lon="-7.635725028812885">
        <ele>221.24000000000001</ele>
        <time>2025-04-30T08:47:20Z</time>
      </trkpt>
      <trkpt lat="43.650082005187869" lon="-7.635891996324062">
        <ele>225.09</ele>
        <time>2025-04-30T08:47:22Z</time>
      </trkpt>
      <trkpt lat="43.650143025442958" lon="-7.635983023792505">
        <ele>226.53</ele>
        <time>2025-04-30T08:47:23Z</time>
      </trkpt>
      <trkpt lat="43.650203039869666" lon="-7.636073967441917">
        <ele>227.49000000000001</ele>
        <time>2025-04-30T08:47:24Z</time>
      </trkpt>
      <trkpt lat="43.65036397241056" lon="-7.636141022667289">
        <ele>228.44999999999999</ele>
        <time>2025-04-30T08:47:26Z</time>
      </trkpt>
      <trkpt lat="43.650419963523746" lon="-7.636162983253598">
        <ele>229.41</ele>
        <time>2025-04-30T08:47:27Z</time>
      </trkpt>
      <trkpt lat="43.650509985163808" lon="-7.63614596799016">
        <ele>229.88999999999999</ele>
        <time>2025-04-30T08:47:28Z</time>
      </trkpt>
      <trkpt lat="43.650604030117393" lon="-7.636127024888992">
        <ele>230.84999999999999</ele>
        <time>2025-04-30T08:47:29Z</time>
      </trkpt>
      <trkpt lat="43.650658009573817" lon="-7.636076984927058">
        <ele>230.84999999999999</ele>
        <time>2025-04-30T08:47:30Z</time>
      </trkpt>
      <trkpt lat="43.650716012343764" lon="-7.635969026014209">
        <ele>231.81</ele>
        <time>2025-04-30T08:47:31Z</time>
      </trkpt>
      <trkpt lat="43.65077200345695" lon="-7.635862994939089">
        <ele>232.30000000000001</ele>
        <time>2025-04-30T08:47:32Z</time>
      </trkpt>
      <trkpt lat="43.650811985135078" lon="-7.635764004662633">
        <ele>233.25999999999999</ele>
        <time>2025-04-30T08:47:33Z</time>
      </trkpt>
      <trkpt lat="43.65083696320653" lon="-7.635623021051288">
        <ele>233.74000000000001</ele>
        <time>2025-04-30T08:47:34Z</time>
      </trkpt>
      <trkpt lat="43.650862025097013" lon="-7.635479019954801">
        <ele>234.69999999999999</ele>
        <time>2025-04-30T08:47:35Z</time>
      </trkpt>
      <trkpt lat="43.650885997340083" lon="-7.635338036343455">
        <ele>236.13999999999999</ele>
        <time>2025-04-30T08:47:36Z</time>
      </trkpt>
      <trkpt lat="43.650918016210198" lon="-7.635167967528105">
        <ele>237.58000000000001</ele>
        <time>2025-04-30T08:47:37Z</time>
      </trkpt>
      <trkpt lat="43.650977024808526" lon="-7.635034024715424">
        <ele>239.50999999999999</ele>
        <time>2025-04-30T08:47:38Z</time>
      </trkpt>
      <trkpt lat="43.651036033406854" lon="-7.634902009740472">
        <ele>241.43000000000001</ele>
        <time>2025-04-30T08:47:39Z</time>
      </trkpt>
      <trkpt lat="43.651084983721375" lon="-7.6347900275141">
        <ele>242.87</ele>
        <time>2025-04-30T08:47:40Z</time>
      </trkpt>
      <trkpt lat="43.651173999533057" lon="-7.634688019752502">
        <ele>244.31</ele>
        <time>2025-04-30T08:47:41Z</time>
      </trkpt>
      <trkpt lat="43.651241976767778" lon="-7.634608978405595">
        <ele>245.75</ele>
        <time>2025-04-30T08:47:42Z</time>
      </trkpt>
      <trkpt lat="43.65131095983088" lon="-7.634530020877719">
        <ele>247.68000000000001</ele>
        <time>2025-04-30T08:47:43Z</time>
      </trkpt>
      <trkpt lat="43.651381032541394" lon="-7.63444896787405">
        <ele>249.59999999999999</ele>
        <time>2025-04-30T08:47:44Z</time>
      </trkpt>
      <trkpt lat="43.651595022529364" lon="-7.634202959015966">
        <ele>254.41</ele>
        <time>2025-04-30T08:47:47Z</time>
      </trkpt>
      <trkpt lat="43.651654031127691" lon="-7.634121989831328">
        <ele>256.32999999999998</ele>
        <time>2025-04-30T08:47:48Z</time>
      </trkpt>
      <trkpt lat="43.651709016412497" lon="-7.633988969027996">
        <ele>258.25</ele>
        <time>2025-04-30T08:47:49Z</time>
      </trkpt>
      <trkpt lat="43.651814963668585" lon="-7.633739020675421">
        <ele>261.62</ele>
        <time>2025-04-30T08:47:51Z</time>
      </trkpt>
      <trkpt lat="43.651898028329015" lon="-7.633596025407314">
        <ele>263.06</ele>
        <time>2025-04-30T08:47:52Z</time>
      </trkpt>
      <trkpt lat="43.652471015229821" lon="-7.632681978866458">
        <ele>271.70999999999998</ele>
        <time>2025-04-30T08:48:00Z</time>
      </trkpt>
      <trkpt lat="43.652561036869884" lon="-7.632610984146595">
        <ele>272.67000000000002</ele>
        <time>2025-04-30T08:48:01Z</time>
      </trkpt>
      <trkpt lat="43.652665978297591" lon="-7.632552981376648">
        <ele>273.63</ele>
        <time>2025-04-30T08:48:02Z</time>
      </trkpt>
      <trkpt lat="43.652988011017442" lon="-7.632330022752285">
        <ele>277</ele>
        <time>2025-04-30T08:48:05Z</time>
      </trkpt>
      <trkpt lat="43.653094964101911" lon="-7.632222985848784">
        <ele>278.44</ele>
        <time>2025-04-30T08:48:06Z</time>
      </trkpt>
      <trkpt lat="43.653896022588015" lon="-7.631507003679872">
        <ele>288.52999999999997</ele>
        <time>2025-04-30T08:48:14Z</time>
      </trkpt>
      <trkpt lat="43.654026025906205" lon="-7.631502980366349">
        <ele>289.49000000000001</ele>
        <time>2025-04-30T08:48:15Z</time>
      </trkpt>
      <trkpt lat="43.654141025617719" lon="-7.631499040871859">
        <ele>290.94</ele>
        <time>2025-04-30T08:48:16Z</time>
      </trkpt>
      <trkpt lat="43.654255019500852" lon="-7.631495017558336">
        <ele>292.38</ele>
        <time>2025-04-30T08:48:17Z</time>
      </trkpt>
      <trkpt lat="43.654373958706856" lon="-7.631490994244814">
        <ele>293.33999999999997</ele>
        <time>2025-04-30T08:48:18Z</time>
      </trkpt>
      <trkpt lat="43.654494993388653" lon="-7.631486970931292">
        <ele>294.77999999999997</ele>
        <time>2025-04-30T08:48:19Z</time>
      </trkpt>
      <trkpt lat="43.654620973393321" lon="-7.631515972316265">
        <ele>296.69999999999999</ele>
        <time>2025-04-30T08:48:20Z</time>
      </trkpt>
      <trkpt lat="43.65504995919764" lon="-7.631679000332952">
        <ele>302.94999999999999</ele>
        <time>2025-04-30T08:48:25Z</time>
      </trkpt>
      <trkpt lat="43.655096981674433" lon="-7.63169702142477">
        <ele>304.38999999999999</ele>
        <time>2025-04-30T08:48:26Z</time>
      </trkpt>
      <trkpt lat="43.655134029686451" lon="-7.631711019203067">
        <ele>305.36000000000001</ele>
        <time>2025-04-30T08:48:27Z</time>
      </trkpt>
      <trkpt lat="43.655135035514832" lon="-7.631802968680859">
        <ele>306.31999999999999</ele>
        <time>2025-04-30T08:48:28Z</time>
      </trkpt>
      <trkpt lat="43.655117014423013" lon="-7.631858037784696">
        <ele>307.75999999999999</ele>
        <time>2025-04-30T08:48:29Z</time>
      </trkpt>
      <trkpt lat="43.655097987502813" lon="-7.631915034726262">
        <ele>308.72000000000003</ele>
        <time>2025-04-30T08:48:30Z</time>
      </trkpt>
      <trkpt lat="43.655035039409995" lon="-7.631919980049133">
        <ele>309.68000000000001</ele>
        <time>2025-04-30T08:48:31Z</time>
      </trkpt>
      <trkpt lat="43.65496102720499" lon="-7.631926015019417">
        <ele>310.16000000000003</ele>
        <time>2025-04-30T08:48:32Z</time>
      </trkpt>
      <trkpt lat="43.654878968372941" lon="-7.631932971999049">
        <ele>310.63999999999999</ele>
        <time>2025-04-30T08:48:33Z</time>
      </trkpt>
      <trkpt lat="43.654782995581627" lon="-7.631962979212403">
        <ele>311.12</ele>
        <time>2025-04-30T08:48:34Z</time>
      </trkpt>
      <trkpt lat="43.654375970363617" lon="-7.632177975028753">
        <ele>314.00999999999999</ele>
        <time>2025-04-30T08:48:39Z</time>
      </trkpt>
      <trkpt lat="43.654302963986993" lon="-7.632241006940603">
        <ele>314.49000000000001</ele>
        <time>2025-04-30T08:48:40Z</time>
      </trkpt>
      <trkpt lat="43.654234986752272" lon="-7.632318958640099">
        <ele>314.97000000000003</ele>
        <time>2025-04-30T08:48:41Z</time>
      </trkpt>
      <trkpt lat="43.654171032831073" lon="-7.632402023300529">
        <ele>315.93000000000001</ele>
        <time>2025-04-30T08:48:42Z</time>
      </trkpt>
      <trkpt lat="43.654104983434081" lon="-7.632486009970307">
        <ele>316.88999999999999</ele>
        <time>2025-04-30T08:48:43Z</time>
      </trkpt>
      <trkpt lat="43.653458990156651" lon="-7.633460992947221">
        <ele>330.82999999999998</ele>
        <time>2025-04-30T08:48:55Z</time>
      </trkpt>
      <trkpt lat="43.653442980721593" lon="-7.633513966575265">
        <ele>332.26999999999998</ele>
        <time>2025-04-30T08:48:56Z</time>
      </trkpt>
      <trkpt lat="43.653432000428438" lon="-7.633551014587283">
        <ele>333.70999999999998</ele>
        <time>2025-04-30T08:48:57Z</time>
      </trkpt>
      <trkpt lat="43.653432000428438" lon="-7.633551014587283">
        <ele>335.63999999999999</ele>
        <time>2025-04-30T08:49:06Z</time>
      </trkpt>
      <trkpt lat="43.653432000428438" lon="-7.633551014587283">
        <ele>336.12</ele>
        <time>2025-04-30T08:49:43Z</time>
      </trkpt>
      <trkpt lat="43.653409034013748" lon="-7.633624020963907">
        <ele>335.63999999999999</ele>
        <time>2025-04-30T08:50:06Z</time>
      </trkpt>
      <trkpt lat="43.653280958533287" lon="-7.6342339720577">
        <ele>337.56</ele>
        <time>2025-04-30T08:50:11Z</time>
      </trkpt>
      <trkpt lat="43.653181968256831" lon="-7.635190011933446">
        <ele>342.85000000000002</ele>
        <time>2025-04-30T08:50:16Z</time>
      </trkpt>
      <trkpt lat="43.652897989377379" lon="-7.636048989370465">
        <ele>350.06</ele>
        <time>2025-04-30T08:50:21Z</time>
      </trkpt>
      <trkpt lat="43.652746025472879" lon="-7.636561961844564">
        <ele>353.89999999999998</ele>
        <time>2025-04-30T08:50:25Z</time>
      </trkpt>
      <trkpt lat="43.652699002996087" lon="-7.636719960719347">
        <ele>354.38</ele>
        <time>2025-04-30T08:50:26Z</time>
      </trkpt>
      <trkpt lat="43.652667989954352" lon="-7.636905033141375">
        <ele>354.38</ele>
        <time>2025-04-30T08:50:27Z</time>
      </trkpt>
      <trkpt lat="43.652630019932985" lon="-7.638137005269527">
        <ele>359.19</ele>
        <time>2025-04-30T08:50:34Z</time>
      </trkpt>
      <trkpt lat="43.652670001611114" lon="-7.63831403106451">
        <ele>360.14999999999998</ele>
        <time>2025-04-30T08:50:35Z</time>
      </trkpt>
      <trkpt lat="43.652705959975719" lon="-7.638473035767674">
        <ele>361.11000000000001</ele>
        <time>2025-04-30T08:50:36Z</time>
      </trkpt>
      <trkpt lat="43.652830012142658" lon="-7.639015009626746">
        <ele>365.44</ele>
        <time>2025-04-30T08:50:39Z</time>
      </trkpt>
      <trkpt lat="43.652924979105592" lon="-7.639312986284494">
        <ele>368.80000000000001</ele>
        <time>2025-04-30T08:50:41Z</time>
      </trkpt>
      <trkpt lat="43.652965966612101" lon="-7.639439972117543">
        <ele>370.24000000000001</ele>
        <time>2025-04-30T08:50:42Z</time>
      </trkpt>
      <trkpt lat="43.652994967997074" lon="-7.639581961557269">
        <ele>371.69</ele>
        <time>2025-04-30T08:50:43Z</time>
      </trkpt>
      <trkpt lat="43.652994967997074" lon="-7.639730991795659">
        <ele>373.61000000000001</ele>
        <time>2025-04-30T08:50:44Z</time>
      </trkpt>
      <trkpt lat="43.652983987703919" lon="-7.63990399427712">
        <ele>375.05000000000001</ele>
        <time>2025-04-30T08:50:45Z</time>
      </trkpt>
      <trkpt lat="43.652780978009105" lon="-7.640990959480405">
        <ele>386.58999999999997</ele>
        <time>2025-04-30T08:50:53Z</time>
      </trkpt>
      <trkpt lat="43.652782989665866" lon="-7.641004035249353">
        <ele>387.55000000000001</ele>
        <time>2025-04-30T08:50:54Z</time>
      </trkpt>
      <trkpt lat="43.65279296413064" lon="-7.641053991392255">
        <ele>388.99000000000001</ele>
        <time>2025-04-30T08:50:55Z</time>
      </trkpt>
      <trkpt lat="43.652875022962689" lon="-7.641189023852348">
        <ele>389.94999999999999</ele>
        <time>2025-04-30T08:50:56Z</time>
      </trkpt>
      <trkpt lat="43.652946017682552" lon="-7.641131021082401">
        <ele>391.38999999999999</ele>
        <time>2025-04-30T08:50:57Z</time>
      </trkpt>
      <trkpt lat="43.653001002967358" lon="-7.641079975292087">
        <ele>392.83999999999997</ele>
        <time>2025-04-30T08:50:58Z</time>
      </trkpt>
      <trkpt lat="43.653069986030459" lon="-7.641017027199268">
        <ele>393.80000000000001</ele>
        <time>2025-04-30T08:50:59Z</time>
      </trkpt>
      <trkpt lat="43.653146009892225" lon="-7.640946032479405">
        <ele>395.24000000000001</ele>
        <time>2025-04-30T08:51:00Z</time>
      </trkpt>
      <trkpt lat="43.653209963813424" lon="-7.640915019437671">
        <ele>396.19999999999999</ele>
        <time>2025-04-30T08:51:01Z</time>
      </trkpt>
      <trkpt lat="43.653293028473854" lon="-7.64089297503233">
        <ele>397.16000000000003</ele>
        <time>2025-04-30T08:51:02Z</time>
      </trkpt>
      <trkpt lat="43.653402999043465" lon="-7.640862967818975">
        <ele>398.12</ele>
        <time>2025-04-30T08:51:03Z</time>
      </trkpt>
      <trkpt lat="43.653424037620425" lon="-7.640881994739175">
        <ele>398.60000000000002</ele>
        <time>2025-04-30T08:51:04Z</time>
      </trkpt>
      <trkpt lat="43.653485979884863" lon="-7.640937985852361">
        <ele>398.60000000000002</ele>
        <time>2025-04-30T08:51:05Z</time>
      </trkpt>
      <trkpt lat="43.653537025675178" lon="-7.640984002500773">
        <ele>399.07999999999998</ele>
        <time>2025-04-30T08:51:06Z</time>
      </trkpt>
      <trkpt lat="43.653639033436775" lon="-7.641077041625977">
        <ele>399.56999999999999</ele>
        <time>2025-04-30T08:51:07Z</time>
      </trkpt>
      <trkpt lat="43.653645990416408" lon="-7.641078969463706">
        <ele>400.05000000000001</ele>
        <time>2025-04-30T08:51:08Z</time>
      </trkpt>
      <trkpt lat="43.653707010671496" lon="-7.641091039404273">
        <ele>400.52999999999997</ele>
        <time>2025-04-30T08:51:09Z</time>
      </trkpt>
      <trkpt lat="43.653767025098205" lon="-7.641103025525808">
        <ele>401.00999999999999</ele>
        <time>2025-04-30T08:51:10Z</time>
      </trkpt>
      <trkpt lat="43.653829973191023" lon="-7.641115011647344">
        <ele>401.49000000000001</ele>
        <time>2025-04-30T08:51:11Z</time>
      </trkpt>
      <trkpt lat="43.654115963727236" lon="-7.641173014417291">
        <ele>404.85000000000002</ele>
        <time>2025-04-30T08:51:16Z</time>
      </trkpt>
      <trkpt lat="43.654178995639086" lon="-7.641195980831981">
        <ele>405.81</ele>
        <time>2025-04-30T08:51:17Z</time>
      </trkpt>
      <trkpt lat="43.654207997024059" lon="-7.641292959451675">
        <ele>405.81</ele>
        <time>2025-04-30T08:51:18Z</time>
      </trkpt>
      <trkpt lat="43.654336994513869" lon="-7.641763016581535">
        <ele>406.29000000000002</ele>
        <time>2025-04-30T08:51:22Z</time>
      </trkpt>
      <trkpt lat="43.654363984242082" lon="-7.641882039606571">
        <ele>405.81</ele>
        <time>2025-04-30T08:51:23Z</time>
      </trkpt>
      <trkpt lat="43.654388040304184" lon="-7.642024029046297">
        <ele>405.81</ele>
        <time>2025-04-30T08:51:24Z</time>
      </trkpt>
      <trkpt lat="43.654377982020378" lon="-7.642153026536107">
        <ele>405.81</ele>
        <time>2025-04-30T08:51:25Z</time>
      </trkpt>
      <trkpt lat="43.654368007555604" lon="-7.642284035682678">
        <ele>405.32999999999998</ele>
        <time>2025-04-30T08:51:26Z</time>
      </trkpt>
      <trkpt lat="43.654331965371966" lon="-7.642737999558449">
        <ele>403.88999999999999</ele>
        <time>2025-04-30T08:51:32Z</time>
      </trkpt>
      <trkpt lat="43.654330037534237" lon="-7.642759960144758">
        <ele>403.41000000000003</ele>
        <time>2025-04-30T08:51:44Z</time>
      </trkpt>
      <trkpt lat="43.654310004785657" lon="-7.642776975408196">
        <ele>405.81</ele>
        <time>2025-04-30T08:54:18Z</time>
      </trkpt>
      <trkpt lat="43.654311010614038" lon="-7.642778987064958">
        <ele>405.81</ele>
        <time>2025-04-30T08:55:00Z</time>
      </trkpt>
      <trkpt lat="43.654316961765289" lon="-7.642780998721719">
        <ele>404.85000000000002</ele>
        <time>2025-04-30T08:55:45Z</time>
      </trkpt>
      <trkpt lat="43.654322996735573" lon="-7.642778987064958">
        <ele>405.32999999999998</ele>
        <time>2025-04-30T08:56:37Z</time>
      </trkpt>
      <trkpt lat="43.654322996735573" lon="-7.642779992893338">
        <ele>404.85000000000002</ele>
        <time>2025-04-30T08:57:27Z</time>
      </trkpt>
      <trkpt lat="43.654321990907192" lon="-7.642776975408196">
        <ele>404.85000000000002</ele>
        <time>2025-04-30T08:58:18Z</time>
      </trkpt>
      <trkpt lat="43.65431897342205" lon="-7.642777981236577">
        <ele>404.85000000000002</ele>
        <time>2025-04-30T08:59:08Z</time>
      </trkpt>
      <trkpt lat="43.65431796759367" lon="-7.642774963751435">
        <ele>404.85000000000002</ele>
        <time>2025-04-30T08:59:50Z</time>
      </trkpt>
      <trkpt lat="43.65431796759367" lon="-7.642778987064958">
        <ele>404.85000000000002</ele>
        <time>2025-04-30T09:00:49Z</time>
      </trkpt>
      <trkpt lat="43.65431897342205" lon="-7.642779992893338">
        <ele>403.88999999999999</ele>
        <time>2025-04-30T09:01:42Z</time>
      </trkpt>
      <trkpt lat="43.654348980635405" lon="-7.642810000106692">
        <ele>407.25999999999999</ele>
        <time>2025-04-30T09:02:51Z</time>
      </trkpt>
      <trkpt lat="43.654304975643754" lon="-7.642767000943422">
        <ele>402.93000000000001</ele>
        <time>2025-04-30T09:03:35Z</time>
      </trkpt>
      <trkpt lat="43.65429500117898" lon="-7.642788039520383">
        <ele>402.93000000000001</ele>
        <time>2025-04-30T09:04:30Z</time>
      </trkpt>
      <trkpt lat="43.654311010614038" lon="-7.642785022035241">
        <ele>402.44999999999999</ele>
        <time>2025-04-30T09:05:20Z</time>
      </trkpt>
      <trkpt lat="43.654312016442418" lon="-7.642782004550099">
        <ele>402.44999999999999</ele>
        <time>2025-04-30T09:06:08Z</time>
      </trkpt>
      <trkpt lat="43.654313022270799" lon="-7.642780998721719">
        <ele>402.44999999999999</ele>
        <time>2025-04-30T09:06:58Z</time>
      </trkpt>
      <trkpt lat="43.654303969815373" lon="-7.643101019784808">
        <ele>401.00999999999999</ele>
        <time>2025-04-30T09:07:13Z</time>
      </trkpt>
      <trkpt lat="43.654298018664122" lon="-7.643179977312684">
        <ele>401.00999999999999</ele>
        <time>2025-04-30T09:07:14Z</time>
      </trkpt>
      <trkpt lat="43.654303969815373" lon="-7.643576022237539">
        <ele>400.05000000000001</ele>
        <time>2025-04-30T09:07:18Z</time>
      </trkpt>
      <trkpt lat="43.65435803309083" lon="-7.64407298527658">
        <ele>399.07999999999998</ele>
        <time>2025-04-30T09:07:22Z</time>
      </trkpt>
      <trkpt lat="43.654437996447086" lon="-7.644261997193098">
        <ele>398.12</ele>
        <time>2025-04-30T09:07:24Z</time>
      </trkpt>
      <trkpt lat="43.654498010873795" lon="-7.644342966377735">
        <ele>397.63999999999999</ele>
        <time>2025-04-30T09:07:25Z</time>
      </trkpt>
      <trkpt lat="43.654557019472122" lon="-7.644424019381404">
        <ele>397.63999999999999</ele>
        <time>2025-04-30T09:07:26Z</time>
      </trkpt>
      <trkpt lat="43.654618039727211" lon="-7.644501971080899">
        <ele>397.16000000000003</ele>
        <time>2025-04-30T09:07:27Z</time>
      </trkpt>
      <trkpt lat="43.654700014740229" lon="-7.644584029912949">
        <ele>397.16000000000003</ele>
        <time>2025-04-30T09:07:28Z</time>
      </trkpt>
      <trkpt lat="43.654784001410007" lon="-7.644669022411108">
        <ele>397.16000000000003</ele>
        <time>2025-04-30T09:07:29Z</time>
      </trkpt>
      <trkpt lat="43.654974019154906" lon="-7.644943026825786">
        <ele>398.60000000000002</ele>
        <time>2025-04-30T09:07:32Z</time>
      </trkpt>
      <trkpt lat="43.655017018318176" lon="-7.6450389996171">
        <ele>399.07999999999998</ele>
        <time>2025-04-30T09:07:33Z</time>
      </trkpt>
      <trkpt lat="43.655395964160562" lon="-7.645992022007704">
        <ele>402.44999999999999</ele>
        <time>2025-04-30T09:07:42Z</time>
      </trkpt>
      <trkpt lat="43.655586987733841" lon="-7.647364977747202">
        <ele>401.00999999999999</ele>
        <time>2025-04-30T09:07:52Z</time>
      </trkpt>
      <trkpt lat="43.655591011047363" lon="-7.648582030087709">
        <ele>395.72000000000003</ele>
        <time>2025-04-30T09:08:02Z</time>
      </trkpt>
      <trkpt lat="43.655587993562222" lon="-7.64871396124363">
        <ele>395.24000000000001</ele>
        <time>2025-04-30T09:08:03Z</time>
      </trkpt>
      <trkpt lat="43.655582964420319" lon="-7.648948989808559">
        <ele>393.80000000000001</ele>
        <time>2025-04-30T09:08:05Z</time>
      </trkpt>
      <trkpt lat="43.655575001612306" lon="-7.649300023913384">
        <ele>391.38999999999999</ele>
        <time>2025-04-30T09:08:09Z</time>
      </trkpt>
      <trkpt lat="43.655573995783925" lon="-7.649363977834582">
        <ele>390.91000000000003</ele>
        <time>2025-04-30T09:08:10Z</time>
      </trkpt>
      <trkpt lat="43.655571984127164" lon="-7.649423992261291">
        <ele>390.43000000000001</ele>
        <time>2025-04-30T09:08:11Z</time>
      </trkpt>
      <trkpt lat="43.655720008537173" lon="-7.649509990587831">
        <ele>389.94999999999999</ele>
        <time>2025-04-30T09:08:12Z</time>
      </trkpt>
      <trkpt lat="43.655720008537173" lon="-7.649509990587831">
        <ele>388.99000000000001</ele>
        <time>2025-04-30T09:08:13Z</time>
      </trkpt>
      <trkpt lat="43.655795026570559" lon="-7.649534968659282">
        <ele>388.50999999999999</ele>
        <time>2025-04-30T09:08:14Z</time>
      </trkpt>
      <trkpt lat="43.656484019011259" lon="-7.649819031357765">
        <ele>390.43000000000001</ele>
        <time>2025-04-30T09:08:19Z</time>
      </trkpt>
      <trkpt lat="43.6579480022192" lon="-7.650467036291957">
        <ele>393.31999999999999</ele>
        <time>2025-04-30T09:08:26Z</time>
      </trkpt>
      <trkpt lat="43.659848012030125" lon="-7.651306986808777">
        <ele>396.68000000000001</ele>
        <time>2025-04-30T09:08:35Z</time>
      </trkpt>
      <trkpt lat="43.660187982022762" lon="-7.651522988453507">
        <ele>396.19999999999999</ele>
        <time>2025-04-30T09:08:37Z</time>
      </trkpt>
      <trkpt lat="43.660338018089533" lon="-7.651661960408092">
        <ele>395.72000000000003</ele>
        <time>2025-04-30T09:08:38Z</time>
      </trkpt>
      <trkpt lat="43.660462992265821" lon="-7.651856001466513">
        <ele>395.24000000000001</ele>
        <time>2025-04-30T09:08:39Z</time>
      </trkpt>
      <trkpt lat="43.660781001672149" lon="-7.6524299941957">
        <ele>395.24000000000001</ele>
        <time>2025-04-30T09:08:42Z</time>
      </trkpt>
      <trkpt lat="43.660781001672149" lon="-7.6524299941957">
        <ele>395.24000000000001</ele>
        <time>2025-04-30T09:08:43Z</time>
      </trkpt>
      <trkpt lat="43.661044025793672" lon="-7.652639038860798">
        <ele>395.72000000000003</ele>
        <time>2025-04-30T09:08:44Z</time>
      </trkpt>
      <trkpt lat="43.661732012405992" lon="-7.652906002476811">
        <ele>395.72000000000003</ele>
        <time>2025-04-30T09:08:48Z</time>
      </trkpt>
      <trkpt lat="43.661891017109156" lon="-7.652894016355276">
        <ele>395.24000000000001</ele>
        <time>2025-04-30T09:08:49Z</time>
      </trkpt>
      <trkpt lat="43.66205002181232" lon="-7.652856968343258">
        <ele>394.75999999999999</ele>
        <time>2025-04-30T09:08:50Z</time>
      </trkpt>
      <trkpt lat="43.662162004038692" lon="-7.652740040794015">
        <ele>394.27999999999997</ele>
        <time>2025-04-30T09:08:51Z</time>
      </trkpt>
      <trkpt lat="43.66228798404336" lon="-7.652606014162302">
        <ele>393.31999999999999</ele>
        <time>2025-04-30T09:08:52Z</time>
      </trkpt>
      <trkpt lat="43.662412958219647" lon="-7.652475005015731">
        <ele>392.83999999999997</ele>
        <time>2025-04-30T09:08:53Z</time>
      </trkpt>
      <trkpt lat="43.662561988458037" lon="-7.652399986982346">
        <ele>391.87</ele>
        <time>2025-04-30T09:08:54Z</time>
      </trkpt>
      <trkpt lat="43.662725016474724" lon="-7.652352964505553">
        <ele>390.91000000000003</ele>
        <time>2025-04-30T09:08:55Z</time>
      </trkpt>
      <trkpt lat="43.66288997232914" lon="-7.652326980605722">
        <ele>389.94999999999999</ele>
        <time>2025-04-30T09:08:56Z</time>
      </trkpt>
      <trkpt lat="43.663047971203923" lon="-7.652360005304217">
        <ele>388.50999999999999</ele>
        <time>2025-04-30T09:08:57Z</time>
      </trkpt>
      <trkpt lat="43.663202030584216" lon="-7.6524109672755">
        <ele>387.55000000000001</ele>
        <time>2025-04-30T09:08:58Z</time>
      </trkpt>
      <trkpt lat="43.663343014195561" lon="-7.652519010007381">
        <ele>386.58999999999997</ele>
        <time>2025-04-30T09:08:59Z</time>
      </trkpt>
      <trkpt lat="43.663479974493384" lon="-7.65266896225512">
        <ele>386.11000000000001</ele>
        <time>2025-04-30T09:09:00Z</time>
      </trkpt>
      <trkpt lat="43.663587011396885" lon="-7.652867026627064">
        <ele>385.63</ele>
        <time>2025-04-30T09:09:01Z</time>
      </trkpt>
      <trkpt lat="43.663695976138115" lon="-7.653071964159608">
        <ele>385.63</ele>
        <time>2025-04-30T09:09:02Z</time>
      </trkpt>
      <trkpt lat="43.664032006636262" lon="-7.653623996302486">
        <ele>385.14999999999998</ele>
        <time>2025-04-30T09:09:05Z</time>
      </trkpt>
      <trkpt lat="43.664133008569479" lon="-7.653772020712495">
        <ele>385.14999999999998</ele>
        <time>2025-04-30T09:09:06Z</time>
      </trkpt>
      <trkpt lat="43.664274998009205" lon="-7.653876962140203">
        <ele>385.14999999999998</ele>
        <time>2025-04-30T09:09:07Z</time>
      </trkpt>
      <trkpt lat="43.665260961279273" lon="-7.654670979827642">
        <ele>382.74000000000001</ele>
        <time>2025-04-30T09:09:13Z</time>
      </trkpt>
      <trkpt lat="43.665817016735673" lon="-7.655238015577197">
        <ele>382.25999999999999</ele>
        <time>2025-04-30T09:09:17Z</time>
      </trkpt>
      <trkpt lat="43.66591801866889" lon="-7.655415963381529">
        <ele>382.25999999999999</ele>
        <time>2025-04-30T09:09:18Z</time>
      </trkpt>
      <trkpt lat="43.66600401699543" lon="-7.655616961419582">
        <ele>382.25999999999999</ele>
        <time>2025-04-30T09:09:19Z</time>
      </trkpt>
      <trkpt lat="43.666089009493589" lon="-7.655834974721074">
        <ele>381.77999999999997</ele>
        <time>2025-04-30T09:09:20Z</time>
      </trkpt>
      <trkpt lat="43.666163021698594" lon="-7.656066985800862">
        <ele>381.77999999999997</ele>
        <time>2025-04-30T09:09:21Z</time>
      </trkpt>
      <trkpt lat="43.66679803468287" lon="-7.657964983955026">
        <ele>378.42000000000002</ele>
        <time>2025-04-30T09:09:29Z</time>
      </trkpt>
      <trkpt lat="43.666868023574352" lon="-7.658095993101597">
        <ele>378.42000000000002</ele>
        <time>2025-04-30T09:09:30Z</time>
      </trkpt>
      <trkpt lat="43.666957961395383" lon="-7.658171011134982">
        <ele>377.94</ele>
        <time>2025-04-30T09:09:31Z</time>
      </trkpt>
      <trkpt lat="43.6670589633286" lon="-7.65820998698473">
        <ele>377.94</ele>
        <time>2025-04-30T09:09:32Z</time>
      </trkpt>
      <trkpt lat="43.667158037424088" lon="-7.658170005306602">
        <ele>377.94</ele>
        <time>2025-04-30T09:09:33Z</time>
      </trkpt>
      <trkpt lat="43.66727395914495" lon="-7.658089036121965">
        <ele>377.44999999999999</ele>
        <time>2025-04-30T09:09:34Z</time>
      </trkpt>
      <trkpt lat="43.667371021583676" lon="-7.657944029197097">
        <ele>377.44999999999999</ele>
        <time>2025-04-30T09:09:35Z</time>
      </trkpt>
      <trkpt lat="43.667480992153287" lon="-7.657778989523649">
        <ele>376.97000000000003</ele>
        <time>2025-04-30T09:09:36Z</time>
      </trkpt>
      <trkpt lat="43.667603032663465" lon="-7.657596012577415">
        <ele>376.49000000000001</ele>
        <time>2025-04-30T09:09:37Z</time>
      </trkpt>
      <trkpt lat="43.667854992672801" lon="-7.657218994572759">
        <ele>375.05000000000001</ele>
        <time>2025-04-30T09:09:39Z</time>
      </trkpt>
      <trkpt lat="43.667988013476133" lon="-7.657054038718343">
        <ele>374.08999999999997</ele>
        <time>2025-04-30T09:09:40Z</time>
      </trkpt>
      <trkpt lat="43.668149029836059" lon="-7.656921017915011">
        <ele>373.61000000000001</ele>
        <time>2025-04-30T09:09:41Z</time>
      </trkpt>
      <trkpt lat="43.668813966214657" lon="-7.656547017395496">
        <ele>371.20999999999998</ele>
        <time>2025-04-30T09:09:45Z</time>
      </trkpt>
      <trkpt lat="43.66892896592617" lon="-7.656387006863952">
        <ele>370.24000000000001</ele>
        <time>2025-04-30T09:09:46Z</time>
      </trkpt>
      <trkpt lat="43.669470017775893" lon="-7.65573900192976">
        <ele>366.39999999999998</ele>
        <time>2025-04-30T09:09:50Z</time>
      </trkpt>
      <trkpt lat="43.669617958366871" lon="-7.655607992783189">
        <ele>365.44</ele>
        <time>2025-04-30T09:09:51Z</time>
      </trkpt>
      <trkpt lat="43.669784003868699" lon="-7.655540015548468">
        <ele>364</ele>
        <time>2025-04-30T09:09:52Z</time>
      </trkpt>
      <trkpt lat="43.669949965551496" lon="-7.655487963929772">
        <ele>363.04000000000002</ele>
        <time>2025-04-30T09:09:53Z</time>
      </trkpt>
      <trkpt lat="43.670115005224943" lon="-7.655452005565167">
        <ele>362.06999999999999</ele>
        <time>2025-04-30T09:09:54Z</time>
      </trkpt>
      <trkpt lat="43.670941963791847" lon="-7.655345974490047">
        <ele>356.31</ele>
        <time>2025-04-30T09:10:00Z</time>
      </trkpt>
      <trkpt lat="43.672183994203806" lon="-7.655531968921423">
        <ele>355.33999999999997</ele>
        <time>2025-04-30T09:10:07Z</time>
      </trkpt>
      <trkpt lat="43.67427796125412" lon="-7.656062040477991">
        <ele>359.19</ele>
        <time>2025-04-30T09:10:18Z</time>
      </trkpt>
      <trkpt lat="43.675820985808969" lon="-7.656504018232226">
        <ele>361.58999999999997</ele>
        <time>2025-04-30T09:10:27Z</time>
      </trkpt>
      <trkpt lat="43.6762769613415" lon="-7.656546011567116">
        <ele>362.06999999999999</ele>
        <time>2025-04-30T09:10:31Z</time>
      </trkpt>
      <trkpt lat="43.676307974383235" lon="-7.656545005738735">
        <ele>362.06999999999999</ele>
        <time>2025-04-30T09:10:38Z</time>
      </trkpt>
      <trkpt lat="43.676307974383235" lon="-7.656545005738735">
        <ele>360.63</ele>
        <time>2025-04-30T09:10:50Z</time>
      </trkpt>
      <trkpt lat="43.676307974383235" lon="-7.656545005738735">
        <ele>360.14999999999998</ele>
        <time>2025-04-30T09:10:56Z</time>
      </trkpt>
      <trkpt lat="43.676289031282067" lon="-7.656546011567116">
        <ele>360.14999999999998</ele>
        <time>2025-04-30T09:10:57Z</time>
      </trkpt>
      <trkpt lat="43.676127009093761" lon="-7.656548023223877">
        <ele>359.67000000000002</ele>
        <time>2025-04-30T09:10:58Z</time>
      </trkpt>
      <trkpt lat="43.676121979951859" lon="-7.656548023223877">
        <ele>359.67000000000002</ele>
        <time>2025-04-30T09:11:01Z</time>
      </trkpt>
      <trkpt lat="43.676127009093761" lon="-7.656548023223877">
        <ele>359.19</ele>
        <time>2025-04-30T09:11:02Z</time>
      </trkpt>
      <trkpt lat="43.676131032407284" lon="-7.656542994081974">
        <ele>359.19</ele>
        <time>2025-04-30T09:11:03Z</time>
      </trkpt>
      <trkpt lat="43.676158022135496" lon="-7.656504018232226">
        <ele>359.67000000000002</ele>
        <time>2025-04-30T09:11:04Z</time>
      </trkpt>
      <trkpt lat="43.67618702352047" lon="-7.656464958563447">
        <ele>359.67000000000002</ele>
        <time>2025-04-30T09:11:05Z</time>
      </trkpt>
      <trkpt lat="43.67620998993516" lon="-7.656433023512363">
        <ele>359.67000000000002</ele>
        <time>2025-04-30T09:11:06Z</time>
      </trkpt>
      <trkpt lat="43.67640201933682" lon="-7.65616899356246">
        <ele>360.63</ele>
        <time>2025-04-30T09:11:12Z</time>
      </trkpt>
      <trkpt lat="43.676469996571541" lon="-7.656076038256288">
        <ele>361.11000000000001</ele>
        <time>2025-04-30T09:11:13Z</time>
      </trkpt>
      <trkpt lat="43.676494974642992" lon="-7.655984004959464">
        <ele>361.11000000000001</ele>
        <time>2025-04-30T09:11:14Z</time>
      </trkpt>
      <trkpt lat="43.676821030676365" lon="-7.654773993417621">
        <ele>364.48000000000002</ele>
        <time>2025-04-30T09:11:22Z</time>
      </trkpt>
      <trkpt lat="43.677153959870338" lon="-7.653542021289468">
        <ele>365.44</ele>
        <time>2025-04-30T09:11:31Z</time>
      </trkpt>
      <trkpt lat="43.677269965410233" lon="-7.653191993013024">
        <ele>360.63</ele>
        <time>2025-04-30T09:11:34Z</time>
      </trkpt>
      <trkpt lat="43.677441962063313" lon="-7.65288102440536">
        <ele>356.79000000000002</ele>
        <time>2025-04-30T09:11:37Z</time>
      </trkpt>
      <trkpt lat="43.678304040804505" lon="-7.652000002563">
        <ele>345.25</ele>
        <time>2025-04-30T09:11:47Z</time>
      </trkpt>
      <trkpt lat="43.678631018847227" lon="-7.651695990934968">
        <ele>338.04000000000002</ele>
        <time>2025-04-30T09:11:51Z</time>
      </trkpt>
      <trkpt lat="43.678782982751727" lon="-7.651554001495242">
        <ele>334.19999999999999</ele>
        <time>2025-04-30T09:11:53Z</time>
      </trkpt>
      <trkpt lat="43.678854983299971" lon="-7.651488035917282">
        <ele>332.26999999999998</ele>
        <time>2025-04-30T09:11:54Z</time>
      </trkpt>
      <trkpt lat="43.678923966363072" lon="-7.651422992348671">
        <ele>330.35000000000002</ele>
        <time>2025-04-30T09:11:55Z</time>
      </trkpt>
      <trkpt lat="43.678991021588445" lon="-7.651360966265202">
        <ele>328.43000000000001</ele>
        <time>2025-04-30T09:11:56Z</time>
      </trkpt>
      <trkpt lat="43.679058998823166" lon="-7.651298018172383">
        <ele>326.01999999999998</ele>
        <time>2025-04-30T09:11:57Z</time>
      </trkpt>
      <trkpt lat="43.679130999371409" lon="-7.651238003745675">
        <ele>324.10000000000002</ele>
        <time>2025-04-30T09:11:58Z</time>
      </trkpt>
      <trkpt lat="43.679201994091272" lon="-7.651178995147348">
        <ele>321.69999999999999</ele>
        <time>2025-04-30T09:11:59Z</time>
      </trkpt>
      <trkpt lat="43.679268965497613" lon="-7.651124009862542">
        <ele>319.77999999999997</ele>
        <time>2025-04-30T09:12:00Z</time>
      </trkpt>
      <trkpt lat="43.679331997409463" lon="-7.651071958243847">
        <ele>317.37</ele>
        <time>2025-04-30T09:12:01Z</time>
      </trkpt>
      <trkpt lat="43.679386982694268" lon="-7.651026025414467">
        <ele>314.97000000000003</ele>
        <time>2025-04-30T09:12:02Z</time>
      </trkpt>
      <trkpt lat="43.679472981020808" lon="-7.650985037907958">
        <ele>312.56999999999999</ele>
        <time>2025-04-30T09:12:03Z</time>
      </trkpt>
      <trkpt lat="43.679531989619136" lon="-7.650975985452533">
        <ele>309.68000000000001</ele>
        <time>2025-04-30T09:12:04Z</time>
      </trkpt>
      <trkpt lat="43.67962502874434" lon="-7.651003981009126">
        <ele>307.27999999999997</ele>
        <time>2025-04-30T09:12:05Z</time>
      </trkpt>
      <trkpt lat="43.67966802790761" lon="-7.651037005707622">
        <ele>304.88</ele>
        <time>2025-04-30T09:12:06Z</time>
      </trkpt>
      <trkpt lat="43.67971102707088" lon="-7.651071036234498">
        <ele>302.47000000000003</ele>
        <time>2025-04-30T09:12:07Z</time>
      </trkpt>
      <trkpt lat="43.679758971557021" lon="-7.651109006255865">
        <ele>300.55000000000001</ele>
        <time>2025-04-30T09:12:08Z</time>
      </trkpt>
      <trkpt lat="43.679817980155349" lon="-7.651155022904277">
        <ele>298.14999999999998</ele>
        <time>2025-04-30T09:12:09Z</time>
      </trkpt>
      <trkpt lat="43.679882017895579" lon="-7.651204979047179">
        <ele>295.74000000000001</ele>
        <time>2025-04-30T09:12:10Z</time>
      </trkpt>
      <trkpt lat="43.679966004565358" lon="-7.651229035109282">
        <ele>293.33999999999997</ele>
        <time>2025-04-30T09:12:11Z</time>
      </trkpt>
      <trkpt lat="43.680058037862182" lon="-7.651255019009113">
        <ele>290.94</ele>
        <time>2025-04-30T09:12:12Z</time>
      </trkpt>
      <trkpt lat="43.680144958198071" lon="-7.651279997080565">
        <ele>288.52999999999997</ele>
        <time>2025-04-30T09:12:13Z</time>
      </trkpt>
      <trkpt lat="43.680237997323275" lon="-7.651265999302268">
        <ele>286.61000000000001</ele>
        <time>2025-04-30T09:12:14Z</time>
      </trkpt>
      <trkpt lat="43.680317960679531" lon="-7.651230962947011">
        <ele>284.69</ele>
        <time>2025-04-30T09:12:15Z</time>
      </trkpt>
      <trkpt lat="43.680469002574682" lon="-7.651051003485918">
        <ele>280.83999999999997</ele>
        <time>2025-04-30T09:12:17Z</time>
      </trkpt>
      <trkpt lat="43.680547960102558" lon="-7.651008004322648">
        <ele>279.39999999999998</ele>
        <time>2025-04-30T09:12:18Z</time>
      </trkpt>
      <trkpt lat="43.680802015587687" lon="-7.650870038196445">
        <ele>274.58999999999997</ele>
        <time>2025-04-30T09:12:21Z</time>
      </trkpt>
      <trkpt lat="43.680992033332586" lon="-7.650767024606466">
        <ele>270.75</ele>
        <time>2025-04-30T09:12:23Z</time>
      </trkpt>
      <trkpt lat="43.681364022195339" lon="-7.650597039610148">
        <ele>262.10000000000002</ele>
        <time>2025-04-30T09:12:27Z</time>
      </trkpt>
      <trkpt lat="43.681462006643414" lon="-7.650564014911652">
        <ele>260.17000000000002</ele>
        <time>2025-04-30T09:12:28Z</time>
      </trkpt>
      <trkpt lat="43.681554039940238" lon="-7.650533001869917">
        <ele>257.76999999999998</ele>
        <time>2025-04-30T09:12:29Z</time>
      </trkpt>
      <trkpt lat="43.681639032438397" lon="-7.650505006313324">
        <ele>255.84999999999999</ele>
        <time>2025-04-30T09:12:30Z</time>
      </trkpt>
      <trkpt lat="43.681725030764937" lon="-7.65047600492835">
        <ele>254.41</ele>
        <time>2025-04-30T09:12:31Z</time>
      </trkpt>
      <trkpt lat="43.681813962757587" lon="-7.650447003543377">
        <ele>253.44</ele>
        <time>2025-04-30T09:12:32Z</time>
      </trkpt>
      <trkpt lat="43.6819670163095" lon="-7.650426970794797">
        <ele>252.47999999999999</ele>
        <time>2025-04-30T09:12:33Z</time>
      </trkpt>
      <trkpt lat="43.682163991034031" lon="-7.650493020191789">
        <ele>251.03999999999999</ele>
        <time>2025-04-30T09:12:35Z</time>
      </trkpt>
      <trkpt lat="43.682267004624009" lon="-7.650556974112988">
        <ele>250.56</ele>
        <time>2025-04-30T09:12:36Z</time>
      </trkpt>
      <trkpt lat="43.682343028485775" lon="-7.650607014074922">
        <ele>250.08000000000001</ele>
        <time>2025-04-30T09:12:37Z</time>
      </trkpt>
      <trkpt lat="43.682434977963567" lon="-7.650669040158391">
        <ele>250.56</ele>
        <time>2025-04-30T09:12:38Z</time>
      </trkpt>
      <trkpt lat="43.682489963248372" lon="-7.650736011564732">
        <ele>251.52000000000001</ele>
        <time>2025-04-30T09:12:39Z</time>
      </trkpt>
      <trkpt lat="43.6825489718467" lon="-7.650808012112975">
        <ele>252.96000000000001</ele>
        <time>2025-04-30T09:12:40Z</time>
      </trkpt>
      <trkpt lat="43.682605968788266" lon="-7.650878001004458">
        <ele>254.41</ele>
        <time>2025-04-30T09:12:41Z</time>
      </trkpt>
      <trkpt lat="43.682658020406961" lon="-7.650942038744688">
        <ele>255.84999999999999</ele>
        <time>2025-04-30T09:12:42Z</time>
      </trkpt>
      <trkpt lat="43.682932024821639" lon="-7.651250995695591">
        <ele>264.98000000000002</ele>
        <time>2025-04-30T09:12:50Z</time>
      </trkpt>
      <trkpt lat="43.683250034227967" lon="-7.6515700109303">
        <ele>268.82999999999998</ele>
        <time>2025-04-30T09:13:00Z</time>
      </trkpt>
      <trkpt lat="43.683251040056348" lon="-7.651573028415442">
        <ele>269.31</ele>
        <time>2025-04-30T09:13:01Z</time>
      </trkpt>
      <trkpt lat="43.683267971500754" lon="-7.65170001424849">
        <ele>269.79000000000002</ele>
        <time>2025-04-30T09:13:03Z</time>
      </trkpt>
      <trkpt lat="43.68327802978456" lon="-7.651773020625114">
        <ele>270.26999999999998</ele>
        <time>2025-04-30T09:13:04Z</time>
      </trkpt>
      <trkpt lat="43.683289010077715" lon="-7.651854995638132">
        <ele>270.26999999999998</ele>
        <time>2025-04-30T09:13:05Z</time>
      </trkpt>
      <trkpt lat="43.683314993977547" lon="-7.652041995897889">
        <ele>270.75</ele>
        <time>2025-04-30T09:13:06Z</time>
      </trkpt>
      <trkpt lat="43.683331003412604" lon="-7.65206404030323">
        <ele>270.75</ele>
        <time>2025-04-30T09:13:07Z</time>
      </trkpt>
      <trkpt lat="43.683440973982215" lon="-7.652209969237447">
        <ele>270.75</ele>
        <time>2025-04-30T09:13:09Z</time>
      </trkpt>
      <trkpt lat="43.683812040835619" lon="-7.653030976653099">
        <ele>268.35000000000002</ele>
        <time>2025-04-30T09:13:16Z</time>
      </trkpt>
      <trkpt lat="43.683820003643632" lon="-7.653171960264444">
        <ele>267.86000000000001</ele>
        <time>2025-04-30T09:13:17Z</time>
      </trkpt>
      <trkpt lat="43.683834001421928" lon="-7.653431966900826">
        <ele>267.38</ele>
        <time>2025-04-30T09:13:19Z</time>
      </trkpt>
      <trkpt lat="43.683839030563831" lon="-7.653532968834043">
        <ele>266.89999999999998</ele>
        <time>2025-04-30T09:13:20Z</time>
      </trkpt>
      <trkpt lat="43.683851016685367" lon="-7.653759028762579">
        <ele>266.42000000000002</ele>
        <time>2025-04-30T09:13:21Z</time>
      </trkpt>
      <trkpt lat="43.683910025283694" lon="-7.65380303375423">
        <ele>266.42000000000002</ele>
        <time>2025-04-30T09:13:22Z</time>
      </trkpt>
      <trkpt lat="43.683981020003557" lon="-7.653858019039035">
        <ele>266.42000000000002</ele>
        <time>2025-04-30T09:13:23Z</time>
      </trkpt>
      <trkpt lat="43.684129966422915" lon="-7.653973018750548">
        <ele>266.42000000000002</ele>
        <time>2025-04-30T09:13:24Z</time>
      </trkpt>
      <trkpt lat="43.684129966422915" lon="-7.653973018750548">
        <ele>266.42000000000002</ele>
        <time>2025-04-30T09:13:25Z</time>
      </trkpt>
      <trkpt lat="43.684165002778172" lon="-7.654073014855385">
        <ele>265.94</ele>
        <time>2025-04-30T09:13:26Z</time>
      </trkpt>
      <trkpt lat="43.684206996113062" lon="-7.654194971546531">
        <ele>265.94</ele>
        <time>2025-04-30T09:13:27Z</time>
      </trkpt>
      <trkpt lat="43.684247983619571" lon="-7.654315000399947">
        <ele>265.94</ele>
        <time>2025-04-30T09:13:28Z</time>
      </trkpt>
      <trkpt lat="43.684283019974828" lon="-7.654416002333164">
        <ele>265.45999999999998</ele>
        <time>2025-04-30T09:13:29Z</time>
      </trkpt>
      <trkpt lat="43.684307998046279" lon="-7.65449102036655">
        <ele>264.5</ele>
        <time>2025-04-30T09:13:30Z</time>
      </trkpt>
      <trkpt lat="43.684400031343102" lon="-7.654651030898094">
        <ele>264.01999999999998</ele>
        <time>2025-04-30T09:13:31Z</time>
      </trkpt>
      <trkpt lat="43.684484018012881" lon="-7.654628986492753">
        <ele>263.54000000000002</ele>
        <time>2025-04-30T09:13:32Z</time>
      </trkpt>
      <trkpt lat="43.684575967490673" lon="-7.654604008421302">
        <ele>263.06</ele>
        <time>2025-04-30T09:13:33Z</time>
      </trkpt>
      <trkpt lat="43.684664983302355" lon="-7.654580036178231">
        <ele>262.10000000000002</ele>
        <time>2025-04-30T09:13:34Z</time>
      </trkpt>
      <trkpt lat="43.684735978022218" lon="-7.65447199344635">
        <ele>261.62</ele>
        <time>2025-04-30T09:13:35Z</time>
      </trkpt>
      <trkpt lat="43.684774031862617" lon="-7.654392030090094">
        <ele>261.13999999999999</ele>
        <time>2025-04-30T09:13:36Z</time>
      </trkpt>
      <trkpt lat="43.684817031025887" lon="-7.654301002621651">
        <ele>260.64999999999998</ele>
        <time>2025-04-30T09:13:37Z</time>
      </trkpt>
      <trkpt lat="43.684862963855267" lon="-7.654204024001956">
        <ele>259.69</ele>
        <time>2025-04-30T09:13:38Z</time>
      </trkpt>
      <trkpt lat="43.684880984947085" lon="-7.654165970161557">
        <ele>258.25</ele>
        <time>2025-04-30T09:13:39Z</time>
      </trkpt>
      <trkpt lat="43.684965977445245" lon="-7.654071003198624">
        <ele>256.32999999999998</ele>
        <time>2025-04-30T09:13:40Z</time>
      </trkpt>
      <trkpt lat="43.685028003528714" lon="-7.654001014307141">
        <ele>254.41</ele>
        <time>2025-04-30T09:13:41Z</time>
      </trkpt>
      <trkpt lat="43.685071002691984" lon="-7.653970001265407">
        <ele>252.96000000000001</ele>
        <time>2025-04-30T09:13:42Z</time>
      </trkpt>
      <trkpt lat="43.685160018503666" lon="-7.653951980173588">
        <ele>251.52000000000001</ele>
        <time>2025-04-30T09:13:43Z</time>
      </trkpt>
      <trkpt lat="43.6852359585464" lon="-7.653979975730181">
        <ele>250.08000000000001</ele>
        <time>2025-04-30T09:13:44Z</time>
      </trkpt>
      <trkpt lat="43.68534198962152" lon="-7.654020041227341">
        <ele>249.12</ele>
        <time>2025-04-30T09:13:45Z</time>
      </trkpt>
      <trkpt lat="43.685464030131698" lon="-7.65406496822834">
        <ele>247.68000000000001</ele>
        <time>2025-04-30T09:13:46Z</time>
      </trkpt>
      <trkpt lat="43.685583975166082" lon="-7.654110984876752">
        <ele>246.22999999999999</ele>
        <time>2025-04-30T09:13:47Z</time>
      </trkpt>
      <trkpt lat="43.685675002634525" lon="-7.654145015403628">
        <ele>244.31</ele>
        <time>2025-04-30T09:13:48Z</time>
      </trkpt>
      <trkpt lat="43.685811962932348" lon="-7.654106039553881">
        <ele>243.34999999999999</ele>
        <time>2025-04-30T09:13:49Z</time>
      </trkpt>
      <trkpt lat="43.685872983187437" lon="-7.65402196906507">
        <ele>241.43000000000001</ele>
        <time>2025-04-30T09:13:50Z</time>
      </trkpt>
      <trkpt lat="43.685889998450875" lon="-7.653994979336858">
        <ele>239.99000000000001</ele>
        <time>2025-04-30T09:13:51Z</time>
      </trkpt>
      <trkpt lat="43.685907013714314" lon="-7.653863970190287">
        <ele>238.53999999999999</ele>
        <time>2025-04-30T09:13:52Z</time>
      </trkpt>
      <trkpt lat="43.685923023149371" lon="-7.653735978528857">
        <ele>236.62</ele>
        <time>2025-04-30T09:13:53Z</time>
      </trkpt>
      <trkpt lat="43.685942972078919" lon="-7.653586026281118">
        <ele>234.69999999999999</ele>
        <time>2025-04-30T09:13:54Z</time>
      </trkpt>
      <trkpt lat="43.685954036191106" lon="-7.653501033782959">
        <ele>233.25999999999999</ele>
        <time>2025-04-30T09:13:55Z</time>
      </trkpt>
      <trkpt lat="43.686018995940685" lon="-7.653305986896157">
        <ele>231.33000000000001</ele>
        <time>2025-04-30T09:13:56Z</time>
      </trkpt>
      <trkpt lat="43.686071969568729" lon="-7.653218982741237">
        <ele>229.41</ele>
        <time>2025-04-30T09:13:57Z</time>
      </trkpt>
      <trkpt lat="43.686126032844186" lon="-7.653179001063108">
        <ele>227.97</ele>
        <time>2025-04-30T09:13:58Z</time>
      </trkpt>
      <trkpt lat="43.686245977878571" lon="-7.653169026598334">
        <ele>226.53</ele>
        <time>2025-04-30T09:13:59Z</time>
      </trkpt>
      <trkpt lat="43.686338011175394" lon="-7.65316198579967">
        <ele>225.56999999999999</ele>
        <time>2025-04-30T09:14:00Z</time>
      </trkpt>
      <trkpt lat="43.686398025602102" lon="-7.653176989406347">
        <ele>225.56999999999999</ele>
        <time>2025-04-30T09:14:01Z</time>
      </trkpt>
      <trkpt lat="43.686458962038159" lon="-7.653253013268113">
        <ele>225.09</ele>
        <time>2025-04-30T09:14:02Z</time>
      </trkpt>
      <trkpt lat="43.686527023091912" lon="-7.653336999937892">
        <ele>224.61000000000001</ele>
        <time>2025-04-30T09:14:03Z</time>
      </trkpt>
      <trkpt lat="43.68658603169024" lon="-7.653445964679122">
        <ele>224.12</ele>
        <time>2025-04-30T09:14:04Z</time>
      </trkpt>
      <trkpt lat="43.686646968126297" lon="-7.653589965775609">
        <ele>223.16</ele>
        <time>2025-04-30T09:14:05Z</time>
      </trkpt>
      <trkpt lat="43.687071008607745" lon="-7.65449202619493">
        <ele>215.47</ele>
        <time>2025-04-30T09:14:11Z</time>
      </trkpt>
      <trkpt lat="43.68716899305582" lon="-7.654649019241333">
        <ele>214.50999999999999</ele>
        <time>2025-04-30T09:14:12Z</time>
      </trkpt>
      <trkpt lat="43.687509968876839" lon="-7.654843982309103">
        <ele>212.11000000000001</ele>
        <time>2025-04-30T09:14:15Z</time>
      </trkpt>
      <trkpt lat="43.687623040750623" lon="-7.654894022271037">
        <ele>211.15000000000001</ele>
        <time>2025-04-30T09:14:16Z</time>
      </trkpt>
      <trkpt lat="43.687734017148614" lon="-7.654941966757178">
        <ele>210.19</ele>
        <time>2025-04-30T09:14:17Z</time>
      </trkpt>
      <trkpt lat="43.687839964404702" lon="-7.65498798340559">
        <ele>209.69999999999999</ele>
        <time>2025-04-30T09:14:18Z</time>
      </trkpt>
      <trkpt lat="43.687970973551273" lon="-7.655045986175537">
        <ele>208.74000000000001</ele>
        <time>2025-04-30T09:14:19Z</time>
      </trkpt>
      <trkpt lat="43.688044985756278" lon="-7.655130978673697">
        <ele>207.78</ele>
        <time>2025-04-30T09:14:20Z</time>
      </trkpt>
      <trkpt lat="43.688666000962257" lon="-7.655803961679339">
        <ele>197.21000000000001</ele>
        <time>2025-04-30T09:14:27Z</time>
      </trkpt>
      <trkpt lat="43.688728027045727" lon="-7.655852995812893">
        <ele>195.28</ele>
        <time>2025-04-30T09:14:28Z</time>
      </trkpt>
      <trkpt lat="43.688808996230364" lon="-7.655794993042946">
        <ele>193.84</ele>
        <time>2025-04-30T09:14:29Z</time>
      </trkpt>
      <trkpt lat="43.688828023150563" lon="-7.655757023021579">
        <ele>192.88</ele>
        <time>2025-04-30T09:14:30Z</time>
      </trkpt>
      <trkpt lat="43.68884596042335" lon="-7.655693991109729">
        <ele>191.44</ele>
        <time>2025-04-30T09:14:31Z</time>
      </trkpt>
      <trkpt lat="43.688826011493802" lon="-7.655622996389866">
        <ele>190.47999999999999</ele>
        <time>2025-04-30T09:14:32Z</time>
      </trkpt>
      <trkpt lat="43.68879902176559" lon="-7.655527023598552">
        <ele>189.52000000000001</ele>
        <time>2025-04-30T09:14:33Z</time>
      </trkpt>
      <trkpt lat="43.688771026208997" lon="-7.655426021665335">
        <ele>188.08000000000001</ele>
        <time>2025-04-30T09:14:34Z</time>
      </trkpt>
      <trkpt lat="43.688743030652404" lon="-7.655324013903737">
        <ele>187.11000000000001</ele>
        <time>2025-04-30T09:14:35Z</time>
      </trkpt>
      <trkpt lat="43.68871402926743" lon="-7.655221000313759">
        <ele>185.66999999999999</ele>
        <time>2025-04-30T09:14:36Z</time>
      </trkpt>
      <trkpt lat="43.688701037317514" lon="-7.655141036957502">
        <ele>184.71000000000001</ele>
        <time>2025-04-30T09:14:37Z</time>
      </trkpt>
      <trkpt lat="43.688701037317514" lon="-7.655047997832298">
        <ele>183.75</ele>
        <time>2025-04-30T09:14:38Z</time>
      </trkpt>
      <trkpt lat="43.688701037317514" lon="-7.654956970363855">
        <ele>182.78999999999999</ele>
        <time>2025-04-30T09:14:39Z</time>
      </trkpt>
      <trkpt lat="43.688701037317514" lon="-7.654873989522457">
        <ele>182.31</ele>
        <time>2025-04-30T09:14:40Z</time>
      </trkpt>
      <trkpt lat="43.688724003732204" lon="-7.654773993417621">
        <ele>182.31</ele>
        <time>2025-04-30T09:14:41Z</time>
      </trkpt>
      <trkpt lat="43.688792986795306" lon="-7.65472898259759">
        <ele>182.78999999999999</ele>
        <time>2025-04-30T09:14:42Z</time>
      </trkpt>
      <trkpt lat="43.688872028142214" lon="-7.654679026454687">
        <ele>184.22999999999999</ele>
        <time>2025-04-30T09:14:43Z</time>
      </trkpt>
      <trkpt lat="43.689625980332494" lon="-7.654194971546531">
        <ele>197.69</ele>
        <time>2025-04-30T09:14:52Z</time>
      </trkpt>
      <trkpt lat="43.689625980332494" lon="-7.654194971546531">
        <ele>199.13</ele>
        <time>2025-04-30T09:14:53Z</time>
      </trkpt>
      <trkpt lat="43.689733017235994" lon="-7.65412699431181">
        <ele>200.09</ele>
        <time>2025-04-30T09:14:54Z</time>
      </trkpt>
      <trkpt lat="43.689771993085742" lon="-7.654101010411978">
        <ele>201.53</ele>
        <time>2025-04-30T09:14:55Z</time>
      </trkpt>
      <trkpt lat="43.68980803526938" lon="-7.654078966006637">
        <ele>202.97999999999999</ele>
        <time>2025-04-30T09:14:56Z</time>
      </trkpt>
      <trkpt lat="43.689837958663702" lon="-7.654059017077088">
        <ele>204.41999999999999</ele>
        <time>2025-04-30T09:14:57Z</time>
      </trkpt>
      <trkpt lat="43.689898978918791" lon="-7.65402096323669">
        <ele>205.38</ele>
        <time>2025-04-30T09:14:58Z</time>
      </trkpt>
      <trkpt lat="43.690142976120114" lon="-7.65387000516057">
        <ele>209.69999999999999</ele>
        <time>2025-04-30T09:15:02Z</time>
      </trkpt>
      <trkpt lat="43.690194021910429" lon="-7.653838992118835">
        <ele>210.66999999999999</ele>
        <time>2025-04-30T09:15:03Z</time>
      </trkpt>
      <trkpt lat="43.690230986103415" lon="-7.653816025704145">
        <ele>212.11000000000001</ele>
        <time>2025-04-30T09:15:04Z</time>
      </trkpt>
      <trkpt lat="43.690288988873363" lon="-7.653736984357238">
        <ele>213.06999999999999</ele>
        <time>2025-04-30T09:15:05Z</time>
      </trkpt>
      <trkpt lat="43.690288988873363" lon="-7.653691973537207">
        <ele>213.55000000000001</ele>
        <time>2025-04-30T09:15:06Z</time>
      </trkpt>
      <trkpt lat="43.690288988873363" lon="-7.65363397076726">
        <ele>214.50999999999999</ele>
        <time>2025-04-30T09:15:07Z</time>
      </trkpt>
      <trkpt lat="43.690288988873363" lon="-7.653544032946229">
        <ele>214.99000000000001</ele>
        <time>2025-04-30T09:15:08Z</time>
      </trkpt>
      <trkpt lat="43.690299969166517" lon="-7.653524000197649">
        <ele>215.94999999999999</ele>
        <time>2025-04-30T09:15:09Z</time>
      </trkpt>
      <trkpt lat="43.690339028835297" lon="-7.653460968285799">
        <ele>216.43000000000001</ele>
        <time>2025-04-30T09:15:10Z</time>
      </trkpt>
      <trkpt lat="43.690381022170186" lon="-7.653389973565936">
        <ele>216.91</ele>
        <time>2025-04-30T09:15:11Z</time>
      </trkpt>
      <trkpt lat="43.69043399579823" lon="-7.653320990502834">
        <ele>217.40000000000001</ele>
        <time>2025-04-30T09:15:12Z</time>
      </trkpt>
      <trkpt lat="43.690513959154487" lon="-7.653285032138228">
        <ele>217.40000000000001</ele>
        <time>2025-04-30T09:15:13Z</time>
      </trkpt>
      <trkpt lat="43.690612027421594" lon="-7.65326701104641">
        <ele>216.91</ele>
        <time>2025-04-30T09:15:14Z</time>
      </trkpt>
      <trkpt lat="43.691606959328055" lon="-7.653085961937904">
        <ele>208.25999999999999</ele>
        <time>2025-04-30T09:15:21Z</time>
      </trkpt>
      <trkpt lat="43.691886998713017" lon="-7.653034999966621">
        <ele>205.38</ele>
        <time>2025-04-30T09:15:23Z</time>
      </trkpt>
      <trkpt lat="43.692000992596149" lon="-7.653044974431396">
        <ele>203.94</ele>
        <time>2025-04-30T09:15:24Z</time>
      </trkpt>
      <trkpt lat="43.692098977044225" lon="-7.653108006343246">
        <ele>202.00999999999999</ele>
        <time>2025-04-30T09:15:25Z</time>
      </trkpt>
      <trkpt lat="43.692410029470921" lon="-7.653358038514853">
        <ele>196.25</ele>
        <time>2025-04-30T09:15:28Z</time>
      </trkpt>
      <trkpt lat="43.692506002262235" lon="-7.653317973017693">
        <ele>194.31999999999999</ele>
        <time>2025-04-30T09:15:29Z</time>
      </trkpt>
      <trkpt lat="43.692557970061898" lon="-7.653240021318197">
        <ele>192.40000000000001</ele>
        <time>2025-04-30T09:15:30Z</time>
      </trkpt>
      <trkpt lat="43.69262401945889" lon="-7.653141031041741">
        <ele>190.96000000000001</ele>
        <time>2025-04-30T09:15:31Z</time>
      </trkpt>
      <trkpt lat="43.692704988643527" lon="-7.653018990531564">
        <ele>189.03999999999999</ele>
        <time>2025-04-30T09:15:32Z</time>
      </trkpt>
      <trkpt lat="43.69279601611197" lon="-7.652884041890502">
        <ele>187.11000000000001</ele>
        <time>2025-04-30T09:15:33Z</time>
      </trkpt>
      <trkpt lat="43.692891988903284" lon="-7.652739034965634">
        <ele>185.19</ele>
        <time>2025-04-30T09:15:34Z</time>
      </trkpt>
      <trkpt lat="43.693093992769718" lon="-7.652454972267151">
        <ele>181.34999999999999</ele>
        <time>2025-04-30T09:15:36Z</time>
      </trkpt>
      <trkpt lat="43.693201029673219" lon="-7.652348019182682">
        <ele>178.94</ele>
        <time>2025-04-30T09:15:37Z</time>
      </trkpt>
      <trkpt lat="43.693314017727971" lon="-7.652298985049129">
        <ele>176.53999999999999</ele>
        <time>2025-04-30T09:15:38Z</time>
      </trkpt>
      <trkpt lat="43.693410996347666" lon="-7.652329998090863">
        <ele>174.62</ele>
        <time>2025-04-30T09:15:39Z</time>
      </trkpt>
      <trkpt lat="43.693520966917276" lon="-7.65236503444612">
        <ele>172.69</ele>
        <time>2025-04-30T09:15:40Z</time>
      </trkpt>
      <trkpt lat="43.693630015477538" lon="-7.652399986982346">
        <ele>170.77000000000001</ele>
        <time>2025-04-30T09:15:41Z</time>
      </trkpt>
      <trkpt lat="43.693729005753994" lon="-7.652432005852461">
        <ele>168.37</ele>
        <time>2025-04-30T09:15:42Z</time>
      </trkpt>
      <trkpt lat="43.693831013515592" lon="-7.65245002694428">
        <ele>166.44999999999999</ele>
        <time>2025-04-30T09:15:43Z</time>
      </trkpt>
      <trkpt lat="43.693926986306906" lon="-7.65245002694428">
        <ele>164.52000000000001</ele>
        <time>2025-04-30T09:15:44Z</time>
      </trkpt>
      <trkpt lat="43.69400099851191" lon="-7.652396969497204">
        <ele>162.59999999999999</ele>
        <time>2025-04-30T09:15:45Z</time>
      </trkpt>
      <trkpt lat="43.694055983796716" lon="-7.652312982827425">
        <ele>160.68000000000001</ele>
        <time>2025-04-30T09:15:46Z</time>
      </trkpt>
      <trkpt lat="43.694108035415411" lon="-7.65219203196466">
        <ele>158.75</ele>
        <time>2025-04-30T09:15:47Z</time>
      </trkpt>
      <trkpt lat="43.694108035415411" lon="-7.652056999504566">
        <ele>156.83000000000001</ele>
        <time>2025-04-30T09:15:48Z</time>
      </trkpt>
      <trkpt lat="43.694098982959986" lon="-7.651877962052822">
        <ele>154.43000000000001</ele>
        <time>2025-04-30T09:15:49Z</time>
      </trkpt>
      <trkpt lat="43.694070987403393" lon="-7.651691967621446">
        <ele>152.99000000000001</ele>
        <time>2025-04-30T09:15:50Z</time>
      </trkpt>
      <trkpt lat="43.694045003503561" lon="-7.651519970968366">
        <ele>151.53999999999999</ele>
        <time>2025-04-30T09:15:51Z</time>
      </trkpt>
      <trkpt lat="43.69402295909822" lon="-7.651372030377388">
        <ele>150.09999999999999</ele>
        <time>2025-04-30T09:15:52Z</time>
      </trkpt>
      <trkpt lat="43.694008961319923" lon="-7.651212019845843">
        <ele>149.13999999999999</ele>
        <time>2025-04-30T09:15:53Z</time>
      </trkpt>
      <trkpt lat="43.694080039858818" lon="-7.651085034012795">
        <ele>148.18000000000001</ele>
        <time>2025-04-30T09:15:54Z</time>
      </trkpt>
      <trkpt lat="43.694160003215075" lon="-7.650943966582418">
        <ele>147.22</ele>
        <time>2025-04-30T09:15:55Z</time>
      </trkpt>
      <trkpt lat="43.694242984056473" lon="-7.65079602599144">
        <ele>146.25999999999999</ele>
        <time>2025-04-30T09:15:56Z</time>
      </trkpt>
      <trkpt lat="43.694498967379332" lon="-7.650342984125018">
        <ele>141.44999999999999</ele>
        <time>2025-04-30T09:15:59Z</time>
      </trkpt>
      <trkpt lat="43.69457901455462" lon="-7.650199988856912">
        <ele>140.00999999999999</ele>
        <time>2025-04-30T09:16:00Z</time>
      </trkpt>
      <trkpt lat="43.694727960973978" lon="-7.649935958907008">
        <ele>137.61000000000001</ele>
        <time>2025-04-30T09:16:02Z</time>
      </trkpt>
      <trkpt lat="43.694796022027731" lon="-7.649816013872623">
        <ele>136.16</ele>
        <time>2025-04-30T09:16:03Z</time>
      </trkpt>
      <trkpt lat="43.694872967898846" lon="-7.649689028039575">
        <ele>134.72</ele>
        <time>2025-04-30T09:16:04Z</time>
      </trkpt>
      <trkpt lat="43.694959972053766" lon="-7.64959498308599">
        <ele>133.28</ele>
        <time>2025-04-30T09:16:05Z</time>
      </trkpt>
      <trkpt lat="43.695047982037067" lon="-7.649502027779818">
        <ele>131.84</ele>
        <time>2025-04-30T09:16:06Z</time>
      </trkpt>
      <trkpt lat="43.695131968706846" lon="-7.649412006139755">
        <ele>130.40000000000001</ele>
        <time>2025-04-30T09:16:07Z</time>
      </trkpt>
      <trkpt lat="43.6951810028404" lon="-7.649360038340092">
        <ele>129.43000000000001</ele>
        <time>2025-04-30T09:16:08Z</time>
      </trkpt>
      <trkpt lat="43.695216039195657" lon="-7.649244032800198">
        <ele>127.98999999999999</ele>
        <time>2025-04-30T09:16:09Z</time>
      </trkpt>
      <trkpt lat="43.695245962589979" lon="-7.649130960926414">
        <ele>126.55</ele>
        <time>2025-04-30T09:16:10Z</time>
      </trkpt>
      <trkpt lat="43.695260966196656" lon="-7.648961981758475">
        <ele>125.11</ele>
        <time>2025-04-30T09:16:11Z</time>
      </trkpt>
      <trkpt lat="43.695276975631714" lon="-7.648768024519086">
        <ele>123.67</ele>
        <time>2025-04-30T09:16:12Z</time>
      </trkpt>
      <trkpt lat="43.695495994761586" lon="-7.647169008851051">
        <ele>117.90000000000001</ele>
        <time>2025-04-30T09:16:20Z</time>
      </trkpt>
      <trkpt lat="43.69574099779129" lon="-7.64516900293529">
        <ele>120.78</ele>
        <time>2025-04-30T09:16:30Z</time>
      </trkpt>
      <trkpt lat="43.695709984749556" lon="-7.644983008503914">
        <ele>120.3</ele>
        <time>2025-04-30T09:16:31Z</time>
      </trkpt>
      <trkpt lat="43.69567796587944" lon="-7.644791984930635">
        <ele>120.78</ele>
        <time>2025-04-30T09:16:32Z</time>
      </trkpt>
      <trkpt lat="43.695442015305161" lon="-7.643498992547393">
        <ele>119.34</ele>
        <time>2025-04-30T09:16:40Z</time>
      </trkpt>
      <trkpt lat="43.695406978949904" lon="-7.642106004059315">
        <ele>126.06999999999999</ele>
        <time>2025-04-30T09:16:49Z</time>
      </trkpt>
      <trkpt lat="43.695420976728201" lon="-7.64203098602593">
        <ele>126.55</ele>
        <time>2025-04-30T09:16:50Z</time>
      </trkpt>
      <trkpt lat="43.695506975054741" lon="-7.641874998807907">
        <ele>127.98999999999999</ele>
        <time>2025-04-30T09:16:54Z</time>
      </trkpt>
      <trkpt lat="43.695533964782953" lon="-7.6419029943645">
        <ele>128.47</ele>
        <time>2025-04-30T09:16:55Z</time>
      </trkpt>
      <trkpt lat="43.695579981431365" lon="-7.641948005184531">
        <ele>128.94999999999999</ele>
        <time>2025-04-30T09:16:56Z</time>
      </trkpt>
      <trkpt lat="43.696279032155871" lon="-7.642416972666979">
        <ele>135.19999999999999</ele>
        <time>2025-04-30T09:17:04Z</time>
      </trkpt>
      <trkpt lat="43.696862999349833" lon="-7.6427629776299">
        <ele>140.49000000000001</ele>
        <time>2025-04-30T09:17:09Z</time>
      </trkpt>
      <trkpt lat="43.696966012939811" lon="-7.642818968743086">
        <ele>141.44999999999999</ele>
        <time>2025-04-30T09:17:10Z</time>
      </trkpt>
      <trkpt lat="43.697056034579873" lon="-7.642908990383148">
        <ele>142.41</ele>
        <time>2025-04-30T09:17:11Z</time>
      </trkpt>
      <trkpt lat="43.697133986279368" lon="-7.642987025901675">
        <ele>143.37</ele>
        <time>2025-04-30T09:17:12Z</time>
      </trkpt>
      <trkpt lat="43.697174973785877" lon="-7.643120968714356">
        <ele>144.81999999999999</ele>
        <time>2025-04-30T09:17:13Z</time>
      </trkpt>
      <trkpt lat="43.697218978777528" lon="-7.643261030316353">
        <ele>145.78</ele>
        <time>2025-04-30T09:17:14Z</time>
      </trkpt>
      <trkpt lat="43.697235994040966" lon="-7.64340503141284">
        <ele>146.74000000000001</ele>
        <time>2025-04-30T09:17:15Z</time>
      </trkpt>
      <trkpt lat="43.697225013747811" lon="-7.643566969782114">
        <ele>148.18000000000001</ele>
        <time>2025-04-30T09:17:16Z</time>
      </trkpt>
      <trkpt lat="43.697214033454657" lon="-7.643735026940703">
        <ele>149.13999999999999</ele>
        <time>2025-04-30T09:17:17Z</time>
      </trkpt>
      <trkpt lat="43.697181008756161" lon="-7.644237019121647">
        <ele>152.50999999999999</ele>
        <time>2025-04-30T09:17:20Z</time>
      </trkpt>
      <trkpt lat="43.697167010977864" lon="-7.644710009917617">
        <ele>155.87</ele>
        <time>2025-04-30T09:17:23Z</time>
      </trkpt>
      <trkpt lat="43.697219984605908" lon="-7.645031036809087">
        <ele>158.27000000000001</ele>
        <time>2025-04-30T09:17:25Z</time>
      </trkpt>
      <trkpt lat="43.697263989597559" lon="-7.6451909635216">
        <ele>159.72</ele>
        <time>2025-04-30T09:17:26Z</time>
      </trkpt>
      <trkpt lat="43.697336995974183" lon="-7.645305041223764">
        <ele>160.68000000000001</ele>
        <time>2025-04-30T09:17:27Z</time>
      </trkpt>
      <trkpt lat="43.697407990694046" lon="-7.645391961559653">
        <ele>162.12</ele>
        <time>2025-04-30T09:17:28Z</time>
      </trkpt>
      <trkpt lat="43.697507986798882" lon="-7.645402019843459">
        <ele>163.08000000000001</ele>
        <time>2025-04-30T09:17:29Z</time>
      </trkpt>
      <trkpt lat="43.697621980682015" lon="-7.645402019843459">
        <ele>165</ele>
        <time>2025-04-30T09:17:30Z</time>
      </trkpt>
      <trkpt lat="43.697741003707051" lon="-7.645336976274848">
        <ele>166.44999999999999</ele>
        <time>2025-04-30T09:17:31Z</time>
      </trkpt>
      <trkpt lat="43.697862038388848" lon="-7.645268999040127">
        <ele>167.88999999999999</ele>
        <time>2025-04-30T09:17:32Z</time>
      </trkpt>
      <trkpt lat="43.698095977306366" lon="-7.64518903568387">
        <ele>170.77000000000001</ele>
        <time>2025-04-30T09:17:34Z</time>
      </trkpt>
      <trkpt lat="43.698207037523389" lon="-7.645180989056826">
        <ele>171.72999999999999</ele>
        <time>2025-04-30T09:17:35Z</time>
      </trkpt>
      <trkpt lat="43.698319019749761" lon="-7.645201021805406">
        <ele>172.69</ele>
        <time>2025-04-30T09:17:36Z</time>
      </trkpt>
      <trkpt lat="43.698432007804513" lon="-7.645261958241463">
        <ele>173.16999999999999</ele>
        <time>2025-04-30T09:17:37Z</time>
      </trkpt>
      <trkpt lat="43.698541978374124" lon="-7.64532096683979">
        <ele>174.13999999999999</ele>
        <time>2025-04-30T09:17:38Z</time>
      </trkpt>
      <trkpt lat="43.698628982529044" lon="-7.64542699791491">
        <ele>174.62</ele>
        <time>2025-04-30T09:17:39Z</time>
      </trkpt>
      <trkpt lat="43.698711963370442" lon="-7.645546020939946">
        <ele>175.58000000000001</ele>
        <time>2025-04-30T09:17:40Z</time>
      </trkpt>
      <trkpt lat="43.698774995282292" lon="-7.645687004551292">
        <ele>176.53999999999999</ele>
        <time>2025-04-30T09:17:41Z</time>
      </trkpt>
      <trkpt lat="43.698831992223859" lon="-7.645816002041102">
        <ele>177.5</ele>
        <time>2025-04-30T09:17:42Z</time>
      </trkpt>
      <trkpt lat="43.69887700304389" lon="-7.645929995924234">
        <ele>178.46000000000001</ele>
        <time>2025-04-30T09:17:43Z</time>
      </trkpt>
      <trkpt lat="43.698882032185793" lon="-7.646041978150606">
        <ele>179.41999999999999</ele>
        <time>2025-04-30T09:17:44Z</time>
      </trkpt>
      <trkpt lat="43.698841966688633" lon="-7.646150020882487">
        <ele>180.87</ele>
        <time>2025-04-30T09:17:45Z</time>
      </trkpt>
      <trkpt lat="43.69876803830266" lon="-7.64624398201704">
        <ele>182.31</ele>
        <time>2025-04-30T09:17:46Z</time>
      </trkpt>
      <trkpt lat="43.698658989742398" lon="-7.646354036405683">
        <ele>183.75</ele>
        <time>2025-04-30T09:17:47Z</time>
      </trkpt>
      <trkpt lat="43.698544995859265" lon="-7.646468030288816">
        <ele>185.19</ele>
        <time>2025-04-30T09:17:48Z</time>
      </trkpt>
      <trkpt lat="43.698438964784145" lon="-7.646593004465103">
        <ele>186.15000000000001</ele>
        <time>2025-04-30T09:17:49Z</time>
      </trkpt>
      <trkpt lat="43.698362018913031" lon="-7.646731976419687">
        <ele>187.59</ele>
        <time>2025-04-30T09:17:50Z</time>
      </trkpt>
      <trkpt lat="43.698333017528057" lon="-7.646862985566258">
        <ele>188.56</ele>
        <time>2025-04-30T09:17:51Z</time>
      </trkpt>
      <trkpt lat="43.698314996436238" lon="-7.64697203412652">
        <ele>190</ele>
        <time>2025-04-30T09:17:52Z</time>
      </trkpt>
      <trkpt lat="43.698328994214535" lon="-7.647093990817666">
        <ele>190.96000000000001</ele>
        <time>2025-04-30T09:17:53Z</time>
      </trkpt>
      <trkpt lat="43.698367970064282" lon="-7.647200021892786">
        <ele>192.40000000000001</ele>
        <time>2025-04-30T09:17:54Z</time>
      </trkpt>
      <trkpt lat="43.698438964784145" lon="-7.647304963320494">
        <ele>193.36000000000001</ele>
        <time>2025-04-30T09:17:55Z</time>
      </trkpt>
      <trkpt lat="43.698511971160769" lon="-7.647415017709136">
        <ele>194.31999999999999</ele>
        <time>2025-04-30T09:17:56Z</time>
      </trkpt>
      <trkpt lat="43.698565028607845" lon="-7.647548038512468">
        <ele>194.80000000000001</ele>
        <time>2025-04-30T09:17:57Z</time>
      </trkpt>
      <trkpt lat="43.698593024164438" lon="-7.647686004638672">
        <ele>194.80000000000001</ele>
        <time>2025-04-30T09:17:58Z</time>
      </trkpt>
      <trkpt lat="43.698582965880632" lon="-7.647833023220301">
        <ele>195.77000000000001</ele>
        <time>2025-04-30T09:17:59Z</time>
      </trkpt>
      <trkpt lat="43.698572991415858" lon="-7.647990016266704">
        <ele>195.77000000000001</ele>
        <time>2025-04-30T09:18:00Z</time>
      </trkpt>
      <trkpt lat="43.698567040264606" lon="-7.648471975699067">
        <ele>197.69</ele>
        <time>2025-04-30T09:18:03Z</time>
      </trkpt>
      <trkpt lat="43.698590006679296" lon="-7.648633997887373">
        <ele>198.16999999999999</ele>
        <time>2025-04-30T09:18:04Z</time>
      </trkpt>
      <trkpt lat="43.698612973093987" lon="-7.648790990933776">
        <ele>199.13</ele>
        <time>2025-04-30T09:18:05Z</time>
      </trkpt>
      <trkpt lat="43.698636023327708" lon="-7.648952007293701">
        <ele>200.09</ele>
        <time>2025-04-30T09:18:06Z</time>
      </trkpt>
      <trkpt lat="43.698621019721031" lon="-7.649126015603542">
        <ele>201.05000000000001</ele>
        <time>2025-04-30T09:18:07Z</time>
      </trkpt>
      <trkpt lat="43.698597969487309" lon="-7.649463973939419">
        <ele>202.49000000000001</ele>
        <time>2025-04-30T09:18:09Z</time>
      </trkpt>
      <trkpt lat="43.698681034147739" lon="-7.649767985567451">
        <ele>204.41999999999999</ele>
        <time>2025-04-30T09:18:11Z</time>
      </trkpt>
      <trkpt lat="43.698721015825868" lon="-7.649918021634221">
        <ele>205.38</ele>
        <time>2025-04-30T09:18:12Z</time>
      </trkpt>
      <trkpt lat="43.698800979182124" lon="-7.650046013295651">
        <ele>206.34</ele>
        <time>2025-04-30T09:18:13Z</time>
      </trkpt>
      <trkpt lat="43.698959983885288" lon="-7.6502800360322">
        <ele>208.25999999999999</ele>
        <time>2025-04-30T09:18:15Z</time>
      </trkpt>
      <trkpt lat="43.699056040495634" lon="-7.650358993560076">
        <ele>209.22</ele>
        <time>2025-04-30T09:18:16Z</time>
      </trkpt>
      <trkpt lat="43.699171962216496" lon="-7.650453960523009">
        <ele>209.69999999999999</ele>
        <time>2025-04-30T09:18:17Z</time>
      </trkpt>
      <trkpt lat="43.699275981634855" lon="-7.650444991886616">
        <ele>210.19</ele>
        <time>2025-04-30T09:18:18Z</time>
      </trkpt>
      <trkpt lat="43.699415037408471" lon="-7.6504319999367">
        <ele>211.15000000000001</ele>
        <time>2025-04-30T09:18:19Z</time>
      </trkpt>
      <trkpt lat="43.699568007141352" lon="-7.650416996330023">
        <ele>211.63</ele>
        <time>2025-04-30T09:18:20Z</time>
      </trkpt>
      <trkpt lat="43.699703039601445" lon="-7.650405010208488">
        <ele>212.59</ele>
        <time>2025-04-30T09:18:21Z</time>
      </trkpt>
      <trkpt lat="43.700287006795406" lon="-7.650317000225186">
        <ele>218.84</ele>
        <time>2025-04-30T09:18:26Z</time>
      </trkpt>
      <trkpt lat="43.700420027598739" lon="-7.650279030203819">
        <ele>219.31999999999999</ele>
        <time>2025-04-30T09:18:27Z</time>
      </trkpt>
      <trkpt lat="43.700563022866845" lon="-7.650237958878279">
        <ele>219.80000000000001</ele>
        <time>2025-04-30T09:18:28Z</time>
      </trkpt>
      <trkpt lat="43.700957978144288" lon="-7.650238964706659">
        <ele>219.80000000000001</ele>
        <time>2025-04-30T09:18:31Z</time>
      </trkpt>
      <trkpt lat="43.701059985905886" lon="-7.650293027982116">
        <ele>220.28</ele>
        <time>2025-04-30T09:18:32Z</time>
      </trkpt>
      <trkpt lat="43.701158976182342" lon="-7.650363016873598">
        <ele>220.75999999999999</ele>
        <time>2025-04-30T09:18:33Z</time>
      </trkpt>
      <trkpt lat="43.701248997822404" lon="-7.650472987443209">
        <ele>222.19999999999999</ele>
        <time>2025-04-30T09:18:34Z</time>
      </trkpt>
      <trkpt lat="43.701342958956957" lon="-7.650588992983103">
        <ele>222.68000000000001</ele>
        <time>2025-04-30T09:18:35Z</time>
      </trkpt>
      <trkpt lat="43.701425017789006" lon="-7.65068999491632">
        <ele>223.63999999999999</ele>
        <time>2025-04-30T09:18:36Z</time>
      </trkpt>
      <trkpt lat="43.701538005843759" lon="-7.650741040706635">
        <ele>224.12</ele>
        <time>2025-04-30T09:18:37Z</time>
      </trkpt>
      <trkpt lat="43.701636996120214" lon="-7.650786973536015">
        <ele>225.09</ele>
        <time>2025-04-30T09:18:38Z</time>
      </trkpt>
      <trkpt lat="43.701717965304852" lon="-7.650758977979422">
        <ele>226.05000000000001</ele>
        <time>2025-04-30T09:18:39Z</time>
      </trkpt>
      <trkpt lat="43.70182198472321" lon="-7.65068999491632">
        <ele>226.53</ele>
        <time>2025-04-30T09:18:40Z</time>
      </trkpt>
      <trkpt lat="43.701933966949582" lon="-7.650615982711315">
        <ele>227.49000000000001</ele>
        <time>2025-04-30T09:18:41Z</time>
      </trkpt>
      <trkpt lat="43.702041003853083" lon="-7.650543982163072">
        <ele>227.97</ele>
        <time>2025-04-30T09:18:42Z</time>
      </trkpt>
      <trkpt lat="43.702136976644397" lon="-7.650502994656563">
        <ele>228.44999999999999</ele>
        <time>2025-04-30T09:18:43Z</time>
      </trkpt>
      <trkpt lat="43.702226998284459" lon="-7.650524033233523">
        <ele>228.93000000000001</ele>
        <time>2025-04-30T09:18:44Z</time>
      </trkpt>
      <trkpt lat="43.702308973297477" lon="-7.650542976334691">
        <ele>229.88999999999999</ele>
        <time>2025-04-30T09:18:45Z</time>
      </trkpt>
      <trkpt lat="43.70238097384572" lon="-7.650559991598129">
        <ele>230.84999999999999</ele>
        <time>2025-04-30T09:18:46Z</time>
      </trkpt>
      <trkpt lat="43.70246403850615" lon="-7.650580024346709">
        <ele>231.33000000000001</ele>
        <time>2025-04-30T09:18:47Z</time>
      </trkpt>
      <trkpt lat="43.702561017125845" lon="-7.650583041831851">
        <ele>231.81</ele>
        <time>2025-04-30T09:18:48Z</time>
      </trkpt>
      <trkpt lat="43.702671993523836" lon="-7.650554040446878">
        <ele>232.78</ele>
        <time>2025-04-30T09:18:49Z</time>
      </trkpt>
      <trkpt lat="43.702783975750208" lon="-7.650505006313324">
        <ele>233.74000000000001</ele>
        <time>2025-04-30T09:18:50Z</time>
      </trkpt>
      <trkpt lat="43.702884977683425" lon="-7.650461001321673">
        <ele>234.22</ele>
        <time>2025-04-30T09:18:51Z</time>
      </trkpt>
      <trkpt lat="43.7029829621315" lon="-7.650436023250222">
        <ele>234.69999999999999</ele>
        <time>2025-04-30T09:18:52Z</time>
      </trkpt>
      <trkpt lat="43.703085975721478" lon="-7.650444991886616">
        <ele>235.18000000000001</ele>
        <time>2025-04-30T09:18:53Z</time>
      </trkpt>
      <trkpt lat="43.70319502428174" lon="-7.65045496635139">
        <ele>235.66</ele>
        <time>2025-04-30T09:18:54Z</time>
      </trkpt>
      <trkpt lat="43.704297998920083" lon="-7.650641966611147">
        <ele>245.27000000000001</ele>
        <time>2025-04-30T09:19:04Z</time>
      </trkpt>
      <trkpt lat="43.704948015511036" lon="-7.650574995204806">
        <ele>248.63999999999999</ele>
        <time>2025-04-30T09:19:12Z</time>
      </trkpt>
      <trkpt lat="43.705022027716041" lon="-7.650613971054554">
        <ele>248.63999999999999</ele>
        <time>2025-04-30T09:19:13Z</time>
      </trkpt>
      <trkpt lat="43.705105008557439" lon="-7.650657976046205">
        <ele>249.12</ele>
        <time>2025-04-30T09:19:14Z</time>
      </trkpt>
      <trkpt lat="43.70519301854074" lon="-7.650706004351378">
        <ele>250.08000000000001</ele>
        <time>2025-04-30T09:19:15Z</time>
      </trkpt>
      <trkpt lat="43.705278011038899" lon="-7.650780016556382">
        <ele>250.08000000000001</ele>
        <time>2025-04-30T09:19:16Z</time>
      </trkpt>
      <trkpt lat="43.705345988273621" lon="-7.650874983519316">
        <ele>250.08000000000001</ele>
        <time>2025-04-30T09:19:17Z</time>
      </trkpt>
      <trkpt lat="43.705412959679961" lon="-7.6509690284729">
        <ele>250.08000000000001</ele>
        <time>2025-04-30T09:19:18Z</time>
      </trkpt>
      <trkpt lat="43.705458976328373" lon="-7.651032982394099">
        <ele>250.56</ele>
        <time>2025-04-30T09:19:19Z</time>
      </trkpt>
      <trkpt lat="43.705493006855249" lon="-7.651187963783741">
        <ele>250.56</ele>
        <time>2025-04-30T09:19:20Z</time>
      </trkpt>
      <trkpt lat="43.705527037382126" lon="-7.651341017335653">
        <ele>251.03999999999999</ele>
        <time>2025-04-30T09:19:21Z</time>
      </trkpt>
      <trkpt lat="43.705565007403493" lon="-7.651511002331972">
        <ele>251.03999999999999</ele>
        <time>2025-04-30T09:19:22Z</time>
      </trkpt>
      <trkpt lat="43.705874970182776" lon="-7.653000969439745">
        <ele>251.52000000000001</ele>
        <time>2025-04-30T09:19:30Z</time>
      </trkpt>
      <trkpt lat="43.705898020416498" lon="-7.653177995234728">
        <ele>251.52000000000001</ele>
        <time>2025-04-30T09:19:31Z</time>
      </trkpt>
      <trkpt lat="43.705899026244879" lon="-7.653370024636388">
        <ele>252</ele>
        <time>2025-04-30T09:19:32Z</time>
      </trkpt>
      <trkpt lat="43.70588100515306" lon="-7.653545960783958">
        <ele>252.47999999999999</ele>
        <time>2025-04-30T09:19:33Z</time>
      </trkpt>
      <trkpt lat="43.705859966576099" lon="-7.653742013499141">
        <ele>252.96000000000001</ele>
        <time>2025-04-30T09:19:34Z</time>
      </trkpt>
      <trkpt lat="43.70583800598979" lon="-7.653959020972252">
        <ele>252.96000000000001</ele>
        <time>2025-04-30T09:19:35Z</time>
      </trkpt>
      <trkpt lat="43.7058150395751" lon="-7.654178040102124">
        <ele>253.44</ele>
        <time>2025-04-30T09:19:36Z</time>
      </trkpt>
      <trkpt lat="43.705781009048223" lon="-7.654392030090094">
        <ele>253.93000000000001</ele>
        <time>2025-04-30T09:19:37Z</time>
      </trkpt>
      <trkpt lat="43.705739015713334" lon="-7.654585987329483">
        <ele>253.93000000000001</ele>
        <time>2025-04-30T09:19:38Z</time>
      </trkpt>
      <trkpt lat="43.705700961872935" lon="-7.654761001467705">
        <ele>253.93000000000001</ele>
        <time>2025-04-30T09:19:39Z</time>
      </trkpt>
      <trkpt lat="43.705626027658582" lon="-7.654919000342488">
        <ele>254.41</ele>
        <time>2025-04-30T09:19:40Z</time>
      </trkpt>
      <trkpt lat="43.705545980483294" lon="-7.655068030580878">
        <ele>254.88999999999999</ele>
        <time>2025-04-30T09:19:41Z</time>
      </trkpt>
      <trkpt lat="43.705449001863599" lon="-7.655212031677365">
        <ele>255.37</ele>
        <time>2025-04-30T09:19:42Z</time>
      </trkpt>
      <trkpt lat="43.704918008297682" lon="-7.65593103133142">
        <ele>260.64999999999998</ele>
        <time>2025-04-30T09:19:47Z</time>
      </trkpt>
      <trkpt lat="43.704840978607535" lon="-7.656068997457624">
        <ele>261.62</ele>
        <time>2025-04-30T09:19:48Z</time>
      </trkpt>
      <trkpt lat="43.704794039949775" lon="-7.656225990504026">
        <ele>262.57999999999998</ele>
        <time>2025-04-30T09:19:49Z</time>
      </trkpt>
      <trkpt lat="43.704794039949775" lon="-7.656395975500345">
        <ele>263.06</ele>
        <time>2025-04-30T09:19:50Z</time>
      </trkpt>
      <trkpt lat="43.70480895973742" lon="-7.656556991860271">
        <ele>263.54000000000002</ele>
        <time>2025-04-30T09:19:51Z</time>
      </trkpt>
      <trkpt lat="43.704874003306031" lon="-7.656685989350081">
        <ele>264.5</ele>
        <time>2025-04-30T09:19:52Z</time>
      </trkpt>
      <trkpt lat="43.704954972490668" lon="-7.656769976019859">
        <ele>264.98000000000002</ele>
        <time>2025-04-30T09:19:53Z</time>
      </trkpt>
      <trkpt lat="43.705055974423885" lon="-7.656824961304665">
        <ele>265.45999999999998</ele>
        <time>2025-04-30T09:19:54Z</time>
      </trkpt>
      <trkpt lat="43.705166028812528" lon="-7.656885981559753">
        <ele>265.94</ele>
        <time>2025-04-30T09:19:55Z</time>
      </trkpt>
      <trkpt lat="43.705296032130718" lon="-7.656955970451236">
        <ele>266.42000000000002</ele>
        <time>2025-04-30T09:19:56Z</time>
      </trkpt>
      <trkpt lat="43.705432992428541" lon="-7.657052027061582">
        <ele>266.89999999999998</ele>
        <time>2025-04-30T09:19:57Z</time>
      </trkpt>
      <trkpt lat="43.706446029245853" lon="-7.657985016703606">
        <ele>267.38</ele>
        <time>2025-04-30T09:20:04Z</time>
      </trkpt>
      <trkpt lat="43.707525031641126" lon="-7.659696014598012">
        <ele>267.38</ele>
        <time>2025-04-30T09:20:13Z</time>
      </trkpt>
      <trkpt lat="43.708282001316547" lon="-7.660974003374577">
        <ele>266.89999999999998</ele>
        <time>2025-04-30T09:20:20Z</time>
      </trkpt>
      <trkpt lat="43.708410998806357" lon="-7.661126973107457">
        <ele>266.89999999999998</ele>
        <time>2025-04-30T09:20:21Z</time>
      </trkpt>
      <trkpt lat="43.708542007952929" lon="-7.661278015002608">
        <ele>265.94</ele>
        <time>2025-04-30T09:20:22Z</time>
      </trkpt>
      <trkpt lat="43.708672011271119" lon="-7.661426039412618">
        <ele>264.5</ele>
        <time>2025-04-30T09:20:23Z</time>
      </trkpt>
      <trkpt lat="43.708792962133884" lon="-7.661565011367202">
        <ele>263.54000000000002</ele>
        <time>2025-04-30T09:20:24Z</time>
      </trkpt>
      <trkpt lat="43.708899999037385" lon="-7.661713035777211">
        <ele>262.10000000000002</ele>
        <time>2025-04-30T09:20:25Z</time>
      </trkpt>
      <trkpt lat="43.708993038162589" lon="-7.661900036036968">
        <ele>260.64999999999998</ele>
        <time>2025-04-30T09:20:26Z</time>
      </trkpt>
      <trkpt lat="43.709094962105155" lon="-7.662102961912751">
        <ele>259.20999999999998</ele>
        <time>2025-04-30T09:20:27Z</time>
      </trkpt>
      <trkpt lat="43.709193030372262" lon="-7.662299014627934">
        <ele>257.76999999999998</ele>
        <time>2025-04-30T09:20:28Z</time>
      </trkpt>
      <trkpt lat="43.70934097096324" lon="-7.662491966038942">
        <ele>256.32999999999998</ele>
        <time>2025-04-30T09:20:29Z</time>
      </trkpt>
      <trkpt lat="43.709474997594953" lon="-7.662664968520403">
        <ele>254.88999999999999</ele>
        <time>2025-04-30T09:20:30Z</time>
      </trkpt>
      <trkpt lat="43.709606006741524" lon="-7.662835959345102">
        <ele>253.44</ele>
        <time>2025-04-30T09:20:31Z</time>
      </trkpt>
      <trkpt lat="43.709746990352869" lon="-7.662975015118718">
        <ele>252</ele>
        <time>2025-04-30T09:20:32Z</time>
      </trkpt>
      <trkpt lat="43.70989996008575" lon="-7.663120022043586">
        <ele>250.56</ele>
        <time>2025-04-30T09:20:33Z</time>
      </trkpt>
      <trkpt lat="43.710056031122804" lon="-7.663267040625215">
        <ele>248.63999999999999</ele>
        <time>2025-04-30T09:20:34Z</time>
      </trkpt>
      <trkpt lat="43.710507983341813" lon="-7.663650009781122">
        <ele>243.34999999999999</ele>
        <time>2025-04-30T09:20:37Z</time>
      </trkpt>
      <trkpt lat="43.710677968338132" lon="-7.663727961480618">
        <ele>241.91</ele>
        <time>2025-04-30T09:20:38Z</time>
      </trkpt>
      <trkpt lat="43.711004024371505" lon="-7.663877997547388">
        <ele>238.53999999999999</ele>
        <time>2025-04-30T09:20:40Z</time>
      </trkpt>
      <trkpt lat="43.711157999932766" lon="-7.66394798643887">
        <ele>236.62</ele>
        <time>2025-04-30T09:20:41Z</time>
      </trkpt>
      <trkpt lat="43.711627973243594" lon="-7.66398997977376">
        <ele>232.30000000000001</ele>
        <time>2025-04-30T09:20:44Z</time>
      </trkpt>
      <trkpt lat="43.711787983775139" lon="-7.663976987823844">
        <ele>230.84999999999999</ele>
        <time>2025-04-30T09:20:45Z</time>
      </trkpt>
      <trkpt lat="43.711958974599838" lon="-7.663930971175432">
        <ele>228.93000000000001</ele>
        <time>2025-04-30T09:20:46Z</time>
      </trkpt>
      <trkpt lat="43.712306991219521" lon="-7.663829969242215">
        <ele>225.56999999999999</ele>
        <time>2025-04-30T09:20:48Z</time>
      </trkpt>
      <trkpt lat="43.712469013407826" lon="-7.663735002279282">
        <ele>224.12</ele>
        <time>2025-04-30T09:20:49Z</time>
      </trkpt>
      <trkpt lat="43.712798003107309" lon="-7.663542972877622">
        <ele>220.75999999999999</ele>
        <time>2025-04-30T09:20:51Z</time>
      </trkpt>
      <trkpt lat="43.713441984727979" lon="-7.662890022620559">
        <ele>210.66999999999999</ele>
        <time>2025-04-30T09:20:56Z</time>
      </trkpt>
      <trkpt lat="43.713524965569377" lon="-7.662748033180833">
        <ele>208.74000000000001</ele>
        <time>2025-04-30T09:20:57Z</time>
      </trkpt>
      <trkpt lat="43.713565031066537" lon="-7.662605959922075">
        <ele>206.81999999999999</ele>
        <time>2025-04-30T09:20:58Z</time>
      </trkpt>
      <trkpt lat="43.713592020794749" lon="-7.662447961047292">
        <ele>204.90000000000001</ele>
        <time>2025-04-30T09:20:59Z</time>
      </trkpt>
      <trkpt lat="43.71359696611762" lon="-7.662274036556482">
        <ele>203.46000000000001</ele>
        <time>2025-04-30T09:21:00Z</time>
      </trkpt>
      <trkpt lat="43.713601995259523" lon="-7.662087958306074">
        <ele>201.53</ele>
        <time>2025-04-30T09:21:01Z</time>
      </trkpt>
      <trkpt lat="43.713607024401426" lon="-7.661892995238304">
        <ele>200.09</ele>
        <time>2025-04-30T09:21:02Z</time>
      </trkpt>
      <trkpt lat="43.713622028008103" lon="-7.66166802495718">
        <ele>198.16999999999999</ele>
        <time>2025-04-30T09:21:03Z</time>
      </trkpt>
      <trkpt lat="43.71368195861578" lon="-7.661472978070378">
        <ele>196.72999999999999</ele>
        <time>2025-04-30T09:21:04Z</time>
      </trkpt>
      <trkpt lat="43.713841969147325" lon="-7.660952964797616">
        <ele>191.91999999999999</ele>
        <time>2025-04-30T09:21:07Z</time>
      </trkpt>
      <trkpt lat="43.713935008272529" lon="-7.660836959257722">
        <ele>190</ele>
        <time>2025-04-30T09:21:08Z</time>
      </trkpt>
      <trkpt lat="43.714010026305914" lon="-7.660808963701129">
        <ele>189.03999999999999</ele>
        <time>2025-04-30T09:21:09Z</time>
      </trkpt>
      <trkpt lat="43.714076997712255" lon="-7.660825978964567">
        <ele>187.59</ele>
        <time>2025-04-30T09:21:10Z</time>
      </trkpt>
      <trkpt lat="43.71413298882544" lon="-7.66087300144136">
        <ele>186.63</ele>
        <time>2025-04-30T09:21:11Z</time>
      </trkpt>
      <trkpt lat="43.714176993817091" lon="-7.660929998382926">
        <ele>186.15000000000001</ele>
        <time>2025-04-30T09:21:12Z</time>
      </trkpt>
      <trkpt lat="43.714198032394052" lon="-7.661026977002621">
        <ele>186.15000000000001</ele>
        <time>2025-04-30T09:21:13Z</time>
      </trkpt>
      <trkpt lat="43.714210018515587" lon="-7.66111196950078">
        <ele>186.63</ele>
        <time>2025-04-30T09:21:14Z</time>
      </trkpt>
      <trkpt lat="43.714186968281865" lon="-7.661212971433997">
        <ele>186.15000000000001</ele>
        <time>2025-04-30T09:21:15Z</time>
      </trkpt>
      <trkpt lat="43.714169031009078" lon="-7.661292012780905">
        <ele>186.15000000000001</ele>
        <time>2025-04-30T09:21:16Z</time>
      </trkpt>
      <trkpt lat="43.714157966896892" lon="-7.661338029429317">
        <ele>186.15000000000001</ele>
        <time>2025-04-30T09:21:17Z</time>
      </trkpt>
      <trkpt lat="43.71415302157402" lon="-7.661362001672387">
        <ele>186.15000000000001</ele>
        <time>2025-04-30T09:21:23Z</time>
      </trkpt>
      <trkpt lat="43.714068029075861" lon="-7.661655033007264">
        <ele>183.27000000000001</ele>
        <time>2025-04-30T09:21:27Z</time>
      </trkpt>
      <trkpt lat="43.714028969407082" lon="-7.661789981648326">
        <ele>182.78999999999999</ele>
        <time>2025-04-30T09:21:28Z</time>
      </trkpt>
      <trkpt lat="43.713997034355998" lon="-7.661932976916432">
        <ele>181.83000000000001</ele>
        <time>2025-04-30T09:21:29Z</time>
      </trkpt>
      <trkpt lat="43.713986976072192" lon="-7.662103967741132">
        <ele>180.87</ele>
        <time>2025-04-30T09:21:30Z</time>
      </trkpt>
      <trkpt lat="43.713978007435799" lon="-7.662256015464664">
        <ele>180.38</ele>
        <time>2025-04-30T09:21:31Z</time>
      </trkpt>
      <trkpt lat="43.714012959972024" lon="-7.662428012117744">
        <ele>178.94</ele>
        <time>2025-04-30T09:21:32Z</time>
      </trkpt>
      <trkpt lat="43.7140469904989" lon="-7.662592967972159">
        <ele>178.46000000000001</ele>
        <time>2025-04-30T09:21:33Z</time>
      </trkpt>
      <trkpt lat="43.714079009369016" lon="-7.662750966846943">
        <ele>177.5</ele>
        <time>2025-04-30T09:21:34Z</time>
      </trkpt>
      <trkpt lat="43.714113039895892" lon="-7.662916006520391">
        <ele>176.06</ele>
        <time>2025-04-30T09:21:35Z</time>
      </trkpt>
      <trkpt lat="43.714148998260498" lon="-7.663091020658612">
        <ele>175.09999999999999</ele>
        <time>2025-04-30T09:21:36Z</time>
      </trkpt>
      <trkpt lat="43.714170958846807" lon="-7.663293024525046">
        <ele>174.13999999999999</ele>
        <time>2025-04-30T09:21:37Z</time>
      </trkpt>
      <trkpt lat="43.714170958846807" lon="-7.663491005077958">
        <ele>172.69</ele>
        <time>2025-04-30T09:21:38Z</time>
      </trkpt>
      <trkpt lat="43.714138017967343" lon="-7.663712035864592">
        <ele>171.72999999999999</ele>
        <time>2025-04-30T09:21:39Z</time>
      </trkpt>
      <trkpt lat="43.714084960520267" lon="-7.663951003924012">
        <ele>170.28999999999999</ele>
        <time>2025-04-30T09:21:40Z</time>
      </trkpt>
      <trkpt lat="43.714011032134295" lon="-7.664141021668911">
        <ele>168.84999999999999</ele>
        <time>2025-04-30T09:21:41Z</time>
      </trkpt>
      <trkpt lat="43.713914975523949" lon="-7.664364986121655">
        <ele>167.41</ele>
        <time>2025-04-30T09:21:42Z</time>
      </trkpt>
      <trkpt lat="43.713796036317945" lon="-7.664531031623483">
        <ele>165</ele>
        <time>2025-04-30T09:21:43Z</time>
      </trkpt>
      <trkpt lat="43.71368003077805" lon="-7.664691964164376">
        <ele>163.08000000000001</ele>
        <time>2025-04-30T09:21:44Z</time>
      </trkpt>
      <trkpt lat="43.71312003582716" lon="-7.665475001558662">
        <ele>153.47</ele>
        <time>2025-04-30T09:21:49Z</time>
      </trkpt>
      <trkpt lat="43.712968993932009" lon="-7.665602993220091">
        <ele>151.06</ele>
        <time>2025-04-30T09:21:50Z</time>
      </trkpt>
      <trkpt lat="43.712832033634186" lon="-7.665663007646799">
        <ele>149.62</ele>
        <time>2025-04-30T09:21:51Z</time>
      </trkpt>
      <trkpt lat="43.712499020621181" lon="-7.665807008743286">
        <ele>145.30000000000001</ele>
        <time>2025-04-30T09:21:53Z</time>
      </trkpt>
      <trkpt lat="43.71232601813972" lon="-7.665882026776671">
        <ele>143.37</ele>
        <time>2025-04-30T09:21:54Z</time>
      </trkpt>
      <trkpt lat="43.71215402148664" lon="-7.666011024266481">
        <ele>141.44999999999999</ele>
        <time>2025-04-30T09:21:55Z</time>
      </trkpt>
      <trkpt lat="43.711212985217571" lon="-7.667067982256413">
        <ele>127.03</ele>
        <time>2025-04-30T09:22:02Z</time>
      </trkpt>
      <trkpt lat="43.711133021861315" lon="-7.667188011109829">
        <ele>125.11</ele>
        <time>2025-04-30T09:22:03Z</time>
      </trkpt>
      <trkpt lat="43.711060015484691" lon="-7.667331006377935">
        <ele>123.67</ele>
        <time>2025-04-30T09:22:04Z</time>
      </trkpt>
      <trkpt lat="43.711060015484691" lon="-7.667465033009648">
        <ele>121.73999999999999</ele>
        <time>2025-04-30T09:22:05Z</time>
      </trkpt>
      <trkpt lat="43.711078958585858" lon="-7.667645998299122">
        <ele>120.78</ele>
        <time>2025-04-30T09:22:06Z</time>
      </trkpt>
      <trkpt lat="43.711182978004217" lon="-7.667797962203622">
        <ele>118.86</ele>
        <time>2025-04-30T09:22:07Z</time>
      </trkpt>
      <trkpt lat="43.711300995200872" lon="-7.667886978015304">
        <ele>117.42</ele>
        <time>2025-04-30T09:22:08Z</time>
      </trkpt>
      <trkpt lat="43.711421024054289" lon="-7.667929977178574">
        <ele>115.5</ele>
        <time>2025-04-30T09:22:09Z</time>
      </trkpt>
      <trkpt lat="43.711542980745435" lon="-7.667972976341844">
        <ele>114.05</ele>
        <time>2025-04-30T09:22:10Z</time>
      </trkpt>
      <trkpt lat="43.711664015427232" lon="-7.668024022132158">
        <ele>112.13</ele>
        <time>2025-04-30T09:22:11Z</time>
      </trkpt>
      <trkpt lat="43.711788989603519" lon="-7.668113959953189">
        <ele>110.20999999999999</ele>
        <time>2025-04-30T09:22:12Z</time>
      </trkpt>
      <trkpt lat="43.711869036778808" lon="-7.668245974928141">
        <ele>109.25</ele>
        <time>2025-04-30T09:22:13Z</time>
      </trkpt>
      <trkpt lat="43.711927961558104" lon="-7.668391987681389">
        <ele>107.81</ele>
        <time>2025-04-30T09:22:14Z</time>
      </trkpt>
      <trkpt lat="43.711953023448586" lon="-7.668559039011598">
        <ele>106.84</ele>
        <time>2025-04-30T09:22:15Z</time>
      </trkpt>
      <trkpt lat="43.711956040933728" lon="-7.668752996250987">
        <ele>106.36</ele>
        <time>2025-04-30T09:22:16Z</time>
      </trkpt>
      <trkpt lat="43.711949000135064" lon="-7.668965980410576">
        <ele>105.40000000000001</ele>
        <time>2025-04-30T09:22:17Z</time>
      </trkpt>
      <trkpt lat="43.7119419593364" lon="-7.669174019247294">
        <ele>104.92</ele>
        <time>2025-04-30T09:22:18Z</time>
      </trkpt>
      <trkpt lat="43.711911030113697" lon="-7.669353978708386">
        <ele>103.95999999999999</ele>
        <time>2025-04-30T09:22:19Z</time>
      </trkpt>
      <trkpt lat="43.711861995980144" lon="-7.669529998674989">
        <ele>103.48</ele>
        <time>2025-04-30T09:22:20Z</time>
      </trkpt>
      <trkpt lat="43.711799969896674" lon="-7.669684980064631">
        <ele>103</ele>
        <time>2025-04-30T09:22:21Z</time>
      </trkpt>
      <trkpt lat="43.711711037904024" lon="-7.669819006696343">
        <ele>102.04000000000001</ele>
        <time>2025-04-30T09:22:22Z</time>
      </trkpt>
      <trkpt lat="43.711609030142426" lon="-7.669945992529392">
        <ele>101.08</ele>
        <time>2025-04-30T09:22:23Z</time>
      </trkpt>
      <trkpt lat="43.711490007117391" lon="-7.670066021382809">
        <ele>100.11</ele>
        <time>2025-04-30T09:22:24Z</time>
      </trkpt>
      <trkpt lat="43.711152970790863" lon="-7.670429041609168">
        <ele>96.269999999999996</ele>
        <time>2025-04-30T09:22:27Z</time>
      </trkpt>
      <trkpt lat="43.711066972464323" lon="-7.670582011342049">
        <ele>95.310000000000002</ele>
        <time>2025-04-30T09:22:28Z</time>
      </trkpt>
      <trkpt lat="43.710992038249969" lon="-7.670759037137032">
        <ele>93.870000000000005</ele>
        <time>2025-04-30T09:22:29Z</time>
      </trkpt>
      <trkpt lat="43.710981979966164" lon="-7.670936984941363">
        <ele>92.420000000000002</ele>
        <time>2025-04-30T09:22:30Z</time>
      </trkpt>
      <trkpt lat="43.710984997451305" lon="-7.671095989644527">
        <ele>90.5</ele>
        <time>2025-04-30T09:22:31Z</time>
      </trkpt>
      <trkpt lat="43.711050041019917" lon="-7.671219035983086">
        <ele>89.060000000000002</ele>
        <time>2025-04-30T09:22:32Z</time>
      </trkpt>
      <trkpt lat="43.71112204156816" lon="-7.671357002109289">
        <ele>87.620000000000005</ele>
        <time>2025-04-30T09:22:33Z</time>
      </trkpt>
      <trkpt lat="43.711206028237939" lon="-7.671505026519299">
        <ele>86.180000000000007</ele>
        <time>2025-04-30T09:22:34Z</time>
      </trkpt>
      <trkpt lat="43.711313987150788" lon="-7.67163896933198">
        <ele>84.25</ele>
        <time>2025-04-30T09:22:35Z</time>
      </trkpt>
      <trkpt lat="43.712191991508007" lon="-7.672729035839438">
        <ele>74.159999999999997</ele>
        <time>2025-04-30T09:22:42Z</time>
      </trkpt>
      <trkpt lat="43.712734971195459" lon="-7.673467984423041">
        <ele>69.829999999999998</ele>
        <time>2025-04-30T09:22:47Z</time>
      </trkpt>
      <trkpt lat="43.712804038077593" lon="-7.673647021874785">
        <ele>69.349999999999994</ele>
        <time>2025-04-30T09:22:48Z</time>
      </trkpt>
      <trkpt lat="43.712856005877256" lon="-7.673804014921188">
        <ele>69.349999999999994</ele>
        <time>2025-04-30T09:22:49Z</time>
      </trkpt>
      <trkpt lat="43.71286204084754" lon="-7.673968970775604">
        <ele>70.310000000000002</ele>
        <time>2025-04-30T09:22:50Z</time>
      </trkpt>
      <trkpt lat="43.712856005877256" lon="-7.674100985750556">
        <ele>71.269999999999996</ele>
        <time>2025-04-30T09:22:51Z</time>
      </trkpt>
      <trkpt lat="43.712824992835522" lon="-7.674210034310818">
        <ele>71.760000000000005</ele>
        <time>2025-04-30T09:22:52Z</time>
      </trkpt>
      <trkpt lat="43.71279900893569" lon="-7.674305001273751">
        <ele>72.719999999999999</ele>
        <time>2025-04-30T09:22:53Z</time>
      </trkpt>
      <trkpt lat="43.712774030864239" lon="-7.674395022913814">
        <ele>73.200000000000003</ele>
        <time>2025-04-30T09:22:54Z</time>
      </trkpt>
      <trkpt lat="43.712748968973756" lon="-7.674483032897115">
        <ele>73.680000000000007</ele>
        <time>2025-04-30T09:22:55Z</time>
      </trkpt>
      <trkpt lat="43.712724996730685" lon="-7.674569031223655">
        <ele>74.159999999999997</ele>
        <time>2025-04-30T09:22:56Z</time>
      </trkpt>
      <trkpt lat="43.712721979245543" lon="-7.674692999571562">
        <ele>75.120000000000005</ele>
        <time>2025-04-30T09:22:57Z</time>
      </trkpt>
      <trkpt lat="43.712734971195459" lon="-7.674792995676398">
        <ele>75.599999999999994</ele>
        <time>2025-04-30T09:22:58Z</time>
      </trkpt>
      <trkpt lat="43.712748968973756" lon="-7.674891985952854">
        <ele>76.560000000000002</ele>
        <time>2025-04-30T09:22:59Z</time>
      </trkpt>
      <trkpt lat="43.712790040299296" lon="-7.675199015066028">
        <ele>78.969999999999999</ele>
        <time>2025-04-30T09:23:02Z</time>
      </trkpt>
      <trkpt lat="43.712790040299296" lon="-7.675287025049329">
        <ele>78.969999999999999</ele>
        <time>2025-04-30T09:23:03Z</time>
      </trkpt>
      <trkpt lat="43.712771013379097" lon="-7.675353996455669">
        <ele>79.450000000000003</ele>
        <time>2025-04-30T09:23:04Z</time>
      </trkpt>
      <trkpt lat="43.712747041136026" lon="-7.675416022539139">
        <ele>79.450000000000003</ele>
        <time>2025-04-30T09:23:05Z</time>
      </trkpt>
      <trkpt lat="43.712705969810486" lon="-7.675448963418603">
        <ele>79.450000000000003</ele>
        <time>2025-04-30T09:23:06Z</time>
      </trkpt>
      <trkpt lat="43.712646961212158" lon="-7.675494980067015">
        <ele>79.450000000000003</ele>
        <time>2025-04-30T09:23:07Z</time>
      </trkpt>
      <trkpt lat="43.712599016726017" lon="-7.675519958138466">
        <ele>79.450000000000003</ele>
        <time>2025-04-30T09:23:08Z</time>
      </trkpt>
      <trkpt lat="43.712540008127689" lon="-7.675551977008581">
        <ele>79.450000000000003</ele>
        <time>2025-04-30T09:23:09Z</time>
      </trkpt>
      <trkpt lat="43.712414028123021" lon="-7.675618026405573">
        <ele>79.450000000000003</ele>
        <time>2025-04-30T09:23:11Z</time>
      </trkpt>
      <trkpt lat="43.712338004261255" lon="-7.675658008083701">
        <ele>78.969999999999999</ele>
        <time>2025-04-30T09:23:12Z</time>
      </trkpt>
      <trkpt lat="43.71224001981318" lon="-7.675709975883365">
        <ele>78</ele>
        <time>2025-04-30T09:23:13Z</time>
      </trkpt>
      <trkpt lat="43.712181011214852" lon="-7.67580502666533">
        <ele>77.519999999999996</ele>
        <time>2025-04-30T09:23:14Z</time>
      </trkpt>
      <trkpt lat="43.712112028151751" lon="-7.675918014720082">
        <ele>77.040000000000006</ele>
        <time>2025-04-30T09:23:15Z</time>
      </trkpt>
      <trkpt lat="43.712050002068281" lon="-7.676052041351795">
        <ele>76.079999999999998</ele>
        <time>2025-04-30T09:23:16Z</time>
      </trkpt>
      <trkpt lat="43.71200499124825" lon="-7.676206016913056">
        <ele>75.599999999999994</ele>
        <time>2025-04-30T09:23:17Z</time>
      </trkpt>
      <trkpt lat="43.711957968771458" lon="-7.676368039101362">
        <ele>75.120000000000005</ele>
        <time>2025-04-30T09:23:18Z</time>
      </trkpt>
      <trkpt lat="43.711909018456936" lon="-7.676537018269301">
        <ele>75.120000000000005</ele>
        <time>2025-04-30T09:23:19Z</time>
      </trkpt>
      <trkpt lat="43.711867025122046" lon="-7.676704991608858">
        <ele>75.120000000000005</ele>
        <time>2025-04-30T09:23:20Z</time>
      </trkpt>
      <trkpt lat="43.711842969059944" lon="-7.676868019625545">
        <ele>75.120000000000005</ele>
        <time>2025-04-30T09:23:21Z</time>
      </trkpt>
      <trkpt lat="43.711816985160112" lon="-7.677034987136722">
        <ele>75.120000000000005</ele>
        <time>2025-04-30T09:23:22Z</time>
      </trkpt>
      <trkpt lat="43.711768034845591" lon="-7.677361965179443">
        <ele>74.640000000000001</ele>
        <time>2025-04-30T09:23:24Z</time>
      </trkpt>
      <trkpt lat="43.711783960461617" lon="-7.677519964054227">
        <ele>74.159999999999997</ele>
        <time>2025-04-30T09:23:25Z</time>
      </trkpt>
      <trkpt lat="43.711801981553435" lon="-7.677683997899294">
        <ele>73.680000000000007</ele>
        <time>2025-04-30T09:23:26Z</time>
      </trkpt>
      <trkpt lat="43.711841963231564" lon="-7.677859012037516">
        <ele>73.680000000000007</ele>
        <time>2025-04-30T09:23:27Z</time>
      </trkpt>
      <trkpt lat="43.711899966001511" lon="-7.678022962063551">
        <ele>73.200000000000003</ele>
        <time>2025-04-30T09:23:28Z</time>
      </trkpt>
      <trkpt lat="43.711956962943077" lon="-7.678183978423476">
        <ele>73.200000000000003</ele>
        <time>2025-04-30T09:23:29Z</time>
      </trkpt>
      <trkpt lat="43.712070034816861" lon="-7.678508022800088">
        <ele>71.760000000000005</ele>
        <time>2025-04-30T09:23:31Z</time>
      </trkpt>
      <trkpt lat="43.71211102232337" lon="-7.678682031109929">
        <ele>71.269999999999996</ele>
        <time>2025-04-30T09:23:32Z</time>
      </trkpt>
      <trkpt lat="43.712228033691645" lon="-7.67917999997735">
        <ele>69.829999999999998</ele>
        <time>2025-04-30T09:23:35Z</time>
      </trkpt>
      <trkpt lat="43.712282013148069" lon="-7.679536985233426">
        <ele>68.870000000000005</ele>
        <time>2025-04-30T09:23:37Z</time>
      </trkpt>
      <trkpt lat="43.712421990931034" lon="-7.680564019829035">
        <ele>67.430000000000007</ele>
        <time>2025-04-30T09:23:43Z</time>
      </trkpt>
      <trkpt lat="43.712428025901318" lon="-7.68072503618896">
        <ele>67.430000000000007</ele>
        <time>2025-04-30T09:23:44Z</time>
      </trkpt>
      <trkpt lat="43.712387960404158" lon="-7.681021001189947">
        <ele>66.950000000000003</ele>
        <time>2025-04-30T09:23:46Z</time>
      </trkpt>
      <trkpt lat="43.712334986776114" lon="-7.681140024214983">
        <ele>66.950000000000003</ele>
        <time>2025-04-30T09:23:47Z</time>
      </trkpt>
      <trkpt lat="43.712280001491308" lon="-7.681267010048032">
        <ele>66.950000000000003</ele>
        <time>2025-04-30T09:23:48Z</time>
      </trkpt>
      <trkpt lat="43.7122199870646" lon="-7.681402964517474">
        <ele>66.469999999999999</ele>
        <time>2025-04-30T09:23:49Z</time>
      </trkpt>
      <trkpt lat="43.712171958759427" lon="-7.681530034169555">
        <ele>65.989999999999995</ele>
        <time>2025-04-30T09:23:50Z</time>
      </trkpt>
      <trkpt lat="43.71215402148664" lon="-7.681678980588913">
        <ele>65.989999999999995</ele>
        <time>2025-04-30T09:23:51Z</time>
      </trkpt>
      <trkpt lat="43.712171036750078" lon="-7.681857012212277">
        <ele>65.989999999999995</ele>
        <time>2025-04-30T09:23:52Z</time>
      </trkpt>
      <trkpt lat="43.712187968194485" lon="-7.682038983330131">
        <ele>65.989999999999995</ele>
        <time>2025-04-30T09:23:53Z</time>
      </trkpt>
      <trkpt lat="43.712206995114684" lon="-7.682237969711423">
        <ele>65.989999999999995</ele>
        <time>2025-04-30T09:23:54Z</time>
      </trkpt>
      <trkpt lat="43.712203977629542" lon="-7.682843981310725">
        <ele>66.950000000000003</ele>
        <time>2025-04-30T09:23:57Z</time>
      </trkpt>
      <trkpt lat="43.712199032306671" lon="-7.683015977963805">
        <ele>66.469999999999999</ele>
        <time>2025-04-30T09:23:58Z</time>
      </trkpt>
      <trkpt lat="43.712158966809511" lon="-7.683183029294014">
        <ele>65.989999999999995</ele>
        <time>2025-04-30T09:23:59Z</time>
      </trkpt>
      <trkpt lat="43.712099958211184" lon="-7.683356031775475">
        <ele>65.989999999999995</ele>
        <time>2025-04-30T09:24:00Z</time>
      </trkpt>
      <trkpt lat="43.712038015946746" lon="-7.68354001455009">
        <ele>65.510000000000005</ele>
        <time>2025-04-30T09:24:01Z</time>
      </trkpt>
      <trkpt lat="43.711973978206515" lon="-7.683729026466608">
        <ele>64.549999999999997</ele>
        <time>2025-04-30T09:24:02Z</time>
      </trkpt>
      <trkpt lat="43.711659992113709" lon="-7.684661010280252">
        <ele>58.780000000000001</ele>
        <time>2025-04-30T09:24:07Z</time>
      </trkpt>
      <trkpt lat="43.711610035970807" lon="-7.684960998594761">
        <ele>56.369999999999997</ele>
        <time>2025-04-30T09:24:09Z</time>
      </trkpt>
      <trkpt lat="43.711582962423563" lon="-7.685122014954686">
        <ele>53.490000000000002</ele>
        <time>2025-04-30T09:24:11Z</time>
      </trkpt>
      <trkpt lat="43.711572987958789" lon="-7.685181023553014">
        <ele>52.049999999999997</ele>
        <time>2025-04-30T09:24:12Z</time>
      </trkpt>
      <trkpt lat="43.711564019322395" lon="-7.6852370146662">
        <ele>50.609999999999999</ele>
        <time>2025-04-30T09:24:13Z</time>
      </trkpt>
      <trkpt lat="43.71155496686697" lon="-7.685290994122624">
        <ele>49.159999999999997</ele>
        <time>2025-04-30T09:24:14Z</time>
      </trkpt>
      <trkpt lat="43.711545998230577" lon="-7.68534698523581">
        <ele>47.719999999999999</ele>
        <time>2025-04-30T09:24:15Z</time>
      </trkpt>
      <trkpt lat="43.711536023765802" lon="-7.685404988005757">
        <ele>46.280000000000001</ele>
        <time>2025-04-30T09:24:16Z</time>
      </trkpt>
      <trkpt lat="43.711524959653616" lon="-7.685471959412098">
        <ele>45.32</ele>
        <time>2025-04-30T09:24:17Z</time>
      </trkpt>
      <trkpt lat="43.711512973532081" lon="-7.685543037950993">
        <ele>44.359999999999999</ele>
        <time>2025-04-30T09:24:18Z</time>
      </trkpt>
      <trkpt lat="43.711500987410545" lon="-7.685615960508585">
        <ele>42.920000000000002</ele>
        <time>2025-04-30T09:24:19Z</time>
      </trkpt>
      <trkpt lat="43.71148900128901" lon="-7.685687961056829">
        <ele>41.950000000000003</ele>
        <time>2025-04-30T09:24:20Z</time>
      </trkpt>
      <trkpt lat="43.711482966318727" lon="-7.685802960768342">
        <ele>40.990000000000002</ele>
        <time>2025-04-30T09:24:21Z</time>
      </trkpt>
      <trkpt lat="43.71146603487432" lon="-7.686113007366657">
        <ele>38.109999999999999</ele>
        <time>2025-04-30T09:24:24Z</time>
      </trkpt>
      <trkpt lat="43.711461005732417" lon="-7.686202023178339">
        <ele>37.149999999999999</ele>
        <time>2025-04-30T09:24:25Z</time>
      </trkpt>
      <trkpt lat="43.711455976590514" lon="-7.686287015676498">
        <ele>36.189999999999998</ele>
        <time>2025-04-30T09:24:26Z</time>
      </trkpt>
      <trkpt lat="43.711452037096024" lon="-7.686374019831419">
        <ele>35.710000000000001</ele>
        <time>2025-04-30T09:24:27Z</time>
      </trkpt>
      <trkpt lat="43.71144600212574" lon="-7.686481978744268">
        <ele>34.740000000000002</ele>
        <time>2025-04-30T09:24:28Z</time>
      </trkpt>
      <trkpt lat="43.711419012397528" lon="-7.686552973464131">
        <ele>34.259999999999998</ele>
        <time>2025-04-30T09:24:29Z</time>
      </trkpt>
      <trkpt lat="43.711377019062638" lon="-7.686657998710871">
        <ele>33.299999999999997</ele>
        <time>2025-04-30T09:24:30Z</time>
      </trkpt>
      <trkpt lat="43.711332008242607" lon="-7.686709966510534">
        <ele>31.859999999999999</ele>
        <time>2025-04-30T09:24:31Z</time>
      </trkpt>
      <trkpt lat="43.71123100630939" lon="-7.686824966222048">
        <ele>31.379999999999999</ele>
        <time>2025-04-30T09:24:32Z</time>
      </trkpt>
      <trkpt lat="43.711191024631262" lon="-7.686831001192331">
        <ele>30.899999999999999</ele>
        <time>2025-04-30T09:24:33Z</time>
      </trkpt>
      <trkpt lat="43.711131010204554" lon="-7.686839969828725">
        <ele>30.420000000000002</ele>
        <time>2025-04-30T09:24:34Z</time>
      </trkpt>
      <trkpt lat="43.711068984121084" lon="-7.68684902228415">
        <ele>29.460000000000001</ele>
        <time>2025-04-30T09:24:35Z</time>
      </trkpt>
      <trkpt lat="43.711013998836279" lon="-7.686856985092163">
        <ele>28.98</ele>
        <time>2025-04-30T09:24:36Z</time>
      </trkpt>
      <trkpt lat="43.710953984409571" lon="-7.686866037547588">
        <ele>28.02</ele>
        <time>2025-04-30T09:24:37Z</time>
      </trkpt>
      <trkpt lat="43.710889024659991" lon="-7.686876012012363">
        <ele>27.050000000000001</ele>
        <time>2025-04-30T09:24:38Z</time>
      </trkpt>
      <trkpt lat="43.710820963606238" lon="-7.686885986477137">
        <ele>26.57</ele>
        <time>2025-04-30T09:24:39Z</time>
      </trkpt>
      <trkpt lat="43.7106519844383" lon="-7.686910964548588">
        <ele>25.609999999999999</ele>
        <time>2025-04-30T09:24:41Z</time>
      </trkpt>
      <trkpt lat="43.710591970011592" lon="-7.686959998682141">
        <ele>24.649999999999999</ele>
        <time>2025-04-30T09:24:43Z</time>
      </trkpt>
      <trkpt lat="43.71052298694849" lon="-7.687018001452088">
        <ele>24.170000000000002</ele>
        <time>2025-04-30T09:24:44Z</time>
      </trkpt>
      <trkpt lat="43.71047898195684" lon="-7.687096036970615">
        <ele>24.170000000000002</ele>
        <time>2025-04-30T09:24:45Z</time>
      </trkpt>
      <trkpt lat="43.71035099029541" lon="-7.68742703832686">
        <ele>24.649999999999999</ele>
        <time>2025-04-30T09:24:48Z</time>
      </trkpt>
      <trkpt lat="43.71030698530376" lon="-7.68755896948278">
        <ele>24.170000000000002</ele>
        <time>2025-04-30T09:24:49Z</time>
      </trkpt>
      <trkpt lat="43.710244037210941" lon="-7.687747981399298">
        <ele>23.210000000000001</ele>
        <time>2025-04-30T09:24:50Z</time>
      </trkpt>
      <trkpt lat="43.710188968107104" lon="-7.687815958634019">
        <ele>22.73</ele>
        <time>2025-04-30T09:24:51Z</time>
      </trkpt>
      <trkpt lat="43.710111016407609" lon="-7.687911009415984">
        <ele>21.77</ele>
        <time>2025-04-30T09:24:52Z</time>
      </trkpt>
      <trkpt lat="43.710035998374224" lon="-7.688003964722157">
        <ele>21.289999999999999</ele>
        <time>2025-04-30T09:24:53Z</time>
      </trkpt>
      <trkpt lat="43.70996399782598" lon="-7.688091974705458">
        <ele>20.32</ele>
        <time>2025-04-30T09:24:54Z</time>
      </trkpt>
      <trkpt lat="43.709899038076401" lon="-7.688172021880746">
        <ele>19.359999999999999</ele>
        <time>2025-04-30T09:24:55Z</time>
      </trkpt>
      <trkpt lat="43.709847992286086" lon="-7.688234969973564">
        <ele>18.399999999999999</ele>
        <time>2025-04-30T09:24:56Z</time>
      </trkpt>
      <trkpt lat="43.70981203392148" lon="-7.688279980793595">
        <ele>17.440000000000001</ele>
        <time>2025-04-30T09:24:57Z</time>
      </trkpt>
      <trkpt lat="43.709787977859378" lon="-7.688307976350188">
        <ele>16.960000000000001</ele>
        <time>2025-04-30T09:24:58Z</time>
      </trkpt>
      <trkpt lat="43.709762999787927" lon="-7.688339995220304">
        <ele>16.48</ele>
        <time>2025-04-30T09:24:59Z</time>
      </trkpt>
      <trkpt lat="43.709733998402953" lon="-7.688376037403941">
        <ele>16</ele>
        <time>2025-04-30T09:25:00Z</time>
      </trkpt>
      <trkpt lat="43.70968303643167" lon="-7.688435968011618">
        <ele>15.52</ele>
        <time>2025-04-30T09:25:01Z</time>
      </trkpt>
      <trkpt lat="43.70962000451982" lon="-7.688466981053352">
        <ele>15.52</ele>
        <time>2025-04-30T09:25:02Z</time>
      </trkpt>
      <trkpt lat="43.709471980109811" lon="-7.688541999086738">
        <ele>15.52</ele>
        <time>2025-04-30T09:25:03Z</time>
      </trkpt>
      <trkpt lat="43.709415988996625" lon="-7.688541999086738">
        <ele>15.039999999999999</ele>
        <time>2025-04-30T09:25:04Z</time>
      </trkpt>
      <trkpt lat="43.70916998013854" lon="-7.688541999086738">
        <ele>13.6</ele>
        <time>2025-04-30T09:25:06Z</time>
      </trkpt>
      <trkpt lat="43.709036037325859" lon="-7.688541999086738">
        <ele>13.119999999999999</ele>
        <time>2025-04-30T09:25:07Z</time>
      </trkpt>
      <trkpt lat="43.708870997652411" lon="-7.688541999086738">
        <ele>12.15</ele>
        <time>2025-04-30T09:25:08Z</time>
      </trkpt>
      <trkpt lat="43.70876002125442" lon="-7.688607964664698">
        <ele>11.19</ele>
        <time>2025-04-30T09:25:09Z</time>
      </trkpt>
      <trkpt lat="43.708634041249752" lon="-7.688683988526464">
        <ele>10.23</ele>
        <time>2025-04-30T09:25:10Z</time>
      </trkpt>
      <trkpt lat="43.708509989082813" lon="-7.688763029873371">
        <ele>8.789999999999999</ele>
        <time>2025-04-30T09:25:11Z</time>
      </trkpt>
      <trkpt lat="43.708393983542919" lon="-7.68884701654315">
        <ele>7.35</ele>
        <time>2025-04-30T09:25:12Z</time>
      </trkpt>
      <trkpt lat="43.7080720346421" lon="-7.689080033451319">
        <ele>3.98</ele>
        <time>2025-04-30T09:25:15Z</time>
      </trkpt>
      <trkpt lat="43.707785960286856" lon="-7.689223028719425">
        <ele>3.02</ele>
        <time>2025-04-30T09:25:18Z</time>
      </trkpt>
      <trkpt lat="43.707688981667161" lon="-7.68927700817585">
        <ele>2.54</ele>
        <time>2025-04-30T09:25:19Z</time>
      </trkpt>
      <trkpt lat="43.707647994160652" lon="-7.689394019544125">
        <ele>2.54</ele>
        <time>2025-04-30T09:25:20Z</time>
      </trkpt>
      <trkpt lat="43.707603989169002" lon="-7.689523017033935">
        <ele>2.06</ele>
        <time>2025-04-30T09:25:21Z</time>
      </trkpt>
      <trkpt lat="43.70755897834897" lon="-7.689651008695364">
        <ele>2.06</ele>
        <time>2025-04-30T09:25:22Z</time>
      </trkpt>
      <trkpt lat="43.707516985014081" lon="-7.689773971214891">
        <ele>1.58</ele>
        <time>2025-04-30T09:25:23Z</time>
      </trkpt>
      <trkpt lat="43.70746904052794" lon="-7.689860975369811">
        <ele>1.1</ele>
        <time>2025-04-30T09:25:24Z</time>
      </trkpt>
      <trkpt lat="43.707401985302567" lon="-7.689934987574816">
        <ele>1.1</ele>
        <time>2025-04-30T09:25:25Z</time>
      </trkpt>
      <trkpt lat="43.707305006682873" lon="-7.690044036135078">
        <ele>0.62</ele>
        <time>2025-04-30T09:25:26Z</time>
      </trkpt>
      <trkpt lat="43.707266030833125" lon="-7.690053004771471">
        <ele>0.14</ele>
        <time>2025-04-30T09:25:27Z</time>
      </trkpt>
      <trkpt lat="43.707169974222779" lon="-7.690076977014542">
        <ele>-0.34</ele>
        <time>2025-04-30T09:25:28Z</time>
      </trkpt>
      <trkpt lat="43.707066038623452" lon="-7.690102960914373">
        <ele>-0.34</ele>
        <time>2025-04-30T09:25:29Z</time>
      </trkpt>
      <trkpt lat="43.706967970356345" lon="-7.690128022804856">
        <ele>-0.82</ele>
        <time>2025-04-30T09:25:30Z</time>
      </trkpt>
      <trkpt lat="43.706856993958354" lon="-7.690188959240913">
        <ele>-0.82</ele>
        <time>2025-04-30T09:25:31Z</time>
      </trkpt>
      <trkpt lat="43.706808965653181" lon="-7.690291972830892">
        <ele>-0.82</ele>
        <time>2025-04-30T09:25:32Z</time>
      </trkpt>
      <trkpt lat="43.70676102116704" lon="-7.690391968935728">
        <ele>-0.82</ele>
        <time>2025-04-30T09:25:33Z</time>
      </trkpt>
      <trkpt lat="43.706707041710615" lon="-7.690506968647242">
        <ele>0.14</ele>
        <time>2025-04-30T09:25:34Z</time>
      </trkpt>
      <trkpt lat="43.706635963171721" lon="-7.690599001944065">
        <ele>1.1</ele>
        <time>2025-04-30T09:25:35Z</time>
      </trkpt>
      <trkpt lat="43.706543007865548" lon="-7.690681982785463">
        <ele>2.54</ele>
        <time>2025-04-30T09:25:36Z</time>
      </trkpt>
      <trkpt lat="43.706450974568725" lon="-7.690764041617513">
        <ele>3.5</ele>
        <time>2025-04-30T09:25:37Z</time>
      </trkpt>
      <trkpt lat="43.706364976242185" lon="-7.690840987488627">
        <ele>4.94</ele>
        <time>2025-04-30T09:25:38Z</time>
      </trkpt>
      <trkpt lat="43.706284007057548" lon="-7.690956993028522">
        <ele>5.91</ele>
        <time>2025-04-30T09:25:39Z</time>
      </trkpt>
      <trkpt lat="43.706257017329335" lon="-7.691086996346712">
        <ele>7.35</ele>
        <time>2025-04-30T09:25:40Z</time>
      </trkpt>
      <trkpt lat="43.706227010115981" lon="-7.691228985786438">
        <ele>8.310000000000001</ele>
        <time>2025-04-30T09:25:41Z</time>
      </trkpt>
      <trkpt lat="43.706195997074246" lon="-7.691373992711306">
        <ele>9.75</ele>
        <time>2025-04-30T09:25:42Z</time>
      </trkpt>
      <trkpt lat="43.706143023446202" lon="-7.691614972427487">
        <ele>12.15</ele>
        <time>2025-04-30T09:25:44Z</time>
      </trkpt>
      <trkpt lat="43.706086026504636" lon="-7.691715974360704">
        <ele>13.6</ele>
        <time>2025-04-30T09:25:45Z</time>
      </trkpt>
      <trkpt lat="43.706024000421166" lon="-7.691826028749347">
        <ele>15.039999999999999</ele>
        <time>2025-04-30T09:25:46Z</time>
      </trkpt>
      <trkpt lat="43.705958034843206" lon="-7.691942034289241">
        <ele>16</ele>
        <time>2025-04-30T09:25:47Z</time>
      </trkpt>
      <trkpt lat="43.705887962132692" lon="-7.692066002637148">
        <ele>17.440000000000001</ele>
        <time>2025-04-30T09:25:48Z</time>
      </trkpt>
      <trkpt lat="43.705844962969422" lon="-7.692217966541648">
        <ele>18.879999999999999</ele>
        <time>2025-04-30T09:25:49Z</time>
      </trkpt>
      <trkpt lat="43.7058150395751" lon="-7.692377977073193">
        <ele>19.84</ele>
        <time>2025-04-30T09:25:50Z</time>
      </trkpt>
      <trkpt lat="43.705783020704985" lon="-7.692544022575021">
        <ele>21.289999999999999</ele>
        <time>2025-04-30T09:25:51Z</time>
      </trkpt>
      <trkpt lat="43.705738009884953" lon="-7.692880975082517">
        <ele>24.170000000000002</ele>
        <time>2025-04-30T09:25:53Z</time>
      </trkpt>
      <trkpt lat="43.705716971307993" lon="-7.693048026412725">
        <ele>25.129999999999999</ele>
        <time>2025-04-30T09:25:54Z</time>
      </trkpt>
      <trkpt lat="43.705748990178108" lon="-7.693189010024071">
        <ele>26.57</ele>
        <time>2025-04-30T09:25:55Z</time>
      </trkpt>
      <trkpt lat="43.705784026533365" lon="-7.693329993635416">
        <ele>28.02</ele>
        <time>2025-04-30T09:25:56Z</time>
      </trkpt>
      <trkpt lat="43.705870024859905" lon="-7.693455973640084">
        <ele>29.940000000000001</ele>
        <time>2025-04-30T09:25:57Z</time>
      </trkpt>
      <trkpt lat="43.705960968509316" lon="-7.693590000271797">
        <ele>31.379999999999999</ele>
        <time>2025-04-30T09:25:58Z</time>
      </trkpt>
      <trkpt lat="43.706381991505623" lon="-7.694270024076104">
        <ele>38.590000000000003</ele>
        <time>2025-04-30T09:26:03Z</time>
      </trkpt>
      <trkpt lat="43.706419039517641" lon="-7.694381000474095">
        <ele>40.030000000000001</ele>
        <time>2025-04-30T09:26:04Z</time>
      </trkpt>
      <trkpt lat="43.706449968740344" lon="-7.694528019055724">
        <ele>40.990000000000002</ele>
        <time>2025-04-30T09:26:05Z</time>
      </trkpt>
      <trkpt lat="43.70646103285253" lon="-7.694679982960224">
        <ele>41.950000000000003</ele>
        <time>2025-04-30T09:26:06Z</time>
      </trkpt>
      <trkpt lat="43.706472013145685" lon="-7.694848962128162">
        <ele>42.920000000000002</ele>
        <time>2025-04-30T09:26:07Z</time>
      </trkpt>
      <trkpt lat="43.706548037007451" lon="-7.695351960137487">
        <ele>45.799999999999997</ele>
        <time>2025-04-30T09:26:10Z</time>
      </trkpt>
      <trkpt lat="43.706586007028818" lon="-7.695509037002921">
        <ele>46.759999999999998</ele>
        <time>2025-04-30T09:26:11Z</time>
      </trkpt>
      <trkpt lat="43.706641998142004" lon="-7.695786980912089">
        <ele>49.159999999999997</ele>
        <time>2025-04-30T09:26:13Z</time>
      </trkpt>
      <trkpt lat="43.706648033112288" lon="-7.695940034464002">
        <ele>50.609999999999999</ele>
        <time>2025-04-30T09:26:14Z</time>
      </trkpt>
      <trkpt lat="43.70665499009192" lon="-7.696100967004895">
        <ele>52.049999999999997</ele>
        <time>2025-04-30T09:26:15Z</time>
      </trkpt>
      <trkpt lat="43.70667602866888" lon="-7.696270029991865">
        <ele>53.009999999999998</ele>
        <time>2025-04-30T09:26:16Z</time>
      </trkpt>
      <trkpt lat="43.706731013953686" lon="-7.696434985846281">
        <ele>54.450000000000003</ele>
        <time>2025-04-30T09:26:17Z</time>
      </trkpt>
      <trkpt lat="43.70680502615869" lon="-7.696592984721065">
        <ele>55.409999999999997</ele>
        <time>2025-04-30T09:26:18Z</time>
      </trkpt>
      <trkpt lat="43.706887001171708" lon="-7.696748971939087">
        <ele>56.859999999999999</ele>
        <time>2025-04-30T09:26:19Z</time>
      </trkpt>
      <trkpt lat="43.706962019205093" lon="-7.696891967207193">
        <ele>57.82</ele>
        <time>2025-04-30T09:26:20Z</time>
      </trkpt>
      <trkpt lat="43.707039970904589" lon="-7.696991041302681">
        <ele>58.780000000000001</ele>
        <time>2025-04-30T09:26:21Z</time>
      </trkpt>
      <trkpt lat="43.707125969231129" lon="-7.697080979123712">
        <ele>60.219999999999999</ele>
        <time>2025-04-30T09:26:22Z</time>
      </trkpt>
      <trkpt lat="43.707416988909245" lon="-7.697387002408505">
        <ele>64.549999999999997</ele>
        <time>2025-04-30T09:26:25Z</time>
      </trkpt>
      <trkpt lat="43.707783026620746" lon="-7.697969963774085">
        <ele>72.719999999999999</ele>
        <time>2025-04-30T09:26:30Z</time>
      </trkpt>
      <trkpt lat="43.707818984985352" lon="-7.698094015941024">
        <ele>73.680000000000007</ele>
        <time>2025-04-30T09:26:31Z</time>
      </trkpt>
      <trkpt lat="43.707857960835099" lon="-7.698225025087595">
        <ele>75.120000000000005</ele>
        <time>2025-04-30T09:26:32Z</time>
      </trkpt>
      <trkpt lat="43.707844968885183" lon="-7.698363997042179">
        <ele>76.079999999999998</ele>
        <time>2025-04-30T09:26:33Z</time>
      </trkpt>
      <trkpt lat="43.707823008298874" lon="-7.698527025058866">
        <ele>77.040000000000006</ele>
        <time>2025-04-30T09:26:34Z</time>
      </trkpt>
      <trkpt lat="43.707801969721913" lon="-7.698677983134985">
        <ele>78.480000000000004</ele>
        <time>2025-04-30T09:26:35Z</time>
      </trkpt>
      <trkpt lat="43.707783026620746" lon="-7.698814021423459">
        <ele>79.450000000000003</ele>
        <time>2025-04-30T09:26:36Z</time>
      </trkpt>
      <trkpt lat="43.707745978608727" lon="-7.698920974507928">
        <ele>80.890000000000001</ele>
        <time>2025-04-30T09:26:37Z</time>
      </trkpt>
      <trkpt lat="43.707682024687529" lon="-7.699041003361344">
        <ele>81.849999999999994</ele>
        <time>2025-04-30T09:26:38Z</time>
      </trkpt>
      <trkpt lat="43.707618992775679" lon="-7.699161032214761">
        <ele>82.810000000000002</ele>
        <time>2025-04-30T09:26:39Z</time>
      </trkpt>
      <trkpt lat="43.707541963085532" lon="-7.69926899112761">
        <ele>83.290000000000006</ele>
        <time>2025-04-30T09:26:40Z</time>
      </trkpt>
      <trkpt lat="43.707440039142966" lon="-7.699370998889208">
        <ele>83.769999999999996</ele>
        <time>2025-04-30T09:26:41Z</time>
      </trkpt>
      <trkpt lat="43.707336019724607" lon="-7.699475018307567">
        <ele>83.769999999999996</ele>
        <time>2025-04-30T09:26:42Z</time>
      </trkpt>
      <trkpt lat="43.70723501779139" lon="-7.699576020240784">
        <ele>84.25</ele>
        <time>2025-04-30T09:26:43Z</time>
      </trkpt>
      <trkpt lat="43.707136027514935" lon="-7.69967501051724">
        <ele>84.730000000000004</ele>
        <time>2025-04-30T09:26:44Z</time>
      </trkpt>
      <trkpt lat="43.707034019753337" lon="-7.699736030772328">
        <ele>85.209999999999994</ele>
        <time>2025-04-30T09:26:45Z</time>
      </trkpt>
      <trkpt lat="43.706907033920288" lon="-7.699771989136934">
        <ele>85.689999999999998</ele>
        <time>2025-04-30T09:26:46Z</time>
      </trkpt>
      <trkpt lat="43.70676496066153" lon="-7.699810964986682">
        <ele>85.689999999999998</ele>
        <time>2025-04-30T09:26:47Z</time>
      </trkpt>
      <trkpt lat="43.706617020070553" lon="-7.699852036312223">
        <ele>85.689999999999998</ele>
        <time>2025-04-30T09:26:48Z</time>
      </trkpt>
      <trkpt lat="43.706474024802446" lon="-7.69989101216197">
        <ele>85.209999999999994</ele>
        <time>2025-04-30T09:26:49Z</time>
      </trkpt>
      <trkpt lat="43.70633396320045" lon="-7.699929988011718">
        <ele>84.730000000000004</ele>
        <time>2025-04-30T09:26:50Z</time>
      </trkpt>
      <trkpt lat="43.706048978492618" lon="-7.70002000965178">
        <ele>83.769999999999996</ele>
        <time>2025-04-30T09:26:52Z</time>
      </trkpt>
      <trkpt lat="43.704962013289332" lon="-7.700715959072113">
        <ele>75.120000000000005</ele>
        <time>2025-04-30T09:27:00Z</time>
      </trkpt>
      <trkpt lat="43.704718016088009" lon="-7.700916035100818">
        <ele>73.200000000000003</ele>
        <time>2025-04-30T09:27:02Z</time>
      </trkpt>
      <trkpt lat="43.704595975577831" lon="-7.701017037034035">
        <ele>72.239999999999995</ele>
        <time>2025-04-30T09:27:03Z</time>
      </trkpt>
      <trkpt lat="43.704343009740114" lon="-7.701222980394959">
        <ele>70.310000000000002</ele>
        <time>2025-04-30T09:27:05Z</time>
      </trkpt>
      <trkpt lat="43.703939002007246" lon="-7.701794961467385">
        <ele>67.430000000000007</ele>
        <time>2025-04-30T09:27:09Z</time>
      </trkpt>
      <trkpt lat="43.703209022060037" lon="-7.703105974942446">
        <ele>59.740000000000002</ele>
        <time>2025-04-30T09:27:17Z</time>
      </trkpt>
      <trkpt lat="43.702918002381921" lon="-7.703807959333062">
        <ele>55.890000000000001</ele>
        <time>2025-04-30T09:27:21Z</time>
      </trkpt>
      <trkpt lat="43.702846001833677" lon="-7.703979033976793">
        <ele>54.93</ele>
        <time>2025-04-30T09:27:22Z</time>
      </trkpt>
      <trkpt lat="43.702774001285434" lon="-7.704139966517687">
        <ele>53.490000000000002</ele>
        <time>2025-04-30T09:27:23Z</time>
      </trkpt>
      <trkpt lat="43.702709963545203" lon="-7.704282039776444">
        <ele>52.530000000000001</ele>
        <time>2025-04-30T09:27:24Z</time>
      </trkpt>
      <trkpt lat="43.702648021280766" lon="-7.704417994245887">
        <ele>51.57</ele>
        <time>2025-04-30T09:27:25Z</time>
      </trkpt>
      <trkpt lat="43.702579038217664" lon="-7.704572975635529">
        <ele>50.130000000000003</ele>
        <time>2025-04-30T09:27:26Z</time>
      </trkpt>
      <trkpt lat="43.70250997133553" lon="-7.704744972288609">
        <ele>49.159999999999997</ele>
        <time>2025-04-30T09:27:27Z</time>
      </trkpt>
      <trkpt lat="43.702448029071093" lon="-7.704928033053875">
        <ele>47.719999999999999</ele>
        <time>2025-04-30T09:27:28Z</time>
      </trkpt>
      <trkpt lat="43.702339986339211" lon="-7.70524000748992">
        <ele>45.32</ele>
        <time>2025-04-30T09:27:30Z</time>
      </trkpt>
      <trkpt lat="43.702273014932871" lon="-7.705385014414787">
        <ele>44.359999999999999</ele>
        <time>2025-04-30T09:27:31Z</time>
      </trkpt>
      <trkpt lat="43.702193973585963" lon="-7.705488028004766">
        <ele>42.920000000000002</ele>
        <time>2025-04-30T09:27:32Z</time>
      </trkpt>
      <trkpt lat="43.702113004401326" lon="-7.705594981089234">
        <ele>41.469999999999999</ele>
        <time>2025-04-30T09:27:33Z</time>
      </trkpt>
      <trkpt lat="43.702033963054419" lon="-7.705699000507593">
        <ele>40.030000000000001</ele>
        <time>2025-04-30T09:27:34Z</time>
      </trkpt>
      <trkpt lat="43.701931033283472" lon="-7.705806959420443">
        <ele>38.590000000000003</ele>
        <time>2025-04-30T09:27:35Z</time>
      </trkpt>
      <trkpt lat="43.701827013865113" lon="-7.705854987725616">
        <ele>37.149999999999999</ele>
        <time>2025-04-30T09:27:36Z</time>
      </trkpt>
      <trkpt lat="43.701699022203684" lon="-7.705904021859169">
        <ele>36.189999999999998</ele>
        <time>2025-04-30T09:27:37Z</time>
      </trkpt>
      <trkpt lat="43.701555021107197" lon="-7.705919025465846">
        <ele>34.740000000000002</ele>
        <time>2025-04-30T09:27:38Z</time>
      </trkpt>
      <trkpt lat="43.701384030282497" lon="-7.705937968567014">
        <ele>33.299999999999997</ele>
        <time>2025-04-30T09:27:39Z</time>
      </trkpt>
      <trkpt lat="43.701202981173992" lon="-7.705958001315594">
        <ele>31.859999999999999</ele>
        <time>2025-04-30T09:27:40Z</time>
      </trkpt>
      <trkpt lat="43.70102402754128" lon="-7.705977028235793">
        <ele>29.940000000000001</ele>
        <time>2025-04-30T09:27:41Z</time>
      </trkpt>
      <trkpt lat="43.700527986511588" lon="-7.706083981320262">
        <ele>25.129999999999999</ele>
        <time>2025-04-30T09:27:44Z</time>
      </trkpt>
      <trkpt lat="43.700387002900243" lon="-7.706136032938957">
        <ele>23.210000000000001</ele>
        <time>2025-04-30T09:27:45Z</time>
      </trkpt>
      <trkpt lat="43.700288012623787" lon="-7.706171991303563">
        <ele>20.809999999999999</ele>
        <time>2025-04-30T09:27:46Z</time>
      </trkpt>
      <trkpt lat="43.700192039832473" lon="-7.706246003508568">
        <ele>16.960000000000001</ele>
        <time>2025-04-30T09:27:48Z</time>
      </trkpt>
      <trkpt lat="43.700154991820455" lon="-7.706280034035444">
        <ele>15.52</ele>
        <time>2025-04-30T09:27:49Z</time>
      </trkpt>
      <trkpt lat="43.700120961293578" lon="-7.706310963258147">
        <ele>13.6</ele>
        <time>2025-04-30T09:27:50Z</time>
      </trkpt>
      <trkpt lat="43.700078967958689" lon="-7.706348011270165">
        <ele>12.15</ele>
        <time>2025-04-30T09:27:51Z</time>
      </trkpt>
      <trkpt lat="43.700025994330645" lon="-7.706396039575338">
        <ele>10.23</ele>
        <time>2025-04-30T09:27:52Z</time>
      </trkpt>
      <trkpt lat="43.699967991560698" lon="-7.706448007375002">
        <ele>8.789999999999999</ele>
        <time>2025-04-30T09:27:53Z</time>
      </trkpt>
      <trkpt lat="43.699899008497596" lon="-7.706510033458471">
        <ele>7.35</ele>
        <time>2025-04-30T09:27:54Z</time>
      </trkpt>
      <trkpt lat="43.699836982414126" lon="-7.706566024571657">
        <ele>5.42</ele>
        <time>2025-04-30T09:27:55Z</time>
      </trkpt>
      <trkpt lat="43.699760958552361" lon="-7.706709019839764">
        <ele>3.98</ele>
        <time>2025-04-30T09:27:56Z</time>
      </trkpt>
      <trkpt lat="43.699685018509626" lon="-7.70685100927949">
        <ele>2.54</ele>
        <time>2025-04-30T09:27:57Z</time>
      </trkpt>
      <trkpt lat="43.699519978836179" lon="-7.707158038392663">
        <ele>-0.34</ele>
        <time>2025-04-30T09:27:59Z</time>
      </trkpt>
      <trkpt lat="43.699430041015148" lon="-7.707326011732221">
        <ele>-1.79</ele>
        <time>2025-04-30T09:28:00Z</time>
      </trkpt>
      <trkpt lat="43.698544995859265" lon="-7.708683963865042">
        <ele>-12.359999999999999</ele>
        <time>2025-04-30T09:28:08Z</time>
      </trkpt>
      <trkpt lat="43.697805041447282" lon="-7.709569009020925">
        <ele>-17.649999999999999</ele>
        <time>2025-04-30T09:28:14Z</time>
      </trkpt>
      <trkpt lat="43.697662968188524" lon="-7.709681997075677">
        <ele>-18.129999999999999</ele>
        <time>2025-04-30T09:28:15Z</time>
      </trkpt>
      <trkpt lat="43.69709400460124" lon="-7.710134033113718">
        <ele>-19.09</ele>
        <time>2025-04-30T09:28:19Z</time>
      </trkpt>
      <trkpt lat="43.696988979354501" lon="-7.710254983976483">
        <ele>-19.09</ele>
        <time>2025-04-30T09:28:20Z</time>
      </trkpt>
      <trkpt lat="43.696893006563187" lon="-7.710394961759448">
        <ele>-19.57</ele>
        <time>2025-04-30T09:28:21Z</time>
      </trkpt>
      <trkpt lat="43.696802984923124" lon="-7.710524965077639">
        <ele>-19.57</ele>
        <time>2025-04-30T09:28:22Z</time>
      </trkpt>
      <trkpt lat="43.696720004081726" lon="-7.710647005587816">
        <ele>-20.050000000000001</ele>
        <time>2025-04-30T09:28:23Z</time>
      </trkpt>
      <trkpt lat="43.696619002148509" lon="-7.710793018341065">
        <ele>-20.050000000000001</ele>
        <time>2025-04-30T09:28:24Z</time>
      </trkpt>
      <trkpt lat="43.696539038792253" lon="-7.710833000019193">
        <ele>-19.57</ele>
        <time>2025-04-30T09:28:25Z</time>
      </trkpt>
      <trkpt lat="43.696440970525146" lon="-7.710882034152746">
        <ele>-19.09</ele>
        <time>2025-04-30T09:28:26Z</time>
      </trkpt>
      <trkpt lat="43.696327982470393" lon="-7.710918998345733">
        <ele>-19.57</ele>
        <time>2025-04-30T09:28:27Z</time>
      </trkpt>
      <trkpt lat="43.696226980537176" lon="-7.7109120413661">
        <ele>-19.57</ele>
        <time>2025-04-30T09:28:28Z</time>
      </trkpt>
      <trkpt lat="43.696137964725494" lon="-7.710905000567436">
        <ele>-19.57</ele>
        <time>2025-04-30T09:28:29Z</time>
      </trkpt>
      <trkpt lat="43.696004021912813" lon="-7.710899971425533">
        <ele>-19.57</ele>
        <time>2025-04-30T09:28:31Z</time>
      </trkpt>
      <trkpt lat="43.695947024971247" lon="-7.710899971425533">
        <ele>-19.09</ele>
        <time>2025-04-30T09:28:32Z</time>
      </trkpt>
      <trkpt lat="43.695824984461069" lon="-7.710899971425533">
        <ele>-19.09</ele>
        <time>2025-04-30T09:28:33Z</time>
      </trkpt>
      <trkpt lat="43.695814004167914" lon="-7.710941964760423">
        <ele>-19.09</ele>
        <time>2025-04-30T09:28:34Z</time>
      </trkpt>
      <trkpt lat="43.695787014439702" lon="-7.711050007492304">
        <ele>-19.09</ele>
        <time>2025-04-30T09:28:35Z</time>
      </trkpt>
      <trkpt lat="43.695757007226348" lon="-7.71117196418345">
        <ele>-18.609999999999999</ele>
        <time>2025-04-30T09:28:36Z</time>
      </trkpt>
      <trkpt lat="43.695751978084445" lon="-7.711346978321672">
        <ele>-17.649999999999999</ele>
        <time>2025-04-30T09:28:37Z</time>
      </trkpt>
      <trkpt lat="43.695771005004644" lon="-7.711487039923668">
        <ele>-17.170000000000002</ele>
        <time>2025-04-30T09:28:38Z</time>
      </trkpt>
      <trkpt lat="43.695915006101131" lon="-7.711926000192761">
        <ele>-13.800000000000001</ele>
        <time>2025-04-30T09:28:41Z</time>
      </trkpt>
      <trkpt lat="43.695982983335853" lon="-7.712042005732656">
        <ele>-11.880000000000001</ele>
        <time>2025-04-30T09:28:42Z</time>
      </trkpt>
      <trkpt lat="43.696121033281088" lon="-7.712206039577723">
        <ele>-9.960000000000001</ele>
        <time>2025-04-30T09:28:44Z</time>
      </trkpt>
      <trkpt lat="43.696182975545526" lon="-7.712217019870877">
        <ele>-9.48</ele>
        <time>2025-04-30T09:28:45Z</time>
      </trkpt>
      <trkpt lat="43.696270985528827" lon="-7.712228000164032">
        <ele>-8.51</ele>
        <time>2025-04-30T09:28:46Z</time>
      </trkpt>
      <trkpt lat="43.696347009390593" lon="-7.712225988507271">
        <ele>-7.55</ele>
        <time>2025-04-30T09:28:47Z</time>
      </trkpt>
      <trkpt lat="43.696440970525146" lon="-7.712217019870877">
        <ele>-7.07</ele>
        <time>2025-04-30T09:28:48Z</time>
      </trkpt>
      <trkpt lat="43.696887977421284" lon="-7.712173014879227">
        <ele>-5.63</ele>
        <time>2025-04-30T09:28:52Z</time>
      </trkpt>
      <trkpt lat="43.697241023182869" lon="-7.712126998230815">
        <ele>-3.23</ele>
        <time>2025-04-30T09:28:55Z</time>
      </trkpt>
      <trkpt lat="43.69737203232944" lon="-7.712241997942329">
        <ele>-2.27</ele>
        <time>2025-04-30T09:28:56Z</time>
      </trkpt>
      <trkpt lat="43.69745995849371" lon="-7.7122020162642">
        <ele>-1.3</ele>
        <time>2025-04-30T09:28:57Z</time>
      </trkpt>
      <trkpt lat="43.697527013719082" lon="-7.712171003222466">
        <ele>-0.34</ele>
        <time>2025-04-30T09:28:58Z</time>
      </trkpt>
      <trkpt lat="43.69756598956883" lon="-7.712152982130647">
        <ele>1.1</ele>
        <time>2025-04-30T09:28:59Z</time>
      </trkpt>
      <trkpt lat="43.697642013430595" lon="-7.712111994624138">
        <ele>3.5</ele>
        <time>2025-04-30T09:29:01Z</time>
      </trkpt>
      <trkpt lat="43.698210977017879" lon="-7.711838996037841">
        <ele>8.310000000000001</ele>
        <time>2025-04-30T09:29:07Z</time>
      </trkpt>
      <trkpt lat="43.69881397113204" lon="-7.711634980514646">
        <ele>10.23</ele>
        <time>2025-04-30T09:29:11Z</time>
      </trkpt>
      <trkpt lat="43.69898596778512" lon="-7.711705975234509">
        <ele>11.19</ele>
        <time>2025-04-30T09:29:12Z</time>
      </trkpt>
      <trkpt lat="43.69911496527493" lon="-7.711791973561049">
        <ele>11.67</ele>
        <time>2025-04-30T09:29:13Z</time>
      </trkpt>
      <trkpt lat="43.699346976354718" lon="-7.711934968829155">
        <ele>12.15</ele>
        <time>2025-04-30T09:29:15Z</time>
      </trkpt>
      <trkpt lat="43.699444960802794" lon="-7.71194402128458">
        <ele>12.15</ele>
        <time>2025-04-30T09:29:16Z</time>
      </trkpt>
      <trkpt lat="43.699535988271236" lon="-7.711899010464549">
        <ele>12.15</ele>
        <time>2025-04-30T09:29:17Z</time>
      </trkpt>
      <trkpt lat="43.699584016576409" lon="-7.711831033229828">
        <ele>12.15</ele>
        <time>2025-04-30T09:29:18Z</time>
      </trkpt>
      <trkpt lat="43.699631039053202" lon="-7.711691977456212">
        <ele>12.630000000000001</ele>
        <time>2025-04-30T09:29:19Z</time>
      </trkpt>
      <trkpt lat="43.699686024338007" lon="-7.711527021601796">
        <ele>13.119999999999999</ele>
        <time>2025-04-30T09:29:20Z</time>
      </trkpt>
      <trkpt lat="43.699738997966051" lon="-7.711367011070252">
        <ele>14.08</ele>
        <time>2025-04-30T09:29:21Z</time>
      </trkpt>
      <trkpt lat="43.699832037091255" lon="-7.71123600192368">
        <ele>15.039999999999999</ele>
        <time>2025-04-30T09:29:22Z</time>
      </trkpt>
      <trkpt lat="43.699950976297259" lon="-7.711156038567424">
        <ele>16</ele>
        <time>2025-04-30T09:29:23Z</time>
      </trkpt>
      <trkpt lat="43.700077962130308" lon="-7.711113961413503">
        <ele>17.440000000000001</ele>
        <time>2025-04-30T09:29:24Z</time>
      </trkpt>
      <trkpt lat="43.700214000418782" lon="-7.711071968078613">
        <ele>18.399999999999999</ele>
        <time>2025-04-30T09:29:25Z</time>
      </trkpt>
      <trkpt lat="43.700349032878876" lon="-7.711071968078613">
        <ele>19.84</ele>
        <time>2025-04-30T09:29:26Z</time>
      </trkpt>
      <trkpt lat="43.700485993176699" lon="-7.711072973906994">
        <ele>21.289999999999999</ele>
        <time>2025-04-30T09:29:27Z</time>
      </trkpt>
      <trkpt lat="43.701828019693494" lon="-7.711108010262251">
        <ele>26.57</ele>
        <time>2025-04-30T09:29:37Z</time>
      </trkpt>
      <trkpt lat="43.701957017183304" lon="-7.711058976128697">
        <ele>26.57</ele>
        <time>2025-04-30T09:29:38Z</time>
      </trkpt>
      <trkpt lat="43.702076962217689" lon="-7.710988987237215">
        <ele>26.57</ele>
        <time>2025-04-30T09:29:39Z</time>
      </trkpt>
      <trkpt lat="43.70229497551918" lon="-7.710808021947742">
        <ele>26.57</ele>
        <time>2025-04-30T09:29:41Z</time>
      </trkpt>
      <trkpt lat="43.7027239613235" lon="-7.710413988679647">
        <ele>25.129999999999999</ele>
        <time>2025-04-30T09:29:45Z</time>
      </trkpt>
      <trkpt lat="43.702838961035013" lon="-7.710361015051603">
        <ele>25.129999999999999</ele>
        <time>2025-04-30T09:29:46Z</time>
      </trkpt>
      <trkpt lat="43.702953038737178" lon="-7.710308963432908">
        <ele>24.649999999999999</ele>
        <time>2025-04-30T09:29:47Z</time>
      </trkpt>
      <trkpt lat="43.703060997650027" lon="-7.710260013118386">
        <ele>24.649999999999999</ele>
        <time>2025-04-30T09:29:48Z</time>
      </trkpt>
      <trkpt lat="43.703163005411625" lon="-7.710213996469975">
        <ele>24.170000000000002</ele>
        <time>2025-04-30T09:29:49Z</time>
      </trkpt>
      <trkpt lat="43.703268030658364" lon="-7.710213996469975">
        <ele>24.170000000000002</ele>
        <time>2025-04-30T09:29:50Z</time>
      </trkpt>
      <trkpt lat="43.70336702093482" lon="-7.710213996469975">
        <ele>23.690000000000001</ele>
        <time>2025-04-30T09:29:51Z</time>
      </trkpt>
      <trkpt lat="43.70345201343298" lon="-7.710250960662961">
        <ele>23.210000000000001</ele>
        <time>2025-04-30T09:29:52Z</time>
      </trkpt>
      <trkpt lat="43.70351898483932" lon="-7.710301000624895">
        <ele>22.25</ele>
        <time>2025-04-30T09:29:53Z</time>
      </trkpt>
      <trkpt lat="43.703575981780887" lon="-7.710404014214873">
        <ele>22.25</ele>
        <time>2025-04-30T09:29:54Z</time>
      </trkpt>
      <trkpt lat="43.703616969287395" lon="-7.710496969521046">
        <ele>21.289999999999999</ele>
        <time>2025-04-30T09:29:55Z</time>
      </trkpt>
      <trkpt lat="43.703633984550834" lon="-7.710651028901339">
        <ele>20.809999999999999</ele>
        <time>2025-04-30T09:29:56Z</time>
      </trkpt>
      <trkpt lat="43.703653011471033" lon="-7.710810033604503">
        <ele>19.359999999999999</ele>
        <time>2025-04-30T09:29:57Z</time>
      </trkpt>
      <trkpt lat="43.703671032562852" lon="-7.710970966145396">
        <ele>18.399999999999999</ele>
        <time>2025-04-30T09:29:58Z</time>
      </trkpt>
      <trkpt lat="43.7037100084126" lon="-7.711125025525689">
        <ele>17.440000000000001</ele>
        <time>2025-04-30T09:29:59Z</time>
      </trkpt>
      <trkpt lat="43.703760970383883" lon="-7.71127900108695">
        <ele>16.960000000000001</ele>
        <time>2025-04-30T09:30:00Z</time>
      </trkpt>
      <trkpt lat="43.703828025609255" lon="-7.711479999125004">
        <ele>17.440000000000001</ele>
        <time>2025-04-30T09:30:01Z</time>
      </trkpt>
      <trkpt lat="43.704095995053649" lon="-7.712002024054527">
        <ele>18.879999999999999</ele>
        <time>2025-04-30T09:30:05Z</time>
      </trkpt>
      <trkpt lat="43.704173024743795" lon="-7.712128004059196">
        <ele>18.879999999999999</ele>
        <time>2025-04-30T09:30:06Z</time>
      </trkpt>
      <trkpt lat="43.704251982271671" lon="-7.712258007377386">
        <ele>19.359999999999999</ele>
        <time>2025-04-30T09:30:07Z</time>
      </trkpt>
      <trkpt lat="43.704736037179828" lon="-7.712851027026773">
        <ele>24.649999999999999</ele>
        <time>2025-04-30T09:30:12Z</time>
      </trkpt>
      <trkpt lat="43.704838966950774" lon="-7.712959991768003">
        <ele>26.09</ele>
        <time>2025-04-30T09:30:13Z</time>
      </trkpt>
      <trkpt lat="43.704955978319049" lon="-7.713037021458149">
        <ele>27.050000000000001</ele>
        <time>2025-04-30T09:30:14Z</time>
      </trkpt>
      <trkpt lat="43.705072989687324" lon="-7.713088989257813">
        <ele>28.02</ele>
        <time>2025-04-30T09:30:15Z</time>
      </trkpt>
      <trkpt lat="43.705202993005514" lon="-7.713088989257813">
        <ele>28.98</ele>
        <time>2025-04-30T09:30:16Z</time>
      </trkpt>
      <trkpt lat="43.705337019637227" lon="-7.713054036721587">
        <ele>30.420000000000002</ele>
        <time>2025-04-30T09:30:17Z</time>
      </trkpt>
      <trkpt lat="43.705470962449908" lon="-7.712986981496215">
        <ele>32.340000000000003</ele>
        <time>2025-04-30T09:30:18Z</time>
      </trkpt>
      <trkpt lat="43.705596020445228" lon="-7.712924033403397">
        <ele>33.780000000000001</ele>
        <time>2025-04-30T09:30:19Z</time>
      </trkpt>
      <trkpt lat="43.705695010721684" lon="-7.712874999269843">
        <ele>35.229999999999997</ele>
        <time>2025-04-30T09:30:20Z</time>
      </trkpt>
      <trkpt lat="43.705794000998139" lon="-7.712924033403397">
        <ele>36.670000000000002</ele>
        <time>2025-04-30T09:30:21Z</time>
      </trkpt>
      <trkpt lat="43.705877987667918" lon="-7.712980024516583">
        <ele>38.109999999999999</ele>
        <time>2025-04-30T09:30:22Z</time>
      </trkpt>
      <trkpt lat="43.705943031236529" lon="-7.713097035884857">
        <ele>39.07</ele>
        <time>2025-04-30T09:30:23Z</time>
      </trkpt>
      <trkpt lat="43.706003967672586" lon="-7.713237013667822">
        <ele>39.549999999999997</ele>
        <time>2025-04-30T09:30:24Z</time>
      </trkpt>
      <trkpt lat="43.706162972375751" lon="-7.713537001982331">
        <ele>41.950000000000003</ele>
        <time>2025-04-30T09:30:26Z</time>
      </trkpt>
      <trkpt lat="43.706257017329335" lon="-7.713667005300522">
        <ele>42.920000000000002</ele>
        <time>2025-04-30T09:30:27Z</time>
      </trkpt>
      <trkpt lat="43.706391965970397" lon="-7.713739005848765">
        <ele>43.880000000000003</ele>
        <time>2025-04-30T09:30:28Z</time>
      </trkpt>
      <trkpt lat="43.706519035622478" lon="-7.713817041367292">
        <ele>44.840000000000003</ele>
        <time>2025-04-30T09:30:29Z</time>
      </trkpt>
      <trkpt lat="43.706647027283907" lon="-7.713861968368292">
        <ele>46.280000000000001</ele>
        <time>2025-04-30T09:30:30Z</time>
      </trkpt>
      <trkpt lat="43.706765966489911" lon="-7.713889963924885">
        <ele>47.240000000000002</ele>
        <time>2025-04-30T09:30:31Z</time>
      </trkpt>
      <trkpt lat="43.706918014213443" lon="-7.713926006108522">
        <ele>48.200000000000003</ele>
        <time>2025-04-30T09:30:32Z</time>
      </trkpt>
      <trkpt lat="43.707009041681886" lon="-7.713864985853434">
        <ele>49.159999999999997</ele>
        <time>2025-04-30T09:30:33Z</time>
      </trkpt>
      <trkpt lat="43.707101996988058" lon="-7.713751997798681">
        <ele>50.130000000000003</ele>
        <time>2025-04-30T09:30:34Z</time>
      </trkpt>
      <trkpt lat="43.707183972001076" lon="-7.713618976995349">
        <ele>51.57</ele>
        <time>2025-04-30T09:30:35Z</time>
      </trkpt>
      <trkpt lat="43.707267958670855" lon="-7.713478999212384">
        <ele>52.530000000000001</ele>
        <time>2025-04-30T09:30:36Z</time>
      </trkpt>
      <trkpt lat="43.707352029159665" lon="-7.71333902142942">
        <ele>53.969999999999999</ele>
        <time>2025-04-30T09:30:37Z</time>
      </trkpt>
      <trkpt lat="43.707437021657825" lon="-7.713198037818074">
        <ele>54.93</ele>
        <time>2025-04-30T09:30:38Z</time>
      </trkpt>
      <trkpt lat="43.70800900273025" lon="-7.712554978206754">
        <ele>61.659999999999997</ele>
        <time>2025-04-30T09:30:44Z</time>
      </trkpt>
      <trkpt lat="43.708103969693184" lon="-7.712435033172369">
        <ele>62.619999999999997</ele>
        <time>2025-04-30T09:30:45Z</time>
      </trkpt>
      <trkpt lat="43.708303039893508" lon="-7.712214002385736">
        <ele>65.510000000000005</ele>
        <time>2025-04-30T09:30:47Z</time>
      </trkpt>
      <trkpt lat="43.708399012684822" lon="-7.712145019322634">
        <ele>66.469999999999999</ele>
        <time>2025-04-30T09:30:48Z</time>
      </trkpt>
      <trkpt lat="43.708528010174632" lon="-7.712134961038828">
        <ele>67.909999999999997</ele>
        <time>2025-04-30T09:30:49Z</time>
      </trkpt>
      <trkpt lat="43.708677962422371" lon="-7.712122974917293">
        <ele>69.349999999999994</ele>
        <time>2025-04-30T09:30:50Z</time>
      </trkpt>
      <trkpt lat="43.708792040124536" lon="-7.712148958817124">
        <ele>70.310000000000002</ele>
        <time>2025-04-30T09:30:51Z</time>
      </trkpt>
      <trkpt lat="43.709875987842679" lon="-7.712007975205779">
        <ele>76.560000000000002</ele>
        <time>2025-04-30T09:30:58Z</time>
      </trkpt>
      <trkpt lat="43.711171997711062" lon="-7.71172801963985">
        <ele>75.120000000000005</ele>
        <time>2025-04-30T09:31:05Z</time>
      </trkpt>
      <trkpt lat="43.711725035682321" lon="-7.711630035191774">
        <ele>71.760000000000005</ele>
        <time>2025-04-30T09:31:08Z</time>
      </trkpt>
      <trkpt lat="43.711916981264949" lon="-7.711682002991438">
        <ele>70.790000000000006</ele>
        <time>2025-04-30T09:31:09Z</time>
      </trkpt>
      <trkpt lat="43.712252005934715" lon="-7.711741011589766">
        <ele>69.349999999999994</ele>
        <time>2025-04-30T09:31:11Z</time>
      </trkpt>
      <trkpt lat="43.712376980111003" lon="-7.711699018254876">
        <ele>68.870000000000005</ele>
        <time>2025-04-30T09:31:12Z</time>
      </trkpt>
      <trkpt lat="43.712473958730698" lon="-7.711597010493279">
        <ele>68.870000000000005</ele>
        <time>2025-04-30T09:31:13Z</time>
      </trkpt>
      <trkpt lat="43.712554005905986" lon="-7.711466001346707">
        <ele>69.349999999999994</ele>
        <time>2025-04-30T09:31:14Z</time>
      </trkpt>
      <trkpt lat="43.712626006454229" lon="-7.711306996643543">
        <ele>70.310000000000002</ele>
        <time>2025-04-30T09:31:15Z</time>
      </trkpt>
      <trkpt lat="43.713162029162049" lon="-7.710192035883665">
        <ele>76.560000000000002</ele>
        <time>2025-04-30T09:31:21Z</time>
      </trkpt>
      <trkpt lat="43.71329496614635" lon="-7.71001098677516">
        <ele>77.519999999999996</ele>
        <time>2025-04-30T09:31:22Z</time>
      </trkpt>
      <trkpt lat="43.713431004434824" lon="-7.70983899012208">
        <ele>78.969999999999999</ele>
        <time>2025-04-30T09:31:23Z</time>
      </trkpt>
      <trkpt lat="43.713969960808754" lon="-7.709317971020937">
        <ele>83.290000000000006</ele>
        <time>2025-04-30T09:31:27Z</time>
      </trkpt>
      <trkpt lat="43.71410901658237" lon="-7.709243958815932">
        <ele>83.769999999999996</ele>
        <time>2025-04-30T09:31:28Z</time>
      </trkpt>
      <trkpt lat="43.714258968830109" lon="-7.709234990179539">
        <ele>84.25</ele>
        <time>2025-04-30T09:31:29Z</time>
      </trkpt>
      <trkpt lat="43.714406993240118" lon="-7.709247982129455">
        <ele>84.25</ele>
        <time>2025-04-30T09:31:30Z</time>
      </trkpt>
      <trkpt lat="43.71455904096365" lon="-7.709358958527446">
        <ele>84.25</ele>
        <time>2025-04-30T09:31:31Z</time>
      </trkpt>
      <trkpt lat="43.714696001261473" lon="-7.709480999037623">
        <ele>83.769999999999996</ele>
        <time>2025-04-30T09:31:32Z</time>
      </trkpt>
      <trkpt lat="43.714832039549947" lon="-7.709640003740788">
        <ele>83.290000000000006</ele>
        <time>2025-04-30T09:31:33Z</time>
      </trkpt>
      <trkpt lat="43.714976962655783" lon="-7.709809988737106">
        <ele>82.810000000000002</ele>
        <time>2025-04-30T09:31:34Z</time>
      </trkpt>
      <trkpt lat="43.716081026941538" lon="-7.711157966405153">
        <ele>78</ele>
        <time>2025-04-30T09:31:42Z</time>
      </trkpt>
      <trkpt lat="43.716244976967573" lon="-7.711248993873596">
        <ele>77.519999999999996</ele>
        <time>2025-04-30T09:31:43Z</time>
      </trkpt>
      <trkpt lat="43.716381015256047" lon="-7.711265003308654">
        <ele>76.560000000000002</ele>
        <time>2025-04-30T09:31:44Z</time>
      </trkpt>
      <trkpt lat="43.716542031615973" lon="-7.711207000538707">
        <ele>76.079999999999998</ele>
        <time>2025-04-30T09:31:45Z</time>
      </trkpt>
      <trkpt lat="43.716699024662375" lon="-7.711127959191799">
        <ele>76.079999999999998</ele>
        <time>2025-04-30T09:31:46Z</time>
      </trkpt>
      <trkpt lat="43.71685903519392" lon="-7.711014971137047">
        <ele>76.560000000000002</ele>
        <time>2025-04-30T09:31:47Z</time>
      </trkpt>
      <trkpt lat="43.71701099909842" lon="-7.71089200861752">
        <ele>77.040000000000006</ele>
        <time>2025-04-30T09:31:48Z</time>
      </trkpt>
      <trkpt lat="43.717132033780217" lon="-7.710793018341065">
        <ele>77.519999999999996</ele>
        <time>2025-04-30T09:31:49Z</time>
      </trkpt>
      <trkpt lat="43.717221971601248" lon="-7.71061297506094">
        <ele>78.480000000000004</ele>
        <time>2025-04-30T09:31:50Z</time>
      </trkpt>
      <trkpt lat="43.71728902682662" lon="-7.710446007549763">
        <ele>79.450000000000003</ele>
        <time>2025-04-30T09:31:51Z</time>
      </trkpt>
      <trkpt lat="43.717320039868355" lon="-7.71022598259151">
        <ele>80.890000000000001</ele>
        <time>2025-04-30T09:31:52Z</time>
      </trkpt>
      <trkpt lat="43.717351974919438" lon="-7.710003023967147">
        <ele>81.849999999999994</ele>
        <time>2025-04-30T09:31:53Z</time>
      </trkpt>
      <trkpt lat="43.717401009052992" lon="-7.709545036777854">
        <ele>84.25</ele>
        <time>2025-04-30T09:31:55Z</time>
      </trkpt>
      <trkpt lat="43.717444008216262" lon="-7.709341021254659">
        <ele>86.180000000000007</ele>
        <time>2025-04-30T09:31:56Z</time>
      </trkpt>
      <trkpt lat="43.71752598322928" lon="-7.709149997681379">
        <ele>87.620000000000005</ele>
        <time>2025-04-30T09:31:57Z</time>
      </trkpt>
      <trkpt lat="43.717628996819258" lon="-7.709028962999582">
        <ele>88.579999999999998</ele>
        <time>2025-04-30T09:31:58Z</time>
      </trkpt>
      <trkpt lat="43.717724969610572" lon="-7.708917986601591">
        <ele>89.540000000000006</ele>
        <time>2025-04-30T09:31:59Z</time>
      </trkpt>
      <trkpt lat="43.717829994857311" lon="-7.708820002153516">
        <ele>90.5</ele>
        <time>2025-04-30T09:32:00Z</time>
      </trkpt>
      <trkpt lat="43.717927979305387" lon="-7.708739032968879">
        <ele>91.459999999999994</ele>
        <time>2025-04-30T09:32:01Z</time>
      </trkpt>
      <trkpt lat="43.718041973188519" lon="-7.708664014935494">
        <ele>91.459999999999994</ele>
        <time>2025-04-30T09:32:02Z</time>
      </trkpt>
      <trkpt lat="43.718140963464975" lon="-7.708646999672055">
        <ele>91.459999999999994</ele>
        <time>2025-04-30T09:32:03Z</time>
      </trkpt>
      <trkpt lat="43.718264009803534" lon="-7.708684969693422">
        <ele>91.459999999999994</ele>
        <time>2025-04-30T09:32:04Z</time>
      </trkpt>
      <trkpt lat="43.718370962888002" lon="-7.708717994391918">
        <ele>91.459999999999994</ele>
        <time>2025-04-30T09:32:05Z</time>
      </trkpt>
      <trkpt lat="43.718477999791503" lon="-7.708755964413285">
        <ele>91.459999999999994</ele>
        <time>2025-04-30T09:32:06Z</time>
      </trkpt>
      <trkpt lat="43.719385005533695" lon="-7.709033992141485">
        <ele>91.939999999999998</ele>
        <time>2025-04-30T09:32:14Z</time>
      </trkpt>
      <trkpt lat="43.720046002417803" lon="-7.708868030458689">
        <ele>90.5</ele>
        <time>2025-04-30T09:32:20Z</time>
      </trkpt>
      <trkpt lat="43.720152033492923" lon="-7.708852021023631">
        <ele>90.5</ele>
        <time>2025-04-30T09:32:21Z</time>
      </trkpt>
      <trkpt lat="43.720242977142334" lon="-7.708840034902096">
        <ele>90.019999999999996</ele>
        <time>2025-04-30T09:32:22Z</time>
      </trkpt>
      <trkpt lat="43.720366023480892" lon="-7.708885967731476">
        <ele>90.019999999999996</ele>
        <time>2025-04-30T09:32:23Z</time>
      </trkpt>
      <trkpt lat="43.72046803124249" lon="-7.708945982158184">
        <ele>89.540000000000006</ele>
        <time>2025-04-30T09:32:24Z</time>
      </trkpt>
      <trkpt lat="43.720582025125623" lon="-7.709034997969866">
        <ele>89.060000000000002</ele>
        <time>2025-04-30T09:32:25Z</time>
      </trkpt>
      <trkpt lat="43.72070599347353" lon="-7.709131976589561">
        <ele>88.579999999999998</ele>
        <time>2025-04-30T09:32:26Z</time>
      </trkpt>
      <trkpt lat="43.72083599679172" lon="-7.709233984351158">
        <ele>88.099999999999994</ele>
        <time>2025-04-30T09:32:27Z</time>
      </trkpt>
      <trkpt lat="43.720981003716588" lon="-7.709317971020937">
        <ele>88.099999999999994</ele>
        <time>2025-04-30T09:32:28Z</time>
      </trkpt>
      <trkpt lat="43.721130033954978" lon="-7.709347978234291">
        <ele>87.620000000000005</ele>
        <time>2025-04-30T09:32:29Z</time>
      </trkpt>
      <trkpt lat="43.721272023394704" lon="-7.709312019869685">
        <ele>87.620000000000005</ele>
        <time>2025-04-30T09:32:30Z</time>
      </trkpt>
      <trkpt lat="43.721418036147952" lon="-7.709231972694397">
        <ele>87.140000000000001</ele>
        <time>2025-04-30T09:32:31Z</time>
      </trkpt>
      <trkpt lat="43.721577962860465" lon="-7.709143962711096">
        <ele>87.140000000000001</ele>
        <time>2025-04-30T09:32:32Z</time>
      </trkpt>
      <trkpt lat="43.722621006891131" lon="-7.708530994132161">
        <ele>94.349999999999994</ele>
        <time>2025-04-30T09:32:38Z</time>
      </trkpt>
      <trkpt lat="43.722795015200973" lon="-7.708412976935506">
        <ele>95.790000000000006</ele>
        <time>2025-04-30T09:32:39Z</time>
      </trkpt>
      <trkpt lat="43.722929963842034" lon="-7.708249026909471">
        <ele>97.709999999999994</ele>
        <time>2025-04-30T09:32:40Z</time>
      </trkpt>
      <trkpt lat="43.723855996504426" lon="-7.707245964556932">
        <ele>108.77</ele>
        <time>2025-04-30T09:32:46Z</time>
      </trkpt>
      <trkpt lat="43.724026987329125" lon="-7.707150997593999">
        <ele>110.20999999999999</ele>
        <time>2025-04-30T09:32:47Z</time>
      </trkpt>
      <trkpt lat="43.72420703060925" lon="-7.707054018974304">
        <ele>111.65000000000001</ele>
        <time>2025-04-30T09:32:48Z</time>
      </trkpt>
      <trkpt lat="43.724391013383865" lon="-7.706992998719215">
        <ele>113.56999999999999</ele>
        <time>2025-04-30T09:32:49Z</time>
      </trkpt>
      <trkpt lat="43.724568039178848" lon="-7.706933990120888">
        <ele>114.53</ele>
        <time>2025-04-30T09:32:50Z</time>
      </trkpt>
      <trkpt lat="43.724899040535092" lon="-7.706770962104201">
        <ele>116.94</ele>
        <time>2025-04-30T09:32:52Z</time>
      </trkpt>
      <trkpt lat="43.725062990561128" lon="-7.706647999584675">
        <ele>118.38</ele>
        <time>2025-04-30T09:32:53Z</time>
      </trkpt>
      <trkpt lat="43.725223001092672" lon="-7.706526964902878">
        <ele>119.81999999999999</ele>
        <time>2025-04-30T09:32:54Z</time>
      </trkpt>
      <trkpt lat="43.725515026599169" lon="-7.706305012106895">
        <ele>122.22</ele>
        <time>2025-04-30T09:32:56Z</time>
      </trkpt>
      <trkpt lat="43.72566900216043" lon="-7.706203004345298">
        <ele>123.19</ele>
        <time>2025-04-30T09:32:57Z</time>
      </trkpt>
      <trkpt lat="43.725802022963762" lon="-7.706213984638453">
        <ele>123.67</ele>
        <time>2025-04-30T09:32:58Z</time>
      </trkpt>
      <trkpt lat="43.725943006575108" lon="-7.706244997680187">
        <ele>124.63</ele>
        <time>2025-04-30T09:32:59Z</time>
      </trkpt>
      <trkpt lat="43.726065969094634" lon="-7.706326972693205">
        <ele>125.59</ele>
        <time>2025-04-30T09:33:00Z</time>
      </trkpt>
      <trkpt lat="43.726165965199471" lon="-7.706394027918577">
        <ele>126.06999999999999</ele>
        <time>2025-04-30T09:33:01Z</time>
      </trkpt>
      <trkpt lat="43.726322036236525" lon="-7.706482037901878">
        <ele>126.55</ele>
        <time>2025-04-30T09:33:02Z</time>
      </trkpt>
      <trkpt lat="43.726458996534348" lon="-7.706558983772993">
        <ele>126.55</ele>
        <time>2025-04-30T09:33:03Z</time>
      </trkpt>
      <trkpt lat="43.727895990014076" lon="-7.706909012049437">
        <ele>118.86</ele>
        <time>2025-04-30T09:33:11Z</time>
      </trkpt>
      <trkpt lat="43.72828901745379" lon="-7.706901971250773">
        <ele>115.5</ele>
        <time>2025-04-30T09:33:13Z</time>
      </trkpt>
      <trkpt lat="43.72968602925539" lon="-7.706796023994684">
        <ele>101.56</ele>
        <time>2025-04-30T09:33:21Z</time>
      </trkpt>
      <trkpt lat="43.729830030351877" lon="-7.706825025379658">
        <ele>100.11</ele>
        <time>2025-04-30T09:33:22Z</time>
      </trkpt>
      <trkpt lat="43.730317018926144" lon="-7.707149991765618">
        <ele>95.790000000000006</ele>
        <time>2025-04-30T09:33:26Z</time>
      </trkpt>
      <trkpt lat="43.730403017252684" lon="-7.707277983427048">
        <ele>94.829999999999998</ele>
        <time>2025-04-30T09:33:27Z</time>
      </trkpt>
      <trkpt lat="43.730461020022631" lon="-7.707441011443734">
        <ele>94.349999999999994</ele>
        <time>2025-04-30T09:33:28Z</time>
      </trkpt>
      <trkpt lat="43.730507036671042" lon="-7.707585012540221">
        <ele>93.870000000000005</ele>
        <time>2025-04-30T09:33:29Z</time>
      </trkpt>
      <trkpt lat="43.730550035834312" lon="-7.707717027515173">
        <ele>92.900000000000006</ele>
        <time>2025-04-30T09:33:30Z</time>
      </trkpt>
      <trkpt lat="43.730587000027299" lon="-7.707833033055067">
        <ele>91.939999999999998</ele>
        <time>2025-04-30T09:33:31Z</time>
      </trkpt>
      <trkpt lat="43.730608038604259" lon="-7.707931017503142">
        <ele>90.980000000000004</ele>
        <time>2025-04-30T09:33:32Z</time>
      </trkpt>
      <trkpt lat="43.730608038604259" lon="-7.707996983081102">
        <ele>90.019999999999996</ele>
        <time>2025-04-30T09:33:33Z</time>
      </trkpt>
      <trkpt lat="43.730608038604259" lon="-7.708034031093121">
        <ele>89.060000000000002</ele>
        <time>2025-04-30T09:33:34Z</time>
      </trkpt>
      <trkpt lat="43.730608038604259" lon="-7.708058003336191">
        <ele>88.579999999999998</ele>
        <time>2025-04-30T09:33:35Z</time>
      </trkpt>
      <trkpt lat="43.730608038604259" lon="-7.708087004721165">
        <ele>87.620000000000005</ele>
        <time>2025-04-30T09:33:36Z</time>
      </trkpt>
      <trkpt lat="43.7305679731071" lon="-7.708138972520828">
        <ele>87.140000000000001</ele>
        <time>2025-04-30T09:33:37Z</time>
      </trkpt>
      <trkpt lat="43.730511981993914" lon="-7.70811902359128">
        <ele>86.180000000000007</ele>
        <time>2025-04-30T09:33:38Z</time>
      </trkpt>
      <trkpt lat="43.730431012809277" lon="-7.708090022206307">
        <ele>85.689999999999998</ele>
        <time>2025-04-30T09:33:39Z</time>
      </trkpt>
      <trkpt lat="43.729936983436346" lon="-7.707984996959567">
        <ele>85.209999999999994</ele>
        <time>2025-04-30T09:33:43Z</time>
      </trkpt>
      <trkpt lat="43.729788037016988" lon="-7.707996983081102">
        <ele>85.209999999999994</ele>
        <time>2025-04-30T09:33:44Z</time>
      </trkpt>
      <trkpt lat="43.729624003171921" lon="-7.708016010001302">
        <ele>85.689999999999998</ele>
        <time>2025-04-30T09:33:45Z</time>
      </trkpt>
      <trkpt lat="43.729448989033699" lon="-7.70803595893085">
        <ele>86.180000000000007</ele>
        <time>2025-04-30T09:33:46Z</time>
      </trkpt>
      <trkpt lat="43.729276992380619" lon="-7.708081975579262">
        <ele>86.659999999999997</ele>
        <time>2025-04-30T09:33:47Z</time>
      </trkpt>
      <trkpt lat="43.729098960757256" lon="-7.708156993612647">
        <ele>87.140000000000001</ele>
        <time>2025-04-30T09:33:48Z</time>
      </trkpt>
      <trkpt lat="43.728919001296163" lon="-7.708249026909471">
        <ele>88.099999999999994</ele>
        <time>2025-04-30T09:33:49Z</time>
      </trkpt>
      <trkpt lat="43.728738036006689" lon="-7.708342988044024">
        <ele>88.579999999999998</ele>
        <time>2025-04-30T09:33:50Z</time>
      </trkpt>
      <trkpt lat="43.727532969787717" lon="-7.709328029304743">
        <ele>92.420000000000002</ele>
        <time>2025-04-30T09:33:57Z</time>
      </trkpt>
      <trkpt lat="43.727241028100252" lon="-7.709718039259315">
        <ele>93.390000000000001</ele>
        <time>2025-04-30T09:33:59Z</time>
      </trkpt>
      <trkpt lat="43.727126028388739" lon="-7.70994602702558">
        <ele>93.870000000000005</ele>
        <time>2025-04-30T09:34:00Z</time>
      </trkpt>
      <trkpt lat="43.727008011192083" lon="-7.710181977599859">
        <ele>94.349999999999994</ele>
        <time>2025-04-30T09:34:01Z</time>
      </trkpt>
      <trkpt lat="43.72691597789526" lon="-7.710429998114705">
        <ele>94.829999999999998</ele>
        <time>2025-04-30T09:34:02Z</time>
      </trkpt>
      <trkpt lat="43.7268309853971" lon="-7.710683969780803">
        <ele>95.310000000000002</ele>
        <time>2025-04-30T09:34:03Z</time>
      </trkpt>
      <trkpt lat="43.726754039525986" lon="-7.710942970588803">
        <ele>96.269999999999996</ele>
        <time>2025-04-30T09:34:04Z</time>
      </trkpt>
      <trkpt lat="43.726105028763413" lon="-7.713357964530587">
        <ele>99.629999999999995</ele>
        <time>2025-04-30T09:34:13Z</time>
      </trkpt>
      <trkpt lat="43.725770004093647" lon="-7.714414000511169">
        <ele>100.11</ele>
        <time>2025-04-30T09:34:17Z</time>
      </trkpt>
      <trkpt lat="43.725725999101996" lon="-7.714678030461073">
        <ele>100.59999999999999</ele>
        <time>2025-04-30T09:34:18Z</time>
      </trkpt>
      <trkpt lat="43.725707978010178" lon="-7.714945999905467">
        <ele>100.59999999999999</ele>
        <time>2025-04-30T09:34:19Z</time>
      </trkpt>
      <trkpt lat="43.725750977173448" lon="-7.715179016813636">
        <ele>100.59999999999999</ele>
        <time>2025-04-30T09:34:20Z</time>
      </trkpt>
      <trkpt lat="43.725792970508337" lon="-7.715405998751521">
        <ele>100.59999999999999</ele>
        <time>2025-04-30T09:34:21Z</time>
      </trkpt>
      <trkpt lat="43.72588399797678" lon="-7.715614037588239">
        <ele>101.08</ele>
        <time>2025-04-30T09:34:22Z</time>
      </trkpt>
      <trkpt lat="43.725992040708661" lon="-7.715806988999248">
        <ele>101.08</ele>
        <time>2025-04-30T09:34:23Z</time>
      </trkpt>
      <trkpt lat="43.726134030148387" lon="-7.715914025902748">
        <ele>102.04000000000001</ele>
        <time>2025-04-30T09:34:24Z</time>
      </trkpt>
      <trkpt lat="43.726281970739365" lon="-7.716023996472359">
        <ele>102.52</ele>
        <time>2025-04-30T09:34:25Z</time>
      </trkpt>
      <trkpt lat="43.726453967392445" lon="-7.716124998405576">
        <ele>103.48</ele>
        <time>2025-04-30T09:34:26Z</time>
      </trkpt>
      <trkpt lat="43.726637028157711" lon="-7.716161040589213">
        <ele>104.44</ele>
        <time>2025-04-30T09:34:27Z</time>
      </trkpt>
      <trkpt lat="43.726824028417468" lon="-7.716196998953819">
        <ele>105.88</ele>
        <time>2025-04-30T09:34:28Z</time>
      </trkpt>
      <trkpt lat="43.727210015058517" lon="-7.716264976188541">
        <ele>108.77</ele>
        <time>2025-04-30T09:34:30Z</time>
      </trkpt>
      <trkpt lat="43.72738997451961" lon="-7.716296995058656">
        <ele>110.20999999999999</ele>
        <time>2025-04-30T09:34:31Z</time>
      </trkpt>
      <trkpt lat="43.7276909686625" lon="-7.716469997540116">
        <ele>112.61</ele>
        <time>2025-04-30T09:34:33Z</time>
      </trkpt>
      <trkpt lat="43.727799011394382" lon="-7.71654300391674">
        <ele>114.05</ele>
        <time>2025-04-30T09:34:34Z</time>
      </trkpt>
      <trkpt lat="43.727934965863824" lon="-7.716647023335099">
        <ele>117.90000000000001</ele>
        <time>2025-04-30T09:34:38Z</time>
      </trkpt>
      <trkpt lat="43.72792499139905" lon="-7.716630008071661">
        <ele>119.81999999999999</ele>
        <time>2025-04-30T09:34:40Z</time>
      </trkpt>
      <trkpt lat="43.72792499139905" lon="-7.716630008071661">
        <ele>123.19</ele>
        <time>2025-04-30T09:34:45Z</time>
      </trkpt>
      <trkpt lat="43.727919962257147" lon="-7.716613998636603">
        <ele>124.15000000000001</ele>
        <time>2025-04-30T09:34:46Z</time>
      </trkpt>
      <trkpt lat="43.727907976135612" lon="-7.716581979766488">
        <ele>124.63</ele>
        <time>2025-04-30T09:34:47Z</time>
      </trkpt>
      <trkpt lat="43.727890960872173" lon="-7.716532023623586">
        <ele>125.11</ele>
        <time>2025-04-30T09:34:48Z</time>
      </trkpt>
      <trkpt lat="43.727865982800722" lon="-7.716463962569833">
        <ele>125.59</ele>
        <time>2025-04-30T09:34:49Z</time>
      </trkpt>
      <trkpt lat="43.727808985859156" lon="-7.716300012543798">
        <ele>126.06999999999999</ele>
        <time>2025-04-30T09:34:51Z</time>
      </trkpt>
      <trkpt lat="43.727714018896222" lon="-7.716034976765513">
        <ele>127.51000000000001</ele>
        <time>2025-04-30T09:34:56Z</time>
      </trkpt>
      <trkpt lat="43.727707983925939" lon="-7.716016033664346">
        <ele>127.51000000000001</ele>
        <time>2025-04-30T09:34:57Z</time>
      </trkpt>
      <trkpt lat="43.727701026946306" lon="-7.715997006744146">
        <ele>127.51000000000001</ele>
        <time>2025-04-30T09:34:58Z</time>
      </trkpt>
      <trkpt lat="43.727670013904572" lon="-7.715920982882381">
        <ele>127.98999999999999</ele>
        <time>2025-04-30T09:35:00Z</time>
      </trkpt>
      <trkpt lat="43.727640006691217" lon="-7.715851999819279">
        <ele>127.98999999999999</ele>
        <time>2025-04-30T09:35:01Z</time>
      </trkpt>
      <trkpt lat="43.727600025013089" lon="-7.715760972350836">
        <ele>127.98999999999999</ele>
        <time>2025-04-30T09:35:02Z</time>
      </trkpt>
      <trkpt lat="43.727553002536297" lon="-7.715652007609606">
        <ele>127.51000000000001</ele>
        <time>2025-04-30T09:35:03Z</time>
      </trkpt>
      <trkpt lat="43.727502040565014" lon="-7.715536002069712">
        <ele>127.51000000000001</ele>
        <time>2025-04-30T09:35:04Z</time>
      </trkpt>
      <trkpt lat="43.72745200060308" lon="-7.715422008186579">
        <ele>127.03</ele>
        <time>2025-04-30T09:35:05Z</time>
      </trkpt>
      <trkpt lat="43.72741000726819" lon="-7.715326035395265">
        <ele>126.55</ele>
        <time>2025-04-30T09:35:06Z</time>
      </trkpt>
      <trkpt lat="43.72738997451961" lon="-7.715255040675402">
        <ele>125.59</ele>
        <time>2025-04-30T09:35:07Z</time>
      </trkpt>
      <trkpt lat="43.727397015318274" lon="-7.715151021257043">
        <ele>124.63</ele>
        <time>2025-04-30T09:35:08Z</time>
      </trkpt>
      <trkpt lat="43.727403972297907" lon="-7.715026969090104">
        <ele>123.19</ele>
        <time>2025-04-30T09:35:09Z</time>
      </trkpt>
      <trkpt lat="43.727428028360009" lon="-7.714895037934184">
        <ele>122.22</ele>
        <time>2025-04-30T09:35:10Z</time>
      </trkpt>
      <trkpt lat="43.727470021694899" lon="-7.714798981323838">
        <ele>121.26000000000001</ele>
        <time>2025-04-30T09:35:11Z</time>
      </trkpt>
      <trkpt lat="43.727514026686549" lon="-7.714699991047382">
        <ele>120.3</ele>
        <time>2025-04-30T09:35:12Z</time>
      </trkpt>
      <trkpt lat="43.7275580316782" lon="-7.714598989114165">
        <ele>119.34</ele>
        <time>2025-04-30T09:35:13Z</time>
      </trkpt>
      <trkpt lat="43.727599019184709" lon="-7.714507039636374">
        <ele>118.86</ele>
        <time>2025-04-30T09:35:14Z</time>
      </trkpt>
      <trkpt lat="43.727758023887873" lon="-7.714147036895156">
        <ele>115.98</ele>
        <time>2025-04-30T09:35:18Z</time>
      </trkpt>
      <trkpt lat="43.727891966700554" lon="-7.713844031095505">
        <ele>112.13</ele>
        <time>2025-04-30T09:35:21Z</time>
      </trkpt>
      <trkpt lat="43.727937983348966" lon="-7.713740011677146">
        <ele>110.69</ele>
        <time>2025-04-30T09:35:22Z</time>
      </trkpt>
      <trkpt lat="43.728083996102214" lon="-7.713337009772658">
        <ele>103.95999999999999</ele>
        <time>2025-04-30T09:35:26Z</time>
      </trkpt>
      <trkpt lat="43.728104028850794" lon="-7.713245982304215">
        <ele>102.52</ele>
        <time>2025-04-30T09:35:27Z</time>
      </trkpt>
      <trkpt lat="43.728122971951962" lon="-7.713158978149295">
        <ele>100.59999999999999</ele>
        <time>2025-04-30T09:35:28Z</time>
      </trkpt>
      <trkpt lat="43.728174017742276" lon="-7.712924033403397">
        <ele>95.790000000000006</ele>
        <time>2025-04-30T09:35:31Z</time>
      </trkpt>
      <trkpt lat="43.728267978876829" lon="-7.712495969608426">
        <ele>88.579999999999998</ele>
        <time>2025-04-30T09:35:36Z</time>
      </trkpt>
      <trkpt lat="43.728281976655126" lon="-7.712431009858847">
        <ele>87.140000000000001</ele>
        <time>2025-04-30T09:35:37Z</time>
      </trkpt>
      <trkpt lat="43.728336039930582" lon="-7.712289020419121">
        <ele>86.180000000000007</ele>
        <time>2025-04-30T09:35:38Z</time>
      </trkpt>
      <trkpt lat="43.728367974981666" lon="-7.712280973792076">
        <ele>84.730000000000004</ele>
        <time>2025-04-30T09:35:39Z</time>
      </trkpt>
      <trkpt lat="43.728393958881497" lon="-7.712275022640824">
        <ele>83.290000000000006</ele>
        <time>2025-04-30T09:35:40Z</time>
      </trkpt>
      <trkpt lat="43.728474006056786" lon="-7.712254989892244">
        <ele>80.890000000000001</ele>
        <time>2025-04-30T09:35:42Z</time>
      </trkpt>
      <trkpt lat="43.728523040190339" lon="-7.712241997942329">
        <ele>79.450000000000003</ele>
        <time>2025-04-30T09:35:43Z</time>
      </trkpt>
      <trkpt lat="43.728626975789666" lon="-7.712235040962696">
        <ele>78</ele>
        <time>2025-04-30T09:35:45Z</time>
      </trkpt>
      <trkpt lat="43.728668969124556" lon="-7.712236968800426">
        <ele>77.040000000000006</ele>
        <time>2025-04-30T09:35:46Z</time>
      </trkpt>
      <trkpt lat="43.728708028793335" lon="-7.712239986285567">
        <ele>76.079999999999998</ele>
        <time>2025-04-30T09:35:47Z</time>
      </trkpt>
      <trkpt lat="43.728752033784986" lon="-7.712243003770709">
        <ele>75.599999999999994</ele>
        <time>2025-04-30T09:35:48Z</time>
      </trkpt>
      <trkpt lat="43.72880500741303" lon="-7.712246021255851">
        <ele>74.640000000000001</ele>
        <time>2025-04-30T09:35:49Z</time>
      </trkpt>
      <trkpt lat="43.72891497798264" lon="-7.712284997105598">
        <ele>73.680000000000007</ele>
        <time>2025-04-30T09:35:50Z</time>
      </trkpt>
      <trkpt lat="43.728951020166278" lon="-7.712335959076881">
        <ele>73.200000000000003</ele>
        <time>2025-04-30T09:35:51Z</time>
      </trkpt>
      <trkpt lat="43.728994019329548" lon="-7.71239697933197">
        <ele>72.239999999999995</ele>
        <time>2025-04-30T09:35:52Z</time>
      </trkpt>
      <trkpt lat="43.729080017656088" lon="-7.712517008185387">
        <ele>70.790000000000006</ele>
        <time>2025-04-30T09:35:54Z</time>
      </trkpt>
      <trkpt lat="43.72921303845942" lon="-7.712703002616763">
        <ele>68.390000000000001</ele>
        <time>2025-04-30T09:35:57Z</time>
      </trkpt>
      <trkpt lat="43.729265006259084" lon="-7.712735021486878">
        <ele>67.430000000000007</ele>
        <time>2025-04-30T09:35:58Z</time>
      </trkpt>
      <trkpt lat="43.729464998468757" lon="-7.712857984006405">
        <ele>64.549999999999997</ele>
        <time>2025-04-30T09:36:01Z</time>
      </trkpt>
      <trkpt lat="43.729596007615328" lon="-7.712939037010074">
        <ele>62.140000000000001</ele>
        <time>2025-04-30T09:36:03Z</time>
      </trkpt>
      <trkpt lat="43.729803040623665" lon="-7.713089995086193">
        <ele>59.259999999999998</ele>
        <time>2025-04-30T09:36:06Z</time>
      </trkpt>
      <trkpt lat="43.72985702008009" lon="-7.713165013119578">
        <ele>58.299999999999997</ele>
        <time>2025-04-30T09:36:07Z</time>
      </trkpt>
      <trkpt lat="43.729913011193275" lon="-7.713241958990693">
        <ele>56.859999999999999</ele>
        <time>2025-04-30T09:36:08Z</time>
      </trkpt>
      <trkpt lat="43.729942012578249" lon="-7.713282024487853">
        <ele>55.409999999999997</ele>
        <time>2025-04-30T09:36:09Z</time>
      </trkpt>
      <trkpt lat="43.729980988427997" lon="-7.713403981178999">
        <ele>53.490000000000002</ele>
        <time>2025-04-30T09:36:10Z</time>
      </trkpt>
      <trkpt lat="43.730005966499448" lon="-7.713483022525907">
        <ele>52.530000000000001</ele>
        <time>2025-04-30T09:36:11Z</time>
      </trkpt>
      <trkpt lat="43.73002901673317" lon="-7.713556028902531">
        <ele>51.57</ele>
        <time>2025-04-30T09:36:12Z</time>
      </trkpt>
      <trkpt lat="43.730071010068059" lon="-7.713689971715212">
        <ele>51.090000000000003</ele>
        <time>2025-04-30T09:36:13Z</time>
      </trkpt>
      <trkpt lat="43.730071010068059" lon="-7.713754009455442">
        <ele>50.130000000000003</ele>
        <time>2025-04-30T09:36:14Z</time>
      </trkpt>
      <trkpt lat="43.730061035603285" lon="-7.713772030547261">
        <ele>49.649999999999999</ele>
        <time>2025-04-30T09:36:15Z</time>
      </trkpt>
      <trkpt lat="43.729942012578249" lon="-7.713969005271792">
        <ele>46.280000000000001</ele>
        <time>2025-04-30T09:36:19Z</time>
      </trkpt>
      <trkpt lat="43.729942012578249" lon="-7.714115018025041">
        <ele>45.799999999999997</ele>
        <time>2025-04-30T09:36:20Z</time>
      </trkpt>
      <trkpt lat="43.729942012578249" lon="-7.714176960289478">
        <ele>44.840000000000003</ele>
        <time>2025-04-30T09:36:21Z</time>
      </trkpt>
      <trkpt lat="43.729942012578249" lon="-7.714230017736554">
        <ele>43.880000000000003</ele>
        <time>2025-04-30T09:36:22Z</time>
      </trkpt>
      <trkpt lat="43.729942012578249" lon="-7.714272011071444">
        <ele>42.920000000000002</ele>
        <time>2025-04-30T09:36:23Z</time>
      </trkpt>
      <trkpt lat="43.729942012578249" lon="-7.714320961385965">
        <ele>41.950000000000003</ele>
        <time>2025-04-30T09:36:24Z</time>
      </trkpt>
      <trkpt lat="43.729942012578249" lon="-7.714354991912842">
        <ele>41.469999999999999</ele>
        <time>2025-04-30T09:36:25Z</time>
      </trkpt>
      <trkpt lat="43.729945030063391" lon="-7.714355997741222">
        <ele>40.509999999999998</ele>
        <time>2025-04-30T09:36:26Z</time>
      </trkpt>
      <trkpt lat="43.729972019791603" lon="-7.714369995519519">
        <ele>40.509999999999998</ele>
        <time>2025-04-30T09:36:27Z</time>
      </trkpt>
      <trkpt lat="43.730028010904789" lon="-7.714397991076112">
        <ele>40.509999999999998</ele>
        <time>2025-04-30T09:36:28Z</time>
      </trkpt>
      <trkpt lat="43.730028010904789" lon="-7.714397991076112">
        <ele>40.509999999999998</ele>
        <time>2025-04-30T09:36:29Z</time>
      </trkpt>
      <trkpt lat="43.73005298897624" lon="-7.714357003569603">
        <ele>40.030000000000001</ele>
        <time>2025-04-30T09:36:30Z</time>
      </trkpt>
      <trkpt lat="43.730090958997607" lon="-7.714295983314514">
        <ele>39.549999999999997</ele>
        <time>2025-04-30T09:36:31Z</time>
      </trkpt>
      <trkpt lat="43.730130018666387" lon="-7.714233035221696">
        <ele>39.07</ele>
        <time>2025-04-30T09:36:32Z</time>
      </trkpt>
      <trkpt lat="43.730166982859373" lon="-7.714172014966607">
        <ele>39.07</ele>
        <time>2025-04-30T09:36:33Z</time>
      </trkpt>
      <trkpt lat="43.730200007557869" lon="-7.714119041338563">
        <ele>39.549999999999997</ele>
        <time>2025-04-30T09:36:34Z</time>
      </trkpt>
      <trkpt lat="43.730268990620971" lon="-7.71407101303339">
        <ele>40.030000000000001</ele>
        <time>2025-04-30T09:36:35Z</time>
      </trkpt>
      <trkpt lat="43.730338979512453" lon="-7.714021978899837">
        <ele>40.509999999999998</ele>
        <time>2025-04-30T09:36:36Z</time>
      </trkpt>
      <trkpt lat="43.730655983090401" lon="-7.713802037760615">
        <ele>42.920000000000002</ele>
        <time>2025-04-30T09:36:40Z</time>
      </trkpt>
      <trkpt lat="43.730986984446645" lon="-7.713586958125234">
        <ele>47.719999999999999</ele>
        <time>2025-04-30T09:36:48Z</time>
      </trkpt>
      <trkpt lat="43.730994025245309" lon="-7.713583018630743">
        <ele>49.649999999999999</ele>
        <time>2025-04-30T09:36:59Z</time>
      </trkpt>
      <trkpt lat="43.730994025245309" lon="-7.713583018630743">
        <ele>50.609999999999999</ele>
        <time>2025-04-30T09:37:43Z</time>
      </trkpt>
      <trkpt lat="43.731031995266676" lon="-7.713585030287504">
        <ele>50.609999999999999</ele>
        <time>2025-04-30T09:37:53Z</time>
      </trkpt>
      <trkpt lat="43.731068959459662" lon="-7.713586958125234">
        <ele>52.049999999999997</ele>
        <time>2025-04-30T09:37:54Z</time>
      </trkpt>
      <trkpt lat="43.731144983321428" lon="-7.713590981438756">
        <ele>53.009999999999998</ele>
        <time>2025-04-30T09:37:55Z</time>
      </trkpt>
      <trkpt lat="43.731222013011575" lon="-7.713596010580659">
        <ele>53.490000000000002</ele>
        <time>2025-04-30T09:37:56Z</time>
      </trkpt>
      <trkpt lat="43.731308011338115" lon="-7.713601039722562">
        <ele>53.490000000000002</ele>
        <time>2025-04-30T09:37:57Z</time>
      </trkpt>
      <trkpt lat="43.731411024928093" lon="-7.713583018630743">
        <ele>53.969999999999999</ele>
        <time>2025-04-30T09:37:58Z</time>
      </trkpt>
      <trkpt lat="43.731502974405885" lon="-7.71355502307415">
        <ele>54.450000000000003</ele>
        <time>2025-04-30T09:37:59Z</time>
      </trkpt>
      <trkpt lat="43.731773961335421" lon="-7.713510012254119">
        <ele>56.369999999999997</ele>
        <time>2025-04-30T09:38:02Z</time>
      </trkpt>
      <trkpt lat="43.731842022389174" lon="-7.713499031960964">
        <ele>56.369999999999997</ele>
        <time>2025-04-30T09:38:03Z</time>
      </trkpt>
      <trkpt lat="43.731950987130404" lon="-7.713480005040765">
        <ele>57.82</ele>
        <time>2025-04-30T09:38:06Z</time>
      </trkpt>
      <trkpt lat="43.731984011828899" lon="-7.713457960635424">
        <ele>58.299999999999997</ele>
        <time>2025-04-30T09:38:07Z</time>
      </trkpt>
      <trkpt lat="43.731991974636912" lon="-7.713413033634424">
        <ele>58.299999999999997</ele>
        <time>2025-04-30T09:38:08Z</time>
      </trkpt>
      <trkpt lat="43.732003960758448" lon="-7.713348995894194">
        <ele>58.780000000000001</ele>
        <time>2025-04-30T09:38:09Z</time>
      </trkpt>
      <trkpt lat="43.732023993507028" lon="-7.713239025324583">
        <ele>59.259999999999998</ele>
        <time>2025-04-30T09:38:10Z</time>
      </trkpt>
      <trkpt lat="43.732070010155439" lon="-7.713175993412733">
        <ele>59.259999999999998</ele>
        <time>2025-04-30T09:38:11Z</time>
      </trkpt>
      <trkpt lat="43.732267990708351" lon="-7.712800987064838">
        <ele>60.219999999999999</ele>
        <time>2025-04-30T09:38:15Z</time>
      </trkpt>
      <trkpt lat="43.732307972386479" lon="-7.712690010666847">
        <ele>59.740000000000002</ele>
        <time>2025-04-30T09:38:16Z</time>
      </trkpt>
      <trkpt lat="43.732348037883639" lon="-7.712578028440476">
        <ele>58.780000000000001</ele>
        <time>2025-04-30T09:38:17Z</time>
      </trkpt>
      <trkpt lat="43.732388019561768" lon="-7.712467974051833">
        <ele>57.82</ele>
        <time>2025-04-30T09:38:18Z</time>
      </trkpt>
      <trkpt lat="43.732473012059927" lon="-7.71239697933197">
        <ele>56.859999999999999</ele>
        <time>2025-04-30T09:38:19Z</time>
      </trkpt>
      <trkpt lat="43.732560016214848" lon="-7.712342999875546">
        <ele>55.890000000000001</ele>
        <time>2025-04-30T09:38:20Z</time>
      </trkpt>
      <trkpt lat="43.732662023976445" lon="-7.712304024025798">
        <ele>54.93</ele>
        <time>2025-04-30T09:38:21Z</time>
      </trkpt>
      <trkpt lat="43.732770988717675" lon="-7.712263036519289">
        <ele>54.450000000000003</ele>
        <time>2025-04-30T09:38:22Z</time>
      </trkpt>
      <trkpt lat="43.73299696482718" lon="-7.71215901710093">
        <ele>53.009999999999998</ele>
        <time>2025-04-30T09:38:24Z</time>
      </trkpt>
      <trkpt lat="43.7330839689821" lon="-7.71207201294601">
        <ele>52.049999999999997</ele>
        <time>2025-04-30T09:38:25Z</time>
      </trkpt>
      <trkpt lat="43.733139960095286" lon="-7.711953995749354">
        <ele>51.090000000000003</ele>
        <time>2025-04-30T09:38:26Z</time>
      </trkpt>
      <trkpt lat="43.733174996450543" lon="-7.711818041279912">
        <ele>50.130000000000003</ele>
        <time>2025-04-30T09:38:27Z</time>
      </trkpt>
      <trkpt lat="43.73321296647191" lon="-7.711669011041522">
        <ele>48.68</ele>
        <time>2025-04-30T09:38:28Z</time>
      </trkpt>
      <trkpt lat="43.73325202614069" lon="-7.71151696331799">
        <ele>47.719999999999999</ele>
        <time>2025-04-30T09:38:29Z</time>
      </trkpt>
      <trkpt lat="43.733287984505296" lon="-7.711381008848548">
        <ele>46.280000000000001</ele>
        <time>2025-04-30T09:38:30Z</time>
      </trkpt>
      <trkpt lat="43.733368031680584" lon="-7.711294004693627">
        <ele>45.32</ele>
        <time>2025-04-30T09:38:31Z</time>
      </trkpt>
      <trkpt lat="43.733454030007124" lon="-7.711238013580442">
        <ele>44.359999999999999</ele>
        <time>2025-04-30T09:38:32Z</time>
      </trkpt>
      <trkpt lat="43.733780002221465" lon="-7.711079008877277">
        <ele>40.030000000000001</ele>
        <time>2025-04-30T09:38:35Z</time>
      </trkpt>
      <trkpt lat="43.733883015811443" lon="-7.710995022207499">
        <ele>38.590000000000003</ele>
        <time>2025-04-30T09:38:36Z</time>
      </trkpt>
      <trkpt lat="43.733986029401422" lon="-7.71091103553772">
        <ele>37.149999999999999</ele>
        <time>2025-04-30T09:38:37Z</time>
      </trkpt>
      <trkpt lat="43.734104968607426" lon="-7.710814978927374">
        <ele>35.710000000000001</ele>
        <time>2025-04-30T09:38:38Z</time>
      </trkpt>
      <trkpt lat="43.734192978590727" lon="-7.71069897338748">
        <ele>33.780000000000001</ele>
        <time>2025-04-30T09:38:39Z</time>
      </trkpt>
      <trkpt lat="43.734467988833785" lon="-7.710336036980152">
        <ele>29.460000000000001</ele>
        <time>2025-04-30T09:38:42Z</time>
      </trkpt>
      <trkpt lat="43.734553987160325" lon="-7.710222965106368">
        <ele>28.02</ele>
        <time>2025-04-30T09:38:43Z</time>
      </trkpt>
      <trkpt lat="43.734624981880188" lon="-7.710156999528408">
        <ele>26.57</ele>
        <time>2025-04-30T09:38:44Z</time>
      </trkpt>
      <trkpt lat="43.734665969386697" lon="-7.710129003971815">
        <ele>25.129999999999999</ele>
        <time>2025-04-30T09:38:45Z</time>
      </trkpt>
      <trkpt lat="43.734723972156644" lon="-7.710143001750112">
        <ele>23.690000000000001</ele>
        <time>2025-04-30T09:38:46Z</time>
      </trkpt>
      <trkpt lat="43.73477702960372" lon="-7.710177032276988">
        <ele>22.25</ele>
        <time>2025-04-30T09:38:47Z</time>
      </trkpt>
      <trkpt lat="43.734848024323583" lon="-7.710249032825232">
        <ele>20.809999999999999</ele>
        <time>2025-04-30T09:38:48Z</time>
      </trkpt>
      <trkpt lat="43.734924970194697" lon="-7.710324972867966">
        <ele>19.359999999999999</ele>
        <time>2025-04-30T09:38:49Z</time>
      </trkpt>
      <trkpt lat="43.735000994056463" lon="-7.710400996729732">
        <ele>18.399999999999999</ele>
        <time>2025-04-30T09:38:50Z</time>
      </trkpt>
      <trkpt lat="43.735089004039764" lon="-7.710422035306692">
        <ele>17.440000000000001</ele>
        <time>2025-04-30T09:38:51Z</time>
      </trkpt>
      <trkpt lat="43.735173996537924" lon="-7.710413988679647">
        <ele>16.960000000000001</ele>
        <time>2025-04-30T09:38:52Z</time>
      </trkpt>
      <trkpt lat="43.735263012349606" lon="-7.710405020043254">
        <ele>16.48</ele>
        <time>2025-04-30T09:38:53Z</time>
      </trkpt>
      <trkpt lat="43.735348004847765" lon="-7.710396973416209">
        <ele>16.48</ele>
        <time>2025-04-30T09:38:54Z</time>
      </trkpt>
      <trkpt lat="43.735456969588995" lon="-7.710384987294674">
        <ele>16</ele>
        <time>2025-04-30T09:38:55Z</time>
      </trkpt>
      <trkpt lat="43.735506003722548" lon="-7.710426980629563">
        <ele>15.52</ele>
        <time>2025-04-30T09:38:56Z</time>
      </trkpt>
      <trkpt lat="43.735607005655766" lon="-7.710513984784484">
        <ele>15.52</ele>
        <time>2025-04-30T09:38:57Z</time>
      </trkpt>
      <trkpt lat="43.735626032575965" lon="-7.710575005039573">
        <ele>15.52</ele>
        <time>2025-04-30T09:38:58Z</time>
      </trkpt>
      <trkpt lat="43.735646987333894" lon="-7.710642982274294">
        <ele>15.52</ele>
        <time>2025-04-30T09:38:59Z</time>
      </trkpt>
      <trkpt lat="43.735661990940571" lon="-7.710687993094325">
        <ele>15.52</ele>
        <time>2025-04-30T09:39:00Z</time>
      </trkpt>
      <trkpt lat="43.735674982890487" lon="-7.710729986429215">
        <ele>16</ele>
        <time>2025-04-30T09:39:08Z</time>
      </trkpt>
      <trkpt lat="43.73568101786077" lon="-7.710751025006175">
        <ele>16</ele>
        <time>2025-04-30T09:39:09Z</time>
      </trkpt>
      <trkpt lat="43.735725022852421" lon="-7.710736021399498">
        <ele>16.48</ele>
        <time>2025-04-30T09:39:10Z</time>
      </trkpt>
      <trkpt lat="43.735728040337563" lon="-7.710688998922706">
        <ele>16.960000000000001</ele>
        <time>2025-04-30T09:39:11Z</time>
      </trkpt>
      <trkpt lat="43.735733991488814" lon="-7.710619010031223">
        <ele>16.960000000000001</ele>
        <time>2025-04-30T09:39:12Z</time>
      </trkpt>
      <trkpt lat="43.735741032287478" lon="-7.710540974512696">
        <ele>17.920000000000002</ele>
        <time>2025-04-30T09:39:13Z</time>
      </trkpt>
      <trkpt lat="43.73574698343873" lon="-7.710466962307692">
        <ele>18.399999999999999</ele>
        <time>2025-04-30T09:39:14Z</time>
      </trkpt>
      <trkpt lat="43.735757041722536" lon="-7.710341988131404">
        <ele>19.359999999999999</ele>
        <time>2025-04-30T09:39:15Z</time>
      </trkpt>
      <trkpt lat="43.7358090095222" lon="-7.710383981466293">
        <ele>19.84</ele>
        <time>2025-04-30T09:39:16Z</time>
      </trkpt>
      <trkpt lat="43.73583298176527" lon="-7.710403008386493">
        <ele>20.809999999999999</ele>
        <time>2025-04-30T09:39:17Z</time>
      </trkpt>
      <trkpt lat="43.735873969271779" lon="-7.710436033084989">
        <ele>21.289999999999999</ele>
        <time>2025-04-30T09:39:18Z</time>
      </trkpt>
      <trkpt lat="43.735923003405333" lon="-7.710476014763117">
        <ele>21.77</ele>
        <time>2025-04-30T09:39:19Z</time>
      </trkpt>
      <trkpt lat="43.735974971204996" lon="-7.710518008098006">
        <ele>21.77</ele>
        <time>2025-04-30T09:39:20Z</time>
      </trkpt>
      <trkpt lat="43.736125007271767" lon="-7.710638958960772">
        <ele>21.77</ele>
        <time>2025-04-30T09:39:23Z</time>
      </trkpt>
      <trkpt lat="43.736525997519493" lon="-7.710961997509003">
        <ele>18.879999999999999</ele>
        <time>2025-04-30T09:39:31Z</time>
      </trkpt>
      <trkpt lat="43.736547036096454" lon="-7.711016982793808">
        <ele>18.399999999999999</ele>
        <time>2025-04-30T09:39:32Z</time>
      </trkpt>
      <trkpt lat="43.736572014167905" lon="-7.711090994998813">
        <ele>18.399999999999999</ele>
        <time>2025-04-30T09:39:33Z</time>
      </trkpt>
      <trkpt lat="43.736593974754214" lon="-7.711157966405153">
        <ele>17.920000000000002</ele>
        <time>2025-04-30T09:39:34Z</time>
      </trkpt>
      <trkpt lat="43.73660403303802" lon="-7.71125796250999">
        <ele>18.399999999999999</ele>
        <time>2025-04-30T09:39:35Z</time>
      </trkpt>
      <trkpt lat="43.736702017486095" lon="-7.711372040212154">
        <ele>18.879999999999999</ele>
        <time>2025-04-30T09:39:36Z</time>
      </trkpt>
      <trkpt lat="43.736758008599281" lon="-7.711635986343026">
        <ele>21.77</ele>
        <time>2025-04-30T09:39:39Z</time>
      </trkpt>
      <trkpt lat="43.736765971407294" lon="-7.711673034355044">
        <ele>22.25</ele>
        <time>2025-04-30T09:39:40Z</time>
      </trkpt>
      <trkpt lat="43.736765971407294" lon="-7.711673034355044">
        <ele>23.690000000000001</ele>
        <time>2025-04-30T09:39:41Z</time>
      </trkpt>
      <trkpt lat="43.736787009984255" lon="-7.711666999384761">
        <ele>24.649999999999999</ele>
        <time>2025-04-30T09:39:42Z</time>
      </trkpt>
      <trkpt lat="43.736824980005622" lon="-7.711656019091606">
        <ele>25.609999999999999</ele>
        <time>2025-04-30T09:39:43Z</time>
      </trkpt>
      <trkpt lat="43.736916007474065" lon="-7.711630035191774">
        <ele>26.57</ele>
        <time>2025-04-30T09:39:44Z</time>
      </trkpt>
      <trkpt lat="43.736916007474065" lon="-7.711630035191774">
        <ele>27.530000000000001</ele>
        <time>2025-04-30T09:39:45Z</time>
      </trkpt>
      <trkpt lat="43.736968981102109" lon="-7.711594998836517">
        <ele>28.02</ele>
        <time>2025-04-30T09:39:46Z</time>
      </trkpt>
      <trkpt lat="43.737179031595588" lon="-7.711455021053553">
        <ele>30.420000000000002</ele>
        <time>2025-04-30T09:39:49Z</time>
      </trkpt>
      <trkpt lat="43.737250026315451" lon="-7.711395006626844">
        <ele>31.379999999999999</ele>
        <time>2025-04-30T09:39:50Z</time>
      </trkpt>
      <trkpt lat="43.737300988286734" lon="-7.711314037442207">
        <ele>31.859999999999999</ele>
        <time>2025-04-30T09:39:51Z</time>
      </trkpt>
      <trkpt lat="43.737342981621623" lon="-7.711246982216835">
        <ele>32.340000000000003</ele>
        <time>2025-04-30T09:39:52Z</time>
      </trkpt>
      <trkpt lat="43.73735697939992" lon="-7.711157966405153">
        <ele>32.82</ele>
        <time>2025-04-30T09:39:53Z</time>
      </trkpt>
      <trkpt lat="43.737368965521455" lon="-7.711065011098981">
        <ele>33.299999999999997</ele>
        <time>2025-04-30T09:39:54Z</time>
      </trkpt>
      <trkpt lat="43.737382041290402" lon="-7.710967026650906">
        <ele>34.259999999999998</ele>
        <time>2025-04-30T09:39:55Z</time>
      </trkpt>
      <trkpt lat="43.73740098439157" lon="-7.710878010839224">
        <ele>34.740000000000002</ele>
        <time>2025-04-30T09:39:56Z</time>
      </trkpt>
      <trkpt lat="43.737426968291402" lon="-7.710794024169445">
        <ele>35.710000000000001</ele>
        <time>2025-04-30T09:39:57Z</time>
      </trkpt>
      <trkpt lat="43.737453036010265" lon="-7.710707020014525">
        <ele>36.189999999999998</ele>
        <time>2025-04-30T09:39:58Z</time>
      </trkpt>
      <trkpt lat="43.737499974668026" lon="-7.710659997537732">
        <ele>36.189999999999998</ele>
        <time>2025-04-30T09:39:59Z</time>
      </trkpt>
      <trkpt lat="43.737559989094734" lon="-7.710599983111024">
        <ele>36.670000000000002</ele>
        <time>2025-04-30T09:40:00Z</time>
      </trkpt>
      <trkpt lat="43.737675994634628" lon="-7.710421029478312">
        <ele>37.630000000000003</ele>
        <time>2025-04-30T09:40:03Z</time>
      </trkpt>
      <trkpt lat="43.737706001847982" lon="-7.710374007001519">
        <ele>38.109999999999999</ele>
        <time>2025-04-30T09:40:04Z</time>
      </trkpt>
      <trkpt lat="43.737786971032619" lon="-7.710249032825232">
        <ele>39.549999999999997</ele>
        <time>2025-04-30T09:40:07Z</time>
      </trkpt>
      <trkpt lat="43.737827036529779" lon="-7.710212990641594">
        <ele>40.030000000000001</ele>
        <time>2025-04-30T09:40:08Z</time>
      </trkpt>
      <trkpt lat="43.737871963530779" lon="-7.710180971771479">
        <ele>40.030000000000001</ele>
        <time>2025-04-30T09:40:09Z</time>
      </trkpt>
      <trkpt lat="43.73804597184062" lon="-7.710082987323403">
        <ele>40.990000000000002</ele>
        <time>2025-04-30T09:40:12Z</time>
      </trkpt>
      <trkpt lat="43.738268008455634" lon="-7.709981985390186">
        <ele>42.439999999999998</ele>
        <time>2025-04-30T09:40:15Z</time>
      </trkpt>
      <trkpt lat="43.738330034539104" lon="-7.709952984005213">
        <ele>42.920000000000002</ele>
        <time>2025-04-30T09:40:16Z</time>
      </trkpt>
      <trkpt lat="43.738566990941763" lon="-7.709846030920744">
        <ele>46.759999999999998</ele>
        <time>2025-04-30T09:40:21Z</time>
      </trkpt>
      <trkpt lat="43.738619964569807" lon="-7.709821974858642">
        <ele>47.719999999999999</ele>
        <time>2025-04-30T09:40:22Z</time>
      </trkpt>
      <trkpt lat="43.738777963444591" lon="-7.709749974310398">
        <ele>48.68</ele>
        <time>2025-04-30T09:40:24Z</time>
      </trkpt>
      <trkpt lat="43.738848958164454" lon="-7.709718039259315">
        <ele>50.130000000000003</ele>
        <time>2025-04-30T09:40:25Z</time>
      </trkpt>
      <trkpt lat="43.738916013389826" lon="-7.709700018167496">
        <ele>51.090000000000003</ele>
        <time>2025-04-30T09:40:26Z</time>
      </trkpt>
      <trkpt lat="43.738987008109689" lon="-7.709704041481018">
        <ele>52.049999999999997</ele>
        <time>2025-04-30T09:40:27Z</time>
      </trkpt>
      <trkpt lat="43.739056997001171" lon="-7.709707980975509">
        <ele>53.009999999999998</ele>
        <time>2025-04-30T09:40:28Z</time>
      </trkpt>
      <trkpt lat="43.739276016131043" lon="-7.709719967097044">
        <ele>54.93</ele>
        <time>2025-04-30T09:40:32Z</time>
      </trkpt>
      <trkpt lat="43.739348016679287" lon="-7.709693983197212">
        <ele>55.409999999999997</ele>
        <time>2025-04-30T09:40:33Z</time>
      </trkpt>
      <trkpt lat="43.739416999742389" lon="-7.70966799929738">
        <ele>55.890000000000001</ele>
        <time>2025-04-30T09:40:34Z</time>
      </trkpt>
      <trkpt lat="43.739542979747057" lon="-7.709619970992208">
        <ele>55.409999999999997</ele>
        <time>2025-04-30T09:40:36Z</time>
      </trkpt>
      <trkpt lat="43.739606011658907" lon="-7.709597004577518">
        <ele>55.409999999999997</ele>
        <time>2025-04-30T09:40:37Z</time>
      </trkpt>
      <trkpt lat="43.739649010822177" lon="-7.709542019292712">
        <ele>55.409999999999997</ele>
        <time>2025-04-30T09:40:38Z</time>
      </trkpt>
      <trkpt lat="43.739688992500305" lon="-7.709473958238959">
        <ele>55.409999999999997</ele>
        <time>2025-04-30T09:40:39Z</time>
      </trkpt>
      <trkpt lat="43.739734003320336" lon="-7.709399024024606">
        <ele>54.93</ele>
        <time>2025-04-30T09:40:40Z</time>
      </trkpt>
      <trkpt lat="43.739777002483606" lon="-7.709326017647982">
        <ele>54.450000000000003</ele>
        <time>2025-04-30T09:40:41Z</time>
      </trkpt>
      <trkpt lat="43.739854032173753" lon="-7.70919400267303">
        <ele>53.969999999999999</ele>
        <time>2025-04-30T09:40:43Z</time>
      </trkpt>
      <trkpt lat="43.739886973053217" lon="-7.709139017388225">
        <ele>53.490000000000002</ele>
        <time>2025-04-30T09:40:44Z</time>
      </trkpt>
      <trkpt lat="43.739933995530009" lon="-7.709105992689729">
        <ele>53.490000000000002</ele>
        <time>2025-04-30T09:40:45Z</time>
      </trkpt>
      <trkpt lat="43.739989986643195" lon="-7.7090850379318">
        <ele>53.009999999999998</ele>
        <time>2025-04-30T09:40:46Z</time>
      </trkpt>
      <trkpt lat="43.740054024383426" lon="-7.709059976041317">
        <ele>52.530000000000001</ele>
        <time>2025-04-30T09:40:47Z</time>
      </trkpt>
      <trkpt lat="43.740124013274908" lon="-7.709033992141485">
        <ele>52.049999999999997</ele>
        <time>2025-04-30T09:40:48Z</time>
      </trkpt>
      <trkpt lat="43.740203976631165" lon="-7.709002979099751">
        <ele>52.049999999999997</ele>
        <time>2025-04-30T09:40:49Z</time>
      </trkpt>
      <trkpt lat="43.740289974957705" lon="-7.708970038220286">
        <ele>51.57</ele>
        <time>2025-04-30T09:40:50Z</time>
      </trkpt>
      <trkpt lat="43.740374967455864" lon="-7.708943970501423">
        <ele>52.049999999999997</ele>
        <time>2025-04-30T09:40:51Z</time>
      </trkpt>
      <trkpt lat="43.740469012409449" lon="-7.708927961066365">
        <ele>52.049999999999997</ele>
        <time>2025-04-30T09:40:52Z</time>
      </trkpt>
      <trkpt lat="43.740548975765705" lon="-7.708975989371538">
        <ele>52.530000000000001</ele>
        <time>2025-04-30T09:40:53Z</time>
      </trkpt>
      <trkpt lat="43.740629022940993" lon="-7.709031980484724">
        <ele>53.009999999999998</ele>
        <time>2025-04-30T09:40:54Z</time>
      </trkpt>
      <trkpt lat="43.740692976862192" lon="-7.709075985476375">
        <ele>53.009999999999998</ele>
        <time>2025-04-30T09:40:55Z</time>
      </trkpt>
      <trkpt lat="43.740792972967029" lon="-7.709123007953167">
        <ele>53.490000000000002</ele>
        <time>2025-04-30T09:40:56Z</time>
      </trkpt>
      <trkpt lat="43.740877965465188" lon="-7.709163995459676">
        <ele>53.490000000000002</ele>
        <time>2025-04-30T09:40:57Z</time>
      </trkpt>
      <trkpt lat="43.741097990423441" lon="-7.709296010434628">
        <ele>55.409999999999997</ele>
        <time>2025-04-30T09:41:00Z</time>
      </trkpt>
      <trkpt lat="43.741143001243472" lon="-7.709346972405911">
        <ele>56.369999999999997</ele>
        <time>2025-04-30T09:41:01Z</time>
      </trkpt>
      <trkpt lat="43.741172002628446" lon="-7.709382008761168">
        <ele>57.340000000000003</ele>
        <time>2025-04-30T09:41:02Z</time>
      </trkpt>
      <trkpt lat="43.741220030933619" lon="-7.709344038739801">
        <ele>58.299999999999997</ele>
        <time>2025-04-30T09:41:03Z</time>
      </trkpt>
      <trkpt lat="43.74124500900507" lon="-7.70930296741426">
        <ele>58.780000000000001</ele>
        <time>2025-04-30T09:41:04Z</time>
      </trkpt>
      <trkpt lat="43.741282979026437" lon="-7.709241025149822">
        <ele>59.740000000000002</ele>
        <time>2025-04-30T09:41:05Z</time>
      </trkpt>
      <trkpt lat="43.741334024816751" lon="-7.709159972146154">
        <ele>60.219999999999999</ele>
        <time>2025-04-30T09:41:06Z</time>
      </trkpt>
      <trkpt lat="43.741391021758318" lon="-7.709068022668362">
        <ele>60.700000000000003</ele>
        <time>2025-04-30T09:41:07Z</time>
      </trkpt>
      <trkpt lat="43.741449024528265" lon="-7.708972971886396">
        <ele>60.700000000000003</ele>
        <time>2025-04-30T09:41:08Z</time>
      </trkpt>
      <trkpt lat="43.741519013419747" lon="-7.708894014358521">
        <ele>61.18</ele>
        <time>2025-04-30T09:41:09Z</time>
      </trkpt>
      <trkpt lat="43.741587996482849" lon="-7.708825031295419">
        <ele>61.659999999999997</ele>
        <time>2025-04-30T09:41:10Z</time>
      </trkpt>
      <trkpt lat="43.741648010909557" lon="-7.708765016868711">
        <ele>62.140000000000001</ele>
        <time>2025-04-30T09:41:11Z</time>
      </trkpt>
      <trkpt lat="43.741699978709221" lon="-7.708712965250015">
        <ele>62.619999999999997</ele>
        <time>2025-04-30T09:41:12Z</time>
      </trkpt>
      <trkpt lat="43.741743983700871" lon="-7.708668960258365">
        <ele>63.100000000000001</ele>
        <time>2025-04-30T09:41:13Z</time>
      </trkpt>
      <trkpt lat="43.741756975650787" lon="-7.708630990236998">
        <ele>64.069999999999993</ele>
        <time>2025-04-30T09:41:14Z</time>
      </trkpt>
      <trkpt lat="43.741765022277832" lon="-7.708525964990258">
        <ele>65.510000000000005</ele>
        <time>2025-04-30T09:41:20Z</time>
      </trkpt>
      <trkpt lat="43.741733003407717" lon="-7.70850601606071">
        <ele>65.989999999999995</ele>
        <time>2025-04-30T09:41:21Z</time>
      </trkpt>
      <trkpt lat="43.74167500063777" lon="-7.708469973877072">
        <ele>66.469999999999999</ele>
        <time>2025-04-30T09:41:22Z</time>
      </trkpt>
      <trkpt lat="43.741606017574668" lon="-7.708425968885422">
        <ele>66.950000000000003</ele>
        <time>2025-04-30T09:41:23Z</time>
      </trkpt>
      <trkpt lat="43.741533011198044" lon="-7.708381041884422">
        <ele>66.950000000000003</ele>
        <time>2025-04-30T09:41:24Z</time>
      </trkpt>
      <trkpt lat="43.741450030356646" lon="-7.708328990265727">
        <ele>67.430000000000007</ele>
        <time>2025-04-30T09:41:25Z</time>
      </trkpt>
      <trkpt lat="43.741355985403061" lon="-7.708269981667399">
        <ele>67.909999999999997</ele>
        <time>2025-04-30T09:41:26Z</time>
      </trkpt>
      <trkpt lat="43.741147024556994" lon="-7.708137966692448">
        <ele>69.349999999999994</ele>
        <time>2025-04-30T09:41:28Z</time>
      </trkpt>
      <trkpt lat="43.7410310190171" lon="-7.708065966144204">
        <ele>70.310000000000002</ele>
        <time>2025-04-30T09:41:29Z</time>
      </trkpt>
      <trkpt lat="43.740068022161722" lon="-7.70760496146977">
        <ele>77.519999999999996</ele>
        <time>2025-04-30T09:41:36Z</time>
      </trkpt>
      <trkpt lat="43.739581033587456" lon="-7.70741100423038">
        <ele>82.810000000000002</ele>
        <time>2025-04-30T09:41:42Z</time>
      </trkpt>
      <trkpt lat="43.738911990076303" lon="-7.707144962623715">
        <ele>85.689999999999998</ele>
        <time>2025-04-30T09:41:51Z</time>
      </trkpt>
      <trkpt lat="43.738221991807222" lon="-7.706860983744264">
        <ele>81.849999999999994</ele>
        <time>2025-04-30T09:42:02Z</time>
      </trkpt>
      <trkpt lat="43.737977994605899" lon="-7.706798035651445">
        <ele>79.930000000000007</ele>
        <time>2025-04-30T09:42:07Z</time>
      </trkpt>
      <trkpt lat="43.737938012927771" lon="-7.70678898319602">
        <ele>79.450000000000003</ele>
        <time>2025-04-30T09:42:08Z</time>
      </trkpt>
      <trkpt lat="43.73793700709939" lon="-7.706720000132918">
        <ele>79.450000000000003</ele>
        <time>2025-04-30T09:42:09Z</time>
      </trkpt>
      <trkpt lat="43.737960979342461" lon="-7.706677000969648">
        <ele>78.969999999999999</ele>
        <time>2025-04-30T09:42:10Z</time>
      </trkpt>
      <trkpt lat="43.737991992384195" lon="-7.706620004028082">
        <ele>78.969999999999999</ele>
        <time>2025-04-30T09:42:11Z</time>
      </trkpt>
      <trkpt lat="43.738010013476014" lon="-7.706523025408387">
        <ele>78.480000000000004</ele>
        <time>2025-04-30T09:42:12Z</time>
      </trkpt>
      <trkpt lat="43.738058963790536" lon="-7.706484971567988">
        <ele>78.480000000000004</ele>
        <time>2025-04-30T09:42:13Z</time>
      </trkpt>
      <trkpt lat="43.738125013187528" lon="-7.706430992111564">
        <ele>78</ele>
        <time>2025-04-30T09:42:14Z</time>
      </trkpt>
      <trkpt lat="43.738190978765488" lon="-7.7063790243119">
        <ele>78</ele>
        <time>2025-04-30T09:42:15Z</time>
      </trkpt>
      <trkpt lat="43.738335985690355" lon="-7.706263018772006">
        <ele>79.930000000000007</ele>
        <time>2025-04-30T09:42:17Z</time>
      </trkpt>
      <trkpt lat="43.738417038694024" lon="-7.706197975203395">
        <ele>81.370000000000005</ele>
        <time>2025-04-30T09:42:18Z</time>
      </trkpt>
      <trkpt lat="43.739110976457596" lon="-7.705764966085553">
        <ele>91.459999999999994</ele>
        <time>2025-04-30T09:42:27Z</time>
      </trkpt>
      <trkpt lat="43.740122001618147" lon="-7.705359030514956">
        <ele>96.75</ele>
        <time>2025-04-30T09:42:35Z</time>
      </trkpt>
      <trkpt lat="43.741106959059834" lon="-7.705013025552034">
        <ele>101.56</ele>
        <time>2025-04-30T09:42:43Z</time>
      </trkpt>
      <trkpt lat="43.741690004244447" lon="-7.704581022262573">
        <ele>106.36</ele>
        <time>2025-04-30T09:42:51Z</time>
      </trkpt>
      <trkpt lat="43.742067022249103" lon="-7.70433702506125">
        <ele>107.31999999999999</ele>
        <time>2025-04-30T09:42:56Z</time>
      </trkpt>
      <trkpt lat="43.74212502501905" lon="-7.704299977049232">
        <ele>106.84</ele>
        <time>2025-04-30T09:42:57Z</time>
      </trkpt>
      <trkpt lat="43.74217196367681" lon="-7.704269969835877">
        <ele>107.31999999999999</ele>
        <time>2025-04-30T09:42:58Z</time>
      </trkpt>
      <trkpt lat="43.742228960618377" lon="-7.704151030629873">
        <ele>106.84</ele>
        <time>2025-04-30T09:42:59Z</time>
      </trkpt>
      <trkpt lat="43.742222003638744" lon="-7.70408003591001">
        <ele>106.84</ele>
        <time>2025-04-30T09:43:00Z</time>
      </trkpt>
      <trkpt lat="43.74221102334559" lon="-7.703977022320032">
        <ele>106.84</ele>
        <time>2025-04-30T09:43:01Z</time>
      </trkpt>
      <trkpt lat="43.742197025567293" lon="-7.703842995688319">
        <ele>106.84</ele>
        <time>2025-04-30T09:43:02Z</time>
      </trkpt>
      <trkpt lat="43.742144973948598" lon="-7.703361036255956">
        <ele>105.40000000000001</ele>
        <time>2025-04-30T09:43:05Z</time>
      </trkpt>
      <trkpt lat="43.742098035290837" lon="-7.703186022117734">
        <ele>104.92</ele>
        <time>2025-04-30T09:43:06Z</time>
      </trkpt>
      <trkpt lat="43.742035003378987" lon="-7.703122990205884">
        <ele>104.44</ele>
        <time>2025-04-30T09:43:07Z</time>
      </trkpt>
      <trkpt lat="43.742001978680491" lon="-7.703089965507388">
        <ele>103.95999999999999</ele>
        <time>2025-04-30T09:43:08Z</time>
      </trkpt>
      <trkpt lat="43.742001978680491" lon="-7.703089965507388">
        <ele>103.48</ele>
        <time>2025-04-30T09:43:09Z</time>
      </trkpt>
      <trkpt lat="43.741896031424403" lon="-7.703055012971163">
        <ele>103</ele>
        <time>2025-04-30T09:43:10Z</time>
      </trkpt>
      <trkpt lat="43.741898965090513" lon="-7.702999021857977">
        <ele>102.04000000000001</ele>
        <time>2025-04-30T09:43:11Z</time>
      </trkpt>
      <trkpt lat="43.741902988404036" lon="-7.702909000217915">
        <ele>102.04000000000001</ele>
        <time>2025-04-30T09:43:12Z</time>
      </trkpt>
      <trkpt lat="43.741972977295518" lon="-7.701914990320802">
        <ele>102.04000000000001</ele>
        <time>2025-04-30T09:43:18Z</time>
      </trkpt>
      <trkpt lat="43.74201899394393" lon="-7.701703011989594">
        <ele>102.04000000000001</ele>
        <time>2025-04-30T09:43:19Z</time>
      </trkpt>
      <trkpt lat="43.742086971178651" lon="-7.701488016173244">
        <ele>102.04000000000001</ele>
        <time>2025-04-30T09:43:20Z</time>
      </trkpt>
      <trkpt lat="43.742311019450426" lon="-7.700551003217697">
        <ele>103</ele>
        <time>2025-04-30T09:43:24Z</time>
      </trkpt>
      <trkpt lat="43.742318982258439" lon="-7.700289990752935">
        <ele>103.48</ele>
        <time>2025-04-30T09:43:25Z</time>
      </trkpt>
      <trkpt lat="43.742351001128554" lon="-7.699487004429102">
        <ele>104.92</ele>
        <time>2025-04-30T09:43:28Z</time>
      </trkpt>
      <trkpt lat="43.742387965321541" lon="-7.699226997792721">
        <ele>105.88</ele>
        <time>2025-04-30T09:43:29Z</time>
      </trkpt>
      <trkpt lat="43.74246901832521" lon="-7.698969002813101">
        <ele>106.36</ele>
        <time>2025-04-30T09:43:30Z</time>
      </trkpt>
      <trkpt lat="43.742628023028374" lon="-7.698459969833493">
        <ele>107.81</ele>
        <time>2025-04-30T09:43:32Z</time>
      </trkpt>
      <trkpt lat="43.742705974727869" lon="-7.698210021480918">
        <ele>108.77</ele>
        <time>2025-04-30T09:43:33Z</time>
      </trkpt>
      <trkpt lat="43.742784010246396" lon="-7.69795898348093">
        <ele>109.25</ele>
        <time>2025-04-30T09:43:34Z</time>
      </trkpt>
      <trkpt lat="43.742841007187963" lon="-7.697698976844549">
        <ele>110.20999999999999</ele>
        <time>2025-04-30T09:43:35Z</time>
      </trkpt>
      <trkpt lat="43.742881994694471" lon="-7.697428995743394">
        <ele>111.17</ele>
        <time>2025-04-30T09:43:36Z</time>
      </trkpt>
      <trkpt lat="43.74292298220098" lon="-7.69716496579349">
        <ele>112.13</ele>
        <time>2025-04-30T09:43:37Z</time>
      </trkpt>
      <trkpt lat="43.742961036041379" lon="-7.696915017440915">
        <ele>113.09</ele>
        <time>2025-04-30T09:43:38Z</time>
      </trkpt>
      <trkpt lat="43.743011998012662" lon="-7.696679988875985">
        <ele>114.05</ele>
        <time>2025-04-30T09:43:39Z</time>
      </trkpt>
      <trkpt lat="43.74309497885406" lon="-7.69647303968668">
        <ele>115.01000000000001</ele>
        <time>2025-04-30T09:43:40Z</time>
      </trkpt>
      <trkpt lat="43.743412988260388" lon="-7.695677010342479">
        <ele>117.90000000000001</ele>
        <time>2025-04-30T09:43:44Z</time>
      </trkpt>
      <trkpt lat="43.743483982980251" lon="-7.695465032011271">
        <ele>118.86</ele>
        <time>2025-04-30T09:43:45Z</time>
      </trkpt>
      <trkpt lat="43.74352103099227" lon="-7.695224974304438">
        <ele>120.3</ele>
        <time>2025-04-30T09:43:46Z</time>
      </trkpt>
      <trkpt lat="43.743625972419977" lon="-7.694478984922171">
        <ele>124.15000000000001</ele>
        <time>2025-04-30T09:43:49Z</time>
      </trkpt>
      <trkpt lat="43.743692021816969" lon="-7.694238005205989">
        <ele>125.11</ele>
        <time>2025-04-30T09:43:50Z</time>
      </trkpt>
      <trkpt lat="43.743791012093425" lon="-7.694019991904497">
        <ele>126.55</ele>
        <time>2025-04-30T09:43:51Z</time>
      </trkpt>
      <trkpt lat="43.743914980441332" lon="-7.693811031058431">
        <ele>127.51000000000001</ele>
        <time>2025-04-30T09:43:52Z</time>
      </trkpt>
      <trkpt lat="43.744036015123129" lon="-7.693608021363616">
        <ele>128.47</ele>
        <time>2025-04-30T09:43:53Z</time>
      </trkpt>
      <trkpt lat="43.744273977354169" lon="-7.693265033885837">
        <ele>129.91999999999999</ele>
        <time>2025-04-30T09:43:55Z</time>
      </trkpt>
      <trkpt lat="43.744403980672359" lon="-7.693180041387677">
        <ele>130.40000000000001</ele>
        <time>2025-04-30T09:43:56Z</time>
      </trkpt>
      <trkpt lat="43.744538007304072" lon="-7.693174006417394">
        <ele>130.88</ele>
        <time>2025-04-30T09:43:57Z</time>
      </trkpt>
      <trkpt lat="43.74468301422894" lon="-7.693234020844102">
        <ele>131.84</ele>
        <time>2025-04-30T09:43:58Z</time>
      </trkpt>
      <trkpt lat="43.744844030588865" lon="-7.693300992250443">
        <ele>132.31999999999999</ele>
        <time>2025-04-30T09:43:59Z</time>
      </trkpt>
      <trkpt lat="43.745533023029566" lon="-7.693610033020377">
        <ele>134.24000000000001</ele>
        <time>2025-04-30T09:44:03Z</time>
      </trkpt>
      <trkpt lat="43.745699990540743" lon="-7.693754034116864">
        <ele>134.24000000000001</ele>
        <time>2025-04-30T09:44:04Z</time>
      </trkpt>
      <trkpt lat="43.746948977932334" lon="-7.695233020931482">
        <ele>133.75999999999999</ele>
        <time>2025-04-30T09:44:12Z</time>
      </trkpt>
      <trkpt lat="43.747358014807105" lon="-7.695518005639315">
        <ele>133.75999999999999</ele>
        <time>2025-04-30T09:44:14Z</time>
      </trkpt>
      <trkpt lat="43.748052958399057" lon="-7.695858981460333">
        <ele>134.24000000000001</ele>
        <time>2025-04-30T09:44:18Z</time>
      </trkpt>
      <trkpt lat="43.748180028051138" lon="-7.696019997820258">
        <ele>134.24000000000001</ele>
        <time>2025-04-30T09:44:19Z</time>
      </trkpt>
      <trkpt lat="43.748311037197709" lon="-7.696208003908396">
        <ele>133.75999999999999</ele>
        <time>2025-04-30T09:44:20Z</time>
      </trkpt>
      <trkpt lat="43.748412039130926" lon="-7.696428028866649">
        <ele>133.28</ele>
        <time>2025-04-30T09:44:21Z</time>
      </trkpt>
      <trkpt lat="43.748516980558634" lon="-7.696656016632915">
        <ele>132.80000000000001</ele>
        <time>2025-04-30T09:44:22Z</time>
      </trkpt>
      <trkpt lat="43.748834989964962" lon="-7.697345009073615">
        <ele>130.88</ele>
        <time>2025-04-30T09:44:25Z</time>
      </trkpt>
      <trkpt lat="43.748929034918547" lon="-7.697532009333372">
        <ele>130.40000000000001</ele>
        <time>2025-04-30T09:44:26Z</time>
      </trkpt>
      <trkpt lat="43.749048979952931" lon="-7.697653966024518">
        <ele>129.43000000000001</ele>
        <time>2025-04-30T09:44:27Z</time>
      </trkpt>
      <trkpt lat="43.749201027676463" lon="-7.697722027078271">
        <ele>128.94999999999999</ele>
        <time>2025-04-30T09:44:28Z</time>
      </trkpt>
      <trkpt lat="43.749356009066105" lon="-7.697793021798134">
        <ele>127.98999999999999</ele>
        <time>2025-04-30T09:44:29Z</time>
      </trkpt>
      <trkpt lat="43.75044297426939" lon="-7.698427028954029">
        <ele>121.26000000000001</ele>
        <time>2025-04-30T09:44:35Z</time>
      </trkpt>
      <trkpt lat="43.750623017549515" lon="-7.698525013402104">
        <ele>120.78</ele>
        <time>2025-04-30T09:44:36Z</time>
      </trkpt>
      <trkpt lat="43.750796020030975" lon="-7.698534987866879">
        <ele>119.81999999999999</ele>
        <time>2025-04-30T09:44:37Z</time>
      </trkpt>
      <trkpt lat="43.75095896422863" lon="-7.698519984260202">
        <ele>119.81999999999999</ele>
        <time>2025-04-30T09:44:38Z</time>
      </trkpt>
      <trkpt lat="43.751596994698048" lon="-7.69821697846055">
        <ele>119.34</ele>
        <time>2025-04-30T09:44:42Z</time>
      </trkpt>
      <trkpt lat="43.751717023551464" lon="-7.698267018422484">
        <ele>119.34</ele>
        <time>2025-04-30T09:44:43Z</time>
      </trkpt>
      <trkpt lat="43.751851972192526" lon="-7.698353016749024">
        <ele>119.34</ele>
        <time>2025-04-30T09:44:44Z</time>
      </trkpt>
      <trkpt lat="43.752470975741744" lon="-7.699087020009756">
        <ele>118.86</ele>
        <time>2025-04-30T09:44:49Z</time>
      </trkpt>
      <trkpt lat="43.752560997381806" lon="-7.699292041361332">
        <ele>118.86</ele>
        <time>2025-04-30T09:44:50Z</time>
      </trkpt>
      <trkpt lat="43.752636015415192" lon="-7.699487004429102">
        <ele>118.86</ele>
        <time>2025-04-30T09:44:51Z</time>
      </trkpt>
      <trkpt lat="43.752704998478293" lon="-7.699663024395704">
        <ele>118.86</ele>
        <time>2025-04-30T09:44:52Z</time>
      </trkpt>
      <trkpt lat="43.752752020955086" lon="-7.69978498108685">
        <ele>118.86</ele>
        <time>2025-04-30T09:44:53Z</time>
      </trkpt>
      <trkpt lat="43.752853022888303" lon="-7.699904004111886">
        <ele>119.34</ele>
        <time>2025-04-30T09:44:54Z</time>
      </trkpt>
      <trkpt lat="43.752940027043223" lon="-7.699943985790014">
        <ele>119.81999999999999</ele>
        <time>2025-04-30T09:44:55Z</time>
      </trkpt>
      <trkpt lat="43.753058966249228" lon="-7.699948009103537">
        <ele>119.81999999999999</ele>
        <time>2025-04-30T09:44:56Z</time>
      </trkpt>
      <trkpt lat="43.753201039507985" lon="-7.699885983020067">
        <ele>120.3</ele>
        <time>2025-04-30T09:44:57Z</time>
      </trkpt>
      <trkpt lat="43.753354009240866" lon="-7.699781963601708">
        <ele>120.78</ele>
        <time>2025-04-30T09:44:58Z</time>
      </trkpt>
      <trkpt lat="43.754473999142647" lon="-7.699020970612764">
        <ele>122.70999999999999</ele>
        <time>2025-04-30T09:45:04Z</time>
      </trkpt>
      <trkpt lat="43.754835007712245" lon="-7.69877596758306">
        <ele>123.67</ele>
        <time>2025-04-30T09:45:06Z</time>
      </trkpt>
      <trkpt lat="43.754956964403391" lon="-7.698616040870547">
        <ele>124.15000000000001</ele>
        <time>2025-04-30T09:45:07Z</time>
      </trkpt>
      <trkpt lat="43.755041034892201" lon="-7.698433985933662">
        <ele>124.63</ele>
        <time>2025-04-30T09:45:08Z</time>
      </trkpt>
      <trkpt lat="43.755122004076838" lon="-7.698244974017143">
        <ele>125.59</ele>
        <time>2025-04-30T09:45:09Z</time>
      </trkpt>
      <trkpt lat="43.75521001406014" lon="-7.698040036484599">
        <ele>126.55</ele>
        <time>2025-04-30T09:45:10Z</time>
      </trkpt>
      <trkpt lat="43.755327025428414" lon="-7.697767959907651">
        <ele>127.03</ele>
        <time>2025-04-30T09:45:11Z</time>
      </trkpt>
      <trkpt lat="43.755444036796689" lon="-7.697606021538377">
        <ele>127.51000000000001</ele>
        <time>2025-04-30T09:45:12Z</time>
      </trkpt>
      <trkpt lat="43.756270995363593" lon="-7.696459041908383">
        <ele>131.84</ele>
        <time>2025-04-30T09:45:18Z</time>
      </trkpt>
      <trkpt lat="43.756384989246726" lon="-7.696373965591192">
        <ele>132.31999999999999</ele>
        <time>2025-04-30T09:45:19Z</time>
      </trkpt>
      <trkpt lat="43.756547011435032" lon="-7.696315040811896">
        <ele>132.80000000000001</ele>
        <time>2025-04-30T09:45:20Z</time>
      </trkpt>
      <trkpt lat="43.756881030276418" lon="-7.696266006678343">
        <ele>133.28</ele>
        <time>2025-04-30T09:45:22Z</time>
      </trkpt>
      <trkpt lat="43.757052021101117" lon="-7.696241028606892">
        <ele>133.28</ele>
        <time>2025-04-30T09:45:23Z</time>
      </trkpt>
      <trkpt lat="43.757203985005617" lon="-7.696209009736776">
        <ele>133.28</ele>
        <time>2025-04-30T09:45:24Z</time>
      </trkpt>
      <trkpt lat="43.75736097805202" lon="-7.696136003360152">
        <ele>133.28</ele>
        <time>2025-04-30T09:45:25Z</time>
      </trkpt>
      <trkpt lat="43.757517971098423" lon="-7.696041036397219">
        <ele>133.75999999999999</ele>
        <time>2025-04-30T09:45:26Z</time>
      </trkpt>
      <trkpt lat="43.757676975801587" lon="-7.695912960916758">
        <ele>133.75999999999999</ele>
        <time>2025-04-30T09:45:27Z</time>
      </trkpt>
      <trkpt lat="43.758709961548448" lon="-7.695072004571557">
        <ele>134.24000000000001</ele>
        <time>2025-04-30T09:45:33Z</time>
      </trkpt>
      <trkpt lat="43.758871983736753" lon="-7.694909982383251">
        <ele>134.24000000000001</ele>
        <time>2025-04-30T09:45:34Z</time>
      </trkpt>
      <trkpt lat="43.759024031460285" lon="-7.694718036800623">
        <ele>134.72</ele>
        <time>2025-04-30T09:45:35Z</time>
      </trkpt>
      <trkpt lat="43.759145988151431" lon="-7.69449801184237">
        <ele>135.19999999999999</ele>
        <time>2025-04-30T09:45:36Z</time>
      </trkpt>
      <trkpt lat="43.759246990084648" lon="-7.694243034347892">
        <ele>136.16</ele>
        <time>2025-04-30T09:45:37Z</time>
      </trkpt>
      <trkpt lat="43.759330976754427" lon="-7.693985961377621">
        <ele>136.63999999999999</ele>
        <time>2025-04-30T09:45:38Z</time>
      </trkpt>
      <trkpt lat="43.760266983881593" lon="-7.691151034086943">
        <ele>144.34</ele>
        <time>2025-04-30T09:45:49Z</time>
      </trkpt>
      <trkpt lat="43.760372009128332" lon="-7.690962022170425">
        <ele>144.34</ele>
        <time>2025-04-30T09:45:50Z</time>
      </trkpt>
      <trkpt lat="43.760487008839846" lon="-7.690763035789132">
        <ele>144.81999999999999</ele>
        <time>2025-04-30T09:45:51Z</time>
      </trkpt>
      <trkpt lat="43.760637966915965" lon="-7.690611993893981">
        <ele>145.30000000000001</ele>
        <time>2025-04-30T09:45:52Z</time>
      </trkpt>
      <trkpt lat="43.760794037953019" lon="-7.690455000847578">
        <ele>145.78</ele>
        <time>2025-04-30T09:45:53Z</time>
      </trkpt>
      <trkpt lat="43.76097097992897" lon="-7.690326003357768">
        <ele>146.25999999999999</ele>
        <time>2025-04-30T09:45:54Z</time>
      </trkpt>
      <trkpt lat="43.761146999895573" lon="-7.690228018909693">
        <ele>147.22</ele>
        <time>2025-04-30T09:45:55Z</time>
      </trkpt>
      <trkpt lat="43.761310027912259" lon="-7.690156018361449">
        <ele>147.69999999999999</ele>
        <time>2025-04-30T09:45:56Z</time>
      </trkpt>
      <trkpt lat="43.761460985988379" lon="-7.690096003934741">
        <ele>148.18000000000001</ele>
        <time>2025-04-30T09:45:57Z</time>
      </trkpt>
      <trkpt lat="43.761604987084866" lon="-7.690055016428232">
        <ele>149.13999999999999</ele>
        <time>2025-04-30T09:45:58Z</time>
      </trkpt>
      <trkpt lat="43.76174203120172" lon="-7.690016040578485">
        <ele>149.62</ele>
        <time>2025-04-30T09:45:59Z</time>
      </trkpt>
      <trkpt lat="43.76174203120172" lon="-7.690016040578485">
        <ele>150.09999999999999</ele>
        <time>2025-04-30T09:46:00Z</time>
      </trkpt>
      <trkpt lat="43.761953003704548" lon="-7.689812025055289">
        <ele>150.58000000000001</ele>
        <time>2025-04-30T09:46:01Z</time>
      </trkpt>
      <trkpt lat="43.762028021737933" lon="-7.689659977331758">
        <ele>151.06</ele>
        <time>2025-04-30T09:46:02Z</time>
      </trkpt>
      <trkpt lat="43.762368997558951" lon="-7.688963022083044">
        <ele>152.99000000000001</ele>
        <time>2025-04-30T09:46:06Z</time>
      </trkpt>
      <trkpt lat="43.762475028634071" lon="-7.688789013773203">
        <ele>153.47</ele>
        <time>2025-04-30T09:46:07Z</time>
      </trkpt>
      <trkpt lat="43.762600002810359" lon="-7.68861198797822">
        <ele>153.47</ele>
        <time>2025-04-30T09:46:08Z</time>
      </trkpt>
      <trkpt lat="43.762867972254753" lon="-7.688262965530157">
        <ele>153.94999999999999</ele>
        <time>2025-04-30T09:46:10Z</time>
      </trkpt>
      <trkpt lat="43.763506002724171" lon="-7.687778994441032">
        <ele>155.38999999999999</ele>
        <time>2025-04-30T09:46:14Z</time>
      </trkpt>
      <trkpt lat="43.763673976063728" lon="-7.687683021649718">
        <ele>155.38999999999999</ele>
        <time>2025-04-30T09:46:15Z</time>
      </trkpt>
      <trkpt lat="43.765152962878346" lon="-7.687068963423371">
        <ele>156.83000000000001</ele>
        <time>2025-04-30T09:46:23Z</time>
      </trkpt>
      <trkpt lat="43.766374960541725" lon="-7.686607036739588">
        <ele>151.53999999999999</ele>
        <time>2025-04-30T09:46:30Z</time>
      </trkpt>
      <trkpt lat="43.766720965504646" lon="-7.686476027593017">
        <ele>150.09999999999999</ele>
        <time>2025-04-30T09:46:32Z</time>
      </trkpt>
      <trkpt lat="43.76687603071332" lon="-7.686358010396361">
        <ele>148.66</ele>
        <time>2025-04-30T09:46:33Z</time>
      </trkpt>
      <trkpt lat="43.767020031809807" lon="-7.686215015128255">
        <ele>147.69999999999999</ele>
        <time>2025-04-30T09:46:34Z</time>
      </trkpt>
      <trkpt lat="43.76713695935905" lon="-7.686040000990033">
        <ele>146.74000000000001</ele>
        <time>2025-04-30T09:46:35Z</time>
      </trkpt>
      <trkpt lat="43.767256988212466" lon="-7.68586004152894">
        <ele>145.78</ele>
        <time>2025-04-30T09:46:36Z</time>
      </trkpt>
      <trkpt lat="43.767379028722644" lon="-7.685675974935293">
        <ele>144.34</ele>
        <time>2025-04-30T09:46:37Z</time>
      </trkpt>
      <trkpt lat="43.76750199124217" lon="-7.685491992160678">
        <ele>143.37</ele>
        <time>2025-04-30T09:46:38Z</time>
      </trkpt>
      <trkpt lat="43.76775998622179" lon="-7.685172976925969">
        <ele>140.97</ele>
        <time>2025-04-30T09:46:40Z</time>
      </trkpt>
      <trkpt lat="43.76788797788322" lon="-7.685055965557694">
        <ele>140.00999999999999</ele>
        <time>2025-04-30T09:46:41Z</time>
      </trkpt>
      <trkpt lat="43.768051005899906" lon="-7.685035010799766">
        <ele>138.56999999999999</ele>
        <time>2025-04-30T09:46:42Z</time>
      </trkpt>
      <trkpt lat="43.768218979239464" lon="-7.685025036334992">
        <ele>137.61000000000001</ele>
        <time>2025-04-30T09:46:43Z</time>
      </trkpt>
      <trkpt lat="43.76840204000473" lon="-7.685014978051186">
        <ele>136.16</ele>
        <time>2025-04-30T09:46:44Z</time>
      </trkpt>
      <trkpt lat="43.769337041303515" lon="-7.68495999276638">
        <ele>129.43000000000001</ele>
        <time>2025-04-30T09:46:49Z</time>
      </trkpt>
      <trkpt lat="43.769524041563272" lon="-7.685041967779398">
        <ele>127.98999999999999</ele>
        <time>2025-04-30T09:46:50Z</time>
      </trkpt>
      <trkpt lat="43.769702995195985" lon="-7.685134001076222">
        <ele>126.55</ele>
        <time>2025-04-30T09:46:51Z</time>
      </trkpt>
      <trkpt lat="43.770028967410326" lon="-7.685301974415779">
        <ele>124.15000000000001</ele>
        <time>2025-04-30T09:46:53Z</time>
      </trkpt>
      <trkpt lat="43.77016399987042" lon="-7.685356037691236">
        <ele>122.70999999999999</ele>
        <time>2025-04-30T09:46:54Z</time>
      </trkpt>
      <trkpt lat="43.770282017067075" lon="-7.685382021591067">
        <ele>121.73999999999999</ele>
        <time>2025-04-30T09:46:55Z</time>
      </trkpt>
      <trkpt lat="43.770375978201628" lon="-7.685351008549333">
        <ele>120.3</ele>
        <time>2025-04-30T09:46:56Z</time>
      </trkpt>
      <trkpt lat="43.770441021770239" lon="-7.685262998566032">
        <ele>119.81999999999999</ele>
        <time>2025-04-30T09:46:57Z</time>
      </trkpt>
      <trkpt lat="43.770500030368567" lon="-7.685161996632814">
        <ele>118.86</ele>
        <time>2025-04-30T09:46:58Z</time>
      </trkpt>
      <trkpt lat="43.77053196541965" lon="-7.68502595834434">
        <ele>118.38</ele>
        <time>2025-04-30T09:46:59Z</time>
      </trkpt>
      <trkpt lat="43.770567001774907" lon="-7.684878017753363">
        <ele>117.42</ele>
        <time>2025-04-30T09:47:00Z</time>
      </trkpt>
      <trkpt lat="43.770567001774907" lon="-7.684878017753363">
        <ele>116.45999999999999</ele>
        <time>2025-04-30T09:47:01Z</time>
      </trkpt>
      <trkpt lat="43.770731035619974" lon="-7.68463502638042">
        <ele>115.98</ele>
        <time>2025-04-30T09:47:02Z</time>
      </trkpt>
      <trkpt lat="43.770823990926147" lon="-7.684525977820158">
        <ele>115.5</ele>
        <time>2025-04-30T09:47:03Z</time>
      </trkpt>
      <trkpt lat="43.770913006737828" lon="-7.684410978108645">
        <ele>114.53</ele>
        <time>2025-04-30T09:47:04Z</time>
      </trkpt>
      <trkpt lat="43.771001016721129" lon="-7.68431500531733">
        <ele>114.05</ele>
        <time>2025-04-30T09:47:05Z</time>
      </trkpt>
      <trkpt lat="43.771166978403926" lon="-7.684134962037206">
        <ele>112.13</ele>
        <time>2025-04-30T09:47:07Z</time>
      </trkpt>
      <trkpt lat="43.771251970902085" lon="-7.684042006731033">
        <ele>111.65000000000001</ele>
        <time>2025-04-30T09:47:08Z</time>
      </trkpt>
      <trkpt lat="43.771342998370528" lon="-7.683944022282958">
        <ele>111.17</ele>
        <time>2025-04-30T09:47:09Z</time>
      </trkpt>
      <trkpt lat="43.771952027454972" lon="-7.683258969336748">
        <ele>105.40000000000001</ele>
        <time>2025-04-30T09:47:16Z</time>
      </trkpt>
      <trkpt lat="43.772041965276003" lon="-7.683176994323731">
        <ele>104.44</ele>
        <time>2025-04-30T09:47:17Z</time>
      </trkpt>
      <trkpt lat="43.772106003016233" lon="-7.683176994323731">
        <ele>103.95999999999999</ele>
        <time>2025-04-30T09:47:18Z</time>
      </trkpt>
      <trkpt lat="43.77218303270638" lon="-7.683176994323731">
        <ele>103</ele>
        <time>2025-04-30T09:47:19Z</time>
      </trkpt>
      <trkpt lat="43.772262996062636" lon="-7.683230973780155">
        <ele>102.52</ele>
        <time>2025-04-30T09:47:20Z</time>
      </trkpt>
      <trkpt lat="43.772343965247273" lon="-7.683294005692005">
        <ele>101.56</ele>
        <time>2025-04-30T09:47:21Z</time>
      </trkpt>
      <trkpt lat="43.772435998544097" lon="-7.683363994583488">
        <ele>101.08</ele>
        <time>2025-04-30T09:47:22Z</time>
      </trkpt>
      <trkpt lat="43.772835982963443" lon="-7.683671023696661">
        <ele>97.230000000000004</ele>
        <time>2025-04-30T09:47:27Z</time>
      </trkpt>
      <trkpt lat="43.773133037611842" lon="-7.68373497761786">
        <ele>95.790000000000006</ele>
        <time>2025-04-30T09:47:29Z</time>
      </trkpt>
      <trkpt lat="43.773192968219519" lon="-7.683659959584475">
        <ele>94.829999999999998</ele>
        <time>2025-04-30T09:47:30Z</time>
      </trkpt>
      <trkpt lat="43.773224987089634" lon="-7.683543032035232">
        <ele>93.870000000000005</ele>
        <time>2025-04-30T09:47:31Z</time>
      </trkpt>
      <trkpt lat="43.773220963776112" lon="-7.683402970433235">
        <ele>92.900000000000006</ele>
        <time>2025-04-30T09:47:32Z</time>
      </trkpt>
      <trkpt lat="43.773168995976448" lon="-7.683284031227231">
        <ele>91.939999999999998</ele>
        <time>2025-04-30T09:47:33Z</time>
      </trkpt>
      <trkpt lat="43.773114010691643" lon="-7.683156961575151">
        <ele>91.459999999999994</ele>
        <time>2025-04-30T09:47:34Z</time>
      </trkpt>
      <trkpt lat="43.773059025406837" lon="-7.683030981570482">
        <ele>90.5</ele>
        <time>2025-04-30T09:47:35Z</time>
      </trkpt>
      <trkpt lat="43.773017032071948" lon="-7.682911958545446">
        <ele>90.019999999999996</ele>
        <time>2025-04-30T09:47:36Z</time>
      </trkpt>
      <trkpt lat="43.772987024858594" lon="-7.682795030996203">
        <ele>89.060000000000002</ele>
        <time>2025-04-30T09:47:37Z</time>
      </trkpt>
      <trkpt lat="43.772966992110014" lon="-7.682693023234606">
        <ele>88.579999999999998</ele>
        <time>2025-04-30T09:47:38Z</time>
      </trkpt>
      <trkpt lat="43.772984007373452" lon="-7.682605013251305">
        <ele>88.099999999999994</ele>
        <time>2025-04-30T09:47:39Z</time>
      </trkpt>
      <trkpt lat="43.772996999323368" lon="-7.682537036016583">
        <ele>87.140000000000001</ele>
        <time>2025-04-30T09:47:40Z</time>
      </trkpt>
      <trkpt lat="43.773007979616523" lon="-7.682477021589875">
        <ele>86.180000000000007</ele>
        <time>2025-04-30T09:47:41Z</time>
      </trkpt>
      <trkpt lat="43.773055002093315" lon="-7.682366967201233">
        <ele>85.209999999999994</ele>
        <time>2025-04-30T09:47:42Z</time>
      </trkpt>
      <trkpt lat="43.773113004863262" lon="-7.682378031313419">
        <ele>84.730000000000004</ele>
        <time>2025-04-30T09:47:43Z</time>
      </trkpt>
      <trkpt lat="43.773191040381789" lon="-7.682394040748477">
        <ele>84.25</ele>
        <time>2025-04-30T09:47:44Z</time>
      </trkpt>
      <trkpt lat="43.773282989859581" lon="-7.682411978021264">
        <ele>83.769999999999996</ele>
        <time>2025-04-30T09:47:45Z</time>
      </trkpt>
      <trkpt lat="43.77362597733736" lon="-7.682497976347804">
        <ele>83.769999999999996</ele>
        <time>2025-04-30T09:47:48Z</time>
      </trkpt>
      <trkpt lat="43.773760003969073" lon="-7.682534018531442">
        <ele>84.25</ele>
        <time>2025-04-30T09:47:49Z</time>
      </trkpt>
      <trkpt lat="43.774830959737301" lon="-7.683275984600186">
        <ele>85.689999999999998</ele>
        <time>2025-04-30T09:47:57Z</time>
      </trkpt>
      <trkpt lat="43.774945037439466" lon="-7.683328958228231">
        <ele>86.180000000000007</ele>
        <time>2025-04-30T09:47:58Z</time>
      </trkpt>
      <trkpt lat="43.775069005787373" lon="-7.683333987370133">
        <ele>86.659999999999997</ele>
        <time>2025-04-30T09:47:59Z</time>
      </trkpt>
      <trkpt lat="43.775190962478518" lon="-7.683306997641921">
        <ele>87.620000000000005</ele>
        <time>2025-04-30T09:48:00Z</time>
      </trkpt>
      <trkpt lat="43.775309985503554" lon="-7.683281013742089">
        <ele>88.099999999999994</ele>
        <time>2025-04-30T09:48:01Z</time>
      </trkpt>
      <trkpt lat="43.775309985503554" lon="-7.683281013742089">
        <ele>88.579999999999998</ele>
        <time>2025-04-30T09:48:02Z</time>
      </trkpt>
      <trkpt lat="43.775559011846781" lon="-7.683398025110364">
        <ele>88.579999999999998</ele>
        <time>2025-04-30T09:48:03Z</time>
      </trkpt>
      <trkpt lat="43.775681974366307" lon="-7.68349701538682">
        <ele>88.579999999999998</ele>
        <time>2025-04-30T09:48:04Z</time>
      </trkpt>
      <trkpt lat="43.775819018483162" lon="-7.68360598012805">
        <ele>89.060000000000002</ele>
        <time>2025-04-30T09:48:05Z</time>
      </trkpt>
      <trkpt lat="43.776650000363588" lon="-7.68392700701952">
        <ele>91.939999999999998</ele>
        <time>2025-04-30T09:48:11Z</time>
      </trkpt>
      <trkpt lat="43.776762988418341" lon="-7.684047035872936">
        <ele>92.900000000000006</ele>
        <time>2025-04-30T09:48:12Z</time>
      </trkpt>
      <trkpt lat="43.777365982532501" lon="-7.684649024158716">
        <ele>94.829999999999998</ele>
        <time>2025-04-30T09:48:18Z</time>
      </trkpt>
      <trkpt lat="43.777452986687422" lon="-7.684704009443522">
        <ele>94.829999999999998</ele>
        <time>2025-04-30T09:48:19Z</time>
      </trkpt>
      <trkpt lat="43.777540996670723" lon="-7.684736028313637">
        <ele>94.829999999999998</ele>
        <time>2025-04-30T09:48:20Z</time>
      </trkpt>
      <trkpt lat="43.777630012482405" lon="-7.684709038585424">
        <ele>94.349999999999994</ele>
        <time>2025-04-30T09:48:21Z</time>
      </trkpt>
      <trkpt lat="43.777733026072383" lon="-7.684671990573406">
        <ele>93.870000000000005</ele>
        <time>2025-04-30T09:48:22Z</time>
      </trkpt>
      <trkpt lat="43.777807960286736" lon="-7.684555985033512">
        <ele>93.390000000000001</ele>
        <time>2025-04-30T09:48:23Z</time>
      </trkpt>
      <trkpt lat="43.777893036603928" lon="-7.68442397005856">
        <ele>92.900000000000006</ele>
        <time>2025-04-30T09:48:24Z</time>
      </trkpt>
      <trkpt lat="43.777981968596578" lon="-7.684283992275596">
        <ele>91.939999999999998</ele>
        <time>2025-04-30T09:48:25Z</time>
      </trkpt>
      <trkpt lat="43.778068972751498" lon="-7.684148959815502">
        <ele>90.980000000000004</ele>
        <time>2025-04-30T09:48:26Z</time>
      </trkpt>
      <trkpt lat="43.778161006048322" lon="-7.684042006731033">
        <ele>90.019999999999996</ele>
        <time>2025-04-30T09:48:27Z</time>
      </trkpt>
      <trkpt lat="43.778278017416596" lon="-7.684000013396144">
        <ele>89.540000000000006</ele>
        <time>2025-04-30T09:48:28Z</time>
      </trkpt>
      <trkpt lat="43.778394022956491" lon="-7.684017028659582">
        <ele>89.060000000000002</ele>
        <time>2025-04-30T09:48:29Z</time>
      </trkpt>
      <trkpt lat="43.778521008789539" lon="-7.684034965932369">
        <ele>88.099999999999994</ele>
        <time>2025-04-30T09:48:30Z</time>
      </trkpt>
      <trkpt lat="43.778672972694039" lon="-7.68405701033771">
        <ele>87.140000000000001</ele>
        <time>2025-04-30T09:48:31Z</time>
      </trkpt>
      <trkpt lat="43.778808005154133" lon="-7.683995990082622">
        <ele>86.180000000000007</ele>
        <time>2025-04-30T09:48:32Z</time>
      </trkpt>
      <trkpt lat="43.778963992372155" lon="-7.683924995362759">
        <ele>85.209999999999994</ele>
        <time>2025-04-30T09:48:33Z</time>
      </trkpt>
      <trkpt lat="43.779129032045603" lon="-7.683849977329373">
        <ele>84.25</ele>
        <time>2025-04-30T09:48:34Z</time>
      </trkpt>
      <trkpt lat="43.779889019206166" lon="-7.683542026206851">
        <ele>80.890000000000001</ele>
        <time>2025-04-30T09:48:39Z</time>
      </trkpt>
      <trkpt lat="43.780046012252569" lon="-7.683542026206851">
        <ele>80.890000000000001</ele>
        <time>2025-04-30T09:48:40Z</time>
      </trkpt>
      <trkpt lat="43.781137000769377" lon="-7.683849977329373">
        <ele>76.560000000000002</ele>
        <time>2025-04-30T09:48:47Z</time>
      </trkpt>
      <trkpt lat="43.781288964673877" lon="-7.683935975655913">
        <ele>76.079999999999998</ele>
        <time>2025-04-30T09:48:48Z</time>
      </trkpt>
      <trkpt lat="43.781729014590383" lon="-7.684169998392463">
        <ele>74.159999999999997</ele>
        <time>2025-04-30T09:48:51Z</time>
      </trkpt>
      <trkpt lat="43.781888019293547" lon="-7.684200005605817">
        <ele>73.680000000000007</ele>
        <time>2025-04-30T09:48:52Z</time>
      </trkpt>
      <trkpt lat="43.783375974744558" lon="-7.68438097089529">
        <ele>72.239999999999995</ele>
        <time>2025-04-30T09:49:01Z</time>
      </trkpt>
      <trkpt lat="43.784174015745521" lon="-7.684321962296963">
        <ele>71.269999999999996</ele>
        <time>2025-04-30T09:49:07Z</time>
      </trkpt>
      <trkpt lat="43.784218020737171" lon="-7.684319028630853">
        <ele>71.269999999999996</ele>
        <time>2025-04-30T09:49:08Z</time>
      </trkpt>
      <trkpt lat="43.784248027950525" lon="-7.684316011145711">
        <ele>71.269999999999996</ele>
        <time>2025-04-30T09:49:09Z</time>
      </trkpt>
      <trkpt lat="43.784273006021976" lon="-7.68431399948895">
        <ele>71.760000000000005</ele>
        <time>2025-04-30T09:49:10Z</time>
      </trkpt>
      <trkpt lat="43.784396974369884" lon="-7.684308970347047">
        <ele>72.719999999999999</ele>
        <time>2025-04-30T09:49:15Z</time>
      </trkpt>
      <trkpt lat="43.784381970763206" lon="-7.684580041095614">
        <ele>74.159999999999997</ele>
        <time>2025-04-30T09:49:22Z</time>
      </trkpt>
      <trkpt lat="43.784363027662039" lon="-7.68459496088326">
        <ele>78.480000000000004</ele>
        <time>2025-04-30T10:11:21Z</time>
      </trkpt>
      <trkpt lat="43.784362021833658" lon="-7.68459496088326">
        <ele>78.480000000000004</ele>
        <time>2025-04-30T10:12:17Z</time>
      </trkpt>
      <trkpt lat="43.784364033490419" lon="-7.684588003903627">
        <ele>78.480000000000004</ele>
        <time>2025-04-30T10:13:13Z</time>
      </trkpt>
      <trkpt lat="43.784364033490419" lon="-7.684586998075247">
        <ele>78.480000000000004</ele>
        <time>2025-04-30T10:13:58Z</time>
      </trkpt>
      <trkpt lat="43.784364033490419" lon="-7.684585992246866">
        <ele>78</ele>
        <time>2025-04-30T10:14:43Z</time>
      </trkpt>
      <trkpt lat="43.784342994913459" lon="-7.684310982003808">
        <ele>78</ele>
        <time>2025-04-30T10:14:58Z</time>
      </trkpt>
      <trkpt lat="43.784317011013627" lon="-7.684311987832189">
        <ele>78</ele>
        <time>2025-04-30T10:14:59Z</time>
      </trkpt>
      <trkpt lat="43.784287003800273" lon="-7.68431399948895">
        <ele>78.480000000000004</ele>
        <time>2025-04-30T10:15:00Z</time>
      </trkpt>
      <trkpt lat="43.784273006021976" lon="-7.68431399948895">
        <ele>78.480000000000004</ele>
        <time>2025-04-30T10:15:01Z</time>
      </trkpt>
      <trkpt lat="43.784273006021976" lon="-7.68431399948895">
        <ele>78.480000000000004</ele>
        <time>2025-04-30T10:15:02Z</time>
      </trkpt>
      <trkpt lat="43.784212991595268" lon="-7.684319028630853">
        <ele>78.480000000000004</ele>
        <time>2025-04-30T10:15:03Z</time>
      </trkpt>
      <trkpt lat="43.78417300991714" lon="-7.684321962296963">
        <ele>78.480000000000004</ele>
        <time>2025-04-30T10:15:04Z</time>
      </trkpt>
      <trkpt lat="43.78417300991714" lon="-7.684321962296963">
        <ele>78.480000000000004</ele>
        <time>2025-04-30T10:15:05Z</time>
      </trkpt>
      <trkpt lat="43.784038983285427" lon="-7.684332020580769">
        <ele>78.480000000000004</ele>
        <time>2025-04-30T10:15:06Z</time>
      </trkpt>
      <trkpt lat="43.783182017505169" lon="-7.684394968673587">
        <ele>78.480000000000004</ele>
        <time>2025-04-30T10:15:14Z</time>
      </trkpt>
      <trkpt lat="43.781779976561666" lon="-7.684179972857237">
        <ele>78.969999999999999</ele>
        <time>2025-04-30T10:15:25Z</time>
      </trkpt>
      <trkpt lat="43.781650979071856" lon="-7.684137979522348">
        <ele>78.969999999999999</ele>
        <time>2025-04-30T10:15:26Z</time>
      </trkpt>
      <trkpt lat="43.781528016552329" lon="-7.684068996459246">
        <ele>78.969999999999999</ele>
        <time>2025-04-30T10:15:27Z</time>
      </trkpt>
      <trkpt lat="43.781028036028147" lon="-7.683789962902665">
        <ele>81.370000000000005</ele>
        <time>2025-04-30T10:15:31Z</time>
      </trkpt>
      <trkpt lat="43.780883029103279" lon="-7.683736989274621">
        <ele>82.329999999999998</ele>
        <time>2025-04-30T10:15:32Z</time>
      </trkpt>
      <trkpt lat="43.779958002269268" lon="-7.683542026206851">
        <ele>87.620000000000005</ele>
        <time>2025-04-30T10:15:38Z</time>
      </trkpt>
      <trkpt lat="43.779831016436219" lon="-7.683542026206851">
        <ele>88.099999999999994</ele>
        <time>2025-04-30T10:15:39Z</time>
      </trkpt>
      <trkpt lat="43.779681986197829" lon="-7.68360598012805">
        <ele>89.060000000000002</ele>
        <time>2025-04-30T10:15:40Z</time>
      </trkpt>
      <trkpt lat="43.779681986197829" lon="-7.68360598012805">
        <ele>89.540000000000006</ele>
        <time>2025-04-30T10:15:41Z</time>
      </trkpt>
      <trkpt lat="43.779397001489997" lon="-7.683728020638228">
        <ele>90.019999999999996</ele>
        <time>2025-04-30T10:15:42Z</time>
      </trkpt>
      <trkpt lat="43.778637014329433" lon="-7.684051981195808">
        <ele>93.870000000000005</ele>
        <time>2025-04-30T10:15:49Z</time>
      </trkpt>
      <trkpt lat="43.778525032103062" lon="-7.68403597176075">
        <ele>94.349999999999994</ele>
        <time>2025-04-30T10:15:50Z</time>
      </trkpt>
      <trkpt lat="43.778279023244977" lon="-7.684001019224525">
        <ele>95.790000000000006</ele>
        <time>2025-04-30T10:15:52Z</time>
      </trkpt>
      <trkpt lat="43.778163017705083" lon="-7.684039995074272">
        <ele>97.709999999999994</ele>
        <time>2025-04-30T10:15:54Z</time>
      </trkpt>
      <trkpt lat="43.777994038537145" lon="-7.684265971183777">
        <ele>98.670000000000002</ele>
        <time>2025-04-30T10:15:55Z</time>
      </trkpt>
      <trkpt lat="43.77792002633214" lon="-7.684381976723671">
        <ele>99.150000000000006</ele>
        <time>2025-04-30T10:15:56Z</time>
      </trkpt>
      <trkpt lat="43.777859006077051" lon="-7.684477027505636">
        <ele>100.11</ele>
        <time>2025-04-30T10:15:57Z</time>
      </trkpt>
      <trkpt lat="43.777809971943498" lon="-7.68455296754837">
        <ele>100.59999999999999</ele>
        <time>2025-04-30T10:15:58Z</time>
      </trkpt>
      <trkpt lat="43.777768984436989" lon="-7.68461599946022">
        <ele>101.56</ele>
        <time>2025-04-30T10:15:59Z</time>
      </trkpt>
      <trkpt lat="43.777735037729144" lon="-7.684668973088265">
        <ele>102.52</ele>
        <time>2025-04-30T10:16:00Z</time>
      </trkpt>
      <trkpt lat="43.777632024139166" lon="-7.684708032757044">
        <ele>105.40000000000001</ele>
        <time>2025-04-30T10:16:08Z</time>
      </trkpt>
      <trkpt lat="43.777632024139166" lon="-7.684708032757044">
        <ele>105.88</ele>
        <time>2025-04-30T10:16:53Z</time>
      </trkpt>
      <trkpt lat="43.777632024139166" lon="-7.684708032757044">
        <ele>105.40000000000001</ele>
        <time>2025-04-30T10:17:46Z</time>
      </trkpt>
      <trkpt lat="43.777612997218966" lon="-7.684713983908296">
        <ele>105.40000000000001</ele>
        <time>2025-04-30T10:18:13Z</time>
      </trkpt>
      <trkpt lat="43.777586007490754" lon="-7.68472203053534">
        <ele>104.92</ele>
        <time>2025-04-30T10:18:14Z</time>
      </trkpt>
      <trkpt lat="43.777362965047359" lon="-7.684647012501955">
        <ele>104.92</ele>
        <time>2025-04-30T10:18:17Z</time>
      </trkpt>
      <trkpt lat="43.777270009741187" lon="-7.684584986418486">
        <ele>105.40000000000001</ele>
        <time>2025-04-30T10:18:18Z</time>
      </trkpt>
      <trkpt lat="43.777099018916488" lon="-7.684404021129012">
        <ele>106.36</ele>
        <time>2025-04-30T10:18:20Z</time>
      </trkpt>
      <trkpt lat="43.776639020070434" lon="-7.683915020897985">
        <ele>107.31999999999999</ele>
        <time>2025-04-30T10:18:25Z</time>
      </trkpt>
      <trkpt lat="43.776526032015681" lon="-7.683828016743064">
        <ele>107.31999999999999</ele>
        <time>2025-04-30T10:18:26Z</time>
      </trkpt>
      <trkpt lat="43.776406003162265" lon="-7.683790968731046">
        <ele>106.84</ele>
        <time>2025-04-30T10:18:27Z</time>
      </trkpt>
      <trkpt lat="43.775805020704865" lon="-7.683596005663276">
        <ele>105.88</ele>
        <time>2025-04-30T10:18:32Z</time>
      </trkpt>
      <trkpt lat="43.775697983801365" lon="-7.683510007336736">
        <ele>105.88</ele>
        <time>2025-04-30T10:18:33Z</time>
      </trkpt>
      <trkpt lat="43.775390032678843" lon="-7.683262992650271">
        <ele>105.40000000000001</ele>
        <time>2025-04-30T10:18:36Z</time>
      </trkpt>
      <trkpt lat="43.775272015482187" lon="-7.683288976550102">
        <ele>105.40000000000001</ele>
        <time>2025-04-30T10:18:37Z</time>
      </trkpt>
      <trkpt lat="43.775172019377351" lon="-7.683311020955443">
        <ele>104.92</ele>
        <time>2025-04-30T10:18:38Z</time>
      </trkpt>
      <trkpt lat="43.774966998025775" lon="-7.683337004855275">
        <ele>103.48</ele>
        <time>2025-04-30T10:18:40Z</time>
      </trkpt>
      <trkpt lat="43.774874964728951" lon="-7.683305991813541">
        <ele>102.52</ele>
        <time>2025-04-30T10:18:41Z</time>
      </trkpt>
      <trkpt lat="43.77478402107954" lon="-7.683242959901691">
        <ele>102.04000000000001</ele>
        <time>2025-04-30T10:18:42Z</time>
      </trkpt>
      <trkpt lat="43.774688970297575" lon="-7.683176994323731">
        <ele>101.08</ele>
        <time>2025-04-30T10:18:43Z</time>
      </trkpt>
      <trkpt lat="43.774587968364358" lon="-7.683107005432248">
        <ele>100.59999999999999</ele>
        <time>2025-04-30T10:18:44Z</time>
      </trkpt>
      <trkpt lat="43.773635029792786" lon="-7.682500993832946">
        <ele>96.269999999999996</ele>
        <time>2025-04-30T10:18:53Z</time>
      </trkpt>
      <trkpt lat="43.773551965132356" lon="-7.682479033246636">
        <ele>95.790000000000006</ele>
        <time>2025-04-30T10:18:54Z</time>
      </trkpt>
      <trkpt lat="43.773053996264935" lon="-7.682366967201233">
        <ele>90.980000000000004</ele>
        <time>2025-04-30T10:19:03Z</time>
      </trkpt>
      <trkpt lat="43.773010997101665" lon="-7.682459000498056">
        <ele>90.5</ele>
        <time>2025-04-30T10:19:04Z</time>
      </trkpt>
      <trkpt lat="43.772995993494987" lon="-7.682539969682694">
        <ele>90.019999999999996</ele>
        <time>2025-04-30T10:19:05Z</time>
      </trkpt>
      <trkpt lat="43.772977972403169" lon="-7.682638037949801">
        <ele>89.540000000000006</ele>
        <time>2025-04-30T10:19:06Z</time>
      </trkpt>
      <trkpt lat="43.772975038737059" lon="-7.682747002691031">
        <ele>89.540000000000006</ele>
        <time>2025-04-30T10:19:07Z</time>
      </trkpt>
      <trkpt lat="43.773004962131381" lon="-7.682867031544447">
        <ele>90.019999999999996</ele>
        <time>2025-04-30T10:19:08Z</time>
      </trkpt>
      <trkpt lat="43.77304301597178" lon="-7.682995023205876">
        <ele>90.5</ele>
        <time>2025-04-30T10:19:09Z</time>
      </trkpt>
      <trkpt lat="43.773098001256585" lon="-7.683121003210545">
        <ele>90.5</ele>
        <time>2025-04-30T10:19:10Z</time>
      </trkpt>
      <trkpt lat="43.77315298654139" lon="-7.683246983215213">
        <ele>91.459999999999994</ele>
        <time>2025-04-30T10:19:11Z</time>
      </trkpt>
      <trkpt lat="43.773204032331705" lon="-7.683365000411868">
        <ele>91.939999999999998</ele>
        <time>2025-04-30T10:19:12Z</time>
      </trkpt>
      <trkpt lat="43.773242002353072" lon="-7.683467008173466">
        <ele>91.939999999999998</ele>
        <time>2025-04-30T10:19:13Z</time>
      </trkpt>
      <trkpt lat="43.773220963776112" lon="-7.683559041470289">
        <ele>91.939999999999998</ele>
        <time>2025-04-30T10:19:14Z</time>
      </trkpt>
      <trkpt lat="43.773220963776112" lon="-7.683559041470289">
        <ele>91.939999999999998</ele>
        <time>2025-04-30T10:19:15Z</time>
      </trkpt>
      <trkpt lat="43.773156004026532" lon="-7.683705976232886">
        <ele>92.420000000000002</ele>
        <time>2025-04-30T10:19:16Z</time>
      </trkpt>
      <trkpt lat="43.773090038448572" lon="-7.683748975396156">
        <ele>92.420000000000002</ele>
        <time>2025-04-30T10:19:17Z</time>
      </trkpt>
      <trkpt lat="43.773021977394819" lon="-7.683728020638228">
        <ele>92.900000000000006</ele>
        <time>2025-04-30T10:19:18Z</time>
      </trkpt>
      <trkpt lat="43.772942014038563" lon="-7.683702958747745">
        <ele>93.390000000000001</ele>
        <time>2025-04-30T10:19:19Z</time>
      </trkpt>
      <trkpt lat="43.772835982963443" lon="-7.683671023696661">
        <ele>93.870000000000005</ele>
        <time>2025-04-30T10:19:20Z</time>
      </trkpt>
      <trkpt lat="43.77276498824358" lon="-7.683616038411856">
        <ele>94.829999999999998</ele>
        <time>2025-04-30T10:19:21Z</time>
      </trkpt>
      <trkpt lat="43.772237012162805" lon="-7.683211024850607">
        <ele>100.59999999999999</ele>
        <time>2025-04-30T10:19:27Z</time>
      </trkpt>
      <trkpt lat="43.77216400578618" lon="-7.683176994323731">
        <ele>101.08</ele>
        <time>2025-04-30T10:19:28Z</time>
      </trkpt>
      <trkpt lat="43.772107008844614" lon="-7.683176994323731">
        <ele>102.04000000000001</ele>
        <time>2025-04-30T10:19:29Z</time>
      </trkpt>
      <trkpt lat="43.772063003852963" lon="-7.683176994323731">
        <ele>103</ele>
        <time>2025-04-30T10:19:30Z</time>
      </trkpt>
      <trkpt lat="43.772041965276003" lon="-7.683176994323731">
        <ele>103.95999999999999</ele>
        <time>2025-04-30T10:19:31Z</time>
      </trkpt>
      <trkpt lat="43.772041965276003" lon="-7.683176994323731">
        <ele>104.44</ele>
        <time>2025-04-30T10:19:32Z</time>
      </trkpt>
      <trkpt lat="43.771983040496707" lon="-7.683229967951775">
        <ele>105.40000000000001</ele>
        <time>2025-04-30T10:19:33Z</time>
      </trkpt>
      <trkpt lat="43.771959990262985" lon="-7.683251006528735">
        <ele>105.88</ele>
        <time>2025-04-30T10:19:34Z</time>
      </trkpt>
      <trkpt lat="43.771959990262985" lon="-7.683251006528735">
        <ele>107.31999999999999</ele>
        <time>2025-04-30T10:19:43Z</time>
      </trkpt>
      <trkpt lat="43.771959990262985" lon="-7.683251006528735">
        <ele>108.77</ele>
        <time>2025-04-30T10:20:26Z</time>
      </trkpt>
      <trkpt lat="43.771959990262985" lon="-7.683251006528735">
        <ele>109.25</ele>
        <time>2025-04-30T10:21:15Z</time>
      </trkpt>
      <trkpt lat="43.771917996928096" lon="-7.683288976550102">
        <ele>109.73</ele>
        <time>2025-04-30T10:21:55Z</time>
      </trkpt>
      <trkpt lat="43.77188203856349" lon="-7.683320995420218">
        <ele>110.20999999999999</ele>
        <time>2025-04-30T10:21:56Z</time>
      </trkpt>
      <trkpt lat="43.771759998053312" lon="-7.683459967374802">
        <ele>110.69</ele>
        <time>2025-04-30T10:21:58Z</time>
      </trkpt>
      <trkpt lat="43.771687997505069" lon="-7.683556023985148">
        <ele>110.69</ele>
        <time>2025-04-30T10:21:59Z</time>
      </trkpt>
      <trkpt lat="43.770872019231319" lon="-7.684461018070579">
        <ele>115.01000000000001</ele>
        <time>2025-04-30T10:22:07Z</time>
      </trkpt>
      <trkpt lat="43.770612012594938" lon="-7.684773998335004">
        <ele>116.94</ele>
        <time>2025-04-30T10:22:10Z</time>
      </trkpt>
      <trkpt lat="43.770559960976243" lon="-7.684907019138336">
        <ele>117.90000000000001</ele>
        <time>2025-04-30T10:22:11Z</time>
      </trkpt>
      <trkpt lat="43.770478991791606" lon="-7.685201978310943">
        <ele>118.86</ele>
        <time>2025-04-30T10:22:13Z</time>
      </trkpt>
      <trkpt lat="43.770389975979924" lon="-7.685343967750669">
        <ele>119.34</ele>
        <time>2025-04-30T10:22:14Z</time>
      </trkpt>
      <trkpt lat="43.770303977653384" lon="-7.685386966913939">
        <ele>120.3</ele>
        <time>2025-04-30T10:22:15Z</time>
      </trkpt>
      <trkpt lat="43.770185960456729" lon="-7.685360983014107">
        <ele>121.26000000000001</ele>
        <time>2025-04-30T10:22:16Z</time>
      </trkpt>
      <trkpt lat="43.770068027079105" lon="-7.685322007164359">
        <ele>122.22</ele>
        <time>2025-04-30T10:22:17Z</time>
      </trkpt>
      <trkpt lat="43.769934000447392" lon="-7.685253024101257">
        <ele>123.19</ele>
        <time>2025-04-30T10:22:18Z</time>
      </trkpt>
      <trkpt lat="43.769794022664428" lon="-7.685181023553014">
        <ele>124.63</ele>
        <time>2025-04-30T10:22:19Z</time>
      </trkpt>
      <trkpt lat="43.769323965534568" lon="-7.68495999276638">
        <ele>127.98999999999999</ele>
        <time>2025-04-30T10:22:22Z</time>
      </trkpt>
      <trkpt lat="43.76915599219501" lon="-7.684969967231154">
        <ele>128.94999999999999</ele>
        <time>2025-04-30T10:22:23Z</time>
      </trkpt>
      <trkpt lat="43.768980978056788" lon="-7.68498002551496">
        <ele>130.40000000000001</ele>
        <time>2025-04-30T10:22:24Z</time>
      </trkpt>
      <trkpt lat="43.768800012767315" lon="-7.684991005808115">
        <ele>130.88</ele>
        <time>2025-04-30T10:22:25Z</time>
      </trkpt>
      <trkpt lat="43.768614018335938" lon="-7.68500198610127">
        <ele>131.84</ele>
        <time>2025-04-30T10:22:26Z</time>
      </trkpt>
      <trkpt lat="43.768426012247801" lon="-7.685012966394424">
        <ele>132.80000000000001</ele>
        <time>2025-04-30T10:22:27Z</time>
      </trkpt>
      <trkpt lat="43.768067015334964" lon="-7.685034004971385">
        <ele>135.19999999999999</ele>
        <time>2025-04-30T10:22:29Z</time>
      </trkpt>
      <trkpt lat="43.767884960398078" lon="-7.685058983042836">
        <ele>136.63999999999999</ele>
        <time>2025-04-30T10:22:30Z</time>
      </trkpt>
      <trkpt lat="43.767749005928636" lon="-7.685183035209775">
        <ele>137.61000000000001</ele>
        <time>2025-04-30T10:22:31Z</time>
      </trkpt>
      <trkpt lat="43.767612967640162" lon="-7.685325024649501">
        <ele>139.05000000000001</ele>
        <time>2025-04-30T10:22:32Z</time>
      </trkpt>
      <trkpt lat="43.767494028434157" lon="-7.685503978282213">
        <ele>140.00999999999999</ele>
        <time>2025-04-30T10:22:33Z</time>
      </trkpt>
      <trkpt lat="43.767373999580741" lon="-7.685685027390719">
        <ele>140.97</ele>
        <time>2025-04-30T10:22:34Z</time>
      </trkpt>
      <trkpt lat="43.766859015449882" lon="-7.686373014003038">
        <ele>145.78</ele>
        <time>2025-04-30T10:22:38Z</time>
      </trkpt>
      <trkpt lat="43.766701016575098" lon="-7.68648399040103">
        <ele>146.74000000000001</ele>
        <time>2025-04-30T10:22:39Z</time>
      </trkpt>
      <trkpt lat="43.766526002436876" lon="-7.686550039798021">
        <ele>147.69999999999999</ele>
        <time>2025-04-30T10:22:40Z</time>
      </trkpt>
      <trkpt lat="43.764838976785541" lon="-7.687187986448407">
        <ele>159.24000000000001</ele>
        <time>2025-04-30T10:22:49Z</time>
      </trkpt>
      <trkpt lat="43.763399971649051" lon="-7.687839008867741">
        <ele>165</ele>
        <time>2025-04-30T10:22:57Z</time>
      </trkpt>
      <trkpt lat="43.763227974995971" lon="-7.687972029671073">
        <ele>165.47999999999999</ele>
        <time>2025-04-30T10:22:58Z</time>
      </trkpt>
      <trkpt lat="43.762328010052443" lon="-7.689047008752823">
        <ele>166.93000000000001</ele>
        <time>2025-04-30T10:23:04Z</time>
      </trkpt>
      <trkpt lat="43.761878991499543" lon="-7.689962983131409">
        <ele>167.41</ele>
        <time>2025-04-30T10:23:09Z</time>
      </trkpt>
      <trkpt lat="43.761778995394707" lon="-7.690004976466298">
        <ele>166.93000000000001</ele>
        <time>2025-04-30T10:23:10Z</time>
      </trkpt>
      <trkpt lat="43.761665001511574" lon="-7.690038001164794">
        <ele>166.44999999999999</ele>
        <time>2025-04-30T10:23:11Z</time>
      </trkpt>
      <trkpt lat="43.76107701100409" lon="-7.690258026123047">
        <ele>164.52000000000001</ele>
        <time>2025-04-30T10:23:15Z</time>
      </trkpt>
      <trkpt lat="43.760918006300926" lon="-7.690359028056264">
        <ele>164.52000000000001</ele>
        <time>2025-04-30T10:23:16Z</time>
      </trkpt>
      <trkpt lat="43.760766964405775" lon="-7.69048199057579">
        <ele>164.03999999999999</ele>
        <time>2025-04-30T10:23:17Z</time>
      </trkpt>
      <trkpt lat="43.760605026036501" lon="-7.690645018592477">
        <ele>164.03999999999999</ele>
        <time>2025-04-30T10:23:18Z</time>
      </trkpt>
      <trkpt lat="43.76045398414135" lon="-7.690812991932035">
        <ele>164.03999999999999</ele>
        <time>2025-04-30T10:23:19Z</time>
      </trkpt>
      <trkpt lat="43.760333033278584" lon="-7.691032011061907">
        <ele>163.56</ele>
        <time>2025-04-30T10:23:20Z</time>
      </trkpt>
      <trkpt lat="43.760229013860226" lon="-7.691257987171412">
        <ele>163.56</ele>
        <time>2025-04-30T10:23:21Z</time>
      </trkpt>
      <trkpt lat="43.760144021362066" lon="-7.69151296466589">
        <ele>163.08000000000001</ele>
        <time>2025-04-30T10:23:22Z</time>
      </trkpt>
      <trkpt lat="43.759407000616193" lon="-7.693753028288484">
        <ele>161.16</ele>
        <time>2025-04-30T10:23:31Z</time>
      </trkpt>
      <trkpt lat="43.759147999808192" lon="-7.694494994357228">
        <ele>159.72</ele>
        <time>2025-04-30T10:23:34Z</time>
      </trkpt>
      <trkpt lat="43.759029982611537" lon="-7.694705966860056">
        <ele>159.24000000000001</ele>
        <time>2025-04-30T10:23:35Z</time>
      </trkpt>
      <trkpt lat="43.758896039798856" lon="-7.694886010140181">
        <ele>158.27000000000001</ele>
        <time>2025-04-30T10:23:36Z</time>
      </trkpt>
      <trkpt lat="43.758746003732085" lon="-7.695035040378571">
        <ele>157.78999999999999</ele>
        <time>2025-04-30T10:23:37Z</time>
      </trkpt>
      <trkpt lat="43.758593033999205" lon="-7.695177029818296">
        <ele>156.83000000000001</ele>
        <time>2025-04-30T10:23:38Z</time>
      </trkpt>
      <trkpt lat="43.758426988497376" lon="-7.695309966802597">
        <ele>156.34999999999999</ele>
        <time>2025-04-30T10:23:39Z</time>
      </trkpt>
      <trkpt lat="43.75826396048069" lon="-7.695440975949168">
        <ele>155.87</ele>
        <time>2025-04-30T10:23:40Z</time>
      </trkpt>
      <trkpt lat="43.757428033277392" lon="-7.696104990318418">
        <ele>154.43000000000001</ele>
        <time>2025-04-30T10:23:45Z</time>
      </trkpt>
      <trkpt lat="43.757248995825648" lon="-7.696187971159816">
        <ele>153.94999999999999</ele>
        <time>2025-04-30T10:23:46Z</time>
      </trkpt>
      <trkpt lat="43.757072975859046" lon="-7.69623801112175">
        <ele>153.94999999999999</ele>
        <time>2025-04-30T10:23:47Z</time>
      </trkpt>
      <trkpt lat="43.756525972858071" lon="-7.696317974478006">
        <ele>154.91</ele>
        <time>2025-04-30T10:23:50Z</time>
      </trkpt>
      <trkpt lat="43.756385995075107" lon="-7.696372959762812">
        <ele>154.91</ele>
        <time>2025-04-30T10:23:51Z</time>
      </trkpt>
      <trkpt lat="43.756270995363593" lon="-7.696459041908383">
        <ele>154.91</ele>
        <time>2025-04-30T10:23:52Z</time>
      </trkpt>
      <trkpt lat="43.75615599565208" lon="-7.696618968620896">
        <ele>154.91</ele>
        <time>2025-04-30T10:23:53Z</time>
      </trkpt>
      <trkpt lat="43.756036972627044" lon="-7.696784008294344">
        <ele>155.38999999999999</ele>
        <time>2025-04-30T10:23:54Z</time>
      </trkpt>
      <trkpt lat="43.75523298047483" lon="-7.697986979037523">
        <ele>155.38999999999999</ele>
        <time>2025-04-30T10:24:00Z</time>
      </trkpt>
      <trkpt lat="43.755136001855135" lon="-7.69821303896606">
        <ele>154.91</ele>
        <time>2025-04-30T10:24:01Z</time>
      </trkpt>
      <trkpt lat="43.755044974386692" lon="-7.698426023125649">
        <ele>154.43000000000001</ele>
        <time>2025-04-30T10:24:02Z</time>
      </trkpt>
      <trkpt lat="43.754964005202055" lon="-7.69860103726387">
        <ele>153.94999999999999</ele>
        <time>2025-04-30T10:24:03Z</time>
      </trkpt>
      <trkpt lat="43.754844982177019" lon="-7.698770016431809">
        <ele>153.47</ele>
        <time>2025-04-30T10:24:04Z</time>
      </trkpt>
      <trkpt lat="43.754699975252151" lon="-7.698868000879884">
        <ele>152.50999999999999</ele>
        <time>2025-04-30T10:24:05Z</time>
      </trkpt>
      <trkpt lat="43.75454499386251" lon="-7.698973026126623">
        <ele>152.03</ele>
        <time>2025-04-30T10:24:06Z</time>
      </trkpt>
      <trkpt lat="43.754375008866191" lon="-7.699089031666517">
        <ele>151.06</ele>
        <time>2025-04-30T10:24:07Z</time>
      </trkpt>
      <trkpt lat="43.753184024244547" lon="-7.699896963313222">
        <ele>146.25999999999999</ele>
        <time>2025-04-30T10:24:14Z</time>
      </trkpt>
      <trkpt lat="43.753046980127692" lon="-7.699952032417059">
        <ele>145.30000000000001</ele>
        <time>2025-04-30T10:24:15Z</time>
      </trkpt>
      <trkpt lat="43.752915970981121" lon="-7.699940968304873">
        <ele>144.34</ele>
        <time>2025-04-30T10:24:16Z</time>
      </trkpt>
      <trkpt lat="43.752822009846568" lon="-7.6998670399189">
        <ele>143.84999999999999</ele>
        <time>2025-04-30T10:24:17Z</time>
      </trkpt>
      <trkpt lat="43.752752020955086" lon="-7.69978498108685">
        <ele>142.88999999999999</ele>
        <time>2025-04-30T10:24:18Z</time>
      </trkpt>
      <trkpt lat="43.752686977386475" lon="-7.699619019404054">
        <ele>142.41</ele>
        <time>2025-04-30T10:24:19Z</time>
      </trkpt>
      <trkpt lat="43.752623023465276" lon="-7.699450962245464">
        <ele>141.44999999999999</ele>
        <time>2025-04-30T10:24:20Z</time>
      </trkpt>
      <trkpt lat="43.752550017088652" lon="-7.699263961985707">
        <ele>140.49000000000001</ele>
        <time>2025-04-30T10:24:21Z</time>
      </trkpt>
      <trkpt lat="43.752453038468957" lon="-7.699061958119273">
        <ele>140.00999999999999</ele>
        <time>2025-04-30T10:24:22Z</time>
      </trkpt>
      <trkpt lat="43.752338960766792" lon="-7.69890203140676">
        <ele>139.05000000000001</ele>
        <time>2025-04-30T10:24:23Z</time>
      </trkpt>
      <trkpt lat="43.751947022974491" lon="-7.698456030339003">
        <ele>135.68000000000001</ele>
        <time>2025-04-30T10:24:26Z</time>
      </trkpt>
      <trkpt lat="43.751822970807552" lon="-7.698320997878909">
        <ele>134.24000000000001</ele>
        <time>2025-04-30T10:24:27Z</time>
      </trkpt>
      <trkpt lat="43.751680981367826" lon="-7.698252014815807">
        <ele>133.75999999999999</ele>
        <time>2025-04-30T10:24:28Z</time>
      </trkpt>
      <trkpt lat="43.751525999978185" lon="-7.698211027309299">
        <ele>132.80000000000001</ele>
        <time>2025-04-30T10:24:29Z</time>
      </trkpt>
      <trkpt lat="43.751393985003233" lon="-7.698284033685923">
        <ele>131.84</ele>
        <time>2025-04-30T10:24:30Z</time>
      </trkpt>
      <trkpt lat="43.75125702470541" lon="-7.698359973728657">
        <ele>131.36000000000001</ele>
        <time>2025-04-30T10:24:31Z</time>
      </trkpt>
      <trkpt lat="43.750734999775887" lon="-7.698541022837162">
        <ele>130.40000000000001</ele>
        <time>2025-04-30T10:24:34Z</time>
      </trkpt>
      <trkpt lat="43.750566020607948" lon="-7.698506992310286">
        <ele>130.40000000000001</ele>
        <time>2025-04-30T10:24:35Z</time>
      </trkpt>
      <trkpt lat="43.750082971528172" lon="-7.69819401204586">
        <ele>130.88</ele>
        <time>2025-04-30T10:24:38Z</time>
      </trkpt>
      <trkpt lat="43.749917009845376" lon="-7.698084963485599">
        <ele>130.88</ele>
        <time>2025-04-30T10:24:39Z</time>
      </trkpt>
      <trkpt lat="43.748965999111533" lon="-7.697577020153403">
        <ele>131.84</ele>
        <time>2025-04-30T10:24:45Z</time>
      </trkpt>
      <trkpt lat="43.748857034370303" lon="-7.697393959388137">
        <ele>132.31999999999999</ele>
        <time>2025-04-30T10:24:46Z</time>
      </trkpt>
      <trkpt lat="43.74876500107348" lon="-7.697193967178464">
        <ele>132.80000000000001</ele>
        <time>2025-04-30T10:24:47Z</time>
      </trkpt>
      <trkpt lat="43.748052958399057" lon="-7.695858981460333">
        <ele>136.16</ele>
        <time>2025-04-30T10:24:54Z</time>
      </trkpt>
      <trkpt lat="43.74790602363646" lon="-7.695768037810922">
        <ele>136.16</ele>
        <time>2025-04-30T10:24:55Z</time>
      </trkpt>
      <trkpt lat="43.747774008661509" lon="-7.695686984807253">
        <ele>136.16</ele>
        <time>2025-04-30T10:24:56Z</time>
      </trkpt>
      <trkpt lat="43.74704796820879" lon="-7.695359000936151">
        <ele>135.68000000000001</ele>
        <time>2025-04-30T10:25:00Z</time>
      </trkpt>
      <trkpt lat="43.746307007968426" lon="-7.694422993808985">
        <ele>135.68000000000001</ele>
        <time>2025-04-30T10:25:05Z</time>
      </trkpt>
      <trkpt lat="43.746153032407165" lon="-7.694227024912834">
        <ele>135.68000000000001</ele>
        <time>2025-04-30T10:25:06Z</time>
      </trkpt>
      <trkpt lat="43.746000984683633" lon="-7.694034995511174">
        <ele>135.19999999999999</ele>
        <time>2025-04-30T10:25:07Z</time>
      </trkpt>
      <trkpt lat="43.745828988030553" lon="-7.693866016343236">
        <ele>134.72</ele>
        <time>2025-04-30T10:25:08Z</time>
      </trkpt>
      <trkpt lat="43.745657997205853" lon="-7.693717991933227">
        <ele>134.72</ele>
        <time>2025-04-30T10:25:09Z</time>
      </trkpt>
      <trkpt lat="43.745504021644592" lon="-7.693584971129894">
        <ele>134.24000000000001</ele>
        <time>2025-04-30T10:25:10Z</time>
      </trkpt>
      <trkpt lat="43.745148964226246" lon="-7.693426972255111">
        <ele>134.72</ele>
        <time>2025-04-30T10:25:12Z</time>
      </trkpt>
      <trkpt lat="43.744599027559161" lon="-7.693199990317226">
        <ele>134.24000000000001</ele>
        <time>2025-04-30T10:25:15Z</time>
      </trkpt>
      <trkpt lat="43.744395012035966" lon="-7.693181969225407">
        <ele>133.75999999999999</ele>
        <time>2025-04-30T10:25:16Z</time>
      </trkpt>
      <trkpt lat="43.74423298984766" lon="-7.693305015563965">
        <ele>133.75999999999999</ele>
        <time>2025-04-30T10:25:17Z</time>
      </trkpt>
      <trkpt lat="43.744113966822624" lon="-7.693477012217045">
        <ele>133.28</ele>
        <time>2025-04-30T10:25:18Z</time>
      </trkpt>
      <trkpt lat="43.744008019566536" lon="-7.693654960021377">
        <ele>132.80000000000001</ele>
        <time>2025-04-30T10:25:19Z</time>
      </trkpt>
      <trkpt lat="43.743891008198261" lon="-7.693851012736559">
        <ele>132.31999999999999</ele>
        <time>2025-04-30T10:25:20Z</time>
      </trkpt>
      <trkpt lat="43.743770979344845" lon="-7.694053016602993">
        <ele>132.31999999999999</ele>
        <time>2025-04-30T10:25:21Z</time>
      </trkpt>
      <trkpt lat="43.743671989068389" lon="-7.694310005754232">
        <ele>131.84</ele>
        <time>2025-04-30T10:25:22Z</time>
      </trkpt>
      <trkpt lat="43.743602000176907" lon="-7.694568000733852">
        <ele>131.36000000000001</ele>
        <time>2025-04-30T10:25:23Z</time>
      </trkpt>
      <trkpt lat="43.743512984365225" lon="-7.695306027308106">
        <ele>129.91999999999999</ele>
        <time>2025-04-30T10:25:26Z</time>
      </trkpt>
      <trkpt lat="43.743461016565561" lon="-7.695557987317443">
        <ele>129.43000000000001</ele>
        <time>2025-04-30T10:25:27Z</time>
      </trkpt>
      <trkpt lat="43.743362026289105" lon="-7.695806007832289">
        <ele>128.47</ele>
        <time>2025-04-30T10:25:28Z</time>
      </trkpt>
      <trkpt lat="43.743270998820662" lon="-7.696031983941793">
        <ele>127.51000000000001</ele>
        <time>2025-04-30T10:25:29Z</time>
      </trkpt>
      <trkpt lat="43.743188017979264" lon="-7.696240022778511">
        <ele>127.03</ele>
        <time>2025-04-30T10:25:30Z</time>
      </trkpt>
      <trkpt lat="43.742941003292799" lon="-7.697047032415867">
        <ele>124.15000000000001</ele>
        <time>2025-04-30T10:25:34Z</time>
      </trkpt>
      <trkpt lat="43.742904039099813" lon="-7.697288012132049">
        <ele>123.19</ele>
        <time>2025-04-30T10:25:35Z</time>
      </trkpt>
      <trkpt lat="43.742746040225029" lon="-7.698080018162727">
        <ele>120.78</ele>
        <time>2025-04-30T10:25:38Z</time>
      </trkpt>
      <trkpt lat="43.74266498722136" lon="-7.698340024799109">
        <ele>119.34</ele>
        <time>2025-04-30T10:25:39Z</time>
      </trkpt>
      <trkpt lat="43.742417972534895" lon="-7.699130019173026">
        <ele>115.98</ele>
        <time>2025-04-30T10:25:42Z</time>
      </trkpt>
      <trkpt lat="43.742361981421709" lon="-7.699407963082194">
        <ele>115.01000000000001</ele>
        <time>2025-04-30T10:25:43Z</time>
      </trkpt>
      <trkpt lat="43.742303978651762" lon="-7.700768010690808">
        <ele>108.29000000000001</ele>
        <time>2025-04-30T10:25:48Z</time>
      </trkpt>
      <trkpt lat="43.74223398976028" lon="-7.701028017327189">
        <ele>106.84</ele>
        <time>2025-04-30T10:25:49Z</time>
      </trkpt>
      <trkpt lat="43.742156038060784" lon="-7.701274026185274">
        <ele>105.88</ele>
        <time>2025-04-30T10:25:50Z</time>
      </trkpt>
      <trkpt lat="43.741965014487505" lon="-7.702012974768877">
        <ele>102.04000000000001</ele>
        <time>2025-04-30T10:25:53Z</time>
      </trkpt>
      <trkpt lat="43.741945987567306" lon="-7.702256971970201">
        <ele>101.08</ele>
        <time>2025-04-30T10:25:54Z</time>
      </trkpt>
      <trkpt lat="43.741926038637757" lon="-7.702503986656666">
        <ele>100.11</ele>
        <time>2025-04-30T10:25:55Z</time>
      </trkpt>
      <trkpt lat="43.741883961483836" lon="-7.703432030975819">
        <ele>96.269999999999996</ele>
        <time>2025-04-30T10:25:59Z</time>
      </trkpt>
      <trkpt lat="43.741865018382668" lon="-7.70382103510201">
        <ele>93.870000000000005</ele>
        <time>2025-04-30T10:26:01Z</time>
      </trkpt>
      <trkpt lat="43.741801986470819" lon="-7.70399697124958">
        <ele>92.900000000000006</ele>
        <time>2025-04-30T10:26:02Z</time>
      </trkpt>
      <trkpt lat="43.74169603921473" lon="-7.704090010374785">
        <ele>91.939999999999998</ele>
        <time>2025-04-30T10:26:03Z</time>
      </trkpt>
      <trkpt lat="43.741538040339947" lon="-7.704086992889643">
        <ele>90.980000000000004</ele>
        <time>2025-04-30T10:26:04Z</time>
      </trkpt>
      <trkpt lat="43.741411976516247" lon="-7.704044999554753">
        <ele>90.019999999999996</ele>
        <time>2025-04-30T10:26:05Z</time>
      </trkpt>
      <trkpt lat="43.741277027875185" lon="-7.703999988734722">
        <ele>89.540000000000006</ele>
        <time>2025-04-30T10:26:06Z</time>
      </trkpt>
      <trkpt lat="43.741135960444808" lon="-7.703991020098329">
        <ele>88.579999999999998</ele>
        <time>2025-04-30T10:26:07Z</time>
      </trkpt>
      <trkpt lat="43.740990031510592" lon="-7.704011974856257">
        <ele>88.099999999999994</ele>
        <time>2025-04-30T10:26:08Z</time>
      </trkpt>
      <trkpt lat="43.740847958251834" lon="-7.704077018424869">
        <ele>87.620000000000005</ele>
        <time>2025-04-30T10:26:09Z</time>
      </trkpt>
      <trkpt lat="43.740704962983727" lon="-7.704141978174448">
        <ele>86.659999999999997</ele>
        <time>2025-04-30T10:26:10Z</time>
      </trkpt>
      <trkpt lat="43.740563979372382" lon="-7.704207021743059">
        <ele>86.180000000000007</ele>
        <time>2025-04-30T10:26:11Z</time>
      </trkpt>
      <trkpt lat="43.740420984104276" lon="-7.704290002584457">
        <ele>85.689999999999998</ele>
        <time>2025-04-30T10:26:12Z</time>
      </trkpt>
      <trkpt lat="43.739374000579119" lon="-7.704869024455547">
        <ele>80.890000000000001</ele>
        <time>2025-04-30T10:26:20Z</time>
      </trkpt>
      <trkpt lat="43.738104980438948" lon="-7.705593975260854">
        <ele>75.120000000000005</ele>
        <time>2025-04-30T10:26:31Z</time>
      </trkpt>
      <trkpt lat="43.738015964627266" lon="-7.705706041306257">
        <ele>74.159999999999997</ele>
        <time>2025-04-30T10:26:32Z</time>
      </trkpt>
      <trkpt lat="43.737942036241293" lon="-7.705810982733965">
        <ele>73.680000000000007</ele>
        <time>2025-04-30T10:26:33Z</time>
      </trkpt>
      <trkpt lat="43.737530987709761" lon="-7.706428980454803">
        <ele>69.829999999999998</ele>
        <time>2025-04-30T10:26:40Z</time>
      </trkpt>
      <trkpt lat="43.737455969676375" lon="-7.706482037901878">
        <ele>69.349999999999994</ele>
        <time>2025-04-30T10:26:41Z</time>
      </trkpt>
      <trkpt lat="43.737379023805261" lon="-7.706536017358303">
        <ele>68.870000000000005</ele>
        <time>2025-04-30T10:26:42Z</time>
      </trkpt>
      <trkpt lat="43.737310040742159" lon="-7.706553032621741">
        <ele>68.390000000000001</ele>
        <time>2025-04-30T10:26:43Z</time>
      </trkpt>
      <trkpt lat="43.737223036587238" lon="-7.706566024571657">
        <ele>67.909999999999997</ele>
        <time>2025-04-30T10:26:44Z</time>
      </trkpt>
      <trkpt lat="43.737137038260698" lon="-7.706578010693193">
        <ele>67.909999999999997</ele>
        <time>2025-04-30T10:26:45Z</time>
      </trkpt>
      <trkpt lat="43.737047016620636" lon="-7.706592008471489">
        <ele>67.430000000000007</ele>
        <time>2025-04-30T10:26:46Z</time>
      </trkpt>
      <trkpt lat="43.736960012465715" lon="-7.706605000421405">
        <ele>66.950000000000003</ele>
        <time>2025-04-30T10:26:47Z</time>
      </trkpt>
      <trkpt lat="43.736792039126158" lon="-7.706628972664475">
        <ele>66.469999999999999</ele>
        <time>2025-04-30T10:26:49Z</time>
      </trkpt>
      <trkpt lat="43.736501019448042" lon="-7.706597037613392">
        <ele>65.989999999999995</ele>
        <time>2025-04-30T10:26:53Z</time>
      </trkpt>
      <trkpt lat="43.735781013965607" lon="-7.706951005384326">
        <ele>67.430000000000007</ele>
        <time>2025-04-30T10:27:01Z</time>
      </trkpt>
      <trkpt lat="43.734317030757666" lon="-7.707661958411336">
        <ele>75.599999999999994</ele>
        <time>2025-04-30T10:27:15Z</time>
      </trkpt>
      <trkpt lat="43.732808958739042" lon="-7.708367966115475">
        <ele>84.730000000000004</ele>
        <time>2025-04-30T10:27:25Z</time>
      </trkpt>
      <trkpt lat="43.731827018782496" lon="-7.708500986918807">
        <ele>90.5</ele>
        <time>2025-04-30T10:27:31Z</time>
      </trkpt>
      <trkpt lat="43.730263039469719" lon="-7.708047023043037">
        <ele>94.829999999999998</ele>
        <time>2025-04-30T10:27:38Z</time>
      </trkpt>
      <trkpt lat="43.729883003979921" lon="-7.707986002787948">
        <ele>95.790000000000006</ele>
        <time>2025-04-30T10:27:40Z</time>
      </trkpt>
      <trkpt lat="43.729693992063403" lon="-7.708007963374257">
        <ele>96.269999999999996</ele>
        <time>2025-04-30T10:27:41Z</time>
      </trkpt>
      <trkpt lat="43.729505985975266" lon="-7.708030007779598">
        <ele>96.75</ele>
        <time>2025-04-30T10:27:42Z</time>
      </trkpt>
      <trkpt lat="43.729318985715508" lon="-7.708064960315824">
        <ele>97.230000000000004</ele>
        <time>2025-04-30T10:27:43Z</time>
      </trkpt>
      <trkpt lat="43.729131985455751" lon="-7.708142995834351">
        <ele>97.709999999999994</ele>
        <time>2025-04-30T10:27:44Z</time>
      </trkpt>
      <trkpt lat="43.728949008509517" lon="-7.708234023302794">
        <ele>98.189999999999998</ele>
        <time>2025-04-30T10:27:45Z</time>
      </trkpt>
      <trkpt lat="43.728767037391663" lon="-7.708327984437347">
        <ele>99.150000000000006</ele>
        <time>2025-04-30T10:27:46Z</time>
      </trkpt>
      <trkpt lat="43.728583976626396" lon="-7.708422029390931">
        <ele>99.629999999999995</ele>
        <time>2025-04-30T10:27:47Z</time>
      </trkpt>
      <trkpt lat="43.727392992004752" lon="-7.709514023736119">
        <ele>103.48</ele>
        <time>2025-04-30T10:27:54Z</time>
      </trkpt>
      <trkpt lat="43.727243961766362" lon="-7.709713010117412">
        <ele>103.95999999999999</ele>
        <time>2025-04-30T10:27:55Z</time>
      </trkpt>
      <trkpt lat="43.7271280400455" lon="-7.709943009540439">
        <ele>104.44</ele>
        <time>2025-04-30T10:27:56Z</time>
      </trkpt>
      <trkpt lat="43.727012034505606" lon="-7.710173008963466">
        <ele>105.40000000000001</ele>
        <time>2025-04-30T10:27:57Z</time>
      </trkpt>
      <trkpt lat="43.726918995380402" lon="-7.710423041135073">
        <ele>105.88</ele>
        <time>2025-04-30T10:27:58Z</time>
      </trkpt>
      <trkpt lat="43.7268309853971" lon="-7.710685981437564">
        <ele>106.36</ele>
        <time>2025-04-30T10:27:59Z</time>
      </trkpt>
      <trkpt lat="43.726180968806148" lon="-7.713072979822755">
        <ele>110.69</ele>
        <time>2025-04-30T10:28:08Z</time>
      </trkpt>
      <trkpt lat="43.725720969960093" lon="-7.714708037674427">
        <ele>112.61</ele>
        <time>2025-04-30T10:28:14Z</time>
      </trkpt>
      <trkpt lat="43.725715018808842" lon="-7.714984975755215">
        <ele>113.09</ele>
        <time>2025-04-30T10:28:15Z</time>
      </trkpt>
      <trkpt lat="43.725758017972112" lon="-7.715218998491764">
        <ele>113.56999999999999</ele>
        <time>2025-04-30T10:28:16Z</time>
      </trkpt>
      <trkpt lat="43.725801017135382" lon="-7.715448997914791">
        <ele>114.05</ele>
        <time>2025-04-30T10:28:17Z</time>
      </trkpt>
      <trkpt lat="43.725903024896979" lon="-7.715653013437986">
        <ele>114.53</ele>
        <time>2025-04-30T10:28:18Z</time>
      </trkpt>
      <trkpt lat="43.725973013788462" lon="-7.715792991220951">
        <ele>115.01000000000001</ele>
        <time>2025-04-30T10:28:19Z</time>
      </trkpt>
      <trkpt lat="43.726142998784781" lon="-7.715920982882381">
        <ele>115.5</ele>
        <time>2025-04-30T10:28:20Z</time>
      </trkpt>
      <trkpt lat="43.726302003487945" lon="-7.716039000079036">
        <ele>115.5</ele>
        <time>2025-04-30T10:28:21Z</time>
      </trkpt>
      <trkpt lat="43.726454973220825" lon="-7.716124998405576">
        <ele>115.98</ele>
        <time>2025-04-30T10:28:22Z</time>
      </trkpt>
      <trkpt lat="43.726654965430498" lon="-7.716164980083704">
        <ele>116.45999999999999</ele>
        <time>2025-04-30T10:28:23Z</time>
      </trkpt>
      <trkpt lat="43.726864010095596" lon="-7.716204039752483">
        <ele>116.94</ele>
        <time>2025-04-30T10:28:24Z</time>
      </trkpt>
      <trkpt lat="43.727285033091903" lon="-7.716277968138456">
        <ele>117.42</ele>
        <time>2025-04-30T10:28:26Z</time>
      </trkpt>
      <trkpt lat="43.727488964796066" lon="-7.716332031413913">
        <ele>116.94</ele>
        <time>2025-04-30T10:28:27Z</time>
      </trkpt>
      <trkpt lat="43.727663978934288" lon="-7.716451976448298">
        <ele>117.42</ele>
        <time>2025-04-30T10:28:28Z</time>
      </trkpt>
      <trkpt lat="43.727841004729271" lon="-7.716572005301714">
        <ele>117.42</ele>
        <time>2025-04-30T10:28:29Z</time>
      </trkpt>
      <trkpt lat="43.728009983897209" lon="-7.71677803248167">
        <ele>117.90000000000001</ele>
        <time>2025-04-30T10:28:30Z</time>
      </trkpt>
      <trkpt lat="43.728136969730258" lon="-7.717004008591175">
        <ele>117.90000000000001</ele>
        <time>2025-04-30T10:28:31Z</time>
      </trkpt>
      <trkpt lat="43.72826999053359" lon="-7.717239037156105">
        <ele>117.90000000000001</ele>
        <time>2025-04-30T10:28:32Z</time>
      </trkpt>
      <trkpt lat="43.72910600155592" lon="-7.719097975641489">
        <ele>117.90000000000001</ele>
        <time>2025-04-30T10:28:39Z</time>
      </trkpt>
      <trkpt lat="43.729189988225698" lon="-7.719364017248154">
        <ele>117.90000000000001</ele>
        <time>2025-04-30T10:28:40Z</time>
      </trkpt>
      <trkpt lat="43.729233993217349" lon="-7.719629975035787">
        <ele>118.38</ele>
        <time>2025-04-30T10:28:41Z</time>
      </trkpt>
      <trkpt lat="43.729233993217349" lon="-7.719909008592367">
        <ele>118.86</ele>
        <time>2025-04-30T10:28:42Z</time>
      </trkpt>
      <trkpt lat="43.72919199988246" lon="-7.720196004956961">
        <ele>118.86</ele>
        <time>2025-04-30T10:28:43Z</time>
      </trkpt>
      <trkpt lat="43.729097032919526" lon="-7.720461040735245">
        <ele>119.34</ele>
        <time>2025-04-30T10:28:44Z</time>
      </trkpt>
      <trkpt lat="43.728983961045742" lon="-7.720711994916201">
        <ele>119.34</ele>
        <time>2025-04-30T10:28:45Z</time>
      </trkpt>
      <trkpt lat="43.728851024061441" lon="-7.720959009602666">
        <ele>119.34</ele>
        <time>2025-04-30T10:28:46Z</time>
      </trkpt>
      <trkpt lat="43.72783999890089" lon="-7.723088013008237">
        <ele>117.90000000000001</ele>
        <time>2025-04-30T10:28:54Z</time>
      </trkpt>
      <trkpt lat="43.72781996615231" lon="-7.723364029079676">
        <ele>117.42</ele>
        <time>2025-04-30T10:28:55Z</time>
      </trkpt>
      <trkpt lat="43.727834969758987" lon="-7.723607020452619">
        <ele>116.94</ele>
        <time>2025-04-30T10:28:56Z</time>
      </trkpt>
      <trkpt lat="43.727857014164329" lon="-7.723877001553774">
        <ele>116.45999999999999</ele>
        <time>2025-04-30T10:28:57Z</time>
      </trkpt>
      <trkpt lat="43.727919962257147" lon="-7.724110018461943">
        <ele>115.98</ele>
        <time>2025-04-30T10:28:58Z</time>
      </trkpt>
      <trkpt lat="43.72801098972559" lon="-7.724397014826536">
        <ele>115.98</ele>
        <time>2025-04-30T10:28:59Z</time>
      </trkpt>
      <trkpt lat="43.72801098972559" lon="-7.724397014826536">
        <ele>116.94</ele>
        <time>2025-04-30T10:29:00Z</time>
      </trkpt>
      <trkpt lat="43.728585988283157" lon="-7.72547903470695">
        <ele>117.90000000000001</ele>
        <time>2025-04-30T10:29:04Z</time>
      </trkpt>
      <trkpt lat="43.728954959660769" lon="-7.726371036842465">
        <ele>116.94</ele>
        <time>2025-04-30T10:29:08Z</time>
      </trkpt>
      <trkpt lat="43.729125028476119" lon="-7.726556025445461">
        <ele>116.45999999999999</ele>
        <time>2025-04-30T10:29:09Z</time>
      </trkpt>
      <trkpt lat="43.729730034247041" lon="-7.72756302729249">
        <ele>114.53</ele>
        <time>2025-04-30T10:29:14Z</time>
      </trkpt>
      <trkpt lat="43.730079978704453" lon="-7.727806018665433">
        <ele>113.56999999999999</ele>
        <time>2025-04-30T10:29:16Z</time>
      </trkpt>
      <trkpt lat="43.730800990015268" lon="-7.728796005249023">
        <ele>112.61</ele>
        <time>2025-04-30T10:29:22Z</time>
      </trkpt>
      <trkpt lat="43.730776011943817" lon="-7.728983005508781">
        <ele>112.61</ele>
        <time>2025-04-30T10:29:23Z</time>
      </trkpt>
      <trkpt lat="43.730753967538476" lon="-7.729182997718453">
        <ele>112.61</ele>
        <time>2025-04-30T10:29:24Z</time>
      </trkpt>
      <trkpt lat="43.73074097558856" lon="-7.729388019070029">
        <ele>113.09</ele>
        <time>2025-04-30T10:29:25Z</time>
      </trkpt>
      <trkpt lat="43.730766037479043" lon="-7.729639979079366">
        <ele>113.56999999999999</ele>
        <time>2025-04-30T10:29:26Z</time>
      </trkpt>
      <trkpt lat="43.730779029428959" lon="-7.729719020426273">
        <ele>113.56999999999999</ele>
        <time>2025-04-30T10:29:27Z</time>
      </trkpt>
      <trkpt lat="43.730904003605247" lon="-7.730053039267659">
        <ele>113.09</ele>
        <time>2025-04-30T10:29:28Z</time>
      </trkpt>
      <trkpt lat="43.731000982224941" lon="-7.730201985687017">
        <ele>113.09</ele>
        <time>2025-04-30T10:29:29Z</time>
      </trkpt>
      <trkpt lat="43.731085974723101" lon="-7.730326037853956">
        <ele>113.09</ele>
        <time>2025-04-30T10:29:30Z</time>
      </trkpt>
      <trkpt lat="43.731214972212911" lon="-7.730455035343766">
        <ele>112.13</ele>
        <time>2025-04-30T10:29:31Z</time>
      </trkpt>
      <trkpt lat="43.731357967481017" lon="-7.73059300146997">
        <ele>111.17</ele>
        <time>2025-04-30T10:29:32Z</time>
      </trkpt>
      <trkpt lat="43.731510015204549" lon="-7.730738008394837">
        <ele>110.20999999999999</ele>
        <time>2025-04-30T10:29:33Z</time>
      </trkpt>
      <trkpt lat="43.731664996594191" lon="-7.730885026976466">
        <ele>109.25</ele>
        <time>2025-04-30T10:29:34Z</time>
      </trkpt>
      <trkpt lat="43.731806986033916" lon="-7.731106979772449">
        <ele>108.29000000000001</ele>
        <time>2025-04-30T10:29:35Z</time>
      </trkpt>
      <trkpt lat="43.731922991573811" lon="-7.731312001124024">
        <ele>107.31999999999999</ele>
        <time>2025-04-30T10:29:36Z</time>
      </trkpt>
      <trkpt lat="43.732008989900351" lon="-7.73158298805356">
        <ele>106.36</ele>
        <time>2025-04-30T10:29:37Z</time>
      </trkpt>
      <trkpt lat="43.732045032083988" lon="-7.731799995526671">
        <ele>105.40000000000001</ele>
        <time>2025-04-30T10:29:38Z</time>
      </trkpt>
      <trkpt lat="43.732072021812201" lon="-7.732109958305955">
        <ele>104.44</ele>
        <time>2025-04-30T10:29:39Z</time>
      </trkpt>
      <trkpt lat="43.732086019590497" lon="-7.733162976801395">
        <ele>100.59999999999999</ele>
        <time>2025-04-30T10:29:43Z</time>
      </trkpt>
      <trkpt lat="43.732043020427227" lon="-7.733424995094538">
        <ele>98.670000000000002</ele>
        <time>2025-04-30T10:29:44Z</time>
      </trkpt>
      <trkpt lat="43.731974037364125" lon="-7.733659017831087">
        <ele>96.75</ele>
        <time>2025-04-30T10:29:45Z</time>
      </trkpt>
      <trkpt lat="43.731873035430908" lon="-7.733907960355282">
        <ele>94.829999999999998</ele>
        <time>2025-04-30T10:29:46Z</time>
      </trkpt>
      <trkpt lat="43.731760969385505" lon="-7.734151035547257">
        <ele>92.900000000000006</ele>
        <time>2025-04-30T10:29:47Z</time>
      </trkpt>
      <trkpt lat="43.73052497394383" lon="-7.73665496148169">
        <ele>75.120000000000005</ele>
        <time>2025-04-30T10:29:57Z</time>
      </trkpt>
      <trkpt lat="43.729688040912151" lon="-7.738360008224845">
        <ele>65.030000000000001</ele>
        <time>2025-04-30T10:30:04Z</time>
      </trkpt>
      <trkpt lat="43.728943979367614" lon="-7.739883000031114">
        <ele>55.409999999999997</ele>
        <time>2025-04-30T10:30:11Z</time>
      </trkpt>
      <trkpt lat="43.727866988629103" lon="-7.741876970976591">
        <ele>43.880000000000003</ele>
        <time>2025-04-30T10:30:22Z</time>
      </trkpt>
      <trkpt lat="43.726920001208782" lon="-7.742720022797585">
        <ele>36.670000000000002</ele>
        <time>2025-04-30T10:30:29Z</time>
      </trkpt>
      <trkpt lat="43.726343996822834" lon="-7.743125036358833">
        <ele>31.379999999999999</ele>
        <time>2025-04-30T10:30:33Z</time>
      </trkpt>
      <trkpt lat="43.726237965747714" lon="-7.743317987769842">
        <ele>30.420000000000002</ele>
        <time>2025-04-30T10:30:34Z</time>
      </trkpt>
      <trkpt lat="43.726137969642878" lon="-7.74350699968636">
        <ele>29.460000000000001</ele>
        <time>2025-04-30T10:30:35Z</time>
      </trkpt>
      <trkpt lat="43.726036967709661" lon="-7.743697017431259">
        <ele>28.5</ele>
        <time>2025-04-30T10:30:36Z</time>
      </trkpt>
      <trkpt lat="43.725942000746727" lon="-7.743887035176158">
        <ele>28.02</ele>
        <time>2025-04-30T10:30:37Z</time>
      </trkpt>
      <trkpt lat="43.725880980491638" lon="-7.744078980758786">
        <ele>27.530000000000001</ele>
        <time>2025-04-30T10:30:38Z</time>
      </trkpt>
      <trkpt lat="43.725469009950757" lon="-7.745474986732006">
        <ele>28.98</ele>
        <time>2025-04-30T10:30:47Z</time>
      </trkpt>
      <trkpt lat="43.725034995004535" lon="-7.747045001015067">
        <ele>32.82</ele>
        <time>2025-04-30T10:30:58Z</time>
      </trkpt>
      <trkpt lat="43.72451095841825" lon="-7.748974012210965">
        <ele>39.549999999999997</ele>
        <time>2025-04-30T10:31:10Z</time>
      </trkpt>
      <trkpt lat="43.7238849978894" lon="-7.751188008114696">
        <ele>44.840000000000003</ele>
        <time>2025-04-30T10:31:21Z</time>
      </trkpt>
      <trkpt lat="43.723216038197279" lon="-7.753498982638121">
        <ele>49.649999999999999</ele>
        <time>2025-04-30T10:31:29Z</time>
      </trkpt>
      <trkpt lat="43.722593011334538" lon="-7.755958987399936">
        <ele>59.259999999999998</ele>
        <time>2025-04-30T10:31:38Z</time>
      </trkpt>
      <trkpt lat="43.722578007727861" lon="-7.756365006789565">
        <ele>61.18</ele>
        <time>2025-04-30T10:31:40Z</time>
      </trkpt>
      <trkpt lat="43.722600974142551" lon="-7.756551001220942">
        <ele>62.619999999999997</ele>
        <time>2025-04-30T10:31:41Z</time>
      </trkpt>
      <trkpt lat="43.722756039351225" lon="-7.75787802413106">
        <ele>67.909999999999997</ele>
        <time>2025-04-30T10:31:49Z</time>
      </trkpt>
      <trkpt lat="43.722762996330857" lon="-7.758057983592153">
        <ele>68.390000000000001</ele>
        <time>2025-04-30T10:31:50Z</time>
      </trkpt>
      <trkpt lat="43.722770037129521" lon="-7.75824498385191">
        <ele>68.870000000000005</ele>
        <time>2025-04-30T10:31:51Z</time>
      </trkpt>
      <trkpt lat="43.722760984674096" lon="-7.758452016860247">
        <ele>69.349999999999994</ele>
        <time>2025-04-30T10:31:52Z</time>
      </trkpt>
      <trkpt lat="43.722719997167587" lon="-7.758644968271256">
        <ele>70.310000000000002</ele>
        <time>2025-04-30T10:31:53Z</time>
      </trkpt>
      <trkpt lat="43.722636010497808" lon="-7.75884797796607">
        <ele>70.790000000000006</ele>
        <time>2025-04-30T10:31:54Z</time>
      </trkpt>
      <trkpt lat="43.722528973594308" lon="-7.759058028459549">
        <ele>71.269999999999996</ele>
        <time>2025-04-30T10:31:55Z</time>
      </trkpt>
      <trkpt lat="43.722396036610007" lon="-7.759264977648854">
        <ele>72.239999999999995</ele>
        <time>2025-04-30T10:31:56Z</time>
      </trkpt>
      <trkpt lat="43.721507973968983" lon="-7.760714963078499">
        <ele>78</ele>
        <time>2025-04-30T10:32:02Z</time>
      </trkpt>
      <trkpt lat="43.720423020422459" lon="-7.762443982064724">
        <ele>88.099999999999994</ele>
        <time>2025-04-30T10:32:10Z</time>
      </trkpt>
      <trkpt lat="43.7201480101794" lon="-7.762803984805942">
        <ele>90.019999999999996</ele>
        <time>2025-04-30T10:32:12Z</time>
      </trkpt>
      <trkpt lat="43.719992022961378" lon="-7.762942034751177">
        <ele>91.459999999999994</ele>
        <time>2025-04-30T10:32:13Z</time>
      </trkpt>
      <trkpt lat="43.719809968024492" lon="-7.763029960915446">
        <ele>92.900000000000006</ele>
        <time>2025-04-30T10:32:14Z</time>
      </trkpt>
      <trkpt lat="43.71963101439178" lon="-7.763115959241986">
        <ele>94.349999999999994</ele>
        <time>2025-04-30T10:32:15Z</time>
      </trkpt>
      <trkpt lat="43.719450971111655" lon="-7.763202963396907">
        <ele>95.790000000000006</ele>
        <time>2025-04-30T10:32:16Z</time>
      </trkpt>
      <trkpt lat="43.718906985595822" lon="-7.763437991961837">
        <ele>99.629999999999995</ele>
        <time>2025-04-30T10:32:19Z</time>
      </trkpt>
      <trkpt lat="43.718729037791491" lon="-7.763563971966505">
        <ele>100.59999999999999</ele>
        <time>2025-04-30T10:32:20Z</time>
      </trkpt>
      <trkpt lat="43.718567015603185" lon="-7.763717025518417">
        <ele>102.04000000000001</ele>
        <time>2025-04-30T10:32:21Z</time>
      </trkpt>
      <trkpt lat="43.718405999243259" lon="-7.763881981372833">
        <ele>103.48</ele>
        <time>2025-04-30T10:32:22Z</time>
      </trkpt>
      <trkpt lat="43.718255963176489" lon="-7.764061018824577">
        <ele>104.92</ele>
        <time>2025-04-30T10:32:23Z</time>
      </trkpt>
      <trkpt lat="43.717165980488062" lon="-7.765491977334023">
        <ele>115.5</ele>
        <time>2025-04-30T10:32:31Z</time>
      </trkpt>
      <trkpt lat="43.716515963897109" lon="-7.766854036599398">
        <ele>123.67</ele>
        <time>2025-04-30T10:32:38Z</time>
      </trkpt>
      <trkpt lat="43.715900983661413" lon="-7.76784997433424">
        <ele>130.40000000000001</ele>
        <time>2025-04-30T10:32:45Z</time>
      </trkpt>
      <trkpt lat="43.715050974860787" lon="-7.768556987866759">
        <ele>138.56999999999999</ele>
        <time>2025-04-30T10:32:54Z</time>
      </trkpt>
      <trkpt lat="43.713870970532298" lon="-7.769179008901119">
        <ele>145.30000000000001</ele>
        <time>2025-04-30T10:33:05Z</time>
      </trkpt>
      <trkpt lat="43.713769968599081" lon="-7.769324015825987">
        <ele>145.78</ele>
        <time>2025-04-30T10:33:06Z</time>
      </trkpt>
      <trkpt lat="43.713683970272541" lon="-7.769449995830655">
        <ele>146.25999999999999</ele>
        <time>2025-04-30T10:33:07Z</time>
      </trkpt>
      <trkpt lat="43.713606018573046" lon="-7.769593996927142">
        <ele>146.74000000000001</ele>
        <time>2025-04-30T10:33:08Z</time>
      </trkpt>
      <trkpt lat="43.713520020246506" lon="-7.769756019115448">
        <ele>146.74000000000001</ele>
        <time>2025-04-30T10:33:09Z</time>
      </trkpt>
      <trkpt lat="43.7134650349617" lon="-7.769937990233302">
        <ele>147.22</ele>
        <time>2025-04-30T10:33:10Z</time>
      </trkpt>
      <trkpt lat="43.713436033576727" lon="-7.770150974392891">
        <ele>147.22</ele>
        <time>2025-04-30T10:33:11Z</time>
      </trkpt>
      <trkpt lat="43.713417006656528" lon="-7.770392959937453">
        <ele>146.74000000000001</ele>
        <time>2025-04-30T10:33:12Z</time>
      </trkpt>
      <trkpt lat="43.713397979736328" lon="-7.770638968795538">
        <ele>145.78</ele>
        <time>2025-04-30T10:33:13Z</time>
      </trkpt>
      <trkpt lat="43.713451959192753" lon="-7.772894036024809">
        <ele>136.63999999999999</ele>
        <time>2025-04-30T10:33:21Z</time>
      </trkpt>
      <trkpt lat="43.714006002992392" lon="-7.775312969461083">
        <ele>125.59</ele>
        <time>2025-04-30T10:33:29Z</time>
      </trkpt>
      <trkpt lat="43.714170958846807" lon="-7.776160966604948">
        <ele>121.26000000000001</ele>
        <time>2025-04-30T10:33:32Z</time>
      </trkpt>
      <trkpt lat="43.714179005473852" lon="-7.77642298489809">
        <ele>119.81999999999999</ele>
        <time>2025-04-30T10:33:33Z</time>
      </trkpt>
      <trkpt lat="43.714184034615755" lon="-7.776659019291401">
        <ele>118.86</ele>
        <time>2025-04-30T10:33:34Z</time>
      </trkpt>
      <trkpt lat="43.714126031845808" lon="-7.77689203619957">
        <ele>117.90000000000001</ele>
        <time>2025-04-30T10:33:35Z</time>
      </trkpt>
      <trkpt lat="43.714050007984042" lon="-7.777123963460326">
        <ele>116.94</ele>
        <time>2025-04-30T10:33:36Z</time>
      </trkpt>
      <trkpt lat="43.713939031586051" lon="-7.777330996468663">
        <ele>115.98</ele>
        <time>2025-04-30T10:33:37Z</time>
      </trkpt>
      <trkpt lat="43.713822020217776" lon="-7.77754096314311">
        <ele>115.01000000000001</ele>
        <time>2025-04-30T10:33:38Z</time>
      </trkpt>
      <trkpt lat="43.713538041338325" lon="-7.77820497751236">
        <ele>112.61</ele>
        <time>2025-04-30T10:33:41Z</time>
      </trkpt>
      <trkpt lat="43.713483978062868" lon="-7.778459032997489">
        <ele>112.13</ele>
        <time>2025-04-30T10:33:42Z</time>
      </trkpt>
      <trkpt lat="43.713463023304939" lon="-7.778701018542051">
        <ele>111.65000000000001</ele>
        <time>2025-04-30T10:33:43Z</time>
      </trkpt>
      <trkpt lat="43.713468974456191" lon="-7.778968987986445">
        <ele>110.69</ele>
        <time>2025-04-30T10:33:44Z</time>
      </trkpt>
      <trkpt lat="43.713503004983068" lon="-7.779250033199787">
        <ele>110.20999999999999</ele>
        <time>2025-04-30T10:33:45Z</time>
      </trkpt>
      <trkpt lat="43.713768040761352" lon="-7.781031019985676">
        <ele>105.88</ele>
        <time>2025-04-30T10:33:51Z</time>
      </trkpt>
      <trkpt lat="43.713820008561015" lon="-7.781320028007031">
        <ele>104.92</ele>
        <time>2025-04-30T10:33:52Z</time>
      </trkpt>
      <trkpt lat="43.713923022150993" lon="-7.781600989401341">
        <ele>103.95999999999999</ele>
        <time>2025-04-30T10:33:53Z</time>
      </trkpt>
      <trkpt lat="43.7143250182271" lon="-7.78269600123167">
        <ele>100.59999999999999</ele>
        <time>2025-04-30T10:33:57Z</time>
      </trkpt>
      <trkpt lat="43.714428031817079" lon="-7.78297696262598">
        <ele>99.629999999999995</ele>
        <time>2025-04-30T10:33:58Z</time>
      </trkpt>
      <trkpt lat="43.714457033202052" lon="-7.783255996182561">
        <ele>98.670000000000002</ele>
        <time>2025-04-30T10:33:59Z</time>
      </trkpt>
      <trkpt lat="43.714492991566658" lon="-7.78359898366034">
        <ele>97.709999999999994</ele>
        <time>2025-04-30T10:34:00Z</time>
      </trkpt>
      <trkpt lat="43.714446974918246" lon="-7.78383300639689">
        <ele>96.269999999999996</ele>
        <time>2025-04-30T10:34:01Z</time>
      </trkpt>
      <trkpt lat="43.714395007118583" lon="-7.784102987498045">
        <ele>94.829999999999998</ele>
        <time>2025-04-30T10:34:02Z</time>
      </trkpt>
      <trkpt lat="43.71430397965014" lon="-7.784368023276329">
        <ele>93.870000000000005</ele>
        <time>2025-04-30T10:34:03Z</time>
      </trkpt>
      <trkpt lat="43.714182022958994" lon="-7.784580001607537">
        <ele>91.939999999999998</ele>
        <time>2025-04-30T10:34:04Z</time>
      </trkpt>
      <trkpt lat="43.714055037125945" lon="-7.78480002656579">
        <ele>90.5</ele>
        <time>2025-04-30T10:34:05Z</time>
      </trkpt>
      <trkpt lat="43.713940037414432" lon="-7.785024996846914">
        <ele>89.540000000000006</ele>
        <time>2025-04-30T10:34:06Z</time>
      </trkpt>
      <trkpt lat="43.713862001895905" lon="-7.78527301736176">
        <ele>88.099999999999994</ele>
        <time>2025-04-30T10:34:07Z</time>
      </trkpt>
      <trkpt lat="43.713796036317945" lon="-7.785537969321013">
        <ele>86.659999999999997</ele>
        <time>2025-04-30T10:34:08Z</time>
      </trkpt>
      <trkpt lat="43.713641976937652" lon="-7.786896005272865">
        <ele>79.450000000000003</ele>
        <time>2025-04-30T10:34:13Z</time>
      </trkpt>
      <trkpt lat="43.713652035221457" lon="-7.787155006080866">
        <ele>78</ele>
        <time>2025-04-30T10:34:14Z</time>
      </trkpt>
      <trkpt lat="43.713696040213108" lon="-7.787411995232105">
        <ele>76.560000000000002</ele>
        <time>2025-04-30T10:34:15Z</time>
      </trkpt>
      <trkpt lat="43.713763011619449" lon="-7.787653980776668">
        <ele>74.640000000000001</ele>
        <time>2025-04-30T10:34:16Z</time>
      </trkpt>
      <trkpt lat="43.713891003280878" lon="-7.787866964936256">
        <ele>72.719999999999999</ele>
        <time>2025-04-30T10:34:17Z</time>
      </trkpt>
      <trkpt lat="43.714016983285546" lon="-7.788077015429735">
        <ele>71.269999999999996</ele>
        <time>2025-04-30T10:34:18Z</time>
      </trkpt>
      <trkpt lat="43.714177999645472" lon="-7.78823995962739">
        <ele>69.829999999999998</ele>
        <time>2025-04-30T10:34:19Z</time>
      </trkpt>
      <trkpt lat="43.714343039318919" lon="-7.788406005129218">
        <ele>67.909999999999997</ele>
        <time>2025-04-30T10:34:20Z</time>
      </trkpt>
      <trkpt lat="43.714507995173335" lon="-7.788570960983634">
        <ele>66.469999999999999</ele>
        <time>2025-04-30T10:34:21Z</time>
      </trkpt>
      <trkpt lat="43.714837990701199" lon="-7.788901040330529">
        <ele>63.100000000000001</ele>
        <time>2025-04-30T10:34:23Z</time>
      </trkpt>
      <trkpt lat="43.714971011504531" lon="-7.789104972034693">
        <ele>61.659999999999997</ele>
        <time>2025-04-30T10:34:24Z</time>
      </trkpt>
      <trkpt lat="43.715071007609367" lon="-7.789342012256384">
        <ele>60.219999999999999</ele>
        <time>2025-04-30T10:34:25Z</time>
      </trkpt>
      <trkpt lat="43.715137979015708" lon="-7.789599001407623">
        <ele>58.780000000000001</ele>
        <time>2025-04-30T10:34:26Z</time>
      </trkpt>
      <trkpt lat="43.715200005099177" lon="-7.789858002215624">
        <ele>57.82</ele>
        <time>2025-04-30T10:34:27Z</time>
      </trkpt>
      <trkpt lat="43.7151850014925" lon="-7.790124965831637">
        <ele>56.859999999999999</ele>
        <time>2025-04-30T10:34:28Z</time>
      </trkpt>
      <trkpt lat="43.715132027864456" lon="-7.790362006053329">
        <ele>55.890000000000001</ele>
        <time>2025-04-30T10:34:29Z</time>
      </trkpt>
      <trkpt lat="43.715047035366297" lon="-7.790597034618259">
        <ele>54.93</ele>
        <time>2025-04-30T10:34:30Z</time>
      </trkpt>
      <trkpt lat="43.714960031211376" lon="-7.790804989635944">
        <ele>53.969999999999999</ele>
        <time>2025-04-30T10:34:31Z</time>
      </trkpt>
      <trkpt lat="43.714829022064805" lon="-7.791001964360476">
        <ele>53.490000000000002</ele>
        <time>2025-04-30T10:34:32Z</time>
      </trkpt>
      <trkpt lat="43.71469197794795" lon="-7.791206985712051">
        <ele>53.009999999999998</ele>
        <time>2025-04-30T10:34:33Z</time>
      </trkpt>
      <trkpt lat="43.714545965194702" lon="-7.791399015113711">
        <ele>52.049999999999997</ele>
        <time>2025-04-30T10:34:34Z</time>
      </trkpt>
      <trkpt lat="43.713017022237182" lon="-7.792974980548024">
        <ele>43.399999999999999</ele>
        <time>2025-04-30T10:34:43Z</time>
      </trkpt>
      <trkpt lat="43.712561968713999" lon="-7.793490970507264">
        <ele>39.549999999999997</ele>
        <time>2025-04-30T10:34:46Z</time>
      </trkpt>
      <trkpt lat="43.712363988161087" lon="-7.793589038774371">
        <ele>39.07</ele>
        <time>2025-04-30T10:34:47Z</time>
      </trkpt>
      <trkpt lat="43.712177993729711" lon="-7.793682999908924">
        <ele>38.109999999999999</ele>
        <time>2025-04-30T10:34:48Z</time>
      </trkpt>
      <trkpt lat="43.711590003222227" lon="-7.793959015980363">
        <ele>34.740000000000002</ele>
        <time>2025-04-30T10:34:51Z</time>
      </trkpt>
      <trkpt lat="43.711406020447612" lon="-7.794089019298554">
        <ele>33.299999999999997</ele>
        <time>2025-04-30T10:34:52Z</time>
      </trkpt>
      <trkpt lat="43.71127400547266" lon="-7.794221034273505">
        <ele>31.859999999999999</ele>
        <time>2025-04-30T10:34:53Z</time>
      </trkpt>
      <trkpt lat="43.711136961355805" lon="-7.794465031474829">
        <ele>30.420000000000002</ele>
        <time>2025-04-30T10:34:54Z</time>
      </trkpt>
      <trkpt lat="43.711055992171168" lon="-7.794693019241095">
        <ele>28.98</ele>
        <time>2025-04-30T10:34:55Z</time>
      </trkpt>
      <trkpt lat="43.710981979966164" lon="-7.79519802890718">
        <ele>26.57</ele>
        <time>2025-04-30T10:34:57Z</time>
      </trkpt>
      <trkpt lat="43.711008969694376" lon="-7.795447977259755">
        <ele>25.609999999999999</ele>
        <time>2025-04-30T10:34:58Z</time>
      </trkpt>
      <trkpt lat="43.71103797107935" lon="-7.795722987502813">
        <ele>24.649999999999999</ele>
        <time>2025-04-30T10:34:59Z</time>
      </trkpt>
      <trkpt lat="43.711103014647961" lon="-7.795959021896124">
        <ele>23.690000000000001</ele>
        <time>2025-04-30T10:35:00Z</time>
      </trkpt>
      <trkpt lat="43.711214996874332" lon="-7.796121966093779">
        <ele>22.73</ele>
        <time>2025-04-30T10:35:01Z</time>
      </trkpt>
      <trkpt lat="43.711341982707381" lon="-7.796306032687426">
        <ele>21.289999999999999</ele>
        <time>2025-04-30T10:35:02Z</time>
      </trkpt>
      <trkpt lat="43.711591009050608" lon="-7.796693025156856">
        <ele>18.879999999999999</ele>
        <time>2025-04-30T10:35:04Z</time>
      </trkpt>
      <trkpt lat="43.711662003770471" lon="-7.796927969902754">
        <ele>17.920000000000002</ele>
        <time>2025-04-30T10:35:05Z</time>
      </trkpt>
      <trkpt lat="43.711671978235245" lon="-7.797166015952826">
        <ele>16.960000000000001</ele>
        <time>2025-04-30T10:35:06Z</time>
      </trkpt>
      <trkpt lat="43.711669966578484" lon="-7.797414036467671">
        <ele>16</ele>
        <time>2025-04-30T10:35:07Z</time>
      </trkpt>
      <trkpt lat="43.71161799877882" lon="-7.797588966786861">
        <ele>15.039999999999999</ele>
        <time>2025-04-30T10:35:08Z</time>
      </trkpt>
      <trkpt lat="43.711508028209209" lon="-7.797808991745114">
        <ele>14.08</ele>
        <time>2025-04-30T10:35:09Z</time>
      </trkpt>
      <trkpt lat="43.71140300296247" lon="-7.797975959256291">
        <ele>13.119999999999999</ele>
        <time>2025-04-30T10:35:10Z</time>
      </trkpt>
      <trkpt lat="43.711277022957802" lon="-7.798101017251611">
        <ele>12.15</ele>
        <time>2025-04-30T10:35:11Z</time>
      </trkpt>
      <trkpt lat="43.711156994104385" lon="-7.798216016963124">
        <ele>11.67</ele>
        <time>2025-04-30T10:35:12Z</time>
      </trkpt>
      <trkpt lat="43.710941998288035" lon="-7.798427995294333">
        <ele>10.710000000000001</ele>
        <time>2025-04-30T10:35:14Z</time>
      </trkpt>
      <trkpt lat="43.710864968597889" lon="-7.798545006662607">
        <ele>10.23</ele>
        <time>2025-04-30T10:35:15Z</time>
      </trkpt>
      <trkpt lat="43.710807971656322" lon="-7.79868196696043">
        <ele>9.75</ele>
        <time>2025-04-30T10:35:16Z</time>
      </trkpt>
      <trkpt lat="43.710764972493052" lon="-7.798819011077285">
        <ele>9.27</ele>
        <time>2025-04-30T10:35:17Z</time>
      </trkpt>
      <trkpt lat="43.710733037441969" lon="-7.798962006345391">
        <ele>9.27</ele>
        <time>2025-04-30T10:35:18Z</time>
      </trkpt>
      <trkpt lat="43.71069498360157" lon="-7.799134002998471">
        <ele>9.27</ele>
        <time>2025-04-30T10:35:19Z</time>
      </trkpt>
      <trkpt lat="43.71069498360157" lon="-7.799263000488281">
        <ele>9.27</ele>
        <time>2025-04-30T10:35:20Z</time>
      </trkpt>
      <trkpt lat="43.71069498360157" lon="-7.799422005191445">
        <ele>9.75</ele>
        <time>2025-04-30T10:35:21Z</time>
      </trkpt>
      <trkpt lat="43.71073697693646" lon="-7.800239995121956">
        <ele>10.710000000000001</ele>
        <time>2025-04-30T10:35:26Z</time>
      </trkpt>
      <trkpt lat="43.710850970819592" lon="-7.801036024466157">
        <ele>11.19</ele>
        <time>2025-04-30T10:35:31Z</time>
      </trkpt>
      <trkpt lat="43.710859017446637" lon="-7.801358979195356">
        <ele>12.15</ele>
        <time>2025-04-30T10:35:33Z</time>
      </trkpt>
      <trkpt lat="43.710849964991212" lon="-7.801522007212043">
        <ele>12.630000000000001</ele>
        <time>2025-04-30T10:35:34Z</time>
      </trkpt>
      <trkpt lat="43.710832027718425" lon="-7.801686963066459">
        <ele>13.119999999999999</ele>
        <time>2025-04-30T10:35:35Z</time>
      </trkpt>
      <trkpt lat="43.710797997191548" lon="-7.801846973598003">
        <ele>13.6</ele>
        <time>2025-04-30T10:35:36Z</time>
      </trkpt>
      <trkpt lat="43.710763966664672" lon="-7.802007989957929">
        <ele>14.08</ele>
        <time>2025-04-30T10:35:37Z</time>
      </trkpt>
      <trkpt lat="43.710700012743473" lon="-7.80215903185308">
        <ele>15.039999999999999</ele>
        <time>2025-04-30T10:35:38Z</time>
      </trkpt>
      <trkpt lat="43.71047998778522" lon="-7.802534960210323">
        <ele>17.440000000000001</ele>
        <time>2025-04-30T10:35:41Z</time>
      </trkpt>
      <trkpt lat="43.710402036085725" lon="-7.802651971578598">
        <ele>17.920000000000002</ele>
        <time>2025-04-30T10:35:42Z</time>
      </trkpt>
      <trkpt lat="43.710322994738817" lon="-7.802768982946873">
        <ele>18.879999999999999</ele>
        <time>2025-04-30T10:35:43Z</time>
      </trkpt>
      <trkpt lat="43.709882022812963" lon="-7.803316991776228">
        <ele>21.77</ele>
        <time>2025-04-30T10:35:48Z</time>
      </trkpt>
      <trkpt lat="43.709809016436338" lon="-7.803418999537826">
        <ele>22.73</ele>
        <time>2025-04-30T10:35:49Z</time>
      </trkpt>
      <trkpt lat="43.709084987640381" lon="-7.804798996075988">
        <ele>28.98</ele>
        <time>2025-04-30T10:36:01Z</time>
      </trkpt>
      <trkpt lat="43.708873009309173" lon="-7.805195041000843">
        <ele>29.940000000000001</ele>
        <time>2025-04-30T10:36:04Z</time>
      </trkpt>
      <trkpt lat="43.708777958527207" lon="-7.805316997691989">
        <ele>29.940000000000001</ele>
        <time>2025-04-30T10:36:05Z</time>
      </trkpt>
      <trkpt lat="43.708686009049416" lon="-7.805435014888644">
        <ele>29.940000000000001</ele>
        <time>2025-04-30T10:36:06Z</time>
      </trkpt>
      <trkpt lat="43.70785997249186" lon="-7.806300027295947">
        <ele>32.82</ele>
        <time>2025-04-30T10:36:14Z</time>
      </trkpt>
      <trkpt lat="43.707451019436121" lon="-7.806826997548342">
        <ele>36.189999999999998</ele>
        <time>2025-04-30T10:36:18Z</time>
      </trkpt>
      <trkpt lat="43.707380024716258" lon="-7.806993965059519">
        <ele>37.149999999999999</ele>
        <time>2025-04-30T10:36:19Z</time>
      </trkpt>
      <trkpt lat="43.707311041653156" lon="-7.807170990854502">
        <ele>38.109999999999999</ele>
        <time>2025-04-30T10:36:20Z</time>
      </trkpt>
      <trkpt lat="43.707241974771023" lon="-7.807349022477865">
        <ele>39.07</ele>
        <time>2025-04-30T10:36:21Z</time>
      </trkpt>
      <trkpt lat="43.707157988101244" lon="-7.807510038837791">
        <ele>40.030000000000001</ele>
        <time>2025-04-30T10:36:22Z</time>
      </trkpt>
      <trkpt lat="43.707072995603085" lon="-7.807672983035445">
        <ele>41.469999999999999</ele>
        <time>2025-04-30T10:36:23Z</time>
      </trkpt>
      <trkpt lat="43.706982973963022" lon="-7.807845985516906">
        <ele>42.439999999999998</ele>
        <time>2025-04-30T10:36:24Z</time>
      </trkpt>
      <trkpt lat="43.706865040585399" lon="-7.807921003550291">
        <ele>43.880000000000003</ele>
        <time>2025-04-30T10:36:25Z</time>
      </trkpt>
      <trkpt lat="43.706747023388743" lon="-7.807996021583676">
        <ele>44.840000000000003</ele>
        <time>2025-04-30T10:36:26Z</time>
      </trkpt>
      <trkpt lat="43.706616014242172" lon="-7.807996021583676">
        <ele>45.799999999999997</ele>
        <time>2025-04-30T10:36:27Z</time>
      </trkpt>
      <trkpt lat="43.706505037844181" lon="-7.807979006320238">
        <ele>46.759999999999998</ele>
        <time>2025-04-30T10:36:28Z</time>
      </trkpt>
      <trkpt lat="43.706401018425822" lon="-7.807909017428756">
        <ele>47.719999999999999</ele>
        <time>2025-04-30T10:36:29Z</time>
      </trkpt>
      <trkpt lat="43.706298004835844" lon="-7.807840034365654">
        <ele>48.68</ele>
        <time>2025-04-30T10:36:30Z</time>
      </trkpt>
      <trkpt lat="43.706200020387769" lon="-7.807765016332269">
        <ele>49.649999999999999</ele>
        <time>2025-04-30T10:36:31Z</time>
      </trkpt>
      <trkpt lat="43.706114022061229" lon="-7.807674994692206">
        <ele>50.609999999999999</ele>
        <time>2025-04-30T10:36:32Z</time>
      </trkpt>
      <trkpt lat="43.705902965739369" lon="-7.807567035779357">
        <ele>52.049999999999997</ele>
        <time>2025-04-30T10:36:34Z</time>
      </trkpt>
      <trkpt lat="43.705807998776436" lon="-7.807539962232113">
        <ele>53.009999999999998</ele>
        <time>2025-04-30T10:36:35Z</time>
      </trkpt>
      <trkpt lat="43.705713031813502" lon="-7.807513978332281">
        <ele>53.969999999999999</ele>
        <time>2025-04-30T10:36:36Z</time>
      </trkpt>
      <trkpt lat="43.705628961324692" lon="-7.807515989989042">
        <ele>54.93</ele>
        <time>2025-04-30T10:36:37Z</time>
      </trkpt>
      <trkpt lat="43.705500969663262" lon="-7.807518001645804">
        <ele>55.890000000000001</ele>
        <time>2025-04-30T10:36:38Z</time>
      </trkpt>
      <trkpt lat="43.705441961064935" lon="-7.807443989440799">
        <ele>56.859999999999999</ele>
        <time>2025-04-30T10:36:39Z</time>
      </trkpt>
      <trkpt lat="43.705438021570444" lon="-7.80729403719306">
        <ele>57.82</ele>
        <time>2025-04-30T10:36:40Z</time>
      </trkpt>
      <trkpt lat="43.705438021570444" lon="-7.807223964482546">
        <ele>58.299999999999997</ele>
        <time>2025-04-30T10:36:41Z</time>
      </trkpt>
      <trkpt lat="43.705420000478625" lon="-7.806978961452842">
        <ele>58.780000000000001</ele>
        <time>2025-04-30T10:36:42Z</time>
      </trkpt>
      <trkpt lat="43.705364009365439" lon="-7.806830015033484">
        <ele>59.259999999999998</ele>
        <time>2025-04-30T10:36:43Z</time>
      </trkpt>
      <trkpt lat="43.705312041565776" lon="-7.806674027815461">
        <ele>59.740000000000002</ele>
        <time>2025-04-30T10:36:44Z</time>
      </trkpt>
      <trkpt lat="43.705262001603842" lon="-7.806524997577071">
        <ele>60.219999999999999</ele>
        <time>2025-04-30T10:36:45Z</time>
      </trkpt>
      <trkpt lat="43.705223025754094" lon="-7.806407986208797">
        <ele>60.219999999999999</ele>
        <time>2025-04-30T10:36:46Z</time>
      </trkpt>
      <trkpt lat="43.705126969143748" lon="-7.80628502368927">
        <ele>60.700000000000003</ele>
        <time>2025-04-30T10:36:47Z</time>
      </trkpt>
      <trkpt lat="43.705044994130731" lon="-7.80617899261415">
        <ele>61.18</ele>
        <time>2025-04-30T10:36:48Z</time>
      </trkpt>
      <trkpt lat="43.704966958612204" lon="-7.806078996509314">
        <ele>61.659999999999997</ele>
        <time>2025-04-30T10:36:49Z</time>
      </trkpt>
      <trkpt lat="43.704861011356115" lon="-7.806034991517663">
        <ele>61.659999999999997</ele>
        <time>2025-04-30T10:36:50Z</time>
      </trkpt>
      <trkpt lat="43.704753974452615" lon="-7.806072039529681">
        <ele>62.619999999999997</ele>
        <time>2025-04-30T10:36:51Z</time>
      </trkpt>
      <trkpt lat="43.70463696308434" lon="-7.806126018986106">
        <ele>63.100000000000001</ele>
        <time>2025-04-30T10:36:52Z</time>
      </trkpt>
      <trkpt lat="43.70347497984767" lon="-7.806556010618806">
        <ele>67.909999999999997</ele>
        <time>2025-04-30T10:37:00Z</time>
      </trkpt>
      <trkpt lat="43.702106969431043" lon="-7.806489961221814">
        <ele>75.120000000000005</ele>
        <time>2025-04-30T10:37:08Z</time>
      </trkpt>
      <trkpt lat="43.700499990954995" lon="-7.806084025651217">
        <ele>73.200000000000003</ele>
        <time>2025-04-30T10:37:16Z</time>
      </trkpt>
      <trkpt lat="43.698793016374111" lon="-7.80506000854075">
        <ele>65.989999999999995</ele>
        <time>2025-04-30T10:37:24Z</time>
      </trkpt>
      <trkpt lat="43.697210010141134" lon="-7.804654994979501">
        <ele>55.409999999999997</ele>
        <time>2025-04-30T10:37:31Z</time>
      </trkpt>
      <trkpt lat="43.695652987807989" lon="-7.804927993565798">
        <ele>45.799999999999997</ele>
        <time>2025-04-30T10:37:38Z</time>
      </trkpt>
      <trkpt lat="43.694204008206725" lon="-7.805829970166087">
        <ele>36.670000000000002</ele>
        <time>2025-04-30T10:37:46Z</time>
      </trkpt>
      <trkpt lat="43.693105978891253" lon="-7.807136038318276">
        <ele>33.780000000000001</ele>
        <time>2025-04-30T10:37:53Z</time>
      </trkpt>
      <trkpt lat="43.692296035587788" lon="-7.808991959318519">
        <ele>32.340000000000003</ele>
        <time>2025-04-30T10:38:00Z</time>
      </trkpt>
      <trkpt lat="43.691861014813185" lon="-7.811145018786192">
        <ele>34.259999999999998</ele>
        <time>2025-04-30T10:38:07Z</time>
      </trkpt>
      <trkpt lat="43.691919017583132" lon="-7.813351973891258">
        <ele>40.509999999999998</ele>
        <time>2025-04-30T10:38:14Z</time>
      </trkpt>
      <trkpt lat="43.691964028403163" lon="-7.813949016854167">
        <ele>42.439999999999998</ele>
        <time>2025-04-30T10:38:16Z</time>
      </trkpt>
      <trkpt lat="43.691812986508012" lon="-7.816326040774584">
        <ele>50.130000000000003</ele>
        <time>2025-04-30T10:38:24Z</time>
      </trkpt>
      <trkpt lat="43.691112007945776" lon="-7.818227978423238">
        <ele>53.490000000000002</ele>
        <time>2025-04-30T10:38:31Z</time>
      </trkpt>
      <trkpt lat="43.689883975312114" lon="-7.819786006584764">
        <ele>55.409999999999997</ele>
        <time>2025-04-30T10:38:38Z</time>
      </trkpt>
      <trkpt lat="43.688595006242394" lon="-7.820524033159018">
        <ele>56.859999999999999</ele>
        <time>2025-04-30T10:38:44Z</time>
      </trkpt>
      <trkpt lat="43.68705902248621" lon="-7.820753026753664">
        <ele>58.299999999999997</ele>
        <time>2025-04-30T10:38:51Z</time>
      </trkpt>
      <trkpt lat="43.684708988294005" lon="-7.820764007046819">
        <ele>59.259999999999998</ele>
        <time>2025-04-30T10:39:01Z</time>
      </trkpt>
      <trkpt lat="43.682025019079447" lon="-7.820927035063505">
        <ele>64.069999999999993</ele>
        <time>2025-04-30T10:39:13Z</time>
      </trkpt>
      <trkpt lat="43.680647034198046" lon="-7.821704037487507">
        <ele>71.269999999999996</ele>
        <time>2025-04-30T10:39:20Z</time>
      </trkpt>
      <trkpt lat="43.679529977962375" lon="-7.822996024042368">
        <ele>80.409999999999997</ele>
        <time>2025-04-30T10:39:27Z</time>
      </trkpt>
      <trkpt lat="43.678178982809186" lon="-7.825459968298674">
        <ele>92.900000000000006</ele>
        <time>2025-04-30T10:39:37Z</time>
      </trkpt>
      <trkpt lat="43.676577033475041" lon="-7.828446021303535">
        <ele>108.29000000000001</ele>
        <time>2025-04-30T10:39:49Z</time>
      </trkpt>
      <trkpt lat="43.674984974786639" lon="-7.83073796890676">
        <ele>120.78</ele>
        <time>2025-04-30T10:39:59Z</time>
      </trkpt>
      <trkpt lat="43.673398029059172" lon="-7.831835998222232">
        <ele>124.63</ele>
        <time>2025-04-30T10:40:06Z</time>
      </trkpt>
      <trkpt lat="43.671917030587792" lon="-7.832156019285321">
        <ele>125.59</ele>
        <time>2025-04-30T10:40:12Z</time>
      </trkpt>
      <trkpt lat="43.669637991115451" lon="-7.832087958231568">
        <ele>122.70999999999999</ele>
        <time>2025-04-30T10:40:22Z</time>
      </trkpt>
      <trkpt lat="43.667000960558653" lon="-7.8319619782269">
        <ele>119.81999999999999</ele>
        <time>2025-04-30T10:40:34Z</time>
      </trkpt>
      <trkpt lat="43.664000993594527" lon="-7.831878997385502">
        <ele>116.45999999999999</ele>
        <time>2025-04-30T10:40:47Z</time>
      </trkpt>
      <trkpt lat="43.661770988255739" lon="-7.832433041185141">
        <ele>112.61</ele>
        <time>2025-04-30T10:40:57Z</time>
      </trkpt>
      <trkpt lat="43.660295018926263" lon="-7.83327198587358">
        <ele>109.25</ele>
        <time>2025-04-30T10:41:04Z</time>
      </trkpt>
      <trkpt lat="43.658811002969742" lon="-7.83473496325314">
        <ele>102.52</ele>
        <time>2025-04-30T10:41:12Z</time>
      </trkpt>
      <trkpt lat="43.657848006114364" lon="-7.836456019431353">
        <ele>91.459999999999994</ele>
        <time>2025-04-30T10:41:19Z</time>
      </trkpt>
      <trkpt lat="43.65708701312542" lon="-7.83902800641954">
        <ele>76.560000000000002</ele>
        <time>2025-04-30T10:41:28Z</time>
      </trkpt>
      <trkpt lat="43.656479995697737" lon="-7.841846002265811">
        <ele>60.700000000000003</ele>
        <time>2025-04-30T10:41:38Z</time>
      </trkpt>
      <trkpt lat="43.65605503320694" lon="-7.844040971249342">
        <ele>47.719999999999999</ele>
        <time>2025-04-30T10:41:46Z</time>
      </trkpt>
      <trkpt lat="43.65577700547874" lon="-7.845472013577819">
        <ele>35.229999999999997</ele>
        <time>2025-04-30T10:41:52Z</time>
      </trkpt>
      <trkpt lat="43.655700981616974" lon="-7.845793040469289">
        <ele>31.859999999999999</ele>
        <time>2025-04-30T10:41:54Z</time>
      </trkpt>
      <trkpt lat="43.655621018260717" lon="-7.846074001863599">
        <ele>28.02</ele>
        <time>2025-04-30T10:41:57Z</time>
      </trkpt>
      <trkpt lat="43.655592016875744" lon="-7.846169974654913">
        <ele>26.57</ele>
        <time>2025-04-30T10:41:58Z</time>
      </trkpt>
      <trkpt lat="43.655602997168899" lon="-7.846250021830201">
        <ele>25.129999999999999</ele>
        <time>2025-04-30T10:41:59Z</time>
      </trkpt>
      <trkpt lat="43.655683966353536" lon="-7.846469962969422">
        <ele>23.690000000000001</ele>
        <time>2025-04-30T10:42:00Z</time>
      </trkpt>
      <trkpt lat="43.655771976336837" lon="-7.846469962969422">
        <ele>22.25</ele>
        <time>2025-04-30T10:42:01Z</time>
      </trkpt>
      <trkpt lat="43.655877001583576" lon="-7.846475997939706">
        <ele>20.809999999999999</ele>
        <time>2025-04-30T10:42:02Z</time>
      </trkpt>
      <trkpt lat="43.65599200129509" lon="-7.846491001546383">
        <ele>19.84</ele>
        <time>2025-04-30T10:42:03Z</time>
      </trkpt>
      <trkpt lat="43.656810997053981" lon="-7.846414977684617">
        <ele>15.52</ele>
        <time>2025-04-30T10:42:09Z</time>
      </trkpt>
      <trkpt lat="43.65695801563561" lon="-7.846351023763418">
        <ele>15.039999999999999</ele>
        <time>2025-04-30T10:42:10Z</time>
      </trkpt>
      <trkpt lat="43.657957976683974" lon="-7.845838973298669">
        <ele>12.630000000000001</ele>
        <time>2025-04-30T10:42:18Z</time>
      </trkpt>
      <trkpt lat="43.658416969701648" lon="-7.845593970268965">
        <ele>13.119999999999999</ele>
        <time>2025-04-30T10:42:24Z</time>
      </trkpt>
      <trkpt lat="43.658515037968755" lon="-7.845508977770805">
        <ele>13.119999999999999</ele>
        <time>2025-04-30T10:42:25Z</time>
      </trkpt>
      <trkpt lat="43.658526018261909" lon="-7.84543395973742">
        <ele>13.6</ele>
        <time>2025-04-30T10:42:26Z</time>
      </trkpt>
      <trkpt lat="43.658530963584781" lon="-7.845396995544434">
        <ele>13.6</ele>
        <time>2025-04-30T10:42:27Z</time>
      </trkpt>
      <trkpt lat="43.658530963584781" lon="-7.845396995544434">
        <ele>13.6</ele>
        <time>2025-04-30T10:42:28Z</time>
      </trkpt>
      <trkpt lat="43.658540016040206" lon="-7.845208989456296">
        <ele>13.6</ele>
        <time>2025-04-30T10:42:29Z</time>
      </trkpt>
      <trkpt lat="43.658525012433529" lon="-7.84515199251473">
        <ele>13.119999999999999</ele>
        <time>2025-04-30T10:42:30Z</time>
      </trkpt>
      <trkpt lat="43.658510008826852" lon="-7.845097007229924">
        <ele>13.6</ele>
        <time>2025-04-30T10:42:31Z</time>
      </trkpt>
      <trkpt lat="43.658497016876936" lon="-7.845057025551796">
        <ele>13.6</ele>
        <time>2025-04-30T10:42:32Z</time>
      </trkpt>
      <trkpt lat="43.658488970249891" lon="-7.845029029995203">
        <ele>13.6</ele>
        <time>2025-04-30T10:42:33Z</time>
      </trkpt>
      <trkpt lat="43.658308004960418" lon="-7.844861978664994">
        <ele>13.6</ele>
        <time>2025-04-30T10:42:34Z</time>
      </trkpt>
      <trkpt lat="43.658252013847232" lon="-7.844925010576844">
        <ele>13.6</ele>
        <time>2025-04-30T10:42:35Z</time>
      </trkpt>
      <trkpt lat="43.658258970826864" lon="-7.8449169639498">
        <ele>13.6</ele>
        <time>2025-04-30T10:42:36Z</time>
      </trkpt>
      <trkpt lat="43.658252013847232" lon="-7.844925010576844">
        <ele>13.6</ele>
        <time>2025-04-30T10:42:37Z</time>
      </trkpt>
      <trkpt lat="43.658252013847232" lon="-7.844925010576844">
        <ele>9.75</ele>
        <time>2025-04-30T10:42:46Z</time>
      </trkpt>
      <trkpt lat="43.657765025272965" lon="-7.843621037900448">
        <ele>23.210000000000001</ele>
        <time>2025-04-30T10:46:38Z</time>
      </trkpt>
      <trkpt lat="43.657941967248917" lon="-7.845168001949787">
        <ele>-8.029999999999999</ele>
        <time>2025-04-30T10:46:58Z</time>
      </trkpt>
      <trkpt lat="43.658107006922364" lon="-7.845436977222562">
        <ele>-0.82</ele>
        <time>2025-04-30T10:47:40Z</time>
      </trkpt>
      <trkpt lat="43.65814003162086" lon="-7.845471007749438">
        <ele>2.54</ele>
        <time>2025-04-30T10:48:04Z</time>
      </trkpt>
      <trkpt lat="43.658308004960418" lon="-7.845290964469314">
        <ele>7.35</ele>
        <time>2025-04-30T10:48:12Z</time>
      </trkpt>
      <trkpt lat="43.658254025503993" lon="-7.844922998920083">
        <ele>9.27</ele>
        <time>2025-04-30T10:48:16Z</time>
      </trkpt>
      <trkpt lat="43.658277997747064" lon="-7.844896009191871">
        <ele>10.23</ele>
        <time>2025-04-30T10:48:17Z</time>
      </trkpt>
      <trkpt lat="43.658252013847232" lon="-7.844925010576844">
        <ele>10.710000000000001</ele>
        <time>2025-04-30T10:48:18Z</time>
      </trkpt>
      <trkpt lat="43.658498022705317" lon="-7.845059959217906">
        <ele>11.19</ele>
        <time>2025-04-30T10:48:19Z</time>
      </trkpt>
      <trkpt lat="43.658510008826852" lon="-7.845097007229924">
        <ele>11.67</ele>
        <time>2025-04-30T10:48:20Z</time>
      </trkpt>
      <trkpt lat="43.658533981069922" lon="-7.845184011384845">
        <ele>11.67</ele>
        <time>2025-04-30T10:48:21Z</time>
      </trkpt>
      <trkpt lat="43.658552002161741" lon="-7.845249976962805">
        <ele>12.15</ele>
        <time>2025-04-30T10:48:22Z</time>
      </trkpt>
      <trkpt lat="43.658680999651551" lon="-7.845333041623235">
        <ele>13.119999999999999</ele>
        <time>2025-04-30T10:48:23Z</time>
      </trkpt>
      <trkpt lat="43.658687034621835" lon="-7.845342010259628">
        <ele>13.119999999999999</ele>
        <time>2025-04-30T10:48:24Z</time>
      </trkpt>
      <trkpt lat="43.658733973279595" lon="-7.84547695890069">
        <ele>13.6</ele>
        <time>2025-04-30T10:48:25Z</time>
      </trkpt>
      <trkpt lat="43.658708995208144" lon="-7.845551976934075">
        <ele>14.08</ele>
        <time>2025-04-30T10:48:26Z</time>
      </trkpt>
      <trkpt lat="43.658684017136693" lon="-7.845623977482319">
        <ele>14.56</ele>
        <time>2025-04-30T10:48:27Z</time>
      </trkpt>
      <trkpt lat="43.658595001325011" lon="-7.845633029937744">
        <ele>15.039999999999999</ele>
        <time>2025-04-30T10:48:28Z</time>
      </trkpt>
      <trkpt lat="43.658573962748051" lon="-7.845633029937744">
        <ele>16</ele>
        <time>2025-04-30T10:48:29Z</time>
      </trkpt>
      <trkpt lat="43.658415963873267" lon="-7.845593970268965">
        <ele>16</ele>
        <time>2025-04-30T10:48:30Z</time>
      </trkpt>
      <trkpt lat="43.658331977203488" lon="-7.845636969432235">
        <ele>16.960000000000001</ele>
        <time>2025-04-30T10:48:31Z</time>
      </trkpt>
      <trkpt lat="43.658240027725697" lon="-7.845686003565788">
        <ele>16.960000000000001</ele>
        <time>2025-04-30T10:48:32Z</time>
      </trkpt>
      <trkpt lat="43.658146988600492" lon="-7.845736965537071">
        <ele>17.440000000000001</ele>
        <time>2025-04-30T10:48:33Z</time>
      </trkpt>
      <trkpt lat="43.657135963439941" lon="-7.846263013780117">
        <ele>20.809999999999999</ele>
        <time>2025-04-30T10:48:43Z</time>
      </trkpt>
      <trkpt lat="43.656540010124445" lon="-7.846477003768086">
        <ele>21.77</ele>
        <time>2025-04-30T10:48:48Z</time>
      </trkpt>
      <trkpt lat="43.65640003234148" lon="-7.84648303873837">
        <ele>21.77</ele>
        <time>2025-04-30T10:48:49Z</time>
      </trkpt>
      <trkpt lat="43.655736017972231" lon="-7.846469962969422">
        <ele>23.210000000000001</ele>
        <time>2025-04-30T10:48:54Z</time>
      </trkpt>
      <trkpt lat="43.655592016875744" lon="-7.846619999036193">
        <ele>23.210000000000001</ele>
        <time>2025-04-30T10:48:55Z</time>
      </trkpt>
      <trkpt lat="43.655358999967575" lon="-7.846830971539021">
        <ele>22.73</ele>
        <time>2025-04-30T10:48:58Z</time>
      </trkpt>
      <trkpt lat="43.655276019126177" lon="-7.84684999845922">
        <ele>23.210000000000001</ele>
        <time>2025-04-30T10:48:59Z</time>
      </trkpt>
      <trkpt lat="43.655206030234694" lon="-7.846819991245866">
        <ele>23.210000000000001</ele>
        <time>2025-04-30T10:49:00Z</time>
      </trkpt>
      <trkpt lat="43.655136041343212" lon="-7.84678403288126">
        <ele>23.690000000000001</ele>
        <time>2025-04-30T10:49:01Z</time>
      </trkpt>
      <trkpt lat="43.6550900246948" lon="-7.846703985705972">
        <ele>24.170000000000002</ele>
        <time>2025-04-30T10:49:02Z</time>
      </trkpt>
      <trkpt lat="43.655035961419344" lon="-7.84661203622818">
        <ele>24.170000000000002</ele>
        <time>2025-04-30T10:49:03Z</time>
      </trkpt>
      <trkpt lat="43.654991034418344" lon="-7.846534000709653">
        <ele>24.649999999999999</ele>
        <time>2025-04-30T10:49:04Z</time>
      </trkpt>
      <trkpt lat="43.65487796254456" lon="-7.846450014039874">
        <ele>25.129999999999999</ele>
        <time>2025-04-30T10:49:05Z</time>
      </trkpt>
      <trkpt lat="43.65478802472353" lon="-7.846382958814502">
        <ele>25.129999999999999</ele>
        <time>2025-04-30T10:49:06Z</time>
      </trkpt>
      <trkpt lat="43.654733039438725" lon="-7.846340965479612">
        <ele>25.609999999999999</ele>
        <time>2025-04-30T10:49:07Z</time>
      </trkpt>
      <trkpt lat="43.654609993100166" lon="-7.84633400849998">
        <ele>26.09</ele>
        <time>2025-04-30T10:49:08Z</time>
      </trkpt>
      <trkpt lat="43.654517037793994" lon="-7.846328979358077">
        <ele>26.57</ele>
        <time>2025-04-30T10:49:09Z</time>
      </trkpt>
      <trkpt lat="43.654430033639073" lon="-7.846324034035206">
        <ele>27.050000000000001</ele>
        <time>2025-04-30T10:49:10Z</time>
      </trkpt>
      <trkpt lat="43.654344035312533" lon="-7.84633400849998">
        <ele>27.530000000000001</ele>
        <time>2025-04-30T10:49:11Z</time>
      </trkpt>
      <trkpt lat="43.654269017279148" lon="-7.846378013491631">
        <ele>28.5</ele>
        <time>2025-04-30T10:49:12Z</time>
      </trkpt>
      <trkpt lat="43.653458990156651" lon="-7.846612958237529">
        <ele>36.189999999999998</ele>
        <time>2025-04-30T10:49:22Z</time>
      </trkpt>
      <trkpt lat="43.653120025992393" lon="-7.846568031236529">
        <ele>39.549999999999997</ele>
        <time>2025-04-30T10:49:26Z</time>
      </trkpt>
      <trkpt lat="43.653022041544318" lon="-7.846555039286614">
        <ele>40.030000000000001</ele>
        <time>2025-04-30T10:49:27Z</time>
      </trkpt>
      <trkpt lat="43.651939015835524" lon="-7.845995966345072">
        <ele>50.130000000000003</ele>
        <time>2025-04-30T10:49:38Z</time>
      </trkpt>
      <trkpt lat="43.651084983721375" lon="-7.845353996381164">
        <ele>56.859999999999999</ele>
        <time>2025-04-30T10:49:44Z</time>
      </trkpt>
      <trkpt lat="43.650941988453269" lon="-7.845283001661301">
        <ele>57.82</ele>
        <time>2025-04-30T10:49:45Z</time>
      </trkpt>
      <trkpt lat="43.65021301433444" lon="-7.845057025551796">
        <ele>63.579999999999998</ele>
        <time>2025-04-30T10:49:49Z</time>
      </trkpt>
      <trkpt lat="43.650028025731444" lon="-7.845072029158473">
        <ele>65.030000000000001</ele>
        <time>2025-04-30T10:49:50Z</time>
      </trkpt>
      <trkpt lat="43.649838007986546" lon="-7.845088038593531">
        <ele>66.469999999999999</ele>
        <time>2025-04-30T10:49:51Z</time>
      </trkpt>
      <trkpt lat="43.649644972756505" lon="-7.845103964209557">
        <ele>67.909999999999997</ele>
        <time>2025-04-30T10:49:52Z</time>
      </trkpt>
      <trkpt lat="43.649444980546832" lon="-7.84512902610004">
        <ele>69.349999999999994</ele>
        <time>2025-04-30T10:49:53Z</time>
      </trkpt>
      <trkpt lat="43.64924699999392" lon="-7.845201026648283">
        <ele>70.790000000000006</ele>
        <time>2025-04-30T10:49:54Z</time>
      </trkpt>
      <trkpt lat="43.649038961157203" lon="-7.845318960025907">
        <ele>72.719999999999999</ele>
        <time>2025-04-30T10:49:55Z</time>
      </trkpt>
      <trkpt lat="43.648872999474406" lon="-7.845490034669638">
        <ele>74.640000000000001</ele>
        <time>2025-04-30T10:49:56Z</time>
      </trkpt>
      <trkpt lat="43.64870703779161" lon="-7.845660019665957">
        <ele>76.560000000000002</ele>
        <time>2025-04-30T10:49:57Z</time>
      </trkpt>
      <trkpt lat="43.648539986461401" lon="-7.845832016319037">
        <ele>78.480000000000004</ele>
        <time>2025-04-30T10:49:58Z</time>
      </trkpt>
      <trkpt lat="43.648217031732202" lon="-7.846152959391475">
        <ele>82.810000000000002</ele>
        <time>2025-04-30T10:50:00Z</time>
      </trkpt>
      <trkpt lat="43.647877983748913" lon="-7.846384970471263">
        <ele>86.659999999999997</ele>
        <time>2025-04-30T10:50:02Z</time>
      </trkpt>
      <trkpt lat="43.64769802428782" lon="-7.846458982676268">
        <ele>88.099999999999994</ele>
        <time>2025-04-30T10:50:03Z</time>
      </trkpt>
      <trkpt lat="43.647515969350934" lon="-7.846514973789454">
        <ele>89.540000000000006</ele>
        <time>2025-04-30T10:50:04Z</time>
      </trkpt>
      <trkpt lat="43.647324023768306" lon="-7.846523020416498">
        <ele>90.980000000000004</ele>
        <time>2025-04-30T10:50:05Z</time>
      </trkpt>
      <trkpt lat="43.647125037387013" lon="-7.846530983224511">
        <ele>92.900000000000006</ele>
        <time>2025-04-30T10:50:06Z</time>
      </trkpt>
      <trkpt lat="43.646925967186689" lon="-7.846508016809821">
        <ele>94.349999999999994</ele>
        <time>2025-04-30T10:50:07Z</time>
      </trkpt>
      <trkpt lat="43.646723963320255" lon="-7.846465017646551">
        <ele>95.790000000000006</ele>
        <time>2025-04-30T10:50:08Z</time>
      </trkpt>
      <trkpt lat="43.645075997337699" lon="-7.846005018800497">
        <ele>108.29000000000001</ele>
        <time>2025-04-30T10:50:16Z</time>
      </trkpt>
      <trkpt lat="43.644509967416525" lon="-7.845641998574138">
        <ele>113.56999999999999</ele>
        <time>2025-04-30T10:50:19Z</time>
      </trkpt>
      <trkpt lat="43.644329002127051" lon="-7.845476036891341">
        <ele>115.5</ele>
        <time>2025-04-30T10:50:20Z</time>
      </trkpt>
      <trkpt lat="43.644162034615874" lon="-7.845295993611217">
        <ele>116.94</ele>
        <time>2025-04-30T10:50:21Z</time>
      </trkpt>
      <trkpt lat="43.644019961357117" lon="-7.845061970874667">
        <ele>118.86</ele>
        <time>2025-04-30T10:50:22Z</time>
      </trkpt>
      <trkpt lat="43.643884006887674" lon="-7.84482803195715">
        <ele>120.78</ele>
        <time>2025-04-30T10:50:23Z</time>
      </trkpt>
      <trkpt lat="43.643776969984174" lon="-7.844559978693724">
        <ele>122.22</ele>
        <time>2025-04-30T10:50:24Z</time>
      </trkpt>
      <trkpt lat="43.643670016899705" lon="-7.84429301507771">
        <ele>124.15000000000001</ele>
        <time>2025-04-30T10:50:25Z</time>
      </trkpt>
      <trkpt lat="43.643576977774501" lon="-7.844022028148174">
        <ele>126.06999999999999</ele>
        <time>2025-04-30T10:50:26Z</time>
      </trkpt>
      <trkpt lat="43.643506988883018" lon="-7.843722039833665">
        <ele>127.98999999999999</ele>
        <time>2025-04-30T10:50:27Z</time>
      </trkpt>
      <trkpt lat="43.643458038568497" lon="-7.843419034034014">
        <ele>129.43000000000001</ele>
        <time>2025-04-30T10:50:28Z</time>
      </trkpt>
      <trkpt lat="43.643432976678014" lon="-7.843102030456066">
        <ele>131.36000000000001</ele>
        <time>2025-04-30T10:50:29Z</time>
      </trkpt>
      <trkpt lat="43.643333986401558" lon="-7.842160994186997">
        <ele>136.63999999999999</ele>
        <time>2025-04-30T10:50:32Z</time>
      </trkpt>
      <trkpt lat="43.643266009166837" lon="-7.841867040842772">
        <ele>138.56999999999999</ele>
        <time>2025-04-30T10:50:33Z</time>
      </trkpt>
      <trkpt lat="43.643160983920097" lon="-7.841605022549629">
        <ele>140.49000000000001</ele>
        <time>2025-04-30T10:50:34Z</time>
      </trkpt>
      <trkpt lat="43.643027041107416" lon="-7.84137099981308">
        <ele>142.88999999999999</ele>
        <time>2025-04-30T10:50:35Z</time>
      </trkpt>
      <trkpt lat="43.642888991162181" lon="-7.841170001775026">
        <ele>145.30000000000001</ele>
        <time>2025-04-30T10:50:36Z</time>
      </trkpt>
      <trkpt lat="43.642688998952508" lon="-7.841013008728623">
        <ele>147.69999999999999</ele>
        <time>2025-04-30T10:50:37Z</time>
      </trkpt>
      <trkpt lat="43.642495963722467" lon="-7.840903038159013">
        <ele>150.58000000000001</ele>
        <time>2025-04-30T10:50:38Z</time>
      </trkpt>
      <trkpt lat="43.642287002876401" lon="-7.840833971276879">
        <ele>152.99000000000001</ele>
        <time>2025-04-30T10:50:39Z</time>
      </trkpt>
      <trkpt lat="43.642074018716812" lon="-7.840761970728636">
        <ele>155.38999999999999</ele>
        <time>2025-04-30T10:50:40Z</time>
      </trkpt>
      <trkpt lat="43.64185499958694" lon="-7.840689970180392">
        <ele>157.78999999999999</ele>
        <time>2025-04-30T10:50:41Z</time>
      </trkpt>
      <trkpt lat="43.641422996297479" lon="-7.84053398296237">
        <ele>162.59999999999999</ele>
        <time>2025-04-30T10:50:43Z</time>
      </trkpt>
      <trkpt lat="43.641214035451412" lon="-7.840424012392759">
        <ele>164.52000000000001</ele>
        <time>2025-04-30T10:50:44Z</time>
      </trkpt>
      <trkpt lat="43.641019994392991" lon="-7.840277999639511">
        <ele>166.44999999999999</ele>
        <time>2025-04-30T10:50:45Z</time>
      </trkpt>
      <trkpt lat="43.640825031325221" lon="-7.840131986886263">
        <ele>168.37</ele>
        <time>2025-04-30T10:50:46Z</time>
      </trkpt>
      <trkpt lat="43.640640964731574" lon="-7.839960996061564">
        <ele>170.28999999999999</ele>
        <time>2025-04-30T10:50:47Z</time>
      </trkpt>
      <trkpt lat="43.640468968078494" lon="-7.839764021337032">
        <ele>172.21000000000001</ele>
        <time>2025-04-30T10:50:48Z</time>
      </trkpt>
      <trkpt lat="43.640292026102543" lon="-7.839561011642218">
        <ele>174.13999999999999</ele>
        <time>2025-04-30T10:50:49Z</time>
      </trkpt>
      <trkpt lat="43.640144001692533" lon="-7.839331012219191">
        <ele>176.06</ele>
        <time>2025-04-30T10:50:50Z</time>
      </trkpt>
      <trkpt lat="43.639992959797382" lon="-7.83909497782588">
        <ele>177.97999999999999</ele>
        <time>2025-04-30T10:50:51Z</time>
      </trkpt>
      <trkpt lat="43.639540001749992" lon="-7.838434986770153">
        <ele>183.75</ele>
        <time>2025-04-30T10:50:54Z</time>
      </trkpt>
      <trkpt lat="43.639377979561687" lon="-7.838271036744118">
        <ele>185.66999999999999</ele>
        <time>2025-04-30T10:50:55Z</time>
      </trkpt>
      <trkpt lat="43.639206988736987" lon="-7.838131980970502">
        <ele>187.59</ele>
        <time>2025-04-30T10:50:56Z</time>
      </trkpt>
      <trkpt lat="43.639022000133991" lon="-7.838067021220923">
        <ele>189.03999999999999</ele>
        <time>2025-04-30T10:50:57Z</time>
      </trkpt>
      <trkpt lat="43.638830976560712" lon="-7.838028967380524">
        <ele>190.96000000000001</ele>
        <time>2025-04-30T10:50:58Z</time>
      </trkpt>
      <trkpt lat="43.6386329960078" lon="-7.838015975430608">
        <ele>192.88</ele>
        <time>2025-04-30T10:50:59Z</time>
      </trkpt>
      <trkpt lat="43.638428980484605" lon="-7.838046988472343">
        <ele>194.80000000000001</ele>
        <time>2025-04-30T10:51:00Z</time>
      </trkpt>
      <trkpt lat="43.638223959133029" lon="-7.838090993463993">
        <ele>196.25</ele>
        <time>2025-04-30T10:51:01Z</time>
      </trkpt>
      <trkpt lat="43.637814000248909" lon="-7.838156959041953">
        <ele>200.09</ele>
        <time>2025-04-30T10:51:03Z</time>
      </trkpt>
      <trkpt lat="43.637604033574462" lon="-7.838132986798883">
        <ele>202.00999999999999</ele>
        <time>2025-04-30T10:51:04Z</time>
      </trkpt>
      <trkpt lat="43.637404041364789" lon="-7.838059980422258">
        <ele>203.94</ele>
        <time>2025-04-30T10:51:05Z</time>
      </trkpt>
      <trkpt lat="43.637205976992846" lon="-7.83795696683228">
        <ele>205.38</ele>
        <time>2025-04-30T10:51:06Z</time>
      </trkpt>
      <trkpt lat="43.637032974511385" lon="-7.837838027626276">
        <ele>206.81999999999999</ele>
        <time>2025-04-30T10:51:07Z</time>
      </trkpt>
      <trkpt lat="43.636876987293363" lon="-7.837649015709758">
        <ele>208.74000000000001</ele>
        <time>2025-04-30T10:51:08Z</time>
      </trkpt>
      <trkpt lat="43.636738015338778" lon="-7.837445000186563">
        <ele>210.19</ele>
        <time>2025-04-30T10:51:09Z</time>
      </trkpt>
      <trkpt lat="43.636629972606897" lon="-7.837198991328478">
        <ele>212.11000000000001</ele>
        <time>2025-04-30T10:51:10Z</time>
      </trkpt>
      <trkpt lat="43.636544980108738" lon="-7.836930016055703">
        <ele>213.55000000000001</ele>
        <time>2025-04-30T10:51:11Z</time>
      </trkpt>
      <trkpt lat="43.636489994823933" lon="-7.83664301969111">
        <ele>214.99000000000001</ele>
        <time>2025-04-30T10:51:12Z</time>
      </trkpt>
      <trkpt lat="43.636453030630946" lon="-7.8363430313766">
        <ele>216.91</ele>
        <time>2025-04-30T10:51:13Z</time>
      </trkpt>
      <trkpt lat="43.636384969577193" lon="-7.835740959271789">
        <ele>220.75999999999999</ele>
        <time>2025-04-30T10:51:15Z</time>
      </trkpt>
      <trkpt lat="43.636319003999233" lon="-7.835447005927563">
        <ele>222.68000000000001</ele>
        <time>2025-04-30T10:51:16Z</time>
      </trkpt>
      <trkpt lat="43.636216996237636" lon="-7.835179958492518">
        <ele>224.12</ele>
        <time>2025-04-30T10:51:17Z</time>
      </trkpt>
      <trkpt lat="43.636089004576206" lon="-7.834933027625084">
        <ele>226.05000000000001</ele>
        <time>2025-04-30T10:51:18Z</time>
      </trkpt>
      <trkpt lat="43.635935029014945" lon="-7.834719037637115">
        <ele>227.97</ele>
        <time>2025-04-30T10:51:19Z</time>
      </trkpt>
      <trkpt lat="43.635741993784904" lon="-7.834551986306906">
        <ele>229.88999999999999</ele>
        <time>2025-04-30T10:51:20Z</time>
      </trkpt>
      <trkpt lat="43.63553898409009" lon="-7.834395999088883">
        <ele>232.30000000000001</ele>
        <time>2025-04-30T10:51:21Z</time>
      </trkpt>
      <trkpt lat="43.635332034900784" lon="-7.834246968850493">
        <ele>234.69999999999999</ele>
        <time>2025-04-30T10:51:22Z</time>
      </trkpt>
      <trkpt lat="43.634951999410987" lon="-7.833908004686236">
        <ele>239.02000000000001</ele>
        <time>2025-04-30T10:51:24Z</time>
      </trkpt>
      <trkpt lat="43.634784026071429" lon="-7.833716981112957">
        <ele>241.43000000000001</ele>
        <time>2025-04-30T10:51:25Z</time>
      </trkpt>
      <trkpt lat="43.634649999439716" lon="-7.833454962819815">
        <ele>243.34999999999999</ele>
        <time>2025-04-30T10:51:26Z</time>
      </trkpt>
      <trkpt lat="43.634513039141893" lon="-7.833191016688943">
        <ele>245.75</ele>
        <time>2025-04-30T10:51:27Z</time>
      </trkpt>
      <trkpt lat="43.634407008066773" lon="-7.832932015880942">
        <ele>247.68000000000001</ele>
        <time>2025-04-30T10:51:28Z</time>
      </trkpt>
      <trkpt lat="43.634331990033388" lon="-7.832645019516349">
        <ele>249.59999999999999</ele>
        <time>2025-04-30T10:51:29Z</time>
      </trkpt>
      <trkpt lat="43.634291002526879" lon="-7.832366991788149">
        <ele>251.52000000000001</ele>
        <time>2025-04-30T10:51:30Z</time>
      </trkpt>
      <trkpt lat="43.634267030283809" lon="-7.832075972110033">
        <ele>253.44</ele>
        <time>2025-04-30T10:51:31Z</time>
      </trkpt>
      <trkpt lat="43.634283039718866" lon="-7.831808002665639">
        <ele>255.37</ele>
        <time>2025-04-30T10:51:32Z</time>
      </trkpt>
      <trkpt lat="43.634307011961937" lon="-7.831550007686019">
        <ele>257.29000000000002</ele>
        <time>2025-04-30T10:51:33Z</time>
      </trkpt>
      <trkpt lat="43.634369038045406" lon="-7.831292012706399">
        <ele>259.20999999999998</ele>
        <time>2025-04-30T10:51:34Z</time>
      </trkpt>
      <trkpt lat="43.634433997794986" lon="-7.831022031605244">
        <ele>261.13999999999999</ele>
        <time>2025-04-30T10:51:35Z</time>
      </trkpt>
      <trkpt lat="43.634518990293145" lon="-7.83078096807003">
        <ele>263.06</ele>
        <time>2025-04-30T10:51:36Z</time>
      </trkpt>
      <trkpt lat="43.634757958352566" lon="-7.830030033364892">
        <ele>267.38</ele>
        <time>2025-04-30T10:51:39Z</time>
      </trkpt>
      <trkpt lat="43.63478503189981" lon="-7.829755023121834">
        <ele>268.82999999999998</ele>
        <time>2025-04-30T10:51:40Z</time>
      </trkpt>
      <trkpt lat="43.634795006364584" lon="-7.829488981515169">
        <ele>270.26999999999998</ele>
        <time>2025-04-30T10:51:41Z</time>
      </trkpt>
      <trkpt lat="43.634760975837708" lon="-7.829228974878788">
        <ele>271.70999999999998</ele>
        <time>2025-04-30T10:51:42Z</time>
      </trkpt>
      <trkpt lat="43.634695010259748" lon="-7.828982966020703">
        <ele>272.67000000000002</ele>
        <time>2025-04-30T10:51:43Z</time>
      </trkpt>
      <trkpt lat="43.63459300249815" lon="-7.828750032931566">
        <ele>274.58999999999997</ele>
        <time>2025-04-30T10:51:44Z</time>
      </trkpt>
      <trkpt lat="43.634452018886805" lon="-7.82856403850019">
        <ele>276.04000000000002</ele>
        <time>2025-04-30T10:51:45Z</time>
      </trkpt>
      <trkpt lat="43.634285973384976" lon="-7.828389024361968">
        <ele>277.48000000000002</ele>
        <time>2025-04-30T10:51:46Z</time>
      </trkpt>
      <trkpt lat="43.634109031409025" lon="-7.828233037143946">
        <ele>278.92000000000002</ele>
        <time>2025-04-30T10:51:47Z</time>
      </trkpt>
      <trkpt lat="43.633914990350604" lon="-7.828124994412065">
        <ele>280.36000000000001</ele>
        <time>2025-04-30T10:51:48Z</time>
      </trkpt>
      <trkpt lat="43.633731007575989" lon="-7.828024998307228">
        <ele>281.80000000000001</ele>
        <time>2025-04-30T10:51:49Z</time>
      </trkpt>
      <trkpt lat="43.633575020357966" lon="-7.827917039394379">
        <ele>283.25</ele>
        <time>2025-04-30T10:51:50Z</time>
      </trkpt>
      <trkpt lat="43.633461026474833" lon="-7.827768009155989">
        <ele>284.20999999999998</ele>
        <time>2025-04-30T10:51:51Z</time>
      </trkpt>
      <trkpt lat="43.633387014269829" lon="-7.827585032209754">
        <ele>285.17000000000002</ele>
        <time>2025-04-30T10:51:52Z</time>
      </trkpt>
      <trkpt lat="43.633342003449798" lon="-7.82736299559474">
        <ele>286.13</ele>
        <time>2025-04-30T10:51:53Z</time>
      </trkpt>
      <trkpt lat="43.633294980973005" lon="-7.827111035585403">
        <ele>286.61000000000001</ele>
        <time>2025-04-30T10:51:54Z</time>
      </trkpt>
      <trkpt lat="43.632926009595394" lon="-7.825396014377475">
        <ele>287.56999999999999</ele>
        <time>2025-04-30T10:52:00Z</time>
      </trkpt>
      <trkpt lat="43.632484031841159" lon="-7.824331009760499">
        <ele>290.45999999999998</ele>
        <time>2025-04-30T10:52:04Z</time>
      </trkpt>
      <trkpt lat="43.632352016866207" lon="-7.82411802560091">
        <ele>291.89999999999998</ele>
        <time>2025-04-30T10:52:05Z</time>
      </trkpt>
      <trkpt lat="43.632209021598101" lon="-7.82392499037087">
        <ele>293.33999999999997</ele>
        <time>2025-04-30T10:52:06Z</time>
      </trkpt>
      <trkpt lat="43.632040964439511" lon="-7.823769003152847">
        <ele>294.77999999999997</ele>
        <time>2025-04-30T10:52:07Z</time>
      </trkpt>
      <trkpt lat="43.631851030513644" lon="-7.823651991784573">
        <ele>296.22000000000003</ele>
        <time>2025-04-30T10:52:08Z</time>
      </trkpt>
      <trkpt lat="43.631656989455223" lon="-7.823600023984909">
        <ele>297.67000000000002</ele>
        <time>2025-04-30T10:52:09Z</time>
      </trkpt>
      <trkpt lat="43.63145699724555" lon="-7.823574040085077">
        <ele>299.11000000000001</ele>
        <time>2025-04-30T10:52:10Z</time>
      </trkpt>
      <trkpt lat="43.631260022521019" lon="-7.823564987629652">
        <ele>300.55000000000001</ele>
        <time>2025-04-30T10:52:11Z</time>
      </trkpt>
      <trkpt lat="43.631063969805837" lon="-7.823649980127811">
        <ele>301.99000000000001</ele>
        <time>2025-04-30T10:52:12Z</time>
      </trkpt>
      <trkpt lat="43.630875963717699" lon="-7.823765985667706">
        <ele>303.43000000000001</ele>
        <time>2025-04-30T10:52:13Z</time>
      </trkpt>
      <trkpt lat="43.63068200647831" lon="-7.823895988985896">
        <ele>304.88</ele>
        <time>2025-04-30T10:52:14Z</time>
      </trkpt>
      <trkpt lat="43.630512021481991" lon="-7.824088018387556">
        <ele>306.31999999999999</ele>
        <time>2025-04-30T10:52:15Z</time>
      </trkpt>
      <trkpt lat="43.63016601651907" lon="-7.824476016685367">
        <ele>309.19999999999999</ele>
        <time>2025-04-30T10:52:17Z</time>
      </trkpt>
      <trkpt lat="43.62939303740859" lon="-7.825161991640925">
        <ele>315.44999999999999</ele>
        <time>2025-04-30T10:52:21Z</time>
      </trkpt>
      <trkpt lat="43.629178963601589" lon="-7.82529903575778">
        <ele>317.37</ele>
        <time>2025-04-30T10:52:22Z</time>
      </trkpt>
      <trkpt lat="43.627356989309192" lon="-7.826129011809826">
        <ele>329.87</ele>
        <time>2025-04-30T10:52:30Z</time>
      </trkpt>
      <trkpt lat="43.627156997099519" lon="-7.826283993199468">
        <ele>331.31</ele>
        <time>2025-04-30T10:52:31Z</time>
      </trkpt>
      <trkpt lat="43.626977037638426" lon="-7.826459007337689">
        <ele>332.75</ele>
        <time>2025-04-30T10:52:32Z</time>
      </trkpt>
      <trkpt lat="43.626824989914894" lon="-7.826683977618814">
        <ele>334.19999999999999</ele>
        <time>2025-04-30T10:52:33Z</time>
      </trkpt>
      <trkpt lat="43.626672020182014" lon="-7.826913977041841">
        <ele>335.16000000000003</ele>
        <time>2025-04-30T10:52:34Z</time>
      </trkpt>
      <trkpt lat="43.626526007428765" lon="-7.827142970636487">
        <ele>336.60000000000002</ele>
        <time>2025-04-30T10:52:35Z</time>
      </trkpt>
      <trkpt lat="43.626410001888871" lon="-7.82740599475801">
        <ele>338.04000000000002</ele>
        <time>2025-04-30T10:52:36Z</time>
      </trkpt>
      <trkpt lat="43.626296008005738" lon="-7.827666001394391">
        <ele>339</ele>
        <time>2025-04-30T10:52:37Z</time>
      </trkpt>
      <trkpt lat="43.625700976699591" lon="-7.828950025141239">
        <ele>345.25</ele>
        <time>2025-04-30T10:52:42Z</time>
      </trkpt>
      <trkpt lat="43.625070992857218" lon="-7.829836998134852">
        <ele>350.06</ele>
        <time>2025-04-30T10:52:46Z</time>
      </trkpt>
      <trkpt lat="43.624894972890615" lon="-7.830039002001286">
        <ele>351.01999999999998</ele>
        <time>2025-04-30T10:52:47Z</time>
      </trkpt>
      <trkpt lat="43.62408796325326" lon="-7.830701004713774">
        <ele>356.31</ele>
        <time>2025-04-30T10:52:51Z</time>
      </trkpt>
      <trkpt lat="43.623857963830233" lon="-7.830814998596907">
        <ele>357.26999999999998</ele>
        <time>2025-04-30T10:52:52Z</time>
      </trkpt>
      <trkpt lat="43.623626958578825" lon="-7.830873001366854">
        <ele>358.70999999999998</ele>
        <time>2025-04-30T10:52:53Z</time>
      </trkpt>
      <trkpt lat="43.623390002176166" lon="-7.830925974994898">
        <ele>359.67000000000002</ele>
        <time>2025-04-30T10:52:54Z</time>
      </trkpt>
      <trkpt lat="43.623152961954474" lon="-7.830964028835297">
        <ele>361.11000000000001</ele>
        <time>2025-04-30T10:52:55Z</time>
      </trkpt>
      <trkpt lat="43.620015028864145" lon="-7.831192016601563">
        <ele>372.17000000000002</ele>
        <time>2025-04-30T10:53:08Z</time>
      </trkpt>
      <trkpt lat="43.618061039596796" lon="-7.831192016601563">
        <ele>379.38</ele>
        <time>2025-04-30T10:53:17Z</time>
      </trkpt>
      <trkpt lat="43.615569015964866" lon="-7.831395026296377">
        <ele>392.36000000000001</ele>
        <time>2025-04-30T10:53:28Z</time>
      </trkpt>
      <trkpt lat="43.613360971212387" lon="-7.832209998741746">
        <ele>405.32999999999998</ele>
        <time>2025-04-30T10:53:38Z</time>
      </trkpt>
      <trkpt lat="43.611757010221481" lon="-7.832364980131388">
        <ele>411.57999999999998</ele>
        <time>2025-04-30T10:53:45Z</time>
      </trkpt>
      <trkpt lat="43.609532034024596" lon="-7.832230031490326">
        <ele>415.91000000000003</ele>
        <time>2025-04-30T10:53:55Z</time>
      </trkpt>
      <trkpt lat="43.609333969652653" lon="-7.832121988758445">
        <ele>415.91000000000003</ele>
        <time>2025-04-30T10:53:56Z</time>
      </trkpt>
      <trkpt lat="43.609144035726786" lon="-7.831987962126732">
        <ele>415.43000000000001</ele>
        <time>2025-04-30T10:53:57Z</time>
      </trkpt>
      <trkpt lat="43.60898301936686" lon="-7.831797022372484">
        <ele>415.43000000000001</ele>
        <time>2025-04-30T10:53:58Z</time>
      </trkpt>
      <trkpt lat="43.608857961371541" lon="-7.831556964665651">
        <ele>414.94999999999999</ele>
        <time>2025-04-30T10:53:59Z</time>
      </trkpt>
      <trkpt lat="43.608742039650679" lon="-7.831295030191541">
        <ele>414.47000000000003</ele>
        <time>2025-04-30T10:54:00Z</time>
      </trkpt>
      <trkpt lat="43.608645983040333" lon="-7.831019014120102">
        <ele>413.5</ele>
        <time>2025-04-30T10:54:01Z</time>
      </trkpt>
      <trkpt lat="43.608560990542173" lon="-7.830742998048663">
        <ele>413.01999999999998</ele>
        <time>2025-04-30T10:54:02Z</time>
      </trkpt>
      <trkpt lat="43.608479015529156" lon="-7.83047896809876">
        <ele>412.06</ele>
        <time>2025-04-30T10:54:03Z</time>
      </trkpt>
      <trkpt lat="43.608374996110797" lon="-7.830223990604281">
        <ele>411.10000000000002</ele>
        <time>2025-04-30T10:54:04Z</time>
      </trkpt>
      <trkpt lat="43.608239041641355" lon="-7.829993991181254">
        <ele>410.13999999999999</ele>
        <time>2025-04-30T10:54:05Z</time>
      </trkpt>
      <trkpt lat="43.608089005574584" lon="-7.829785030335188">
        <ele>409.18000000000001</ele>
        <time>2025-04-30T10:54:06Z</time>
      </trkpt>
      <trkpt lat="43.607905022799969" lon="-7.829614961519837">
        <ele>408.22000000000003</ele>
        <time>2025-04-30T10:54:07Z</time>
      </trkpt>
      <trkpt lat="43.607708970084786" lon="-7.829484036192298">
        <ele>407.25999999999999</ele>
        <time>2025-04-30T10:54:08Z</time>
      </trkpt>
      <trkpt lat="43.607502020895481" lon="-7.829355960711837">
        <ele>405.81</ele>
        <time>2025-04-30T10:54:09Z</time>
      </trkpt>
      <trkpt lat="43.607290964573622" lon="-7.829226041212678">
        <ele>404.85000000000002</ele>
        <time>2025-04-30T10:54:10Z</time>
      </trkpt>
      <trkpt lat="43.606701968237758" lon="-7.828711979091167">
        <ele>402.44999999999999</ele>
        <time>2025-04-30T10:54:13Z</time>
      </trkpt>
      <trkpt lat="43.606535000726581" lon="-7.828500000759959">
        <ele>401.97000000000003</ele>
        <time>2025-04-30T10:54:14Z</time>
      </trkpt>
      <trkpt lat="43.606390999630094" lon="-7.828254997730255">
        <ele>401.00999999999999</ele>
        <time>2025-04-30T10:54:15Z</time>
      </trkpt>
      <trkpt lat="43.605300011113286" lon="-7.826656987890601">
        <ele>401.97000000000003</ele>
        <time>2025-04-30T10:54:22Z</time>
      </trkpt>
      <trkpt lat="43.603640981018543" lon="-7.825225023552775">
        <ele>417.35000000000002</ele>
        <time>2025-04-30T10:54:31Z</time>
      </trkpt>
      <trkpt lat="43.600875036790967" lon="-7.822812041267753">
        <ele>440.89999999999998</ele>
        <time>2025-04-30T10:54:46Z</time>
      </trkpt>
      <trkpt lat="43.599350033327937" lon="-7.82113297842443">
        <ele>447.14999999999998</ele>
        <time>2025-04-30T10:54:54Z</time>
      </trkpt>
      <trkpt lat="43.598114959895611" lon="-7.819599006325007">
        <ele>447.63</ele>
        <time>2025-04-30T10:55:00Z</time>
      </trkpt>
      <trkpt lat="43.596772011369467" lon="-7.817750964313746">
        <ele>445.23000000000002</ele>
        <time>2025-04-30T10:55:08Z</time>
      </trkpt>
      <trkpt lat="43.59665198251605" lon="-7.817495986819267">
        <ele>445.23000000000002</ele>
        <time>2025-04-30T10:55:09Z</time>
      </trkpt>
      <trkpt lat="43.596559027209878" lon="-7.817214019596577">
        <ele>445.70999999999998</ele>
        <time>2025-04-30T10:55:10Z</time>
      </trkpt>
      <trkpt lat="43.59647998586297" lon="-7.816928029060364">
        <ele>446.67000000000002</ele>
        <time>2025-04-30T10:55:11Z</time>
      </trkpt>
      <trkpt lat="43.596412008628249" lon="-7.816630974411964">
        <ele>447.63</ele>
        <time>2025-04-30T10:55:12Z</time>
      </trkpt>
      <trkpt lat="43.596365991979837" lon="-7.816329980269074">
        <ele>448.58999999999997</ele>
        <time>2025-04-30T10:55:13Z</time>
      </trkpt>
      <trkpt lat="43.596331039443612" lon="-7.816024040803313">
        <ele>449.55000000000001</ele>
        <time>2025-04-30T10:55:14Z</time>
      </trkpt>
      <trkpt lat="43.596261972561479" lon="-7.815424986183643">
        <ele>452.92000000000002</ele>
        <time>2025-04-30T10:55:16Z</time>
      </trkpt>
      <trkpt lat="43.596165999770164" lon="-7.815156010910869">
        <ele>454.36000000000001</ele>
        <time>2025-04-30T10:55:17Z</time>
      </trkpt>
      <trkpt lat="43.596071032807231" lon="-7.814891980960965">
        <ele>456.27999999999997</ele>
        <time>2025-04-30T10:55:18Z</time>
      </trkpt>
      <trkpt lat="43.595928959548473" lon="-7.814675979316235">
        <ele>457.72000000000003</ele>
        <time>2025-04-30T10:55:19Z</time>
      </trkpt>
      <trkpt lat="43.595784958451986" lon="-7.814459977671504">
        <ele>459.64999999999998</ele>
        <time>2025-04-30T10:55:20Z</time>
      </trkpt>
      <trkpt lat="43.595628971233964" lon="-7.814259985461831">
        <ele>461.08999999999997</ele>
        <time>2025-04-30T10:55:21Z</time>
      </trkpt>
      <trkpt lat="43.595463009551167" lon="-7.814068961888552">
        <ele>463.00999999999999</ele>
        <time>2025-04-30T10:55:22Z</time>
      </trkpt>
      <trkpt lat="43.595028994604945" lon="-7.813419029116631">
        <ele>468.30000000000001</ele>
        <time>2025-04-30T10:55:25Z</time>
      </trkpt>
      <trkpt lat="43.594948025420308" lon="-7.813145024701953">
        <ele>470.22000000000003</ele>
        <time>2025-04-30T10:55:26Z</time>
      </trkpt>
      <trkpt lat="43.5948880109936" lon="-7.812866996973753">
        <ele>472.13999999999999</ele>
        <time>2025-04-30T10:55:27Z</time>
      </trkpt>
      <trkpt lat="43.594864038750529" lon="-7.812569020316005">
        <ele>474.55000000000001</ele>
        <time>2025-04-30T10:55:28Z</time>
      </trkpt>
      <trkpt lat="43.594844006001949" lon="-7.812257967889309">
        <ele>476.47000000000003</ele>
        <time>2025-04-30T10:55:29Z</time>
      </trkpt>
      <trkpt lat="43.594840988516808" lon="-7.811939036473632">
        <ele>478.38999999999999</ele>
        <time>2025-04-30T10:55:30Z</time>
      </trkpt>
      <trkpt lat="43.594800001010299" lon="-7.80875701457262">
        <ele>492.81</ele>
        <time>2025-04-30T10:55:40Z</time>
      </trkpt>
      <trkpt lat="43.594726994633675" lon="-7.805296964943409">
        <ele>498.57999999999998</ele>
        <time>2025-04-30T10:55:51Z</time>
      </trkpt>
      <trkpt lat="43.594380989670753" lon="-7.803187994286418">
        <ele>501.45999999999998</ele>
        <time>2025-04-30T10:55:58Z</time>
      </trkpt>
      <trkpt lat="43.593379016965628" lon="-7.800595974549651">
        <ele>499.54000000000002</ele>
        <time>2025-04-30T10:56:08Z</time>
      </trkpt>
      <trkpt lat="43.592444015666842" lon="-7.799245985224843">
        <ele>500.5</ele>
        <time>2025-04-30T10:56:14Z</time>
      </trkpt>
      <trkpt lat="43.589858030900359" lon="-7.796690007671714">
        <ele>520.21000000000004</ele>
        <time>2025-04-30T10:56:28Z</time>
      </trkpt>
      <trkpt lat="43.588926969096065" lon="-7.795853996649385">
        <ele>529.82000000000005</ele>
        <time>2025-04-30T10:56:33Z</time>
      </trkpt>
      <trkpt lat="43.588717002421618" lon="-7.795752994716167">
        <ele>531.75</ele>
        <time>2025-04-30T10:56:34Z</time>
      </trkpt>
      <trkpt lat="43.588502006605268" lon="-7.795678982511163">
        <ele>533.19000000000005</ele>
        <time>2025-04-30T10:56:35Z</time>
      </trkpt>
      <trkpt lat="43.588288016617298" lon="-7.795604970306158">
        <ele>535.11000000000001</ele>
        <time>2025-04-30T10:56:36Z</time>
      </trkpt>
      <trkpt lat="43.588064974173903" lon="-7.795593990013003">
        <ele>537.02999999999997</ele>
        <time>2025-04-30T10:56:37Z</time>
      </trkpt>
      <trkpt lat="43.587846960872412" lon="-7.795597007498145">
        <ele>538.96000000000004</ele>
        <time>2025-04-30T10:56:38Z</time>
      </trkpt>
      <trkpt lat="43.587625008076429" lon="-7.795614022761583">
        <ele>540.88</ele>
        <time>2025-04-30T10:56:39Z</time>
      </trkpt>
      <trkpt lat="43.587402971461415" lon="-7.795677976682782">
        <ele>542.79999999999995</ele>
        <time>2025-04-30T10:56:40Z</time>
      </trkpt>
      <trkpt lat="43.587184036150575" lon="-7.795744026079774">
        <ele>544.24000000000001</ele>
        <time>2025-04-30T10:56:41Z</time>
      </trkpt>
      <trkpt lat="43.586969962343574" lon="-7.795889033004642">
        <ele>546.16999999999996</ele>
        <time>2025-04-30T10:56:42Z</time>
      </trkpt>
      <trkpt lat="43.586763013154268" lon="-7.796029010787606">
        <ele>548.57000000000005</ele>
        <time>2025-04-30T10:56:43Z</time>
      </trkpt>
      <trkpt lat="43.586552040651441" lon="-7.796172006055713">
        <ele>550.49000000000001</ele>
        <time>2025-04-30T10:56:44Z</time>
      </trkpt>
      <trkpt lat="43.58504899777472" lon="-7.797011034563184">
        <ele>563.47000000000003</ele>
        <time>2025-04-30T10:56:51Z</time>
      </trkpt>
      <trkpt lat="43.584823021665215" lon="-7.797053027898073">
        <ele>564.90999999999997</ele>
        <time>2025-04-30T10:56:52Z</time>
      </trkpt>
      <trkpt lat="43.584590004757047" lon="-7.797053027898073">
        <ele>566.35000000000002</ele>
        <time>2025-04-30T10:56:53Z</time>
      </trkpt>
      <trkpt lat="43.582465024664998" lon="-7.796796960756183">
        <ele>573.55999999999995</ele>
        <time>2025-04-30T10:57:02Z</time>
      </trkpt>
      <trkpt lat="43.580898027867079" lon="-7.796701993793249">
        <ele>577.40999999999997</ele>
        <time>2025-04-30T10:57:09Z</time>
      </trkpt>
      <trkpt lat="43.580679008737206" lon="-7.796752033755183">
        <ele>577.88999999999999</ele>
        <time>2025-04-30T10:57:10Z</time>
      </trkpt>
      <trkpt lat="43.580465018749237" lon="-7.7968530356884">
        <ele>577.88999999999999</ele>
        <time>2025-04-30T10:57:11Z</time>
      </trkpt>
      <trkpt lat="43.580258991569281" lon="-7.796975998207927">
        <ele>578.85000000000002</ele>
        <time>2025-04-30T10:57:12Z</time>
      </trkpt>
      <trkpt lat="43.580055981874466" lon="-7.797119999304414">
        <ele>578.85000000000002</ele>
        <time>2025-04-30T10:57:13Z</time>
      </trkpt>
      <trkpt lat="43.578091012313962" lon="-7.798512987792492">
        <ele>584.13999999999999</ele>
        <time>2025-04-30T10:57:23Z</time>
      </trkpt>
      <trkpt lat="43.576228972524405" lon="-7.799802962690592">
        <ele>591.83000000000004</ele>
        <time>2025-04-30T10:57:32Z</time>
      </trkpt>
      <trkpt lat="43.576007019728422" lon="-7.799868006259203">
        <ele>592.30999999999995</ele>
        <time>2025-04-30T10:57:33Z</time>
      </trkpt>
      <trkpt lat="43.575783977285028" lon="-7.799932966008782">
        <ele>593.26999999999998</ele>
        <time>2025-04-30T10:57:34Z</time>
      </trkpt>
      <trkpt lat="43.573449030518532" lon="-7.800033967941999">
        <ele>591.35000000000002</ele>
        <time>2025-04-30T10:57:44Z</time>
      </trkpt>
      <trkpt lat="43.570770006626844" lon="-7.800172017887235">
        <ele>581.73000000000002</ele>
        <time>2025-04-30T10:57:56Z</time>
      </trkpt>
      <trkpt lat="43.569455975666642" lon="-7.800765037536621">
        <ele>577.88999999999999</ele>
        <time>2025-04-30T10:58:02Z</time>
      </trkpt>
      <trkpt lat="43.567679012194276" lon="-7.80179500579834">
        <ele>575.97000000000003</ele>
        <time>2025-04-30T10:58:11Z</time>
      </trkpt>
      <trkpt lat="43.566725989803672" lon="-7.802346032112837">
        <ele>575.97000000000003</ele>
        <time>2025-04-30T10:58:18Z</time>
      </trkpt>
      <trkpt lat="43.565399972721934" lon="-7.802888005971909">
        <ele>576.45000000000005</ele>
        <time>2025-04-30T10:58:25Z</time>
      </trkpt>
      <trkpt lat="43.56496000662446" lon="-7.802878031507134">
        <ele>575.97000000000003</ele>
        <time>2025-04-30T10:58:27Z</time>
      </trkpt>
      <trkpt lat="43.564746016636491" lon="-7.802852969616652">
        <ele>575.00999999999999</ele>
        <time>2025-04-30T10:58:28Z</time>
      </trkpt>
      <trkpt lat="43.564534960314631" lon="-7.80278398655355">
        <ele>574.03999999999996</ele>
        <time>2025-04-30T10:58:29Z</time>
      </trkpt>
      <trkpt lat="43.564312001690269" lon="-7.802696982398629">
        <ele>573.08000000000004</ele>
        <time>2025-04-30T10:58:30Z</time>
      </trkpt>
      <trkpt lat="43.564091976732016" lon="-7.80259002931416">
        <ele>571.63999999999999</ele>
        <time>2025-04-30T10:58:31Z</time>
      </trkpt>
      <trkpt lat="43.562088031321764" lon="-7.801727028563619">
        <ele>558.17999999999995</ele>
        <time>2025-04-30T10:58:40Z</time>
      </trkpt>
      <trkpt lat="43.561870018020272" lon="-7.801726022735238">
        <ele>556.74000000000001</ele>
        <time>2025-04-30T10:58:41Z</time>
      </trkpt>
      <trkpt lat="43.561648987233639" lon="-7.801758963614702">
        <ele>555.29999999999995</ele>
        <time>2025-04-30T10:58:42Z</time>
      </trkpt>
      <trkpt lat="43.561428962275386" lon="-7.801824007183313">
        <ele>554.34000000000003</ele>
        <time>2025-04-30T10:58:43Z</time>
      </trkpt>
      <trkpt lat="43.561204997822642" lon="-7.801887961104512">
        <ele>552.89999999999998</ele>
        <time>2025-04-30T10:58:44Z</time>
      </trkpt>
      <trkpt lat="43.55948100797832" lon="-7.802779041230679">
        <ele>545.20000000000005</ele>
        <time>2025-04-30T10:58:52Z</time>
      </trkpt>
      <trkpt lat="43.556640967726707" lon="-7.804477969184518">
        <ele>543.75999999999999</ele>
        <time>2025-04-30T10:59:06Z</time>
      </trkpt>
      <trkpt lat="43.555170027539134" lon="-7.805257989093661">
        <ele>547.61000000000001</ele>
        <time>2025-04-30T10:59:13Z</time>
      </trkpt>
      <trkpt lat="43.554956959560513" lon="-7.805293025448918">
        <ele>548.57000000000005</ele>
        <time>2025-04-30T10:59:14Z</time>
      </trkpt>
      <trkpt lat="43.554750010371208" lon="-7.8052750043571">
        <ele>549.52999999999997</ele>
        <time>2025-04-30T10:59:15Z</time>
      </trkpt>
      <trkpt lat="43.554543983191252" lon="-7.805225970223546">
        <ele>550.49000000000001</ele>
        <time>2025-04-30T10:59:16Z</time>
      </trkpt>
      <trkpt lat="43.554352037608624" lon="-7.805127985775471">
        <ele>551.92999999999995</ele>
        <time>2025-04-30T10:59:17Z</time>
      </trkpt>
      <trkpt lat="43.554161014035344" lon="-7.804992031306028">
        <ele>552.89999999999998</ele>
        <time>2025-04-30T10:59:18Z</time>
      </trkpt>
      <trkpt lat="43.554006032645702" lon="-7.804823974147439">
        <ele>554.34000000000003</ele>
        <time>2025-04-30T10:59:19Z</time>
      </trkpt>
      <trkpt lat="43.553851973265409" lon="-7.804626999422908">
        <ele>555.77999999999997</ele>
        <time>2025-04-30T10:59:20Z</time>
      </trkpt>
      <trkpt lat="43.553709983825684" lon="-7.804390965029597">
        <ele>557.22000000000003</ele>
        <time>2025-04-30T10:59:21Z</time>
      </trkpt>
      <trkpt lat="43.553578974679112" lon="-7.80416096560657">
        <ele>559.13999999999999</ele>
        <time>2025-04-30T10:59:22Z</time>
      </trkpt>
      <trkpt lat="43.552215993404388" lon="-7.801743037998676">
        <ele>574.52999999999997</ele>
        <time>2025-04-30T10:59:32Z</time>
      </trkpt>
      <trkpt lat="43.552051037549973" lon="-7.801558971405029">
        <ele>575.49000000000001</ele>
        <time>2025-04-30T10:59:33Z</time>
      </trkpt>
      <trkpt lat="43.551878035068512" lon="-7.801396027207375">
        <ele>576.92999999999995</ele>
        <time>2025-04-30T10:59:34Z</time>
      </trkpt>
      <trkpt lat="43.551689023151994" lon="-7.801264012232423">
        <ele>578.37</ele>
        <time>2025-04-30T10:59:35Z</time>
      </trkpt>
      <trkpt lat="43.551481990143657" lon="-7.801191005855799">
        <ele>579.80999999999995</ele>
        <time>2025-04-30T10:59:36Z</time>
      </trkpt>
      <trkpt lat="43.551275040954351" lon="-7.801127973943949">
        <ele>581.25</ele>
        <time>2025-04-30T10:59:37Z</time>
      </trkpt>
      <trkpt lat="43.551063984632492" lon="-7.801115987822413">
        <ele>582.22000000000003</ele>
        <time>2025-04-30T10:59:38Z</time>
      </trkpt>
      <trkpt lat="43.550848988816142" lon="-7.801120011135936">
        <ele>583.65999999999997</ele>
        <time>2025-04-30T10:59:39Z</time>
      </trkpt>
      <trkpt lat="43.550633992999792" lon="-7.801153035834432">
        <ele>584.62</ele>
        <time>2025-04-30T10:59:40Z</time>
      </trkpt>
      <trkpt lat="43.547574011608958" lon="-7.8017090074718">
        <ele>607.21000000000004</ele>
        <time>2025-04-30T10:59:54Z</time>
      </trkpt>
      <trkpt lat="43.547373013570905" lon="-7.801803974434733">
        <ele>609.61000000000001</ele>
        <time>2025-04-30T10:59:55Z</time>
      </trkpt>
      <trkpt lat="43.547162041068077" lon="-7.801919979974628">
        <ele>611.53999999999996</ele>
        <time>2025-04-30T10:59:56Z</time>
      </trkpt>
      <trkpt lat="43.546970011666417" lon="-7.802079990506172">
        <ele>613.94000000000005</ele>
        <time>2025-04-30T10:59:57Z</time>
      </trkpt>
      <trkpt lat="43.546782005578279" lon="-7.802252992987633">
        <ele>615.86000000000001</ele>
        <time>2025-04-30T10:59:58Z</time>
      </trkpt>
      <trkpt lat="43.546614032238722" lon="-7.80246002599597">
        <ele>617.77999999999997</ele>
        <time>2025-04-30T10:59:59Z</time>
      </trkpt>
      <trkpt lat="43.546445975080132" lon="-7.802669992670417">
        <ele>620.19000000000005</ele>
        <time>2025-04-30T11:00:00Z</time>
      </trkpt>
      <trkpt lat="43.546111034229398" lon="-7.80308598652482">
        <ele>624.50999999999999</ele>
        <time>2025-04-30T11:00:02Z</time>
      </trkpt>
      <trkpt lat="43.545919004827738" lon="-7.803269969299436">
        <ele>626.91999999999996</ele>
        <time>2025-04-30T11:00:03Z</time>
      </trkpt>
      <trkpt lat="43.545724963769317" lon="-7.803455963730812">
        <ele>628.84000000000003</ele>
        <time>2025-04-30T11:00:04Z</time>
      </trkpt>
      <trkpt lat="43.545520026236773" lon="-7.803618991747499">
        <ele>631.24000000000001</ele>
        <time>2025-04-30T11:00:05Z</time>
      </trkpt>
      <trkpt lat="43.545298995450139" lon="-7.803739020600915">
        <ele>633.16999999999996</ele>
        <time>2025-04-30T11:00:06Z</time>
      </trkpt>
      <trkpt lat="43.545075030997396" lon="-7.8038589656353">
        <ele>635.09000000000003</ele>
        <time>2025-04-30T11:00:07Z</time>
      </trkpt>
      <trkpt lat="43.544842014089227" lon="-7.803947981446981">
        <ele>637.00999999999999</ele>
        <time>2025-04-30T11:00:08Z</time>
      </trkpt>
      <trkpt lat="43.5446120146662" lon="-7.804027022793889">
        <ele>638.92999999999995</ele>
        <time>2025-04-30T11:00:09Z</time>
      </trkpt>
      <trkpt lat="43.542030975222588" lon="-7.804809976369143">
        <ele>645.17999999999995</ele>
        <time>2025-04-30T11:00:20Z</time>
      </trkpt>
      <trkpt lat="43.539365027099848" lon="-7.805819995701313">
        <ele>643.74000000000001</ele>
        <time>2025-04-30T11:00:32Z</time>
      </trkpt>
      <trkpt lat="43.536531021818519" lon="-7.807088010013104">
        <ele>638.92999999999995</ele>
        <time>2025-04-30T11:00:44Z</time>
      </trkpt>
      <trkpt lat="43.533872030675411" lon="-7.808324005454779">
        <ele>636.52999999999997</ele>
        <time>2025-04-30T11:00:56Z</time>
      </trkpt>
      <trkpt lat="43.532128008082509" lon="-7.809564024209976">
        <ele>631.72000000000003</ele>
        <time>2025-04-30T11:01:04Z</time>
      </trkpt>
      <trkpt lat="43.529785014688969" lon="-7.81135599128902">
        <ele>625.96000000000004</ele>
        <time>2025-04-30T11:01:15Z</time>
      </trkpt>
      <trkpt lat="43.528239978477359" lon="-7.812015982344747">
        <ele>622.11000000000001</ele>
        <time>2025-04-30T11:01:22Z</time>
      </trkpt>
      <trkpt lat="43.526998031884432" lon="-7.813019966706634">
        <ele>622.11000000000001</ele>
        <time>2025-04-30T11:01:28Z</time>
      </trkpt>
      <trkpt lat="43.526275008916855" lon="-7.813866036012769">
        <ele>622.59000000000003</ele>
        <time>2025-04-30T11:01:32Z</time>
      </trkpt>
      <trkpt lat="43.526067975908518" lon="-7.814021017402411">
        <ele>622.59000000000003</ele>
        <time>2025-04-30T11:01:33Z</time>
      </trkpt>
      <trkpt lat="43.525861026719213" lon="-7.814172981306911">
        <ele>623.07000000000005</ele>
        <time>2025-04-30T11:01:34Z</time>
      </trkpt>
      <trkpt lat="43.525653993710876" lon="-7.814325029030442">
        <ele>623.07000000000005</ele>
        <time>2025-04-30T11:01:35Z</time>
      </trkpt>
      <trkpt lat="43.525450984016061" lon="-7.814412033185363">
        <ele>623.54999999999995</ele>
        <time>2025-04-30T11:01:36Z</time>
      </trkpt>
      <trkpt lat="43.525205980986357" lon="-7.814503982663155">
        <ele>623.54999999999995</ele>
        <time>2025-04-30T11:01:37Z</time>
      </trkpt>
      <trkpt lat="43.523433962836862" lon="-7.815119968727231">
        <ele>631.72000000000003</ele>
        <time>2025-04-30T11:01:45Z</time>
      </trkpt>
      <trkpt lat="43.523207986727357" lon="-7.81511602923274">
        <ele>633.16999999999996</ele>
        <time>2025-04-30T11:01:46Z</time>
      </trkpt>
      <trkpt lat="43.522985028102994" lon="-7.815111000090838">
        <ele>635.09000000000003</ele>
        <time>2025-04-30T11:01:47Z</time>
      </trkpt>
      <trkpt lat="43.522766008973122" lon="-7.815105970948935">
        <ele>637.00999999999999</ele>
        <time>2025-04-30T11:01:48Z</time>
      </trkpt>
      <trkpt lat="43.522544978186488" lon="-7.815102031454444">
        <ele>638.92999999999995</ele>
        <time>2025-04-30T11:01:49Z</time>
      </trkpt>
      <trkpt lat="43.522330988198519" lon="-7.815136983990669">
        <ele>640.86000000000001</ele>
        <time>2025-04-30T11:01:50Z</time>
      </trkpt>
      <trkpt lat="43.522125966846943" lon="-7.815220970660448">
        <ele>642.77999999999997</ele>
        <time>2025-04-30T11:01:51Z</time>
      </trkpt>
      <trkpt lat="43.521923962980509" lon="-7.815319038927555">
        <ele>644.70000000000005</ele>
        <time>2025-04-30T11:01:52Z</time>
      </trkpt>
      <trkpt lat="43.521751966327429" lon="-7.815477037802339">
        <ele>646.62</ele>
        <time>2025-04-30T11:01:53Z</time>
      </trkpt>
      <trkpt lat="43.521590027958155" lon="-7.815658003091812">
        <ele>648.54999999999995</ele>
        <time>2025-04-30T11:01:54Z</time>
      </trkpt>
      <trkpt lat="43.521456001326442" lon="-7.815875010564923">
        <ele>650.47000000000003</ele>
        <time>2025-04-30T11:01:55Z</time>
      </trkpt>
      <trkpt lat="43.521335972473025" lon="-7.816110039129853">
        <ele>652.38999999999999</ele>
        <time>2025-04-30T11:01:56Z</time>
      </trkpt>
      <trkpt lat="43.521212004125118" lon="-7.816353030502796">
        <ele>654.30999999999995</ele>
        <time>2025-04-30T11:01:57Z</time>
      </trkpt>
      <trkpt lat="43.520596018061042" lon="-7.817588020116091">
        <ele>662.00999999999999</ele>
        <time>2025-04-30T11:02:02Z</time>
      </trkpt>
      <trkpt lat="43.520426033064723" lon="-7.817777032032609">
        <ele>663.45000000000005</ele>
        <time>2025-04-30T11:02:03Z</time>
      </trkpt>
      <trkpt lat="43.520243978127837" lon="-7.817948022857308">
        <ele>665.37</ele>
        <time>2025-04-30T11:02:04Z</time>
      </trkpt>
      <trkpt lat="43.520041974261403" lon="-7.818064028397203">
        <ele>666.80999999999995</ele>
        <time>2025-04-30T11:02:05Z</time>
      </trkpt>
      <trkpt lat="43.519831001758575" lon="-7.818161007016897">
        <ele>668.73000000000002</ele>
        <time>2025-04-30T11:02:06Z</time>
      </trkpt>
      <trkpt lat="43.519617011770606" lon="-7.818218003958464">
        <ele>670.17999999999995</ele>
        <time>2025-04-30T11:02:07Z</time>
      </trkpt>
      <trkpt lat="43.519402015954256" lon="-7.818224960938096">
        <ele>672.10000000000002</ele>
        <time>2025-04-30T11:02:08Z</time>
      </trkpt>
      <trkpt lat="43.519188025966287" lon="-7.818186990916729">
        <ele>673.53999999999996</ele>
        <time>2025-04-30T11:02:09Z</time>
      </trkpt>
      <trkpt lat="43.51898199878633" lon="-7.818107027560473">
        <ele>674.98000000000002</ele>
        <time>2025-04-30T11:02:10Z</time>
      </trkpt>
      <trkpt lat="43.518781000748277" lon="-7.817981969565153">
        <ele>676.90999999999997</ele>
        <time>2025-04-30T11:02:11Z</time>
      </trkpt>
      <trkpt lat="43.518580002710223" lon="-7.817855989560485">
        <ele>678.35000000000002</ele>
        <time>2025-04-30T11:02:12Z</time>
      </trkpt>
      <trkpt lat="43.518377998843789" lon="-7.817730009555817">
        <ele>679.78999999999996</ele>
        <time>2025-04-30T11:02:13Z</time>
      </trkpt>
      <trkpt lat="43.518174989148974" lon="-7.817611992359161">
        <ele>681.23000000000002</ele>
        <time>2025-04-30T11:02:14Z</time>
      </trkpt>
      <trkpt lat="43.517965022474527" lon="-7.817521970719099">
        <ele>682.66999999999996</ele>
        <time>2025-04-30T11:02:15Z</time>
      </trkpt>
      <trkpt lat="43.517746003344655" lon="-7.817474026232958">
        <ele>684.12</ele>
        <time>2025-04-30T11:02:16Z</time>
      </trkpt>
      <trkpt lat="43.517524972558022" lon="-7.81743798404932">
        <ele>685.55999999999995</ele>
        <time>2025-04-30T11:02:17Z</time>
      </trkpt>
      <trkpt lat="43.517294973134995" lon="-7.817447958514094">
        <ele>687</ele>
        <time>2025-04-30T11:02:18Z</time>
      </trkpt>
      <trkpt lat="43.517061034217477" lon="-7.817459022626281">
        <ele>688.44000000000005</ele>
        <time>2025-04-30T11:02:19Z</time>
      </trkpt>
      <trkpt lat="43.51683396846056" lon="-7.817497998476028">
        <ele>689.39999999999998</ele>
        <time>2025-04-30T11:02:20Z</time>
      </trkpt>
      <trkpt lat="43.514525005593896" lon="-7.817727997899056">
        <ele>695.64999999999998</ele>
        <time>2025-04-30T11:02:30Z</time>
      </trkpt>
      <trkpt lat="43.512199027463794" lon="-7.817590031772852">
        <ele>685.08000000000004</ele>
        <time>2025-04-30T11:02:40Z</time>
      </trkpt>
      <trkpt lat="43.511981014162302" lon="-7.817620960995555">
        <ele>683.63</ele>
        <time>2025-04-30T11:02:41Z</time>
      </trkpt>
      <trkpt lat="43.511759983375669" lon="-7.817698996514082">
        <ele>682.19000000000005</ele>
        <time>2025-04-30T11:02:42Z</time>
      </trkpt>
      <trkpt lat="43.511545993387699" lon="-7.817794969305396">
        <ele>680.75</ele>
        <time>2025-04-30T11:02:43Z</time>
      </trkpt>
      <trkpt lat="43.510255012661219" lon="-7.818523021414876">
        <ele>670.17999999999995</ele>
        <time>2025-04-30T11:02:49Z</time>
      </trkpt>
      <trkpt lat="43.510025013238192" lon="-7.818563003093004">
        <ele>667.76999999999998</ele>
        <time>2025-04-30T11:02:50Z</time>
      </trkpt>
      <trkpt lat="43.509805994108319" lon="-7.818556968122721">
        <ele>665.85000000000002</ele>
        <time>2025-04-30T11:02:51Z</time>
      </trkpt>
      <trkpt lat="43.509584041312337" lon="-7.818528972566128">
        <ele>663.92999999999995</ele>
        <time>2025-04-30T11:02:52Z</time>
      </trkpt>
      <trkpt lat="43.509366028010845" lon="-7.818502988666296">
        <ele>662.00999999999999</ele>
        <time>2025-04-30T11:02:53Z</time>
      </trkpt>
      <trkpt lat="43.508924972265959" lon="-7.818484967574477">
        <ele>658.15999999999997</ele>
        <time>2025-04-30T11:02:55Z</time>
      </trkpt>
      <trkpt lat="43.508696984499693" lon="-7.81851002946496">
        <ele>656.24000000000001</ele>
        <time>2025-04-30T11:02:56Z</time>
      </trkpt>
      <trkpt lat="43.50847402587533" lon="-7.818612037226558">
        <ele>654.30999999999995</ele>
        <time>2025-04-30T11:02:57Z</time>
      </trkpt>
      <trkpt lat="43.508262969553471" lon="-7.818751009181142">
        <ele>652.87</ele>
        <time>2025-04-30T11:02:58Z</time>
      </trkpt>
      <trkpt lat="43.508068006485701" lon="-7.818914959207177">
        <ele>650.47000000000003</ele>
        <time>2025-04-30T11:02:59Z</time>
      </trkpt>
      <trkpt lat="43.507875977084041" lon="-7.819075975567102">
        <ele>648.54999999999995</ele>
        <time>2025-04-30T11:03:00Z</time>
      </trkpt>
      <trkpt lat="43.507676990702748" lon="-7.819218970835209">
        <ele>646.62</ele>
        <time>2025-04-30T11:03:01Z</time>
      </trkpt>
      <trkpt lat="43.507470963522792" lon="-7.819354003295302">
        <ele>644.70000000000005</ele>
        <time>2025-04-30T11:03:02Z</time>
      </trkpt>
      <trkpt lat="43.507244987413287" lon="-7.819424998015165">
        <ele>642.77999999999997</ele>
        <time>2025-04-30T11:03:03Z</time>
      </trkpt>
      <trkpt lat="43.507022028788924" lon="-7.81947897747159">
        <ele>640.86000000000001</ele>
        <time>2025-04-30T11:03:04Z</time>
      </trkpt>
      <trkpt lat="43.506797980517149" lon="-7.819490041583777">
        <ele>638.45000000000005</ele>
        <time>2025-04-30T11:03:05Z</time>
      </trkpt>
      <trkpt lat="43.506578961387277" lon="-7.819506973028183">
        <ele>636.52999999999997</ele>
        <time>2025-04-30T11:03:06Z</time>
      </trkpt>
      <trkpt lat="43.506362959742546" lon="-7.819547960534692">
        <ele>635.09000000000003</ele>
        <time>2025-04-30T11:03:07Z</time>
      </trkpt>
      <trkpt lat="43.506143018603325" lon="-7.819588026031852">
        <ele>633.16999999999996</ele>
        <time>2025-04-30T11:03:08Z</time>
      </trkpt>
      <trkpt lat="43.505926011130214" lon="-7.819667989388108">
        <ele>631.24000000000001</ele>
        <time>2025-04-30T11:03:09Z</time>
      </trkpt>
      <trkpt lat="43.505713026970625" lon="-7.819775026291609">
        <ele>629.32000000000005</ele>
        <time>2025-04-30T11:03:10Z</time>
      </trkpt>
      <trkpt lat="43.505499958992004" lon="-7.819881979376078">
        <ele>627.39999999999998</ele>
        <time>2025-04-30T11:03:11Z</time>
      </trkpt>
      <trkpt lat="43.503592992201447" lon="-7.821371024474502">
        <ele>609.13</ele>
        <time>2025-04-30T11:03:20Z</time>
      </trkpt>
      <trkpt lat="43.502981029450893" lon="-7.821976030245423">
        <ele>602.88</ele>
        <time>2025-04-30T11:03:23Z</time>
      </trkpt>
      <trkpt lat="43.502808026969433" lon="-7.822217009961605">
        <ele>600.48000000000002</ele>
        <time>2025-04-30T11:03:24Z</time>
      </trkpt>
      <trkpt lat="43.502650028094649" lon="-7.822484979405999">
        <ele>598.55999999999995</ele>
        <time>2025-04-30T11:03:25Z</time>
      </trkpt>
      <trkpt lat="43.502506026998162" lon="-7.82276501879096">
        <ele>596.63999999999999</ele>
        <time>2025-04-30T11:03:26Z</time>
      </trkpt>
      <trkpt lat="43.50237300619483" lon="-7.823058972135186">
        <ele>594.23000000000002</ele>
        <time>2025-04-30T11:03:27Z</time>
      </trkpt>
      <trkpt lat="43.502274015918374" lon="-7.823385028168559">
        <ele>592.30999999999995</ele>
        <time>2025-04-30T11:03:28Z</time>
      </trkpt>
      <trkpt lat="43.502192040905356" lon="-7.823719969019294">
        <ele>589.90999999999997</ele>
        <time>2025-04-30T11:03:29Z</time>
      </trkpt>
      <trkpt lat="43.502135965973139" lon="-7.824063040316105">
        <ele>587.98000000000002</ele>
        <time>2025-04-30T11:03:30Z</time>
      </trkpt>
      <trkpt lat="43.502078969031572" lon="-7.824407033622265">
        <ele>585.58000000000004</ele>
        <time>2025-04-30T11:03:31Z</time>
      </trkpt>
      <trkpt lat="43.501487961038947" lon="-7.827372970059514">
        <ele>569.24000000000001</ele>
        <time>2025-04-30T11:03:40Z</time>
      </trkpt>
      <trkpt lat="43.500576009973884" lon="-7.828871989622712">
        <ele>560.59000000000003</ele>
        <time>2025-04-30T11:03:46Z</time>
      </trkpt>
      <trkpt lat="43.499288968741894" lon="-7.829844038933516">
        <ele>555.29999999999995</ele>
        <time>2025-04-30T11:03:52Z</time>
      </trkpt>
      <trkpt lat="43.498384980484843" lon="-7.8304130025208">
        <ele>553.86000000000001</ele>
        <time>2025-04-30T11:03:56Z</time>
      </trkpt>
      <trkpt lat="43.498149029910564" lon="-7.830495983362198">
        <ele>554.34000000000003</ele>
        <time>2025-04-30T11:03:57Z</time>
      </trkpt>
      <trkpt lat="43.497909978032112" lon="-7.830535965040326">
        <ele>554.34000000000003</ele>
        <time>2025-04-30T11:03:58Z</time>
      </trkpt>
      <trkpt lat="43.496359996497631" lon="-7.830665968358517">
        <ele>561.54999999999995</ele>
        <time>2025-04-30T11:04:05Z</time>
      </trkpt>
      <trkpt lat="43.495116960257292" lon="-7.831482030451298">
        <ele>568.75999999999999</ele>
        <time>2025-04-30T11:04:11Z</time>
      </trkpt>
      <trkpt lat="43.493533032014966" lon="-7.83284199424088">
        <ele>571.63999999999999</ele>
        <time>2025-04-30T11:04:19Z</time>
      </trkpt>
      <trkpt lat="43.492419999092817" lon="-7.834154013544321">
        <ele>570.67999999999995</ele>
        <time>2025-04-30T11:04:25Z</time>
      </trkpt>
      <trkpt lat="43.492225036025047" lon="-7.834345959126949">
        <ele>570.67999999999995</ele>
        <time>2025-04-30T11:04:26Z</time>
      </trkpt>
      <trkpt lat="43.492011968046427" lon="-7.834498006850481">
        <ele>570.20000000000005</ele>
        <time>2025-04-30T11:04:27Z</time>
      </trkpt>
      <trkpt lat="43.490251014009118" lon="-7.835630988702178">
        <ele>568.27999999999997</ele>
        <time>2025-04-30T11:04:35Z</time>
      </trkpt>
      <trkpt lat="43.487491020932794" lon="-7.837626971304417">
        <ele>565.38999999999999</ele>
        <time>2025-04-30T11:04:48Z</time>
      </trkpt>
      <trkpt lat="43.485419014468789" lon="-7.839320031926036">
        <ele>553.86000000000001</ele>
        <time>2025-04-30T11:04:58Z</time>
      </trkpt>
      <trkpt lat="43.485245006158948" lon="-7.839532010257244">
        <ele>552.89999999999998</ele>
        <time>2025-04-30T11:04:59Z</time>
      </trkpt>
      <trkpt lat="43.484963038936257" lon="-7.840053029358387">
        <ele>550.49000000000001</ele>
        <time>2025-04-30T11:05:01Z</time>
      </trkpt>
      <trkpt lat="43.48481803201139" lon="-7.840323010459542">
        <ele>549.04999999999995</ele>
        <time>2025-04-30T11:05:02Z</time>
      </trkpt>
      <trkpt lat="43.484571017324924" lon="-7.840907983481884">
        <ele>546.64999999999998</ele>
        <time>2025-04-30T11:05:04Z</time>
      </trkpt>
      <trkpt lat="43.484384017065167" lon="-7.841540984809399">
        <ele>544.24000000000001</ele>
        <time>2025-04-30T11:05:06Z</time>
      </trkpt>
      <trkpt lat="43.484324002638459" lon="-7.841868968680501">
        <ele>542.79999999999995</ele>
        <time>2025-04-30T11:05:07Z</time>
      </trkpt>
      <trkpt lat="43.484263988211751" lon="-7.842197036370635">
        <ele>541.84000000000003</ele>
        <time>2025-04-30T11:05:08Z</time>
      </trkpt>
      <trkpt lat="43.484245967119932" lon="-7.84253197722137">
        <ele>540.39999999999998</ele>
        <time>2025-04-30T11:05:09Z</time>
      </trkpt>
      <trkpt lat="43.484238004311919" lon="-7.842865996062756">
        <ele>538.96000000000004</ele>
        <time>2025-04-30T11:05:10Z</time>
      </trkpt>
      <trkpt lat="43.484183019027114" lon="-7.845123996958137">
        <ele>533.66999999999996</ele>
        <time>2025-04-30T11:05:17Z</time>
      </trkpt>
      <trkpt lat="43.484129039570689" lon="-7.845448041334748">
        <ele>533.19000000000005</ele>
        <time>2025-04-30T11:05:18Z</time>
      </trkpt>
      <trkpt lat="43.484071036800742" lon="-7.845770996063948">
        <ele>532.71000000000004</ele>
        <time>2025-04-30T11:05:19Z</time>
      </trkpt>
      <trkpt lat="43.48398101516068" lon="-7.846072996035218">
        <ele>532.71000000000004</ele>
        <time>2025-04-30T11:05:20Z</time>
      </trkpt>
      <trkpt lat="43.483901973813772" lon="-7.846366027370095">
        <ele>532.71000000000004</ele>
        <time>2025-04-30T11:05:21Z</time>
      </trkpt>
      <trkpt lat="43.483811030164361" lon="-7.846637014299631">
        <ele>532.23000000000002</ele>
        <time>2025-04-30T11:05:22Z</time>
      </trkpt>
      <trkpt lat="43.483715979382396" lon="-7.846899032592773">
        <ele>532.23000000000002</ele>
        <time>2025-04-30T11:05:23Z</time>
      </trkpt>
      <trkpt lat="43.483341978862882" lon="-7.847649967297912">
        <ele>531.26999999999998</ele>
        <time>2025-04-30T11:05:27Z</time>
      </trkpt>
      <trkpt lat="43.483256986364722" lon="-7.847791034728289">
        <ele>530.78999999999996</ele>
        <time>2025-04-30T11:05:28Z</time>
      </trkpt>
      <trkpt lat="43.483136035501957" lon="-7.847929000854492">
        <ele>530.78999999999996</ele>
        <time>2025-04-30T11:05:29Z</time>
      </trkpt>
      <trkpt lat="43.482766980305314" lon="-7.848240975290537">
        <ele>528.86000000000001</ele>
        <time>2025-04-30T11:05:32Z</time>
      </trkpt>
      <trkpt lat="43.482577968388796" lon="-7.848380031064153">
        <ele>527.89999999999998</ele>
        <time>2025-04-30T11:05:33Z</time>
      </trkpt>
      <trkpt lat="43.482406977564096" lon="-7.848465023562312">
        <ele>526.94000000000005</ele>
        <time>2025-04-30T11:05:34Z</time>
      </trkpt>
      <trkpt lat="43.481011977419257" lon="-7.849215036258102">
        <ele>519.25</ele>
        <time>2025-04-30T11:05:40Z</time>
      </trkpt>
      <trkpt lat="43.47861098125577" lon="-7.850476009771228">
        <ele>500.01999999999998</ele>
        <time>2025-04-30T11:05:50Z</time>
      </trkpt>
      <trkpt lat="43.476743996143341" lon="-7.851335993036628">
        <ele>486.56</ele>
        <time>2025-04-30T11:05:58Z</time>
      </trkpt>
      <trkpt lat="43.474954040721059" lon="-7.852468974888325">
        <ele>479.35000000000002</ele>
        <time>2025-04-30T11:06:06Z</time>
      </trkpt>
      <trkpt lat="43.473752997815609" lon="-7.853539008647203">
        <ele>470.22000000000003</ele>
        <time>2025-04-30T11:06:12Z</time>
      </trkpt>
      <trkpt lat="43.47354001365602" lon="-7.85368200391531">
        <ele>468.30000000000001</ele>
        <time>2025-04-30T11:06:13Z</time>
      </trkpt>
      <trkpt lat="43.471687026321888" lon="-7.854383988305926">
        <ele>452.92000000000002</ele>
        <time>2025-04-30T11:06:21Z</time>
      </trkpt>
      <trkpt lat="43.468482038006186" lon="-7.855513030663133">
        <ele>428.39999999999998</ele>
        <time>2025-04-30T11:06:35Z</time>
      </trkpt>
      <trkpt lat="43.464599959552288" lon="-7.856874000281096">
        <ele>396.68000000000001</ele>
        <time>2025-04-30T11:06:52Z</time>
      </trkpt>
      <trkpt lat="43.462908994406462" lon="-7.857911009341478">
        <ele>385.14999999999998</ele>
        <time>2025-04-30T11:07:00Z</time>
      </trkpt>
      <trkpt lat="43.460932960733771" lon="-7.859651008620858">
        <ele>374.08999999999997</ele>
        <time>2025-04-30T11:07:10Z</time>
      </trkpt>
      <trkpt lat="43.458574963733554" lon="-7.861780012026429">
        <ele>364.95999999999998</ele>
        <time>2025-04-30T11:07:22Z</time>
      </trkpt>
      <trkpt lat="43.456014040857553" lon="-7.864094004034996">
        <ele>362.06999999999999</ele>
        <time>2025-04-30T11:07:35Z</time>
      </trkpt>
      <trkpt lat="43.454679977148771" lon="-7.865766026079655">
        <ele>362.06999999999999</ele>
        <time>2025-04-30T11:07:43Z</time>
      </trkpt>
      <trkpt lat="43.453737013041973" lon="-7.867158008739352">
        <ele>361.11000000000001</ele>
        <time>2025-04-30T11:07:51Z</time>
      </trkpt>
      <trkpt lat="43.453134018927813" lon="-7.867654971778393">
        <ele>360.63</ele>
        <time>2025-04-30T11:07:57Z</time>
      </trkpt>
      <trkpt lat="43.453052965924144" lon="-7.86790600977838">
        <ele>360.63</ele>
        <time>2025-04-30T11:07:58Z</time>
      </trkpt>
      <trkpt lat="43.453037962317467" lon="-7.867935011163354">
        <ele>360.14999999999998</ele>
        <time>2025-04-30T11:07:59Z</time>
      </trkpt>
      <trkpt lat="43.452928997576237" lon="-7.868001982569695">
        <ele>360.14999999999998</ele>
        <time>2025-04-30T11:08:00Z</time>
      </trkpt>
      <trkpt lat="43.452844005078077" lon="-7.868012962862849">
        <ele>360.14999999999998</ele>
        <time>2025-04-30T11:08:01Z</time>
      </trkpt>
      <trkpt lat="43.452739985659719" lon="-7.867909027263522">
        <ele>360.14999999999998</ele>
        <time>2025-04-30T11:08:02Z</time>
      </trkpt>
      <trkpt lat="43.452642001211643" lon="-7.867929982021451">
        <ele>360.14999999999998</ele>
        <time>2025-04-30T11:08:03Z</time>
      </trkpt>
      <trkpt lat="43.452533036470413" lon="-7.867955965921283">
        <ele>360.14999999999998</ele>
        <time>2025-04-30T11:08:04Z</time>
      </trkpt>
      <trkpt lat="43.452417030930519" lon="-7.867985973134637">
        <ele>360.14999999999998</ele>
        <time>2025-04-30T11:08:05Z</time>
      </trkpt>
      <trkpt lat="43.452289961278439" lon="-7.868018997833133">
        <ele>359.67000000000002</ele>
        <time>2025-04-30T11:08:06Z</time>
      </trkpt>
      <trkpt lat="43.450988000258803" lon="-7.868352010846138">
        <ele>359.19</ele>
        <time>2025-04-30T11:08:14Z</time>
      </trkpt>
      <trkpt lat="43.449152028188109" lon="-7.868615034967661">
        <ele>359.19</ele>
        <time>2025-04-30T11:08:24Z</time>
      </trkpt>
      <trkpt lat="43.447790974751115" lon="-7.868169033899903">
        <ele>356.79000000000002</ele>
        <time>2025-04-30T11:08:32Z</time>
      </trkpt>
      <trkpt lat="43.446765029802918" lon="-7.86782001145184">
        <ele>351.98000000000002</ele>
        <time>2025-04-30T11:08:40Z</time>
      </trkpt>
      <trkpt lat="43.446563025936484" lon="-7.867695959284902">
        <ele>351.5</ele>
        <time>2025-04-30T11:08:42Z</time>
      </trkpt>
      <trkpt lat="43.445404982194304" lon="-7.867184998467565">
        <ele>350.06</ele>
        <time>2025-04-30T11:08:50Z</time>
      </trkpt>
      <trkpt lat="43.444466963410378" lon="-7.866888027638197">
        <ele>349.57999999999998</ele>
        <time>2025-04-30T11:08:56Z</time>
      </trkpt>
      <trkpt lat="43.44335300847888" lon="-7.867019036784768">
        <ele>348.13</ele>
        <time>2025-04-30T11:09:04Z</time>
      </trkpt>
      <trkpt lat="43.442659992724657" lon="-7.867259010672569">
        <ele>347.64999999999998</ele>
        <time>2025-04-30T11:09:09Z</time>
      </trkpt>
      <trkpt lat="43.442550022155046" lon="-7.867374010384083">
        <ele>347.64999999999998</ele>
        <time>2025-04-30T11:09:10Z</time>
      </trkpt>
      <trkpt lat="43.44245002605021" lon="-7.867504013702273">
        <ele>347.64999999999998</ele>
        <time>2025-04-30T11:09:11Z</time>
      </trkpt>
      <trkpt lat="43.442360004410148" lon="-7.86764801479876">
        <ele>347.64999999999998</ele>
        <time>2025-04-30T11:09:12Z</time>
      </trkpt>
      <trkpt lat="43.442292027175426" lon="-7.867812970653176">
        <ele>347.17000000000002</ele>
        <time>2025-04-30T11:09:13Z</time>
      </trkpt>
      <trkpt lat="43.442241987213492" lon="-7.867987984791398">
        <ele>347.64999999999998</ele>
        <time>2025-04-30T11:09:14Z</time>
      </trkpt>
      <trkpt lat="43.442190019413829" lon="-7.868170961737633">
        <ele>347.64999999999998</ele>
        <time>2025-04-30T11:09:15Z</time>
      </trkpt>
      <trkpt lat="43.441701019182801" lon="-7.869815994054079">
        <ele>346.20999999999998</ele>
        <time>2025-04-30T11:09:22Z</time>
      </trkpt>
      <trkpt lat="43.440763000398874" lon="-7.872862983494997">
        <ele>341.88999999999999</ele>
        <time>2025-04-30T11:09:33Z</time>
      </trkpt>
      <trkpt lat="43.43957100994885" lon="-7.876009969040752">
        <ele>343.32999999999998</ele>
        <time>2025-04-30T11:09:45Z</time>
      </trkpt>
      <trkpt lat="43.438700968399644" lon="-7.878221031278372">
        <ele>347.64999999999998</ele>
        <time>2025-04-30T11:09:54Z</time>
      </trkpt>
      <trkpt lat="43.438526038080454" lon="-7.878888985142112">
        <ele>348.13</ele>
        <time>2025-04-30T11:09:57Z</time>
      </trkpt>
      <trkpt lat="43.438526038080454" lon="-7.879117978736758">
        <ele>347.64999999999998</ele>
        <time>2025-04-30T11:09:58Z</time>
      </trkpt>
      <trkpt lat="43.438526038080454" lon="-7.879300033673644">
        <ele>346.69</ele>
        <time>2025-04-30T11:09:59Z</time>
      </trkpt>
      <trkpt lat="43.438578005880117" lon="-7.879539001733065">
        <ele>346.20999999999998</ele>
        <time>2025-04-30T11:10:00Z</time>
      </trkpt>
      <trkpt lat="43.438624022528529" lon="-7.879753997549415">
        <ele>345.25</ele>
        <time>2025-04-30T11:10:01Z</time>
      </trkpt>
      <trkpt lat="43.438699040561914" lon="-7.879910990595818">
        <ele>344.29000000000002</ele>
        <time>2025-04-30T11:10:02Z</time>
      </trkpt>
      <trkpt lat="43.438799036666751" lon="-7.88008701056242">
        <ele>343.32999999999998</ele>
        <time>2025-04-30T11:10:03Z</time>
      </trkpt>
      <trkpt lat="43.438900038599968" lon="-7.880265964195132">
        <ele>342.37</ele>
        <time>2025-04-30T11:10:04Z</time>
      </trkpt>
      <trkpt lat="43.439009003341198" lon="-7.880405019968748">
        <ele>341.88999999999999</ele>
        <time>2025-04-30T11:10:05Z</time>
      </trkpt>
      <trkpt lat="43.439143029972911" lon="-7.880569975823164">
        <ele>341.41000000000003</ele>
        <time>2025-04-30T11:10:06Z</time>
      </trkpt>
      <trkpt lat="43.440319010987878" lon="-7.881953995674849">
        <ele>339.95999999999998</ele>
        <time>2025-04-30T11:10:15Z</time>
      </trkpt>
      <trkpt lat="43.440597038716078" lon="-7.88227703422308">
        <ele>339.48000000000002</ele>
        <time>2025-04-30T11:10:18Z</time>
      </trkpt>
      <trkpt lat="43.440657975152135" lon="-7.882349034771323">
        <ele>339.48000000000002</ele>
        <time>2025-04-30T11:10:19Z</time>
      </trkpt>
      <trkpt lat="43.440721007063985" lon="-7.88247300311923">
        <ele>340.44</ele>
        <time>2025-04-30T11:10:20Z</time>
      </trkpt>
      <trkpt lat="43.440885962918401" lon="-7.883034003898501">
        <ele>342.85000000000002</ele>
        <time>2025-04-30T11:10:24Z</time>
      </trkpt>
      <trkpt lat="43.440885962918401" lon="-7.883034003898501">
        <ele>343.32999999999998</ele>
        <time>2025-04-30T11:10:25Z</time>
      </trkpt>
      <trkpt lat="43.440937008708715" lon="-7.88316098973155">
        <ele>343.81</ele>
        <time>2025-04-30T11:10:26Z</time>
      </trkpt>
      <trkpt lat="43.440991993993521" lon="-7.883298033848405">
        <ele>343.81</ele>
        <time>2025-04-30T11:10:27Z</time>
      </trkpt>
      <trkpt lat="43.441004985943437" lon="-7.883478999137878">
        <ele>344.29000000000002</ele>
        <time>2025-04-30T11:10:28Z</time>
      </trkpt>
      <trkpt lat="43.440992999821901" lon="-7.883613025769591">
        <ele>345.25</ele>
        <time>2025-04-30T11:10:29Z</time>
      </trkpt>
      <trkpt lat="43.44092502258718" lon="-7.883770018815994">
        <ele>345.73000000000002</ele>
        <time>2025-04-30T11:10:30Z</time>
      </trkpt>
      <trkpt lat="43.440867019817233" lon="-7.883903039619327">
        <ele>345.73000000000002</ele>
        <time>2025-04-30T11:10:31Z</time>
      </trkpt>
      <trkpt lat="43.440842963755131" lon="-7.883957019075751">
        <ele>346.20999999999998</ele>
        <time>2025-04-30T11:10:32Z</time>
      </trkpt>
      <trkpt lat="43.440707009285688" lon="-7.884033964946866">
        <ele>346.69</ele>
        <time>2025-04-30T11:10:33Z</time>
      </trkpt>
      <trkpt lat="43.440586980432272" lon="-7.884103031829">
        <ele>346.69</ele>
        <time>2025-04-30T11:10:34Z</time>
      </trkpt>
      <trkpt lat="43.440328985452652" lon="-7.88417000323534">
        <ele>347.17000000000002</ele>
        <time>2025-04-30T11:10:36Z</time>
      </trkpt>
      <trkpt lat="43.440267965197563" lon="-7.884250972419977">
        <ele>348.13</ele>
        <time>2025-04-30T11:10:37Z</time>
      </trkpt>
      <trkpt lat="43.440246004611254" lon="-7.88442799821496">
        <ele>348.62</ele>
        <time>2025-04-30T11:10:38Z</time>
      </trkpt>
      <trkpt lat="43.440232006832957" lon="-7.884560013189912">
        <ele>348.62</ele>
        <time>2025-04-30T11:10:39Z</time>
      </trkpt>
      <trkpt lat="43.440240975469351" lon="-7.884739972651005">
        <ele>349.10000000000002</ele>
        <time>2025-04-30T11:10:40Z</time>
      </trkpt>
      <trkpt lat="43.44028296880424" lon="-7.884897971525788">
        <ele>350.06</ele>
        <time>2025-04-30T11:10:41Z</time>
      </trkpt>
      <trkpt lat="43.440328985452652" lon="-7.885070974007249">
        <ele>350.54000000000002</ele>
        <time>2025-04-30T11:10:42Z</time>
      </trkpt>
      <trkpt lat="43.440803987905383" lon="-7.886850032955408">
        <ele>359.19</ele>
        <time>2025-04-30T11:10:50Z</time>
      </trkpt>
      <trkpt lat="43.44120598398149" lon="-7.889165030792356">
        <ele>372.64999999999998</ele>
        <time>2025-04-30T11:10:58Z</time>
      </trkpt>
      <trkpt lat="43.441258035600185" lon="-7.891483968123794">
        <ele>380.81999999999999</ele>
        <time>2025-04-30T11:11:05Z</time>
      </trkpt>
      <trkpt lat="43.440969027578831" lon="-7.894219988957048">
        <ele>388.99000000000001</ele>
        <time>2025-04-30T11:11:13Z</time>
      </trkpt>
      <trkpt lat="43.441141024231911" lon="-7.896193005144596">
        <ele>394.27999999999997</ele>
        <time>2025-04-30T11:11:19Z</time>
      </trkpt>
      <trkpt lat="43.441788023337722" lon="-7.897967034950852">
        <ele>401.49000000000001</ele>
        <time>2025-04-30T11:11:25Z</time>
      </trkpt>
      <trkpt lat="43.442666027694941" lon="-7.899862015619874">
        <ele>412.06</ele>
        <time>2025-04-30T11:11:32Z</time>
      </trkpt>
      <trkpt lat="43.443001974374056" lon="-7.901707962155342">
        <ele>417.82999999999998</ele>
        <time>2025-04-30T11:11:38Z</time>
      </trkpt>
      <trkpt lat="43.442813968285918" lon="-7.903683995828033">
        <ele>416.38999999999999</ele>
        <time>2025-04-30T11:11:44Z</time>
      </trkpt>
      <trkpt lat="43.442645994946361" lon="-7.906113993376494">
        <ele>411.10000000000002</ele>
        <time>2025-04-30T11:11:51Z</time>
      </trkpt>
      <trkpt lat="43.442728975787759" lon="-7.906783958896995">
        <ele>409.18000000000001</ele>
        <time>2025-04-30T11:11:53Z</time>
      </trkpt>
      <trkpt lat="43.443311015143991" lon="-7.908898964524269">
        <ele>401.97000000000003</ele>
        <time>2025-04-30T11:12:00Z</time>
      </trkpt>
      <trkpt lat="43.443921972066164" lon="-7.911050012335181">
        <ele>395.24000000000001</ele>
        <time>2025-04-30T11:12:07Z</time>
      </trkpt>
      <trkpt lat="43.44410796649754" lon="-7.913836995139718">
        <ele>389.47000000000003</ele>
        <time>2025-04-30T11:12:15Z</time>
      </trkpt>
      <trkpt lat="43.444229001179338" lon="-7.917271982878447">
        <ele>391.87</ele>
        <time>2025-04-30T11:12:26Z</time>
      </trkpt>
      <trkpt lat="43.44423595815897" lon="-7.921020034700632">
        <ele>398.60000000000002</ele>
        <time>2025-04-30T11:12:38Z</time>
      </trkpt>
      <trkpt lat="43.443714017048478" lon="-7.922868998721242">
        <ele>403.41000000000003</ele>
        <time>2025-04-30T11:12:44Z</time>
      </trkpt>
      <trkpt lat="43.442512974143028" lon="-7.925368985161185">
        <ele>409.18000000000001</ele>
        <time>2025-04-30T11:12:53Z</time>
      </trkpt>
      <trkpt lat="43.44171904027462" lon="-7.927666967734695">
        <ele>414.94999999999999</ele>
        <time>2025-04-30T11:13:01Z</time>
      </trkpt>
      <trkpt lat="43.441494992002845" lon="-7.929948018863797">
        <ele>424.07999999999998</ele>
        <time>2025-04-30T11:13:08Z</time>
      </trkpt>
      <trkpt lat="43.441271027550101" lon="-7.932887971401215">
        <ele>439.94</ele>
        <time>2025-04-30T11:13:17Z</time>
      </trkpt>
      <trkpt lat="43.440956035628915" lon="-7.937420988455415">
        <ele>464.44999999999999</ele>
        <time>2025-04-30T11:13:31Z</time>
      </trkpt>
      <trkpt lat="43.440912030637264" lon="-7.938401000574231">
        <ele>470.69999999999999</ele>
        <time>2025-04-30T11:13:34Z</time>
      </trkpt>
      <trkpt lat="43.440929967910051" lon="-7.938725966960192">
        <ele>472.13999999999999</ele>
        <time>2025-04-30T11:13:35Z</time>
      </trkpt>
      <trkpt lat="43.440961986780167" lon="-7.939047999680042">
        <ele>474.06999999999999</ele>
        <time>2025-04-30T11:13:36Z</time>
      </trkpt>
      <trkpt lat="43.441029964014888" lon="-7.939360979944468">
        <ele>475.99000000000001</ele>
        <time>2025-04-30T11:13:37Z</time>
      </trkpt>
      <trkpt lat="43.441113028675318" lon="-7.93966599740088">
        <ele>477.43000000000001</ele>
        <time>2025-04-30T11:13:38Z</time>
      </trkpt>
      <trkpt lat="43.441200032830238" lon="-7.939969003200531">
        <ele>479.35000000000002</ele>
        <time>2025-04-30T11:13:39Z</time>
      </trkpt>
      <trkpt lat="43.441324001178145" lon="-7.940244013443589">
        <ele>480.80000000000001</ele>
        <time>2025-04-30T11:13:40Z</time>
      </trkpt>
      <trkpt lat="43.441446963697672" lon="-7.940517012029886">
        <ele>482.24000000000001</ele>
        <time>2025-04-30T11:13:41Z</time>
      </trkpt>
      <trkpt lat="43.441599011421204" lon="-7.940757991746068">
        <ele>483.68000000000001</ele>
        <time>2025-04-30T11:13:42Z</time>
      </trkpt>
      <trkpt lat="43.441767990589142" lon="-7.940987991169095">
        <ele>484.63999999999999</ele>
        <time>2025-04-30T11:13:43Z</time>
      </trkpt>
      <trkpt lat="43.441937975585461" lon="-7.941221008077264">
        <ele>485.60000000000002</ele>
        <time>2025-04-30T11:13:44Z</time>
      </trkpt>
      <trkpt lat="43.442142996937037" lon="-7.941396022215486">
        <ele>486.56</ele>
        <time>2025-04-30T11:13:45Z</time>
      </trkpt>
      <trkpt lat="43.442352041602135" lon="-7.941562989726663">
        <ele>487.52999999999997</ele>
        <time>2025-04-30T11:13:46Z</time>
      </trkpt>
      <trkpt lat="43.442562008276582" lon="-7.94173096306622">
        <ele>488.49000000000001</ele>
        <time>2025-04-30T11:13:47Z</time>
      </trkpt>
      <trkpt lat="43.444646000862122" lon="-7.943335007876158">
        <ele>490.88999999999999</ele>
        <time>2025-04-30T11:13:57Z</time>
      </trkpt>
      <trkpt lat="43.444824032485485" lon="-7.943570036441088">
        <ele>490.88999999999999</ele>
        <time>2025-04-30T11:13:58Z</time>
      </trkpt>
      <trkpt lat="43.444999968633056" lon="-7.94381101615727">
        <ele>490.88999999999999</ele>
        <time>2025-04-30T11:13:59Z</time>
      </trkpt>
      <trkpt lat="43.445139024406672" lon="-7.944089965894818">
        <ele>491.37</ele>
        <time>2025-04-30T11:14:00Z</time>
      </trkpt>
      <trkpt lat="43.445252012461424" lon="-7.944382997229695">
        <ele>491.37</ele>
        <time>2025-04-30T11:14:01Z</time>
      </trkpt>
      <trkpt lat="43.445348991081119" lon="-7.944703018292785">
        <ele>491.37</ele>
        <time>2025-04-30T11:14:02Z</time>
      </trkpt>
      <trkpt lat="43.44541403464973" lon="-7.944981968030334">
        <ele>490.88999999999999</ele>
        <time>2025-04-30T11:14:03Z</time>
      </trkpt>
      <trkpt lat="43.445443036034703" lon="-7.945299977436662">
        <ele>491.37</ele>
        <time>2025-04-30T11:14:04Z</time>
      </trkpt>
      <trkpt lat="43.445468014106154" lon="-7.945622010156512">
        <ele>491.37</ele>
        <time>2025-04-30T11:14:05Z</time>
      </trkpt>
      <trkpt lat="43.445461979135871" lon="-7.945943959057331">
        <ele>491.37</ele>
        <time>2025-04-30T11:14:06Z</time>
      </trkpt>
      <trkpt lat="43.445434989407659" lon="-7.946270015090704">
        <ele>491.37</ele>
        <time>2025-04-30T11:14:07Z</time>
      </trkpt>
      <trkpt lat="43.445381009951234" lon="-7.94658500701189">
        <ele>491.37</ele>
        <time>2025-04-30T11:14:08Z</time>
      </trkpt>
      <trkpt lat="43.445327030494809" lon="-7.946901004761457">
        <ele>491.85000000000002</ele>
        <time>2025-04-30T11:14:09Z</time>
      </trkpt>
      <trkpt lat="43.444946995005012" lon="-7.948833033442497">
        <ele>491.37</ele>
        <time>2025-04-30T11:14:16Z</time>
      </trkpt>
      <trkpt lat="43.444558996707201" lon="-7.950707981362939">
        <ele>491.85000000000002</ele>
        <time>2025-04-30T11:14:25Z</time>
      </trkpt>
      <trkpt lat="43.444364033639431" lon="-7.952561974525452">
        <ele>494.25999999999999</ele>
        <time>2025-04-30T11:14:33Z</time>
      </trkpt>
      <trkpt lat="43.4445780236274" lon="-7.954603973776102">
        <ele>496.18000000000001</ele>
        <time>2025-04-30T11:14:40Z</time>
      </trkpt>
      <trkpt lat="43.444926962256432" lon="-7.957407971844077">
        <ele>504.35000000000002</ele>
        <time>2025-04-30T11:14:50Z</time>
      </trkpt>
      <trkpt lat="43.444698974490166" lon="-7.959909969940782">
        <ele>508.67000000000002</ele>
        <time>2025-04-30T11:14:58Z</time>
      </trkpt>
      <trkpt lat="43.443872015923262" lon="-7.963657015934587">
        <ele>508.19</ele>
        <time>2025-04-30T11:15:10Z</time>
      </trkpt>
      <trkpt lat="43.443075986579061" lon="-7.965630032122135">
        <ele>508.19</ele>
        <time>2025-04-30T11:15:17Z</time>
      </trkpt>
      <trkpt lat="43.442144002765417" lon="-7.966868039220572">
        <ele>502.91000000000003</ele>
        <time>2025-04-30T11:15:23Z</time>
      </trkpt>
      <trkpt lat="43.441573027521372" lon="-7.967970008030534">
        <ele>497.62</ele>
        <time>2025-04-30T11:15:28Z</time>
      </trkpt>
      <trkpt lat="43.441490968689322" lon="-7.968203024938703">
        <ele>496.66000000000003</ele>
        <time>2025-04-30T11:15:29Z</time>
      </trkpt>
      <trkpt lat="43.441158961504698" lon="-7.970229014754295">
        <ele>490.88999999999999</ele>
        <time>2025-04-30T11:15:37Z</time>
      </trkpt>
      <trkpt lat="43.44054096378386" lon="-7.972697988152504">
        <ele>490.41000000000003</ele>
        <time>2025-04-30T11:15:47Z</time>
      </trkpt>
      <trkpt lat="43.43965700827539" lon="-7.974886000156403">
        <ele>498.10000000000002</ele>
        <time>2025-04-30T11:15:57Z</time>
      </trkpt>
      <trkpt lat="43.438817979767919" lon="-7.976837977766991">
        <ele>503.87</ele>
        <time>2025-04-30T11:16:09Z</time>
      </trkpt>
      <trkpt lat="43.438443979248405" lon="-7.977763004601002">
        <ele>505.79000000000002</ele>
        <time>2025-04-30T11:16:17Z</time>
      </trkpt>
      <trkpt lat="43.438398968428373" lon="-7.977860989049077">
        <ele>507.23000000000002</ele>
        <time>2025-04-30T11:16:23Z</time>
      </trkpt>
      <trkpt lat="43.438398968428373" lon="-7.977860989049077">
        <ele>507.23000000000002</ele>
        <time>2025-04-30T11:17:02Z</time>
      </trkpt>
      <trkpt lat="43.438398968428373" lon="-7.977860989049077">
        <ele>507.23000000000002</ele>
        <time>2025-04-30T11:17:53Z</time>
      </trkpt>
      <trkpt lat="43.438365021720529" lon="-7.977935001254082">
        <ele>507.70999999999998</ele>
        <time>2025-04-30T11:17:56Z</time>
      </trkpt>
      <trkpt lat="43.438294027000666" lon="-7.978093000128865">
        <ele>508.19</ele>
        <time>2025-04-30T11:17:58Z</time>
      </trkpt>
      <trkpt lat="43.438245998695493" lon="-7.978200959041715">
        <ele>508.19</ele>
        <time>2025-04-30T11:17:59Z</time>
      </trkpt>
      <trkpt lat="43.437668988481164" lon="-7.979615991935134">
        <ele>509.16000000000003</ele>
        <time>2025-04-30T11:18:09Z</time>
      </trkpt>
      <trkpt lat="43.437275039032102" lon="-7.980585023760796">
        <ele>513.48000000000002</ele>
        <time>2025-04-30T11:18:17Z</time>
      </trkpt>
      <trkpt lat="43.437162972986698" lon="-7.980884006246924">
        <ele>516.85000000000002</ele>
        <time>2025-04-30T11:18:25Z</time>
      </trkpt>
      <trkpt lat="43.437162972986698" lon="-7.980884006246924">
        <ele>516.85000000000002</ele>
        <time>2025-04-30T11:19:04Z</time>
      </trkpt>
      <trkpt lat="43.437148975208402" lon="-7.980945026502013">
        <ele>517.33000000000004</ele>
        <time>2025-04-30T11:20:02Z</time>
      </trkpt>
      <trkpt lat="43.436990976333618" lon="-7.981553971767426">
        <ele>518.76999999999998</ele>
        <time>2025-04-30T11:20:09Z</time>
      </trkpt>
      <trkpt lat="43.436847981065512" lon="-7.982266014441848">
        <ele>520.69000000000005</ele>
        <time>2025-04-30T11:20:14Z</time>
      </trkpt>
      <trkpt lat="43.436701968312263" lon="-7.983867963775992">
        <ele>527.41999999999996</ele>
        <time>2025-04-30T11:20:25Z</time>
      </trkpt>
      <trkpt lat="43.436630973592401" lon="-7.985636964440346">
        <ele>530.78999999999996</ele>
        <time>2025-04-30T11:20:33Z</time>
      </trkpt>
      <trkpt lat="43.436547992751002" lon="-7.988061010837555">
        <ele>523.09000000000003</ele>
        <time>2025-04-30T11:20:42Z</time>
      </trkpt>
      <trkpt lat="43.436401979997754" lon="-7.990725031122565">
        <ele>518.28999999999996</ele>
        <time>2025-04-30T11:20:51Z</time>
      </trkpt>
      <trkpt lat="43.436268959194422" lon="-7.994231013581157">
        <ele>510.60000000000002</ele>
        <time>2025-04-30T11:21:01Z</time>
      </trkpt>
      <trkpt lat="43.436253033578396" lon="-7.994935009628534">
        <ele>507.70999999999998</ele>
        <time>2025-04-30T11:21:03Z</time>
      </trkpt>
      <trkpt lat="43.43628304079175" lon="-7.995285037904978">
        <ele>506.26999999999998</ele>
        <time>2025-04-30T11:21:04Z</time>
      </trkpt>
      <trkpt lat="43.436355041339993" lon="-7.995618972927332">
        <ele>504.82999999999998</ele>
        <time>2025-04-30T11:21:05Z</time>
      </trkpt>
      <trkpt lat="43.436426036059856" lon="-7.995947040617466">
        <ele>502.91000000000003</ele>
        <time>2025-04-30T11:21:06Z</time>
      </trkpt>
      <trkpt lat="43.436535000801086" lon="-7.996251974254847">
        <ele>501.45999999999998</ele>
        <time>2025-04-30T11:21:07Z</time>
      </trkpt>
      <trkpt lat="43.436655029654503" lon="-7.996551040560007">
        <ele>499.54000000000002</ele>
        <time>2025-04-30T11:21:08Z</time>
      </trkpt>
      <trkpt lat="43.436994999647141" lon="-7.997457040473819">
        <ele>494.25999999999999</ele>
        <time>2025-04-30T11:21:11Z</time>
      </trkpt>
      <trkpt lat="43.437067000195384" lon="-7.997778989374638">
        <ele>492.81</ele>
        <time>2025-04-30T11:21:12Z</time>
      </trkpt>
      <trkpt lat="43.437120979651809" lon="-7.998096998780966">
        <ele>490.88999999999999</ele>
        <time>2025-04-30T11:21:13Z</time>
      </trkpt>
      <trkpt lat="43.437160039320588" lon="-7.998409979045391">
        <ele>489.44999999999999</ele>
        <time>2025-04-30T11:21:14Z</time>
      </trkpt>
      <trkpt lat="43.437160039320588" lon="-7.998736035078764">
        <ele>488.00999999999999</ele>
        <time>2025-04-30T11:21:15Z</time>
      </trkpt>
      <trkpt lat="43.437137994915247" lon="-7.999063013121486">
        <ele>486.56</ele>
        <time>2025-04-30T11:21:16Z</time>
      </trkpt>
      <trkpt lat="43.437117040157318" lon="-7.999390996992588">
        <ele>485.12</ele>
        <time>2025-04-30T11:21:17Z</time>
      </trkpt>
      <trkpt lat="43.437106981873512" lon="-8.000675020739436">
        <ele>479.35000000000002</ele>
        <time>2025-04-30T11:21:21Z</time>
      </trkpt>
      <trkpt lat="43.437169007956982" lon="-8.000982971861959">
        <ele>477.91000000000003</ele>
        <time>2025-04-30T11:21:22Z</time>
      </trkpt>
      <trkpt lat="43.437231034040451" lon="-8.001294024288654">
        <ele>476.94999999999999</ele>
        <time>2025-04-30T11:21:23Z</time>
      </trkpt>
      <trkpt lat="43.437928995117545" lon="-8.004004983231425">
        <ele>468.77999999999997</ele>
        <time>2025-04-30T11:21:32Z</time>
      </trkpt>
      <trkpt lat="43.438388993963599" lon="-8.005784964188933">
        <ele>465.42000000000002</ele>
        <time>2025-04-30T11:21:39Z</time>
      </trkpt>
      <trkpt lat="43.438440039753914" lon="-8.006028961390257">
        <ele>464.93000000000001</ele>
        <time>2025-04-30T11:21:40Z</time>
      </trkpt>
      <trkpt lat="43.438458982855082" lon="-8.006272036582232">
        <ele>464.44999999999999</ele>
        <time>2025-04-30T11:21:41Z</time>
      </trkpt>
      <trkpt lat="43.438468035310507" lon="-8.006519973278046">
        <ele>463.49000000000001</ele>
        <time>2025-04-30T11:21:42Z</time>
      </trkpt>
      <trkpt lat="43.43847599811852" lon="-8.006761036813259">
        <ele>463.00999999999999</ele>
        <time>2025-04-30T11:21:43Z</time>
      </trkpt>
      <trkpt lat="43.438560990616679" lon="-8.007757980376482">
        <ele>459.17000000000002</ele>
        <time>2025-04-30T11:21:47Z</time>
      </trkpt>
      <trkpt lat="43.438836000859737" lon="-8.009261023253202">
        <ele>452.92000000000002</ele>
        <time>2025-04-30T11:21:53Z</time>
      </trkpt>
      <trkpt lat="43.438879000023007" lon="-8.009490016847849">
        <ele>451.48000000000002</ele>
        <time>2025-04-30T11:21:54Z</time>
      </trkpt>
      <trkpt lat="43.439188040792942" lon="-8.011704012751579">
        <ele>442.33999999999997</ele>
        <time>2025-04-30T11:22:03Z</time>
      </trkpt>
      <trkpt lat="43.439211007207632" lon="-8.01471596583724">
        <ele>429.37</ele>
        <time>2025-04-30T11:22:14Z</time>
      </trkpt>
      <trkpt lat="43.439418040215969" lon="-8.016849998384714">
        <ele>423.12</ele>
        <time>2025-04-30T11:22:22Z</time>
      </trkpt>
      <trkpt lat="43.439213018864393" lon="-8.018941031768918">
        <ele>419.75</ele>
        <time>2025-04-30T11:22:30Z</time>
      </trkpt>
      <trkpt lat="43.43852000311017" lon="-8.021260974928737">
        <ele>417.82999999999998</ele>
        <time>2025-04-30T11:22:40Z</time>
      </trkpt>
      <trkpt lat="43.437839979305863" lon="-8.023064006119967">
        <ele>417.35000000000002</ele>
        <time>2025-04-30T11:22:48Z</time>
      </trkpt>
      <trkpt lat="43.436657041311264" lon="-8.024743990972638">
        <ele>417.82999999999998</ele>
        <time>2025-04-30T11:22:57Z</time>
      </trkpt>
      <trkpt lat="43.436055975034833" lon="-8.025989038869739">
        <ele>417.35000000000002</ele>
        <time>2025-04-30T11:23:03Z</time>
      </trkpt>
      <trkpt lat="43.436006018891931" lon="-8.02622901275754">
        <ele>417.35000000000002</ele>
        <time>2025-04-30T11:23:04Z</time>
      </trkpt>
      <trkpt lat="43.435519030317664" lon="-8.02814201451838">
        <ele>417.82999999999998</ele>
        <time>2025-04-30T11:23:12Z</time>
      </trkpt>
      <trkpt lat="43.435193980112672" lon="-8.028707960620523">
        <ele>418.31</ele>
        <time>2025-04-30T11:23:15Z</time>
      </trkpt>
      <trkpt lat="43.434272976592183" lon="-8.029844965785742">
        <ele>418.79000000000002</ele>
        <time>2025-04-30T11:23:22Z</time>
      </trkpt>
      <trkpt lat="43.43415898270905" lon="-8.030030038207769">
        <ele>419.26999999999998</ele>
        <time>2025-04-30T11:23:23Z</time>
      </trkpt>
      <trkpt lat="43.434056974947453" lon="-8.030234975740314">
        <ele>419.26999999999998</ele>
        <time>2025-04-30T11:23:24Z</time>
      </trkpt>
      <trkpt lat="43.433959996327758" lon="-8.030447037890554">
        <ele>419.26999999999998</ele>
        <time>2025-04-30T11:23:25Z</time>
      </trkpt>
      <trkpt lat="43.433875003829598" lon="-8.030667984858155">
        <ele>419.75</ele>
        <time>2025-04-30T11:23:26Z</time>
      </trkpt>
      <trkpt lat="43.433820018544793" lon="-8.030901001766324">
        <ele>419.75</ele>
        <time>2025-04-30T11:23:27Z</time>
      </trkpt>
      <trkpt lat="43.433766961097717" lon="-8.031131001189351">
        <ele>420.23000000000002</ele>
        <time>2025-04-30T11:23:28Z</time>
      </trkpt>
      <trkpt lat="43.433712981641293" lon="-8.031361000612378">
        <ele>420.23000000000002</ele>
        <time>2025-04-30T11:23:29Z</time>
      </trkpt>
      <trkpt lat="43.433674005791545" lon="-8.031604997813702">
        <ele>419.75</ele>
        <time>2025-04-30T11:23:30Z</time>
      </trkpt>
      <trkpt lat="43.433731002733111" lon="-8.033174006268382">
        <ele>418.79000000000002</ele>
        <time>2025-04-30T11:23:36Z</time>
      </trkpt>
      <trkpt lat="43.433824963867664" lon="-8.034799005836248">
        <ele>415.43000000000001</ele>
        <time>2025-04-30T11:23:42Z</time>
      </trkpt>
      <trkpt lat="43.433807026594877" lon="-8.035078039392829">
        <ele>414.94999999999999</ele>
        <time>2025-04-30T11:23:43Z</time>
      </trkpt>
      <trkpt lat="43.433432020246983" lon="-8.037888994440436">
        <ele>410.62</ele>
        <time>2025-04-30T11:23:53Z</time>
      </trkpt>
      <trkpt lat="43.432572958990932" lon="-8.041056012734771">
        <ele>404.37</ele>
        <time>2025-04-30T11:24:04Z</time>
      </trkpt>
      <trkpt lat="43.432431975379586" lon="-8.041879031807184">
        <ele>401.00999999999999</ele>
        <time>2025-04-30T11:24:07Z</time>
      </trkpt>
      <trkpt lat="43.432440022006631" lon="-8.042173990979791">
        <ele>400.05000000000001</ele>
        <time>2025-04-30T11:24:08Z</time>
      </trkpt>
      <trkpt lat="43.432466005906463" lon="-8.042479008436203">
        <ele>398.60000000000002</ele>
        <time>2025-04-30T11:24:09Z</time>
      </trkpt>
      <trkpt lat="43.432687036693096" lon="-8.044580016285181">
        <ele>392.36000000000001</ele>
        <time>2025-04-30T11:24:16Z</time>
      </trkpt>
      <trkpt lat="43.432919969782233" lon="-8.046729974448681">
        <ele>388.02999999999997</ele>
        <time>2025-04-30T11:24:24Z</time>
      </trkpt>
      <trkpt lat="43.432937990874052" lon="-8.046982018277049">
        <ele>388.02999999999997</ele>
        <time>2025-04-30T11:24:25Z</time>
      </trkpt>
      <trkpt lat="43.432935979217291" lon="-8.047244036570191">
        <ele>388.02999999999997</ele>
        <time>2025-04-30T11:24:26Z</time>
      </trkpt>
      <trkpt lat="43.432917036116123" lon="-8.047512006014586">
        <ele>388.02999999999997</ele>
        <time>2025-04-30T11:24:27Z</time>
      </trkpt>
      <trkpt lat="43.43284503556788" lon="-8.049410004168749">
        <ele>390.91000000000003</ele>
        <time>2025-04-30T11:24:34Z</time>
      </trkpt>
      <trkpt lat="43.432874036952853" lon="-8.04967001080513">
        <ele>391.87</ele>
        <time>2025-04-30T11:24:35Z</time>
      </trkpt>
      <trkpt lat="43.432930028066039" lon="-8.049929011613131">
        <ele>393.31999999999999</ele>
        <time>2025-04-30T11:24:36Z</time>
      </trkpt>
      <trkpt lat="43.432985013350844" lon="-8.05018600076437">
        <ele>394.27999999999997</ele>
        <time>2025-04-30T11:24:37Z</time>
      </trkpt>
      <trkpt lat="43.433042010292411" lon="-8.050426980480552">
        <ele>395.72000000000003</ele>
        <time>2025-04-30T11:24:38Z</time>
      </trkpt>
      <trkpt lat="43.433130020275712" lon="-8.050637030974031">
        <ele>396.68000000000001</ele>
        <time>2025-04-30T11:24:39Z</time>
      </trkpt>
      <trkpt lat="43.433225993067026" lon="-8.050817996263504">
        <ele>398.12</ele>
        <time>2025-04-30T11:24:40Z</time>
      </trkpt>
      <trkpt lat="43.433323977515101" lon="-8.050995022058487">
        <ele>399.07999999999998</ele>
        <time>2025-04-30T11:24:41Z</time>
      </trkpt>
      <trkpt lat="43.433421039953828" lon="-8.051148997619748">
        <ele>400.05000000000001</ele>
        <time>2025-04-30T11:24:42Z</time>
      </trkpt>
      <trkpt lat="43.433522963896394" lon="-8.05128201842308">
        <ele>401.49000000000001</ele>
        <time>2025-04-30T11:24:43Z</time>
      </trkpt>
      <trkpt lat="43.434186978265643" lon="-8.05199196562171">
        <ele>411.57999999999998</ele>
        <time>2025-04-30T11:24:50Z</time>
      </trkpt>
      <trkpt lat="43.435286013409495" lon="-8.05297901853919">
        <ele>417.82999999999998</ele>
        <time>2025-04-30T11:24:58Z</time>
      </trkpt>
      <trkpt lat="43.435774007812142" lon="-8.053472964093089">
        <ele>418.79000000000002</ele>
        <time>2025-04-30T11:25:01Z</time>
      </trkpt>
      <trkpt lat="43.435911973938346" lon="-8.053673962131143">
        <ele>419.26999999999998</ele>
        <time>2025-04-30T11:25:02Z</time>
      </trkpt>
      <trkpt lat="43.436028985306621" lon="-8.053907984867692">
        <ele>419.26999999999998</ele>
        <time>2025-04-30T11:25:03Z</time>
      </trkpt>
      <trkpt lat="43.436136022210121" lon="-8.05415902286768">
        <ele>419.26999999999998</ele>
        <time>2025-04-30T11:25:04Z</time>
      </trkpt>
      <trkpt lat="43.436223026365042" lon="-8.054427998140454">
        <ele>418.79000000000002</ele>
        <time>2025-04-30T11:25:05Z</time>
      </trkpt>
      <trkpt lat="43.43684202991426" lon="-8.056573010981083">
        <ele>413.98000000000002</ele>
        <time>2025-04-30T11:25:13Z</time>
      </trkpt>
      <trkpt lat="43.436879999935627" lon="-8.056832011789084">
        <ele>413.01999999999998</ele>
        <time>2025-04-30T11:25:14Z</time>
      </trkpt>
      <trkpt lat="43.436893997713923" lon="-8.057096041738987">
        <ele>412.06</ele>
        <time>2025-04-30T11:25:15Z</time>
      </trkpt>
      <trkpt lat="43.436915036290884" lon="-8.057366022840142">
        <ele>411.57999999999998</ele>
        <time>2025-04-30T11:25:16Z</time>
      </trkpt>
      <trkpt lat="43.436781009659171" lon="-8.058994961902499">
        <ele>407.74000000000001</ele>
        <time>2025-04-30T11:25:21Z</time>
      </trkpt>
      <trkpt lat="43.436589986085892" lon="-8.060791036114097">
        <ele>403.88999999999999</ele>
        <time>2025-04-30T11:25:27Z</time>
      </trkpt>
      <trkpt lat="43.436420001089573" lon="-8.062529023736715">
        <ele>400.05000000000001</ele>
        <time>2025-04-30T11:25:35Z</time>
      </trkpt>
      <trkpt lat="43.436255967244506" lon="-8.063995018601418">
        <ele>400.05000000000001</ele>
        <time>2025-04-30T11:25:44Z</time>
      </trkpt>
      <trkpt lat="43.436195030808449" lon="-8.064789036288858">
        <ele>399.07999999999998</ele>
        <time>2025-04-30T11:25:51Z</time>
      </trkpt>
      <trkpt lat="43.436095034703612" lon="-8.065691012889147">
        <ele>397.16000000000003</ele>
        <time>2025-04-30T11:25:57Z</time>
      </trkpt>
      <trkpt lat="43.435939969494939" lon="-8.067183997482061">
        <ele>394.75999999999999</ele>
        <time>2025-04-30T11:26:06Z</time>
      </trkpt>
      <trkpt lat="43.435753975063562" lon="-8.069001026451588">
        <ele>394.75999999999999</ele>
        <time>2025-04-30T11:26:17Z</time>
      </trkpt>
      <trkpt lat="43.435504026710987" lon="-8.0714560020715">
        <ele>394.27999999999997</ele>
        <time>2025-04-30T11:26:32Z</time>
      </trkpt>
      <trkpt lat="43.435329012572765" lon="-8.072268962860107">
        <ele>393.80000000000001</ele>
        <time>2025-04-30T11:26:37Z</time>
      </trkpt>
      <trkpt lat="43.434699028730392" lon="-8.073854986578226">
        <ele>396.68000000000001</ele>
        <time>2025-04-30T11:26:48Z</time>
      </trkpt>
      <trkpt lat="43.434014981612563" lon="-8.075489038601518">
        <ele>398.12</ele>
        <time>2025-04-30T11:26:58Z</time>
      </trkpt>
      <trkpt lat="43.43323202803731" lon="-8.077431963756681">
        <ele>397.16000000000003</ele>
        <time>2025-04-30T11:27:07Z</time>
      </trkpt>
      <trkpt lat="43.433059025555849" lon="-8.078015008941293">
        <ele>396.19999999999999</ele>
        <time>2025-04-30T11:27:09Z</time>
      </trkpt>
      <trkpt lat="43.433007979765534" lon="-8.078338969498873">
        <ele>396.19999999999999</ele>
        <time>2025-04-30T11:27:10Z</time>
      </trkpt>
      <trkpt lat="43.43295500613749" lon="-8.078672988340259">
        <ele>395.72000000000003</ele>
        <time>2025-04-30T11:27:11Z</time>
      </trkpt>
      <trkpt lat="43.432733975350857" lon="-8.081161994487047">
        <ele>392.83999999999997</ele>
        <time>2025-04-30T11:27:18Z</time>
      </trkpt>
      <trkpt lat="43.432767000049353" lon="-8.081515040248632">
        <ele>392.83999999999997</ele>
        <time>2025-04-30T11:27:19Z</time>
      </trkpt>
      <trkpt lat="43.432822991162539" lon="-8.081860039383173">
        <ele>392.36000000000001</ele>
        <time>2025-04-30T11:27:20Z</time>
      </trkpt>
      <trkpt lat="43.432902032509446" lon="-8.08217603713274">
        <ele>392.36000000000001</ele>
        <time>2025-04-30T11:27:21Z</time>
      </trkpt>
      <trkpt lat="43.43299699947238" lon="-8.082470996305347">
        <ele>392.36000000000001</ele>
        <time>2025-04-30T11:27:22Z</time>
      </trkpt>
      <trkpt lat="43.433099007233977" lon="-8.082755981013179">
        <ele>392.83999999999997</ele>
        <time>2025-04-30T11:27:23Z</time>
      </trkpt>
      <trkpt lat="43.433634024113417" lon="-8.084408976137638">
        <ele>398.60000000000002</ele>
        <time>2025-04-30T11:27:29Z</time>
      </trkpt>
      <trkpt lat="43.433678029105067" lon="-8.084688009694219">
        <ele>399.56999999999999</ele>
        <time>2025-04-30T11:27:30Z</time>
      </trkpt>
      <trkpt lat="43.433723039925098" lon="-8.084966959431768">
        <ele>400.52999999999997</ele>
        <time>2025-04-30T11:27:31Z</time>
      </trkpt>
      <trkpt lat="43.433740977197886" lon="-8.085254039615393">
        <ele>401.49000000000001</ele>
        <time>2025-04-30T11:27:32Z</time>
      </trkpt>
      <trkpt lat="43.433740977197886" lon="-8.085544975474477">
        <ele>402.93000000000001</ele>
        <time>2025-04-30T11:27:33Z</time>
      </trkpt>
      <trkpt lat="43.433940969407558" lon="-8.087906995788217">
        <ele>413.5</ele>
        <time>2025-04-30T11:27:41Z</time>
      </trkpt>
      <trkpt lat="43.43443701043725" lon="-8.089558985084295">
        <ele>420.70999999999998</ele>
        <time>2025-04-30T11:27:47Z</time>
      </trkpt>
      <trkpt lat="43.435394978150725" lon="-8.092034999281168">
        <ele>417.82999999999998</ele>
        <time>2025-04-30T11:27:56Z</time>
      </trkpt>
      <trkpt lat="43.435560017824173" lon="-8.092258963733912">
        <ele>416.87</ele>
        <time>2025-04-30T11:27:57Z</time>
      </trkpt>
      <trkpt lat="43.436590991914272" lon="-8.093592021614313">
        <ele>410.62</ele>
        <time>2025-04-30T11:28:03Z</time>
      </trkpt>
      <trkpt lat="43.437855988740921" lon="-8.095001019537449">
        <ele>403.41000000000003</ele>
        <time>2025-04-30T11:28:10Z</time>
      </trkpt>
      <trkpt lat="43.439912991598248" lon="-8.097157012671232">
        <ele>388.99000000000001</ele>
        <time>2025-04-30T11:28:21Z</time>
      </trkpt>
      <trkpt lat="43.441494992002845" lon="-8.099003965035081">
        <ele>375.05000000000001</ele>
        <time>2025-04-30T11:28:29Z</time>
      </trkpt>
      <trkpt lat="43.44303198158741" lon="-8.101150989532471">
        <ele>360.14999999999998</ele>
        <time>2025-04-30T11:28:38Z</time>
      </trkpt>
      <trkpt lat="43.443315960466862" lon="-8.102090014144778">
        <ele>354.86000000000001</ele>
        <time>2025-04-30T11:28:41Z</time>
      </trkpt>
      <trkpt lat="43.443388966843486" lon="-8.102424032986164">
        <ele>353.42000000000002</ele>
        <time>2025-04-30T11:28:42Z</time>
      </trkpt>
      <trkpt lat="43.443445041775703" lon="-8.10276098549366">
        <ele>351.98000000000002</ele>
        <time>2025-04-30T11:28:43Z</time>
      </trkpt>
      <trkpt lat="43.44346197322011" lon="-8.103100033476949">
        <ele>350.54000000000002</ele>
        <time>2025-04-30T11:28:44Z</time>
      </trkpt>
      <trkpt lat="43.443479994311929" lon="-8.103437991812825">
        <ele>349.10000000000002</ele>
        <time>2025-04-30T11:28:45Z</time>
      </trkpt>
      <trkpt lat="43.44348200596869" lon="-8.103773016482592">
        <ele>347.64999999999998</ele>
        <time>2025-04-30T11:28:46Z</time>
      </trkpt>
      <trkpt lat="43.443460967391729" lon="-8.104068981483579">
        <ele>346.20999999999998</ele>
        <time>2025-04-30T11:28:47Z</time>
      </trkpt>
      <trkpt lat="43.443389972671866" lon="-8.10439202003181">
        <ele>345.25</ele>
        <time>2025-04-30T11:28:48Z</time>
      </trkpt>
      <trkpt lat="43.443329036235809" lon="-8.104670969769359">
        <ele>344.29000000000002</ele>
        <time>2025-04-30T11:28:49Z</time>
      </trkpt>
      <trkpt lat="43.443243037909269" lon="-8.104901975020766">
        <ele>342.85000000000002</ele>
        <time>2025-04-30T11:28:50Z</time>
      </trkpt>
      <trkpt lat="43.443140024319291" lon="-8.105125017464161">
        <ele>341.88999999999999</ele>
        <time>2025-04-30T11:28:51Z</time>
      </trkpt>
      <trkpt lat="43.44303198158741" lon="-8.105357028543949">
        <ele>340.44</ele>
        <time>2025-04-30T11:28:52Z</time>
      </trkpt>
      <trkpt lat="43.442921005189419" lon="-8.105504969134927">
        <ele>339.48000000000002</ele>
        <time>2025-04-30T11:28:53Z</time>
      </trkpt>
      <trkpt lat="43.442792007699609" lon="-8.105658022686839">
        <ele>338.04000000000002</ele>
        <time>2025-04-30T11:28:54Z</time>
      </trkpt>
      <trkpt lat="43.442645994946361" lon="-8.105794982984662">
        <ele>337.07999999999998</ele>
        <time>2025-04-30T11:28:55Z</time>
      </trkpt>
      <trkpt lat="43.442502999678254" lon="-8.105921968817711">
        <ele>336.60000000000002</ele>
        <time>2025-04-30T11:28:56Z</time>
      </trkpt>
      <trkpt lat="43.442338965833187" lon="-8.10600402764976">
        <ele>335.63999999999999</ele>
        <time>2025-04-30T11:28:57Z</time>
      </trkpt>
      <trkpt lat="43.442170992493629" lon="-8.106088014319539">
        <ele>335.16000000000003</ele>
        <time>2025-04-30T11:28:58Z</time>
      </trkpt>
      <trkpt lat="43.442006036639214" lon="-8.106147022917867">
        <ele>334.68000000000001</ele>
        <time>2025-04-30T11:28:59Z</time>
      </trkpt>
      <trkpt lat="43.441823981702328" lon="-8.106185998767614">
        <ele>333.70999999999998</ele>
        <time>2025-04-30T11:29:00Z</time>
      </trkpt>
      <trkpt lat="43.441645028069615" lon="-8.106222962960601">
        <ele>333.23000000000002</ele>
        <time>2025-04-30T11:29:01Z</time>
      </trkpt>
      <trkpt lat="43.440668033435941" lon="-8.106597969308496">
        <ele>330.35000000000002</ele>
        <time>2025-04-30T11:29:08Z</time>
      </trkpt>
      <trkpt lat="43.44036896713078" lon="-8.106860993430018">
        <ele>328.91000000000003</ele>
        <time>2025-04-30T11:29:11Z</time>
      </trkpt>
      <trkpt lat="43.439435977488756" lon="-8.107912000268698">
        <ele>324.57999999999998</ele>
        <time>2025-04-30T11:29:19Z</time>
      </trkpt>
      <trkpt lat="43.438612036406994" lon="-8.108888994902372">
        <ele>325.54000000000002</ele>
        <time>2025-04-30T11:29:26Z</time>
      </trkpt>
      <trkpt lat="43.438226971775293" lon="-8.109325021505356">
        <ele>327.47000000000003</ele>
        <time>2025-04-30T11:29:29Z</time>
      </trkpt>
      <trkpt lat="43.437515012919903" lon="-8.110302016139031">
        <ele>330.35000000000002</ele>
        <time>2025-04-30T11:29:34Z</time>
      </trkpt>
      <trkpt lat="43.436706997454166" lon="-8.112247958779335">
        <ele>337.07999999999998</ele>
        <time>2025-04-30T11:29:41Z</time>
      </trkpt>
      <trkpt lat="43.43645797111094" lon="-8.114187028259039">
        <ele>342.37</ele>
        <time>2025-04-30T11:29:47Z</time>
      </trkpt>
      <trkpt lat="43.436393011361361" lon="-8.117948994040489">
        <ele>342.85000000000002</ele>
        <time>2025-04-30T11:29:58Z</time>
      </trkpt>
      <trkpt lat="43.436322016641498" lon="-8.120691971853375">
        <ele>339.48000000000002</ele>
        <time>2025-04-30T11:30:06Z</time>
      </trkpt>
      <trkpt lat="43.436265019699931" lon="-8.124252017587423">
        <ele>331.79000000000002</ele>
        <time>2025-04-30T11:30:17Z</time>
      </trkpt>
      <trkpt lat="43.436493007466197" lon="-8.12684303149581">
        <ele>324.10000000000002</ele>
        <time>2025-04-30T11:30:25Z</time>
      </trkpt>
      <trkpt lat="43.437132965773344" lon="-8.12972498126328">
        <ele>308.72000000000003</ele>
        <time>2025-04-30T11:30:34Z</time>
      </trkpt>
      <trkpt lat="43.437160039320588" lon="-8.130060005933046">
        <ele>306.80000000000001</ele>
        <time>2025-04-30T11:30:35Z</time>
      </trkpt>
      <trkpt lat="43.437154004350305" lon="-8.130394024774432">
        <ele>304.88</ele>
        <time>2025-04-30T11:30:36Z</time>
      </trkpt>
      <trkpt lat="43.437116034328938" lon="-8.130727037787437">
        <ele>302.94999999999999</ele>
        <time>2025-04-30T11:30:37Z</time>
      </trkpt>
      <trkpt lat="43.437076974660158" lon="-8.13105602748692">
        <ele>301.50999999999999</ele>
        <time>2025-04-30T11:30:38Z</time>
      </trkpt>
      <trkpt lat="43.436992987990379" lon="-8.131363978609443">
        <ele>299.58999999999997</ele>
        <time>2025-04-30T11:30:39Z</time>
      </trkpt>
      <trkpt lat="43.436888968572021" lon="-8.131667990237474">
        <ele>297.67000000000002</ele>
        <time>2025-04-30T11:30:40Z</time>
      </trkpt>
      <trkpt lat="43.436775980517268" lon="-8.131963033229113">
        <ele>295.74000000000001</ele>
        <time>2025-04-30T11:30:41Z</time>
      </trkpt>
      <trkpt lat="43.436630973592401" lon="-8.1322399713099">
        <ele>293.33999999999997</ele>
        <time>2025-04-30T11:30:42Z</time>
      </trkpt>
      <trkpt lat="43.436466017737985" lon="-8.132487991824746">
        <ele>291.42000000000002</ele>
        <time>2025-04-30T11:30:43Z</time>
      </trkpt>
      <trkpt lat="43.436287986114621" lon="-8.132728971540928">
        <ele>289.49000000000001</ele>
        <time>2025-04-30T11:30:44Z</time>
      </trkpt>
      <trkpt lat="43.436085982248187" lon="-8.132912032306194">
        <ele>287.08999999999997</ele>
        <time>2025-04-30T11:30:45Z</time>
      </trkpt>
      <trkpt lat="43.435871992260218" lon="-8.133083023130894">
        <ele>285.17000000000002</ele>
        <time>2025-04-30T11:30:46Z</time>
      </trkpt>
      <trkpt lat="43.435649033635855" lon="-8.133209003135562">
        <ele>283.25</ele>
        <time>2025-04-30T11:30:47Z</time>
      </trkpt>
      <trkpt lat="43.435421967878938" lon="-8.133302964270115">
        <ele>281.31999999999999</ele>
        <time>2025-04-30T11:30:48Z</time>
      </trkpt>
      <trkpt lat="43.435190040618181" lon="-8.133373036980629">
        <ele>279.39999999999998</ele>
        <time>2025-04-30T11:30:49Z</time>
      </trkpt>
      <trkpt lat="43.434958029538393" lon="-8.133434979245067">
        <ele>277.48000000000002</ele>
        <time>2025-04-30T11:30:50Z</time>
      </trkpt>
      <trkpt lat="43.434724006801844" lon="-8.133471021428704">
        <ele>276.04000000000002</ele>
        <time>2025-04-30T11:30:51Z</time>
      </trkpt>
      <trkpt lat="43.43400701880455" lon="-8.133603036403656">
        <ele>271.23000000000002</ele>
        <time>2025-04-30T11:30:54Z</time>
      </trkpt>
      <trkpt lat="43.433789005503058" lon="-8.133716024458408">
        <ele>269.79000000000002</ele>
        <time>2025-04-30T11:30:55Z</time>
      </trkpt>
      <trkpt lat="43.43357702717185" lon="-8.133824989199638">
        <ele>268.35000000000002</ele>
        <time>2025-04-30T11:30:56Z</time>
      </trkpt>
      <trkpt lat="43.432901026681066" lon="-8.134466037154198">
        <ele>263.06</ele>
        <time>2025-04-30T11:31:00Z</time>
      </trkpt>
      <trkpt lat="43.432775968685746" lon="-8.134653959423304">
        <ele>262.10000000000002</ele>
        <time>2025-04-30T11:31:01Z</time>
      </trkpt>
      <trkpt lat="43.432657029479742" lon="-8.134842971339822">
        <ele>261.13999999999999</ele>
        <time>2025-04-30T11:31:02Z</time>
      </trkpt>
      <trkpt lat="43.432476986199617" lon="-8.135263994336128">
        <ele>259.20999999999998</ele>
        <time>2025-04-30T11:31:04Z</time>
      </trkpt>
      <trkpt lat="43.43239601701498" lon="-8.135464992374182">
        <ele>258.25</ele>
        <time>2025-04-30T11:31:05Z</time>
      </trkpt>
      <trkpt lat="43.431911962106824" lon="-8.13683501444757">
        <ele>251.52000000000001</ele>
        <time>2025-04-30T11:31:12Z</time>
      </trkpt>
      <trkpt lat="43.431083997711539" lon="-8.138075033202767">
        <ele>240.94999999999999</ele>
        <time>2025-04-30T11:31:20Z</time>
      </trkpt>
      <trkpt lat="43.430808987468481" lon="-8.138321964070201">
        <ele>239.50999999999999</ele>
        <time>2025-04-30T11:31:22Z</time>
      </trkpt>
      <trkpt lat="43.430491983890533" lon="-8.138451967388392">
        <ele>237.58000000000001</ele>
        <time>2025-04-30T11:31:24Z</time>
      </trkpt>
      <trkpt lat="43.430339014157653" lon="-8.138502007350326">
        <ele>236.62</ele>
        <time>2025-04-30T11:31:25Z</time>
      </trkpt>
      <trkpt lat="43.429622026160359" lon="-8.138839965686202">
        <ele>231.33000000000001</ele>
        <time>2025-04-30T11:31:30Z</time>
      </trkpt>
      <trkpt lat="43.429485987871885" lon="-8.138950020074844">
        <ele>230.37</ele>
        <time>2025-04-30T11:31:31Z</time>
      </trkpt>
      <trkpt lat="43.429382974281907" lon="-8.139077005907893">
        <ele>229.41</ele>
        <time>2025-04-30T11:31:32Z</time>
      </trkpt>
      <trkpt lat="43.429234027862549" lon="-8.13932603225112">
        <ele>227.49000000000001</ele>
        <time>2025-04-30T11:31:34Z</time>
      </trkpt>
      <trkpt lat="43.429188011214137" lon="-8.139463998377323">
        <ele>227.00999999999999</ele>
        <time>2025-04-30T11:31:35Z</time>
      </trkpt>
      <trkpt lat="43.429145012050867" lon="-8.139594001695514">
        <ele>226.05000000000001</ele>
        <time>2025-04-30T11:31:36Z</time>
      </trkpt>
      <trkpt lat="43.429119028151035" lon="-8.13971403054893">
        <ele>225.09</ele>
        <time>2025-04-30T11:31:37Z</time>
      </trkpt>
      <trkpt lat="43.429102012887597" lon="-8.13986599445343">
        <ele>224.61000000000001</ele>
        <time>2025-04-30T11:31:38Z</time>
      </trkpt>
      <trkpt lat="43.42908700928092" lon="-8.140024999156594">
        <ele>224.12</ele>
        <time>2025-04-30T11:31:39Z</time>
      </trkpt>
      <trkpt lat="43.429113999009132" lon="-8.1401870213449">
        <ele>223.63999999999999</ele>
        <time>2025-04-30T11:31:40Z</time>
      </trkpt>
      <trkpt lat="43.429143000394106" lon="-8.140362035483122">
        <ele>222.68000000000001</ele>
        <time>2025-04-30T11:31:41Z</time>
      </trkpt>
      <trkpt lat="43.429198991507292" lon="-8.140549035742879">
        <ele>222.19999999999999</ele>
        <time>2025-04-30T11:31:42Z</time>
      </trkpt>
      <trkpt lat="43.429265040904284" lon="-8.14074500463903">
        <ele>221.72</ele>
        <time>2025-04-30T11:31:43Z</time>
      </trkpt>
      <trkpt lat="43.429330000653863" lon="-8.140941979363561">
        <ele>221.24000000000001</ele>
        <time>2025-04-30T11:31:44Z</time>
      </trkpt>
      <trkpt lat="43.429489005357027" lon="-8.141501974314451">
        <ele>218.84</ele>
        <time>2025-04-30T11:31:47Z</time>
      </trkpt>
      <trkpt lat="43.429555976763368" lon="-8.142034979537129">
        <ele>215.94999999999999</ele>
        <time>2025-04-30T11:31:50Z</time>
      </trkpt>
      <trkpt lat="43.429536027833819" lon="-8.142217034474015">
        <ele>214.99000000000001</ele>
        <time>2025-04-30T11:31:51Z</time>
      </trkpt>
      <trkpt lat="43.429492022842169" lon="-8.142629005014896">
        <ele>212.59</ele>
        <time>2025-04-30T11:31:53Z</time>
      </trkpt>
      <trkpt lat="43.429427985101938" lon="-8.142821034416556">
        <ele>211.63</ele>
        <time>2025-04-30T11:31:54Z</time>
      </trkpt>
      <trkpt lat="43.429363025352359" lon="-8.143015997484326">
        <ele>210.66999999999999</ele>
        <time>2025-04-30T11:31:55Z</time>
      </trkpt>
      <trkpt lat="43.429222041741014" lon="-8.143382035195828">
        <ele>208.25999999999999</ele>
        <time>2025-04-30T11:31:57Z</time>
      </trkpt>
      <trkpt lat="43.428828008472919" lon="-8.144514011219144">
        <ele>201.53</ele>
        <time>2025-04-30T11:32:04Z</time>
      </trkpt>
      <trkpt lat="43.428811999037862" lon="-8.144706040620804">
        <ele>201.05000000000001</ele>
        <time>2025-04-30T11:32:05Z</time>
      </trkpt>
      <trkpt lat="43.428814010694623" lon="-8.144896980375052">
        <ele>200.09</ele>
        <time>2025-04-30T11:32:06Z</time>
      </trkpt>
      <trkpt lat="43.428831025958061" lon="-8.145097978413105">
        <ele>199.13</ele>
        <time>2025-04-30T11:32:07Z</time>
      </trkpt>
      <trkpt lat="43.428847035393119" lon="-8.145299982279539">
        <ele>198.65000000000001</ele>
        <time>2025-04-30T11:32:08Z</time>
      </trkpt>
      <trkpt lat="43.428878970444202" lon="-8.145488994196057">
        <ele>197.69</ele>
        <time>2025-04-30T11:32:09Z</time>
      </trkpt>
      <trkpt lat="43.428913000971079" lon="-8.145684041082859">
        <ele>196.72999999999999</ele>
        <time>2025-04-30T11:32:10Z</time>
      </trkpt>
      <trkpt lat="43.429180970415473" lon="-8.147144000977278">
        <ele>189.03999999999999</ele>
        <time>2025-04-30T11:32:19Z</time>
      </trkpt>
      <trkpt lat="43.429234027862549" lon="-8.148836977779865">
        <ele>181.34999999999999</ele>
        <time>2025-04-30T11:32:29Z</time>
      </trkpt>
      <trkpt lat="43.429069994017482" lon="-8.149894019588828">
        <ele>177.5</ele>
        <time>2025-04-30T11:32:34Z</time>
      </trkpt>
      <trkpt lat="43.429000005125999" lon="-8.150097029283643">
        <ele>176.53999999999999</ele>
        <time>2025-04-30T11:32:35Z</time>
      </trkpt>
      <trkpt lat="43.428813004866242" lon="-8.150501037016511">
        <ele>174.13999999999999</ele>
        <time>2025-04-30T11:32:37Z</time>
      </trkpt>
      <trkpt lat="43.428702028468251" lon="-8.150696000084281">
        <ele>173.16999999999999</ele>
        <time>2025-04-30T11:32:38Z</time>
      </trkpt>
      <trkpt lat="43.428584011271596" lon="-8.150858022272587">
        <ele>172.21000000000001</ele>
        <time>2025-04-30T11:32:39Z</time>
      </trkpt>
      <trkpt lat="43.428455013781786" lon="-8.151020966470242">
        <ele>171.25</ele>
        <time>2025-04-30T11:32:40Z</time>
      </trkpt>
      <trkpt lat="43.428324004635215" lon="-8.151174020022154">
        <ele>169.81</ele>
        <time>2025-04-30T11:32:41Z</time>
      </trkpt>
      <trkpt lat="43.42818696051836" lon="-8.151300000026822">
        <ele>168.84999999999999</ele>
        <time>2025-04-30T11:32:42Z</time>
      </trkpt>
      <trkpt lat="43.428041031584144" lon="-8.151422962546349">
        <ele>167.88999999999999</ele>
        <time>2025-04-30T11:32:43Z</time>
      </trkpt>
      <trkpt lat="43.427889989688993" lon="-8.151523964479566">
        <ele>166.93000000000001</ele>
        <time>2025-04-30T11:32:44Z</time>
      </trkpt>
      <trkpt lat="43.427725033834577" lon="-8.151611974462867">
        <ele>165</ele>
        <time>2025-04-30T11:32:45Z</time>
      </trkpt>
      <trkpt lat="43.427552031353116" lon="-8.151666037738323">
        <ele>163.56</ele>
        <time>2025-04-30T11:32:46Z</time>
      </trkpt>
      <trkpt lat="43.427372993901372" lon="-8.151718005537987">
        <ele>162.12</ele>
        <time>2025-04-30T11:32:47Z</time>
      </trkpt>
      <trkpt lat="43.427195968106389" lon="-8.15176997333765">
        <ele>160.68000000000001</ele>
        <time>2025-04-30T11:32:48Z</time>
      </trkpt>
      <trkpt lat="43.427021037787199" lon="-8.151744995266199">
        <ele>158.75</ele>
        <time>2025-04-30T11:32:49Z</time>
      </trkpt>
      <trkpt lat="43.426837977021933" lon="-8.151719011366367">
        <ele>157.78999999999999</ele>
        <time>2025-04-30T11:32:50Z</time>
      </trkpt>
      <trkpt lat="43.426648965105414" lon="-8.151692021638155">
        <ele>156.34999999999999</ele>
        <time>2025-04-30T11:32:51Z</time>
      </trkpt>
      <trkpt lat="43.424998987466097" lon="-8.15138298086822">
        <ele>141.93000000000001</ele>
        <time>2025-04-30T11:33:00Z</time>
      </trkpt>
      <trkpt lat="43.423900958150625" lon="-8.15136001445353">
        <ele>131.84</ele>
        <time>2025-04-30T11:33:06Z</time>
      </trkpt>
      <trkpt lat="43.423711024224758" lon="-8.151431009173393">
        <ele>130.40000000000001</ele>
        <time>2025-04-30T11:33:07Z</time>
      </trkpt>
      <trkpt lat="43.423523018136621" lon="-8.151524970307946">
        <ele>128.47</ele>
        <time>2025-04-30T11:33:08Z</time>
      </trkpt>
      <trkpt lat="43.423336017876863" lon="-8.15161800943315">
        <ele>127.03</ele>
        <time>2025-04-30T11:33:09Z</time>
      </trkpt>
      <trkpt lat="43.423148011788726" lon="-8.151712976396084">
        <ele>125.11</ele>
        <time>2025-04-30T11:33:10Z</time>
      </trkpt>
      <trkpt lat="43.422962017357349" lon="-8.151827976107597">
        <ele>123.19</ele>
        <time>2025-04-30T11:33:11Z</time>
      </trkpt>
      <trkpt lat="43.421513037756085" lon="-8.152828020974994">
        <ele>107.31999999999999</ele>
        <time>2025-04-30T11:33:19Z</time>
      </trkpt>
      <trkpt lat="43.420066991820931" lon="-8.153173020109534">
        <ele>94.829999999999998</ele>
        <time>2025-04-30T11:33:26Z</time>
      </trkpt>
      <trkpt lat="43.418480968102813" lon="-8.153676018118858">
        <ele>78.480000000000004</ele>
        <time>2025-04-30T11:33:34Z</time>
      </trkpt>
      <trkpt lat="43.417074987664819" lon="-8.15464798361063">
        <ele>64.549999999999997</ele>
        <time>2025-04-30T11:33:42Z</time>
      </trkpt>
      <trkpt lat="43.416162030771375" lon="-8.156019011512399">
        <ele>51.57</ele>
        <time>2025-04-30T11:33:49Z</time>
      </trkpt>
      <trkpt lat="43.414903990924358" lon="-8.157911980524659">
        <ele>35.229999999999997</ele>
        <time>2025-04-30T11:33:59Z</time>
      </trkpt>
      <trkpt lat="43.414364028722048" lon="-8.158722007647157">
        <ele>28.02</ele>
        <time>2025-04-30T11:34:05Z</time>
      </trkpt>
      <trkpt lat="43.414234025403857" lon="-8.159004980698228">
        <ele>24.649999999999999</ele>
        <time>2025-04-30T11:34:09Z</time>
      </trkpt>
      <trkpt lat="43.414123971015215" lon="-8.159239003434777">
        <ele>19.84</ele>
        <time>2025-04-30T11:34:16Z</time>
      </trkpt>
      <trkpt lat="43.414164036512375" lon="-8.159543015062809">
        <ele>18.879999999999999</ele>
        <time>2025-04-30T11:34:19Z</time>
      </trkpt>
      <trkpt lat="43.414152972400188" lon="-8.159625995904207">
        <ele>18.399999999999999</ele>
        <time>2025-04-30T11:34:20Z</time>
      </trkpt>
      <trkpt lat="43.414091030135751" lon="-8.159703025594354">
        <ele>17.920000000000002</ele>
        <time>2025-04-30T11:34:21Z</time>
      </trkpt>
      <trkpt lat="43.414041996002197" lon="-8.159780977293849">
        <ele>17.440000000000001</ele>
        <time>2025-04-30T11:34:22Z</time>
      </trkpt>
      <trkpt lat="43.413995979353786" lon="-8.15988902002573">
        <ele>16.960000000000001</ele>
        <time>2025-04-30T11:34:23Z</time>
      </trkpt>
      <trkpt lat="43.413947029039264" lon="-8.160003013908863">
        <ele>16.960000000000001</ele>
        <time>2025-04-30T11:34:24Z</time>
      </trkpt>
      <trkpt lat="43.41389698907733" lon="-8.160119019448757">
        <ele>16.48</ele>
        <time>2025-04-30T11:34:25Z</time>
      </trkpt>
      <trkpt lat="43.41385499574244" lon="-8.160240976139903">
        <ele>16</ele>
        <time>2025-04-30T11:34:26Z</time>
      </trkpt>
      <trkpt lat="43.413818031549454" lon="-8.160381959751248">
        <ele>16</ele>
        <time>2025-04-30T11:34:27Z</time>
      </trkpt>
      <trkpt lat="43.413778971880674" lon="-8.160528978332877">
        <ele>16</ele>
        <time>2025-04-30T11:34:28Z</time>
      </trkpt>
      <trkpt lat="43.413761034607887" lon="-8.160699969157577">
        <ele>15.52</ele>
        <time>2025-04-30T11:34:29Z</time>
      </trkpt>
      <trkpt lat="43.413816019892693" lon="-8.162112990394235">
        <ele>13.119999999999999</ele>
        <time>2025-04-30T11:34:36Z</time>
      </trkpt>
      <trkpt lat="43.413849966600537" lon="-8.162347013130784">
        <ele>13.119999999999999</ele>
        <time>2025-04-30T11:34:37Z</time>
      </trkpt>
      <trkpt lat="43.414075020700693" lon="-8.16390797495842">
        <ele>11.19</ele>
        <time>2025-04-30T11:34:44Z</time>
      </trkpt>
      <trkpt lat="43.414056999608874" lon="-8.164290022104979">
        <ele>10.23</ele>
        <time>2025-04-30T11:34:46Z</time>
      </trkpt>
      <trkpt lat="43.413720969110727" lon="-8.165545966476202">
        <ele>9.27</ele>
        <time>2025-04-30T11:34:53Z</time>
      </trkpt>
      <trkpt lat="43.412852017208934" lon="-8.166986983269453">
        <ele>6.87</ele>
        <time>2025-04-30T11:35:03Z</time>
      </trkpt>
      <trkpt lat="43.412799965590239" lon="-8.167113969102502">
        <ele>6.87</ele>
        <time>2025-04-30T11:35:04Z</time>
      </trkpt>
      <trkpt lat="43.412717990577221" lon="-8.167332988232374">
        <ele>6.39</ele>
        <time>2025-04-30T11:35:06Z</time>
      </trkpt>
      <trkpt lat="43.412645990028977" lon="-8.167549995705485">
        <ele>5.42</ele>
        <time>2025-04-30T11:35:12Z</time>
      </trkpt>
      <trkpt lat="43.412635009735823" lon="-8.167779995128512">
        <ele>4.94</ele>
        <time>2025-04-30T11:35:18Z</time>
      </trkpt>
      <trkpt lat="43.412798037752509" lon="-8.167970012873411">
        <ele>4.94</ele>
        <time>2025-04-30T11:35:19Z</time>
      </trkpt>
      <trkpt lat="43.412798037752509" lon="-8.167970012873411">
        <ele>4.94</ele>
        <time>2025-04-30T11:35:20Z</time>
      </trkpt>
      <trkpt lat="43.412868026643991" lon="-8.168098004534841">
        <ele>5.42</ele>
        <time>2025-04-30T11:35:22Z</time>
      </trkpt>
      <trkpt lat="43.412913037464023" lon="-8.168179979547858">
        <ele>5.91</ele>
        <time>2025-04-30T11:35:23Z</time>
      </trkpt>
      <trkpt lat="43.412911025807261" lon="-8.168303025886416">
        <ele>6.39</ele>
        <time>2025-04-30T11:35:24Z</time>
      </trkpt>
      <trkpt lat="43.412891998887062" lon="-8.168414002284408">
        <ele>6.39</ele>
        <time>2025-04-30T11:35:25Z</time>
      </trkpt>
      <trkpt lat="43.412836007773876" lon="-8.168511986732483">
        <ele>6.39</ele>
        <time>2025-04-30T11:35:26Z</time>
      </trkpt>
      <trkpt lat="43.412767024710774" lon="-8.168579963967204">
        <ele>6.87</ele>
        <time>2025-04-30T11:35:27Z</time>
      </trkpt>
      <trkpt lat="43.412681026384234" lon="-8.168576024472714">
        <ele>6.87</ele>
        <time>2025-04-30T11:35:28Z</time>
      </trkpt>
      <trkpt lat="43.412589998915792" lon="-8.168555991724134">
        <ele>6.87</ele>
        <time>2025-04-30T11:35:29Z</time>
      </trkpt>
      <trkpt lat="43.412486985325813" lon="-8.168550040572882">
        <ele>7.35</ele>
        <time>2025-04-30T11:35:30Z</time>
      </trkpt>
      <trkpt lat="43.412383971735835" lon="-8.168550040572882">
        <ele>7.35</ele>
        <time>2025-04-30T11:35:31Z</time>
      </trkpt>
      <trkpt lat="43.412276012822986" lon="-8.168550040572882">
        <ele>7.35</ele>
        <time>2025-04-30T11:35:32Z</time>
      </trkpt>
      <trkpt lat="43.412163024768233" lon="-8.168550040572882">
        <ele>7.35</ele>
        <time>2025-04-30T11:35:33Z</time>
      </trkpt>
      <trkpt lat="43.411106988787651" lon="-8.168886993080378">
        <ele>8.789999999999999</ele>
        <time>2025-04-30T11:35:43Z</time>
      </trkpt>
      <trkpt lat="43.409753981977701" lon="-8.169323019683361">
        <ele>12.15</ele>
        <time>2025-04-30T11:35:58Z</time>
      </trkpt>
      <trkpt lat="43.408254962414503" lon="-8.169799027964473">
        <ele>12.630000000000001</ele>
        <time>2025-04-30T11:36:12Z</time>
      </trkpt>
      <trkpt lat="43.407821031287313" lon="-8.169932970777154">
        <ele>13.119999999999999</ele>
        <time>2025-04-30T11:36:19Z</time>
      </trkpt>
      <trkpt lat="43.407448036596179" lon="-8.170131035149097">
        <ele>13.119999999999999</ele>
        <time>2025-04-30T11:36:24Z</time>
      </trkpt>
      <trkpt lat="43.407391039654613" lon="-8.17011603154242">
        <ele>13.119999999999999</ele>
        <time>2025-04-30T11:36:25Z</time>
      </trkpt>
      <trkpt lat="43.407325996086001" lon="-8.16996599547565">
        <ele>13.119999999999999</ele>
        <time>2025-04-30T11:36:26Z</time>
      </trkpt>
      <trkpt lat="43.407284002751112" lon="-8.1699029635638">
        <ele>13.119999999999999</ele>
        <time>2025-04-30T11:36:27Z</time>
      </trkpt>
      <trkpt lat="43.407235974445939" lon="-8.169830963015556">
        <ele>13.119999999999999</ele>
        <time>2025-04-30T11:36:28Z</time>
      </trkpt>
      <trkpt lat="43.406834984198213" lon="-8.169367024675012">
        <ele>13.6</ele>
        <time>2025-04-30T11:36:36Z</time>
      </trkpt>
      <trkpt lat="43.406787039712071" lon="-8.169320002198219">
        <ele>14.08</ele>
        <time>2025-04-30T11:36:37Z</time>
      </trkpt>
      <trkpt lat="43.406768012791872" lon="-8.16930097527802">
        <ele>14.08</ele>
        <time>2025-04-30T11:36:38Z</time>
      </trkpt>
      <trkpt lat="43.406673967838287" lon="-8.169170971959829">
        <ele>14.08</ele>
        <time>2025-04-30T11:36:41Z</time>
      </trkpt>
      <trkpt lat="43.406631974503398" lon="-8.169112969189882">
        <ele>14.08</ele>
        <time>2025-04-30T11:36:42Z</time>
      </trkpt>
      <trkpt lat="43.406137023121119" lon="-8.168708039447665">
        <ele>16.960000000000001</ele>
        <time>2025-04-30T11:36:51Z</time>
      </trkpt>
      <trkpt lat="43.405901994556189" lon="-8.168497988954186">
        <ele>18.879999999999999</ele>
        <time>2025-04-30T11:37:01Z</time>
      </trkpt>
      <trkpt lat="43.405758999288082" lon="-8.168371003121138">
        <ele>20.809999999999999</ele>
        <time>2025-04-30T11:37:20Z</time>
      </trkpt>
      <trkpt lat="43.40517302043736" lon="-8.167562987655401">
        <ele>25.609999999999999</ele>
        <time>2025-04-30T11:37:30Z</time>
      </trkpt>
      <trkpt lat="43.404966993257403" lon="-8.167210025712848">
        <ele>27.050000000000001</ele>
        <time>2025-04-30T11:37:33Z</time>
      </trkpt>
      <trkpt lat="43.404242964461446" lon="-8.165844026952982">
        <ele>33.299999999999997</ele>
        <time>2025-04-30T11:37:43Z</time>
      </trkpt>
      <trkpt lat="43.404167024418712" lon="-8.165702037513256">
        <ele>33.780000000000001</ele>
        <time>2025-04-30T11:37:44Z</time>
      </trkpt>
      <trkpt lat="43.403735021129251" lon="-8.164791008457542">
        <ele>36.189999999999998</ele>
        <time>2025-04-30T11:37:50Z</time>
      </trkpt>
      <trkpt lat="43.403352973982692" lon="-8.162978002801538">
        <ele>41.469999999999999</ele>
        <time>2025-04-30T11:37:59Z</time>
      </trkpt>
      <trkpt lat="43.403266975656152" lon="-8.162582041695714">
        <ele>42.439999999999998</ele>
        <time>2025-04-30T11:38:01Z</time>
      </trkpt>
      <trkpt lat="43.403183994814754" lon="-8.162404010072351">
        <ele>42.920000000000002</ele>
        <time>2025-04-30T11:38:02Z</time>
      </trkpt>
      <trkpt lat="43.403079975396395" lon="-8.16225397400558">
        <ele>43.880000000000003</ele>
        <time>2025-04-30T11:38:03Z</time>
      </trkpt>
      <trkpt lat="43.402957012876868" lon="-8.162152972072363">
        <ele>44.840000000000003</ele>
        <time>2025-04-30T11:38:04Z</time>
      </trkpt>
      <trkpt lat="43.40281100012362" lon="-8.162121959030628">
        <ele>45.799999999999997</ele>
        <time>2025-04-30T11:38:05Z</time>
      </trkpt>
      <trkpt lat="43.402655012905598" lon="-8.162132017314434">
        <ele>46.280000000000001</ele>
        <time>2025-04-30T11:38:06Z</time>
      </trkpt>
      <trkpt lat="43.402496008202434" lon="-8.162183985114098">
        <ele>47.240000000000002</ele>
        <time>2025-04-30T11:38:07Z</time>
      </trkpt>
      <trkpt lat="43.40233800932765" lon="-8.162236958742142">
        <ele>48.200000000000003</ele>
        <time>2025-04-30T11:38:08Z</time>
      </trkpt>
      <trkpt lat="43.400911996141076" lon="-8.163129966706038">
        <ele>56.369999999999997</ele>
        <time>2025-04-30T11:38:18Z</time>
      </trkpt>
      <trkpt lat="43.399368971586227" lon="-8.164623035117984">
        <ele>68.390000000000001</ele>
        <time>2025-04-30T11:38:31Z</time>
      </trkpt>
      <trkpt lat="43.399262018501759" lon="-8.164736023172736">
        <ele>69.349999999999994</ele>
        <time>2025-04-30T11:38:32Z</time>
      </trkpt>
      <trkpt lat="43.398163989186287" lon="-8.166275024414063">
        <ele>80.409999999999997</ele>
        <time>2025-04-30T11:38:43Z</time>
      </trkpt>
      <trkpt lat="43.397646993398666" lon="-8.167165014892817">
        <ele>84.25</ele>
        <time>2025-04-30T11:38:48Z</time>
      </trkpt>
      <trkpt lat="43.397572981193662" lon="-8.16738897934556">
        <ele>85.209999999999994</ele>
        <time>2025-04-30T11:38:49Z</time>
      </trkpt>
      <trkpt lat="43.397520007565618" lon="-8.167628031224012">
        <ele>85.689999999999998</ele>
        <time>2025-04-30T11:38:50Z</time>
      </trkpt>
      <trkpt lat="43.39748103171587" lon="-8.167885020375252">
        <ele>86.659999999999997</ele>
        <time>2025-04-30T11:38:51Z</time>
      </trkpt>
      <trkpt lat="43.397497041150928" lon="-8.168136980384588">
        <ele>87.620000000000005</ele>
        <time>2025-04-30T11:38:52Z</time>
      </trkpt>
      <trkpt lat="43.397562000900507" lon="-8.168401010334492">
        <ele>88.579999999999998</ele>
        <time>2025-04-30T11:38:53Z</time>
      </trkpt>
      <trkpt lat="43.397672977298498" lon="-8.168637966737151">
        <ele>89.540000000000006</ele>
        <time>2025-04-30T11:38:54Z</time>
      </trkpt>
      <trkpt lat="43.397798035293818" lon="-8.168854974210262">
        <ele>90.5</ele>
        <time>2025-04-30T11:38:55Z</time>
      </trkpt>
      <trkpt lat="43.397986041381955" lon="-8.169009033590555">
        <ele>90.980000000000004</ele>
        <time>2025-04-30T11:38:56Z</time>
      </trkpt>
      <trkpt lat="43.398163989186287" lon="-8.169134007766843">
        <ele>91.939999999999998</ele>
        <time>2025-04-30T11:38:57Z</time>
      </trkpt>
      <trkpt lat="43.398378985002637" lon="-8.169193016365171">
        <ele>92.900000000000006</ele>
        <time>2025-04-30T11:38:58Z</time>
      </trkpt>
      <trkpt lat="43.398583000525832" lon="-8.169193016365171">
        <ele>94.349999999999994</ele>
        <time>2025-04-30T11:38:59Z</time>
      </trkpt>
      <trkpt lat="43.398782992735505" lon="-8.169131996110082">
        <ele>95.310000000000002</ele>
        <time>2025-04-30T11:39:00Z</time>
      </trkpt>
      <trkpt lat="43.398964963853359" lon="-8.169007021933794">
        <ele>96.75</ele>
        <time>2025-04-30T11:39:01Z</time>
      </trkpt>
      <trkpt lat="43.399118017405272" lon="-8.168833013623953">
        <ele>97.709999999999994</ele>
        <time>2025-04-30T11:39:02Z</time>
      </trkpt>
      <trkpt lat="43.399261012673378" lon="-8.168645007535815">
        <ele>98.670000000000002</ele>
        <time>2025-04-30T11:39:03Z</time>
      </trkpt>
      <trkpt lat="43.39939596131444" lon="-8.168447026982904">
        <ele>99.629999999999995</ele>
        <time>2025-04-30T11:39:04Z</time>
      </trkpt>
      <trkpt lat="43.400028040632606" lon="-8.167500961571932">
        <ele>103.95999999999999</ele>
        <time>2025-04-30T11:39:09Z</time>
      </trkpt>
      <trkpt lat="43.400158965960145" lon="-8.167369030416012">
        <ele>104.92</ele>
        <time>2025-04-30T11:39:10Z</time>
      </trkpt>
      <trkpt lat="43.400309002026916" lon="-8.167287977412343">
        <ele>105.40000000000001</ele>
        <time>2025-04-30T11:39:11Z</time>
      </trkpt>
      <trkpt lat="43.400451997295022" lon="-8.167251013219357">
        <ele>105.88</ele>
        <time>2025-04-30T11:39:12Z</time>
      </trkpt>
      <trkpt lat="43.400614019483328" lon="-8.167282026261091">
        <ele>106.36</ele>
        <time>2025-04-30T11:39:13Z</time>
      </trkpt>
      <trkpt lat="43.400757014751434" lon="-8.1673230137676">
        <ele>107.31999999999999</ele>
        <time>2025-04-30T11:39:14Z</time>
      </trkpt>
      <trkpt lat="43.400894980877638" lon="-8.167460979893804">
        <ele>107.81</ele>
        <time>2025-04-30T11:39:15Z</time>
      </trkpt>
      <trkpt lat="43.401020038872957" lon="-8.167587965726852">
        <ele>108.77</ele>
        <time>2025-04-30T11:39:16Z</time>
      </trkpt>
      <trkpt lat="43.401104025542736" lon="-8.167776977643371">
        <ele>109.73</ele>
        <time>2025-04-30T11:39:17Z</time>
      </trkpt>
      <trkpt lat="43.401153981685638" lon="-8.167991973459721">
        <ele>110.69</ele>
        <time>2025-04-30T11:39:18Z</time>
      </trkpt>
      <trkpt lat="43.401184994727373" lon="-8.168200012296438">
        <ele>111.65000000000001</ele>
        <time>2025-04-30T11:39:19Z</time>
      </trkpt>
      <trkpt lat="43.401167979463935" lon="-8.16842095926404">
        <ele>112.61</ele>
        <time>2025-04-30T11:39:20Z</time>
      </trkpt>
      <trkpt lat="43.401100002229214" lon="-8.168623968958855">
        <ele>113.56999999999999</ele>
        <time>2025-04-30T11:39:21Z</time>
      </trkpt>
      <trkpt lat="43.401030013337731" lon="-8.16878498531878">
        <ele>114.53</ele>
        <time>2025-04-30T11:39:22Z</time>
      </trkpt>
      <trkpt lat="43.400934040546417" lon="-8.168921023607254">
        <ele>115.5</ele>
        <time>2025-04-30T11:39:23Z</time>
      </trkpt>
      <trkpt lat="43.400846030563116" lon="-8.1690429802984">
        <ele>116.45999999999999</ele>
        <time>2025-04-30T11:39:24Z</time>
      </trkpt>
      <trkpt lat="43.40074997395277" lon="-8.169142976403236">
        <ele>117.42</ele>
        <time>2025-04-30T11:39:25Z</time>
      </trkpt>
      <trkpt lat="43.400649977847934" lon="-8.169246995821595">
        <ele>118.38</ele>
        <time>2025-04-30T11:39:26Z</time>
      </trkpt>
      <trkpt lat="43.399625960737467" lon="-8.170099016278982">
        <ele>125.59</ele>
        <time>2025-04-30T11:39:35Z</time>
      </trkpt>
      <trkpt lat="43.398893969133496" lon="-8.170577036216855">
        <ele>129.43000000000001</ele>
        <time>2025-04-30T11:39:41Z</time>
      </trkpt>
      <trkpt lat="43.397453036159277" lon="-8.171326965093613">
        <ele>136.63999999999999</ele>
        <time>2025-04-30T11:39:52Z</time>
      </trkpt>
      <trkpt lat="43.396307984367013" lon="-8.171264017000794">
        <ele>142.41</ele>
        <time>2025-04-30T11:40:01Z</time>
      </trkpt>
      <trkpt lat="43.395814960822463" lon="-8.171195033937693">
        <ele>144.34</ele>
        <time>2025-04-30T11:40:05Z</time>
      </trkpt>
      <trkpt lat="43.395696021616459" lon="-8.171177012845874">
        <ele>144.34</ele>
        <time>2025-04-30T11:40:06Z</time>
      </trkpt>
      <trkpt lat="43.394466983154416" lon="-8.170978026464582">
        <ele>146.74000000000001</ele>
        <time>2025-04-30T11:40:16Z</time>
      </trkpt>
      <trkpt lat="43.39372300542891" lon="-8.170767975971103">
        <ele>149.62</ele>
        <time>2025-04-30T11:40:22Z</time>
      </trkpt>
      <trkpt lat="43.39361697435379" lon="-8.170694969594479">
        <ele>150.09999999999999</ele>
        <time>2025-04-30T11:40:23Z</time>
      </trkpt>
      <trkpt lat="43.393176002427936" lon="-8.17035399377346">
        <ele>152.03</ele>
        <time>2025-04-30T11:40:27Z</time>
      </trkpt>
      <trkpt lat="43.393065026029944" lon="-8.17026799544692">
        <ele>152.50999999999999</ele>
        <time>2025-04-30T11:40:28Z</time>
      </trkpt>
      <trkpt lat="43.391807992011309" lon="-8.169154040515423">
        <ele>160.68000000000001</ele>
        <time>2025-04-30T11:40:40Z</time>
      </trkpt>
      <trkpt lat="43.391169039532542" lon="-8.168665040284395">
        <ele>164.03999999999999</ele>
        <time>2025-04-30T11:40:46Z</time>
      </trkpt>
      <trkpt lat="43.389656022191048" lon="-8.167878985404968">
        <ele>162.12</ele>
        <time>2025-04-30T11:40:57Z</time>
      </trkpt>
      <trkpt lat="43.389489976689219" lon="-8.16779600456357">
        <ele>161.63999999999999</ele>
        <time>2025-04-30T11:40:58Z</time>
      </trkpt>
      <trkpt lat="43.388576013967395" lon="-8.167503979057074">
        <ele>158.27000000000001</ele>
        <time>2025-04-30T11:41:03Z</time>
      </trkpt>
      <trkpt lat="43.388375015929341" lon="-8.167512025684118">
        <ele>157.31</ele>
        <time>2025-04-30T11:41:04Z</time>
      </trkpt>
      <trkpt lat="43.388171000406146" lon="-8.167531974613667">
        <ele>156.34999999999999</ele>
        <time>2025-04-30T11:41:05Z</time>
      </trkpt>
      <trkpt lat="43.387974025681615" lon="-8.167597018182278">
        <ele>154.91</ele>
        <time>2025-04-30T11:41:06Z</time>
      </trkpt>
      <trkpt lat="43.387773027643561" lon="-8.167664995416999">
        <ele>153.47</ele>
        <time>2025-04-30T11:41:07Z</time>
      </trkpt>
      <trkpt lat="43.387576974928379" lon="-8.167781000956893">
        <ele>151.53999999999999</ele>
        <time>2025-04-30T11:41:08Z</time>
      </trkpt>
      <trkpt lat="43.387378994375467" lon="-8.167903963476419">
        <ele>150.09999999999999</ele>
        <time>2025-04-30T11:41:09Z</time>
      </trkpt>
      <trkpt lat="43.387192999944091" lon="-8.168061962351203">
        <ele>149.13999999999999</ele>
        <time>2025-04-30T11:41:10Z</time>
      </trkpt>
      <trkpt lat="43.387023014947772" lon="-8.168245023116469">
        <ele>147.69999999999999</ele>
        <time>2025-04-30T11:41:11Z</time>
      </trkpt>
      <trkpt lat="43.386860992759466" lon="-8.168443003669381">
        <ele>146.25999999999999</ele>
        <time>2025-04-30T11:41:12Z</time>
      </trkpt>
      <trkpt lat="43.386708023026586" lon="-8.168650958687067">
        <ele>145.30000000000001</ele>
        <time>2025-04-30T11:41:13Z</time>
      </trkpt>
      <trkpt lat="43.385375970974565" lon="-8.170363968238235">
        <ele>135.19999999999999</ele>
        <time>2025-04-30T11:41:21Z</time>
      </trkpt>
      <trkpt lat="43.385181007906795" lon="-8.170551974326372">
        <ele>134.24000000000001</ele>
        <time>2025-04-30T11:41:22Z</time>
      </trkpt>
      <trkpt lat="43.384975986555219" lon="-8.170721959322691">
        <ele>133.28</ele>
        <time>2025-04-30T11:41:23Z</time>
      </trkpt>
      <trkpt lat="43.382998025044799" lon="-8.171938005834818">
        <ele>122.70999999999999</ele>
        <time>2025-04-30T11:41:32Z</time>
      </trkpt>
      <trkpt lat="43.381494982168078" lon="-8.172691036015749">
        <ele>115.5</ele>
        <time>2025-04-30T11:41:40Z</time>
      </trkpt>
      <trkpt lat="43.379389028996229" lon="-8.173635005950928">
        <ele>106.84</ele>
        <time>2025-04-30T11:41:51Z</time>
      </trkpt>
      <trkpt lat="43.378138029947877" lon="-8.17430698312819">
        <ele>102.52</ele>
        <time>2025-04-30T11:41:57Z</time>
      </trkpt>
      <trkpt lat="43.377955975010991" lon="-8.174502030014992">
        <ele>102.52</ele>
        <time>2025-04-30T11:41:58Z</time>
      </trkpt>
      <trkpt lat="43.377788001671433" lon="-8.174716020002961">
        <ele>103</ele>
        <time>2025-04-30T11:41:59Z</time>
      </trkpt>
      <trkpt lat="43.377632014453411" lon="-8.17494903691113">
        <ele>103.95999999999999</ele>
        <time>2025-04-30T11:42:00Z</time>
      </trkpt>
      <trkpt lat="43.377474015578628" lon="-8.175185993313789">
        <ele>104.92</ele>
        <time>2025-04-30T11:42:01Z</time>
      </trkpt>
      <trkpt lat="43.376815030351281" lon="-8.176100961863995">
        <ele>109.73</ele>
        <time>2025-04-30T11:42:05Z</time>
      </trkpt>
      <trkpt lat="43.376615038141608" lon="-8.176258960738778">
        <ele>111.17</ele>
        <time>2025-04-30T11:42:06Z</time>
      </trkpt>
      <trkpt lat="43.37640599347651" lon="-8.176425006240606">
        <ele>112.13</ele>
        <time>2025-04-30T11:42:07Z</time>
      </trkpt>
      <trkpt lat="43.376201977953315" lon="-8.176543023437262">
        <ele>112.61</ele>
        <time>2025-04-30T11:42:08Z</time>
      </trkpt>
      <trkpt lat="43.37597600184381" lon="-8.176621980965138">
        <ele>113.56999999999999</ele>
        <time>2025-04-30T11:42:09Z</time>
      </trkpt>
      <trkpt lat="43.375746002420783" lon="-8.176681995391846">
        <ele>114.05</ele>
        <time>2025-04-30T11:42:10Z</time>
      </trkpt>
      <trkpt lat="43.375512985512614" lon="-8.176681995391846">
        <ele>114.05</ele>
        <time>2025-04-30T11:42:11Z</time>
      </trkpt>
      <trkpt lat="43.375274017453194" lon="-8.176681995391846">
        <ele>114.05</ele>
        <time>2025-04-30T11:42:12Z</time>
      </trkpt>
      <trkpt lat="43.375033037737012" lon="-8.176664980128408">
        <ele>114.05</ele>
        <time>2025-04-30T11:42:13Z</time>
      </trkpt>
      <trkpt lat="43.373336959630251" lon="-8.176619969308376">
        <ele>109.73</ele>
        <time>2025-04-30T11:42:20Z</time>
      </trkpt>
      <trkpt lat="43.37311701849103" lon="-8.1767120026052">
        <ele>109.25</ele>
        <time>2025-04-30T11:42:21Z</time>
      </trkpt>
      <trkpt lat="43.372896993532777" lon="-8.176804035902023">
        <ele>108.29000000000001</ele>
        <time>2025-04-30T11:42:22Z</time>
      </trkpt>
      <trkpt lat="43.371622022241354" lon="-8.1776790227741">
        <ele>106.36</ele>
        <time>2025-04-30T11:42:28Z</time>
      </trkpt>
      <trkpt lat="43.370228027924895" lon="-8.178727012127638">
        <ele>111.17</ele>
        <time>2025-04-30T11:42:35Z</time>
      </trkpt>
      <trkpt lat="43.368797991424799" lon="-8.179639969021082">
        <ele>112.13</ele>
        <time>2025-04-30T11:42:43Z</time>
      </trkpt>
      <trkpt lat="43.368590036407113" lon="-8.179691014811397">
        <ele>112.13</ele>
        <time>2025-04-30T11:42:44Z</time>
      </trkpt>
      <trkpt lat="43.368375040590763" lon="-8.179726973176003">
        <ele>111.65000000000001</ele>
        <time>2025-04-30T11:42:45Z</time>
      </trkpt>
      <trkpt lat="43.36815501563251" lon="-8.179712975397706">
        <ele>111.17</ele>
        <time>2025-04-30T11:42:46Z</time>
      </trkpt>
      <trkpt lat="43.367934990674257" lon="-8.179666036739945">
        <ele>110.20999999999999</ele>
        <time>2025-04-30T11:42:47Z</time>
      </trkpt>
      <trkpt lat="43.367713037878275" lon="-8.179603004828095">
        <ele>109.73</ele>
        <time>2025-04-30T11:42:48Z</time>
      </trkpt>
      <trkpt lat="43.367497036233544" lon="-8.179508037865162">
        <ele>108.77</ele>
        <time>2025-04-30T11:42:49Z</time>
      </trkpt>
      <trkpt lat="43.365956023335457" lon="-8.178570019081235">
        <ele>101.56</ele>
        <time>2025-04-30T11:42:56Z</time>
      </trkpt>
      <trkpt lat="43.36570699699223" lon="-8.178482009097934">
        <ele>100.59999999999999</ele>
        <time>2025-04-30T11:42:57Z</time>
      </trkpt>
      <trkpt lat="43.365493007004261" lon="-8.178404979407787">
        <ele>99.629999999999995</ele>
        <time>2025-04-30T11:42:58Z</time>
      </trkpt>
      <trkpt lat="43.36527599953115" lon="-8.178358962759376">
        <ele>98.189999999999998</ele>
        <time>2025-04-30T11:42:59Z</time>
      </trkpt>
      <trkpt lat="43.365067960694432" lon="-8.178368015214801">
        <ele>97.230000000000004</ele>
        <time>2025-04-30T11:43:00Z</time>
      </trkpt>
      <trkpt lat="43.364861011505127" lon="-8.178375978022814">
        <ele>96.269999999999996</ele>
        <time>2025-04-30T11:43:01Z</time>
      </trkpt>
      <trkpt lat="43.364650039002299" lon="-8.178450996056199">
        <ele>94.829999999999998</ele>
        <time>2025-04-30T11:43:02Z</time>
      </trkpt>
      <trkpt lat="43.364440994337201" lon="-8.178530959412456">
        <ele>93.870000000000005</ele>
        <time>2025-04-30T11:43:03Z</time>
      </trkpt>
      <trkpt lat="43.364221975207329" lon="-8.178605977445841">
        <ele>93.390000000000001</ele>
        <time>2025-04-30T11:43:04Z</time>
      </trkpt>
      <trkpt lat="43.363140961155295" lon="-8.17907796241343">
        <ele>89.540000000000006</ele>
        <time>2025-04-30T11:43:09Z</time>
      </trkpt>
      <trkpt lat="43.362935017794371" lon="-8.179134959354997">
        <ele>89.060000000000002</ele>
        <time>2025-04-30T11:43:10Z</time>
      </trkpt>
      <trkpt lat="43.36274097673595" lon="-8.179171001538634">
        <ele>87.620000000000005</ele>
        <time>2025-04-30T11:43:11Z</time>
      </trkpt>
      <trkpt lat="43.361791977658868" lon="-8.179147029295564">
        <ele>82.329999999999998</ele>
        <time>2025-04-30T11:43:17Z</time>
      </trkpt>
      <trkpt lat="43.360192961990833" lon="-8.179171001538634">
        <ele>77.040000000000006</ele>
        <time>2025-04-30T11:43:29Z</time>
      </trkpt>
      <trkpt lat="43.359000971540809" lon="-8.179454980418086">
        <ele>71.760000000000005</ele>
        <time>2025-04-30T11:43:39Z</time>
      </trkpt>
      <trkpt lat="43.358878009021282" lon="-8.179535027593374">
        <ele>70.790000000000006</ele>
        <time>2025-04-30T11:43:40Z</time>
      </trkpt>
      <trkpt lat="43.358759991824627" lon="-8.179649021476507">
        <ele>69.829999999999998</ele>
        <time>2025-04-30T11:43:41Z</time>
      </trkpt>
      <trkpt lat="43.358654966577888" lon="-8.179795034229755">
        <ele>68.870000000000005</ele>
        <time>2025-04-30T11:43:42Z</time>
      </trkpt>
      <trkpt lat="43.358532004058361" lon="-8.179965019226074">
        <ele>67.909999999999997</ele>
        <time>2025-04-30T11:43:43Z</time>
      </trkpt>
      <trkpt lat="43.358461009338498" lon="-8.180155036970973">
        <ele>66.950000000000003</ele>
        <time>2025-04-30T11:43:44Z</time>
      </trkpt>
      <trkpt lat="43.358411975204945" lon="-8.18038797006011">
        <ele>65.989999999999995</ele>
        <time>2025-04-30T11:43:45Z</time>
      </trkpt>
      <trkpt lat="43.358389008790255" lon="-8.180617969483137">
        <ele>65.030000000000001</ele>
        <time>2025-04-30T11:43:46Z</time>
      </trkpt>
      <trkpt lat="43.358366964384913" lon="-8.180842017754912">
        <ele>64.549999999999997</ele>
        <time>2025-04-30T11:43:47Z</time>
      </trkpt>
      <trkpt lat="43.35833796299994" lon="-8.181063970550895">
        <ele>63.579999999999998</ele>
        <time>2025-04-30T11:43:48Z</time>
      </trkpt>
      <trkpt lat="43.358305022120476" lon="-8.182214973494411">
        <ele>57.82</ele>
        <time>2025-04-30T11:43:54Z</time>
      </trkpt>
      <trkpt lat="43.358255987986922" lon="-8.182397028431296">
        <ele>56.859999999999999</ele>
        <time>2025-04-30T11:43:55Z</time>
      </trkpt>
      <trkpt lat="43.358191028237343" lon="-8.182565001770854">
        <ele>56.369999999999997</ele>
        <time>2025-04-30T11:43:56Z</time>
      </trkpt>
      <trkpt lat="43.358115004375577" lon="-8.182755019515753">
        <ele>55.409999999999997</ele>
        <time>2025-04-30T11:43:57Z</time>
      </trkpt>
      <trkpt lat="43.358037974685431" lon="-8.182947970926762">
        <ele>54.93</ele>
        <time>2025-04-30T11:43:58Z</time>
      </trkpt>
      <trkpt lat="43.35790797136724" lon="-8.183095995336771">
        <ele>53.969999999999999</ele>
        <time>2025-04-30T11:43:59Z</time>
      </trkpt>
      <trkpt lat="43.35777897387743" lon="-8.183252988383174">
        <ele>53.009999999999998</ele>
        <time>2025-04-30T11:44:00Z</time>
      </trkpt>
      <trkpt lat="43.357652993872762" lon="-8.183408975601196">
        <ele>52.049999999999997</ele>
        <time>2025-04-30T11:44:01Z</time>
      </trkpt>
      <trkpt lat="43.357269018888474" lon="-8.183934018015862">
        <ele>49.649999999999999</ele>
        <time>2025-04-30T11:44:04Z</time>
      </trkpt>
      <trkpt lat="43.357143960893154" lon="-8.184135016053915">
        <ele>48.68</ele>
        <time>2025-04-30T11:44:05Z</time>
      </trkpt>
      <trkpt lat="43.357038013637066" lon="-8.184365015476942">
        <ele>47.240000000000002</ele>
        <time>2025-04-30T11:44:06Z</time>
      </trkpt>
      <trkpt lat="43.356946986168623" lon="-8.184611024335027">
        <ele>46.280000000000001</ele>
        <time>2025-04-30T11:44:07Z</time>
      </trkpt>
      <trkpt lat="43.356865011155605" lon="-8.184866001829505">
        <ele>45.32</ele>
        <time>2025-04-30T11:44:08Z</time>
      </trkpt>
      <trkpt lat="43.356797033920884" lon="-8.185139000415802">
        <ele>43.880000000000003</ele>
        <time>2025-04-30T11:44:09Z</time>
      </trkpt>
      <trkpt lat="43.356753028929234" lon="-8.185419039800763">
        <ele>42.920000000000002</ele>
        <time>2025-04-30T11:44:10Z</time>
      </trkpt>
      <trkpt lat="43.356720004230738" lon="-8.185708969831467">
        <ele>41.950000000000003</ele>
        <time>2025-04-30T11:44:11Z</time>
      </trkpt>
      <trkpt lat="43.356711035594344" lon="-8.185996972024441">
        <ele>40.990000000000002</ele>
        <time>2025-04-30T11:44:12Z</time>
      </trkpt>
      <trkpt lat="43.356721010059118" lon="-8.186283968389034">
        <ele>40.030000000000001</ele>
        <time>2025-04-30T11:44:13Z</time>
      </trkpt>
      <trkpt lat="43.356732996180654" lon="-8.186578005552292">
        <ele>39.07</ele>
        <time>2025-04-30T11:44:14Z</time>
      </trkpt>
      <trkpt lat="43.356831986457109" lon="-8.189230961725116">
        <ele>29.940000000000001</ele>
        <time>2025-04-30T11:44:23Z</time>
      </trkpt>
      <trkpt lat="43.35689602419734" lon="-8.191559035331011">
        <ele>21.289999999999999</ele>
        <time>2025-04-30T11:44:31Z</time>
      </trkpt>
      <trkpt lat="43.356867022812366" lon="-8.191843014210463">
        <ele>20.32</ele>
        <time>2025-04-30T11:44:32Z</time>
      </trkpt>
      <trkpt lat="43.3568100258708" lon="-8.192111989483237">
        <ele>19.84</ele>
        <time>2025-04-30T11:44:33Z</time>
      </trkpt>
      <trkpt lat="43.356730984523892" lon="-8.192377025261521">
        <ele>19.359999999999999</ele>
        <time>2025-04-30T11:44:34Z</time>
      </trkpt>
      <trkpt lat="43.356636017560959" lon="-8.192638037726283">
        <ele>19.359999999999999</ele>
        <time>2025-04-30T11:44:35Z</time>
      </trkpt>
      <trkpt lat="43.356541972607374" lon="-8.192894021049142">
        <ele>19.84</ele>
        <time>2025-04-30T11:44:36Z</time>
      </trkpt>
      <trkpt lat="43.3564249612391" lon="-8.19312896579504">
        <ele>20.32</ele>
        <time>2025-04-30T11:44:37Z</time>
      </trkpt>
      <trkpt lat="43.35629696957767" lon="-8.193357037380338">
        <ele>20.809999999999999</ele>
        <time>2025-04-30T11:44:38Z</time>
      </trkpt>
      <trkpt lat="43.356139976531267" lon="-8.19353599101305">
        <ele>21.77</ele>
        <time>2025-04-30T11:44:39Z</time>
      </trkpt>
      <trkpt lat="43.355969991534948" lon="-8.193705976009369">
        <ele>22.73</ele>
        <time>2025-04-30T11:44:40Z</time>
      </trkpt>
      <trkpt lat="43.355794977396727" lon="-8.193869004026055">
        <ele>24.170000000000002</ele>
        <time>2025-04-30T11:44:41Z</time>
      </trkpt>
      <trkpt lat="43.355610994622111" lon="-8.194014010950923">
        <ele>25.129999999999999</ele>
        <time>2025-04-30T11:44:42Z</time>
      </trkpt>
      <trkpt lat="43.355412008240819" lon="-8.194131022319198">
        <ele>26.09</ele>
        <time>2025-04-30T11:44:43Z</time>
      </trkpt>
      <trkpt lat="43.355211010202765" lon="-8.194232024252415">
        <ele>27.050000000000001</ele>
        <time>2025-04-30T11:44:44Z</time>
      </trkpt>
      <trkpt lat="43.35245001129806" lon="-8.195598023012281">
        <ele>29.460000000000001</ele>
        <time>2025-04-30T11:44:57Z</time>
      </trkpt>
      <trkpt lat="43.351615006104112" lon="-8.196117030456662">
        <ele>28.02</ele>
        <time>2025-04-30T11:45:01Z</time>
      </trkpt>
      <trkpt lat="43.351433034986258" lon="-8.196309981867671">
        <ele>27.530000000000001</ele>
        <time>2025-04-30T11:45:02Z</time>
      </trkpt>
      <trkpt lat="43.351251985877752" lon="-8.196508968248963">
        <ele>27.530000000000001</ele>
        <time>2025-04-30T11:45:03Z</time>
      </trkpt>
      <trkpt lat="43.35109599865973" lon="-8.19673603400588">
        <ele>27.530000000000001</ele>
        <time>2025-04-30T11:45:04Z</time>
      </trkpt>
      <trkpt lat="43.350954009220004" lon="-8.196971984580159">
        <ele>28.02</ele>
        <time>2025-04-30T11:45:05Z</time>
      </trkpt>
      <trkpt lat="43.350830040872097" lon="-8.197229979559779">
        <ele>28.5</ele>
        <time>2025-04-30T11:45:06Z</time>
      </trkpt>
      <trkpt lat="43.350735995918512" lon="-8.197523010894656">
        <ele>28.98</ele>
        <time>2025-04-30T11:45:07Z</time>
      </trkpt>
      <trkpt lat="43.350584032014012" lon="-8.19813103415072">
        <ele>30.420000000000002</ele>
        <time>2025-04-30T11:45:09Z</time>
      </trkpt>
      <trkpt lat="43.350531980395317" lon="-8.198449965566397">
        <ele>31.379999999999999</ele>
        <time>2025-04-30T11:45:10Z</time>
      </trkpt>
      <trkpt lat="43.350285971537232" lon="-8.200450977310538">
        <ele>38.590000000000003</ele>
        <time>2025-04-30T11:45:17Z</time>
      </trkpt>
      <trkpt lat="43.350244984030724" lon="-8.200726993381977">
        <ele>39.549999999999997</ele>
        <time>2025-04-30T11:45:18Z</time>
      </trkpt>
      <trkpt lat="43.350206008180976" lon="-8.200928997248411">
        <ele>40.509999999999998</ele>
        <time>2025-04-30T11:45:19Z</time>
      </trkpt>
      <trkpt lat="43.350133001804352" lon="-8.201215993613005">
        <ele>41.469999999999999</ele>
        <time>2025-04-30T11:45:20Z</time>
      </trkpt>
      <trkpt lat="43.350050020962954" lon="-8.201452028006315">
        <ele>42.439999999999998</ele>
        <time>2025-04-30T11:45:21Z</time>
      </trkpt>
      <trkpt lat="43.349969973787665" lon="-8.201658977195621">
        <ele>43.399999999999999</ele>
        <time>2025-04-30T11:45:22Z</time>
      </trkpt>
      <trkpt lat="43.349823961034417" lon="-8.201857041567564">
        <ele>44.840000000000003</ele>
        <time>2025-04-30T11:45:23Z</time>
      </trkpt>
      <trkpt lat="43.349689012393355" lon="-8.202041024342179">
        <ele>45.799999999999997</ele>
        <time>2025-04-30T11:45:24Z</time>
      </trkpt>
      <trkpt lat="43.349533025175333" lon="-8.202191982418299">
        <ele>46.759999999999998</ele>
        <time>2025-04-30T11:45:25Z</time>
      </trkpt>
      <trkpt lat="43.349363962188363" lon="-8.202330032363534">
        <ele>48.68</ele>
        <time>2025-04-30T11:45:26Z</time>
      </trkpt>
      <trkpt lat="43.349178973585367" lon="-8.202437991276383">
        <ele>50.130000000000003</ele>
        <time>2025-04-30T11:45:27Z</time>
      </trkpt>
      <trkpt lat="43.34899197332561" lon="-8.202543016523123">
        <ele>51.57</ele>
        <time>2025-04-30T11:45:28Z</time>
      </trkpt>
      <trkpt lat="43.348788041621447" lon="-8.202617028728128">
        <ele>53.490000000000002</ele>
        <time>2025-04-30T11:45:29Z</time>
      </trkpt>
      <trkpt lat="43.348572961986065" lon="-8.202662961557508">
        <ele>54.93</ele>
        <time>2025-04-30T11:45:30Z</time>
      </trkpt>
      <trkpt lat="43.34834698587656" lon="-8.202704032883048">
        <ele>56.369999999999997</ele>
        <time>2025-04-30T11:45:31Z</time>
      </trkpt>
      <trkpt lat="43.347408967092633" lon="-8.202959010377526">
        <ele>63.100000000000001</ele>
        <time>2025-04-30T11:45:35Z</time>
      </trkpt>
      <trkpt lat="43.347182990983129" lon="-8.203082978725433">
        <ele>65.030000000000001</ele>
        <time>2025-04-30T11:45:36Z</time>
      </trkpt>
      <trkpt lat="43.346976963803172" lon="-8.203249024227262">
        <ele>66.950000000000003</ele>
        <time>2025-04-30T11:45:37Z</time>
      </trkpt>
      <trkpt lat="43.346782000735402" lon="-8.203429989516735">
        <ele>68.870000000000005</ele>
        <time>2025-04-30T11:45:38Z</time>
      </trkpt>
      <trkpt lat="43.346590977162123" lon="-8.203607015311718">
        <ele>70.310000000000002</ele>
        <time>2025-04-30T11:45:39Z</time>
      </trkpt>
      <trkpt lat="43.345278035849333" lon="-8.20457898080349">
        <ele>76.560000000000002</ele>
        <time>2025-04-30T11:45:46Z</time>
      </trkpt>
      <trkpt lat="43.345069997012615" lon="-8.204634971916676">
        <ele>77.040000000000006</ele>
        <time>2025-04-30T11:45:47Z</time>
      </trkpt>
      <trkpt lat="43.344851983711123" lon="-8.204662967473269">
        <ele>77.040000000000006</ele>
        <time>2025-04-30T11:45:48Z</time>
      </trkpt>
      <trkpt lat="43.344641011208296" lon="-8.204677971079946">
        <ele>77.040000000000006</ele>
        <time>2025-04-30T11:45:49Z</time>
      </trkpt>
      <trkpt lat="43.344431966543198" lon="-8.204644024372101">
        <ele>76.560000000000002</ele>
        <time>2025-04-30T11:45:50Z</time>
      </trkpt>
      <trkpt lat="43.344230968505144" lon="-8.204601025208831">
        <ele>76.560000000000002</ele>
        <time>2025-04-30T11:45:51Z</time>
      </trkpt>
      <trkpt lat="43.344041034579277" lon="-8.204523995518684">
        <ele>75.599999999999994</ele>
        <time>2025-04-30T11:45:52Z</time>
      </trkpt>
      <trkpt lat="43.343853028491139" lon="-8.204426011070609">
        <ele>75.120000000000005</ele>
        <time>2025-04-30T11:45:53Z</time>
      </trkpt>
      <trkpt lat="43.343665022403002" lon="-8.204312017187476">
        <ele>74.159999999999997</ele>
        <time>2025-04-30T11:45:54Z</time>
      </trkpt>
      <trkpt lat="43.342702025547624" lon="-8.203872973099351">
        <ele>66.950000000000003</ele>
        <time>2025-04-30T11:45:59Z</time>
      </trkpt>
      <trkpt lat="43.342509996145964" lon="-8.20384900085628">
        <ele>65.030000000000001</ele>
        <time>2025-04-30T11:46:00Z</time>
      </trkpt>
      <trkpt lat="43.341956958174706" lon="-8.203743975609541">
        <ele>60.700000000000003</ele>
        <time>2025-04-30T11:46:03Z</time>
      </trkpt>
      <trkpt lat="43.341786973178387" lon="-8.2036770042032">
        <ele>58.780000000000001</ele>
        <time>2025-04-30T11:46:04Z</time>
      </trkpt>
      <trkpt lat="43.34162101149559" lon="-8.203559992834926">
        <ele>58.299999999999997</ele>
        <time>2025-04-30T11:46:05Z</time>
      </trkpt>
      <trkpt lat="43.341451026499271" lon="-8.203439963981509">
        <ele>57.340000000000003</ele>
        <time>2025-04-30T11:46:06Z</time>
      </trkpt>
      <trkpt lat="43.34129998460412" lon="-8.203288000077009">
        <ele>56.369999999999997</ele>
        <time>2025-04-30T11:46:07Z</time>
      </trkpt>
      <trkpt lat="43.339526038616896" lon="-8.201290005818009">
        <ele>46.759999999999998</ele>
        <time>2025-04-30T11:46:19Z</time>
      </trkpt>
      <trkpt lat="43.33882799372077" lon="-8.20036699064076">
        <ele>43.399999999999999</ele>
        <time>2025-04-30T11:46:24Z</time>
      </trkpt>
      <trkpt lat="43.338663037866354" lon="-8.200234975665808">
        <ele>42.439999999999998</ele>
        <time>2025-04-30T11:46:25Z</time>
      </trkpt>
      <trkpt lat="43.338482994586229" lon="-8.200123999267817">
        <ele>41.469999999999999</ele>
        <time>2025-04-30T11:46:26Z</time>
      </trkpt>
      <trkpt lat="43.338339999318123" lon="-8.200071025639772">
        <ele>40.509999999999998</ele>
        <time>2025-04-30T11:46:27Z</time>
      </trkpt>
      <trkpt lat="43.338103964924812" lon="-8.200045041739941">
        <ele>40.030000000000001</ele>
        <time>2025-04-30T11:46:28Z</time>
      </trkpt>
      <trkpt lat="43.337909001857042" lon="-8.200033977627754">
        <ele>39.07</ele>
        <time>2025-04-30T11:46:29Z</time>
      </trkpt>
      <trkpt lat="43.337717978283763" lon="-8.200059961527586">
        <ele>38.590000000000003</ele>
        <time>2025-04-30T11:46:30Z</time>
      </trkpt>
      <trkpt lat="43.337536007165909" lon="-8.200085023418069">
        <ele>37.630000000000003</ele>
        <time>2025-04-30T11:46:31Z</time>
      </trkpt>
      <trkpt lat="43.336233962327242" lon="-8.200350981205702">
        <ele>32.340000000000003</ele>
        <time>2025-04-30T11:46:39Z</time>
      </trkpt>
      <trkpt lat="43.336080992594361" lon="-8.200428010895848">
        <ele>31.379999999999999</ele>
        <time>2025-04-30T11:46:40Z</time>
      </trkpt>
      <trkpt lat="43.335918970406055" lon="-8.200508980080485">
        <ele>30.899999999999999</ele>
        <time>2025-04-30T11:46:41Z</time>
      </trkpt>
      <trkpt lat="43.335779998451471" lon="-8.200642000883818">
        <ele>30.420000000000002</ele>
        <time>2025-04-30T11:46:42Z</time>
      </trkpt>
      <trkpt lat="43.335641026496887" lon="-8.200791031122208">
        <ele>29.460000000000001</ele>
        <time>2025-04-30T11:46:43Z</time>
      </trkpt>
      <trkpt lat="43.335517980158329" lon="-8.200955986976624">
        <ele>28.98</ele>
        <time>2025-04-30T11:46:44Z</time>
      </trkpt>
      <trkpt lat="43.335402980446815" lon="-8.201151033863425">
        <ele>28.02</ele>
        <time>2025-04-30T11:46:45Z</time>
      </trkpt>
      <trkpt lat="43.335311030969024" lon="-8.201361000537872">
        <ele>28.02</ele>
        <time>2025-04-30T11:46:46Z</time>
      </trkpt>
      <trkpt lat="43.335230983793736" lon="-8.20159200578928">
        <ele>27.530000000000001</ele>
        <time>2025-04-30T11:46:47Z</time>
      </trkpt>
      <trkpt lat="43.33517499268055" lon="-8.201838014647365">
        <ele>27.530000000000001</ele>
        <time>2025-04-30T11:46:48Z</time>
      </trkpt>
      <trkpt lat="43.335150014609098" lon="-8.202103972434998">
        <ele>27.530000000000001</ele>
        <time>2025-04-30T11:46:49Z</time>
      </trkpt>
      <trkpt lat="43.335125036537647" lon="-8.202370014041662">
        <ele>27.530000000000001</ele>
        <time>2025-04-30T11:46:50Z</time>
      </trkpt>
      <trkpt lat="43.335159989073873" lon="-8.202651981264353">
        <ele>28.02</ele>
        <time>2025-04-30T11:46:51Z</time>
      </trkpt>
      <trkpt lat="43.335206005722284" lon="-8.202935960143805">
        <ele>28.02</ele>
        <time>2025-04-30T11:46:52Z</time>
      </trkpt>
      <trkpt lat="43.335277000442147" lon="-8.203220022842288">
        <ele>28.02</ele>
        <time>2025-04-30T11:46:53Z</time>
      </trkpt>
      <trkpt lat="43.335370039567351" lon="-8.203498972579837">
        <ele>28.5</ele>
        <time>2025-04-30T11:46:54Z</time>
      </trkpt>
      <trkpt lat="43.335990970954299" lon="-8.205250035971403">
        <ele>33.780000000000001</ele>
        <time>2025-04-30T11:47:00Z</time>
      </trkpt>
      <trkpt lat="43.336569992825389" lon="-8.206473961472511">
        <ele>40.509999999999998</ele>
        <time>2025-04-30T11:47:05Z</time>
      </trkpt>
      <trkpt lat="43.336613997817039" lon="-8.2067059725523">
        <ele>41.469999999999999</ele>
        <time>2025-04-30T11:47:06Z</time>
      </trkpt>
      <trkpt lat="43.336635036394" lon="-8.20696203969419">
        <ele>42.439999999999998</ele>
        <time>2025-04-30T11:47:07Z</time>
      </trkpt>
      <trkpt lat="43.336625983938575" lon="-8.207209976390004">
        <ele>43.880000000000003</ele>
        <time>2025-04-30T11:47:08Z</time>
      </trkpt>
      <trkpt lat="43.336578039452434" lon="-8.207459002733231">
        <ele>44.840000000000003</ele>
        <time>2025-04-30T11:47:09Z</time>
      </trkpt>
      <trkpt lat="43.336511990055442" lon="-8.207706017419696">
        <ele>45.799999999999997</ele>
        <time>2025-04-30T11:47:10Z</time>
      </trkpt>
      <trkpt lat="43.336402019485831" lon="-8.207909027114511">
        <ele>47.240000000000002</ele>
        <time>2025-04-30T11:47:11Z</time>
      </trkpt>
      <trkpt lat="43.336280984804034" lon="-8.208087980747223">
        <ele>48.200000000000003</ele>
        <time>2025-04-30T11:47:12Z</time>
      </trkpt>
      <trkpt lat="43.336167996749282" lon="-8.208250002935529">
        <ele>49.649999999999999</ele>
        <time>2025-04-30T11:47:13Z</time>
      </trkpt>
      <trkpt lat="43.33603598177433" lon="-8.208341030403972">
        <ele>50.609999999999999</ele>
        <time>2025-04-30T11:47:14Z</time>
      </trkpt>
      <trkpt lat="43.335893992334604" lon="-8.208439014852047">
        <ele>52.049999999999997</ele>
        <time>2025-04-30T11:47:15Z</time>
      </trkpt>
      <trkpt lat="43.335773041471839" lon="-8.208475979045034">
        <ele>53.009999999999998</ele>
        <time>2025-04-30T11:47:16Z</time>
      </trkpt>
      <trkpt lat="43.335641026496887" lon="-8.208498023450375">
        <ele>54.450000000000003</ele>
        <time>2025-04-30T11:47:17Z</time>
      </trkpt>
      <trkpt lat="43.335510017350316" lon="-8.208478996530175">
        <ele>55.409999999999997</ele>
        <time>2025-04-30T11:47:18Z</time>
      </trkpt>
      <trkpt lat="43.335375990718603" lon="-8.208458963781595">
        <ele>55.890000000000001</ele>
        <time>2025-04-30T11:47:19Z</time>
      </trkpt>
      <trkpt lat="43.335243975743651" lon="-8.208437003195286">
        <ele>56.369999999999997</ele>
        <time>2025-04-30T11:47:20Z</time>
      </trkpt>
      <trkpt lat="43.335113972425461" lon="-8.208371037617326">
        <ele>56.859999999999999</ele>
        <time>2025-04-30T11:47:21Z</time>
      </trkpt>
      <trkpt lat="43.33498396910727" lon="-8.20829501375556">
        <ele>56.859999999999999</ele>
        <time>2025-04-30T11:47:22Z</time>
      </trkpt>
      <trkpt lat="43.333554016426206" lon="-8.207484986633062">
        <ele>56.369999999999997</ele>
        <time>2025-04-30T11:47:33Z</time>
      </trkpt>
      <trkpt lat="43.333014976233244" lon="-8.207230009138584">
        <ele>56.369999999999997</ele>
        <time>2025-04-30T11:47:37Z</time>
      </trkpt>
      <trkpt lat="43.332879021763802" lon="-8.207153985276818">
        <ele>56.369999999999997</ele>
        <time>2025-04-30T11:47:38Z</time>
      </trkpt>
      <trkpt lat="43.332742983475327" lon="-8.207062035799027">
        <ele>56.369999999999997</ele>
        <time>2025-04-30T11:47:39Z</time>
      </trkpt>
      <trkpt lat="43.332637036219239" lon="-8.206910993903875">
        <ele>55.890000000000001</ele>
        <time>2025-04-30T11:47:40Z</time>
      </trkpt>
      <trkpt lat="43.332523964345455" lon="-8.206761963665485">
        <ele>55.890000000000001</ele>
        <time>2025-04-30T11:47:41Z</time>
      </trkpt>
      <trkpt lat="43.331731036305428" lon="-8.205907009541988">
        <ele>55.409999999999997</ele>
        <time>2025-04-30T11:47:48Z</time>
      </trkpt>
      <trkpt lat="43.331626011058688" lon="-8.205815982073546">
        <ele>55.409999999999997</ele>
        <time>2025-04-30T11:47:49Z</time>
      </trkpt>
      <trkpt lat="43.331499025225639" lon="-8.205782035365701">
        <ele>55.409999999999997</ele>
        <time>2025-04-30T11:47:50Z</time>
      </trkpt>
      <trkpt lat="43.331381008028984" lon="-8.205765020102263">
        <ele>54.93</ele>
        <time>2025-04-30T11:47:51Z</time>
      </trkpt>
      <trkpt lat="43.331259973347187" lon="-8.205799972638488">
        <ele>54.93</ele>
        <time>2025-04-30T11:47:52Z</time>
      </trkpt>
      <trkpt lat="43.331145979464054" lon="-8.205861998721957">
        <ele>54.450000000000003</ele>
        <time>2025-04-30T11:47:53Z</time>
      </trkpt>
      <trkpt lat="43.331017987802625" lon="-8.205933999270201">
        <ele>53.969999999999999</ele>
        <time>2025-04-30T11:47:54Z</time>
      </trkpt>
      <trkpt lat="43.330912962555885" lon="-8.20606098510325">
        <ele>53.490000000000002</ele>
        <time>2025-04-30T11:47:55Z</time>
      </trkpt>
      <trkpt lat="43.330340981483459" lon="-8.20672600530088">
        <ele>49.649999999999999</ele>
        <time>2025-04-30T11:48:00Z</time>
      </trkpt>
      <trkpt lat="43.330211983993649" lon="-8.206808986142278">
        <ele>49.159999999999997</ele>
        <time>2025-04-30T11:48:01Z</time>
      </trkpt>
      <trkpt lat="43.330078963190317" lon="-8.206893978640437">
        <ele>48.200000000000003</ele>
        <time>2025-04-30T11:48:02Z</time>
      </trkpt>
      <trkpt lat="43.329937979578972" lon="-8.206927003338933">
        <ele>47.240000000000002</ele>
        <time>2025-04-30T11:48:03Z</time>
      </trkpt>
      <trkpt lat="43.329793978482485" lon="-8.206960028037429">
        <ele>46.280000000000001</ele>
        <time>2025-04-30T11:48:04Z</time>
      </trkpt>
      <trkpt lat="43.329646959900856" lon="-8.206988023594022">
        <ele>45.32</ele>
        <time>2025-04-30T11:48:05Z</time>
      </trkpt>
      <trkpt lat="43.328886972740293" lon="-8.207150967791677">
        <ele>40.990000000000002</ele>
        <time>2025-04-30T11:48:10Z</time>
      </trkpt>
      <trkpt lat="43.328752024099231" lon="-8.207229003310204">
        <ele>40.030000000000001</ele>
        <time>2025-04-30T11:48:11Z</time>
      </trkpt>
      <trkpt lat="43.32862101495266" lon="-8.207348026335239">
        <ele>39.07</ele>
        <time>2025-04-30T11:48:12Z</time>
      </trkpt>
      <trkpt lat="43.32851498387754" lon="-8.207499990239739">
        <ele>37.630000000000003</ele>
        <time>2025-04-30T11:48:13Z</time>
      </trkpt>
      <trkpt lat="43.328418005257845" lon="-8.207676010206342">
        <ele>36.670000000000002</ele>
        <time>2025-04-30T11:48:14Z</time>
      </trkpt>
      <trkpt lat="43.328327983617783" lon="-8.207848006859422">
        <ele>35.710000000000001</ele>
        <time>2025-04-30T11:48:15Z</time>
      </trkpt>
      <trkpt lat="43.328263023868203" lon="-8.208040958270431">
        <ele>34.740000000000002</ele>
        <time>2025-04-30T11:48:16Z</time>
      </trkpt>
      <trkpt lat="43.327567996457219" lon="-8.210327960550785">
        <ele>28.98</ele>
        <time>2025-04-30T11:48:28Z</time>
      </trkpt>
      <trkpt lat="43.327043959870934" lon="-8.212014986202121">
        <ele>27.530000000000001</ele>
        <time>2025-04-30T11:48:35Z</time>
      </trkpt>
      <trkpt lat="43.326385980471969" lon="-8.214187994599342">
        <ele>27.530000000000001</ele>
        <time>2025-04-30T11:48:42Z</time>
      </trkpt>
      <trkpt lat="43.326313979923725" lon="-8.21444196626544">
        <ele>27.530000000000001</ele>
        <time>2025-04-30T11:48:43Z</time>
      </trkpt>
      <trkpt lat="43.326281039044261" lon="-8.214661991223693">
        <ele>28.02</ele>
        <time>2025-04-30T11:48:44Z</time>
      </trkpt>
      <trkpt lat="43.326330995187163" lon="-8.214829964563251">
        <ele>28.5</ele>
        <time>2025-04-30T11:48:45Z</time>
      </trkpt>
      <trkpt lat="43.326385980471969" lon="-8.214939013123512">
        <ele>28.98</ele>
        <time>2025-04-30T11:48:46Z</time>
      </trkpt>
      <trkpt lat="43.326465021818876" lon="-8.215015036985278">
        <ele>29.940000000000001</ele>
        <time>2025-04-30T11:48:47Z</time>
      </trkpt>
      <trkpt lat="43.32658102735877" lon="-8.215045966207981">
        <ele>30.899999999999999</ele>
        <time>2025-04-30T11:48:48Z</time>
      </trkpt>
      <trkpt lat="43.326717987656593" lon="-8.21504102088511">
        <ele>31.379999999999999</ele>
        <time>2025-04-30T11:48:49Z</time>
      </trkpt>
      <trkpt lat="43.326844973489642" lon="-8.214946975931525">
        <ele>31.859999999999999</ele>
        <time>2025-04-30T11:48:50Z</time>
      </trkpt>
      <trkpt lat="43.326954022049904" lon="-8.214802974835038">
        <ele>32.82</ele>
        <time>2025-04-30T11:48:51Z</time>
      </trkpt>
      <trkpt lat="43.32707597874105" lon="-8.214642964303494">
        <ele>34.259999999999998</ele>
        <time>2025-04-30T11:48:52Z</time>
      </trkpt>
      <trkpt lat="43.327197013422847" lon="-8.214483037590981">
        <ele>35.710000000000001</ele>
        <time>2025-04-30T11:48:53Z</time>
      </trkpt>
      <trkpt lat="43.327317964285612" lon="-8.21435303427279">
        <ele>36.670000000000002</ele>
        <time>2025-04-30T11:48:54Z</time>
      </trkpt>
      <trkpt lat="43.327479986473918" lon="-8.214306011795998">
        <ele>37.630000000000003</ele>
        <time>2025-04-30T11:48:55Z</time>
      </trkpt>
      <trkpt lat="43.327653994783759" lon="-8.214253960177302">
        <ele>38.109999999999999</ele>
        <time>2025-04-30T11:48:56Z</time>
      </trkpt>
      <trkpt lat="43.327823979780078" lon="-8.214238034561276">
        <ele>39.07</ele>
        <time>2025-04-30T11:48:57Z</time>
      </trkpt>
      <trkpt lat="43.328941036015749" lon="-8.214292014017701">
        <ele>41.469999999999999</ele>
        <time>2025-04-30T11:49:04Z</time>
      </trkpt>
      <trkpt lat="43.3297189604491" lon="-8.214707002043724">
        <ele>44.359999999999999</ele>
        <time>2025-04-30T11:49:10Z</time>
      </trkpt>
      <trkpt lat="43.329820968210697" lon="-8.214789982885122">
        <ele>45.32</ele>
        <time>2025-04-30T11:49:11Z</time>
      </trkpt>
      <trkpt lat="43.329862961545587" lon="-8.214916968718171">
        <ele>45.799999999999997</ele>
        <time>2025-04-30T11:49:12Z</time>
      </trkpt>
      <trkpt lat="43.329908978193998" lon="-8.215056024491787">
        <ele>46.280000000000001</ele>
        <time>2025-04-30T11:49:13Z</time>
      </trkpt>
      <trkpt lat="43.329906966537237" lon="-8.215172030031681">
        <ele>46.759999999999998</ele>
        <time>2025-04-30T11:49:14Z</time>
      </trkpt>
      <trkpt lat="43.329858016222715" lon="-8.215309996157885">
        <ele>47.240000000000002</ele>
        <time>2025-04-30T11:49:15Z</time>
      </trkpt>
      <trkpt lat="43.329806970432401" lon="-8.215430025011301">
        <ele>47.240000000000002</ele>
        <time>2025-04-30T11:49:16Z</time>
      </trkpt>
      <trkpt lat="43.32971602678299" lon="-8.215533960610628">
        <ele>47.719999999999999</ele>
        <time>2025-04-30T11:49:17Z</time>
      </trkpt>
      <trkpt lat="43.329616030678153" lon="-8.215610990300775">
        <ele>48.200000000000003</ele>
        <time>2025-04-30T11:49:18Z</time>
      </trkpt>
      <trkpt lat="43.329493990167975" lon="-8.215669998899102">
        <ele>48.200000000000003</ele>
        <time>2025-04-30T11:49:19Z</time>
      </trkpt>
      <trkpt lat="43.329376978799701" lon="-8.215725990012288">
        <ele>48.68</ele>
        <time>2025-04-30T11:49:20Z</time>
      </trkpt>
      <trkpt lat="43.327941996976733" lon="-8.216383969411254">
        <ele>51.57</ele>
        <time>2025-04-30T11:49:31Z</time>
      </trkpt>
      <trkpt lat="43.327808976173401" lon="-8.216496035456657">
        <ele>52.049999999999997</ele>
        <time>2025-04-30T11:49:32Z</time>
      </trkpt>
      <trkpt lat="43.327679978683591" lon="-8.216615980491042">
        <ele>53.009999999999998</ele>
        <time>2025-04-30T11:49:33Z</time>
      </trkpt>
      <trkpt lat="43.327565984800458" lon="-8.216762999072671">
        <ele>53.490000000000002</ele>
        <time>2025-04-30T11:49:34Z</time>
      </trkpt>
      <trkpt lat="43.327494990080595" lon="-8.21695301681757">
        <ele>54.450000000000003</ele>
        <time>2025-04-30T11:49:35Z</time>
      </trkpt>
      <trkpt lat="43.327421983703971" lon="-8.21714797988534">
        <ele>55.409999999999997</ele>
        <time>2025-04-30T11:49:36Z</time>
      </trkpt>
      <trkpt lat="43.327378984540701" lon="-8.217348977923393">
        <ele>56.859999999999999</ele>
        <time>2025-04-30T11:49:37Z</time>
      </trkpt>
      <trkpt lat="43.327351994812489" lon="-8.217559028416872">
        <ele>57.82</ele>
        <time>2025-04-30T11:49:38Z</time>
      </trkpt>
      <trkpt lat="43.327329028397799" lon="-8.217757008969784">
        <ele>58.780000000000001</ele>
        <time>2025-04-30T11:49:39Z</time>
      </trkpt>
      <trkpt lat="43.327105985954404" lon="-8.220393033698201">
        <ele>64.549999999999997</ele>
        <time>2025-04-30T11:49:53Z</time>
      </trkpt>
      <trkpt lat="43.327051000669599" lon="-8.220985969528556">
        <ele>66.469999999999999</ele>
        <time>2025-04-30T11:49:56Z</time>
      </trkpt>
      <trkpt lat="43.326836004853249" lon="-8.222172008827329">
        <ele>70.790000000000006</ele>
        <time>2025-04-30T11:50:02Z</time>
      </trkpt>
      <trkpt lat="43.326785964891315" lon="-8.222377030178905">
        <ele>71.269999999999996</ele>
        <time>2025-04-30T11:50:03Z</time>
      </trkpt>
      <trkpt lat="43.326729973778129" lon="-8.222590014338493">
        <ele>72.239999999999995</ele>
        <time>2025-04-30T11:50:04Z</time>
      </trkpt>
      <trkpt lat="43.32666702568531" lon="-8.222772991284728">
        <ele>72.719999999999999</ele>
        <time>2025-04-30T11:50:05Z</time>
      </trkpt>
      <trkpt lat="43.326568035408854" lon="-8.222984969615936">
        <ele>73.200000000000003</ele>
        <time>2025-04-30T11:50:06Z</time>
      </trkpt>
      <trkpt lat="43.326462004333735" lon="-8.223176999017596">
        <ele>73.200000000000003</ele>
        <time>2025-04-30T11:50:07Z</time>
      </trkpt>
      <trkpt lat="43.325949031859636" lon="-8.22387496009469">
        <ele>74.640000000000001</ele>
        <time>2025-04-30T11:50:11Z</time>
      </trkpt>
      <trkpt lat="43.325779968872666" lon="-8.224003035575151">
        <ele>74.640000000000001</ele>
        <time>2025-04-30T11:50:12Z</time>
      </trkpt>
      <trkpt lat="43.325600009411573" lon="-8.224133038893342">
        <ele>75.120000000000005</ele>
        <time>2025-04-30T11:50:13Z</time>
      </trkpt>
      <trkpt lat="43.324427967891097" lon="-8.225148003548384">
        <ele>79.930000000000007</ele>
        <time>2025-04-30T11:50:20Z</time>
      </trkpt>
      <trkpt lat="43.323357012122869" lon="-8.226311998441815">
        <ele>89.060000000000002</ele>
        <time>2025-04-30T11:50:28Z</time>
      </trkpt>
      <trkpt lat="43.322787964716554" lon="-8.227052036672831">
        <ele>94.829999999999998</ele>
        <time>2025-04-30T11:50:33Z</time>
      </trkpt>
      <trkpt lat="43.322689980268478" lon="-8.227222021669149">
        <ele>95.790000000000006</ele>
        <time>2025-04-30T11:50:34Z</time>
      </trkpt>
      <trkpt lat="43.321822034195065" lon="-8.228902006521821">
        <ele>104.44</ele>
        <time>2025-04-30T11:50:43Z</time>
      </trkpt>
      <trkpt lat="43.321129018440843" lon="-8.230312010273337">
        <ele>107.31999999999999</ele>
        <time>2025-04-30T11:50:52Z</time>
      </trkpt>
      <trkpt lat="43.32063096575439" lon="-8.231583964079619">
        <ele>106.84</ele>
        <time>2025-04-30T11:51:00Z</time>
      </trkpt>
      <trkpt lat="43.320562988519669" lon="-8.231860985979438">
        <ele>106.36</ele>
        <time>2025-04-30T11:51:02Z</time>
      </trkpt>
      <trkpt lat="43.320516971871257" lon="-8.232002975419164">
        <ele>106.36</ele>
        <time>2025-04-30T11:51:03Z</time>
      </trkpt>
      <trkpt lat="43.320423010736704" lon="-8.232086040079594">
        <ele>106.36</ele>
        <time>2025-04-30T11:51:04Z</time>
      </trkpt>
      <trkpt lat="43.319829991087317" lon="-8.233009977266192">
        <ele>107.81</ele>
        <time>2025-04-30T11:51:11Z</time>
      </trkpt>
      <trkpt lat="43.31923303194344" lon="-8.234310010448098">
        <ele>113.09</ele>
        <time>2025-04-30T11:51:20Z</time>
      </trkpt>
      <trkpt lat="43.319186009466648" lon="-8.234498016536236">
        <ele>113.56999999999999</ele>
        <time>2025-04-30T11:51:21Z</time>
      </trkpt>
      <trkpt lat="43.31914896145463" lon="-8.234697002917528">
        <ele>114.53</ele>
        <time>2025-04-30T11:51:22Z</time>
      </trkpt>
      <trkpt lat="43.318899013102055" lon="-8.2363769877702">
        <ele>118.38</ele>
        <time>2025-04-30T11:51:30Z</time>
      </trkpt>
      <trkpt lat="43.318486958742142" lon="-8.239280981943011">
        <ele>128.94999999999999</ele>
        <time>2025-04-30T11:51:43Z</time>
      </trkpt>
      <trkpt lat="43.31828897818923" lon="-8.24119096621871">
        <ele>131.84</ele>
        <time>2025-04-30T11:51:53Z</time>
      </trkpt>
      <trkpt lat="43.318276992067695" lon="-8.241564966738224">
        <ele>132.80000000000001</ele>
        <time>2025-04-30T11:51:56Z</time>
      </trkpt>
      <trkpt lat="43.318213038146496" lon="-8.241655994206667">
        <ele>133.28</ele>
        <time>2025-04-30T11:51:57Z</time>
      </trkpt>
      <trkpt lat="43.318144977092743" lon="-8.24174702167511">
        <ele>133.75999999999999</ele>
        <time>2025-04-30T11:51:58Z</time>
      </trkpt>
      <trkpt lat="43.317599985748529" lon="-8.242751006036997">
        <ele>133.75999999999999</ele>
        <time>2025-04-30T11:52:05Z</time>
      </trkpt>
      <trkpt lat="43.316597007215023" lon="-8.244765009731054">
        <ele>129.91999999999999</ele>
        <time>2025-04-30T11:52:16Z</time>
      </trkpt>
      <trkpt lat="43.315483974292874" lon="-8.246910022571683">
        <ele>126.55</ele>
        <time>2025-04-30T11:52:28Z</time>
      </trkpt>
      <trkpt lat="43.315123971551657" lon="-8.247574958950281">
        <ele>125.59</ele>
        <time>2025-04-30T11:52:32Z</time>
      </trkpt>
      <trkpt lat="43.315006960183382" lon="-8.247692976146936">
        <ele>125.11</ele>
        <time>2025-04-30T11:52:33Z</time>
      </trkpt>
      <trkpt lat="43.314878968521953" lon="-8.247782997786999">
        <ele>125.11</ele>
        <time>2025-04-30T11:52:34Z</time>
      </trkpt>
      <trkpt lat="43.314736979082227" lon="-8.247865978628397">
        <ele>124.15000000000001</ele>
        <time>2025-04-30T11:52:35Z</time>
      </trkpt>
      <trkpt lat="43.314588032662868" lon="-8.247931022197008">
        <ele>123.19</ele>
        <time>2025-04-30T11:52:36Z</time>
      </trkpt>
      <trkpt lat="43.314435984939337" lon="-8.248006962239742">
        <ele>122.70999999999999</ele>
        <time>2025-04-30T11:52:37Z</time>
      </trkpt>
      <trkpt lat="43.313395036384463" lon="-8.248573997989297">
        <ele>122.70999999999999</ele>
        <time>2025-04-30T11:52:44Z</time>
      </trkpt>
      <trkpt lat="43.313313983380795" lon="-8.248748006299138">
        <ele>122.70999999999999</ele>
        <time>2025-04-30T11:52:45Z</time>
      </trkpt>
      <trkpt lat="43.313215998932719" lon="-8.248927965760231">
        <ele>122.70999999999999</ele>
        <time>2025-04-30T11:52:46Z</time>
      </trkpt>
      <trkpt lat="43.313119020313025" lon="-8.249100968241692">
        <ele>122.70999999999999</ele>
        <time>2025-04-30T11:52:47Z</time>
      </trkpt>
      <trkpt lat="43.313021035864949" lon="-8.249275982379913">
        <ele>122.70999999999999</ele>
        <time>2025-04-30T11:52:48Z</time>
      </trkpt>
      <trkpt lat="43.311964999884367" lon="-8.251040037721396">
        <ele>117.90000000000001</ele>
        <time>2025-04-30T11:52:58Z</time>
      </trkpt>
      <trkpt lat="43.311083978042006" lon="-8.252298999577761">
        <ele>114.53</ele>
        <time>2025-04-30T11:53:05Z</time>
      </trkpt>
      <trkpt lat="43.311032010242343" lon="-8.252550959587097">
        <ele>115.01000000000001</ele>
        <time>2025-04-30T11:53:06Z</time>
      </trkpt>
      <trkpt lat="43.310675024986267" lon="-8.254866963252425">
        <ele>118.86</ele>
        <time>2025-04-30T11:53:14Z</time>
      </trkpt>
      <trkpt lat="43.310238998383284" lon="-8.257932979613543">
        <ele>119.34</ele>
        <time>2025-04-30T11:53:24Z</time>
      </trkpt>
      <trkpt lat="43.309883018955588" lon="-8.260284019634128">
        <ele>126.06999999999999</ele>
        <time>2025-04-30T11:53:33Z</time>
      </trkpt>
      <trkpt lat="43.309792997315526" lon="-8.260758016258478">
        <ele>127.03</ele>
        <time>2025-04-30T11:53:35Z</time>
      </trkpt>
      <trkpt lat="43.309710016474128" lon="-8.260974017903209">
        <ele>127.03</ele>
        <time>2025-04-30T11:53:36Z</time>
      </trkpt>
      <trkpt lat="43.309614965692163" lon="-8.261188007891178">
        <ele>127.51000000000001</ele>
        <time>2025-04-30T11:53:37Z</time>
      </trkpt>
      <trkpt lat="43.309504995122552" lon="-8.261386994272471">
        <ele>127.98999999999999</ele>
        <time>2025-04-30T11:53:38Z</time>
      </trkpt>
      <trkpt lat="43.309387983754277" lon="-8.261581035330892">
        <ele>127.98999999999999</ele>
        <time>2025-04-30T11:53:39Z</time>
      </trkpt>
      <trkpt lat="43.30924398265779" lon="-8.261739034205675">
        <ele>128.94999999999999</ele>
        <time>2025-04-30T11:53:40Z</time>
      </trkpt>
      <trkpt lat="43.30909201875329" lon="-8.261890998110175">
        <ele>129.43000000000001</ele>
        <time>2025-04-30T11:53:41Z</time>
      </trkpt>
      <trkpt lat="43.308939971029758" lon="-8.262042962014675">
        <ele>129.43000000000001</ele>
        <time>2025-04-30T11:53:42Z</time>
      </trkpt>
      <trkpt lat="43.307168958708644" lon="-8.263638960197568">
        <ele>130.40000000000001</ele>
        <time>2025-04-30T11:53:54Z</time>
      </trkpt>
      <trkpt lat="43.30677299760282" lon="-8.263956969603896">
        <ele>130.88</ele>
        <time>2025-04-30T11:53:57Z</time>
      </trkpt>
      <trkpt lat="43.306637965142727" lon="-8.26402997598052">
        <ele>130.88</ele>
        <time>2025-04-30T11:53:58Z</time>
      </trkpt>
      <trkpt lat="43.306499999016523" lon="-8.264076998457313">
        <ele>130.88</ele>
        <time>2025-04-30T11:53:59Z</time>
      </trkpt>
      <trkpt lat="43.306360021233559" lon="-8.264068029820919">
        <ele>130.40000000000001</ele>
        <time>2025-04-30T11:54:00Z</time>
      </trkpt>
      <trkpt lat="43.306216020137072" lon="-8.264058977365494">
        <ele>130.40000000000001</ele>
        <time>2025-04-30T11:54:01Z</time>
      </trkpt>
      <trkpt lat="43.306062966585159" lon="-8.264047997072339">
        <ele>130.40000000000001</ele>
        <time>2025-04-30T11:54:02Z</time>
      </trkpt>
      <trkpt lat="43.305577989667654" lon="-8.264014972373843">
        <ele>130.40000000000001</ele>
        <time>2025-04-30T11:54:05Z</time>
      </trkpt>
      <trkpt lat="43.305413033813238" lon="-8.264030981808901">
        <ele>130.40000000000001</ele>
        <time>2025-04-30T11:54:06Z</time>
      </trkpt>
      <trkpt lat="43.305252017453313" lon="-8.264079010114074">
        <ele>130.88</ele>
        <time>2025-04-30T11:54:07Z</time>
      </trkpt>
      <trkpt lat="43.305086977779865" lon="-8.264195015653968">
        <ele>130.88</ele>
        <time>2025-04-30T11:54:08Z</time>
      </trkpt>
      <trkpt lat="43.304941970854998" lon="-8.264339016750455">
        <ele>131.36000000000001</ele>
        <time>2025-04-30T11:54:09Z</time>
      </trkpt>
      <trkpt lat="43.304826971143484" lon="-8.264529034495354">
        <ele>131.36000000000001</ele>
        <time>2025-04-30T11:54:10Z</time>
      </trkpt>
      <trkpt lat="43.304728986695409" lon="-8.26473799534142">
        <ele>131.84</ele>
        <time>2025-04-30T11:54:11Z</time>
      </trkpt>
      <trkpt lat="43.304669978097081" lon="-8.264948967844248">
        <ele>132.31999999999999</ele>
        <time>2025-04-30T11:54:12Z</time>
      </trkpt>
      <trkpt lat="43.304621027782559" lon="-8.265148038044572">
        <ele>132.80000000000001</ele>
        <time>2025-04-30T11:54:13Z</time>
      </trkpt>
      <trkpt lat="43.304326990619302" lon="-8.266339022666216">
        <ele>138.09</ele>
        <time>2025-04-30T11:54:20Z</time>
      </trkpt>
      <trkpt lat="43.304284997284412" lon="-8.266542032361031">
        <ele>139.05000000000001</ele>
        <time>2025-04-30T11:54:21Z</time>
      </trkpt>
      <trkpt lat="43.304244009777904" lon="-8.267908031120896">
        <ele>145.78</ele>
        <time>2025-04-30T11:54:28Z</time>
      </trkpt>
      <trkpt lat="43.304233029484749" lon="-8.269387017935515">
        <ele>153.47</ele>
        <time>2025-04-30T11:54:39Z</time>
      </trkpt>
      <trkpt lat="43.304244009777904" lon="-8.269756995141506">
        <ele>154.91</ele>
        <time>2025-04-30T11:54:43Z</time>
      </trkpt>
      <trkpt lat="43.304244009777904" lon="-8.269867971539497">
        <ele>154.91</ele>
        <time>2025-04-30T11:54:44Z</time>
      </trkpt>
      <trkpt lat="43.304244009777904" lon="-8.269995041191578">
        <ele>155.38999999999999</ele>
        <time>2025-04-30T11:54:45Z</time>
      </trkpt>
      <trkpt lat="43.304244009777904" lon="-8.270122027024627">
        <ele>154.91</ele>
        <time>2025-04-30T11:54:46Z</time>
      </trkpt>
      <trkpt lat="43.30423504114151" lon="-8.270305003970861">
        <ele>155.38999999999999</ele>
        <time>2025-04-30T11:54:47Z</time>
      </trkpt>
      <trkpt lat="43.304076958447695" lon="-8.270585965365171">
        <ele>155.38999999999999</ele>
        <time>2025-04-30T11:54:48Z</time>
      </trkpt>
      <trkpt lat="43.303987020626664" lon="-8.270593006163836">
        <ele>155.87</ele>
        <time>2025-04-30T11:54:49Z</time>
      </trkpt>
      <trkpt lat="43.303814018145204" lon="-8.270515976473689">
        <ele>155.87</ele>
        <time>2025-04-30T11:54:50Z</time>
      </trkpt>
      <trkpt lat="43.303711004555225" lon="-8.270315984264016">
        <ele>155.87</ele>
        <time>2025-04-30T11:54:51Z</time>
      </trkpt>
      <trkpt lat="43.303645038977265" lon="-8.270188998430967">
        <ele>155.38999999999999</ele>
        <time>2025-04-30T11:54:52Z</time>
      </trkpt>
      <trkpt lat="43.303576977923512" lon="-8.270056983456016">
        <ele>155.38999999999999</ele>
        <time>2025-04-30T11:54:53Z</time>
      </trkpt>
      <trkpt lat="43.30350698903203" lon="-8.269921028986573">
        <ele>154.91</ele>
        <time>2025-04-30T11:54:54Z</time>
      </trkpt>
      <trkpt lat="43.303429959341884" lon="-8.269808040931821">
        <ele>153.94999999999999</ele>
        <time>2025-04-30T11:54:55Z</time>
      </trkpt>
      <trkpt lat="43.303320994600654" lon="-8.269692035391927">
        <ele>153.47</ele>
        <time>2025-04-30T11:54:56Z</time>
      </trkpt>
      <trkpt lat="43.303208006545901" lon="-8.269573012366891">
        <ele>152.03</ele>
        <time>2025-04-30T11:54:57Z</time>
      </trkpt>
      <trkpt lat="43.303060987964272" lon="-8.269449966028333">
        <ele>151.06</ele>
        <time>2025-04-30T11:54:58Z</time>
      </trkpt>
      <trkpt lat="43.30290500074625" lon="-8.269397998228669">
        <ele>150.09999999999999</ele>
        <time>2025-04-30T11:54:59Z</time>
      </trkpt>
      <trkpt lat="43.301511006429791" lon="-8.268879996612668">
        <ele>139.05000000000001</ele>
        <time>2025-04-30T11:55:09Z</time>
      </trkpt>
      <trkpt lat="43.30137899145484" lon="-8.268832974135876">
        <ele>138.56999999999999</ele>
        <time>2025-04-30T11:55:10Z</time>
      </trkpt>
      <trkpt lat="43.301247982308269" lon="-8.268793998286128">
        <ele>138.09</ele>
        <time>2025-04-30T11:55:11Z</time>
      </trkpt>
      <trkpt lat="43.29961703158915" lon="-8.268254036083818">
        <ele>132.31999999999999</ele>
        <time>2025-04-30T11:55:24Z</time>
      </trkpt>
      <trkpt lat="43.299483004957438" lon="-8.268208019435406">
        <ele>131.36000000000001</ele>
        <time>2025-04-30T11:55:26Z</time>
      </trkpt>
      <trkpt lat="43.299422990530729" lon="-8.268192010000348">
        <ele>130.88</ele>
        <time>2025-04-30T11:55:27Z</time>
      </trkpt>
      <trkpt lat="43.299374962225556" lon="-8.268342968076468">
        <ele>130.40000000000001</ele>
        <time>2025-04-30T11:55:28Z</time>
      </trkpt>
      <trkpt lat="43.299329029396176" lon="-8.268423015251756">
        <ele>129.91999999999999</ele>
        <time>2025-04-30T11:55:29Z</time>
      </trkpt>
      <trkpt lat="43.299283012747765" lon="-8.268502978608012">
        <ele>129.43000000000001</ele>
        <time>2025-04-30T11:55:30Z</time>
      </trkpt>
      <trkpt lat="43.299242025241256" lon="-8.268572967499495">
        <ele>128.94999999999999</ele>
        <time>2025-04-30T11:55:31Z</time>
      </trkpt>
      <trkpt lat="43.299221992492676" lon="-8.268606998026371">
        <ele>128.47</ele>
        <time>2025-04-30T11:55:32Z</time>
      </trkpt>
      <trkpt lat="43.299221992492676" lon="-8.268695008009672">
        <ele>127.51000000000001</ele>
        <time>2025-04-30T11:55:33Z</time>
      </trkpt>
      <trkpt lat="43.299227021634579" lon="-8.268748987466097">
        <ele>127.03</ele>
        <time>2025-04-30T11:55:34Z</time>
      </trkpt>
      <trkpt lat="43.29925199970603" lon="-8.268826017156243">
        <ele>126.06999999999999</ele>
        <time>2025-04-30T11:55:35Z</time>
      </trkpt>
      <trkpt lat="43.299282006919384" lon="-8.268918972462416">
        <ele>125.59</ele>
        <time>2025-04-30T11:55:36Z</time>
      </trkpt>
      <trkpt lat="43.299313019961119" lon="-8.269017040729523">
        <ele>124.63</ele>
        <time>2025-04-30T11:55:37Z</time>
      </trkpt>
      <trkpt lat="43.299342021346092" lon="-8.269105972722173">
        <ele>124.63</ele>
        <time>2025-04-30T11:55:38Z</time>
      </trkpt>
      <trkpt lat="43.299388960003853" lon="-8.269252991303802">
        <ele>124.15000000000001</ele>
        <time>2025-04-30T11:55:40Z</time>
      </trkpt>
      <trkpt lat="43.299416033551097" lon="-8.2693359721452">
        <ele>124.15000000000001</ele>
        <time>2025-04-30T11:55:41Z</time>
      </trkpt>
      <trkpt lat="43.29940396361053" lon="-8.269384000450373">
        <ele>123.67</ele>
        <time>2025-04-30T11:55:42Z</time>
      </trkpt>
      <trkpt lat="43.299385020509362" lon="-8.269457006826997">
        <ele>123.67</ele>
        <time>2025-04-30T11:55:43Z</time>
      </trkpt>
      <trkpt lat="43.299365993589163" lon="-8.269534036517143">
        <ele>123.19</ele>
        <time>2025-04-30T11:55:44Z</time>
      </trkpt>
      <trkpt lat="43.299342021346092" lon="-8.269609976559877">
        <ele>123.19</ele>
        <time>2025-04-30T11:55:45Z</time>
      </trkpt>
      <trkpt lat="43.299307990819216" lon="-8.269669990986586">
        <ele>123.19</ele>
        <time>2025-04-30T11:55:46Z</time>
      </trkpt>
      <trkpt lat="43.29927496612072" lon="-8.269726987928152">
        <ele>122.70999999999999</ele>
        <time>2025-04-30T11:55:47Z</time>
      </trkpt>
      <trkpt lat="43.299158960580826" lon="-8.26989596709609">
        <ele>121.73999999999999</ele>
        <time>2025-04-30T11:55:51Z</time>
      </trkpt>
      <trkpt lat="43.299109004437923" lon="-8.269899990409613">
        <ele>121.26000000000001</ele>
        <time>2025-04-30T11:55:52Z</time>
      </trkpt>
      <trkpt lat="43.299045972526073" lon="-8.269904013723135">
        <ele>120.78</ele>
        <time>2025-04-30T11:55:53Z</time>
      </trkpt>
      <trkpt lat="43.298655040562153" lon="-8.269934020936489">
        <ele>117.90000000000001</ele>
        <time>2025-04-30T11:56:00Z</time>
      </trkpt>
      <trkpt lat="43.298620004206896" lon="-8.269948018714786">
        <ele>117.90000000000001</ele>
        <time>2025-04-30T11:56:01Z</time>
      </trkpt>
      <trkpt lat="43.298606006428599" lon="-8.270017001777887">
        <ele>117.42</ele>
        <time>2025-04-30T11:56:02Z</time>
      </trkpt>
      <trkpt lat="43.298595026135445" lon="-8.270124038681388">
        <ele>116.94</ele>
        <time>2025-04-30T11:56:03Z</time>
      </trkpt>
      <trkpt lat="43.298539035022259" lon="-8.271230030804873">
        <ele>111.65000000000001</ele>
        <time>2025-04-30T11:56:09Z</time>
      </trkpt>
      <trkpt lat="43.298420011997223" lon="-8.273190977051854">
        <ele>101.08</ele>
        <time>2025-04-30T11:56:19Z</time>
      </trkpt>
      <trkpt lat="43.298287997022271" lon="-8.274524034932256">
        <ele>105.88</ele>
        <time>2025-04-30T11:56:26Z</time>
      </trkpt>
      <trkpt lat="43.298241980373859" lon="-8.274709023535252">
        <ele>106.84</ele>
        <time>2025-04-30T11:56:27Z</time>
      </trkpt>
      <trkpt lat="43.297843001782894" lon="-8.276527980342507">
        <ele>110.20999999999999</ele>
        <time>2025-04-30T11:56:37Z</time>
      </trkpt>
      <trkpt lat="43.297824980691075" lon="-8.276713974773884">
        <ele>110.69</ele>
        <time>2025-04-30T11:56:38Z</time>
      </trkpt>
      <trkpt lat="43.297807965427637" lon="-8.276895023882389">
        <ele>110.69</ele>
        <time>2025-04-30T11:56:39Z</time>
      </trkpt>
      <trkpt lat="43.297865968197584" lon="-8.277281010523439">
        <ele>111.65000000000001</ele>
        <time>2025-04-30T11:56:41Z</time>
      </trkpt>
      <trkpt lat="43.297894969582558" lon="-8.277473039925098">
        <ele>111.65000000000001</ele>
        <time>2025-04-30T11:56:42Z</time>
      </trkpt>
      <trkpt lat="43.297978034242988" lon="-8.278069999068975">
        <ele>112.61</ele>
        <time>2025-04-30T11:56:45Z</time>
      </trkpt>
      <trkpt lat="43.297968981787562" lon="-8.278226992115378">
        <ele>113.09</ele>
        <time>2025-04-30T11:56:46Z</time>
      </trkpt>
      <trkpt lat="43.297958001494408" lon="-8.278408041223884">
        <ele>113.56999999999999</ele>
        <time>2025-04-30T11:56:47Z</time>
      </trkpt>
      <trkpt lat="43.297913996502757" lon="-8.278579032048583">
        <ele>114.05</ele>
        <time>2025-04-30T11:56:48Z</time>
      </trkpt>
      <trkpt lat="43.297864040359855" lon="-8.278748011216521">
        <ele>114.53</ele>
        <time>2025-04-30T11:56:49Z</time>
      </trkpt>
      <trkpt lat="43.297803020104766" lon="-8.278910033404827">
        <ele>115.01000000000001</ele>
        <time>2025-04-30T11:56:50Z</time>
      </trkpt>
      <trkpt lat="43.297734037041664" lon="-8.279071971774101">
        <ele>115.5</ele>
        <time>2025-04-30T11:56:51Z</time>
      </trkpt>
      <trkpt lat="43.297574026510119" lon="-8.279581004753709">
        <ele>116.45999999999999</ele>
        <time>2025-04-30T11:56:54Z</time>
      </trkpt>
      <trkpt lat="43.297558017075062" lon="-8.279765993356705">
        <ele>116.45999999999999</ele>
        <time>2025-04-30T11:56:55Z</time>
      </trkpt>
      <trkpt lat="43.297592969611287" lon="-8.279932960867882">
        <ele>116.45999999999999</ele>
        <time>2025-04-30T11:56:56Z</time>
      </trkpt>
      <trkpt lat="43.297705035656691" lon="-8.28046303242445">
        <ele>116.45999999999999</ele>
        <time>2025-04-30T11:56:59Z</time>
      </trkpt>
      <trkpt lat="43.297718027606606" lon="-8.280631005764008">
        <ele>116.45999999999999</ele>
        <time>2025-04-30T11:57:00Z</time>
      </trkpt>
      <trkpt lat="43.297712998464704" lon="-8.280806019902229">
        <ele>116.45999999999999</ele>
        <time>2025-04-30T11:57:01Z</time>
      </trkpt>
      <trkpt lat="43.297707969322801" lon="-8.280982961878181">
        <ele>116.94</ele>
        <time>2025-04-30T11:57:02Z</time>
      </trkpt>
      <trkpt lat="43.297703023999929" lon="-8.281153030693531">
        <ele>116.94</ele>
        <time>2025-04-30T11:57:03Z</time>
      </trkpt>
      <trkpt lat="43.297699000686407" lon="-8.281303988769651">
        <ele>116.94</ele>
        <time>2025-04-30T11:57:04Z</time>
      </trkpt>
      <trkpt lat="43.297755997627974" lon="-8.281430974602699">
        <ele>117.42</ele>
        <time>2025-04-30T11:57:05Z</time>
      </trkpt>
      <trkpt lat="43.297818023711443" lon="-8.281563995406032">
        <ele>117.90000000000001</ele>
        <time>2025-04-30T11:57:06Z</time>
      </trkpt>
      <trkpt lat="43.298017010092735" lon="-8.28198803588748">
        <ele>120.78</ele>
        <time>2025-04-30T11:57:09Z</time>
      </trkpt>
      <trkpt lat="43.298034025356174" lon="-8.282124996185303">
        <ele>121.26000000000001</ele>
        <time>2025-04-30T11:57:10Z</time>
      </trkpt>
      <trkpt lat="43.298031007871032" lon="-8.282259022817016">
        <ele>122.22</ele>
        <time>2025-04-30T11:57:11Z</time>
      </trkpt>
      <trkpt lat="43.297998989000916" lon="-8.282391959801316">
        <ele>123.19</ele>
        <time>2025-04-30T11:57:12Z</time>
      </trkpt>
      <trkpt lat="43.297968981787562" lon="-8.282518023625016">
        <ele>123.67</ele>
        <time>2025-04-30T11:57:13Z</time>
      </trkpt>
      <trkpt lat="43.297935035079718" lon="-8.282659007236362">
        <ele>124.63</ele>
        <time>2025-04-30T11:57:14Z</time>
      </trkpt>
      <trkpt lat="43.297916008159518" lon="-8.282816000282764">
        <ele>125.59</ele>
        <time>2025-04-30T11:57:15Z</time>
      </trkpt>
      <trkpt lat="43.297921037301421" lon="-8.282981039956212">
        <ele>126.55</ele>
        <time>2025-04-30T11:57:16Z</time>
      </trkpt>
      <trkpt lat="43.297926988452673" lon="-8.283144989982247">
        <ele>127.03</ele>
        <time>2025-04-30T11:57:17Z</time>
      </trkpt>
      <trkpt lat="43.297950960695744" lon="-8.283862983807921">
        <ele>127.98999999999999</ele>
        <time>2025-04-30T11:57:21Z</time>
      </trkpt>
      <trkpt lat="43.297955989837646" lon="-8.284044032916427">
        <ele>128.47</ele>
        <time>2025-04-30T11:57:22Z</time>
      </trkpt>
      <trkpt lat="43.297938974574208" lon="-8.284227009862661">
        <ele>128.47</ele>
        <time>2025-04-30T11:57:23Z</time>
      </trkpt>
      <trkpt lat="43.297913996502757" lon="-8.284400012344122">
        <ele>128.94999999999999</ele>
        <time>2025-04-30T11:57:24Z</time>
      </trkpt>
      <trkpt lat="43.297872003167868" lon="-8.284564968198538">
        <ele>128.94999999999999</ele>
        <time>2025-04-30T11:57:25Z</time>
      </trkpt>
      <trkpt lat="43.297830009832978" lon="-8.284733025357127">
        <ele>128.94999999999999</ele>
        <time>2025-04-30T11:57:26Z</time>
      </trkpt>
      <trkpt lat="43.297721967101097" lon="-8.285039970651269">
        <ele>129.91999999999999</ele>
        <time>2025-04-30T11:57:28Z</time>
      </trkpt>
      <trkpt lat="43.29764099791646" lon="-8.285173997282982">
        <ele>130.40000000000001</ele>
        <time>2025-04-30T11:57:29Z</time>
      </trkpt>
      <trkpt lat="43.296542968600988" lon="-8.286893041804433">
        <ele>133.28</ele>
        <time>2025-04-30T11:57:41Z</time>
      </trkpt>
      <trkpt lat="43.295707041397691" lon="-8.288043960928917">
        <ele>136.16</ele>
        <time>2025-04-30T11:57:48Z</time>
      </trkpt>
      <trkpt lat="43.295141011476517" lon="-8.288634968921542">
        <ele>139.53</ele>
        <time>2025-04-30T11:57:52Z</time>
      </trkpt>
      <trkpt lat="43.295102035626769" lon="-8.28880000859499">
        <ele>139.53</ele>
        <time>2025-04-30T11:57:53Z</time>
      </trkpt>
      <trkpt lat="43.295079991221428" lon="-8.288959013298154">
        <ele>140.00999999999999</ele>
        <time>2025-04-30T11:57:54Z</time>
      </trkpt>
      <trkpt lat="43.295071022585034" lon="-8.289131009951234">
        <ele>140.00999999999999</ele>
        <time>2025-04-30T11:57:55Z</time>
      </trkpt>
      <trkpt lat="43.295061970129609" lon="-8.289305018261075">
        <ele>139.53</ele>
        <time>2025-04-30T11:57:56Z</time>
      </trkpt>
      <trkpt lat="43.295080997049809" lon="-8.289676001295447">
        <ele>139.53</ele>
        <time>2025-04-30T11:57:58Z</time>
      </trkpt>
      <trkpt lat="43.295304961502552" lon="-8.291796036064625">
        <ele>132.80000000000001</ele>
        <time>2025-04-30T11:58:07Z</time>
      </trkpt>
      <trkpt lat="43.295345026999712" lon="-8.292036009952426">
        <ele>131.84</ele>
        <time>2025-04-30T11:58:08Z</time>
      </trkpt>
      <trkpt lat="43.295401018112898" lon="-8.292257962748408">
        <ele>130.88</ele>
        <time>2025-04-30T11:58:09Z</time>
      </trkpt>
      <trkpt lat="43.295459020882845" lon="-8.292467007413507">
        <ele>129.91999999999999</ele>
        <time>2025-04-30T11:58:10Z</time>
      </trkpt>
      <trkpt lat="43.295494979247451" lon="-8.292674962431192">
        <ele>128.47</ele>
        <time>2025-04-30T11:58:11Z</time>
      </trkpt>
      <trkpt lat="43.295506965368986" lon="-8.292889036238194">
        <ele>127.03</ele>
        <time>2025-04-30T11:58:12Z</time>
      </trkpt>
      <trkpt lat="43.295499002560973" lon="-8.293094979599118">
        <ele>125.59</ele>
        <time>2025-04-30T11:58:13Z</time>
      </trkpt>
      <trkpt lat="43.295446028932929" lon="-8.294012965634465">
        <ele>118.86</ele>
        <time>2025-04-30T11:58:18Z</time>
      </trkpt>
      <trkpt lat="43.295400012284517" lon="-8.294149003922939">
        <ele>117.90000000000001</ele>
        <time>2025-04-30T11:58:19Z</time>
      </trkpt>
      <trkpt lat="43.295344021171331" lon="-8.294228967279196">
        <ele>116.45999999999999</ele>
        <time>2025-04-30T11:58:20Z</time>
      </trkpt>
      <trkpt lat="43.29525500535965" lon="-8.294262997806072">
        <ele>115.98</ele>
        <time>2025-04-30T11:58:21Z</time>
      </trkpt>
      <trkpt lat="43.295159032568336" lon="-8.294228967279196">
        <ele>115.01000000000001</ele>
        <time>2025-04-30T11:58:22Z</time>
      </trkpt>
      <trkpt lat="43.295059036463499" lon="-8.29419300891459">
        <ele>114.05</ele>
        <time>2025-04-30T11:58:23Z</time>
      </trkpt>
      <trkpt lat="43.294951999559999" lon="-8.294182028621435">
        <ele>112.61</ele>
        <time>2025-04-30T11:58:24Z</time>
      </trkpt>
      <trkpt lat="43.294882010668516" lon="-8.294241959229112">
        <ele>111.17</ele>
        <time>2025-04-30T11:58:25Z</time>
      </trkpt>
      <trkpt lat="43.294824007898569" lon="-8.294291999191046">
        <ele>109.73</ele>
        <time>2025-04-30T11:58:26Z</time>
      </trkpt>
      <trkpt lat="43.294806992635131" lon="-8.294389983639121">
        <ele>108.29000000000001</ele>
        <time>2025-04-30T11:58:27Z</time>
      </trkpt>
      <trkpt lat="43.294798023998737" lon="-8.294531973078847">
        <ele>106.36</ele>
        <time>2025-04-30T11:58:28Z</time>
      </trkpt>
      <trkpt lat="43.294791989028454" lon="-8.294704975560308">
        <ele>104.92</ele>
        <time>2025-04-30T11:58:29Z</time>
      </trkpt>
      <trkpt lat="43.294802969321609" lon="-8.295098003000021">
        <ele>101.56</ele>
        <time>2025-04-30T11:58:31Z</time>
      </trkpt>
      <trkpt lat="43.294852003455162" lon="-8.295314004644752">
        <ele>100.11</ele>
        <time>2025-04-30T11:58:32Z</time>
      </trkpt>
      <trkpt lat="43.295054007321596" lon="-8.296251017600298">
        <ele>95.310000000000002</ele>
        <time>2025-04-30T11:58:37Z</time>
      </trkpt>
      <trkpt lat="43.29510698094964" lon="-8.296382026746869">
        <ele>94.349999999999994</ele>
        <time>2025-04-30T11:58:38Z</time>
      </trkpt>
      <trkpt lat="43.295164983719587" lon="-8.296498032286763">
        <ele>93.390000000000001</ele>
        <time>2025-04-30T11:58:39Z</time>
      </trkpt>
      <trkpt lat="43.295227009803057" lon="-8.296605991199613">
        <ele>92.900000000000006</ele>
        <time>2025-04-30T11:58:40Z</time>
      </trkpt>
      <trkpt lat="43.295310996472836" lon="-8.296699030324817">
        <ele>92.900000000000006</ele>
        <time>2025-04-30T11:58:41Z</time>
      </trkpt>
      <trkpt lat="43.295462960377336" lon="-8.296894999220967">
        <ele>91.459999999999994</ele>
        <time>2025-04-30T11:58:43Z</time>
      </trkpt>
      <trkpt lat="43.295524986460805" lon="-8.2970089931041">
        <ele>90.980000000000004</ele>
        <time>2025-04-30T11:58:44Z</time>
      </trkpt>
      <trkpt lat="43.2955770380795" lon="-8.297130027785897">
        <ele>90.019999999999996</ele>
        <time>2025-04-30T11:58:45Z</time>
      </trkpt>
      <trkpt lat="43.295620959252119" lon="-8.297261958941817">
        <ele>89.540000000000006</ele>
        <time>2025-04-30T11:58:46Z</time>
      </trkpt>
      <trkpt lat="43.295666975900531" lon="-8.297401014715433">
        <ele>88.579999999999998</ele>
        <time>2025-04-30T11:58:47Z</time>
      </trkpt>
      <trkpt lat="43.295712992548943" lon="-8.297538980841637">
        <ele>88.099999999999994</ele>
        <time>2025-04-30T11:58:48Z</time>
      </trkpt>
      <trkpt lat="43.295767977833748" lon="-8.297853972762823">
        <ele>87.140000000000001</ele>
        <time>2025-04-30T11:58:50Z</time>
      </trkpt>
      <trkpt lat="43.295767977833748" lon="-8.298020018264651">
        <ele>86.659999999999997</ele>
        <time>2025-04-30T11:58:51Z</time>
      </trkpt>
      <trkpt lat="43.295789016410708" lon="-8.298964994028211">
        <ele>82.329999999999998</ele>
        <time>2025-04-30T11:58:56Z</time>
      </trkpt>
      <trkpt lat="43.295934023335576" lon="-8.300604997202754">
        <ele>77.040000000000006</ele>
        <time>2025-04-30T11:59:05Z</time>
      </trkpt>
      <trkpt lat="43.295980039983988" lon="-8.300742041319609">
        <ele>76.560000000000002</ele>
        <time>2025-04-30T11:59:06Z</time>
      </trkpt>
      <trkpt lat="43.296023039147258" lon="-8.300872966647148">
        <ele>76.560000000000002</ele>
        <time>2025-04-30T11:59:07Z</time>
      </trkpt>
      <trkpt lat="43.296067966148257" lon="-8.301029037684202">
        <ele>76.079999999999998</ele>
        <time>2025-04-30T11:59:08Z</time>
      </trkpt>
      <trkpt lat="43.296067966148257" lon="-8.301139008253813">
        <ele>76.560000000000002</ele>
        <time>2025-04-30T11:59:09Z</time>
      </trkpt>
      <trkpt lat="43.296067966148257" lon="-8.301307987421751">
        <ele>76.560000000000002</ele>
        <time>2025-04-30T11:59:10Z</time>
      </trkpt>
      <trkpt lat="43.296048017218709" lon="-8.301448971033096">
        <ele>77.040000000000006</ele>
        <time>2025-04-30T11:59:11Z</time>
      </trkpt>
      <trkpt lat="43.296024966984987" lon="-8.30160797573626">
        <ele>78</ele>
        <time>2025-04-30T11:59:12Z</time>
      </trkpt>
      <trkpt lat="43.295938968658447" lon="-8.302383972331882">
        <ele>81.370000000000005</ele>
        <time>2025-04-30T11:59:17Z</time>
      </trkpt>
      <trkpt lat="43.295978028327227" lon="-8.302536020055413">
        <ele>82.329999999999998</ele>
        <time>2025-04-30T11:59:18Z</time>
      </trkpt>
      <trkpt lat="43.296043993905187" lon="-8.302687983959913">
        <ele>82.810000000000002</ele>
        <time>2025-04-30T11:59:19Z</time>
      </trkpt>
      <trkpt lat="43.296411037445068" lon="-8.303555008023977">
        <ele>86.659999999999997</ele>
        <time>2025-04-30T11:59:25Z</time>
      </trkpt>
      <trkpt lat="43.296470968052745" lon="-8.303660033270717">
        <ele>87.140000000000001</ele>
        <time>2025-04-30T11:59:26Z</time>
      </trkpt>
      <trkpt lat="43.296669032424688" lon="-8.30371200107038">
        <ele>87.620000000000005</ele>
        <time>2025-04-30T11:59:27Z</time>
      </trkpt>
      <trkpt lat="43.296672971919179" lon="-8.303715018555522">
        <ele>87.620000000000005</ele>
        <time>2025-04-30T11:59:28Z</time>
      </trkpt>
      <trkpt lat="43.296739021316171" lon="-8.303780984133482">
        <ele>88.099999999999994</ele>
        <time>2025-04-30T11:59:29Z</time>
      </trkpt>
      <trkpt lat="43.296785959973931" lon="-8.303895983844996">
        <ele>88.579999999999998</ele>
        <time>2025-04-30T11:59:30Z</time>
      </trkpt>
      <trkpt lat="43.296798029914498" lon="-8.30399002879858">
        <ele>89.060000000000002</ele>
        <time>2025-04-30T11:59:31Z</time>
      </trkpt>
      <trkpt lat="43.296730974689126" lon="-8.30418398603797">
        <ele>89.060000000000002</ele>
        <time>2025-04-30T11:59:32Z</time>
      </trkpt>
      <trkpt lat="43.296755030751228" lon="-8.304311977699399">
        <ele>89.060000000000002</ele>
        <time>2025-04-30T11:59:33Z</time>
      </trkpt>
      <trkpt lat="43.296826025471091" lon="-8.304472994059324">
        <ele>89.540000000000006</ele>
        <time>2025-04-30T11:59:34Z</time>
      </trkpt>
      <trkpt lat="43.296906994655728" lon="-8.304608026519418">
        <ele>89.540000000000006</ele>
        <time>2025-04-30T11:59:35Z</time>
      </trkpt>
      <trkpt lat="43.296985030174255" lon="-8.304729983210564">
        <ele>90.019999999999996</ele>
        <time>2025-04-30T11:59:36Z</time>
      </trkpt>
      <trkpt lat="43.29706197604537" lon="-8.304844982922077">
        <ele>90.5</ele>
        <time>2025-04-30T11:59:37Z</time>
      </trkpt>
      <trkpt lat="43.297140011563897" lon="-8.304953025653958">
        <ele>90.980000000000004</ele>
        <time>2025-04-30T11:59:38Z</time>
      </trkpt>
      <trkpt lat="43.297579977661371" lon="-8.305641012266278">
        <ele>92.900000000000006</ele>
        <time>2025-04-30T11:59:44Z</time>
      </trkpt>
      <trkpt lat="43.297642003744841" lon="-8.305776966735721">
        <ele>92.900000000000006</ele>
        <time>2025-04-30T11:59:45Z</time>
      </trkpt>
      <trkpt lat="43.297690032050014" lon="-8.305922979488969">
        <ele>92.900000000000006</ele>
        <time>2025-04-30T11:59:46Z</time>
      </trkpt>
      <trkpt lat="43.298051040619612" lon="-8.307560971006751">
        <ele>88.579999999999998</ele>
        <time>2025-04-30T11:59:56Z</time>
      </trkpt>
      <trkpt lat="43.29837198369205" lon="-8.309063008055091">
        <ele>84.730000000000004</ele>
        <time>2025-04-30T12:00:05Z</time>
      </trkpt>
      <trkpt lat="43.298485977575183" lon="-8.309989040717483">
        <ele>81.849999999999994</ele>
        <time>2025-04-30T12:00:11Z</time>
      </trkpt>
      <trkpt lat="43.298480026423931" lon="-8.310127006843686">
        <ele>80.890000000000001</ele>
        <time>2025-04-30T12:00:12Z</time>
      </trkpt>
      <trkpt lat="43.298463011160493" lon="-8.310383995994926">
        <ele>79.930000000000007</ele>
        <time>2025-04-30T12:00:14Z</time>
      </trkpt>
      <trkpt lat="43.29837198369205" lon="-8.311158986762166">
        <ele>76.560000000000002</ele>
        <time>2025-04-30T12:00:23Z</time>
      </trkpt>
      <trkpt lat="43.298364020884037" lon="-8.311242973431945">
        <ele>76.079999999999998</ele>
        <time>2025-04-30T12:00:25Z</time>
      </trkpt>
      <trkpt lat="43.298455970361829" lon="-8.311432991176844">
        <ele>76.079999999999998</ele>
        <time>2025-04-30T12:00:26Z</time>
      </trkpt>
      <trkpt lat="43.298425041139126" lon="-8.311516977846623">
        <ele>76.560000000000002</ele>
        <time>2025-04-30T12:00:27Z</time>
      </trkpt>
      <trkpt lat="43.298407020047307" lon="-8.311565006151795">
        <ele>76.079999999999998</ele>
        <time>2025-04-30T12:00:28Z</time>
      </trkpt>
      <trkpt lat="43.298284979537129" lon="-8.311672965064645">
        <ele>75.599999999999994</ele>
        <time>2025-04-30T12:00:29Z</time>
      </trkpt>
      <trkpt lat="43.298266958445311" lon="-8.311784025281668">
        <ele>75.120000000000005</ele>
        <time>2025-04-30T12:00:30Z</time>
      </trkpt>
      <trkpt lat="43.298248015344143" lon="-8.311906987801194">
        <ele>75.120000000000005</ele>
        <time>2025-04-30T12:00:31Z</time>
      </trkpt>
      <trkpt lat="43.298228988423944" lon="-8.312030034139752">
        <ele>75.120000000000005</ele>
        <time>2025-04-30T12:00:32Z</time>
      </trkpt>
      <trkpt lat="43.298210967332125" lon="-8.312148973345757">
        <ele>74.640000000000001</ele>
        <time>2025-04-30T12:00:33Z</time>
      </trkpt>
      <trkpt lat="43.298193030059338" lon="-8.312273025512695">
        <ele>74.640000000000001</ele>
        <time>2025-04-30T12:00:34Z</time>
      </trkpt>
      <trkpt lat="43.298064032569528" lon="-8.313022032380104">
        <ele>73.200000000000003</ele>
        <time>2025-04-30T12:00:40Z</time>
      </trkpt>
      <trkpt lat="43.298046011477709" lon="-8.313157986849546">
        <ele>72.719999999999999</ele>
        <time>2025-04-30T12:00:41Z</time>
      </trkpt>
      <trkpt lat="43.297998989000916" lon="-8.313539028167725">
        <ele>72.239999999999995</ele>
        <time>2025-04-30T12:00:43Z</time>
      </trkpt>
      <trkpt lat="43.297975016757846" lon="-8.313625026494265">
        <ele>71.760000000000005</ele>
        <time>2025-04-30T12:00:44Z</time>
      </trkpt>
      <trkpt lat="43.297689026221633" lon="-8.31527098082006">
        <ele>77.040000000000006</ele>
        <time>2025-04-30T12:00:54Z</time>
      </trkpt>
      <trkpt lat="43.297436982393265" lon="-8.316625999286771">
        <ele>84.25</ele>
        <time>2025-04-30T12:01:04Z</time>
      </trkpt>
      <trkpt lat="43.297404041513801" lon="-8.316871002316475">
        <ele>85.689999999999998</ele>
        <time>2025-04-30T12:01:07Z</time>
      </trkpt>
      <trkpt lat="43.297392977401614" lon="-8.31694501452148">
        <ele>86.180000000000007</ele>
        <time>2025-04-30T12:01:08Z</time>
      </trkpt>
      <trkpt lat="43.297356013208628" lon="-8.317338963970542">
        <ele>88.099999999999994</ele>
        <time>2025-04-30T12:01:14Z</time>
      </trkpt>
      <trkpt lat="43.297356013208628" lon="-8.317408030852675">
        <ele>88.579999999999998</ele>
        <time>2025-04-30T12:01:15Z</time>
      </trkpt>
      <trkpt lat="43.297356013208628" lon="-8.31748397089541">
        <ele>88.579999999999998</ele>
        <time>2025-04-30T12:01:16Z</time>
      </trkpt>
      <trkpt lat="43.297356013208628" lon="-8.317572986707091">
        <ele>89.060000000000002</ele>
        <time>2025-04-30T12:01:17Z</time>
      </trkpt>
      <trkpt lat="43.297360958531499" lon="-8.317637024447322">
        <ele>89.060000000000002</ele>
        <time>2025-04-30T12:01:18Z</time>
      </trkpt>
      <trkpt lat="43.297364981845021" lon="-8.31769896671176">
        <ele>89.540000000000006</ele>
        <time>2025-04-30T12:01:19Z</time>
      </trkpt>
      <trkpt lat="43.297386020421982" lon="-8.318355018272996">
        <ele>90.980000000000004</ele>
        <time>2025-04-30T12:01:29Z</time>
      </trkpt>
      <trkpt lat="43.297364981845021" lon="-8.318511005491018">
        <ele>91.459999999999994</ele>
        <time>2025-04-30T12:01:32Z</time>
      </trkpt>
      <trkpt lat="43.297358024865389" lon="-8.318564984947443">
        <ele>91.459999999999994</ele>
        <time>2025-04-30T12:01:33Z</time>
      </trkpt>
      <trkpt lat="43.29731997102499" lon="-8.318833960220218">
        <ele>91.459999999999994</ele>
        <time>2025-04-30T12:01:36Z</time>
      </trkpt>
      <trkpt lat="43.29712500795722" lon="-8.319659996777773">
        <ele>93.390000000000001</ele>
        <time>2025-04-30T12:01:42Z</time>
      </trkpt>
      <trkpt lat="43.297038003802299" lon="-8.319921009242535">
        <ele>94.349999999999994</ele>
        <time>2025-04-30T12:01:44Z</time>
      </trkpt>
      <trkpt lat="43.296499969437718" lon="-8.321490017697215">
        <ele>95.310000000000002</ele>
        <time>2025-04-30T12:01:54Z</time>
      </trkpt>
      <trkpt lat="43.295976016670465" lon="-8.323023989796639">
        <ele>97.230000000000004</ele>
        <time>2025-04-30T12:02:04Z</time>
      </trkpt>
      <trkpt lat="43.295229021459818" lon="-8.32466097548604">
        <ele>100.59999999999999</ele>
        <time>2025-04-30T12:02:15Z</time>
      </trkpt>
      <trkpt lat="43.295102035626769" lon="-8.32498099654913">
        <ele>101.08</ele>
        <time>2025-04-30T12:02:17Z</time>
      </trkpt>
      <trkpt lat="43.295074040070176" lon="-8.325162967666984">
        <ele>101.56</ele>
        <time>2025-04-30T12:02:18Z</time>
      </trkpt>
      <trkpt lat="43.295059958472848" lon="-8.325351979583502">
        <ele>102.52</ele>
        <time>2025-04-30T12:02:19Z</time>
      </trkpt>
      <trkpt lat="43.295059958472848" lon="-8.325541997328401">
        <ele>103</ele>
        <time>2025-04-30T12:02:20Z</time>
      </trkpt>
      <trkpt lat="43.295059958472848" lon="-8.325730003416538">
        <ele>103.95999999999999</ele>
        <time>2025-04-30T12:02:21Z</time>
      </trkpt>
      <trkpt lat="43.295074040070176" lon="-8.325912980362773">
        <ele>104.44</ele>
        <time>2025-04-30T12:02:22Z</time>
      </trkpt>
      <trkpt lat="43.295100023970008" lon="-8.326096963137388">
        <ele>104.92</ele>
        <time>2025-04-30T12:02:23Z</time>
      </trkpt>
      <trkpt lat="43.295128019526601" lon="-8.326287986710668">
        <ele>105.40000000000001</ele>
        <time>2025-04-30T12:02:24Z</time>
      </trkpt>
      <trkpt lat="43.295445023104548" lon="-8.328120019286871">
        <ele>110.20999999999999</ele>
        <time>2025-04-30T12:02:32Z</time>
      </trkpt>
      <trkpt lat="43.295638980343938" lon="-8.328859973698854">
        <ele>112.13</ele>
        <time>2025-04-30T12:02:35Z</time>
      </trkpt>
      <trkpt lat="43.29566597007215" lon="-8.329115035012364">
        <ele>112.61</ele>
        <time>2025-04-30T12:02:36Z</time>
      </trkpt>
      <trkpt lat="43.295679967850447" lon="-8.32936498336494">
        <ele>113.09</ele>
        <time>2025-04-30T12:02:37Z</time>
      </trkpt>
      <trkpt lat="43.295688014477491" lon="-8.330328986048698">
        <ele>115.5</ele>
        <time>2025-04-30T12:02:41Z</time>
      </trkpt>
      <trkpt lat="43.295736964792013" lon="-8.330570971593261">
        <ele>116.45999999999999</ele>
        <time>2025-04-30T12:02:42Z</time>
      </trkpt>
      <trkpt lat="43.29598699696362" lon="-8.3317069709301">
        <ele>120.78</ele>
        <time>2025-04-30T12:02:47Z</time>
      </trkpt>
      <trkpt lat="43.296063020825386" lon="-8.331893971189857">
        <ele>121.73999999999999</ele>
        <time>2025-04-30T12:02:48Z</time>
      </trkpt>
      <trkpt lat="43.296154970303178" lon="-8.332063034176827">
        <ele>121.73999999999999</ele>
        <time>2025-04-30T12:02:49Z</time>
      </trkpt>
      <trkpt lat="43.296585967764258" lon="-8.333061989396811">
        <ele>119.81999999999999</ele>
        <time>2025-04-30T12:02:55Z</time>
      </trkpt>
      <trkpt lat="43.296626033261418" lon="-8.333240021020174">
        <ele>119.81999999999999</ele>
        <time>2025-04-30T12:02:56Z</time>
      </trkpt>
      <trkpt lat="43.296641036868095" lon="-8.33342500962317">
        <ele>119.34</ele>
        <time>2025-04-30T12:02:57Z</time>
      </trkpt>
      <trkpt lat="43.296708008274436" lon="-8.334381971508265">
        <ele>116.94</ele>
        <time>2025-04-30T12:03:02Z</time>
      </trkpt>
      <trkpt lat="43.296747989952564" lon="-8.334566038101912">
        <ele>116.45999999999999</ele>
        <time>2025-04-30T12:03:03Z</time>
      </trkpt>
      <trkpt lat="43.296884028241038" lon="-8.335103988647461">
        <ele>115.5</ele>
        <time>2025-04-30T12:03:06Z</time>
      </trkpt>
      <trkpt lat="43.296884028241038" lon="-8.335275985300541">
        <ele>115.01000000000001</ele>
        <time>2025-04-30T12:03:07Z</time>
      </trkpt>
      <trkpt lat="43.296871036291122" lon="-8.335426021367312">
        <ele>115.01000000000001</ele>
        <time>2025-04-30T12:03:08Z</time>
      </trkpt>
      <trkpt lat="43.296547997742891" lon="-8.336823033168912">
        <ele>109.73</ele>
        <time>2025-04-30T12:03:16Z</time>
      </trkpt>
      <trkpt lat="43.296514973044395" lon="-8.337006010115147">
        <ele>108.29000000000001</ele>
        <time>2025-04-30T12:03:17Z</time>
      </trkpt>
      <trkpt lat="43.296406008303165" lon="-8.337517976760864">
        <ele>104.44</ele>
        <time>2025-04-30T12:03:20Z</time>
      </trkpt>
      <trkpt lat="43.296336019411683" lon="-8.33765896037221">
        <ele>103.48</ele>
        <time>2025-04-30T12:03:21Z</time>
      </trkpt>
      <trkpt lat="43.29626795835793" lon="-8.337788041681051">
        <ele>102.04000000000001</ele>
        <time>2025-04-30T12:03:22Z</time>
      </trkpt>
      <trkpt lat="43.296091016381979" lon="-8.33800002001226">
        <ele>100.59999999999999</ele>
        <time>2025-04-30T12:03:24Z</time>
      </trkpt>
      <trkpt lat="43.295115027576685" lon="-8.338827984407544">
        <ele>97.709999999999994</ele>
        <time>2025-04-30T12:03:33Z</time>
      </trkpt>
      <trkpt lat="43.294681012630463" lon="-8.339059995487332">
        <ele>97.230000000000004</ele>
        <time>2025-04-30T12:03:37Z</time>
      </trkpt>
      <trkpt lat="43.294588979333639" lon="-8.33913903683424">
        <ele>97.709999999999994</ele>
        <time>2025-04-30T12:03:38Z</time>
      </trkpt>
      <trkpt lat="43.294172985479236" lon="-8.339540027081966">
        <ele>96.269999999999996</ele>
        <time>2025-04-30T12:03:42Z</time>
      </trkpt>
      <trkpt lat="43.294048011302948" lon="-8.339609010145068">
        <ele>95.790000000000006</ele>
        <time>2025-04-30T12:03:43Z</time>
      </trkpt>
      <trkpt lat="43.293921025469899" lon="-8.339669024571776">
        <ele>94.829999999999998</ele>
        <time>2025-04-30T12:03:44Z</time>
      </trkpt>
      <trkpt lat="43.29379403963685" lon="-8.339723004028201">
        <ele>94.349999999999994</ele>
        <time>2025-04-30T12:03:45Z</time>
      </trkpt>
      <trkpt lat="43.293662024661899" lon="-8.339776983484626">
        <ele>93.870000000000005</ele>
        <time>2025-04-30T12:03:46Z</time>
      </trkpt>
      <trkpt lat="43.293306967243552" lon="-8.339920984581113">
        <ele>91.939999999999998</ele>
        <time>2025-04-30T12:03:49Z</time>
      </trkpt>
      <trkpt lat="43.29295601695776" lon="-8.340269001200795">
        <ele>88.099999999999994</ele>
        <time>2025-04-30T12:03:53Z</time>
      </trkpt>
      <trkpt lat="43.292917963117361" lon="-8.340373020619154">
        <ele>86.659999999999997</ele>
        <time>2025-04-30T12:03:54Z</time>
      </trkpt>
      <trkpt lat="43.292923998087645" lon="-8.340478967875242">
        <ele>85.209999999999994</ele>
        <time>2025-04-30T12:03:55Z</time>
      </trkpt>
      <trkpt lat="43.292941013351083" lon="-8.340896973386407">
        <ele>81.370000000000005</ele>
        <time>2025-04-30T12:03:58Z</time>
      </trkpt>
      <trkpt lat="43.292915029451251" lon="-8.341036029160023">
        <ele>80.409999999999997</ele>
        <time>2025-04-30T12:03:59Z</time>
      </trkpt>
      <trkpt lat="43.292882004752755" lon="-8.341170977801085">
        <ele>78.969999999999999</ele>
        <time>2025-04-30T12:04:00Z</time>
      </trkpt>
      <trkpt lat="43.292812015861273" lon="-8.341279020532966">
        <ele>78</ele>
        <time>2025-04-30T12:04:01Z</time>
      </trkpt>
      <trkpt lat="43.29274202696979" lon="-8.341386979445815">
        <ele>77.040000000000006</ele>
        <time>2025-04-30T12:04:02Z</time>
      </trkpt>
      <trkpt lat="43.292674971744418" lon="-8.341492004692555">
        <ele>76.079999999999998</ele>
        <time>2025-04-30T12:04:03Z</time>
      </trkpt>
      <trkpt lat="43.292610011994839" lon="-8.341599041596055">
        <ele>74.640000000000001</ele>
        <time>2025-04-30T12:04:04Z</time>
      </trkpt>
      <trkpt lat="43.292502975091338" lon="-8.341802973300219">
        <ele>72.719999999999999</ele>
        <time>2025-04-30T12:04:06Z</time>
      </trkpt>
      <trkpt lat="43.2924859598279" lon="-8.341928031295538">
        <ele>71.760000000000005</ele>
        <time>2025-04-30T12:04:07Z</time>
      </trkpt>
      <trkpt lat="43.29246299341321" lon="-8.342099022120237">
        <ele>71.269999999999996</ele>
        <time>2025-04-30T12:04:08Z</time>
      </trkpt>
      <trkpt lat="43.29246299341321" lon="-8.342188959941268">
        <ele>71.269999999999996</ele>
        <time>2025-04-30T12:04:09Z</time>
      </trkpt>
      <trkpt lat="43.29246299341321" lon="-8.342334972694516">
        <ele>71.269999999999996</ele>
        <time>2025-04-30T12:04:10Z</time>
      </trkpt>
      <trkpt lat="43.292469028383493" lon="-8.342477967962623">
        <ele>71.760000000000005</ele>
        <time>2025-04-30T12:04:11Z</time>
      </trkpt>
      <trkpt lat="43.292474979534745" lon="-8.34262004122138">
        <ele>71.269999999999996</ele>
        <time>2025-04-30T12:04:12Z</time>
      </trkpt>
      <trkpt lat="43.29254899173975" lon="-8.342893039807677">
        <ele>71.269999999999996</ele>
        <time>2025-04-30T12:04:14Z</time>
      </trkpt>
      <trkpt lat="43.292587967589498" lon="-8.343039974570274">
        <ele>71.269999999999996</ele>
        <time>2025-04-30T12:04:15Z</time>
      </trkpt>
      <trkpt lat="43.292738003656268" lon="-8.343250025063753">
        <ele>70.790000000000006</ele>
        <time>2025-04-30T12:04:17Z</time>
      </trkpt>
      <trkpt lat="43.29280799254775" lon="-8.343367958441377">
        <ele>70.310000000000002</ele>
        <time>2025-04-30T12:04:18Z</time>
      </trkpt>
      <trkpt lat="43.292877981439233" lon="-8.343481030315161">
        <ele>69.349999999999994</ele>
        <time>2025-04-30T12:04:19Z</time>
      </trkpt>
      <trkpt lat="43.293017959222198" lon="-8.343698037788272">
        <ele>67.430000000000007</ele>
        <time>2025-04-30T12:04:21Z</time>
      </trkpt>
      <trkpt lat="43.293112004175782" lon="-8.343782024458051">
        <ele>66.469999999999999</ele>
        <time>2025-04-30T12:04:22Z</time>
      </trkpt>
      <trkpt lat="43.293201019987464" lon="-8.343840027227998">
        <ele>65.989999999999995</ele>
        <time>2025-04-30T12:04:23Z</time>
      </trkpt>
      <trkpt lat="43.29362103715539" lon="-8.344072960317135">
        <ele>60.700000000000003</ele>
        <time>2025-04-30T12:04:30Z</time>
      </trkpt>
      <trkpt lat="43.293745005503297" lon="-8.344091987237334">
        <ele>60.700000000000003</ele>
        <time>2025-04-30T12:04:33Z</time>
      </trkpt>
      <trkpt lat="43.293776018545032" lon="-8.344204975292087">
        <ele>61.659999999999997</ele>
        <time>2025-04-30T12:04:34Z</time>
      </trkpt>
      <trkpt lat="43.293966958299279" lon="-8.344435980543494">
        <ele>63.100000000000001</ele>
        <time>2025-04-30T12:04:37Z</time>
      </trkpt>
      <trkpt lat="43.294018004089594" lon="-8.344532959163189">
        <ele>63.579999999999998</ele>
        <time>2025-04-30T12:04:38Z</time>
      </trkpt>
      <trkpt lat="43.29405102878809" lon="-8.344631027430296">
        <ele>64.069999999999993</ele>
        <time>2025-04-30T12:04:39Z</time>
      </trkpt>
      <trkpt lat="43.294068966060877" lon="-8.344739992171526">
        <ele>65.030000000000001</ele>
        <time>2025-04-30T12:04:40Z</time>
      </trkpt>
      <trkpt lat="43.294083969667554" lon="-8.344828002154827">
        <ele>65.510000000000005</ele>
        <time>2025-04-30T12:04:41Z</time>
      </trkpt>
      <trkpt lat="43.294092016294599" lon="-8.344874018803239">
        <ele>66.469999999999999</ele>
        <time>2025-04-30T12:04:42Z</time>
      </trkpt>
      <trkpt lat="43.29409696161747" lon="-8.344906037673354">
        <ele>66.950000000000003</ele>
        <time>2025-04-30T12:04:43Z</time>
      </trkpt>
      <trkpt lat="43.294071983546019" lon="-8.345003016293049">
        <ele>67.909999999999997</ele>
        <time>2025-04-30T12:04:46Z</time>
      </trkpt>
      <trkpt lat="43.294055974110961" lon="-8.345089014619589">
        <ele>68.390000000000001</ele>
        <time>2025-04-30T12:04:47Z</time>
      </trkpt>
      <trkpt lat="43.29401196911931" lon="-8.345320019870997">
        <ele>68.390000000000001</ele>
        <time>2025-04-30T12:04:49Z</time>
      </trkpt>
      <trkpt lat="43.293765960261226" lon="-8.346574036404491">
        <ele>67.909999999999997</ele>
        <time>2025-04-30T12:04:57Z</time>
      </trkpt>
      <trkpt lat="43.29345197416842" lon="-8.348027961328626">
        <ele>65.030000000000001</ele>
        <time>2025-04-30T12:05:06Z</time>
      </trkpt>
      <trkpt lat="43.293157014995813" lon="-8.350007012486458">
        <ele>48.68</ele>
        <time>2025-04-30T12:05:18Z</time>
      </trkpt>
      <trkpt lat="43.293182998895645" lon="-8.350362991914153">
        <ele>45.32</ele>
        <time>2025-04-30T12:05:20Z</time>
      </trkpt>
      <trkpt lat="43.293205965310335" lon="-8.350531971082091">
        <ele>43.880000000000003</ele>
        <time>2025-04-30T12:05:21Z</time>
      </trkpt>
      <trkpt lat="43.29323697835207" lon="-8.350686030462384">
        <ele>42.439999999999998</ele>
        <time>2025-04-30T12:05:22Z</time>
      </trkpt>
      <trkpt lat="43.293275032192469" lon="-8.350836988538504">
        <ele>40.990000000000002</ele>
        <time>2025-04-30T12:05:23Z</time>
      </trkpt>
      <trkpt lat="43.293314008042216" lon="-8.350991969928145">
        <ele>40.030000000000001</ele>
        <time>2025-04-30T12:05:24Z</time>
      </trkpt>
      <trkpt lat="43.293454991653562" lon="-8.351614996790886">
        <ele>35.229999999999997</ele>
        <time>2025-04-30T12:05:28Z</time>
      </trkpt>
      <trkpt lat="43.293573008850217" lon="-8.352544968947768">
        <ele>30.420000000000002</ele>
        <time>2025-04-30T12:05:33Z</time>
      </trkpt>
      <trkpt lat="43.293636040762067" lon="-8.352703973650932">
        <ele>29.460000000000001</ele>
        <time>2025-04-30T12:05:34Z</time>
      </trkpt>
      <trkpt lat="43.293814994394779" lon="-8.353162966668606">
        <ele>28.5</ele>
        <time>2025-04-30T12:05:37Z</time>
      </trkpt>
      <trkpt lat="43.293866040185094" lon="-8.353314008563757">
        <ele>28.02</ele>
        <time>2025-04-30T12:05:38Z</time>
      </trkpt>
      <trkpt lat="43.293954972177744" lon="-8.353797979652882">
        <ele>26.57</ele>
        <time>2025-04-30T12:05:41Z</time>
      </trkpt>
      <trkpt lat="43.29396503046155" lon="-8.353954972699285">
        <ele>25.129999999999999</ele>
        <time>2025-04-30T12:05:42Z</time>
      </trkpt>
      <trkpt lat="43.293943991884589" lon="-8.354121018201113">
        <ele>24.170000000000002</ele>
        <time>2025-04-30T12:05:43Z</time>
      </trkpt>
      <trkpt lat="43.293905016034842" lon="-8.354293014854193">
        <ele>23.210000000000001</ele>
        <time>2025-04-30T12:05:44Z</time>
      </trkpt>
      <trkpt lat="43.293841984122992" lon="-8.354445984587073">
        <ele>22.25</ele>
        <time>2025-04-30T12:05:45Z</time>
      </trkpt>
      <trkpt lat="43.293814994394779" lon="-8.354614041745663">
        <ele>21.289999999999999</ele>
        <time>2025-04-30T12:05:46Z</time>
      </trkpt>
      <trkpt lat="43.29379403963685" lon="-8.354775980114937">
        <ele>19.84</ele>
        <time>2025-04-30T12:05:47Z</time>
      </trkpt>
      <trkpt lat="43.29379403963685" lon="-8.354948982596397">
        <ele>18.879999999999999</ele>
        <time>2025-04-30T12:05:48Z</time>
      </trkpt>
      <trkpt lat="43.293808037415147" lon="-8.35512600839138">
        <ele>17.440000000000001</ele>
        <time>2025-04-30T12:05:49Z</time>
      </trkpt>
      <trkpt lat="43.293841984122992" lon="-8.355310996994376">
        <ele>16.48</ele>
        <time>2025-04-30T12:05:50Z</time>
      </trkpt>
      <trkpt lat="43.294010041281581" lon="-8.356234012171626">
        <ele>11.67</ele>
        <time>2025-04-30T12:05:55Z</time>
      </trkpt>
      <trkpt lat="43.29405102878809" lon="-8.356411959975958">
        <ele>11.19</ele>
        <time>2025-04-30T12:05:56Z</time>
      </trkpt>
      <trkpt lat="43.294555032625794" lon="-8.357784999534488">
        <ele>10.23</ele>
        <time>2025-04-30T12:06:05Z</time>
      </trkpt>
      <trkpt lat="43.294572969898582" lon="-8.357932018116117">
        <ele>10.710000000000001</ele>
        <time>2025-04-30T12:06:06Z</time>
      </trkpt>
      <trkpt lat="43.294588979333639" lon="-8.358065960928798">
        <ele>10.710000000000001</ele>
        <time>2025-04-30T12:06:07Z</time>
      </trkpt>
      <trkpt lat="43.294601971283555" lon="-8.358177021145821">
        <ele>10.710000000000001</ele>
        <time>2025-04-30T12:06:08Z</time>
      </trkpt>
      <trkpt lat="43.294609012082219" lon="-8.358273999765515">
        <ele>11.19</ele>
        <time>2025-04-30T12:06:09Z</time>
      </trkpt>
      <trkpt lat="43.294603982940316" lon="-8.358381036669016">
        <ele>10.710000000000001</ele>
        <time>2025-04-30T12:06:10Z</time>
      </trkpt>
      <trkpt lat="43.294575987383723" lon="-8.358480026945472">
        <ele>10.710000000000001</ele>
        <time>2025-04-30T12:06:11Z</time>
      </trkpt>
      <trkpt lat="43.29424699768424" lon="-8.359538996592164">
        <ele>16</ele>
        <time>2025-04-30T12:06:19Z</time>
      </trkpt>
      <trkpt lat="43.293770989403129" lon="-8.360268976539373">
        <ele>18.879999999999999</ele>
        <time>2025-04-30T12:06:25Z</time>
      </trkpt>
      <trkpt lat="43.293670993298292" lon="-8.360360004007816">
        <ele>19.359999999999999</ele>
        <time>2025-04-30T12:06:26Z</time>
      </trkpt>
      <trkpt lat="43.293407969176769" lon="-8.360547004267573">
        <ele>19.84</ele>
        <time>2025-04-30T12:06:29Z</time>
      </trkpt>
      <trkpt lat="43.293379973620176" lon="-8.360597966238856">
        <ele>19.359999999999999</ele>
        <time>2025-04-30T12:06:30Z</time>
      </trkpt>
      <trkpt lat="43.293360024690628" lon="-8.360635014250875">
        <ele>19.359999999999999</ele>
        <time>2025-04-30T12:06:31Z</time>
      </trkpt>
      <trkpt lat="43.293406963348389" lon="-8.360767029225826">
        <ele>19.359999999999999</ele>
        <time>2025-04-30T12:06:32Z</time>
      </trkpt>
      <trkpt lat="43.293406963348389" lon="-8.360767029225826">
        <ele>19.359999999999999</ele>
        <time>2025-04-30T12:06:33Z</time>
      </trkpt>
      <trkpt lat="43.29343001358211" lon="-8.360835006460547">
        <ele>19.84</ele>
        <time>2025-04-30T12:06:34Z</time>
      </trkpt>
      <trkpt lat="43.293395983055234" lon="-8.36099199950695">
        <ele>19.84</ele>
        <time>2025-04-30T12:06:35Z</time>
      </trkpt>
      <trkpt lat="43.293364970013499" lon="-8.361045978963375">
        <ele>20.32</ele>
        <time>2025-04-30T12:06:36Z</time>
      </trkpt>
      <trkpt lat="43.29321401193738" lon="-8.361073974519968">
        <ele>20.32</ele>
        <time>2025-04-30T12:06:37Z</time>
      </trkpt>
      <trkpt lat="43.293139999732375" lon="-8.361166007816792">
        <ele>20.809999999999999</ele>
        <time>2025-04-30T12:06:38Z</time>
      </trkpt>
      <trkpt lat="43.293062970042229" lon="-8.361262986436486">
        <ele>21.289999999999999</ele>
        <time>2025-04-30T12:06:39Z</time>
      </trkpt>
      <trkpt lat="43.292799023911357" lon="-8.361591976135969">
        <ele>22.73</ele>
        <time>2025-04-30T12:06:42Z</time>
      </trkpt>
      <trkpt lat="43.292709002271295" lon="-8.361708987504244">
        <ele>23.690000000000001</ele>
        <time>2025-04-30T12:06:43Z</time>
      </trkpt>
      <trkpt lat="43.291779030114412" lon="-8.36283802986145">
        <ele>24.649999999999999</ele>
        <time>2025-04-30T12:06:52Z</time>
      </trkpt>
      <trkpt lat="43.291288018226624" lon="-8.363250000402331">
        <ele>24.649999999999999</ele>
        <time>2025-04-30T12:06:56Z</time>
      </trkpt>
      <trkpt lat="43.291196990758181" lon="-8.363385032862425">
        <ele>24.649999999999999</ele>
        <time>2025-04-30T12:06:57Z</time>
      </trkpt>
      <trkpt lat="43.291150974109769" lon="-8.36354797706008">
        <ele>24.649999999999999</ele>
        <time>2025-04-30T12:06:58Z</time>
      </trkpt>
      <trkpt lat="43.291110992431641" lon="-8.363726008683443">
        <ele>24.649999999999999</ele>
        <time>2025-04-30T12:06:59Z</time>
      </trkpt>
      <trkpt lat="43.291072016581893" lon="-8.363895993679762">
        <ele>24.649999999999999</ele>
        <time>2025-04-30T12:07:00Z</time>
      </trkpt>
      <trkpt lat="43.290865989401937" lon="-8.364650029689074">
        <ele>25.129999999999999</ele>
        <time>2025-04-30T12:07:05Z</time>
      </trkpt>
      <trkpt lat="43.290789965540171" lon="-8.364770980551839">
        <ele>25.129999999999999</ele>
        <time>2025-04-30T12:07:06Z</time>
      </trkpt>
      <trkpt lat="43.290715031325817" lon="-8.364892015233636">
        <ele>25.129999999999999</ele>
        <time>2025-04-30T12:07:07Z</time>
      </trkpt>
      <trkpt lat="43.290425017476082" lon="-8.365358971059322">
        <ele>25.609999999999999</ele>
        <time>2025-04-30T12:07:11Z</time>
      </trkpt>
      <trkpt lat="43.29037799499929" lon="-8.365504983812571">
        <ele>25.609999999999999</ele>
        <time>2025-04-30T12:07:12Z</time>
      </trkpt>
      <trkpt lat="43.290287973359227" lon="-8.365786029025912">
        <ele>25.609999999999999</ele>
        <time>2025-04-30T12:07:14Z</time>
      </trkpt>
      <trkpt lat="43.289825040847063" lon="-8.367302985861898">
        <ele>28.98</ele>
        <time>2025-04-30T12:07:25Z</time>
      </trkpt>
      <trkpt lat="43.289784975349903" lon="-8.367438018321991">
        <ele>29.460000000000001</ele>
        <time>2025-04-30T12:07:26Z</time>
      </trkpt>
      <trkpt lat="43.289737030863762" lon="-8.367558969184756">
        <ele>30.420000000000002</ele>
        <time>2025-04-30T12:07:27Z</time>
      </trkpt>
      <trkpt lat="43.28966997563839" lon="-8.36765200830996">
        <ele>30.420000000000002</ele>
        <time>2025-04-30T12:07:28Z</time>
      </trkpt>
      <trkpt lat="43.289601998403668" lon="-8.36771696805954">
        <ele>30.899999999999999</ele>
        <time>2025-04-30T12:07:29Z</time>
      </trkpt>
      <trkpt lat="43.289555981755257" lon="-8.367754016071558">
        <ele>30.899999999999999</ele>
        <time>2025-04-30T12:07:30Z</time>
      </trkpt>
      <trkpt lat="43.289528992027044" lon="-8.367775976657867">
        <ele>31.379999999999999</ele>
        <time>2025-04-30T12:07:31Z</time>
      </trkpt>
      <trkpt lat="43.289468977600336" lon="-8.367825010791421">
        <ele>33.299999999999997</ele>
        <time>2025-04-30T12:07:40Z</time>
      </trkpt>
      <trkpt lat="43.289421033114195" lon="-8.367863986641169">
        <ele>33.299999999999997</ele>
        <time>2025-04-30T12:07:41Z</time>
      </trkpt>
      <trkpt lat="43.289358001202345" lon="-8.367915032431483">
        <ele>33.780000000000001</ele>
        <time>2025-04-30T12:07:42Z</time>
      </trkpt>
      <trkpt lat="43.289287006482482" lon="-8.36797202937305">
        <ele>33.780000000000001</ele>
        <time>2025-04-30T12:07:43Z</time>
      </trkpt>
      <trkpt lat="43.289205031469464" lon="-8.36803900077939">
        <ele>33.299999999999997</ele>
        <time>2025-04-30T12:07:44Z</time>
      </trkpt>
      <trkpt lat="43.28913202509284" lon="-8.36812499910593">
        <ele>33.299999999999997</ele>
        <time>2025-04-30T12:07:45Z</time>
      </trkpt>
      <trkpt lat="43.289053989574313" lon="-8.368217032402754">
        <ele>32.82</ele>
        <time>2025-04-30T12:07:46Z</time>
      </trkpt>
      <trkpt lat="43.288450995460153" lon="-8.369007026776671">
        <ele>23.690000000000001</ele>
        <time>2025-04-30T12:07:53Z</time>
      </trkpt>
      <trkpt lat="43.288340019062161" lon="-8.36909101344645">
        <ele>22.25</ele>
        <time>2025-04-30T12:07:54Z</time>
      </trkpt>
      <trkpt lat="43.287084996700287" lon="-8.369995001703501">
        <ele>15.52</ele>
        <time>2025-04-30T12:08:04Z</time>
      </trkpt>
      <trkpt lat="43.286345964297652" lon="-8.370446031913161">
        <ele>16.960000000000001</ele>
        <time>2025-04-30T12:08:11Z</time>
      </trkpt>
      <trkpt lat="43.286282010376453" lon="-8.370468998327851">
        <ele>16.960000000000001</ele>
        <time>2025-04-30T12:08:12Z</time>
      </trkpt>
      <trkpt lat="43.286205986514688" lon="-8.370476039126515">
        <ele>17.440000000000001</ele>
        <time>2025-04-30T12:08:13Z</time>
      </trkpt>
      <trkpt lat="43.286089980974793" lon="-8.370488025248051">
        <ele>17.440000000000001</ele>
        <time>2025-04-30T12:08:14Z</time>
      </trkpt>
      <trkpt lat="43.286020997911692" lon="-8.370479978621006">
        <ele>17.920000000000002</ele>
        <time>2025-04-30T12:08:15Z</time>
      </trkpt>
      <trkpt lat="43.285013996064663" lon="-8.37042298167944">
        <ele>25.129999999999999</ele>
        <time>2025-04-30T12:08:24Z</time>
      </trkpt>
      <trkpt lat="43.283843966200948" lon="-8.370333965867758">
        <ele>27.530000000000001</ele>
        <time>2025-04-30T12:08:33Z</time>
      </trkpt>
      <trkpt lat="43.283709017559886" lon="-8.37029499001801">
        <ele>28.02</ele>
        <time>2025-04-30T12:08:34Z</time>
      </trkpt>
      <trkpt lat="43.282906031236053" lon="-8.36999399587512">
        <ele>28.5</ele>
        <time>2025-04-30T12:08:40Z</time>
      </trkpt>
      <trkpt lat="43.282807040959597" lon="-8.36999399587512">
        <ele>28.98</ele>
        <time>2025-04-30T12:08:41Z</time>
      </trkpt>
      <trkpt lat="43.282704027369618" lon="-8.370062978938222">
        <ele>28.98</ele>
        <time>2025-04-30T12:08:42Z</time>
      </trkpt>
      <trkpt lat="43.282620962709188" lon="-8.370153000578284">
        <ele>29.460000000000001</ele>
        <time>2025-04-30T12:08:43Z</time>
      </trkpt>
      <trkpt lat="43.28253697603941" lon="-8.370259031653404">
        <ele>29.460000000000001</ele>
        <time>2025-04-30T12:08:44Z</time>
      </trkpt>
      <trkpt lat="43.28245198354125" lon="-8.370367996394634">
        <ele>29.460000000000001</ele>
        <time>2025-04-30T12:08:45Z</time>
      </trkpt>
      <trkpt lat="43.282363973557949" lon="-8.370478972792625">
        <ele>29.460000000000001</ele>
        <time>2025-04-30T12:08:46Z</time>
      </trkpt>
      <trkpt lat="43.281881008297205" lon="-8.371066963300109">
        <ele>26.57</ele>
        <time>2025-04-30T12:08:53Z</time>
      </trkpt>
      <trkpt lat="43.281295029446483" lon="-8.371742041781545">
        <ele>25.609999999999999</ele>
        <time>2025-04-30T12:09:00Z</time>
      </trkpt>
      <trkpt lat="43.28118396922946" lon="-8.371809013187885">
        <ele>26.09</ele>
        <time>2025-04-30T12:09:01Z</time>
      </trkpt>
      <trkpt lat="43.281058995053172" lon="-8.371879002079368">
        <ele>26.09</ele>
        <time>2025-04-30T12:09:02Z</time>
      </trkpt>
      <trkpt lat="43.280932009220123" lon="-8.37194899097085">
        <ele>26.09</ele>
        <time>2025-04-30T12:09:03Z</time>
      </trkpt>
      <trkpt lat="43.280514003708959" lon="-8.372130040079355">
        <ele>26.09</ele>
        <time>2025-04-30T12:09:06Z</time>
      </trkpt>
      <trkpt lat="43.280378971248865" lon="-8.372215032577515">
        <ele>26.09</ele>
        <time>2025-04-30T12:09:07Z</time>
      </trkpt>
      <trkpt lat="43.280248967930675" lon="-8.372303964570165">
        <ele>26.09</ele>
        <time>2025-04-30T12:09:08Z</time>
      </trkpt>
      <trkpt lat="43.279326036572456" lon="-8.372965967282653">
        <ele>25.609999999999999</ele>
        <time>2025-04-30T12:09:16Z</time>
      </trkpt>
      <trkpt lat="43.278848016634583" lon="-8.373271990567446">
        <ele>26.09</ele>
        <time>2025-04-30T12:09:20Z</time>
      </trkpt>
      <trkpt lat="43.278739973902702" lon="-8.373394031077623">
        <ele>26.09</ele>
        <time>2025-04-30T12:09:21Z</time>
      </trkpt>
      <trkpt lat="43.278627991676331" lon="-8.373520011082292">
        <ele>26.09</ele>
        <time>2025-04-30T12:09:22Z</time>
      </trkpt>
      <trkpt lat="43.278397992253304" lon="-8.373779011890292">
        <ele>27.050000000000001</ele>
        <time>2025-04-30T12:09:24Z</time>
      </trkpt>
      <trkpt lat="43.278272012248635" lon="-8.373875990509987">
        <ele>27.050000000000001</ele>
        <time>2025-04-30T12:09:25Z</time>
      </trkpt>
      <trkpt lat="43.278135973960161" lon="-8.373970035463572">
        <ele>27.530000000000001</ele>
        <time>2025-04-30T12:09:26Z</time>
      </trkpt>
      <trkpt lat="43.27677802182734" lon="-8.374715019017458">
        <ele>28.98</ele>
        <time>2025-04-30T12:09:34Z</time>
      </trkpt>
      <trkpt lat="43.275367012247443" lon="-8.37570802308619">
        <ele>28.98</ele>
        <time>2025-04-30T12:09:43Z</time>
      </trkpt>
      <trkpt lat="43.2745679654181" lon="-8.376657022163272">
        <ele>24.649999999999999</ele>
        <time>2025-04-30T12:09:49Z</time>
      </trkpt>
      <trkpt lat="43.274463023990393" lon="-8.376843016594648">
        <ele>24.170000000000002</ele>
        <time>2025-04-30T12:09:50Z</time>
      </trkpt>
      <trkpt lat="43.274014005437493" lon="-8.377638040110469">
        <ele>22.73</ele>
        <time>2025-04-30T12:09:54Z</time>
      </trkpt>
      <trkpt lat="43.272783039137721" lon="-8.378989035263658">
        <ele>24.170000000000002</ele>
        <time>2025-04-30T12:10:02Z</time>
      </trkpt>
      <trkpt lat="43.272495958954096" lon="-8.379220962524414">
        <ele>25.609999999999999</ele>
        <time>2025-04-30T12:10:04Z</time>
      </trkpt>
      <trkpt lat="43.272365033626556" lon="-8.379303021356463">
        <ele>27.050000000000001</ele>
        <time>2025-04-30T12:10:05Z</time>
      </trkpt>
      <trkpt lat="43.272121036425233" lon="-8.379456996917725">
        <ele>28.98</ele>
        <time>2025-04-30T12:10:07Z</time>
      </trkpt>
      <trkpt lat="43.272013999521732" lon="-8.379564033821225">
        <ele>29.940000000000001</ele>
        <time>2025-04-30T12:10:08Z</time>
      </trkpt>
      <trkpt lat="43.271926995366812" lon="-8.379709962755442">
        <ele>30.899999999999999</ele>
        <time>2025-04-30T12:10:09Z</time>
      </trkpt>
      <trkpt lat="43.271845020353794" lon="-8.379869973286986">
        <ele>31.379999999999999</ele>
        <time>2025-04-30T12:10:10Z</time>
      </trkpt>
      <trkpt lat="43.271767990663648" lon="-8.380042975768447">
        <ele>32.340000000000003</ele>
        <time>2025-04-30T12:10:11Z</time>
      </trkpt>
      <trkpt lat="43.271420979872346" lon="-8.380703972652555">
        <ele>33.780000000000001</ele>
        <time>2025-04-30T12:10:15Z</time>
      </trkpt>
      <trkpt lat="43.271329030394554" lon="-8.380844034254551">
        <ele>34.259999999999998</ele>
        <time>2025-04-30T12:10:16Z</time>
      </trkpt>
      <trkpt lat="43.271241020411253" lon="-8.380977977067232">
        <ele>34.259999999999998</ele>
        <time>2025-04-30T12:10:17Z</time>
      </trkpt>
      <trkpt lat="43.271158961579204" lon="-8.381103035062552">
        <ele>34.259999999999998</ele>
        <time>2025-04-30T12:10:18Z</time>
      </trkpt>
      <trkpt lat="43.271113028749824" lon="-8.381242007017136">
        <ele>33.780000000000001</ele>
        <time>2025-04-30T12:10:19Z</time>
      </trkpt>
      <trkpt lat="43.271113028749824" lon="-8.381388019770384">
        <ele>33.780000000000001</ele>
        <time>2025-04-30T12:10:20Z</time>
      </trkpt>
      <trkpt lat="43.271163990721107" lon="-8.381548030301929">
        <ele>32.82</ele>
        <time>2025-04-30T12:10:21Z</time>
      </trkpt>
      <trkpt lat="43.27121595852077" lon="-8.381713991984725">
        <ele>31.859999999999999</ele>
        <time>2025-04-30T12:10:22Z</time>
      </trkpt>
      <trkpt lat="43.271264992654324" lon="-8.381890011951327">
        <ele>30.899999999999999</ele>
        <time>2025-04-30T12:10:23Z</time>
      </trkpt>
      <trkpt lat="43.271277984604239" lon="-8.382077012211084">
        <ele>29.940000000000001</ele>
        <time>2025-04-30T12:10:24Z</time>
      </trkpt>
      <trkpt lat="43.271311009302735" lon="-8.382245991379023">
        <ele>28.5</ele>
        <time>2025-04-30T12:10:25Z</time>
      </trkpt>
      <trkpt lat="43.271368006244302" lon="-8.382381023839116">
        <ele>27.530000000000001</ele>
        <time>2025-04-30T12:10:26Z</time>
      </trkpt>
      <trkpt lat="43.271446963772178" lon="-8.382478002458811">
        <ele>27.050000000000001</ele>
        <time>2025-04-30T12:10:27Z</time>
      </trkpt>
      <trkpt lat="43.271548971533775" lon="-8.382548997178674">
        <ele>26.57</ele>
        <time>2025-04-30T12:10:28Z</time>
      </trkpt>
      <trkpt lat="43.27166598290205" lon="-8.38262896053493">
        <ele>26.57</ele>
        <time>2025-04-30T12:10:29Z</time>
      </trkpt>
      <trkpt lat="43.27175198122859" lon="-8.382760975509882">
        <ele>26.57</ele>
        <time>2025-04-30T12:10:30Z</time>
      </trkpt>
      <trkpt lat="43.271823981776834" lon="-8.382901037111878">
        <ele>26.57</ele>
        <time>2025-04-30T12:10:31Z</time>
      </trkpt>
      <trkpt lat="43.271840997040272" lon="-8.383070016279817">
        <ele>26.57</ele>
        <time>2025-04-30T12:10:32Z</time>
      </trkpt>
      <trkpt lat="43.271820964291692" lon="-8.3832280151546">
        <ele>26.57</ele>
        <time>2025-04-30T12:10:33Z</time>
      </trkpt>
      <trkpt lat="43.27179498039186" lon="-8.383404035121203">
        <ele>27.050000000000001</ele>
        <time>2025-04-30T12:10:34Z</time>
      </trkpt>
      <trkpt lat="43.271766984835267" lon="-8.38359204120934">
        <ele>27.050000000000001</ele>
        <time>2025-04-30T12:10:35Z</time>
      </trkpt>
      <trkpt lat="43.271747035905719" lon="-8.38378700427711">
        <ele>27.050000000000001</ele>
        <time>2025-04-30T12:10:36Z</time>
      </trkpt>
      <trkpt lat="43.271732032299042" lon="-8.383971992880106">
        <ele>27.050000000000001</ele>
        <time>2025-04-30T12:10:37Z</time>
      </trkpt>
      <trkpt lat="43.271719040349126" lon="-8.384139966219664">
        <ele>27.530000000000001</ele>
        <time>2025-04-30T12:10:38Z</time>
      </trkpt>
      <trkpt lat="43.271688027307391" lon="-8.384288996458054">
        <ele>27.530000000000001</ele>
        <time>2025-04-30T12:10:39Z</time>
      </trkpt>
      <trkpt lat="43.271618960425258" lon="-8.384418999776244">
        <ele>27.530000000000001</ele>
        <time>2025-04-30T12:10:40Z</time>
      </trkpt>
      <trkpt lat="43.271530028432608" lon="-8.384545985609293">
        <ele>28.02</ele>
        <time>2025-04-30T12:10:41Z</time>
      </trkpt>
      <trkpt lat="43.271463979035616" lon="-8.384678000584245">
        <ele>28.02</ele>
        <time>2025-04-30T12:10:42Z</time>
      </trkpt>
      <trkpt lat="43.271401030942798" lon="-8.384806998074055">
        <ele>28.02</ele>
        <time>2025-04-30T12:10:43Z</time>
      </trkpt>
      <trkpt lat="43.27134202234447" lon="-8.384940018877387">
        <ele>28.02</ele>
        <time>2025-04-30T12:10:44Z</time>
      </trkpt>
      <trkpt lat="43.270448008552194" lon="-8.38677397929132">
        <ele>30.420000000000002</ele>
        <time>2025-04-30T12:10:57Z</time>
      </trkpt>
      <trkpt lat="43.269560029730201" lon="-8.38795498944819">
        <ele>27.530000000000001</ele>
        <time>2025-04-30T12:11:06Z</time>
      </trkpt>
      <trkpt lat="43.269219975918531" lon="-8.388381041586399">
        <ele>26.09</ele>
        <time>2025-04-30T12:11:09Z</time>
      </trkpt>
      <trkpt lat="43.269119979813695" lon="-8.388538034632802">
        <ele>26.09</ele>
        <time>2025-04-30T12:11:10Z</time>
      </trkpt>
      <trkpt lat="43.269055020064116" lon="-8.38872897438705">
        <ele>26.09</ele>
        <time>2025-04-30T12:11:11Z</time>
      </trkpt>
      <trkpt lat="43.26899902895093" lon="-8.388936007395387">
        <ele>26.09</ele>
        <time>2025-04-30T12:11:12Z</time>
      </trkpt>
      <trkpt lat="43.268942032009363" lon="-8.389146979898214">
        <ele>26.09</ele>
        <time>2025-04-30T12:11:13Z</time>
      </trkpt>
      <trkpt lat="43.268881011754274" lon="-8.38937102816999">
        <ele>26.09</ele>
        <time>2025-04-30T12:11:14Z</time>
      </trkpt>
      <trkpt lat="43.268764000386" lon="-8.389520980417728">
        <ele>26.57</ele>
        <time>2025-04-30T12:11:15Z</time>
      </trkpt>
      <trkpt lat="43.268617987632751" lon="-8.389650983735919">
        <ele>27.050000000000001</ele>
        <time>2025-04-30T12:11:16Z</time>
      </trkpt>
      <trkpt lat="43.268452025949955" lon="-8.389777969568968">
        <ele>27.530000000000001</ele>
        <time>2025-04-30T12:11:17Z</time>
      </trkpt>
      <trkpt lat="43.268277011811733" lon="-8.389879977330566">
        <ele>28.02</ele>
        <time>2025-04-30T12:11:18Z</time>
      </trkpt>
      <trkpt lat="43.266412038356066" lon="-8.39107096195221">
        <ele>34.259999999999998</ele>
        <time>2025-04-30T12:11:28Z</time>
      </trkpt>
      <trkpt lat="43.264829032123089" lon="-8.392044017091394">
        <ele>40.990000000000002</ele>
        <time>2025-04-30T12:11:37Z</time>
      </trkpt>
      <trkpt lat="43.264490989968181" lon="-8.392292959615588">
        <ele>42.439999999999998</ele>
        <time>2025-04-30T12:11:40Z</time>
      </trkpt>
      <trkpt lat="43.264375990256667" lon="-8.392387004569173">
        <ele>42.439999999999998</ele>
        <time>2025-04-30T12:11:41Z</time>
      </trkpt>
      <trkpt lat="43.263361025601625" lon="-8.393280012533069">
        <ele>42.920000000000002</ele>
        <time>2025-04-30T12:11:48Z</time>
      </trkpt>
      <trkpt lat="43.262418983504176" lon="-8.394141001626849">
        <ele>45.32</ele>
        <time>2025-04-30T12:11:54Z</time>
      </trkpt>
      <trkpt lat="43.262310018762946" lon="-8.394289026036859">
        <ele>45.32</ele>
        <time>2025-04-30T12:11:55Z</time>
      </trkpt>
      <trkpt lat="43.262217985466123" lon="-8.394458005204797">
        <ele>45.799999999999997</ele>
        <time>2025-04-30T12:11:56Z</time>
      </trkpt>
      <trkpt lat="43.261666959151626" lon="-8.395557040348649">
        <ele>47.240000000000002</ele>
        <time>2025-04-30T12:12:02Z</time>
      </trkpt>
      <trkpt lat="43.261556988582015" lon="-8.395707998424768">
        <ele>47.719999999999999</ele>
        <time>2025-04-30T12:12:03Z</time>
      </trkpt>
      <trkpt lat="43.261433020234108" lon="-8.395842025056481">
        <ele>47.719999999999999</ele>
        <time>2025-04-30T12:12:04Z</time>
      </trkpt>
      <trkpt lat="43.260933039709926" lon="-8.396305963397026">
        <ele>49.159999999999997</ele>
        <time>2025-04-30T12:12:08Z</time>
      </trkpt>
      <trkpt lat="43.260838994756341" lon="-8.396467985585332">
        <ele>50.130000000000003</ele>
        <time>2025-04-30T12:12:09Z</time>
      </trkpt>
      <trkpt lat="43.260746039450169" lon="-8.396630007773638">
        <ele>51.090000000000003</ele>
        <time>2025-04-30T12:12:10Z</time>
      </trkpt>
      <trkpt lat="43.260443033650517" lon="-8.397108027711511">
        <ele>53.490000000000002</ele>
        <time>2025-04-30T12:12:13Z</time>
      </trkpt>
      <trkpt lat="43.260315963998437" lon="-8.397250017151237">
        <ele>54.450000000000003</ele>
        <time>2025-04-30T12:12:14Z</time>
      </trkpt>
      <trkpt lat="43.259222963824868" lon="-8.398168003186584">
        <ele>58.299999999999997</ele>
        <time>2025-04-30T12:12:21Z</time>
      </trkpt>
      <trkpt lat="43.258956000208855" lon="-8.398332037031651">
        <ele>59.740000000000002</ele>
        <time>2025-04-30T12:12:23Z</time>
      </trkpt>
      <trkpt lat="43.258719965815544" lon="-8.398490035906434">
        <ele>60.219999999999999</ele>
        <time>2025-04-30T12:12:25Z</time>
      </trkpt>
      <trkpt lat="43.258598009124398" lon="-8.398576034232974">
        <ele>60.219999999999999</ele>
        <time>2025-04-30T12:12:26Z</time>
      </trkpt>
      <trkpt lat="43.258488960564137" lon="-8.398680975660682">
        <ele>60.700000000000003</ele>
        <time>2025-04-30T12:12:27Z</time>
      </trkpt>
      <trkpt lat="43.257643980905414" lon="-8.399912025779486">
        <ele>60.219999999999999</ele>
        <time>2025-04-30T12:12:35Z</time>
      </trkpt>
      <trkpt lat="43.257525963708758" lon="-8.400229029357433">
        <ele>60.700000000000003</ele>
        <time>2025-04-30T12:12:37Z</time>
      </trkpt>
      <trkpt lat="43.257469972595572" lon="-8.400379987433553">
        <ele>61.18</ele>
        <time>2025-04-30T12:12:38Z</time>
      </trkpt>
      <trkpt lat="43.257409958168864" lon="-8.400518959388137">
        <ele>61.659999999999997</ele>
        <time>2025-04-30T12:12:39Z</time>
      </trkpt>
      <trkpt lat="43.257309962064028" lon="-8.400608981028199">
        <ele>62.140000000000001</ele>
        <time>2025-04-30T12:12:40Z</time>
      </trkpt>
      <trkpt lat="43.257206026464701" lon="-8.400702020153403">
        <ele>62.619999999999997</ele>
        <time>2025-04-30T12:12:41Z</time>
      </trkpt>
      <trkpt lat="43.256567995995283" lon="-8.401395035907626">
        <ele>64.069999999999993</ele>
        <time>2025-04-30T12:12:47Z</time>
      </trkpt>
      <trkpt lat="43.256268007680774" lon="-8.40179099701345">
        <ele>64.069999999999993</ele>
        <time>2025-04-30T12:12:50Z</time>
      </trkpt>
      <trkpt lat="43.256150996312499" lon="-8.40187699533999">
        <ele>64.069999999999993</ele>
        <time>2025-04-30T12:12:51Z</time>
      </trkpt>
      <trkpt lat="43.256027027964592" lon="-8.401968022808433">
        <ele>64.549999999999997</ele>
        <time>2025-04-30T12:12:52Z</time>
      </trkpt>
      <trkpt lat="43.255899958312511" lon="-8.40204899199307">
        <ele>64.549999999999997</ele>
        <time>2025-04-30T12:12:53Z</time>
      </trkpt>
      <trkpt lat="43.255755035206676" lon="-8.402114035561681">
        <ele>65.030000000000001</ele>
        <time>2025-04-30T12:12:54Z</time>
      </trkpt>
      <trkpt lat="43.254488026723266" lon="-8.402861030772328">
        <ele>67.909999999999997</ele>
        <time>2025-04-30T12:13:02Z</time>
      </trkpt>
      <trkpt lat="43.253614967688918" lon="-8.403579024598002">
        <ele>70.310000000000002</ele>
        <time>2025-04-30T12:13:09Z</time>
      </trkpt>
      <trkpt lat="43.253003004938364" lon="-8.40409099124372">
        <ele>72.239999999999995</ele>
        <time>2025-04-30T12:13:14Z</time>
      </trkpt>
      <trkpt lat="43.252911977469921" lon="-8.404217977076769">
        <ele>72.719999999999999</ele>
        <time>2025-04-30T12:13:15Z</time>
      </trkpt>
      <trkpt lat="43.252809969708323" lon="-8.404352003708482">
        <ele>72.719999999999999</ele>
        <time>2025-04-30T12:13:16Z</time>
      </trkpt>
      <trkpt lat="43.251835992559791" lon="-8.405777011066675">
        <ele>73.680000000000007</ele>
        <time>2025-04-30T12:13:26Z</time>
      </trkpt>
      <trkpt lat="43.251111963763833" lon="-8.406554013490677">
        <ele>73.200000000000003</ele>
        <time>2025-04-30T12:13:33Z</time>
      </trkpt>
      <trkpt lat="43.250611983239651" lon="-8.406865987926722">
        <ele>74.640000000000001</ele>
        <time>2025-04-30T12:13:37Z</time>
      </trkpt>
      <trkpt lat="43.25037301518023" lon="-8.40697000734508">
        <ele>75.120000000000005</ele>
        <time>2025-04-30T12:13:39Z</time>
      </trkpt>
      <trkpt lat="43.250013012439013" lon="-8.407090958207846">
        <ele>77.040000000000006</ele>
        <time>2025-04-30T12:13:42Z</time>
      </trkpt>
      <trkpt lat="43.249903963878751" lon="-8.407158013433218">
        <ele>78</ele>
        <time>2025-04-30T12:13:43Z</time>
      </trkpt>
      <trkpt lat="43.249796004965901" lon="-8.407223979011178">
        <ele>78.969999999999999</ele>
        <time>2025-04-30T12:13:44Z</time>
      </trkpt>
      <trkpt lat="43.249716963618994" lon="-8.40731299482286">
        <ele>79.450000000000003</ele>
        <time>2025-04-30T12:13:45Z</time>
      </trkpt>
      <trkpt lat="43.249657033011317" lon="-8.407404022291303">
        <ele>80.409999999999997</ele>
        <time>2025-04-30T12:13:46Z</time>
      </trkpt>
      <trkpt lat="43.249633982777596" lon="-8.407496977597475">
        <ele>81.370000000000005</ele>
        <time>2025-04-30T12:13:47Z</time>
      </trkpt>
      <trkpt lat="43.249633982777596" lon="-8.407616000622511">
        <ele>81.370000000000005</ele>
        <time>2025-04-30T12:13:48Z</time>
      </trkpt>
      <trkpt lat="43.249654015526175" lon="-8.40774298645556">
        <ele>81.849999999999994</ele>
        <time>2025-04-30T12:13:49Z</time>
      </trkpt>
      <trkpt lat="43.24968796223402" lon="-8.40789201669395">
        <ele>81.370000000000005</ele>
        <time>2025-04-30T12:13:50Z</time>
      </trkpt>
      <trkpt lat="43.249724004417658" lon="-8.408050015568733">
        <ele>80.890000000000001</ele>
        <time>2025-04-30T12:13:51Z</time>
      </trkpt>
      <trkpt lat="43.249783013015985" lon="-8.408201979473233">
        <ele>80.890000000000001</ele>
        <time>2025-04-30T12:13:52Z</time>
      </trkpt>
      <trkpt lat="43.24985702522099" lon="-8.408339023590088">
        <ele>80.409999999999997</ele>
        <time>2025-04-30T12:13:53Z</time>
      </trkpt>
      <trkpt lat="43.249948974698782" lon="-8.40847103856504">
        <ele>79.930000000000007</ele>
        <time>2025-04-30T12:13:54Z</time>
      </trkpt>
      <trkpt lat="43.250048970803618" lon="-8.408586960285902">
        <ele>79.450000000000003</ele>
        <time>2025-04-30T12:13:55Z</time>
      </trkpt>
      <trkpt lat="43.250144021585584" lon="-8.408699026331306">
        <ele>78.969999999999999</ele>
        <time>2025-04-30T12:13:56Z</time>
      </trkpt>
      <trkpt lat="43.250195989385247" lon="-8.408845039084554">
        <ele>78.480000000000004</ele>
        <time>2025-04-30T12:13:57Z</time>
      </trkpt>
      <trkpt lat="43.250234965234995" lon="-8.408989040181041">
        <ele>77.519999999999996</ele>
        <time>2025-04-30T12:13:58Z</time>
      </trkpt>
      <trkpt lat="43.250234965234995" lon="-8.409166987985373">
        <ele>76.079999999999998</ele>
        <time>2025-04-30T12:13:59Z</time>
      </trkpt>
      <trkpt lat="43.250230019912124" lon="-8.409348037093878">
        <ele>75.120000000000005</ele>
        <time>2025-04-30T12:14:00Z</time>
      </trkpt>
      <trkpt lat="43.250190038233995" lon="-8.409532019868493">
        <ele>74.159999999999997</ele>
        <time>2025-04-30T12:14:01Z</time>
      </trkpt>
      <trkpt lat="43.250148966908455" lon="-8.40971902012825">
        <ele>73.200000000000003</ele>
        <time>2025-04-30T12:14:02Z</time>
      </trkpt>
      <trkpt lat="43.25009398162365" lon="-8.409886993467808">
        <ele>72.719999999999999</ele>
        <time>2025-04-30T12:14:03Z</time>
      </trkpt>
      <trkpt lat="43.250013012439013" lon="-8.410039963200688">
        <ele>71.760000000000005</ele>
        <time>2025-04-30T12:14:04Z</time>
      </trkpt>
      <trkpt lat="43.249897006899118" lon="-8.410143982619047">
        <ele>71.269999999999996</ele>
        <time>2025-04-30T12:14:05Z</time>
      </trkpt>
      <trkpt lat="43.249760968610644" lon="-8.410238027572632">
        <ele>70.790000000000006</ele>
        <time>2025-04-30T12:14:06Z</time>
      </trkpt>
      <trkpt lat="43.249615039676428" lon="-8.410307010635734">
        <ele>69.829999999999998</ele>
        <time>2025-04-30T12:14:07Z</time>
      </trkpt>
      <trkpt lat="43.249339023604989" lon="-8.410440031439066">
        <ele>68.870000000000005</ele>
        <time>2025-04-30T12:14:09Z</time>
      </trkpt>
      <trkpt lat="43.249244978651404" lon="-8.410531980916858">
        <ele>67.909999999999997</ele>
        <time>2025-04-30T12:14:10Z</time>
      </trkpt>
      <trkpt lat="43.249161997810006" lon="-8.410657038912177">
        <ele>66.950000000000003</ele>
        <time>2025-04-30T12:14:11Z</time>
      </trkpt>
      <trkpt lat="43.24912503361702" lon="-8.410802967846394">
        <ele>66.469999999999999</ele>
        <time>2025-04-30T12:14:12Z</time>
      </trkpt>
      <trkpt lat="43.249103995040059" lon="-8.410951998084784">
        <ele>65.510000000000005</ele>
        <time>2025-04-30T12:14:13Z</time>
      </trkpt>
      <trkpt lat="43.249140037223697" lon="-8.411172023043037">
        <ele>65.030000000000001</ele>
        <time>2025-04-30T12:14:14Z</time>
      </trkpt>
      <trkpt lat="43.249196028336883" lon="-8.411284005269408">
        <ele>64.549999999999997</ele>
        <time>2025-04-30T12:14:15Z</time>
      </trkpt>
      <trkpt lat="43.249284960329533" lon="-8.411443009972572">
        <ele>64.549999999999997</ele>
        <time>2025-04-30T12:14:16Z</time>
      </trkpt>
      <trkpt lat="43.249385040253401" lon="-8.411595979705453">
        <ele>64.549999999999997</ele>
        <time>2025-04-30T12:14:17Z</time>
      </trkpt>
      <trkpt lat="43.250494971871376" lon="-8.413269007578492">
        <ele>68.390000000000001</ele>
        <time>2025-04-30T12:14:28Z</time>
      </trkpt>
      <trkpt lat="43.250968968495727" lon="-8.414077023044229">
        <ele>70.790000000000006</ele>
        <time>2025-04-30T12:14:33Z</time>
      </trkpt>
      <trkpt lat="43.251012973487377" lon="-8.41425103135407">
        <ele>70.790000000000006</ele>
        <time>2025-04-30T12:14:34Z</time>
      </trkpt>
      <trkpt lat="43.251047004014254" lon="-8.414438031613827">
        <ele>70.790000000000006</ele>
        <time>2025-04-30T12:14:35Z</time>
      </trkpt>
      <trkpt lat="43.251222018152475" lon="-8.416734002530575">
        <ele>66.950000000000003</ele>
        <time>2025-04-30T12:14:46Z</time>
      </trkpt>
      <trkpt lat="43.251285972073674" lon="-8.417559033259749">
        <ele>65.030000000000001</ele>
        <time>2025-04-30T12:14:50Z</time>
      </trkpt>
      <trkpt lat="43.251257976517081" lon="-8.417733963578939">
        <ele>65.030000000000001</ele>
        <time>2025-04-30T12:14:51Z</time>
      </trkpt>
      <trkpt lat="43.251197040081024" lon="-8.417891040444374">
        <ele>64.549999999999997</ele>
        <time>2025-04-30T12:14:52Z</time>
      </trkpt>
      <trkpt lat="43.250862015411258" lon="-8.418591013178229">
        <ele>63.100000000000001</ele>
        <time>2025-04-30T12:14:56Z</time>
      </trkpt>
      <trkpt lat="43.249926008284092" lon="-8.420690009370446">
        <ele>71.760000000000005</ele>
        <time>2025-04-30T12:15:07Z</time>
      </trkpt>
      <trkpt lat="43.249136013910174" lon="-8.422483988106251">
        <ele>82.329999999999998</ele>
        <time>2025-04-30T12:15:15Z</time>
      </trkpt>
      <trkpt lat="43.248882964253426" lon="-8.423115983605385">
        <ele>85.209999999999994</ele>
        <time>2025-04-30T12:15:18Z</time>
      </trkpt>
      <trkpt lat="43.248882964253426" lon="-8.423312036320567">
        <ele>86.659999999999997</ele>
        <time>2025-04-30T12:15:19Z</time>
      </trkpt>
      <trkpt lat="43.248907020315528" lon="-8.423501970246434">
        <ele>88.099999999999994</ele>
        <time>2025-04-30T12:15:20Z</time>
      </trkpt>
      <trkpt lat="43.248968040570617" lon="-8.423875970765948">
        <ele>90.019999999999996</ele>
        <time>2025-04-30T12:15:22Z</time>
      </trkpt>
      <trkpt lat="43.248947001993656" lon="-8.424089038744569">
        <ele>90.5</ele>
        <time>2025-04-30T12:15:23Z</time>
      </trkpt>
      <trkpt lat="43.248880030587316" lon="-8.424249971285462">
        <ele>90.980000000000004</ele>
        <time>2025-04-30T12:15:24Z</time>
      </trkpt>
      <trkpt lat="43.248797971755266" lon="-8.424444012343884">
        <ele>91.459999999999994</ele>
        <time>2025-04-30T12:15:25Z</time>
      </trkpt>
      <trkpt lat="43.248710967600346" lon="-8.424650961533189">
        <ele>92.420000000000002</ele>
        <time>2025-04-30T12:15:26Z</time>
      </trkpt>
      <trkpt lat="43.248140998184681" lon="-8.426159033551812">
        <ele>100.11</ele>
        <time>2025-04-30T12:15:33Z</time>
      </trkpt>
      <trkpt lat="43.24807696044445" lon="-8.426391966640949">
        <ele>101.08</ele>
        <time>2025-04-30T12:15:34Z</time>
      </trkpt>
      <trkpt lat="43.248077966272831" lon="-8.426638981327415">
        <ele>102.04000000000001</ele>
        <time>2025-04-30T12:15:35Z</time>
      </trkpt>
      <trkpt lat="43.248103028163314" lon="-8.42688599601388">
        <ele>103.48</ele>
        <time>2025-04-30T12:15:36Z</time>
      </trkpt>
      <trkpt lat="43.248169999569654" lon="-8.427126975730062">
        <ele>105.40000000000001</ele>
        <time>2025-04-30T12:15:37Z</time>
      </trkpt>
      <trkpt lat="43.248237976804376" lon="-8.427370972931385">
        <ele>106.84</ele>
        <time>2025-04-30T12:15:38Z</time>
      </trkpt>
      <trkpt lat="43.248303020372987" lon="-8.427608013153076">
        <ele>108.77</ele>
        <time>2025-04-30T12:15:39Z</time>
      </trkpt>
      <trkpt lat="43.248333027586341" lon="-8.427876988425851">
        <ele>110.20999999999999</ele>
        <time>2025-04-30T12:15:40Z</time>
      </trkpt>
      <trkpt lat="43.248329004272819" lon="-8.428134983405471">
        <ele>112.13</ele>
        <time>2025-04-30T12:15:41Z</time>
      </trkpt>
      <trkpt lat="43.248298997059464" lon="-8.42839197255671">
        <ele>113.56999999999999</ele>
        <time>2025-04-30T12:15:42Z</time>
      </trkpt>
      <trkpt lat="43.248269995674491" lon="-8.428628006950021">
        <ele>115.5</ele>
        <time>2025-04-30T12:15:43Z</time>
      </trkpt>
      <trkpt lat="43.24824501760304" lon="-8.42884199693799">
        <ele>116.94</ele>
        <time>2025-04-30T12:15:44Z</time>
      </trkpt>
      <trkpt lat="43.248221967369318" lon="-8.429031008854508">
        <ele>118.38</ele>
        <time>2025-04-30T12:15:45Z</time>
      </trkpt>
      <trkpt lat="43.248257003724575" lon="-8.429199988022447">
        <ele>119.81999999999999</ele>
        <time>2025-04-30T12:15:46Z</time>
      </trkpt>
      <trkpt lat="43.248340990394354" lon="-8.42933401465416">
        <ele>121.26000000000001</ele>
        <time>2025-04-30T12:15:47Z</time>
      </trkpt>
      <trkpt lat="43.248449033126235" lon="-8.429429987445474">
        <ele>122.70999999999999</ele>
        <time>2025-04-30T12:15:48Z</time>
      </trkpt>
      <trkpt lat="43.248581970110536" lon="-8.429525960236788">
        <ele>124.15000000000001</ele>
        <time>2025-04-30T12:15:49Z</time>
      </trkpt>
      <trkpt lat="43.248896040022373" lon="-8.429739028215408">
        <ele>127.03</ele>
        <time>2025-04-30T12:15:51Z</time>
      </trkpt>
      <trkpt lat="43.250194983556867" lon="-8.430480994284153">
        <ele>137.61000000000001</ele>
        <time>2025-04-30T12:15:58Z</time>
      </trkpt>
      <trkpt lat="43.250405034050345" lon="-8.430509995669127">
        <ele>139.53</ele>
        <time>2025-04-30T12:15:59Z</time>
      </trkpt>
      <trkpt lat="43.251235010102391" lon="-8.430626001209021">
        <ele>145.78</ele>
        <time>2025-04-30T12:16:03Z</time>
      </trkpt>
      <trkpt lat="43.251398960128427" lon="-8.430690038949251">
        <ele>147.22</ele>
        <time>2025-04-30T12:16:04Z</time>
      </trkpt>
      <trkpt lat="43.251540027558804" lon="-8.430788023397327">
        <ele>148.66</ele>
        <time>2025-04-30T12:16:05Z</time>
      </trkpt>
      <trkpt lat="43.251715041697025" lon="-8.430934036150575">
        <ele>149.62</ele>
        <time>2025-04-30T12:16:06Z</time>
      </trkpt>
      <trkpt lat="43.251807997003198" lon="-8.431068984791637">
        <ele>150.58000000000001</ele>
        <time>2025-04-30T12:16:07Z</time>
      </trkpt>
      <trkpt lat="43.252149978652596" lon="-8.431674996390939">
        <ele>154.91</ele>
        <time>2025-04-30T12:16:10Z</time>
      </trkpt>
      <trkpt lat="43.252241006121039" lon="-8.431897033005953">
        <ele>156.34999999999999</ele>
        <time>2025-04-30T12:16:11Z</time>
      </trkpt>
      <trkpt lat="43.252318035811186" lon="-8.432143963873386">
        <ele>157.31</ele>
        <time>2025-04-30T12:16:12Z</time>
      </trkpt>
      <trkpt lat="43.2526920363307" lon="-8.433347018435597">
        <ele>164.03999999999999</ele>
        <time>2025-04-30T12:16:17Z</time>
      </trkpt>
      <trkpt lat="43.252702010795474" lon="-8.433555979281664">
        <ele>165.47999999999999</ele>
        <time>2025-04-30T12:16:18Z</time>
      </trkpt>
      <trkpt lat="43.252674015238881" lon="-8.433742979541421">
        <ele>165.96000000000001</ele>
        <time>2025-04-30T12:16:19Z</time>
      </trkpt>
      <trkpt lat="43.252616012468934" lon="-8.433916987851262">
        <ele>166.93000000000001</ele>
        <time>2025-04-30T12:16:20Z</time>
      </trkpt>
      <trkpt lat="43.252506041899323" lon="-8.434026958420873">
        <ele>167.88999999999999</ele>
        <time>2025-04-30T12:16:21Z</time>
      </trkpt>
      <trkpt lat="43.252374026924372" lon="-8.434158973395824">
        <ele>168.84999999999999</ele>
        <time>2025-04-30T12:16:22Z</time>
      </trkpt>
      <trkpt lat="43.252233965322375" lon="-8.434299034997821">
        <ele>169.81</ele>
        <time>2025-04-30T12:16:23Z</time>
      </trkpt>
      <trkpt lat="43.251934982836246" lon="-8.43459801748395">
        <ele>171.25</ele>
        <time>2025-04-30T12:16:25Z</time>
      </trkpt>
      <trkpt lat="43.251811014488339" lon="-8.434789963066578">
        <ele>172.21000000000001</ele>
        <time>2025-04-30T12:16:26Z</time>
      </trkpt>
      <trkpt lat="43.251697020605206" lon="-8.435005964711309">
        <ele>173.66</ele>
        <time>2025-04-30T12:16:27Z</time>
      </trkpt>
      <trkpt lat="43.251106012612581" lon="-8.436442958191037">
        <ele>180.38</ele>
        <time>2025-04-30T12:16:33Z</time>
      </trkpt>
      <trkpt lat="43.250984977930784" lon="-8.436613027006388">
        <ele>181.34999999999999</ele>
        <time>2025-04-30T12:16:34Z</time>
      </trkpt>
      <trkpt lat="43.250593962147832" lon="-8.437099009752274">
        <ele>183.75</ele>
        <time>2025-04-30T12:16:37Z</time>
      </trkpt>
      <trkpt lat="43.250492038205266" lon="-8.437286010012031">
        <ele>184.22999999999999</ele>
        <time>2025-04-30T12:16:38Z</time>
      </trkpt>
      <trkpt lat="43.250430012121797" lon="-8.437502011656761">
        <ele>184.22999999999999</ele>
        <time>2025-04-30T12:16:39Z</time>
      </trkpt>
      <trkpt lat="43.250417020171881" lon="-8.437673002481461">
        <ele>184.22999999999999</ele>
        <time>2025-04-30T12:16:40Z</time>
      </trkpt>
      <trkpt lat="43.250440992414951" lon="-8.437861008569598">
        <ele>184.71000000000001</ele>
        <time>2025-04-30T12:16:41Z</time>
      </trkpt>
      <trkpt lat="43.250488014891744" lon="-8.438008027151227">
        <ele>185.19</ele>
        <time>2025-04-30T12:16:42Z</time>
      </trkpt>
      <trkpt lat="43.250581976026297" lon="-8.438194021582604">
        <ele>185.66999999999999</ele>
        <time>2025-04-30T12:16:43Z</time>
      </trkpt>
      <trkpt lat="43.250688007101417" lon="-8.438405999913812">
        <ele>186.63</ele>
        <time>2025-04-30T12:16:44Z</time>
      </trkpt>
      <trkpt lat="43.250793032348156" lon="-8.438616972416639">
        <ele>187.59</ele>
        <time>2025-04-30T12:16:45Z</time>
      </trkpt>
      <trkpt lat="43.250876013189554" lon="-8.438845966011286">
        <ele>188.08000000000001</ele>
        <time>2025-04-30T12:16:46Z</time>
      </trkpt>
      <trkpt lat="43.250890010967851" lon="-8.439109995961189">
        <ele>188.08000000000001</ele>
        <time>2025-04-30T12:16:47Z</time>
      </trkpt>
      <trkpt lat="43.250878024846315" lon="-8.43934996984899">
        <ele>188.56</ele>
        <time>2025-04-30T12:16:48Z</time>
      </trkpt>
      <trkpt lat="43.250865032896399" lon="-8.439602013677359">
        <ele>189.03999999999999</ele>
        <time>2025-04-30T12:16:49Z</time>
      </trkpt>
      <trkpt lat="43.250861009582877" lon="-8.439864031970501">
        <ele>190</ele>
        <time>2025-04-30T12:16:50Z</time>
      </trkpt>
      <trkpt lat="43.250869978219271" lon="-8.440135018900037">
        <ele>190.96000000000001</ele>
        <time>2025-04-30T12:16:51Z</time>
      </trkpt>
      <trkpt lat="43.250858997926116" lon="-8.440848989412189">
        <ele>194.80000000000001</ele>
        <time>2025-04-30T12:16:54Z</time>
      </trkpt>
      <trkpt lat="43.250811975449324" lon="-8.441035989671946">
        <ele>195.77000000000001</ele>
        <time>2025-04-30T12:16:55Z</time>
      </trkpt>
      <trkpt lat="43.250755984336138" lon="-8.441221984103322">
        <ele>196.72999999999999</ele>
        <time>2025-04-30T12:16:56Z</time>
      </trkpt>
      <trkpt lat="43.250491032376885" lon="-8.442164026200771">
        <ele>202.00999999999999</ele>
        <time>2025-04-30T12:17:01Z</time>
      </trkpt>
      <trkpt lat="43.250449961051345" lon="-8.442365024238825">
        <ele>202.49000000000001</ele>
        <time>2025-04-30T12:17:02Z</time>
      </trkpt>
      <trkpt lat="43.250457001850009" lon="-8.442555963993073">
        <ele>202.49000000000001</ele>
        <time>2025-04-30T12:17:03Z</time>
      </trkpt>
      <trkpt lat="43.250463036820292" lon="-8.442713962867856">
        <ele>202.49000000000001</ele>
        <time>2025-04-30T12:17:04Z</time>
      </trkpt>
      <trkpt lat="43.250467982143164" lon="-8.44282896257937">
        <ele>202.00999999999999</ele>
        <time>2025-04-30T12:17:05Z</time>
      </trkpt>
      <trkpt lat="43.250475022941828" lon="-8.442896017804742">
        <ele>202.00999999999999</ele>
        <time>2025-04-30T12:17:06Z</time>
      </trkpt>
      <trkpt lat="43.250492960214615" lon="-8.442941028624773">
        <ele>201.53</ele>
        <time>2025-04-30T12:17:07Z</time>
      </trkpt>
      <trkpt lat="43.250503018498421" lon="-8.442966006696224">
        <ele>201.53</ele>
        <time>2025-04-30T12:17:08Z</time>
      </trkpt>
      <trkpt lat="43.250538976863027" lon="-8.443057034164667">
        <ele>202.00999999999999</ele>
        <time>2025-04-30T12:17:18Z</time>
      </trkpt>
      <trkpt lat="43.25054501183331" lon="-8.443140015006065">
        <ele>202.00999999999999</ele>
        <time>2025-04-30T12:17:19Z</time>
      </trkpt>
      <trkpt lat="43.250515004619956" lon="-8.443234981968999">
        <ele>202.00999999999999</ele>
        <time>2025-04-30T12:17:20Z</time>
      </trkpt>
      <trkpt lat="43.250195989385247" lon="-8.444238966330886">
        <ele>202.49000000000001</ele>
        <time>2025-04-30T12:17:26Z</time>
      </trkpt>
      <trkpt lat="43.249687040224671" lon="-8.445848962292075">
        <ele>205.38</ele>
        <time>2025-04-30T12:17:32Z</time>
      </trkpt>
      <trkpt lat="43.248914983123541" lon="-8.448278959840536">
        <ele>221.72</ele>
        <time>2025-04-30T12:17:39Z</time>
      </trkpt>
      <trkpt lat="43.247820977121592" lon="-8.451230982318521">
        <ele>245.75</ele>
        <time>2025-04-30T12:17:49Z</time>
      </trkpt>
      <trkpt lat="43.247499028220773" lon="-8.451712019741535">
        <ele>250.56</ele>
        <time>2025-04-30T12:17:51Z</time>
      </trkpt>
      <trkpt lat="43.247326025739312" lon="-8.451923998072743">
        <ele>252.96000000000001</ele>
        <time>2025-04-30T12:17:52Z</time>
      </trkpt>
      <trkpt lat="43.245963966473937" lon="-8.452938962727785">
        <ele>267.86000000000001</ele>
        <time>2025-04-30T12:17:59Z</time>
      </trkpt>
      <trkpt lat="43.24438096024096" lon="-8.453928027302027">
        <ele>280.83999999999997</ele>
        <time>2025-04-30T12:18:07Z</time>
      </trkpt>
      <trkpt lat="43.244202006608248" lon="-8.454100023955107">
        <ele>281.80000000000001</ele>
        <time>2025-04-30T12:18:08Z</time>
      </trkpt>
      <trkpt lat="43.244021963328123" lon="-8.454271014779806">
        <ele>282.76999999999998</ele>
        <time>2025-04-30T12:18:09Z</time>
      </trkpt>
      <trkpt lat="43.243872011080384" lon="-8.454488022252917">
        <ele>283.25</ele>
        <time>2025-04-30T12:18:10Z</time>
      </trkpt>
      <trkpt lat="43.243723986670375" lon="-8.454721039161086">
        <ele>283.25</ele>
        <time>2025-04-30T12:18:11Z</time>
      </trkpt>
      <trkpt lat="43.242090018466115" lon="-8.457436021417379">
        <ele>277.48000000000002</ele>
        <time>2025-04-30T12:18:22Z</time>
      </trkpt>
      <trkpt lat="43.240011977031827" lon="-8.46093999221921">
        <ele>265.94</ele>
        <time>2025-04-30T12:18:37Z</time>
      </trkpt>
      <trkpt lat="43.238696018233895" lon="-8.463038988411427">
        <ele>260.17000000000002</ele>
        <time>2025-04-30T12:18:46Z</time>
      </trkpt>
      <trkpt lat="43.238511029630899" lon="-8.463233029469848">
        <ele>260.17000000000002</ele>
        <time>2025-04-30T12:18:47Z</time>
      </trkpt>
      <trkpt lat="43.238313971087337" lon="-8.46341198310256">
        <ele>259.69</ele>
        <time>2025-04-30T12:18:48Z</time>
      </trkpt>
      <trkpt lat="43.238093024119735" lon="-8.463533017784357">
        <ele>259.69</ele>
        <time>2025-04-30T12:18:49Z</time>
      </trkpt>
      <trkpt lat="43.237866964191198" lon="-8.463652962818742">
        <ele>259.20999999999998</ele>
        <time>2025-04-30T12:18:50Z</time>
      </trkpt>
      <trkpt lat="43.237639982253313" lon="-8.463773997500539">
        <ele>259.20999999999998</ele>
        <time>2025-04-30T12:18:51Z</time>
      </trkpt>
      <trkpt lat="43.237407971173525" lon="-8.463861001655459">
        <ele>258.73000000000002</ele>
        <time>2025-04-30T12:18:52Z</time>
      </trkpt>
      <trkpt lat="43.235205039381981" lon="-8.464711010456085">
        <ele>261.13999999999999</ele>
        <time>2025-04-30T12:19:02Z</time>
      </trkpt>
      <trkpt lat="43.234054958447814" lon="-8.465234963223338">
        <ele>265.94</ele>
        <time>2025-04-30T12:19:08Z</time>
      </trkpt>
      <trkpt lat="43.233884973451495" lon="-8.465392040088773">
        <ele>266.89999999999998</ele>
        <time>2025-04-30T12:19:09Z</time>
      </trkpt>
      <trkpt lat="43.233714988455176" lon="-8.465548027306795">
        <ele>267.86000000000001</ele>
        <time>2025-04-30T12:19:10Z</time>
      </trkpt>
      <trkpt lat="43.232694994658232" lon="-8.467071019113064">
        <ele>274.11000000000001</ele>
        <time>2025-04-30T12:19:17Z</time>
      </trkpt>
      <trkpt lat="43.232378996908665" lon="-8.467507967725396">
        <ele>276.04000000000002</ele>
        <time>2025-04-30T12:19:19Z</time>
      </trkpt>
      <trkpt lat="43.232200965285301" lon="-8.467696979641914">
        <ele>277.48000000000002</ele>
        <time>2025-04-30T12:19:20Z</time>
      </trkpt>
      <trkpt lat="43.232004996389151" lon="-8.467846009880304">
        <ele>278.44</ele>
        <time>2025-04-30T12:19:21Z</time>
      </trkpt>
      <trkpt lat="43.231797963380814" lon="-8.467980036512017">
        <ele>279.39999999999998</ele>
        <time>2025-04-30T12:19:22Z</time>
      </trkpt>
      <trkpt lat="43.231587996706367" lon="-8.468114985153079">
        <ele>280.36000000000001</ele>
        <time>2025-04-30T12:19:23Z</time>
      </trkpt>
      <trkpt lat="43.231373000890017" lon="-8.468216992914677">
        <ele>281.31999999999999</ele>
        <time>2025-04-30T12:19:24Z</time>
      </trkpt>
      <trkpt lat="43.231145013123751" lon="-8.468284970149398">
        <ele>282.27999999999997</ele>
        <time>2025-04-30T12:19:25Z</time>
      </trkpt>
      <trkpt lat="43.230917025357485" lon="-8.468322018161416">
        <ele>283.73000000000002</ele>
        <time>2025-04-30T12:19:26Z</time>
      </trkpt>
      <trkpt lat="43.230684008449316" lon="-8.468328975141048">
        <ele>284.69</ele>
        <time>2025-04-30T12:19:27Z</time>
      </trkpt>
      <trkpt lat="43.230447974056005" lon="-8.468296034261584">
        <ele>285.64999999999998</ele>
        <time>2025-04-30T12:19:28Z</time>
      </trkpt>
      <trkpt lat="43.230213029310107" lon="-8.468250017613173">
        <ele>286.61000000000001</ele>
        <time>2025-04-30T12:19:29Z</time>
      </trkpt>
      <trkpt lat="43.229987975209951" lon="-8.468144992366433">
        <ele>287.56999999999999</ele>
        <time>2025-04-30T12:19:30Z</time>
      </trkpt>
      <trkpt lat="43.229757975786924" lon="-8.468037033453584">
        <ele>288.05000000000001</ele>
        <time>2025-04-30T12:19:31Z</time>
      </trkpt>
      <trkpt lat="43.229539040476084" lon="-8.467903006821871">
        <ele>288.52999999999997</ele>
        <time>2025-04-30T12:19:32Z</time>
      </trkpt>
      <trkpt lat="43.229332007467747" lon="-8.467717012390494">
        <ele>289.49000000000001</ele>
        <time>2025-04-30T12:19:33Z</time>
      </trkpt>
      <trkpt lat="43.229132015258074" lon="-8.467518026009202">
        <ele>289.97000000000003</ele>
        <time>2025-04-30T12:19:34Z</time>
      </trkpt>
      <trkpt lat="43.228945014998317" lon="-8.467284003272653">
        <ele>290.45999999999998</ele>
        <time>2025-04-30T12:19:35Z</time>
      </trkpt>
      <trkpt lat="43.228777963668108" lon="-8.467027014121413">
        <ele>291.42000000000002</ele>
        <time>2025-04-30T12:19:36Z</time>
      </trkpt>
      <trkpt lat="43.228613007813692" lon="-8.466768013313413">
        <ele>291.42000000000002</ele>
        <time>2025-04-30T12:19:37Z</time>
      </trkpt>
      <trkpt lat="43.227442977949977" lon="-8.464932041242719">
        <ele>293.33999999999997</ele>
        <time>2025-04-30T12:19:45Z</time>
      </trkpt>
      <trkpt lat="43.225483959540725" lon="-8.461814979091287">
        <ele>285.17000000000002</ele>
        <time>2025-04-30T12:19:58Z</time>
      </trkpt>
      <trkpt lat="43.223857032135129" lon="-8.459532000124455">
        <ele>271.70999999999998</ele>
        <time>2025-04-30T12:20:08Z</time>
      </trkpt>
      <trkpt lat="43.222437975928187" lon="-8.458593981340528">
        <ele>262.57999999999998</ele>
        <time>2025-04-30T12:20:15Z</time>
      </trkpt>
      <trkpt lat="43.220969969406724" lon="-8.458267003297806">
        <ele>255.37</ele>
        <time>2025-04-30T12:20:22Z</time>
      </trkpt>
      <trkpt lat="43.219861965626478" lon="-8.458000039681792">
        <ele>250.56</ele>
        <time>2025-04-30T12:20:27Z</time>
      </trkpt>
      <trkpt lat="43.219644958153367" lon="-8.457887973636389">
        <ele>249.59999999999999</ele>
        <time>2025-04-30T12:20:28Z</time>
      </trkpt>
      <trkpt lat="43.219420993700624" lon="-8.457755958661437">
        <ele>248.16</ele>
        <time>2025-04-30T12:20:29Z</time>
      </trkpt>
      <trkpt lat="43.219225024804473" lon="-8.457591002807021">
        <ele>247.19999999999999</ele>
        <time>2025-04-30T12:20:30Z</time>
      </trkpt>
      <trkpt lat="43.219021009281278" lon="-8.457419006153941">
        <ele>245.75</ele>
        <time>2025-04-30T12:20:31Z</time>
      </trkpt>
      <trkpt lat="43.218834009021521" lon="-8.457207027822733">
        <ele>244.31</ele>
        <time>2025-04-30T12:20:32Z</time>
      </trkpt>
      <trkpt lat="43.218647008761764" lon="-8.456993959844112">
        <ele>242.87</ele>
        <time>2025-04-30T12:20:33Z</time>
      </trkpt>
      <trkpt lat="43.217872017994523" lon="-8.456188961863518">
        <ele>238.06</ele>
        <time>2025-04-30T12:20:37Z</time>
      </trkpt>
      <trkpt lat="43.217668002471328" lon="-8.456012019887567">
        <ele>237.58000000000001</ele>
        <time>2025-04-30T12:20:38Z</time>
      </trkpt>
      <trkpt lat="43.217450994998217" lon="-8.455862989649177">
        <ele>237.09999999999999</ele>
        <time>2025-04-30T12:20:39Z</time>
      </trkpt>
      <trkpt lat="43.217219989746809" lon="-8.455757964402437">
        <ele>237.09999999999999</ele>
        <time>2025-04-30T12:20:40Z</time>
      </trkpt>
      <trkpt lat="43.21698403917253" lon="-8.455670038238168">
        <ele>237.58000000000001</ele>
        <time>2025-04-30T12:20:41Z</time>
      </trkpt>
      <trkpt lat="43.216737024486065" lon="-8.45563299022615">
        <ele>238.06</ele>
        <time>2025-04-30T12:20:42Z</time>
      </trkpt>
      <trkpt lat="43.216477017849684" lon="-8.455623015761375">
        <ele>239.02000000000001</ele>
        <time>2025-04-30T12:20:43Z</time>
      </trkpt>
      <trkpt lat="43.216203013435006" lon="-8.45565402880311">
        <ele>239.99000000000001</ele>
        <time>2025-04-30T12:20:44Z</time>
      </trkpt>
      <trkpt lat="43.215921968221664" lon="-8.455686969682574">
        <ele>241.43000000000001</ele>
        <time>2025-04-30T12:20:45Z</time>
      </trkpt>
      <trkpt lat="43.215657016262412" lon="-8.455773973837495">
        <ele>242.87</ele>
        <time>2025-04-30T12:20:46Z</time>
      </trkpt>
      <trkpt lat="43.215420981869102" lon="-8.455898026004434">
        <ele>244.31</ele>
        <time>2025-04-30T12:20:47Z</time>
      </trkpt>
      <trkpt lat="43.21520296856761" lon="-8.456035992130637">
        <ele>246.22999999999999</ele>
        <time>2025-04-30T12:20:48Z</time>
      </trkpt>
      <trkpt lat="43.215001970529556" lon="-8.456205977126956">
        <ele>247.68000000000001</ele>
        <time>2025-04-30T12:20:49Z</time>
      </trkpt>
      <trkpt lat="43.214812036603689" lon="-8.456389037892222">
        <ele>249.59999999999999</ele>
        <time>2025-04-30T12:20:50Z</time>
      </trkpt>
      <trkpt lat="43.214620007202029" lon="-8.456575032323599">
        <ele>251.03999999999999</ele>
        <time>2025-04-30T12:20:51Z</time>
      </trkpt>
      <trkpt lat="43.213653992861509" lon="-8.457658980041742">
        <ele>261.62</ele>
        <time>2025-04-30T12:20:57Z</time>
      </trkpt>
      <trkpt lat="43.212464014068246" lon="-8.458557017147541">
        <ele>273.63</ele>
        <time>2025-04-30T12:21:04Z</time>
      </trkpt>
      <trkpt lat="43.211231958121061" lon="-8.458807971328497">
        <ele>282.76999999999998</ele>
        <time>2025-04-30T12:21:10Z</time>
      </trkpt>
      <trkpt lat="43.209682982414961" lon="-8.458710992708802">
        <ele>293.81999999999999</ele>
        <time>2025-04-30T12:21:17Z</time>
      </trkpt>
      <trkpt lat="43.207433028146625" lon="-8.458596998825669">
        <ele>310.16000000000003</ele>
        <time>2025-04-30T12:21:26Z</time>
      </trkpt>
      <trkpt lat="43.20501702837646" lon="-8.458495996892452">
        <ele>321.69999999999999</ele>
        <time>2025-04-30T12:21:36Z</time>
      </trkpt>
      <trkpt lat="43.203619010746479" lon="-8.458420978859067">
        <ele>319.77999999999997</ele>
        <time>2025-04-30T12:21:43Z</time>
      </trkpt>
      <trkpt lat="43.202985003590584" lon="-8.458463978022337">
        <ele>316.88999999999999</ele>
        <time>2025-04-30T12:21:48Z</time>
      </trkpt>
      <trkpt lat="43.202881990000606" lon="-8.458566991612315">
        <ele>316.41000000000003</ele>
        <time>2025-04-30T12:21:49Z</time>
      </trkpt>
      <trkpt lat="43.202788028866053" lon="-8.45870696939528">
        <ele>315.44999999999999</ele>
        <time>2025-04-30T12:21:50Z</time>
      </trkpt>
      <trkpt lat="43.202702030539513" lon="-8.458850970491767">
        <ele>314.97000000000003</ele>
        <time>2025-04-30T12:21:51Z</time>
      </trkpt>
      <trkpt lat="43.202625000849366" lon="-8.458978040143848">
        <ele>314.97000000000003</ele>
        <time>2025-04-30T12:21:52Z</time>
      </trkpt>
      <trkpt lat="43.20258803665638" lon="-8.459159005433321">
        <ele>314.49000000000001</ele>
        <time>2025-04-30T12:21:53Z</time>
      </trkpt>
      <trkpt lat="43.202575966715813" lon="-8.459343994036317">
        <ele>314.49000000000001</ele>
        <time>2025-04-30T12:21:54Z</time>
      </trkpt>
      <trkpt lat="43.202573033049703" lon="-8.459536023437977">
        <ele>314.49000000000001</ele>
        <time>2025-04-30T12:21:55Z</time>
      </trkpt>
      <trkpt lat="43.202570015564561" lon="-8.459738027304411">
        <ele>314.97000000000003</ele>
        <time>2025-04-30T12:21:56Z</time>
      </trkpt>
      <trkpt lat="43.202558029443026" lon="-8.460387960076332">
        <ele>315.44999999999999</ele>
        <time>2025-04-30T12:21:59Z</time>
      </trkpt>
      <trkpt lat="43.202533973380923" lon="-8.460588036105037">
        <ele>315.93000000000001</ele>
        <time>2025-04-30T12:22:00Z</time>
      </trkpt>
      <trkpt lat="43.202473958954215" lon="-8.460770007222891">
        <ele>316.41000000000003</ele>
        <time>2025-04-30T12:22:01Z</time>
      </trkpt>
      <trkpt lat="43.202385026961565" lon="-8.460909985005856">
        <ele>317.37</ele>
        <time>2025-04-30T12:22:02Z</time>
      </trkpt>
      <trkpt lat="43.202255023643374" lon="-8.461038982495666">
        <ele>318.32999999999998</ele>
        <time>2025-04-30T12:22:03Z</time>
      </trkpt>
      <trkpt lat="43.202122002840042" lon="-8.461094973608851">
        <ele>318.81</ele>
        <time>2025-04-30T12:22:04Z</time>
      </trkpt>
      <trkpt lat="43.201969033107162" lon="-8.461160017177463">
        <ele>319.77999999999997</ele>
        <time>2025-04-30T12:22:05Z</time>
      </trkpt>
      <trkpt lat="43.201654041185975" lon="-8.461310975253582">
        <ele>321.22000000000003</ele>
        <time>2025-04-30T12:22:07Z</time>
      </trkpt>
      <trkpt lat="43.201509034261107" lon="-8.461429998278618">
        <ele>322.18000000000001</ele>
        <time>2025-04-30T12:22:08Z</time>
      </trkpt>
      <trkpt lat="43.199985958635807" lon="-8.463051980361342">
        <ele>334.68000000000001</ele>
        <time>2025-04-30T12:22:19Z</time>
      </trkpt>
      <trkpt lat="43.198475036770105" lon="-8.464731965214014">
        <ele>340.44</ele>
        <time>2025-04-30T12:22:30Z</time>
      </trkpt>
      <trkpt lat="43.197236023843288" lon="-8.466068040579557">
        <ele>339</ele>
        <time>2025-04-30T12:22:39Z</time>
      </trkpt>
      <trkpt lat="43.195597026497126" lon="-8.467923039570451">
        <ele>325.54000000000002</ele>
        <time>2025-04-30T12:22:51Z</time>
      </trkpt>
      <trkpt lat="43.195352023467422" lon="-8.468153038993478">
        <ele>324.57999999999998</ele>
        <time>2025-04-30T12:22:53Z</time>
      </trkpt>
      <trkpt lat="43.195233000442386" lon="-8.46822202205658">
        <ele>324.57999999999998</ele>
        <time>2025-04-30T12:22:54Z</time>
      </trkpt>
      <trkpt lat="43.195110959932208" lon="-8.468263009563088">
        <ele>324.57999999999998</ele>
        <time>2025-04-30T12:22:55Z</time>
      </trkpt>
      <trkpt lat="43.194998977705836" lon="-8.468314977362752">
        <ele>324.10000000000002</ele>
        <time>2025-04-30T12:22:56Z</time>
      </trkpt>
      <trkpt lat="43.19489998742938" lon="-8.468361999839544">
        <ele>324.10000000000002</ele>
        <time>2025-04-30T12:22:57Z</time>
      </trkpt>
      <trkpt lat="43.193971021100879" lon="-8.468681015074253">
        <ele>324.57999999999998</ele>
        <time>2025-04-30T12:23:06Z</time>
      </trkpt>
      <trkpt lat="43.192531010136008" lon="-8.4691690094769">
        <ele>330.82999999999998</ele>
        <time>2025-04-30T12:23:19Z</time>
      </trkpt>
      <trkpt lat="43.191311024129391" lon="-8.469648035243154">
        <ele>336.12</ele>
        <time>2025-04-30T12:23:31Z</time>
      </trkpt>
      <trkpt lat="43.191110026091337" lon="-8.469939976930618">
        <ele>336.60000000000002</ele>
        <time>2025-04-30T12:23:34Z</time>
      </trkpt>
      <trkpt lat="43.191055962815881" lon="-8.47004902549088">
        <ele>336.60000000000002</ele>
        <time>2025-04-30T12:23:35Z</time>
      </trkpt>
      <trkpt lat="43.191003995016217" lon="-8.470152961090207">
        <ele>336.60000000000002</ele>
        <time>2025-04-30T12:23:36Z</time>
      </trkpt>
      <trkpt lat="43.190950015559793" lon="-8.470258992165327">
        <ele>336.60000000000002</ele>
        <time>2025-04-30T12:23:37Z</time>
      </trkpt>
      <trkpt lat="43.19090198725462" lon="-8.470368962734938">
        <ele>336.60000000000002</ele>
        <time>2025-04-30T12:23:38Z</time>
      </trkpt>
      <trkpt lat="43.190640974789858" lon="-8.470904985442758">
        <ele>337.07999999999998</ele>
        <time>2025-04-30T12:23:43Z</time>
      </trkpt>
      <trkpt lat="43.19058196619153" lon="-8.470996012911201">
        <ele>337.07999999999998</ele>
        <time>2025-04-30T12:23:44Z</time>
      </trkpt>
      <trkpt lat="43.190508037805557" lon="-8.471070025116205">
        <ele>337.56</ele>
        <time>2025-04-30T12:23:45Z</time>
      </trkpt>
      <trkpt lat="43.190431008115411" lon="-8.471140014007688">
        <ele>338.04000000000002</ele>
        <time>2025-04-30T12:23:46Z</time>
      </trkpt>
      <trkpt lat="43.190349033102393" lon="-8.471196005120874">
        <ele>338.51999999999998</ele>
        <time>2025-04-30T12:23:47Z</time>
      </trkpt>
      <trkpt lat="43.190267980098724" lon="-8.471251996234059">
        <ele>339</ele>
        <time>2025-04-30T12:23:48Z</time>
      </trkpt>
      <trkpt lat="43.190186005085707" lon="-8.471307987347245">
        <ele>338.51999999999998</ele>
        <time>2025-04-30T12:23:49Z</time>
      </trkpt>
      <trkpt lat="43.189975032582879" lon="-8.471539998427033">
        <ele>336.60000000000002</ele>
        <time>2025-04-30T12:23:52Z</time>
      </trkpt>
      <trkpt lat="43.18991300649941" lon="-8.471622979268432">
        <ele>335.63999999999999</ele>
        <time>2025-04-30T12:23:53Z</time>
      </trkpt>
      <trkpt lat="43.189701028168201" lon="-8.471946017816663">
        <ele>332.75</ele>
        <time>2025-04-30T12:23:59Z</time>
      </trkpt>
      <trkpt lat="43.18967898376286" lon="-8.471985999494791">
        <ele>332.26999999999998</ele>
        <time>2025-04-30T12:24:00Z</time>
      </trkpt>
      <trkpt lat="43.189606983214617" lon="-8.472104016691446">
        <ele>331.79000000000002</ele>
        <time>2025-04-30T12:24:02Z</time>
      </trkpt>
      <trkpt lat="43.189452001824975" lon="-8.472346002236009">
        <ele>331.31</ele>
        <time>2025-04-30T12:24:05Z</time>
      </trkpt>
      <trkpt lat="43.189286962151527" lon="-8.472679015249014">
        <ele>332.26999999999998</ele>
        <time>2025-04-30T12:24:08Z</time>
      </trkpt>
      <trkpt lat="43.188750017434359" lon="-8.474049037322402">
        <ele>334.19999999999999</ele>
        <time>2025-04-30T12:24:18Z</time>
      </trkpt>
      <trkpt lat="43.188317008316517" lon="-8.475944017991424">
        <ele>346.20999999999998</ele>
        <time>2025-04-30T12:24:30Z</time>
      </trkpt>
      <trkpt lat="43.187862038612366" lon="-8.478330010548234">
        <ele>362.55000000000001</ele>
        <time>2025-04-30T12:24:45Z</time>
      </trkpt>
      <trkpt lat="43.187836976721883" lon="-8.479576986283064">
        <ele>363.04000000000002</ele>
        <time>2025-04-30T12:24:52Z</time>
      </trkpt>
      <trkpt lat="43.187929010018706" lon="-8.480808958411217">
        <ele>363.04000000000002</ele>
        <time>2025-04-30T12:24:57Z</time>
      </trkpt>
      <trkpt lat="43.188003022223711" lon="-8.48104901611805">
        <ele>364.48000000000002</ele>
        <time>2025-04-30T12:24:58Z</time>
      </trkpt>
      <trkpt lat="43.188328994438052" lon="-8.48199600353837">
        <ele>370.24000000000001</ele>
        <time>2025-04-30T12:25:02Z</time>
      </trkpt>
      <trkpt lat="43.18836503662169" lon="-8.482260033488274">
        <ele>372.17000000000002</ele>
        <time>2025-04-30T12:25:03Z</time>
      </trkpt>
      <trkpt lat="43.188371993601322" lon="-8.482530014589429">
        <ele>373.61000000000001</ele>
        <time>2025-04-30T12:25:04Z</time>
      </trkpt>
      <trkpt lat="43.18836897611618" lon="-8.482802007347345">
        <ele>375.05000000000001</ele>
        <time>2025-04-30T12:25:05Z</time>
      </trkpt>
      <trkpt lat="43.188356989994645" lon="-8.483071988448501">
        <ele>376.00999999999999</ele>
        <time>2025-04-30T12:25:06Z</time>
      </trkpt>
      <trkpt lat="43.188218018040061" lon="-8.485560994595289">
        <ele>384.66000000000003</ele>
        <time>2025-04-30T12:25:16Z</time>
      </trkpt>
      <trkpt lat="43.188048033043742" lon="-8.488135999068618">
        <ele>383.69999999999999</ele>
        <time>2025-04-30T12:25:26Z</time>
      </trkpt>
      <trkpt lat="43.187989024445415" lon="-8.48839701153338">
        <ele>383.69999999999999</ele>
        <time>2025-04-30T12:25:27Z</time>
      </trkpt>
      <trkpt lat="43.187922975048423" lon="-8.488650983199477">
        <ele>384.18000000000001</ele>
        <time>2025-04-30T12:25:28Z</time>
      </trkpt>
      <trkpt lat="43.18782901391387" lon="-8.488894980400801">
        <ele>384.18000000000001</ele>
        <time>2025-04-30T12:25:29Z</time>
      </trkpt>
      <trkpt lat="43.187704961746931" lon="-8.489117017015815">
        <ele>384.66000000000003</ele>
        <time>2025-04-30T12:25:30Z</time>
      </trkpt>
      <trkpt lat="43.187555009499192" lon="-8.489309968426824">
        <ele>384.66000000000003</ele>
        <time>2025-04-30T12:25:31Z</time>
      </trkpt>
      <trkpt lat="43.187392987310886" lon="-8.489480037242174">
        <ele>384.66000000000003</ele>
        <time>2025-04-30T12:25:32Z</time>
      </trkpt>
      <trkpt lat="43.187213027849793" lon="-8.489598976448178">
        <ele>385.14999999999998</ele>
        <time>2025-04-30T12:25:33Z</time>
      </trkpt>
      <trkpt lat="43.187028039246798" lon="-8.489684974774718">
        <ele>385.63</ele>
        <time>2025-04-30T12:25:34Z</time>
      </trkpt>
      <trkpt lat="43.186833998188376" lon="-8.489738032221794">
        <ele>386.11000000000001</ele>
        <time>2025-04-30T12:25:35Z</time>
      </trkpt>
      <trkpt lat="43.186638029292226" lon="-8.489755969494581">
        <ele>387.06999999999999</ele>
        <time>2025-04-30T12:25:36Z</time>
      </trkpt>
      <trkpt lat="43.186438959091902" lon="-8.489776002243161">
        <ele>387.55000000000001</ele>
        <time>2025-04-30T12:25:37Z</time>
      </trkpt>
      <trkpt lat="43.18624097853899" lon="-8.489795029163361">
        <ele>388.50999999999999</ele>
        <time>2025-04-30T12:25:38Z</time>
      </trkpt>
      <trkpt lat="43.185633039101958" lon="-8.489882033318281">
        <ele>391.38999999999999</ele>
        <time>2025-04-30T12:25:41Z</time>
      </trkpt>
      <trkpt lat="43.185431035235524" lon="-8.489953028038144">
        <ele>392.36000000000001</ele>
        <time>2025-04-30T12:25:42Z</time>
      </trkpt>
      <trkpt lat="43.185240011662245" lon="-8.490089988335967">
        <ele>392.83999999999997</ele>
        <time>2025-04-30T12:25:43Z</time>
      </trkpt>
      <trkpt lat="43.185025015845895" lon="-8.490243041887879">
        <ele>393.80000000000001</ele>
        <time>2025-04-30T12:25:44Z</time>
      </trkpt>
      <trkpt lat="43.184859976172447" lon="-8.490430964156985">
        <ele>394.75999999999999</ele>
        <time>2025-04-30T12:25:45Z</time>
      </trkpt>
      <trkpt lat="43.184680016711354" lon="-8.490636991336942">
        <ele>396.19999999999999</ele>
        <time>2025-04-30T12:25:46Z</time>
      </trkpt>
      <trkpt lat="43.182825017720461" lon="-8.492783010005951">
        <ele>408.22000000000003</ele>
        <time>2025-04-30T12:25:56Z</time>
      </trkpt>
      <trkpt lat="43.181554991751909" lon="-8.494277000427246">
        <ele>419.75</ele>
        <time>2025-04-30T12:26:04Z</time>
      </trkpt>
      <trkpt lat="43.181420965120196" lon="-8.49447900429368">
        <ele>421.19</ele>
        <time>2025-04-30T12:26:05Z</time>
      </trkpt>
      <trkpt lat="43.181305965408683" lon="-8.494715038686991">
        <ele>422.16000000000003</ele>
        <time>2025-04-30T12:26:06Z</time>
      </trkpt>
      <trkpt lat="43.180590989068151" lon="-8.496387982740998">
        <ele>429.85000000000002</ele>
        <time>2025-04-30T12:26:13Z</time>
      </trkpt>
      <trkpt lat="43.179841982200742" lon="-8.497571004554629">
        <ele>435.61000000000001</ele>
        <time>2025-04-30T12:26:19Z</time>
      </trkpt>
      <trkpt lat="43.179705021902919" lon="-8.498033015057445">
        <ele>437.54000000000002</ele>
        <time>2025-04-30T12:26:21Z</time>
      </trkpt>
      <trkpt lat="43.179660011082888" lon="-8.498267959803343">
        <ele>438.01999999999998</ele>
        <time>2025-04-30T12:26:22Z</time>
      </trkpt>
      <trkpt lat="43.179650036618114" lon="-8.498532995581627">
        <ele>438.98000000000002</ele>
        <time>2025-04-30T12:26:23Z</time>
      </trkpt>
      <trkpt lat="43.179638972505927" lon="-8.498804988339543">
        <ele>439.45999999999998</ele>
        <time>2025-04-30T12:26:24Z</time>
      </trkpt>
      <trkpt lat="43.179652970284224" lon="-8.499079998582602">
        <ele>440.42000000000002</ele>
        <time>2025-04-30T12:26:25Z</time>
      </trkpt>
      <trkpt lat="43.179678032174706" lon="-8.500262014567852">
        <ele>441.38</ele>
        <time>2025-04-30T12:26:29Z</time>
      </trkpt>
      <trkpt lat="43.179622963070869" lon="-8.500520009547472">
        <ele>440.89999999999998</ele>
        <time>2025-04-30T12:26:30Z</time>
      </trkpt>
      <trkpt lat="43.179548028856516" lon="-8.500779010355473">
        <ele>440.89999999999998</ele>
        <time>2025-04-30T12:26:31Z</time>
      </trkpt>
      <trkpt lat="43.179455995559692" lon="-8.501029964536429">
        <ele>440.89999999999998</ele>
        <time>2025-04-30T12:26:32Z</time>
      </trkpt>
      <trkpt lat="43.179328003898263" lon="-8.501254012808204">
        <ele>440.89999999999998</ele>
        <time>2025-04-30T12:26:33Z</time>
      </trkpt>
      <trkpt lat="43.179172016680241" lon="-8.501444030553103">
        <ele>440.89999999999998</ele>
        <time>2025-04-30T12:26:34Z</time>
      </trkpt>
      <trkpt lat="43.178989039734006" lon="-8.501589959487319">
        <ele>441.38</ele>
        <time>2025-04-30T12:26:35Z</time>
      </trkpt>
      <trkpt lat="43.178802961483598" lon="-8.501730021089315">
        <ele>441.38</ele>
        <time>2025-04-30T12:26:36Z</time>
      </trkpt>
      <trkpt lat="43.178601963445544" lon="-8.50180596113205">
        <ele>441.38</ele>
        <time>2025-04-30T12:26:37Z</time>
      </trkpt>
      <trkpt lat="43.178401971235871" lon="-8.501880979165435">
        <ele>441.38</ele>
        <time>2025-04-30T12:26:38Z</time>
      </trkpt>
      <trkpt lat="43.176990961655974" lon="-8.502338966354728">
        <ele>445.23000000000002</ele>
        <time>2025-04-30T12:26:45Z</time>
      </trkpt>
      <trkpt lat="43.176801027730107" lon="-8.502457989379764">
        <ele>446.19</ele>
        <time>2025-04-30T12:26:46Z</time>
      </trkpt>
      <trkpt lat="43.176639005541801" lon="-8.502640966325998">
        <ele>447.63</ele>
        <time>2025-04-30T12:26:47Z</time>
      </trkpt>
      <trkpt lat="43.17648502998054" lon="-8.502816986292601">
        <ele>448.58999999999997</ele>
        <time>2025-04-30T12:26:48Z</time>
      </trkpt>
      <trkpt lat="43.176344968378544" lon="-8.503042040392757">
        <ele>449.55000000000001</ele>
        <time>2025-04-30T12:26:49Z</time>
      </trkpt>
      <trkpt lat="43.176216976717114" lon="-8.503249995410442">
        <ele>451</ele>
        <time>2025-04-30T12:26:50Z</time>
      </trkpt>
      <trkpt lat="43.174804039299488" lon="-8.5052639991045">
        <ele>453.39999999999998</ele>
        <time>2025-04-30T12:27:00Z</time>
      </trkpt>
      <trkpt lat="43.173136962577701" lon="-8.50767002440989">
        <ele>441.38</ele>
        <time>2025-04-30T12:27:10Z</time>
      </trkpt>
      <trkpt lat="43.172004986554384" lon="-8.509250013157725">
        <ele>433.20999999999998</ele>
        <time>2025-04-30T12:27:17Z</time>
      </trkpt>
      <trkpt lat="43.171830978244543" lon="-8.509424021467567">
        <ele>432.25</ele>
        <time>2025-04-30T12:27:18Z</time>
      </trkpt>
      <trkpt lat="43.171643977984786" lon="-8.509524017572403">
        <ele>431.29000000000002</ele>
        <time>2025-04-30T12:27:19Z</time>
      </trkpt>
      <trkpt lat="43.171450020745397" lon="-8.509599035605788">
        <ele>430.32999999999998</ele>
        <time>2025-04-30T12:27:20Z</time>
      </trkpt>
      <trkpt lat="43.171252962201834" lon="-8.509618984535337">
        <ele>429.85000000000002</ele>
        <time>2025-04-30T12:27:21Z</time>
      </trkpt>
      <trkpt lat="43.171055987477303" lon="-8.509618984535337">
        <ele>429.37</ele>
        <time>2025-04-30T12:27:22Z</time>
      </trkpt>
      <trkpt lat="43.170853983610868" lon="-8.509527035057545">
        <ele>428.88999999999999</ele>
        <time>2025-04-30T12:27:23Z</time>
      </trkpt>
      <trkpt lat="43.170658014714718" lon="-8.509437013417482">
        <ele>428.39999999999998</ele>
        <time>2025-04-30T12:27:24Z</time>
      </trkpt>
      <trkpt lat="43.170463973656297" lon="-8.509347997605801">
        <ele>428.39999999999998</ele>
        <time>2025-04-30T12:27:25Z</time>
      </trkpt>
      <trkpt lat="43.17006197758019" lon="-8.509164014831185">
        <ele>427.92000000000002</ele>
        <time>2025-04-30T12:27:27Z</time>
      </trkpt>
      <trkpt lat="43.169853016734123" lon="-8.509099977090955">
        <ele>427.44</ele>
        <time>2025-04-30T12:27:28Z</time>
      </trkpt>
      <trkpt lat="43.169635003432631" lon="-8.509119004011154">
        <ele>427.44</ele>
        <time>2025-04-30T12:27:29Z</time>
      </trkpt>
      <trkpt lat="43.169422019273043" lon="-8.509169965982437">
        <ele>426.95999999999998</ele>
        <time>2025-04-30T12:27:30Z</time>
      </trkpt>
      <trkpt lat="43.169220015406609" lon="-8.50928102619946">
        <ele>426.95999999999998</ele>
        <time>2025-04-30T12:27:31Z</time>
      </trkpt>
      <trkpt lat="43.169037960469723" lon="-8.509448999539018">
        <ele>426.48000000000002</ele>
        <time>2025-04-30T12:27:32Z</time>
      </trkpt>
      <trkpt lat="43.168862024322152" lon="-8.509628036990762">
        <ele>426.48000000000002</ele>
        <time>2025-04-30T12:27:33Z</time>
      </trkpt>
      <trkpt lat="43.168734032660723" lon="-8.509867005050182">
        <ele>426.95999999999998</ele>
        <time>2025-04-30T12:27:34Z</time>
      </trkpt>
      <trkpt lat="43.168635964393616" lon="-8.510140003636479">
        <ele>427.44</ele>
        <time>2025-04-30T12:27:35Z</time>
      </trkpt>
      <trkpt lat="43.16855700686574" lon="-8.510443009436131">
        <ele>427.92000000000002</ele>
        <time>2025-04-30T12:27:36Z</time>
      </trkpt>
      <trkpt lat="43.168521970510483" lon="-8.510759007185698">
        <ele>429.85000000000002</ele>
        <time>2025-04-30T12:27:37Z</time>
      </trkpt>
      <trkpt lat="43.168487017974257" lon="-8.511078022420406">
        <ele>431.76999999999998</ele>
        <time>2025-04-30T12:27:38Z</time>
      </trkpt>
      <trkpt lat="43.168395990505815" lon="-8.511695014312863">
        <ele>435.61000000000001</ele>
        <time>2025-04-30T12:27:40Z</time>
      </trkpt>
      <trkpt lat="43.16832298412919" lon="-8.511988967657089">
        <ele>437.54000000000002</ele>
        <time>2025-04-30T12:27:41Z</time>
      </trkpt>
      <trkpt lat="43.168204966932535" lon="-8.51224796846509">
        <ele>439.45999999999998</ele>
        <time>2025-04-30T12:27:42Z</time>
      </trkpt>
      <trkpt lat="43.168076975271106" lon="-8.512501018121839">
        <ele>440.89999999999998</ele>
        <time>2025-04-30T12:27:43Z</time>
      </trkpt>
      <trkpt lat="43.167948983609676" lon="-8.512750966474414">
        <ele>442.81999999999999</ele>
        <time>2025-04-30T12:27:44Z</time>
      </trkpt>
      <trkpt lat="43.166726985946298" lon="-8.514969991520047">
        <ele>456.27999999999997</ele>
        <time>2025-04-30T12:27:53Z</time>
      </trkpt>
      <trkpt lat="43.166437977924943" lon="-8.515393026173115">
        <ele>458.69</ele>
        <time>2025-04-30T12:27:55Z</time>
      </trkpt>
      <trkpt lat="43.166272016242146" lon="-8.515554964542389">
        <ele>459.64999999999998</ele>
        <time>2025-04-30T12:27:56Z</time>
      </trkpt>
      <trkpt lat="43.16550699993968" lon="-8.516351999714971">
        <ele>463.97000000000003</ele>
        <time>2025-04-30T12:28:01Z</time>
      </trkpt>
      <trkpt lat="43.165370039641857" lon="-8.516547968611121">
        <ele>464.93000000000001</ele>
        <time>2025-04-30T12:28:02Z</time>
      </trkpt>
      <trkpt lat="43.165129981935024" lon="-8.517031017690897">
        <ele>465.89999999999998</ele>
        <time>2025-04-30T12:28:04Z</time>
      </trkpt>
      <trkpt lat="43.165031997486949" lon="-8.517313990741968">
        <ele>466.38</ele>
        <time>2025-04-30T12:28:05Z</time>
      </trkpt>
      <trkpt lat="43.164954967796803" lon="-8.517598975449801">
        <ele>467.33999999999997</ele>
        <time>2025-04-30T12:28:06Z</time>
      </trkpt>
      <trkpt lat="43.16492697224021" lon="-8.517914973199368">
        <ele>467.81999999999999</ele>
        <time>2025-04-30T12:28:07Z</time>
      </trkpt>
      <trkpt lat="43.164897970855236" lon="-8.518233988434076">
        <ele>468.30000000000001</ele>
        <time>2025-04-30T12:28:08Z</time>
      </trkpt>
      <trkpt lat="43.164887996390462" lon="-8.518558032810688">
        <ele>469.74000000000001</ele>
        <time>2025-04-30T12:28:09Z</time>
      </trkpt>
      <trkpt lat="43.164789006114006" lon="-8.520210022106767">
        <ele>475.50999999999999</ele>
        <time>2025-04-30T12:28:14Z</time>
      </trkpt>
      <trkpt lat="43.164743995293975" lon="-8.520529959350824">
        <ele>476.47000000000003</ele>
        <time>2025-04-30T12:28:15Z</time>
      </trkpt>
      <trkpt lat="43.1646460108459" lon="-8.520815027877688">
        <ele>476.94999999999999</ele>
        <time>2025-04-30T12:28:16Z</time>
      </trkpt>
      <trkpt lat="43.164547020569444" lon="-8.521105041727424">
        <ele>477.91000000000003</ele>
        <time>2025-04-30T12:28:17Z</time>
      </trkpt>
      <trkpt lat="43.164433026686311" lon="-8.521393965929747">
        <ele>478.87</ele>
        <time>2025-04-30T12:28:18Z</time>
      </trkpt>
      <trkpt lat="43.164305035024881" lon="-8.521667970344424">
        <ele>480.31999999999999</ele>
        <time>2025-04-30T12:28:19Z</time>
      </trkpt>
      <trkpt lat="43.162838034331799" lon="-8.52483700029552">
        <ele>495.69999999999999</ele>
        <time>2025-04-30T12:28:31Z</time>
      </trkpt>
      <trkpt lat="43.162250965833664" lon="-8.526282962411642">
        <ele>498.57999999999998</ele>
        <time>2025-04-30T12:28:37Z</time>
      </trkpt>
      <trkpt lat="43.162207966670394" lon="-8.526561995968223">
        <ele>499.06</ele>
        <time>2025-04-30T12:28:38Z</time>
      </trkpt>
      <trkpt lat="43.162172008305788" lon="-8.526843041181564">
        <ele>499.06</ele>
        <time>2025-04-30T12:28:39Z</time>
      </trkpt>
      <trkpt lat="43.162067988887429" lon="-8.529340010136366">
        <ele>495.69999999999999</ele>
        <time>2025-04-30T12:28:47Z</time>
      </trkpt>
      <trkpt lat="43.162120040506124" lon="-8.530331002548337">
        <ele>493.76999999999998</ele>
        <time>2025-04-30T12:28:50Z</time>
      </trkpt>
      <trkpt lat="43.162173014134169" lon="-8.530652029439807">
        <ele>492.81</ele>
        <time>2025-04-30T12:28:51Z</time>
      </trkpt>
      <trkpt lat="43.162238979712129" lon="-8.530978001654148">
        <ele>491.37</ele>
        <time>2025-04-30T12:28:52Z</time>
      </trkpt>
      <trkpt lat="43.162334030494094" lon="-8.531285030767322">
        <ele>490.88999999999999</ele>
        <time>2025-04-30T12:28:53Z</time>
      </trkpt>
      <trkpt lat="43.162427991628647" lon="-8.531590970233083">
        <ele>489.93000000000001</ele>
        <time>2025-04-30T12:28:54Z</time>
      </trkpt>
      <trkpt lat="43.162765027955174" lon="-8.532831994816661">
        <ele>486.07999999999998</ele>
        <time>2025-04-30T12:28:58Z</time>
      </trkpt>
      <trkpt lat="43.16280098631978" lon="-8.533164002001286">
        <ele>485.12</ele>
        <time>2025-04-30T12:28:59Z</time>
      </trkpt>
      <trkpt lat="43.162880027666688" lon="-8.535799020901322">
        <ele>476.94999999999999</ele>
        <time>2025-04-30T12:29:07Z</time>
      </trkpt>
      <trkpt lat="43.162905005738139" lon="-8.538816003128886">
        <ele>463.97000000000003</ele>
        <time>2025-04-30T12:29:16Z</time>
      </trkpt>
      <trkpt lat="43.162869969382882" lon="-8.539152033627033">
        <ele>462.52999999999997</ele>
        <time>2025-04-30T12:29:17Z</time>
      </trkpt>
      <trkpt lat="43.162789000198245" lon="-8.539477000012994">
        <ele>460.61000000000001</ele>
        <time>2025-04-30T12:29:18Z</time>
      </trkpt>
      <trkpt lat="43.162694033235312" lon="-8.539796015247703">
        <ele>458.69</ele>
        <time>2025-04-30T12:29:19Z</time>
      </trkpt>
      <trkpt lat="43.162599988281727" lon="-8.540110001340509">
        <ele>457.24000000000001</ele>
        <time>2025-04-30T12:29:20Z</time>
      </trkpt>
      <trkpt lat="43.162471996620297" lon="-8.540405966341496">
        <ele>455.31999999999999</ele>
        <time>2025-04-30T12:29:21Z</time>
      </trkpt>
      <trkpt lat="43.162302011623979" lon="-8.540673013776541">
        <ele>453.39999999999998</ele>
        <time>2025-04-30T12:29:22Z</time>
      </trkpt>
      <trkpt lat="43.162119034677744" lon="-8.540924973785877">
        <ele>451.95999999999998</ele>
        <time>2025-04-30T12:29:23Z</time>
      </trkpt>
      <trkpt lat="43.161407997831702" lon="-8.541965000331402">
        <ele>443.79000000000002</ele>
        <time>2025-04-30T12:29:27Z</time>
      </trkpt>
      <trkpt lat="43.161281011998653" lon="-8.542249985039234">
        <ele>441.86000000000001</ele>
        <time>2025-04-30T12:29:28Z</time>
      </trkpt>
      <trkpt lat="43.161173975095153" lon="-8.542547039687634">
        <ele>439.94</ele>
        <time>2025-04-30T12:29:29Z</time>
      </trkpt>
      <trkpt lat="43.161087976768613" lon="-8.542858008295298">
        <ele>437.54000000000002</ele>
        <time>2025-04-30T12:29:30Z</time>
      </trkpt>
      <trkpt lat="43.161015976220369" lon="-8.543184986338019">
        <ele>436.10000000000002</ele>
        <time>2025-04-30T12:29:31Z</time>
      </trkpt>
      <trkpt lat="43.160942969843745" lon="-8.543513976037502">
        <ele>434.17000000000002</ele>
        <time>2025-04-30T12:29:32Z</time>
      </trkpt>
      <trkpt lat="43.160504009574652" lon="-8.545906003564596">
        <ele>436.57999999999998</ele>
        <time>2025-04-30T12:29:40Z</time>
      </trkpt>
      <trkpt lat="43.160020038485527" lon="-8.548611011356115">
        <ele>443.31</ele>
        <time>2025-04-30T12:29:51Z</time>
      </trkpt>
      <trkpt lat="43.159531960263848" lon="-8.551533026620746">
        <ele>436.57999999999998</ele>
        <time>2025-04-30T12:30:03Z</time>
      </trkpt>
      <trkpt lat="43.159000966697931" lon="-8.554664002731443">
        <ele>424.56</ele>
        <time>2025-04-30T12:30:16Z</time>
      </trkpt>
      <trkpt lat="43.158954028040171" lon="-8.555130958557129">
        <ele>423.12</ele>
        <time>2025-04-30T12:30:18Z</time>
      </trkpt>
      <trkpt lat="43.159015970304608" lon="-8.555372022092342">
        <ele>422.63999999999999</ele>
        <time>2025-04-30T12:30:19Z</time>
      </trkpt>
      <trkpt lat="43.159072967246175" lon="-8.555591963231564">
        <ele>422.16000000000003</ele>
        <time>2025-04-30T12:30:20Z</time>
      </trkpt>
      <trkpt lat="43.159130970016122" lon="-8.555811988189817">
        <ele>421.68000000000001</ele>
        <time>2025-04-30T12:30:21Z</time>
      </trkpt>
      <trkpt lat="43.159199031069875" lon="-8.556004017591476">
        <ele>420.70999999999998</ele>
        <time>2025-04-30T12:30:22Z</time>
      </trkpt>
      <trkpt lat="43.159257033839822" lon="-8.556175008416176">
        <ele>420.23000000000002</ele>
        <time>2025-04-30T12:30:23Z</time>
      </trkpt>
      <trkpt lat="43.159307995811105" lon="-8.556341975927353">
        <ele>419.75</ele>
        <time>2025-04-30T12:30:24Z</time>
      </trkpt>
      <trkpt lat="43.159387037158012" lon="-8.5566780064255">
        <ele>419.75</ele>
        <time>2025-04-30T12:30:26Z</time>
      </trkpt>
      <trkpt lat="43.159411009401083" lon="-8.556857965886593">
        <ele>419.75</ele>
        <time>2025-04-30T12:30:27Z</time>
      </trkpt>
      <trkpt lat="43.159446967765689" lon="-8.557636979967356">
        <ele>419.75</ele>
        <time>2025-04-30T12:30:31Z</time>
      </trkpt>
      <trkpt lat="43.159446967765689" lon="-8.557855999097228">
        <ele>419.75</ele>
        <time>2025-04-30T12:30:32Z</time>
      </trkpt>
      <trkpt lat="43.15921101719141" lon="-8.559959018602967">
        <ele>422.16000000000003</ele>
        <time>2025-04-30T12:30:43Z</time>
      </trkpt>
      <trkpt lat="43.159047989174724" lon="-8.56170597486198">
        <ele>419.75</ele>
        <time>2025-04-30T12:30:53Z</time>
      </trkpt>
      <trkpt lat="43.158972971141338" lon="-8.562104031443596">
        <ele>418.79000000000002</ele>
        <time>2025-04-30T12:30:55Z</time>
      </trkpt>
      <trkpt lat="43.158930977806449" lon="-8.562302011996508">
        <ele>418.31</ele>
        <time>2025-04-30T12:30:56Z</time>
      </trkpt>
      <trkpt lat="43.158876998350024" lon="-8.562485994771123">
        <ele>418.31</ele>
        <time>2025-04-30T12:30:57Z</time>
      </trkpt>
      <trkpt lat="43.158806003630161" lon="-8.562660003080964">
        <ele>418.31</ele>
        <time>2025-04-30T12:30:58Z</time>
      </trkpt>
      <trkpt lat="43.15873702056706" lon="-8.562829988077283">
        <ele>418.31</ele>
        <time>2025-04-30T12:30:59Z</time>
      </trkpt>
      <trkpt lat="43.158146012574434" lon="-8.564258012920618">
        <ele>422.16000000000003</ele>
        <time>2025-04-30T12:31:08Z</time>
      </trkpt>
      <trkpt lat="43.157759020105004" lon="-8.565126964822412">
        <ele>425.51999999999998</ele>
        <time>2025-04-30T12:31:14Z</time>
      </trkpt>
      <trkpt lat="43.157676039263606" lon="-8.56523098424077">
        <ele>425.51999999999998</ele>
        <time>2025-04-30T12:31:15Z</time>
      </trkpt>
      <trkpt lat="43.157595992088318" lon="-8.565329974517226">
        <ele>425.51999999999998</ele>
        <time>2025-04-30T12:31:16Z</time>
      </trkpt>
      <trkpt lat="43.157516028732061" lon="-8.565430976450443">
        <ele>425.51999999999998</ele>
        <time>2025-04-30T12:31:17Z</time>
      </trkpt>
      <trkpt lat="43.157446039840579" lon="-8.565486967563629">
        <ele>425.04000000000002</ele>
        <time>2025-04-30T12:31:18Z</time>
      </trkpt>
      <trkpt lat="43.157135993242264" lon="-8.565674973651767">
        <ele>423.12</ele>
        <time>2025-04-30T12:31:25Z</time>
      </trkpt>
      <trkpt lat="43.157066004350781" lon="-8.565704980865121">
        <ele>422.63999999999999</ele>
        <time>2025-04-30T12:31:33Z</time>
      </trkpt>
      <trkpt lat="43.15678596496582" lon="-8.565796008333564">
        <ele>421.19</ele>
        <time>2025-04-30T12:31:38Z</time>
      </trkpt>
      <trkpt lat="43.155893962830305" lon="-8.566030031070113">
        <ele>416.87</ele>
        <time>2025-04-30T12:31:46Z</time>
      </trkpt>
      <trkpt lat="43.154681017622352" lon="-8.566351979970932">
        <ele>411.57999999999998</ele>
        <time>2025-04-30T12:31:55Z</time>
      </trkpt>
      <trkpt lat="43.152718981727958" lon="-8.566897977143526">
        <ele>404.85000000000002</ele>
        <time>2025-04-30T12:32:06Z</time>
      </trkpt>
      <trkpt lat="43.150633983314037" lon="-8.567472975701094">
        <ele>401.00999999999999</ele>
        <time>2025-04-30T12:32:17Z</time>
      </trkpt>
      <trkpt lat="43.150095026940107" lon="-8.567666010931134">
        <ele>401.49000000000001</ele>
        <time>2025-04-30T12:32:20Z</time>
      </trkpt>
      <trkpt lat="43.149924958124757" lon="-8.567760977894068">
        <ele>401.49000000000001</ele>
        <time>2025-04-30T12:32:21Z</time>
      </trkpt>
      <trkpt lat="43.149769976735115" lon="-8.567898022010922">
        <ele>401.97000000000003</ele>
        <time>2025-04-30T12:32:22Z</time>
      </trkpt>
      <trkpt lat="43.149627987295389" lon="-8.568058032542467">
        <ele>401.97000000000003</ele>
        <time>2025-04-30T12:32:23Z</time>
      </trkpt>
      <trkpt lat="43.14947702921927" lon="-8.568213013932109">
        <ele>401.49000000000001</ele>
        <time>2025-04-30T12:32:24Z</time>
      </trkpt>
      <trkpt lat="43.148291995748878" lon="-8.569421013817191">
        <ele>394.27999999999997</ele>
        <time>2025-04-30T12:32:32Z</time>
      </trkpt>
      <trkpt lat="43.148178001865745" lon="-8.569480022415519">
        <ele>393.31999999999999</ele>
        <time>2025-04-30T12:32:33Z</time>
      </trkpt>
      <trkpt lat="43.148051016032696" lon="-8.569463007152081">
        <ele>392.83999999999997</ele>
        <time>2025-04-30T12:32:34Z</time>
      </trkpt>
      <trkpt lat="43.147922018542886" lon="-8.569445991888642">
        <ele>391.87</ele>
        <time>2025-04-30T12:32:35Z</time>
      </trkpt>
      <trkpt lat="43.147810036316514" lon="-8.569370973855257">
        <ele>390.91000000000003</ele>
        <time>2025-04-30T12:32:36Z</time>
      </trkpt>
      <trkpt lat="43.147678021341562" lon="-8.56926703825593">
        <ele>389.94999999999999</ele>
        <time>2025-04-30T12:32:37Z</time>
      </trkpt>
      <trkpt lat="43.147541983053088" lon="-8.569157989695668">
        <ele>388.99000000000001</ele>
        <time>2025-04-30T12:32:38Z</time>
      </trkpt>
      <trkpt lat="43.147087013348937" lon="-8.568862024694681">
        <ele>387.06999999999999</ele>
        <time>2025-04-30T12:32:41Z</time>
      </trkpt>
      <trkpt lat="43.146937983110547" lon="-8.568861018866301">
        <ele>387.06999999999999</ele>
        <time>2025-04-30T12:32:42Z</time>
      </trkpt>
      <trkpt lat="43.146789036691189" lon="-8.568893037736416">
        <ele>387.06999999999999</ele>
        <time>2025-04-30T12:32:43Z</time>
      </trkpt>
      <trkpt lat="43.146640006452799" lon="-8.568950034677982">
        <ele>387.55000000000001</ele>
        <time>2025-04-30T12:32:44Z</time>
      </trkpt>
      <trkpt lat="43.146485025063157" lon="-8.569033015519381">
        <ele>388.02999999999997</ele>
        <time>2025-04-30T12:32:45Z</time>
      </trkpt>
      <trkpt lat="43.146185036748648" lon="-8.569241976365447">
        <ele>389.47000000000003</ele>
        <time>2025-04-30T12:32:47Z</time>
      </trkpt>
      <trkpt lat="43.146044975146651" lon="-8.569377008825541">
        <ele>389.94999999999999</ele>
        <time>2025-04-30T12:32:48Z</time>
      </trkpt>
      <trkpt lat="43.145650019869208" lon="-8.569808006286621">
        <ele>392.36000000000001</ele>
        <time>2025-04-30T12:32:51Z</time>
      </trkpt>
      <trkpt lat="43.145185997709632" lon="-8.570300024002791">
        <ele>395.24000000000001</ele>
        <time>2025-04-30T12:32:57Z</time>
      </trkpt>
      <trkpt lat="43.144521983340383" lon="-8.57100703753531">
        <ele>399.07999999999998</ele>
        <time>2025-04-30T12:33:05Z</time>
      </trkpt>
      <trkpt lat="43.143669962882996" lon="-8.572014039382339">
        <ele>404.37</ele>
        <time>2025-04-30T12:33:13Z</time>
      </trkpt>
      <trkpt lat="43.143597040325403" lon="-8.572184024378657">
        <ele>404.85000000000002</ele>
        <time>2025-04-30T12:33:14Z</time>
      </trkpt>
      <trkpt lat="43.143526967614889" lon="-8.572357026860118">
        <ele>404.85000000000002</ele>
        <time>2025-04-30T12:33:15Z</time>
      </trkpt>
      <trkpt lat="43.14296898432076" lon="-8.574301041662693">
        <ele>405.32999999999998</ele>
        <time>2025-04-30T12:33:25Z</time>
      </trkpt>
      <trkpt lat="43.14234503544867" lon="-8.576464997604489">
        <ele>404.85000000000002</ele>
        <time>2025-04-30T12:33:35Z</time>
      </trkpt>
      <trkpt lat="43.141542971134186" lon="-8.579305959865451">
        <ele>410.13999999999999</ele>
        <time>2025-04-30T12:33:48Z</time>
      </trkpt>
      <trkpt lat="43.140887003391981" lon="-8.581606959924102">
        <ele>408.69999999999999</ele>
        <time>2025-04-30T12:33:59Z</time>
      </trkpt>
      <trkpt lat="43.140122992917895" lon="-8.584269974380732">
        <ele>403.88999999999999</ele>
        <time>2025-04-30T12:34:11Z</time>
      </trkpt>
      <trkpt lat="43.139317994937301" lon="-8.587119989097118">
        <ele>398.12</ele>
        <time>2025-04-30T12:34:24Z</time>
      </trkpt>
      <trkpt lat="43.138539986684918" lon="-8.589761964976788">
        <ele>393.31999999999999</ele>
        <time>2025-04-30T12:34:34Z</time>
      </trkpt>
      <trkpt lat="43.138016033917665" lon="-8.591627022251487">
        <ele>388.99000000000001</ele>
        <time>2025-04-30T12:34:41Z</time>
      </trkpt>
      <trkpt lat="43.137297034263611" lon="-8.594061965122819">
        <ele>385.14999999999998</ele>
        <time>2025-04-30T12:34:51Z</time>
      </trkpt>
      <trkpt lat="43.137170970439911" lon="-8.594460021704435">
        <ele>386.58999999999997</ele>
        <time>2025-04-30T12:34:53Z</time>
      </trkpt>
      <trkpt lat="43.137082038447261" lon="-8.5945999994874">
        <ele>387.55000000000001</ele>
        <time>2025-04-30T12:34:54Z</time>
      </trkpt>
      <trkpt lat="43.136984976008534" lon="-8.594730002805591">
        <ele>388.02999999999997</ele>
        <time>2025-04-30T12:34:55Z</time>
      </trkpt>
      <trkpt lat="43.136839969083667" lon="-8.594781970605254">
        <ele>388.99000000000001</ele>
        <time>2025-04-30T12:34:56Z</time>
      </trkpt>
      <trkpt lat="43.13669303432107" lon="-8.594805020838976">
        <ele>389.94999999999999</ele>
        <time>2025-04-30T12:34:57Z</time>
      </trkpt>
      <trkpt lat="43.136551966890693" lon="-8.594827987253666">
        <ele>390.91000000000003</ele>
        <time>2025-04-30T12:34:58Z</time>
      </trkpt>
      <trkpt lat="43.136256001889706" lon="-8.594897976145148">
        <ele>392.83999999999997</ele>
        <time>2025-04-30T12:35:00Z</time>
      </trkpt>
      <trkpt lat="43.136113006621599" lon="-8.594932006672025">
        <ele>393.80000000000001</ele>
        <time>2025-04-30T12:35:01Z</time>
      </trkpt>
      <trkpt lat="43.136018961668015" lon="-8.595052035525441">
        <ele>394.75999999999999</ele>
        <time>2025-04-30T12:35:02Z</time>
      </trkpt>
      <trkpt lat="43.135917959734797" lon="-8.595196958631277">
        <ele>395.72000000000003</ele>
        <time>2025-04-30T12:35:03Z</time>
      </trkpt>
      <trkpt lat="43.135811006650329" lon="-8.595349006354809">
        <ele>396.68000000000001</ele>
        <time>2025-04-30T12:35:04Z</time>
      </trkpt>
      <trkpt lat="43.134664027020335" lon="-8.597144996747375">
        <ele>401.97000000000003</ele>
        <time>2025-04-30T12:35:14Z</time>
      </trkpt>
      <trkpt lat="43.133267015218735" lon="-8.599357986822724">
        <ele>404.85000000000002</ele>
        <time>2025-04-30T12:35:25Z</time>
      </trkpt>
      <trkpt lat="43.13149499706924" lon="-8.602118985727429">
        <ele>423.12</ele>
        <time>2025-04-30T12:35:40Z</time>
      </trkpt>
      <trkpt lat="43.131000967696309" lon="-8.60302297398448">
        <ele>430.32999999999998</ele>
        <time>2025-04-30T12:35:45Z</time>
      </trkpt>
      <trkpt lat="43.130938019603491" lon="-8.603241993114352">
        <ele>430.81</ele>
        <time>2025-04-30T12:35:46Z</time>
      </trkpt>
      <trkpt lat="43.127292981371284" lon="-8.62010101787746">
        <ele>438.01999999999998</ele>
        <time>2025-04-30T12:36:54Z</time>
      </trkpt>
      <trkpt lat="43.127175970003009" lon="-8.620632011443377">
        <ele>439.45999999999998</ele>
        <time>2025-04-30T12:36:58Z</time>
      </trkpt>
      <trkpt lat="43.127159960567951" lon="-8.620706023648381">
        <ele>439.94</ele>
        <time>2025-04-30T12:36:59Z</time>
      </trkpt>
      <trkpt lat="43.127148980274796" lon="-8.620756985619664">
        <ele>439.94</ele>
        <time>2025-04-30T12:37:00Z</time>
      </trkpt>
      <trkpt lat="43.127083014696836" lon="-8.620822029188275">
        <ele>440.42000000000002</ele>
        <time>2025-04-30T12:37:01Z</time>
      </trkpt>
      <trkpt lat="43.127039009705186" lon="-8.620810965076089">
        <ele>440.42000000000002</ele>
        <time>2025-04-30T12:37:02Z</time>
      </trkpt>
      <trkpt lat="43.126993998885155" lon="-8.620799984782934">
        <ele>440.89999999999998</ele>
        <time>2025-04-30T12:37:03Z</time>
      </trkpt>
      <trkpt lat="43.126958962529898" lon="-8.620791016146541">
        <ele>440.89999999999998</ele>
        <time>2025-04-30T12:37:04Z</time>
      </trkpt>
      <trkpt lat="43.126938007771969" lon="-8.620785987004638">
        <ele>441.38</ele>
        <time>2025-04-30T12:37:05Z</time>
      </trkpt>
      <trkpt lat="43.126938007771969" lon="-8.620785987004638">
        <ele>441.38</ele>
        <time>2025-04-30T12:37:14Z</time>
      </trkpt>
      <trkpt lat="43.126938007771969" lon="-8.620785987004638">
        <ele>441.86000000000001</ele>
        <time>2025-04-30T12:37:58Z</time>
      </trkpt>
      <trkpt lat="43.126975977793336" lon="-8.620827980339527">
        <ele>439.45999999999998</ele>
        <time>2025-04-30T12:45:54Z</time>
      </trkpt>
      <trkpt lat="43.126993998885155" lon="-8.620841978117824">
        <ele>439.45999999999998</ele>
        <time>2025-04-30T12:46:25Z</time>
      </trkpt>
      <trkpt lat="43.126973966136575" lon="-8.620783975347877">
        <ele>441.86000000000001</ele>
        <time>2025-04-30T12:47:07Z</time>
      </trkpt>
      <trkpt lat="43.126972960308194" lon="-8.620772995054722">
        <ele>441.86000000000001</ele>
        <time>2025-04-30T12:47:54Z</time>
      </trkpt>
      <trkpt lat="43.126969020813704" lon="-8.620776012539864">
        <ele>441.86000000000001</ele>
        <time>2025-04-30T12:48:41Z</time>
      </trkpt>
      <trkpt lat="43.126964997500181" lon="-8.620772995054722">
        <ele>441.38</ele>
        <time>2025-04-30T12:49:17Z</time>
      </trkpt>
      <trkpt lat="43.126967009156942" lon="-8.620782969519496">
        <ele>441.38</ele>
        <time>2025-04-30T12:49:44Z</time>
      </trkpt>
      <trkpt lat="43.126967009156942" lon="-8.620782969519496">
        <ele>441.38</ele>
        <time>2025-04-30T12:50:11Z</time>
      </trkpt>
      <trkpt lat="43.126971032470465" lon="-8.620786992833018">
        <ele>441.38</ele>
        <time>2025-04-30T12:50:27Z</time>
      </trkpt>
      <trkpt lat="43.126971032470465" lon="-8.620786992833018">
        <ele>441.38</ele>
        <time>2025-04-30T12:50:32Z</time>
      </trkpt>
      <trkpt lat="43.127073040232062" lon="-8.620784981176257">
        <ele>441.38</ele>
        <time>2025-04-30T12:50:44Z</time>
      </trkpt>
      <trkpt lat="43.127073040232062" lon="-8.620784981176257">
        <ele>441.38</ele>
        <time>2025-04-30T12:51:17Z</time>
      </trkpt>
      <trkpt lat="43.127099024131894" lon="-8.620793027803302">
        <ele>440.42000000000002</ele>
        <time>2025-04-30T12:52:03Z</time>
      </trkpt>
      <trkpt lat="43.127095000818372" lon="-8.620824962854385">
        <ele>440.42000000000002</ele>
        <time>2025-04-30T12:52:09Z</time>
      </trkpt>
      <trkpt lat="43.127128025516868" lon="-8.620849018916488">
        <ele>440.42000000000002</ele>
        <time>2025-04-30T12:52:10Z</time>
      </trkpt>
      <trkpt lat="43.127111010253429" lon="-8.620916996151209">
        <ele>440.42000000000002</ele>
        <time>2025-04-30T12:52:11Z</time>
      </trkpt>
      <trkpt lat="43.127088965848088" lon="-8.621006011962891">
        <ele>440.42000000000002</ele>
        <time>2025-04-30T12:52:12Z</time>
      </trkpt>
      <trkpt lat="43.12706901691854" lon="-8.621101984754205">
        <ele>440.42000000000002</ele>
        <time>2025-04-30T12:52:13Z</time>
      </trkpt>
      <trkpt lat="43.127046972513199" lon="-8.621207010000944">
        <ele>440.42000000000002</ele>
        <time>2025-04-30T12:52:14Z</time>
      </trkpt>
      <trkpt lat="43.126757964491844" lon="-8.622540989890695">
        <ele>440.42000000000002</ele>
        <time>2025-04-30T12:52:23Z</time>
      </trkpt>
      <trkpt lat="43.126306012272835" lon="-8.624675022438169">
        <ele>439.45999999999998</ele>
        <time>2025-04-30T12:52:33Z</time>
      </trkpt>
      <trkpt lat="43.125852970406413" lon="-8.626766977831721">
        <ele>431.76999999999998</ele>
        <time>2025-04-30T12:52:40Z</time>
      </trkpt>
      <trkpt lat="43.125025006011128" lon="-8.630702029913664">
        <ele>422.63999999999999</ele>
        <time>2025-04-30T12:52:52Z</time>
      </trkpt>
      <trkpt lat="43.124281028285623" lon="-8.634252017363906">
        <ele>410.13999999999999</ele>
        <time>2025-04-30T12:53:03Z</time>
      </trkpt>
      <trkpt lat="43.124014986678958" lon="-8.635652968659997">
        <ele>408.22000000000003</ele>
        <time>2025-04-30T12:53:08Z</time>
      </trkpt>
      <trkpt lat="43.1239989772439" lon="-8.635919010266662">
        <ele>407.74000000000001</ele>
        <time>2025-04-30T12:53:09Z</time>
      </trkpt>
      <trkpt lat="43.1239989772439" lon="-8.636187985539436">
        <ele>407.25999999999999</ele>
        <time>2025-04-30T12:53:10Z</time>
      </trkpt>
      <trkpt lat="43.124043988063931" lon="-8.636459978297353">
        <ele>405.81</ele>
        <time>2025-04-30T12:53:11Z</time>
      </trkpt>
      <trkpt lat="43.124092016369104" lon="-8.636719984933734">
        <ele>404.85000000000002</ele>
        <time>2025-04-30T12:53:12Z</time>
      </trkpt>
      <trkpt lat="43.124140966683626" lon="-8.636983009055257">
        <ele>403.88999999999999</ele>
        <time>2025-04-30T12:53:13Z</time>
      </trkpt>
      <trkpt lat="43.124183965846896" lon="-8.637250978499651">
        <ele>402.44999999999999</ele>
        <time>2025-04-30T12:53:14Z</time>
      </trkpt>
      <trkpt lat="43.124308018013835" lon="-8.638527961447835">
        <ele>399.07999999999998</ele>
        <time>2025-04-30T12:53:19Z</time>
      </trkpt>
      <trkpt lat="43.124309023842216" lon="-8.63875200971961">
        <ele>398.60000000000002</ele>
        <time>2025-04-30T12:53:20Z</time>
      </trkpt>
      <trkpt lat="43.12425697222352" lon="-8.638944961130619">
        <ele>398.12</ele>
        <time>2025-04-30T12:53:21Z</time>
      </trkpt>
      <trkpt lat="43.124162005260587" lon="-8.639152999967337">
        <ele>397.16000000000003</ele>
        <time>2025-04-30T12:53:22Z</time>
      </trkpt>
      <trkpt lat="43.124065026640892" lon="-8.639366989955306">
        <ele>396.19999999999999</ele>
        <time>2025-04-30T12:53:23Z</time>
      </trkpt>
      <trkpt lat="43.123941980302334" lon="-8.639574022963643">
        <ele>395.24000000000001</ele>
        <time>2025-04-30T12:53:24Z</time>
      </trkpt>
      <trkpt lat="43.123664036393166" lon="-8.639985993504524">
        <ele>392.36000000000001</ele>
        <time>2025-04-30T12:53:26Z</time>
      </trkpt>
      <trkpt lat="43.123501008376479" lon="-8.640171987935901">
        <ele>390.91000000000003</ele>
        <time>2025-04-30T12:53:27Z</time>
      </trkpt>
      <trkpt lat="43.122232994064689" lon="-8.641440002247691">
        <ele>380.33999999999997</ele>
        <time>2025-04-30T12:53:35Z</time>
      </trkpt>
      <trkpt lat="43.120949976146221" lon="-8.642724025994539">
        <ele>375.05000000000001</ele>
        <time>2025-04-30T12:53:43Z</time>
      </trkpt>
      <trkpt lat="43.118424005806446" lon="-8.645228035748005">
        <ele>366.88</ele>
        <time>2025-04-30T12:53:57Z</time>
      </trkpt>
      <trkpt lat="43.117098994553089" lon="-8.64668196067214">
        <ele>369.27999999999997</ele>
        <time>2025-04-30T12:54:05Z</time>
      </trkpt>
      <trkpt lat="43.116372032091022" lon="-8.648124989122152">
        <ele>368.31999999999999</ele>
        <time>2025-04-30T12:54:11Z</time>
      </trkpt>
      <trkpt lat="43.116340013220906" lon="-8.648318024352193">
        <ele>368.31999999999999</ele>
        <time>2025-04-30T12:54:12Z</time>
      </trkpt>
      <trkpt lat="43.116345964372158" lon="-8.648512987419963">
        <ele>368.80000000000001</ele>
        <time>2025-04-30T12:54:13Z</time>
      </trkpt>
      <trkpt lat="43.116350993514061" lon="-8.648713985458016">
        <ele>369.27999999999997</ele>
        <time>2025-04-30T12:54:14Z</time>
      </trkpt>
      <trkpt lat="43.116357028484344" lon="-8.648926969617605">
        <ele>369.75999999999999</ele>
        <time>2025-04-30T12:54:15Z</time>
      </trkpt>
      <trkpt lat="43.116319980472326" lon="-8.649145988747478">
        <ele>370.24000000000001</ele>
        <time>2025-04-30T12:54:16Z</time>
      </trkpt>
      <trkpt lat="43.116246974095702" lon="-8.649354027584195">
        <ele>370.73000000000002</ele>
        <time>2025-04-30T12:54:17Z</time>
      </trkpt>
      <trkpt lat="43.116170028224587" lon="-8.64955997094512">
        <ele>371.69</ele>
        <time>2025-04-30T12:54:18Z</time>
      </trkpt>
      <trkpt lat="43.11607195995748" lon="-8.64975300617516">
        <ele>372.17000000000002</ele>
        <time>2025-04-30T12:54:19Z</time>
      </trkpt>
      <trkpt lat="43.115959977731109" lon="-8.649942018091679">
        <ele>373.13</ele>
        <time>2025-04-30T12:54:20Z</time>
      </trkpt>
      <trkpt lat="43.115850007161498" lon="-8.650129018351436">
        <ele>374.08999999999997</ele>
        <time>2025-04-30T12:54:21Z</time>
      </trkpt>
      <trkpt lat="43.115777000784874" lon="-8.650351976975799">
        <ele>375.05000000000001</ele>
        <time>2025-04-30T12:54:22Z</time>
      </trkpt>
      <trkpt lat="43.115738024935126" lon="-8.650585999712348">
        <ele>376.00999999999999</ele>
        <time>2025-04-30T12:54:23Z</time>
      </trkpt>
      <trkpt lat="43.115729978308082" lon="-8.650837037712336">
        <ele>376.97000000000003</ele>
        <time>2025-04-30T12:54:24Z</time>
      </trkpt>
      <trkpt lat="43.115721009671688" lon="-8.651104001328349">
        <ele>377.94</ele>
        <time>2025-04-30T12:54:25Z</time>
      </trkpt>
      <trkpt lat="43.115692008286715" lon="-8.651380017399788">
        <ele>378.89999999999998</ele>
        <time>2025-04-30T12:54:26Z</time>
      </trkpt>
      <trkpt lat="43.115644985809922" lon="-8.651649998500943">
        <ele>379.86000000000001</ele>
        <time>2025-04-30T12:54:27Z</time>
      </trkpt>
      <trkpt lat="43.11559896916151" lon="-8.65192199125886">
        <ele>380.81999999999999</ele>
        <time>2025-04-30T12:54:28Z</time>
      </trkpt>
      <trkpt lat="43.115077028051019" lon="-8.654527002945542">
        <ele>389.94999999999999</ele>
        <time>2025-04-30T12:54:38Z</time>
      </trkpt>
      <trkpt lat="43.115012990310788" lon="-8.654771000146866">
        <ele>390.43000000000001</ele>
        <time>2025-04-30T12:54:39Z</time>
      </trkpt>
      <trkpt lat="43.114937972277403" lon="-8.655017009004951">
        <ele>391.38999999999999</ele>
        <time>2025-04-30T12:54:40Z</time>
      </trkpt>
      <trkpt lat="43.114824984222651" lon="-8.655262012034655">
        <ele>391.87</ele>
        <time>2025-04-30T12:54:41Z</time>
      </trkpt>
      <trkpt lat="43.114679977297783" lon="-8.655486982315779">
        <ele>392.83999999999997</ele>
        <time>2025-04-30T12:54:42Z</time>
      </trkpt>
      <trkpt lat="43.113195961341262" lon="-8.657777002081275">
        <ele>392.83999999999997</ele>
        <time>2025-04-30T12:54:51Z</time>
      </trkpt>
      <trkpt lat="43.112060967832804" lon="-8.659538961946964">
        <ele>398.12</ele>
        <time>2025-04-30T12:54:58Z</time>
      </trkpt>
      <trkpt lat="43.110788008198142" lon="-8.661491023376584">
        <ele>400.52999999999997</ele>
        <time>2025-04-30T12:55:07Z</time>
      </trkpt>
      <trkpt lat="43.10972903855145" lon="-8.663129014894366">
        <ele>402.44999999999999</ele>
        <time>2025-04-30T12:55:17Z</time>
      </trkpt>
      <trkpt lat="43.108779033645988" lon="-8.6646400205791">
        <ele>403.88999999999999</ele>
        <time>2025-04-30T12:55:28Z</time>
      </trkpt>
      <trkpt lat="43.107937993481755" lon="-8.66605899296701">
        <ele>406.29000000000002</ele>
        <time>2025-04-30T12:55:37Z</time>
      </trkpt>
      <trkpt lat="43.106720019131899" lon="-8.668140973895788">
        <ele>408.22000000000003</ele>
        <time>2025-04-30T12:55:47Z</time>
      </trkpt>
      <trkpt lat="43.105072975158691" lon="-8.670923011377454">
        <ele>413.5</ele>
        <time>2025-04-30T12:55:59Z</time>
      </trkpt>
      <trkpt lat="43.104192037135363" lon="-8.673232980072498">
        <ele>414.47000000000003</ele>
        <time>2025-04-30T12:56:07Z</time>
      </trkpt>
      <trkpt lat="43.10285503976047" lon="-8.676925962790847">
        <ele>401.49000000000001</ele>
        <time>2025-04-30T12:56:19Z</time>
      </trkpt>
      <trkpt lat="43.101753992959857" lon="-8.679931964725256">
        <ele>390.43000000000001</ele>
        <time>2025-04-30T12:56:29Z</time>
      </trkpt>
      <trkpt lat="43.101110011339188" lon="-8.681697025895119">
        <ele>388.50999999999999</ele>
        <time>2025-04-30T12:56:36Z</time>
      </trkpt>
      <trkpt lat="43.100612964481115" lon="-8.683102000504732">
        <ele>389.47000000000003</ele>
        <time>2025-04-30T12:56:44Z</time>
      </trkpt>
      <trkpt lat="43.100571976974607" lon="-8.683219011873007">
        <ele>389.94999999999999</ele>
        <time>2025-04-30T12:56:45Z</time>
      </trkpt>
      <trkpt lat="43.100502993911505" lon="-8.683425961062312">
        <ele>391.38999999999999</ele>
        <time>2025-04-30T12:56:47Z</time>
      </trkpt>
      <trkpt lat="43.100396040827036" lon="-8.683598041534424">
        <ele>392.36000000000001</ele>
        <time>2025-04-30T12:56:48Z</time>
      </trkpt>
      <trkpt lat="43.100390005856752" lon="-8.683603992685676">
        <ele>392.83999999999997</ele>
        <time>2025-04-30T12:56:49Z</time>
      </trkpt>
      <trkpt lat="43.10029998421669" lon="-8.683686973527074">
        <ele>393.31999999999999</ele>
        <time>2025-04-30T12:56:50Z</time>
      </trkpt>
      <trkpt lat="43.100180961191654" lon="-8.68372100405395">
        <ele>393.80000000000001</ele>
        <time>2025-04-30T12:56:51Z</time>
      </trkpt>
      <trkpt lat="43.100040983408689" lon="-8.683727039024234">
        <ele>394.27999999999997</ele>
        <time>2025-04-30T12:56:52Z</time>
      </trkpt>
      <trkpt lat="43.09989295899868" lon="-8.683727039024234">
        <ele>395.24000000000001</ele>
        <time>2025-04-30T12:56:53Z</time>
      </trkpt>
      <trkpt lat="43.098288998007774" lon="-8.683715974912047">
        <ele>406.76999999999998</ele>
        <time>2025-04-30T12:57:03Z</time>
      </trkpt>
      <trkpt lat="43.097102958709002" lon="-8.683626959100366">
        <ele>416.38999999999999</ele>
        <time>2025-04-30T12:57:10Z</time>
      </trkpt>
      <trkpt lat="43.096941020339727" lon="-8.683554958552122">
        <ele>418.31</ele>
        <time>2025-04-30T12:57:11Z</time>
      </trkpt>
      <trkpt lat="43.096800036728382" lon="-8.683451022952795">
        <ele>419.75</ele>
        <time>2025-04-30T12:57:12Z</time>
      </trkpt>
      <trkpt lat="43.096248004585505" lon="-8.683093031868339">
        <ele>424.07999999999998</ele>
        <time>2025-04-30T12:57:16Z</time>
      </trkpt>
      <trkpt lat="43.09610903263092" lon="-8.683051960542798">
        <ele>425.51999999999998</ele>
        <time>2025-04-30T12:57:17Z</time>
      </trkpt>
      <trkpt lat="43.095971988514066" lon="-8.68303301744163">
        <ele>426.48000000000002</ele>
        <time>2025-04-30T12:57:18Z</time>
      </trkpt>
      <trkpt lat="43.095846008509398" lon="-8.683105017989874">
        <ele>427.92000000000002</ele>
        <time>2025-04-30T12:57:19Z</time>
      </trkpt>
      <trkpt lat="43.095713993534446" lon="-8.68318104185164">
        <ele>428.88999999999999</ele>
        <time>2025-04-30T12:57:20Z</time>
      </trkpt>
      <trkpt lat="43.095612991601229" lon="-8.683331999927759">
        <ele>429.85000000000002</ele>
        <time>2025-04-30T12:57:21Z</time>
      </trkpt>
      <trkpt lat="43.095519030466676" lon="-8.683493016287684">
        <ele>431.29000000000002</ele>
        <time>2025-04-30T12:57:22Z</time>
      </trkpt>
      <trkpt lat="43.09542297385633" lon="-8.68365696631372">
        <ele>432.25</ele>
        <time>2025-04-30T12:57:23Z</time>
      </trkpt>
      <trkpt lat="43.095330018550158" lon="-8.683814965188503">
        <ele>433.20999999999998</ele>
        <time>2025-04-30T12:57:24Z</time>
      </trkpt>
      <trkpt lat="43.095246031880379" lon="-8.683985034003854">
        <ele>434.64999999999998</ele>
        <time>2025-04-30T12:57:25Z</time>
      </trkpt>
      <trkpt lat="43.09522801078856" lon="-8.684159964323044">
        <ele>435.61000000000001</ele>
        <time>2025-04-30T12:57:26Z</time>
      </trkpt>
      <trkpt lat="43.095264974981546" lon="-8.684331038966775">
        <ele>437.06</ele>
        <time>2025-04-30T12:57:27Z</time>
      </trkpt>
      <trkpt lat="43.095309985801578" lon="-8.684477973729372">
        <ele>438.01999999999998</ele>
        <time>2025-04-30T12:57:28Z</time>
      </trkpt>
      <trkpt lat="43.095419034361839" lon="-8.684621974825859">
        <ele>438.5</ele>
        <time>2025-04-30T12:57:29Z</time>
      </trkpt>
      <trkpt lat="43.095527999103069" lon="-8.684768993407488">
        <ele>439.45999999999998</ele>
        <time>2025-04-30T12:57:30Z</time>
      </trkpt>
      <trkpt lat="43.096024040132761" lon="-8.68537500500679">
        <ele>443.79000000000002</ele>
        <time>2025-04-30T12:57:34Z</time>
      </trkpt>
      <trkpt lat="43.096142979338765" lon="-8.685500985011458">
        <ele>444.75</ele>
        <time>2025-04-30T12:57:35Z</time>
      </trkpt>
      <trkpt lat="43.096283040940762" lon="-8.68556896224618">
        <ele>445.70999999999998</ele>
        <time>2025-04-30T12:57:36Z</time>
      </trkpt>
      <trkpt lat="43.096443973481655" lon="-8.685601986944675">
        <ele>446.67000000000002</ele>
        <time>2025-04-30T12:57:37Z</time>
      </trkpt>
      <trkpt lat="43.096618987619877" lon="-8.685637023299933">
        <ele>447.63</ele>
        <time>2025-04-30T12:57:38Z</time>
      </trkpt>
      <trkpt lat="43.09677598066628" lon="-8.685642974451184">
        <ele>448.58999999999997</ele>
        <time>2025-04-30T12:57:39Z</time>
      </trkpt>
      <trkpt lat="43.09707798063755" lon="-8.68565496057272">
        <ele>451</ele>
        <time>2025-04-30T12:57:41Z</time>
      </trkpt>
      <trkpt lat="43.097208989784122" lon="-8.685694020241499">
        <ele>451.95999999999998</ele>
        <time>2025-04-30T12:57:42Z</time>
      </trkpt>
      <trkpt lat="43.097309991717339" lon="-8.685787981376052">
        <ele>452.92000000000002</ele>
        <time>2025-04-30T12:57:43Z</time>
      </trkpt>
      <trkpt lat="43.097370006144047" lon="-8.685894012451172">
        <ele>453.88</ele>
        <time>2025-04-30T12:57:44Z</time>
      </trkpt>
      <trkpt lat="43.097387021407485" lon="-8.686065003275871">
        <ele>454.36000000000001</ele>
        <time>2025-04-30T12:57:45Z</time>
      </trkpt>
      <trkpt lat="43.097380986437201" lon="-8.686205986887217">
        <ele>454.83999999999997</ele>
        <time>2025-04-30T12:57:46Z</time>
      </trkpt>
      <trkpt lat="43.097351985052228" lon="-8.686326015740633">
        <ele>455.80000000000001</ele>
        <time>2025-04-30T12:57:47Z</time>
      </trkpt>
      <trkpt lat="43.097266992554069" lon="-8.686440009623766">
        <ele>456.27999999999997</ele>
        <time>2025-04-30T12:57:48Z</time>
      </trkpt>
      <trkpt lat="43.097176970914006" lon="-8.686559032648802">
        <ele>457.24000000000001</ele>
        <time>2025-04-30T12:57:49Z</time>
      </trkpt>
      <trkpt lat="43.09707404114306" lon="-8.686559032648802">
        <ele>457.72000000000003</ele>
        <time>2025-04-30T12:57:50Z</time>
      </trkpt>
      <trkpt lat="43.096933979541063" lon="-8.686559032648802">
        <ele>458.69</ele>
        <time>2025-04-30T12:57:51Z</time>
      </trkpt>
      <trkpt lat="43.096781009808183" lon="-8.686509998515248">
        <ele>459.64999999999998</ele>
        <time>2025-04-30T12:57:52Z</time>
      </trkpt>
      <trkpt lat="43.096613036468625" lon="-8.686439003795385">
        <ele>460.13</ele>
        <time>2025-04-30T12:57:53Z</time>
      </trkpt>
      <trkpt lat="43.095784988254309" lon="-8.686140021309257">
        <ele>463.00999999999999</ele>
        <time>2025-04-30T12:57:58Z</time>
      </trkpt>
      <trkpt lat="43.095642998814583" lon="-8.686181008815765">
        <ele>463.97000000000003</ele>
        <time>2025-04-30T12:57:59Z</time>
      </trkpt>
      <trkpt lat="43.095495980232954" lon="-8.686258960515261">
        <ele>464.93000000000001</ele>
        <time>2025-04-30T12:58:00Z</time>
      </trkpt>
      <trkpt lat="43.094469029456377" lon="-8.68690000846982">
        <ele>471.66000000000003</ele>
        <time>2025-04-30T12:58:06Z</time>
      </trkpt>
      <trkpt lat="43.093495974317193" lon="-8.687836015596986">
        <ele>480.80000000000001</ele>
        <time>2025-04-30T12:58:12Z</time>
      </trkpt>
      <trkpt lat="43.093384997919202" lon="-8.688048999756575">
        <ele>482.24000000000001</ele>
        <time>2025-04-30T12:58:13Z</time>
      </trkpt>
      <trkpt lat="43.093278966844082" lon="-8.688273970037699">
        <ele>483.68000000000001</ele>
        <time>2025-04-30T12:58:14Z</time>
      </trkpt>
      <trkpt lat="43.093193974345922" lon="-8.688517967239022">
        <ele>485.12</ele>
        <time>2025-04-30T12:58:15Z</time>
      </trkpt>
      <trkpt lat="43.093106970191002" lon="-8.688765987753868">
        <ele>487.05000000000001</ele>
        <time>2025-04-30T12:58:16Z</time>
      </trkpt>
      <trkpt lat="43.093018960207701" lon="-8.689017025753856">
        <ele>488.97000000000003</ele>
        <time>2025-04-30T12:58:17Z</time>
      </trkpt>
      <trkpt lat="43.092901026830077" lon="-8.689249958842993">
        <ele>490.41000000000003</ele>
        <time>2025-04-30T12:58:18Z</time>
      </trkpt>
      <trkpt lat="43.09168397448957" lon="-8.691362030804157">
        <ele>502.91000000000003</ele>
        <time>2025-04-30T12:58:27Z</time>
      </trkpt>
      <trkpt lat="43.091413993388414" lon="-8.69182001799345">
        <ele>502.43000000000001</ele>
        <time>2025-04-30T12:58:29Z</time>
      </trkpt>
      <trkpt lat="43.091262029483914" lon="-8.692016992717981">
        <ele>501.94999999999999</ele>
        <time>2025-04-30T12:58:30Z</time>
      </trkpt>
      <trkpt lat="43.091073017567396" lon="-8.692189995199442">
        <ele>501.45999999999998</ele>
        <time>2025-04-30T12:58:31Z</time>
      </trkpt>
      <trkpt lat="43.089054990559816" lon="-8.693920020014048">
        <ele>490.88999999999999</ele>
        <time>2025-04-30T12:58:41Z</time>
      </trkpt>
      <trkpt lat="43.085912028327584" lon="-8.696537017822266">
        <ele>477.43000000000001</ele>
        <time>2025-04-30T12:58:56Z</time>
      </trkpt>
      <trkpt lat="43.083182964473963" lon="-8.698815973475575">
        <ele>463.97000000000003</ele>
        <time>2025-04-30T12:59:09Z</time>
      </trkpt>
      <trkpt lat="43.080789009109139" lon="-8.700778009369969">
        <ele>457.72000000000003</ele>
        <time>2025-04-30T12:59:21Z</time>
      </trkpt>
      <trkpt lat="43.07780203409493" lon="-8.703276989981532">
        <ele>444.75</ele>
        <time>2025-04-30T12:59:36Z</time>
      </trkpt>
      <trkpt lat="43.077474972233176" lon="-8.703606985509396">
        <ele>442.81999999999999</ele>
        <time>2025-04-30T12:59:38Z</time>
      </trkpt>
      <trkpt lat="43.077338011935353" lon="-8.703798009082675">
        <ele>442.33999999999997</ele>
        <time>2025-04-30T12:59:39Z</time>
      </trkpt>
      <trkpt lat="43.077214965596795" lon="-8.704011999070644">
        <ele>441.38</ele>
        <time>2025-04-30T12:59:40Z</time>
      </trkpt>
      <trkpt lat="43.077121004462242" lon="-8.704247027635574">
        <ele>441.38</ele>
        <time>2025-04-30T12:59:41Z</time>
      </trkpt>
      <trkpt lat="43.07705202139914" lon="-8.704510973766446">
        <ele>440.89999999999998</ele>
        <time>2025-04-30T12:59:42Z</time>
      </trkpt>
      <trkpt lat="43.076989995315671" lon="-8.704780032858253">
        <ele>440.89999999999998</ele>
        <time>2025-04-30T12:59:43Z</time>
      </trkpt>
      <trkpt lat="43.076953031122684" lon="-8.705057976767421">
        <ele>440.89999999999998</ele>
        <time>2025-04-30T12:59:44Z</time>
      </trkpt>
      <trkpt lat="43.076919000595808" lon="-8.705346984788775">
        <ele>440.89999999999998</ele>
        <time>2025-04-30T12:59:45Z</time>
      </trkpt>
      <trkpt lat="43.076563021168113" lon="-8.708763029426336">
        <ele>433.20999999999998</ele>
        <time>2025-04-30T12:59:56Z</time>
      </trkpt>
      <trkpt lat="43.076073015108705" lon="-8.710503028705716">
        <ele>428.39999999999998</ele>
        <time>2025-04-30T13:00:02Z</time>
      </trkpt>
      <trkpt lat="43.074791003018618" lon="-8.713901974260807">
        <ele>424.07999999999998</ele>
        <time>2025-04-30T13:00:14Z</time>
      </trkpt>
      <trkpt lat="43.073680987581611" lon="-8.716757018119097">
        <ele>412.54000000000002</ele>
        <time>2025-04-30T13:00:24Z</time>
      </trkpt>
      <trkpt lat="43.07279602624476" lon="-8.719068998470902">
        <ele>397.16000000000003</ele>
        <time>2025-04-30T13:00:34Z</time>
      </trkpt>
      <trkpt lat="43.072171993553638" lon="-8.720720987766981">
        <ele>391.87</ele>
        <time>2025-04-30T13:00:43Z</time>
      </trkpt>
      <trkpt lat="43.071362972259521" lon="-8.72282300144434">
        <ele>388.99000000000001</ele>
        <time>2025-04-30T13:00:55Z</time>
      </trkpt>
      <trkpt lat="43.070508018136024" lon="-8.7241530418396">
        <ele>382.74000000000001</ele>
        <time>2025-04-30T13:01:04Z</time>
      </trkpt>
      <trkpt lat="43.069356009364128" lon="-8.725665975362063">
        <ele>376.97000000000003</ele>
        <time>2025-04-30T13:01:15Z</time>
      </trkpt>
      <trkpt lat="43.068302990868688" lon="-8.727064998820424">
        <ele>373.13</ele>
        <time>2025-04-30T13:01:25Z</time>
      </trkpt>
      <trkpt lat="43.067097002640367" lon="-8.728633001446724">
        <ele>367.83999999999997</ele>
        <time>2025-04-30T13:01:34Z</time>
      </trkpt>
      <trkpt lat="43.0651939753443" lon="-8.731133993715048">
        <ele>358.23000000000002</ele>
        <time>2025-04-30T13:01:46Z</time>
      </trkpt>
      <trkpt lat="43.064380008727312" lon="-8.732375018298626">
        <ele>358.23000000000002</ele>
        <time>2025-04-30T13:01:52Z</time>
      </trkpt>
      <trkpt lat="43.064260985702276" lon="-8.732628989964724">
        <ele>357.75</ele>
        <time>2025-04-30T13:01:53Z</time>
      </trkpt>
      <trkpt lat="43.063482977449894" lon="-8.734983969479799">
        <ele>357.26999999999998</ele>
        <time>2025-04-30T13:02:01Z</time>
      </trkpt>
      <trkpt lat="43.062629029154778" lon="-8.737521003931761">
        <ele>362.06999999999999</ele>
        <time>2025-04-30T13:02:10Z</time>
      </trkpt>
      <trkpt lat="43.06171297095716" lon="-8.740268005058169">
        <ele>366.88</ele>
        <time>2025-04-30T13:02:20Z</time>
      </trkpt>
      <trkpt lat="43.061092961579561" lon="-8.742133984342217">
        <ele>371.69</ele>
        <time>2025-04-30T13:02:28Z</time>
      </trkpt>
      <trkpt lat="43.060686020180583" lon="-8.743337038904429">
        <ele>376.49000000000001</ele>
        <time>2025-04-30T13:02:36Z</time>
      </trkpt>
      <trkpt lat="43.060584012418985" lon="-8.743639960885048">
        <ele>376.97000000000003</ele>
        <time>2025-04-30T13:02:38Z</time>
      </trkpt>
      <trkpt lat="43.060320988297462" lon="-8.744183024391532">
        <ele>377.94</ele>
        <time>2025-04-30T13:02:42Z</time>
      </trkpt>
      <trkpt lat="43.060152009129524" lon="-8.744409000501037">
        <ele>377.94</ele>
        <time>2025-04-30T13:02:44Z</time>
      </trkpt>
      <trkpt lat="43.06005796417594" lon="-8.744510002434254">
        <ele>377.94</ele>
        <time>2025-04-30T13:02:45Z</time>
      </trkpt>
      <trkpt lat="43.05996903218329" lon="-8.744620978832245">
        <ele>377.94</ele>
        <time>2025-04-30T13:02:46Z</time>
      </trkpt>
      <trkpt lat="43.058797996491194" lon="-8.745642984285951">
        <ele>382.25999999999999</ele>
        <time>2025-04-30T13:02:56Z</time>
      </trkpt>
      <trkpt lat="43.057373994961381" lon="-8.746899012476206">
        <ele>391.38999999999999</ele>
        <time>2025-04-30T13:03:05Z</time>
      </trkpt>
      <trkpt lat="43.056607972830534" lon="-8.747652964666486">
        <ele>395.72000000000003</ele>
        <time>2025-04-30T13:03:10Z</time>
      </trkpt>
      <trkpt lat="43.05648903362453" lon="-8.74781004153192">
        <ele>396.19999999999999</ele>
        <time>2025-04-30T13:03:11Z</time>
      </trkpt>
      <trkpt lat="43.056404963135719" lon="-8.74800399877131">
        <ele>396.68000000000001</ele>
        <time>2025-04-30T13:03:12Z</time>
      </trkpt>
      <trkpt lat="43.056350983679295" lon="-8.748211031779647">
        <ele>397.16000000000003</ele>
        <time>2025-04-30T13:03:13Z</time>
      </trkpt>
      <trkpt lat="43.056322988122702" lon="-8.748442037031055">
        <ele>397.63999999999999</ele>
        <time>2025-04-30T13:03:14Z</time>
      </trkpt>
      <trkpt lat="43.056292980909348" lon="-8.748684022575617">
        <ele>397.63999999999999</ele>
        <time>2025-04-30T13:03:15Z</time>
      </trkpt>
      <trkpt lat="43.05601897649467" lon="-8.751193983480334">
        <ele>396.68000000000001</ele>
        <time>2025-04-30T13:03:25Z</time>
      </trkpt>
      <trkpt lat="43.055745977908373" lon="-8.753937967121601">
        <ele>394.27999999999997</ele>
        <time>2025-04-30T13:03:36Z</time>
      </trkpt>
      <trkpt lat="43.055763999000192" lon="-8.754223035648465">
        <ele>393.31999999999999</ele>
        <time>2025-04-30T13:03:37Z</time>
      </trkpt>
      <trkpt lat="43.055789982900023" lon="-8.754507014527917">
        <ele>392.36000000000001</ele>
        <time>2025-04-30T13:03:38Z</time>
      </trkpt>
      <trkpt lat="43.055823007598519" lon="-8.754789987578988">
        <ele>391.38999999999999</ele>
        <time>2025-04-30T13:03:39Z</time>
      </trkpt>
      <trkpt lat="43.056214023381472" lon="-8.757411008700728">
        <ele>381.30000000000001</ele>
        <time>2025-04-30T13:03:48Z</time>
      </trkpt>
      <trkpt lat="43.056214023381472" lon="-8.757700016722083">
        <ele>379.86000000000001</ele>
        <time>2025-04-30T13:03:49Z</time>
      </trkpt>
      <trkpt lat="43.056184016168118" lon="-8.757982989773154">
        <ele>378.89999999999998</ele>
        <time>2025-04-30T13:03:50Z</time>
      </trkpt>
      <trkpt lat="43.056135987862945" lon="-8.758266968652606">
        <ele>377.44999999999999</ele>
        <time>2025-04-30T13:03:51Z</time>
      </trkpt>
      <trkpt lat="43.056054012849927" lon="-8.758536027744412">
        <ele>376.00999999999999</ele>
        <time>2025-04-30T13:03:52Z</time>
      </trkpt>
      <trkpt lat="43.055880004540086" lon="-8.75904799439013">
        <ele>374.08999999999997</ele>
        <time>2025-04-30T13:03:54Z</time>
      </trkpt>
      <trkpt lat="43.055771039798856" lon="-8.75928302295506">
        <ele>373.13</ele>
        <time>2025-04-30T13:03:55Z</time>
      </trkpt>
      <trkpt lat="43.055661991238594" lon="-8.759518973529339">
        <ele>372.17000000000002</ele>
        <time>2025-04-30T13:03:56Z</time>
      </trkpt>
      <trkpt lat="43.054754985496402" lon="-8.760974993929267">
        <ele>370.73000000000002</ele>
        <time>2025-04-30T13:04:03Z</time>
      </trkpt>
      <trkpt lat="43.053968008607626" lon="-8.761844029650092">
        <ele>372.17000000000002</ele>
        <time>2025-04-30T13:04:09Z</time>
      </trkpt>
      <trkpt lat="43.05389097891748" lon="-8.761999011039734">
        <ele>372.17000000000002</ele>
        <time>2025-04-30T13:04:10Z</time>
      </trkpt>
      <trkpt lat="43.053834987804294" lon="-8.762166984379292">
        <ele>372.17000000000002</ele>
        <time>2025-04-30T13:04:11Z</time>
      </trkpt>
      <trkpt lat="43.05384797975421" lon="-8.762369994074106">
        <ele>372.64999999999998</ele>
        <time>2025-04-30T13:04:12Z</time>
      </trkpt>
      <trkpt lat="43.053863989189267" lon="-8.762575015425682">
        <ele>372.64999999999998</ele>
        <time>2025-04-30T13:04:13Z</time>
      </trkpt>
      <trkpt lat="43.053881004452705" lon="-8.762789005413652">
        <ele>373.13</ele>
        <time>2025-04-30T13:04:14Z</time>
      </trkpt>
      <trkpt lat="43.053960967808962" lon="-8.763856021687388">
        <ele>376.00999999999999</ele>
        <time>2025-04-30T13:04:19Z</time>
      </trkpt>
      <trkpt lat="43.053960967808962" lon="-8.764063976705074">
        <ele>376.49000000000001</ele>
        <time>2025-04-30T13:04:20Z</time>
      </trkpt>
      <trkpt lat="43.053948981687427" lon="-8.764274027198553">
        <ele>376.49000000000001</ele>
        <time>2025-04-30T13:04:21Z</time>
      </trkpt>
      <trkpt lat="43.053901959210634" lon="-8.764491034671664">
        <ele>376.97000000000003</ele>
        <time>2025-04-30T13:04:22Z</time>
      </trkpt>
      <trkpt lat="43.053839011117816" lon="-8.764709969982505">
        <ele>377.44999999999999</ele>
        <time>2025-04-30T13:04:23Z</time>
      </trkpt>
      <trkpt lat="43.053394015878439" lon="-8.766257017850876">
        <ele>383.22000000000003</ele>
        <time>2025-04-30T13:04:31Z</time>
      </trkpt>
      <trkpt lat="43.053197041153908" lon="-8.766667982563376">
        <ele>385.63</ele>
        <time>2025-04-30T13:04:34Z</time>
      </trkpt>
      <trkpt lat="43.053129985928535" lon="-8.766784993931651">
        <ele>386.58999999999997</ele>
        <time>2025-04-30T13:04:35Z</time>
      </trkpt>
      <trkpt lat="43.053063014522195" lon="-8.766879038885236">
        <ele>387.55000000000001</ele>
        <time>2025-04-30T13:04:36Z</time>
      </trkpt>
      <trkpt lat="43.052990008145571" lon="-8.766964031383395">
        <ele>388.50999999999999</ele>
        <time>2025-04-30T13:04:37Z</time>
      </trkpt>
      <trkpt lat="43.052918007597327" lon="-8.767048018053174">
        <ele>389.47000000000003</ele>
        <time>2025-04-30T13:04:38Z</time>
      </trkpt>
      <trkpt lat="43.052540989592671" lon="-8.767523020505905">
        <ele>392.83999999999997</ele>
        <time>2025-04-30T13:04:43Z</time>
      </trkpt>
      <trkpt lat="43.052453985437751" lon="-8.767694011330605">
        <ele>393.80000000000001</ele>
        <time>2025-04-30T13:04:44Z</time>
      </trkpt>
      <trkpt lat="43.051674971356988" lon="-8.769200993701816">
        <ele>401.49000000000001</ele>
        <time>2025-04-30T13:04:51Z</time>
      </trkpt>
      <trkpt lat="43.051215978339314" lon="-8.770023006945849">
        <ele>406.76999999999998</ele>
        <time>2025-04-30T13:04:55Z</time>
      </trkpt>
      <trkpt lat="43.051068037748337" lon="-8.770157033577561">
        <ele>408.69999999999999</ele>
        <time>2025-04-30T13:04:56Z</time>
      </trkpt>
      <trkpt lat="43.05090500973165" lon="-8.770264992490411">
        <ele>409.66000000000003</ele>
        <time>2025-04-30T13:04:57Z</time>
      </trkpt>
      <trkpt lat="43.05073200725019" lon="-8.770371023565531">
        <ele>411.10000000000002</ele>
        <time>2025-04-30T13:04:58Z</time>
      </trkpt>
      <trkpt lat="43.050554981455207" lon="-8.770479988306761">
        <ele>412.54000000000002</ele>
        <time>2025-04-30T13:04:59Z</time>
      </trkpt>
      <trkpt lat="43.049260983243585" lon="-8.770922971889377">
        <ele>420.23000000000002</ele>
        <time>2025-04-30T13:05:06Z</time>
      </trkpt>
      <trkpt lat="43.048962000757456" lon="-8.77099497243762">
        <ele>421.19</ele>
        <time>2025-04-30T13:05:08Z</time>
      </trkpt>
      <trkpt lat="43.048834009096026" lon="-8.771091029047966">
        <ele>422.16000000000003</ele>
        <time>2025-04-30T13:05:09Z</time>
      </trkpt>
      <trkpt lat="43.048744993284345" lon="-8.771203011274338">
        <ele>422.63999999999999</ele>
        <time>2025-04-30T13:05:10Z</time>
      </trkpt>
      <trkpt lat="43.048680033534765" lon="-8.771334020420909">
        <ele>423.60000000000002</ele>
        <time>2025-04-30T13:05:11Z</time>
      </trkpt>
      <trkpt lat="43.048661006614566" lon="-8.771475004032254">
        <ele>424.07999999999998</ele>
        <time>2025-04-30T13:05:12Z</time>
      </trkpt>
      <trkpt lat="43.048661006614566" lon="-8.77163702622056">
        <ele>424.56</ele>
        <time>2025-04-30T13:05:13Z</time>
      </trkpt>
      <trkpt lat="43.048661006614566" lon="-8.7718749884516">
        <ele>425.04000000000002</ele>
        <time>2025-04-30T13:05:14Z</time>
      </trkpt>
      <trkpt lat="43.04869101382792" lon="-8.772007003426552">
        <ele>425.51999999999998</ele>
        <time>2025-04-30T13:05:15Z</time>
      </trkpt>
      <trkpt lat="43.049020003527403" lon="-8.773593027144671">
        <ele>430.81</ele>
        <time>2025-04-30T13:05:22Z</time>
      </trkpt>
      <trkpt lat="43.049081023782492" lon="-8.774565998464823">
        <ele>435.13</ele>
        <time>2025-04-30T13:05:26Z</time>
      </trkpt>
      <trkpt lat="43.049040958285332" lon="-8.774782000109553">
        <ele>436.10000000000002</ele>
        <time>2025-04-30T13:05:27Z</time>
      </trkpt>
      <trkpt lat="43.048999970778823" lon="-8.775000013411045">
        <ele>436.57999999999998</ele>
        <time>2025-04-30T13:05:28Z</time>
      </trkpt>
      <trkpt lat="43.048944985494018" lon="-8.77520696260035">
        <ele>437.54000000000002</ele>
        <time>2025-04-30T13:05:29Z</time>
      </trkpt>
      <trkpt lat="43.048841971904039" lon="-8.775387005880475">
        <ele>438.01999999999998</ele>
        <time>2025-04-30T13:05:30Z</time>
      </trkpt>
      <trkpt lat="43.048727978020906" lon="-8.775576017796993">
        <ele>438.98000000000002</ele>
        <time>2025-04-30T13:05:31Z</time>
      </trkpt>
      <trkpt lat="43.048110986128449" lon="-8.77651303075254">
        <ele>438.98000000000002</ele>
        <time>2025-04-30T13:05:36Z</time>
      </trkpt>
      <trkpt lat="43.047976959496737" lon="-8.776632975786924">
        <ele>438.5</ele>
        <time>2025-04-30T13:05:37Z</time>
      </trkpt>
      <trkpt lat="43.047837987542152" lon="-8.776741018518806">
        <ele>437.54000000000002</ele>
        <time>2025-04-30T13:05:38Z</time>
      </trkpt>
      <trkpt lat="43.047680994495749" lon="-8.776789968833327">
        <ele>436.57999999999998</ele>
        <time>2025-04-30T13:05:39Z</time>
      </trkpt>
      <trkpt lat="43.047502962872386" lon="-8.776823999360204">
        <ele>435.61000000000001</ele>
        <time>2025-04-30T13:05:40Z</time>
      </trkpt>
      <trkpt lat="43.047315962612629" lon="-8.776820981875062">
        <ele>434.64999999999998</ele>
        <time>2025-04-30T13:05:41Z</time>
      </trkpt>
      <trkpt lat="43.047118987888098" lon="-8.776806984096766">
        <ele>433.69</ele>
        <time>2025-04-30T13:05:42Z</time>
      </trkpt>
      <trkpt lat="43.046537032350898" lon="-8.7768570240587">
        <ele>430.32999999999998</ele>
        <time>2025-04-30T13:05:45Z</time>
      </trkpt>
      <trkpt lat="43.046357994899154" lon="-8.776892982423306">
        <ele>428.88999999999999</ele>
        <time>2025-04-30T13:05:46Z</time>
      </trkpt>
      <trkpt lat="43.046203013509512" lon="-8.776993984356523">
        <ele>427.44</ele>
        <time>2025-04-30T13:05:47Z</time>
      </trkpt>
      <trkpt lat="43.046064963564277" lon="-8.777089035138488">
        <ele>426</ele>
        <time>2025-04-30T13:05:48Z</time>
      </trkpt>
      <trkpt lat="43.045922974124551" lon="-8.777270000427961">
        <ele>424.56</ele>
        <time>2025-04-30T13:05:49Z</time>
      </trkpt>
      <trkpt lat="43.04579003714025" lon="-8.7774389795959">
        <ele>423.12</ele>
        <time>2025-04-30T13:05:50Z</time>
      </trkpt>
      <trkpt lat="43.045656010508537" lon="-8.777608964592218">
        <ele>421.68000000000001</ele>
        <time>2025-04-30T13:05:51Z</time>
      </trkpt>
      <trkpt lat="43.044731989502907" lon="-8.778975969180465">
        <ele>408.69999999999999</ele>
        <time>2025-04-30T13:05:59Z</time>
      </trkpt>
      <trkpt lat="43.044449016451836" lon="-8.779433034360409">
        <ele>405.32999999999998</ele>
        <time>2025-04-30T13:06:02Z</time>
      </trkpt>
      <trkpt lat="43.044391013681889" lon="-8.779578041285276">
        <ele>404.37</ele>
        <time>2025-04-30T13:06:03Z</time>
      </trkpt>
      <trkpt lat="43.044371986761689" lon="-8.779784990474582">
        <ele>403.41000000000003</ele>
        <time>2025-04-30T13:06:04Z</time>
      </trkpt>
      <trkpt lat="43.04435396566987" lon="-8.779971990734339">
        <ele>402.44999999999999</ele>
        <time>2025-04-30T13:06:05Z</time>
      </trkpt>
      <trkpt lat="43.044336028397083" lon="-8.780167037621141">
        <ele>401.49000000000001</ele>
        <time>2025-04-30T13:06:06Z</time>
      </trkpt>
      <trkpt lat="43.044249024242163" lon="-8.780741030350328">
        <ele>399.07999999999998</ele>
        <time>2025-04-30T13:06:09Z</time>
      </trkpt>
      <trkpt lat="43.044186998158693" lon="-8.780907997861505">
        <ele>398.12</ele>
        <time>2025-04-30T13:06:10Z</time>
      </trkpt>
      <trkpt lat="43.044106028974056" lon="-8.781045963987708">
        <ele>397.16000000000003</ele>
        <time>2025-04-30T13:06:11Z</time>
      </trkpt>
      <trkpt lat="43.043991029262543" lon="-8.781164987012744">
        <ele>396.19999999999999</ele>
        <time>2025-04-30T13:06:12Z</time>
      </trkpt>
      <trkpt lat="43.043872006237507" lon="-8.781289039179683">
        <ele>394.75999999999999</ele>
        <time>2025-04-30T13:06:13Z</time>
      </trkpt>
      <trkpt lat="43.043746026232839" lon="-8.781419964507222">
        <ele>393.80000000000001</ele>
        <time>2025-04-30T13:06:14Z</time>
      </trkpt>
      <trkpt lat="43.04263299331069" lon="-8.782549006864429">
        <ele>383.69999999999999</ele>
        <time>2025-04-30T13:06:22Z</time>
      </trkpt>
      <trkpt lat="43.042510030791163" lon="-8.782739024609327">
        <ele>382.74000000000001</ele>
        <time>2025-04-30T13:06:23Z</time>
      </trkpt>
      <trkpt lat="43.042403999716043" lon="-8.782954020425677">
        <ele>381.30000000000001</ele>
        <time>2025-04-30T13:06:24Z</time>
      </trkpt>
      <trkpt lat="43.041234975680709" lon="-8.785526007413864">
        <ele>371.69</ele>
        <time>2025-04-30T13:06:36Z</time>
      </trkpt>
      <trkpt lat="43.04052896797657" lon="-8.787132985889912">
        <ele>374.08999999999997</ele>
        <time>2025-04-30T13:06:46Z</time>
      </trkpt>
      <trkpt lat="43.040081039071083" lon="-8.788154991343617">
        <ele>380.81999999999999</ele>
        <time>2025-04-30T13:06:54Z</time>
      </trkpt>
      <trkpt lat="43.04003200493753" lon="-8.78828801214695">
        <ele>381.77999999999997</ele>
        <time>2025-04-30T13:06:55Z</time>
      </trkpt>
      <trkpt lat="43.03943102248013" lon="-8.789816033095121">
        <ele>381.30000000000001</ele>
        <time>2025-04-30T13:07:04Z</time>
      </trkpt>
      <trkpt lat="43.0384879745543" lon="-8.792184004560113">
        <ele>373.13</ele>
        <time>2025-04-30T13:07:15Z</time>
      </trkpt>
      <trkpt lat="43.03760795854032" lon="-8.794445022940636">
        <ele>373.13</ele>
        <time>2025-04-30T13:07:26Z</time>
      </trkpt>
      <trkpt lat="43.036913014948368" lon="-8.79617596976459">
        <ele>375.52999999999997</ele>
        <time>2025-04-30T13:07:36Z</time>
      </trkpt>
      <trkpt lat="43.036126960068941" lon="-8.798206988722086">
        <ele>379.86000000000001</ele>
        <time>2025-04-30T13:07:50Z</time>
      </trkpt>
      <trkpt lat="43.035421036183834" lon="-8.799969032406807">
        <ele>379.86000000000001</ele>
        <time>2025-04-30T13:08:02Z</time>
      </trkpt>
      <trkpt lat="43.034826004877687" lon="-8.801514990627766">
        <ele>381.77999999999997</ele>
        <time>2025-04-30T13:08:14Z</time>
      </trkpt>
      <trkpt lat="43.034786023199558" lon="-8.801625967025757">
        <ele>382.25999999999999</ele>
        <time>2025-04-30T13:08:15Z</time>
      </trkpt>
      <trkpt lat="43.034685021266341" lon="-8.80186703056097">
        <ele>382.25999999999999</ele>
        <time>2025-04-30T13:08:21Z</time>
      </trkpt>
      <trkpt lat="43.034685021266341" lon="-8.80186703056097">
        <ele>382.25999999999999</ele>
        <time>2025-04-30T13:08:51Z</time>
      </trkpt>
      <trkpt lat="43.034685021266341" lon="-8.80186703056097">
        <ele>382.25999999999999</ele>
        <time>2025-04-30T13:09:34Z</time>
      </trkpt>
      <trkpt lat="43.034685021266341" lon="-8.80186703056097">
        <ele>382.25999999999999</ele>
        <time>2025-04-30T13:10:20Z</time>
      </trkpt>
      <trkpt lat="43.034550994634628" lon="-8.802183028310537">
        <ele>382.74000000000001</ele>
        <time>2025-04-30T13:10:28Z</time>
      </trkpt>
      <trkpt lat="43.034208007156849" lon="-8.803065977990627">
        <ele>382.74000000000001</ele>
        <time>2025-04-30T13:10:38Z</time>
      </trkpt>
      <trkpt lat="43.033981025218964" lon="-8.803618010133505">
        <ele>384.18000000000001</ele>
        <time>2025-04-30T13:10:48Z</time>
      </trkpt>
      <trkpt lat="43.033926039934158" lon="-8.803751030936837">
        <ele>383.69999999999999</ele>
        <time>2025-04-30T13:11:00Z</time>
      </trkpt>
      <trkpt lat="43.033856973052025" lon="-8.803935013711453">
        <ele>382.25999999999999</ele>
        <time>2025-04-30T13:11:09Z</time>
      </trkpt>
      <trkpt lat="43.033837024122477" lon="-8.803988993167877">
        <ele>381.30000000000001</ele>
        <time>2025-04-30T13:11:18Z</time>
      </trkpt>
      <trkpt lat="43.033762006089091" lon="-8.804198959842324">
        <ele>378.42000000000002</ele>
        <time>2025-04-30T13:11:27Z</time>
      </trkpt>
      <trkpt lat="43.033627979457378" lon="-8.804545970633626">
        <ele>378.42000000000002</ele>
        <time>2025-04-30T13:11:32Z</time>
      </trkpt>
      <trkpt lat="43.033642983064055" lon="-8.804845958948135">
        <ele>377.94</ele>
        <time>2025-04-30T13:11:35Z</time>
      </trkpt>
      <trkpt lat="43.033511973917484" lon="-8.80487697198987">
        <ele>377.94</ele>
        <time>2025-04-30T13:11:36Z</time>
      </trkpt>
      <trkpt lat="43.03348096087575" lon="-8.804944027215242">
        <ele>377.94</ele>
        <time>2025-04-30T13:11:37Z</time>
      </trkpt>
      <trkpt lat="43.033012999221683" lon="-8.806092012673616">
        <ele>381.30000000000001</ele>
        <time>2025-04-30T13:11:50Z</time>
      </trkpt>
      <trkpt lat="43.032782999798656" lon="-8.806678997352719">
        <ele>382.25999999999999</ele>
        <time>2025-04-30T13:11:59Z</time>
      </trkpt>
      <trkpt lat="43.032782999798656" lon="-8.806678997352719">
        <ele>382.25999999999999</ele>
        <time>2025-04-30T13:12:31Z</time>
      </trkpt>
      <trkpt lat="43.032782999798656" lon="-8.806678997352719">
        <ele>382.74000000000001</ele>
        <time>2025-04-30T13:13:17Z</time>
      </trkpt>
      <trkpt lat="43.032782999798656" lon="-8.806678997352719">
        <ele>382.74000000000001</ele>
        <time>2025-04-30T13:13:32Z</time>
      </trkpt>
      <trkpt lat="43.032782999798656" lon="-8.806678997352719">
        <ele>382.74000000000001</ele>
        <time>2025-04-30T13:13:33Z</time>
      </trkpt>
      <trkpt lat="43.032737988978624" lon="-8.80672300234437">
        <ele>382.74000000000001</ele>
        <time>2025-04-30T13:13:34Z</time>
      </trkpt>
      <trkpt lat="43.032709993422031" lon="-8.806671034544706">
        <ele>382.74000000000001</ele>
        <time>2025-04-30T13:13:35Z</time>
      </trkpt>
      <trkpt lat="43.032680992037058" lon="-8.806615965440869">
        <ele>383.69999999999999</ele>
        <time>2025-04-30T13:13:36Z</time>
      </trkpt>
      <trkpt lat="43.032646039500833" lon="-8.80655100569129">
        <ele>384.18000000000001</ele>
        <time>2025-04-30T13:13:37Z</time>
      </trkpt>
      <trkpt lat="43.032607985660434" lon="-8.806472970172763">
        <ele>384.18000000000001</ele>
        <time>2025-04-30T13:13:38Z</time>
      </trkpt>
      <trkpt lat="43.032521987333894" lon="-8.806018000468612">
        <ele>387.06999999999999</ele>
        <time>2025-04-30T13:13:45Z</time>
      </trkpt>
      <trkpt lat="43.032517964020371" lon="-8.805995034053922">
        <ele>387.55000000000001</ele>
        <time>2025-04-30T13:13:46Z</time>
      </trkpt>
      <trkpt lat="43.032424002885818" lon="-8.806059993803501">
        <ele>388.02999999999997</ele>
        <time>2025-04-30T13:13:49Z</time>
      </trkpt>
      <trkpt lat="43.032344961538911" lon="-8.806092012673616">
        <ele>388.50999999999999</ele>
        <time>2025-04-30T13:13:51Z</time>
      </trkpt>
      <trkpt lat="43.032219987362623" lon="-8.806172981858254">
        <ele>390.91000000000003</ele>
        <time>2025-04-30T13:13:57Z</time>
      </trkpt>
      <trkpt lat="43.032144969329238" lon="-8.806148003786802">
        <ele>392.36000000000001</ele>
        <time>2025-04-30T13:14:10Z</time>
      </trkpt>
      <trkpt lat="43.031769962981343" lon="-8.806266020983458">
        <ele>387.55000000000001</ele>
        <time>2025-04-30T13:46:29Z</time>
      </trkpt>
      <trkpt lat="43.031711038202047" lon="-8.806237019598484">
        <ele>351.01999999999998</ele>
        <time>2025-04-30T13:46:46Z</time>
      </trkpt>
      <trkpt lat="43.031901977956295" lon="-8.806099975481629">
        <ele>337.07999999999998</ele>
        <time>2025-04-30T13:47:19Z</time>
      </trkpt>
      <trkpt lat="43.031958974897861" lon="-8.806087989360094">
        <ele>331.79000000000002</ele>
        <time>2025-04-30T13:48:00Z</time>
      </trkpt>
      <trkpt lat="43.031952017918229" lon="-8.806072985753417">
        <ele>328.43000000000001</ele>
        <time>2025-04-30T13:48:25Z</time>
      </trkpt>
      <trkpt lat="43.031788989901543" lon="-8.806007020175457">
        <ele>330.82999999999998</ele>
        <time>2025-04-30T13:48:44Z</time>
      </trkpt>
      <trkpt lat="43.031788989901543" lon="-8.806007020175457">
        <ele>330.82999999999998</ele>
        <time>2025-04-30T13:48:57Z</time>
      </trkpt>
      <trkpt lat="43.032199032604694" lon="-8.805736033245921">
        <ele>364</ele>
        <time>2025-04-30T13:49:04Z</time>
      </trkpt>
      <trkpt lat="43.032416962087154" lon="-8.805699991062284">
        <ele>371.69</ele>
        <time>2025-04-30T13:49:09Z</time>
      </trkpt>
      <trkpt lat="43.03247001953423" lon="-8.805740978568792">
        <ele>372.17000000000002</ele>
        <time>2025-04-30T13:49:10Z</time>
      </trkpt>
      <trkpt lat="43.032479993999004" lon="-8.805792024359107">
        <ele>373.13</ele>
        <time>2025-04-30T13:49:11Z</time>
      </trkpt>
      <trkpt lat="43.03249298594892" lon="-8.80586301907897">
        <ele>373.13</ele>
        <time>2025-04-30T13:49:12Z</time>
      </trkpt>
      <trkpt lat="43.032506983727217" lon="-8.805939964950085">
        <ele>373.13</ele>
        <time>2025-04-30T13:49:13Z</time>
      </trkpt>
      <trkpt lat="43.032521987333894" lon="-8.806016994640231">
        <ele>373.13</ele>
        <time>2025-04-30T13:49:14Z</time>
      </trkpt>
      <trkpt lat="43.032709993422031" lon="-8.806671034544706">
        <ele>377.44999999999999</ele>
        <time>2025-04-30T13:49:25Z</time>
      </trkpt>
      <trkpt lat="43.032777970656753" lon="-8.806698024272919">
        <ele>377.44999999999999</ele>
        <time>2025-04-30T13:49:33Z</time>
      </trkpt>
      <trkpt lat="43.032769002020359" lon="-8.806733982637525">
        <ele>377.44999999999999</ele>
        <time>2025-04-30T13:49:34Z</time>
      </trkpt>
      <trkpt lat="43.032761039212346" lon="-8.806764995679259">
        <ele>377.94</ele>
        <time>2025-04-30T13:49:35Z</time>
      </trkpt>
      <trkpt lat="43.032717034220695" lon="-8.806868009269238">
        <ele>377.94</ele>
        <time>2025-04-30T13:49:36Z</time>
      </trkpt>
      <trkpt lat="43.032678980380297" lon="-8.806950990110636">
        <ele>377.44999999999999</ele>
        <time>2025-04-30T13:49:37Z</time>
      </trkpt>
      <trkpt lat="43.032634975388646" lon="-8.807039000093937">
        <ele>377.44999999999999</ele>
        <time>2025-04-30T13:49:38Z</time>
      </trkpt>
      <trkpt lat="43.032145975157619" lon="-8.808156978338957">
        <ele>374.56999999999999</ele>
        <time>2025-04-30T13:49:48Z</time>
      </trkpt>
      <trkpt lat="43.031908012926579" lon="-8.80870096385479">
        <ele>373.13</ele>
        <time>2025-04-30T13:49:53Z</time>
      </trkpt>
      <trkpt lat="43.031857972964644" lon="-8.80880699492991">
        <ele>372.64999999999998</ele>
        <time>2025-04-30T13:49:54Z</time>
      </trkpt>
      <trkpt lat="43.031265959143639" lon="-8.809986999258399">
        <ele>367.83999999999997</ele>
        <time>2025-04-30T13:50:05Z</time>
      </trkpt>
      <trkpt lat="43.031211979687214" lon="-8.810105016455054">
        <ele>367.36000000000001</ele>
        <time>2025-04-30T13:50:06Z</time>
      </trkpt>
      <trkpt lat="43.030304973945022" lon="-8.811956997960806">
        <ele>362.55000000000001</ele>
        <time>2025-04-30T13:50:21Z</time>
      </trkpt>
      <trkpt lat="43.029139973223209" lon="-8.814298985525966">
        <ele>355.82999999999998</ele>
        <time>2025-04-30T13:50:36Z</time>
      </trkpt>
      <trkpt lat="43.027954017743468" lon="-8.81675697863102">
        <ele>347.64999999999998</ele>
        <time>2025-04-30T13:50:49Z</time>
      </trkpt>
      <trkpt lat="43.026726990938187" lon="-8.819211032241583">
        <ele>345.25</ele>
        <time>2025-04-30T13:51:02Z</time>
      </trkpt>
      <trkpt lat="43.025355963036418" lon="-8.821988962590694">
        <ele>346.69</ele>
        <time>2025-04-30T13:51:16Z</time>
      </trkpt>
      <trkpt lat="43.024030029773712" lon="-8.824659017845988">
        <ele>347.17000000000002</ele>
        <time>2025-04-30T13:51:27Z</time>
      </trkpt>
      <trkpt lat="43.022277038544416" lon="-8.828237000852823">
        <ele>349.57999999999998</ele>
        <time>2025-04-30T13:51:41Z</time>
      </trkpt>
      <trkpt lat="43.020994020625949" lon="-8.830900015309453">
        <ele>350.54000000000002</ele>
        <time>2025-04-30T13:51:53Z</time>
      </trkpt>
      <trkpt lat="43.019930021837354" lon="-8.833176959306002">
        <ele>342.37</ele>
        <time>2025-04-30T13:52:03Z</time>
      </trkpt>
      <trkpt lat="43.019229965284467" lon="-8.834086982533336">
        <ele>339.48000000000002</ele>
        <time>2025-04-30T13:52:09Z</time>
      </trkpt>
      <trkpt lat="43.018152974545956" lon="-8.835417022928596">
        <ele>337.07999999999998</ele>
        <time>2025-04-30T13:52:21Z</time>
      </trkpt>
      <trkpt lat="43.016512971371412" lon="-8.837389033287764">
        <ele>339.95999999999998</ele>
        <time>2025-04-30T13:52:39Z</time>
      </trkpt>
      <trkpt lat="43.01560596562922" lon="-8.838483961299062">
        <ele>337.56</ele>
        <time>2025-04-30T13:52:47Z</time>
      </trkpt>
      <trkpt lat="43.014022959396243" lon="-8.84037097916007">
        <ele>334.68000000000001</ele>
        <time>2025-04-30T13:52:57Z</time>
      </trkpt>
      <trkpt lat="43.01191097125411" lon="-8.843130972236395">
        <ele>334.19999999999999</ele>
        <time>2025-04-30T13:53:10Z</time>
      </trkpt>
      <trkpt lat="43.009810969233513" lon="-8.845886019989848">
        <ele>328.91000000000003</ele>
        <time>2025-04-30T13:53:24Z</time>
      </trkpt>
      <trkpt lat="43.00832100212574" lon="-8.847822993993759">
        <ele>326.99000000000001</ele>
        <time>2025-04-30T13:53:33Z</time>
      </trkpt>
      <trkpt lat="43.00642803311348" lon="-8.850306970998645">
        <ele>328.43000000000001</ele>
        <time>2025-04-30T13:53:46Z</time>
      </trkpt>
      <trkpt lat="43.004991039633751" lon="-8.852189965546131">
        <ele>335.16000000000003</ele>
        <time>2025-04-30T13:53:57Z</time>
      </trkpt>
      <trkpt lat="43.002882990986109" lon="-8.854943001642823">
        <ele>337.07999999999998</ele>
        <time>2025-04-30T13:54:13Z</time>
      </trkpt>
      <trkpt lat="43.000746024772525" lon="-8.857760997489095">
        <ele>334.68000000000001</ele>
        <time>2025-04-30T13:54:28Z</time>
      </trkpt>
      <trkpt lat="42.999786967411637" lon="-8.85901702567935">
        <ele>331.79000000000002</ele>
        <time>2025-04-30T13:54:35Z</time>
      </trkpt>
      <trkpt lat="42.998509984463453" lon="-8.860701033845544">
        <ele>324.57999999999998</ele>
        <time>2025-04-30T13:54:44Z</time>
      </trkpt>
      <trkpt lat="42.996788006275892" lon="-8.862991975620389">
        <ele>313.05000000000001</ele>
        <time>2025-04-30T13:54:56Z</time>
      </trkpt>
      <trkpt lat="42.995397029444575" lon="-8.864772040396929">
        <ele>313.05000000000001</ele>
        <time>2025-04-30T13:55:06Z</time>
      </trkpt>
      <trkpt lat="42.994518019258976" lon="-8.865909967571497">
        <ele>316.88999999999999</ele>
        <time>2025-04-30T13:55:13Z</time>
      </trkpt>
      <trkpt lat="42.993713021278381" lon="-8.866998022422195">
        <ele>323.62</ele>
        <time>2025-04-30T13:55:21Z</time>
      </trkpt>
      <trkpt lat="42.992622032761574" lon="-8.868413977324963">
        <ele>325.54000000000002</ele>
        <time>2025-04-30T13:55:32Z</time>
      </trkpt>
      <trkpt lat="42.991382014006376" lon="-8.870021961629391">
        <ele>332.26999999999998</ele>
        <time>2025-04-30T13:55:44Z</time>
      </trkpt>
      <trkpt lat="42.990353973582387" lon="-8.871389972046018">
        <ele>336.60000000000002</ele>
        <time>2025-04-30T13:55:56Z</time>
      </trkpt>
      <trkpt lat="42.989338003098965" lon="-8.872706014662981">
        <ele>340.44</ele>
        <time>2025-04-30T13:56:08Z</time>
      </trkpt>
      <trkpt lat="42.989042960107327" lon="-8.873097030445933">
        <ele>340.92000000000002</ele>
        <time>2025-04-30T13:56:15Z</time>
      </trkpt>
      <trkpt lat="42.989042960107327" lon="-8.873097030445933">
        <ele>340.44</ele>
        <time>2025-04-30T13:56:28Z</time>
      </trkpt>
      <trkpt lat="42.98889703117311" lon="-8.87328302487731">
        <ele>339.48000000000002</ele>
        <time>2025-04-30T13:56:57Z</time>
      </trkpt>
      <trkpt lat="42.988838022574782" lon="-8.873354019597173">
        <ele>339.48000000000002</ele>
        <time>2025-04-30T13:56:58Z</time>
      </trkpt>
      <trkpt lat="42.988784965127707" lon="-8.87341596186161">
        <ele>339.48000000000002</ele>
        <time>2025-04-30T13:56:59Z</time>
      </trkpt>
      <trkpt lat="42.988751018419862" lon="-8.87345602735877">
        <ele>339</ele>
        <time>2025-04-30T13:57:00Z</time>
      </trkpt>
      <trkpt lat="42.9887680336833" lon="-8.873601034283638">
        <ele>339</ele>
        <time>2025-04-30T13:57:01Z</time>
      </trkpt>
      <trkpt lat="42.988709025084972" lon="-8.873734977096319">
        <ele>338.51999999999998</ele>
        <time>2025-04-30T13:57:02Z</time>
      </trkpt>
      <trkpt lat="42.988714976236224" lon="-8.873812006786466">
        <ele>338.04000000000002</ele>
        <time>2025-04-30T13:57:03Z</time>
      </trkpt>
      <trkpt lat="42.988726040348411" lon="-8.873927006497979">
        <ele>338.04000000000002</ele>
        <time>2025-04-30T13:57:04Z</time>
      </trkpt>
      <trkpt lat="42.988737020641565" lon="-8.874052986502647">
        <ele>337.56</ele>
        <time>2025-04-30T13:57:05Z</time>
      </trkpt>
      <trkpt lat="42.988750012591481" lon="-8.874189024791122">
        <ele>337.07999999999998</ele>
        <time>2025-04-30T13:57:06Z</time>
      </trkpt>
      <trkpt lat="42.988941036164761" lon="-8.875763984397054">
        <ele>334.19999999999999</ele>
        <time>2025-04-30T13:57:15Z</time>
      </trkpt>
      <trkpt lat="42.989174975082278" lon="-8.877724008634687">
        <ele>333.23000000000002</ele>
        <time>2025-04-30T13:57:23Z</time>
      </trkpt>
      <trkpt lat="42.989752991124988" lon="-8.882298013195396">
        <ele>325.54000000000002</ele>
        <time>2025-04-30T13:57:39Z</time>
      </trkpt>
      <trkpt lat="42.990036970004439" lon="-8.884443026036024">
        <ele>322.18000000000001</ele>
        <time>2025-04-30T13:57:47Z</time>
      </trkpt>
      <trkpt lat="42.990647004917264" lon="-8.886123010888696">
        <ele>320.74000000000001</ele>
        <time>2025-04-30T13:57:54Z</time>
      </trkpt>
      <trkpt lat="42.991722989827394" lon="-8.888758029788733">
        <ele>314.97000000000003</ele>
        <time>2025-04-30T13:58:05Z</time>
      </trkpt>
      <trkpt lat="42.992449030280113" lon="-8.891308978199959">
        <ele>310.16000000000003</ele>
        <time>2025-04-30T13:58:15Z</time>
      </trkpt>
      <trkpt lat="42.992686992511153" lon="-8.894551014527679">
        <ele>305.36000000000001</ele>
        <time>2025-04-30T13:58:26Z</time>
      </trkpt>
      <trkpt lat="42.993141040205956" lon="-8.897785004228354">
        <ele>311.60000000000002</ele>
        <time>2025-04-30T13:58:38Z</time>
      </trkpt>
      <trkpt lat="42.993873031809926" lon="-8.901725001633167">
        <ele>319.30000000000001</ele>
        <time>2025-04-30T13:58:52Z</time>
      </trkpt>
      <trkpt lat="42.994584990665317" lon="-8.905383031815291">
        <ele>326.01999999999998</ele>
        <time>2025-04-30T13:59:05Z</time>
      </trkpt>
      <trkpt lat="42.995356963947415" lon="-8.908696984872222">
        <ele>326.99000000000001</ele>
        <time>2025-04-30T13:59:17Z</time>
      </trkpt>
      <trkpt lat="42.99581796862185" lon="-8.910605041310191">
        <ele>327.47000000000003</ele>
        <time>2025-04-30T13:59:25Z</time>
      </trkpt>
      <trkpt lat="42.996131032705307" lon="-8.911881018429995">
        <ele>330.35000000000002</ele>
        <time>2025-04-30T13:59:33Z</time>
      </trkpt>
      <trkpt lat="42.996372012421489" lon="-8.912632958963513">
        <ele>331.31</ele>
        <time>2025-04-30T13:59:38Z</time>
      </trkpt>
      <trkpt lat="42.996436972171068" lon="-8.912767991423607">
        <ele>331.79000000000002</ele>
        <time>2025-04-30T13:59:39Z</time>
      </trkpt>
      <trkpt lat="42.996497992426157" lon="-8.912894977256656">
        <ele>332.26999999999998</ele>
        <time>2025-04-30T13:59:40Z</time>
      </trkpt>
      <trkpt lat="42.996604023501277" lon="-8.912984998896718">
        <ele>332.75</ele>
        <time>2025-04-30T13:59:41Z</time>
      </trkpt>
      <trkpt lat="42.996703013777733" lon="-8.913067979738116">
        <ele>332.75</ele>
        <time>2025-04-30T13:59:42Z</time>
      </trkpt>
      <trkpt lat="42.996802004054189" lon="-8.913146015256643">
        <ele>332.75</ele>
        <time>2025-04-30T13:59:43Z</time>
      </trkpt>
      <trkpt lat="42.99839498475194" lon="-8.913994012400508">
        <ele>331.31</ele>
        <time>2025-04-30T13:59:57Z</time>
      </trkpt>
      <trkpt lat="42.99940500408411" lon="-8.914412017911673">
        <ele>328.91000000000003</ele>
        <time>2025-04-30T14:00:04Z</time>
      </trkpt>
      <trkpt lat="42.99957700073719" lon="-8.914440013468266">
        <ele>328.43000000000001</ele>
        <time>2025-04-30T14:00:05Z</time>
      </trkpt>
      <trkpt lat="42.99974899739027" lon="-8.914422998204827">
        <ele>328.43000000000001</ele>
        <time>2025-04-30T14:00:06Z</time>
      </trkpt>
      <trkpt lat="42.99991998821497" lon="-8.914399025961757">
        <ele>327.94999999999999</ele>
        <time>2025-04-30T14:00:07Z</time>
      </trkpt>
      <trkpt lat="43.000090979039669" lon="-8.914326019585133">
        <ele>327.47000000000003</ele>
        <time>2025-04-30T14:00:08Z</time>
      </trkpt>
      <trkpt lat="43.000260964035988" lon="-8.914251001551747">
        <ele>327.47000000000003</ele>
        <time>2025-04-30T14:00:09Z</time>
      </trkpt>
      <trkpt lat="43.001320017501712" lon="-8.913885969668627">
        <ele>327.47000000000003</ele>
        <time>2025-04-30T14:00:15Z</time>
      </trkpt>
      <trkpt lat="43.001499976962805" lon="-8.913872977718711">
        <ele>326.99000000000001</ele>
        <time>2025-04-30T14:00:16Z</time>
      </trkpt>
      <trkpt lat="43.001692006364465" lon="-8.913910025730729">
        <ele>326.99000000000001</ele>
        <time>2025-04-30T14:00:17Z</time>
      </trkpt>
      <trkpt lat="43.002071036025882" lon="-8.914012033492327">
        <ele>326.99000000000001</ele>
        <time>2025-04-30T14:00:19Z</time>
      </trkpt>
      <trkpt lat="43.002257030457258" lon="-8.914114041253924">
        <ele>326.99000000000001</ele>
        <time>2025-04-30T14:00:20Z</time>
      </trkpt>
      <trkpt lat="43.002435984089971" lon="-8.914217976853252">
        <ele>326.5</ele>
        <time>2025-04-30T14:00:21Z</time>
      </trkpt>
      <trkpt lat="43.002605969086289" lon="-8.91436499543488">
        <ele>325.54000000000002</ele>
        <time>2025-04-30T14:00:22Z</time>
      </trkpt>
      <trkpt lat="43.002775032073259" lon="-8.914529029279947">
        <ele>324.57999999999998</ele>
        <time>2025-04-30T14:00:23Z</time>
      </trkpt>
      <trkpt lat="43.002923978492618" lon="-8.914733966812491">
        <ele>323.13999999999999</ele>
        <time>2025-04-30T14:00:24Z</time>
      </trkpt>
      <trkpt lat="43.003073008731008" lon="-8.914938988164067">
        <ele>322.18000000000001</ele>
        <time>2025-04-30T14:00:25Z</time>
      </trkpt>
      <trkpt lat="43.003198988735676" lon="-8.915177034214139">
        <ele>321.69999999999999</ele>
        <time>2025-04-30T14:00:26Z</time>
      </trkpt>
      <trkpt lat="43.004245972260833" lon="-8.917211992666125">
        <ele>314.49000000000001</ele>
        <time>2025-04-30T14:00:34Z</time>
      </trkpt>
      <trkpt lat="43.005302008241415" lon="-8.919201018288732">
        <ele>304.88</ele>
        <time>2025-04-30T14:00:42Z</time>
      </trkpt>
      <trkpt lat="43.00544299185276" lon="-8.919380977749825">
        <ele>303.43000000000001</ele>
        <time>2025-04-30T14:00:43Z</time>
      </trkpt>
      <trkpt lat="43.00559101626277" lon="-8.919559009373188">
        <ele>301.99000000000001</ele>
        <time>2025-04-30T14:00:44Z</time>
      </trkpt>
      <trkpt lat="43.00576401874423" lon="-8.919687001034617">
        <ele>300.55000000000001</ele>
        <time>2025-04-30T14:00:45Z</time>
      </trkpt>
      <trkpt lat="43.005949007347226" lon="-8.919806024059653">
        <ele>299.11000000000001</ele>
        <time>2025-04-30T14:00:46Z</time>
      </trkpt>
      <trkpt lat="43.006152017042041" lon="-8.919893028214574">
        <ele>298.14999999999998</ele>
        <time>2025-04-30T14:00:47Z</time>
      </trkpt>
      <trkpt lat="43.006360977888107" lon="-8.919941978529096">
        <ele>297.67000000000002</ele>
        <time>2025-04-30T14:00:48Z</time>
      </trkpt>
      <trkpt lat="43.006567005068064" lon="-8.919990006834269">
        <ele>296.69999999999999</ele>
        <time>2025-04-30T14:00:49Z</time>
      </trkpt>
      <trkpt lat="43.006770014762878" lon="-8.920024037361145">
        <ele>295.74000000000001</ele>
        <time>2025-04-30T14:00:50Z</time>
      </trkpt>
      <trkpt lat="43.007727982476354" lon="-8.920268034562469">
        <ele>292.38</ele>
        <time>2025-04-30T14:00:55Z</time>
      </trkpt>
      <trkpt lat="43.007892016321421" lon="-8.920361995697022">
        <ele>291.89999999999998</ele>
        <time>2025-04-30T14:00:56Z</time>
      </trkpt>
      <trkpt lat="43.008011039346457" lon="-8.920516977086663">
        <ele>290.94</ele>
        <time>2025-04-30T14:00:57Z</time>
      </trkpt>
      <trkpt lat="43.008129978552461" lon="-8.920671958476305">
        <ele>290.45999999999998</ele>
        <time>2025-04-30T14:00:58Z</time>
      </trkpt>
      <trkpt lat="43.008241960778832" lon="-8.920816965401173">
        <ele>289.97000000000003</ele>
        <time>2025-04-30T14:00:59Z</time>
      </trkpt>
      <trkpt lat="43.008333994075656" lon="-8.920953003689647">
        <ele>289.97000000000003</ele>
        <time>2025-04-30T14:01:00Z</time>
      </trkpt>
      <trkpt lat="43.008404988795519" lon="-8.92113103531301">
        <ele>289.97000000000003</ele>
        <time>2025-04-30T14:01:01Z</time>
      </trkpt>
      <trkpt lat="43.008475983515382" lon="-8.921307977288961">
        <ele>289.97000000000003</ele>
        <time>2025-04-30T14:01:02Z</time>
      </trkpt>
      <trkpt lat="43.008532980456948" lon="-8.921491038054228">
        <ele>290.45999999999998</ele>
        <time>2025-04-30T14:01:03Z</time>
      </trkpt>
      <trkpt lat="43.008592994883657" lon="-8.921672003343701">
        <ele>290.45999999999998</ele>
        <time>2025-04-30T14:01:04Z</time>
      </trkpt>
      <trkpt lat="43.008884014561772" lon="-8.923170017078519">
        <ele>292.86000000000001</ele>
        <time>2025-04-30T14:01:13Z</time>
      </trkpt>
      <trkpt lat="43.008994990959764" lon="-8.92345299012959">
        <ele>293.81999999999999</ele>
        <time>2025-04-30T14:01:15Z</time>
      </trkpt>
      <trkpt lat="43.009073026478291" lon="-8.923582993447781">
        <ele>294.30000000000001</ele>
        <time>2025-04-30T14:01:16Z</time>
      </trkpt>
      <trkpt lat="43.009150978177786" lon="-8.923706039786339">
        <ele>295.25999999999999</ele>
        <time>2025-04-30T14:01:17Z</time>
      </trkpt>
      <trkpt lat="43.009338984265924" lon="-8.923911983147264">
        <ele>296.69999999999999</ele>
        <time>2025-04-30T14:01:19Z</time>
      </trkpt>
      <trkpt lat="43.009440992027521" lon="-8.923991024494171">
        <ele>297.18000000000001</ele>
        <time>2025-04-30T14:01:20Z</time>
      </trkpt>
      <trkpt lat="43.009550962597132" lon="-8.924064030870795">
        <ele>297.67000000000002</ele>
        <time>2025-04-30T14:01:21Z</time>
      </trkpt>
      <trkpt lat="43.010073993355036" lon="-8.924479018896818">
        <ele>300.06999999999999</ele>
        <time>2025-04-30T14:01:26Z</time>
      </trkpt>
      <trkpt lat="43.010165020823479" lon="-8.924584966152906">
        <ele>300.55000000000001</ele>
        <time>2025-04-30T14:01:27Z</time>
      </trkpt>
      <trkpt lat="43.01096398383379" lon="-8.925875024870038">
        <ele>301.02999999999997</ele>
        <time>2025-04-30T14:01:37Z</time>
      </trkpt>
      <trkpt lat="43.011098010465503" lon="-8.926151962950826">
        <ele>301.02999999999997</ele>
        <time>2025-04-30T14:01:39Z</time>
      </trkpt>
      <trkpt lat="43.011143021285534" lon="-8.926294036209583">
        <ele>301.50999999999999</ele>
        <time>2025-04-30T14:01:40Z</time>
      </trkpt>
      <trkpt lat="43.011175962164998" lon="-8.926448011770845">
        <ele>301.50999999999999</ele>
        <time>2025-04-30T14:01:41Z</time>
      </trkpt>
      <trkpt lat="43.011201024055481" lon="-8.926601987332106">
        <ele>301.99000000000001</ele>
        <time>2025-04-30T14:01:42Z</time>
      </trkpt>
      <trkpt lat="43.011214016005397" lon="-8.926778007298708">
        <ele>301.99000000000001</ele>
        <time>2025-04-30T14:01:43Z</time>
      </trkpt>
      <trkpt lat="43.011206975206733" lon="-8.926958972588182">
        <ele>302.47000000000003</ele>
        <time>2025-04-30T14:01:44Z</time>
      </trkpt>
      <trkpt lat="43.011189037933946" lon="-8.927159970626235">
        <ele>302.94999999999999</ele>
        <time>2025-04-30T14:01:45Z</time>
      </trkpt>
      <trkpt lat="43.011163976043463" lon="-8.927373960614204">
        <ele>302.94999999999999</ele>
        <time>2025-04-30T14:01:46Z</time>
      </trkpt>
      <trkpt lat="43.010773966088891" lon="-8.929513022303581">
        <ele>310.63999999999999</ele>
        <time>2025-04-30T14:01:55Z</time>
      </trkpt>
      <trkpt lat="43.01072996109724" lon="-8.929757019504905">
        <ele>311.60000000000002</ele>
        <time>2025-04-30T14:01:56Z</time>
      </trkpt>
      <trkpt lat="43.01068696193397" lon="-8.929999005049467">
        <ele>312.08999999999997</ele>
        <time>2025-04-30T14:01:57Z</time>
      </trkpt>
      <trkpt lat="43.010111041367054" lon="-8.933168035000563">
        <ele>310.63999999999999</ele>
        <time>2025-04-30T14:02:10Z</time>
      </trkpt>
      <trkpt lat="43.009617011994123" lon="-8.935997011139989">
        <ele>302.47000000000003</ele>
        <time>2025-04-30T14:02:22Z</time>
      </trkpt>
      <trkpt lat="43.009598990902305" lon="-8.93791101872921">
        <ele>296.22000000000003</ele>
        <time>2025-04-30T14:02:30Z</time>
      </trkpt>
      <trkpt lat="43.009635033085942" lon="-8.938153004273772">
        <ele>295.74000000000001</ele>
        <time>2025-04-30T14:02:31Z</time>
      </trkpt>
      <trkpt lat="43.009683983400464" lon="-8.938391972333193">
        <ele>294.77999999999997</ele>
        <time>2025-04-30T14:02:32Z</time>
      </trkpt>
      <trkpt lat="43.010357972234488" lon="-8.940563974902034">
        <ele>288.52999999999997</ele>
        <time>2025-04-30T14:02:41Z</time>
      </trkpt>
      <trkpt lat="43.011144027113914" lon="-8.942929012700915">
        <ele>289.00999999999999</ele>
        <time>2025-04-30T14:02:50Z</time>
      </trkpt>
      <trkpt lat="43.01210199482739" lon="-8.945770980790258">
        <ele>291.42000000000002</ele>
        <time>2025-04-30T14:03:00Z</time>
      </trkpt>
      <trkpt lat="43.01324000582099" lon="-8.949209991842508">
        <ele>291.89999999999998</ele>
        <time>2025-04-30T14:03:12Z</time>
      </trkpt>
      <trkpt lat="43.013634961098433" lon="-8.950645979493856">
        <ele>294.30000000000001</ele>
        <time>2025-04-30T14:03:17Z</time>
      </trkpt>
      <trkpt lat="43.013676032423973" lon="-8.950945967808366">
        <ele>294.77999999999997</ele>
        <time>2025-04-30T14:03:18Z</time>
      </trkpt>
      <trkpt lat="43.013732023537159" lon="-8.9521340187639">
        <ele>296.69999999999999</ele>
        <time>2025-04-30T14:03:22Z</time>
      </trkpt>
      <trkpt lat="43.01341200247407" lon="-8.954138970002532">
        <ele>299.58999999999997</ele>
        <time>2025-04-30T14:03:29Z</time>
      </trkpt>
      <trkpt lat="43.013018975034356" lon="-8.956450028344989">
        <ele>301.99000000000001</ele>
        <time>2025-04-30T14:03:37Z</time>
      </trkpt>
      <trkpt lat="43.013182003051043" lon="-8.95845397375524">
        <ele>305.83999999999997</ele>
        <time>2025-04-30T14:03:44Z</time>
      </trkpt>
      <trkpt lat="43.013774016872048" lon="-8.961335001513362">
        <ele>311.12</ele>
        <time>2025-04-30T14:03:54Z</time>
      </trkpt>
      <trkpt lat="43.014468960464001" lon="-8.964039003476501">
        <ele>314.49000000000001</ele>
        <time>2025-04-30T14:04:03Z</time>
      </trkpt>
      <trkpt lat="43.014674987643957" lon="-8.964634034782648">
        <ele>314.00999999999999</ele>
        <time>2025-04-30T14:04:05Z</time>
      </trkpt>
      <trkpt lat="43.015903020277619" lon="-8.967188000679016">
        <ele>310.16000000000003</ele>
        <time>2025-04-30T14:04:14Z</time>
      </trkpt>
      <trkpt lat="43.017575964331627" lon="-8.9705890417099">
        <ele>301.99000000000001</ele>
        <time>2025-04-30T14:04:26Z</time>
      </trkpt>
      <trkpt lat="43.019354017451406" lon="-8.974256962537766">
        <ele>294.30000000000001</ele>
        <time>2025-04-30T14:04:39Z</time>
      </trkpt>
      <trkpt lat="43.020906010642648" lon="-8.977410988882184">
        <ele>293.33999999999997</ele>
        <time>2025-04-30T14:04:50Z</time>
      </trkpt>
      <trkpt lat="43.022320037707686" lon="-8.97972104139626">
        <ele>294.77999999999997</ele>
        <time>2025-04-30T14:04:59Z</time>
      </trkpt>
      <trkpt lat="43.023958029225469" lon="-8.982570972293615">
        <ele>291.42000000000002</ele>
        <time>2025-04-30T14:05:10Z</time>
      </trkpt>
      <trkpt lat="43.02404603920877" lon="-8.982846988365054">
        <ele>291.42000000000002</ele>
        <time>2025-04-30T14:05:11Z</time>
      </trkpt>
      <trkpt lat="43.02413497120142" lon="-8.983126021921635">
        <ele>291.42000000000002</ele>
        <time>2025-04-30T14:05:12Z</time>
      </trkpt>
      <trkpt lat="43.024474019184709" lon="-8.985471026971936">
        <ele>292.86000000000001</ele>
        <time>2025-04-30T14:05:20Z</time>
      </trkpt>
      <trkpt lat="43.024805020540953" lon="-8.988136975094676">
        <ele>295.74000000000001</ele>
        <time>2025-04-30T14:05:29Z</time>
      </trkpt>
      <trkpt lat="43.025340959429741" lon="-8.991129985079169">
        <ele>299.11000000000001</ele>
        <time>2025-04-30T14:05:39Z</time>
      </trkpt>
      <trkpt lat="43.026341004297137" lon="-8.995767021551728">
        <ele>304.38999999999999</ele>
        <time>2025-04-30T14:05:55Z</time>
      </trkpt>
      <trkpt lat="43.026890018954873" lon="-8.998276982456446">
        <ele>304.88</ele>
        <time>2025-04-30T14:06:03Z</time>
      </trkpt>
      <trkpt lat="43.027513967826962" lon="-9.001180976629257">
        <ele>301.02999999999997</ele>
        <time>2025-04-30T14:06:12Z</time>
      </trkpt>
      <trkpt lat="43.028564974665642" lon="-9.006053041666746">
        <ele>300.06999999999999</ele>
        <time>2025-04-30T14:06:27Z</time>
      </trkpt>
      <trkpt lat="43.029080964624882" lon="-9.008454037830234">
        <ele>301.50999999999999</ele>
        <time>2025-04-30T14:06:35Z</time>
      </trkpt>
      <trkpt lat="43.029541969299316" lon="-9.010862996801734">
        <ele>306.80000000000001</ele>
        <time>2025-04-30T14:06:45Z</time>
      </trkpt>
      <trkpt lat="43.029541969299316" lon="-9.011186035349965">
        <ele>307.27999999999997</ele>
        <time>2025-04-30T14:06:47Z</time>
      </trkpt>
      <trkpt lat="43.029539035633206" lon="-9.011334981769323">
        <ele>307.75999999999999</ele>
        <time>2025-04-30T14:06:48Z</time>
      </trkpt>
      <trkpt lat="43.029483966529369" lon="-9.011644022539258">
        <ele>308.72000000000003</ele>
        <time>2025-04-30T14:06:50Z</time>
      </trkpt>
      <trkpt lat="43.028744012117386" lon="-9.014265965670347">
        <ele>309.68000000000001</ele>
        <time>2025-04-30T14:07:07Z</time>
      </trkpt>
      <trkpt lat="43.028510995209217" lon="-9.015199039131403">
        <ele>310.63999999999999</ele>
        <time>2025-04-30T14:07:13Z</time>
      </trkpt>
      <trkpt lat="43.028490962460637" lon="-9.015355026349425">
        <ele>310.63999999999999</ele>
        <time>2025-04-30T14:07:14Z</time>
      </trkpt>
      <trkpt lat="43.028505966067314" lon="-9.015519982203841">
        <ele>311.12</ele>
        <time>2025-04-30T14:07:15Z</time>
      </trkpt>
      <trkpt lat="43.028524992987514" lon="-9.015678986907005">
        <ele>311.12</ele>
        <time>2025-04-30T14:07:16Z</time>
      </trkpt>
      <trkpt lat="43.028547959402204" lon="-9.015841009095311">
        <ele>311.60000000000002</ele>
        <time>2025-04-30T14:07:17Z</time>
      </trkpt>
      <trkpt lat="43.028791034594178" lon="-9.017469026148319">
        <ele>313.05000000000001</ele>
        <time>2025-04-30T14:07:27Z</time>
      </trkpt>
      <trkpt lat="43.028791034594178" lon="-9.017802961170673">
        <ele>312.56999999999999</ele>
        <time>2025-04-30T14:07:29Z</time>
      </trkpt>
      <trkpt lat="43.028806960210204" lon="-9.018635032698512">
        <ele>311.12</ele>
        <time>2025-04-30T14:07:34Z</time>
      </trkpt>
      <trkpt lat="43.028830010443926" lon="-9.018793031573296">
        <ele>310.63999999999999</ele>
        <time>2025-04-30T14:07:35Z</time>
      </trkpt>
      <trkpt lat="43.028877032920718" lon="-9.018944995477796">
        <ele>310.16000000000003</ele>
        <time>2025-04-30T14:07:36Z</time>
      </trkpt>
      <trkpt lat="43.028937969356775" lon="-9.019087990745902">
        <ele>309.68000000000001</ele>
        <time>2025-04-30T14:07:37Z</time>
      </trkpt>
      <trkpt lat="43.029001001268625" lon="-9.019228974357247">
        <ele>309.19999999999999</ele>
        <time>2025-04-30T14:07:38Z</time>
      </trkpt>
      <trkpt lat="43.029068978503346" lon="-9.019365012645721">
        <ele>308.72000000000003</ele>
        <time>2025-04-30T14:07:39Z</time>
      </trkpt>
      <trkpt lat="43.02978596650064" lon="-9.020894961431623">
        <ele>302.47000000000003</ele>
        <time>2025-04-30T14:07:50Z</time>
      </trkpt>
      <trkpt lat="43.03021302446723" lon="-9.022067002952099">
        <ele>300.55000000000001</ele>
        <time>2025-04-30T14:07:58Z</time>
      </trkpt>
      <trkpt lat="43.030238002538681" lon="-9.022229025140405">
        <ele>300.55000000000001</ele>
        <time>2025-04-30T14:07:59Z</time>
      </trkpt>
      <trkpt lat="43.030250994488597" lon="-9.022386018186808">
        <ele>300.06999999999999</ele>
        <time>2025-04-30T14:08:00Z</time>
      </trkpt>
      <trkpt lat="43.030250994488597" lon="-9.022553991526365">
        <ele>299.58999999999997</ele>
        <time>2025-04-30T14:08:01Z</time>
      </trkpt>
      <trkpt lat="43.030250994488597" lon="-9.022719031199813">
        <ele>299.58999999999997</ele>
        <time>2025-04-30T14:08:02Z</time>
      </trkpt>
      <trkpt lat="43.030240014195442" lon="-9.022879963740706">
        <ele>299.11000000000001</ele>
        <time>2025-04-30T14:08:03Z</time>
      </trkpt>
      <trkpt lat="43.03021696396172" lon="-9.02305799536407">
        <ele>298.63</ele>
        <time>2025-04-30T14:08:04Z</time>
      </trkpt>
      <trkpt lat="43.03019299171865" lon="-9.023248013108969">
        <ele>298.14999999999998</ele>
        <time>2025-04-30T14:08:05Z</time>
      </trkpt>
      <trkpt lat="43.029976990073919" lon="-9.025063030421734">
        <ele>296.22000000000003</ele>
        <time>2025-04-30T14:08:13Z</time>
      </trkpt>
      <trkpt lat="43.029985958710313" lon="-9.025320019572973">
        <ele>296.69999999999999</ele>
        <time>2025-04-30T14:08:14Z</time>
      </trkpt>
      <trkpt lat="43.030003979802132" lon="-9.025574997067452">
        <ele>297.18000000000001</ele>
        <time>2025-04-30T14:08:15Z</time>
      </trkpt>
      <trkpt lat="43.030061982572079" lon="-9.025820000097156">
        <ele>297.67000000000002</ele>
        <time>2025-04-30T14:08:16Z</time>
      </trkpt>
      <trkpt lat="43.030133983120322" lon="-9.026057040318847">
        <ele>298.14999999999998</ele>
        <time>2025-04-30T14:08:17Z</time>
      </trkpt>
      <trkpt lat="43.03021696396172" lon="-9.026291985064745">
        <ele>299.11000000000001</ele>
        <time>2025-04-30T14:08:18Z</time>
      </trkpt>
      <trkpt lat="43.030341016128659" lon="-9.026489965617657">
        <ele>300.06999999999999</ele>
        <time>2025-04-30T14:08:19Z</time>
      </trkpt>
      <trkpt lat="43.030473031103611" lon="-9.026679983362556">
        <ele>301.02999999999997</ele>
        <time>2025-04-30T14:08:20Z</time>
      </trkpt>
      <trkpt lat="43.030620971694589" lon="-9.026857009157538">
        <ele>301.99000000000001</ele>
        <time>2025-04-30T14:08:21Z</time>
      </trkpt>
      <trkpt lat="43.030770001932979" lon="-9.027035040780902">
        <ele>303.43000000000001</ele>
        <time>2025-04-30T14:08:22Z</time>
      </trkpt>
      <trkpt lat="43.030920037999749" lon="-9.027206031605601">
        <ele>304.88</ele>
        <time>2025-04-30T14:08:23Z</time>
      </trkpt>
      <trkpt lat="43.03182695992291" lon="-9.028203980997205">
        <ele>313.52999999999997</ele>
        <time>2025-04-30T14:08:30Z</time>
      </trkpt>
      <trkpt lat="43.03193299099803" lon="-9.028381006792188">
        <ele>314.49000000000001</ele>
        <time>2025-04-30T14:08:31Z</time>
      </trkpt>
      <trkpt lat="43.032031981274486" lon="-9.028562977910042">
        <ele>315.93000000000001</ele>
        <time>2025-04-30T14:08:32Z</time>
      </trkpt>
      <trkpt lat="43.032113034278154" lon="-9.028766993433237">
        <ele>316.88999999999999</ele>
        <time>2025-04-30T14:08:33Z</time>
      </trkpt>
      <trkpt lat="43.032189980149269" lon="-9.028976038098335">
        <ele>318.32999999999998</ele>
        <time>2025-04-30T14:08:34Z</time>
      </trkpt>
      <trkpt lat="43.032239014282823" lon="-9.029205031692982">
        <ele>319.77999999999997</ele>
        <time>2025-04-30T14:08:35Z</time>
      </trkpt>
      <trkpt lat="43.032282013446093" lon="-9.029437964782119">
        <ele>320.74000000000001</ele>
        <time>2025-04-30T14:08:36Z</time>
      </trkpt>
      <trkpt lat="43.032323000952601" lon="-9.029668970033526">
        <ele>322.18000000000001</ele>
        <time>2025-04-30T14:08:37Z</time>
      </trkpt>
      <trkpt lat="43.032503966242075" lon="-9.030344970524311">
        <ele>325.54000000000002</ele>
        <time>2025-04-30T14:08:40Z</time>
      </trkpt>
      <trkpt lat="43.032658025622368" lon="-9.030731962993741">
        <ele>327.94999999999999</ele>
        <time>2025-04-30T14:08:42Z</time>
      </trkpt>
      <trkpt lat="43.03277101367712" lon="-9.030888034030795">
        <ele>328.43000000000001</ele>
        <time>2025-04-30T14:08:43Z</time>
      </trkpt>
      <trkpt lat="43.032886013388634" lon="-9.031046032905579">
        <ele>329.38999999999999</ele>
        <time>2025-04-30T14:08:44Z</time>
      </trkpt>
      <trkpt lat="43.033375013619661" lon="-9.031599992886186">
        <ele>332.75</ele>
        <time>2025-04-30T14:08:48Z</time>
      </trkpt>
      <trkpt lat="43.033507028594613" lon="-9.031743993982673">
        <ele>333.23000000000002</ele>
        <time>2025-04-30T14:08:49Z</time>
      </trkpt>
      <trkpt lat="43.033756976947188" lon="-9.032058985903859">
        <ele>333.70999999999998</ele>
        <time>2025-04-30T14:08:51Z</time>
      </trkpt>
      <trkpt lat="43.033879017457366" lon="-9.032212039455771">
        <ele>333.70999999999998</ele>
        <time>2025-04-30T14:08:52Z</time>
      </trkpt>
      <trkpt lat="43.0339739844203" lon="-9.032399039715529">
        <ele>333.70999999999998</ele>
        <time>2025-04-30T14:08:53Z</time>
      </trkpt>
      <trkpt lat="43.034049002453685" lon="-9.032586961984634">
        <ele>333.70999999999998</ele>
        <time>2025-04-30T14:08:54Z</time>
      </trkpt>
      <trkpt lat="43.034108011052012" lon="-9.032773040235043">
        <ele>333.70999999999998</ele>
        <time>2025-04-30T14:08:55Z</time>
      </trkpt>
      <trkpt lat="43.034151010215282" lon="-9.032987030223012">
        <ele>333.70999999999998</ele>
        <time>2025-04-30T14:08:56Z</time>
      </trkpt>
      <trkpt lat="43.034199038520455" lon="-9.033224992454052">
        <ele>333.70999999999998</ele>
        <time>2025-04-30T14:08:57Z</time>
      </trkpt>
      <trkpt lat="43.034252012148499" lon="-9.033483993262053">
        <ele>333.70999999999998</ele>
        <time>2025-04-30T14:08:58Z</time>
      </trkpt>
      <trkpt lat="43.034599022939801" lon="-9.035376962274313">
        <ele>335.16000000000003</ele>
        <time>2025-04-30T14:09:04Z</time>
      </trkpt>
      <trkpt lat="43.035120964050293" lon="-9.038600977510214">
        <ele>341.88999999999999</ele>
        <time>2025-04-30T14:09:14Z</time>
      </trkpt>
      <trkpt lat="43.035729993134737" lon="-9.042253978550434">
        <ele>356.31</ele>
        <time>2025-04-30T14:09:26Z</time>
      </trkpt>
      <trkpt lat="43.035988993942738" lon="-9.044455988332629">
        <ele>368.80000000000001</ele>
        <time>2025-04-30T14:09:33Z</time>
      </trkpt>
      <trkpt lat="43.035957980901003" lon="-9.044781038537622">
        <ele>370.73000000000002</ele>
        <time>2025-04-30T14:09:34Z</time>
      </trkpt>
      <trkpt lat="43.035925962030888" lon="-9.045108016580343">
        <ele>373.13</ele>
        <time>2025-04-30T14:09:35Z</time>
      </trkpt>
      <trkpt lat="43.035878017544746" lon="-9.045428037643433">
        <ele>375.05000000000001</ele>
        <time>2025-04-30T14:09:36Z</time>
      </trkpt>
      <trkpt lat="43.035809034481645" lon="-9.045738000422716">
        <ele>377.44999999999999</ele>
        <time>2025-04-30T14:09:37Z</time>
      </trkpt>
      <trkpt lat="43.035700991749763" lon="-9.046018039807677">
        <ele>379.38</ele>
        <time>2025-04-30T14:09:38Z</time>
      </trkpt>
      <trkpt lat="43.035593032836914" lon="-9.046300007030368">
        <ele>381.30000000000001</ele>
        <time>2025-04-30T14:09:39Z</time>
      </trkpt>
      <trkpt lat="43.035485995933414" lon="-9.046576023101807">
        <ele>383.22000000000003</ele>
        <time>2025-04-30T14:09:40Z</time>
      </trkpt>
      <trkpt lat="43.035323973745108" lon="-9.046815996989608">
        <ele>385.14999999999998</ele>
        <time>2025-04-30T14:09:41Z</time>
      </trkpt>
      <trkpt lat="43.035166980698705" lon="-9.047047002241015">
        <ele>387.55000000000001</ele>
        <time>2025-04-30T14:09:42Z</time>
      </trkpt>
      <trkpt lat="43.03500697016716" lon="-9.047269960865378">
        <ele>389.47000000000003</ele>
        <time>2025-04-30T14:09:43Z</time>
      </trkpt>
      <trkpt lat="43.034827010706067" lon="-9.047470958903432">
        <ele>391.38999999999999</ele>
        <time>2025-04-30T14:09:44Z</time>
      </trkpt>
      <trkpt lat="43.034633975476027" lon="-9.047645973041654">
        <ele>393.80000000000001</ele>
        <time>2025-04-30T14:09:45Z</time>
      </trkpt>
      <trkpt lat="43.033704003319144" lon="-9.048592038452625">
        <ele>403.41000000000003</ele>
        <time>2025-04-30T14:09:50Z</time>
      </trkpt>
      <trkpt lat="43.033581040799618" lon="-9.048828994855285">
        <ele>404.85000000000002</ele>
        <time>2025-04-30T14:09:51Z</time>
      </trkpt>
      <trkpt lat="43.033460006117821" lon="-9.049081038683653">
        <ele>406.29000000000002</ele>
        <time>2025-04-30T14:09:52Z</time>
      </trkpt>
      <trkpt lat="43.033394040539861" lon="-9.049354959279299">
        <ele>407.74000000000001</ele>
        <time>2025-04-30T14:09:53Z</time>
      </trkpt>
      <trkpt lat="43.033326985314488" lon="-9.049628041684628">
        <ele>409.18000000000001</ele>
        <time>2025-04-30T14:09:54Z</time>
      </trkpt>
      <trkpt lat="43.033270994201303" lon="-9.049898022785783">
        <ele>409.66000000000003</ele>
        <time>2025-04-30T14:09:55Z</time>
      </trkpt>
      <trkpt lat="43.033247021958232" lon="-9.050174038857222">
        <ele>410.62</ele>
        <time>2025-04-30T14:09:56Z</time>
      </trkpt>
      <trkpt lat="43.033224977552891" lon="-9.050458017736673">
        <ele>411.57999999999998</ele>
        <time>2025-04-30T14:09:57Z</time>
      </trkpt>
      <trkpt lat="43.033211985602975" lon="-9.05075297690928">
        <ele>412.54000000000002</ele>
        <time>2025-04-30T14:09:58Z</time>
      </trkpt>
      <trkpt lat="43.033440979197621" lon="-9.05330996029079">
        <ele>408.22000000000003</ele>
        <time>2025-04-30T14:10:06Z</time>
      </trkpt>
      <trkpt lat="43.033621022477746" lon="-9.054519971832633">
        <ele>401.97000000000003</ele>
        <time>2025-04-30T14:10:10Z</time>
      </trkpt>
      <trkpt lat="43.033640971407294" lon="-9.054818032309413">
        <ele>401.00999999999999</ele>
        <time>2025-04-30T14:10:11Z</time>
      </trkpt>
      <trkpt lat="43.033633008599281" lon="-9.055115003138781">
        <ele>399.56999999999999</ele>
        <time>2025-04-30T14:10:12Z</time>
      </trkpt>
      <trkpt lat="43.033606018871069" lon="-9.055409962311387">
        <ele>398.12</ele>
        <time>2025-04-30T14:10:13Z</time>
      </trkpt>
      <trkpt lat="43.033579029142857" lon="-9.055709028616548">
        <ele>396.68000000000001</ele>
        <time>2025-04-30T14:10:14Z</time>
      </trkpt>
      <trkpt lat="43.033600989729166" lon="-9.0578009840101">
        <ele>387.06999999999999</ele>
        <time>2025-04-30T14:10:21Z</time>
      </trkpt>
      <trkpt lat="43.034165007993579" lon="-9.061579965054989">
        <ele>364.95999999999998</ele>
        <time>2025-04-30T14:10:33Z</time>
      </trkpt>
      <trkpt lat="43.034489974379539" lon="-9.062753012403846">
        <ele>358.23000000000002</ele>
        <time>2025-04-30T14:10:37Z</time>
      </trkpt>
      <trkpt lat="43.034614026546478" lon="-9.063027016818523">
        <ele>356.31</ele>
        <time>2025-04-30T14:10:38Z</time>
      </trkpt>
      <trkpt lat="43.035925962030888" lon="-9.065652983263135">
        <ele>338.04000000000002</ele>
        <time>2025-04-30T14:10:48Z</time>
      </trkpt>
      <trkpt lat="43.036503978073597" lon="-9.066616985946894">
        <ele>331.79000000000002</ele>
        <time>2025-04-30T14:10:52Z</time>
      </trkpt>
      <trkpt lat="43.036999013274908" lon="-9.06723003834486">
        <ele>326.99000000000001</ele>
        <time>2025-04-30T14:10:55Z</time>
      </trkpt>
      <trkpt lat="43.037189031019807" lon="-9.067393988370895">
        <ele>325.54000000000002</ele>
        <time>2025-04-30T14:10:56Z</time>
      </trkpt>
      <trkpt lat="43.037381982430816" lon="-9.067535977810621">
        <ele>324.10000000000002</ele>
        <time>2025-04-30T14:10:57Z</time>
      </trkpt>
      <trkpt lat="43.037595972418785" lon="-9.067649971693754">
        <ele>322.66000000000003</ele>
        <time>2025-04-30T14:10:58Z</time>
      </trkpt>
      <trkpt lat="43.037808034569025" lon="-9.067763965576887">
        <ele>321.22000000000003</ele>
        <time>2025-04-30T14:10:59Z</time>
      </trkpt>
      <trkpt lat="43.03943001665175" lon="-9.068779014050961">
        <ele>312.56999999999999</ele>
        <time>2025-04-30T14:11:07Z</time>
      </trkpt>
      <trkpt lat="43.041590033099055" lon="-9.070005035027862">
        <ele>305.36000000000001</ele>
        <time>2025-04-30T14:11:17Z</time>
      </trkpt>
      <trkpt lat="43.043824983760715" lon="-9.071218986064196">
        <ele>300.55000000000001</ele>
        <time>2025-04-30T14:11:27Z</time>
      </trkpt>
      <trkpt lat="43.044223040342331" lon="-9.071536995470524">
        <ele>299.11000000000001</ele>
        <time>2025-04-30T14:11:29Z</time>
      </trkpt>
      <trkpt lat="43.044386990368366" lon="-9.071747967973352">
        <ele>298.63</ele>
        <time>2025-04-30T14:11:30Z</time>
      </trkpt>
      <trkpt lat="43.045925991609693" lon="-9.073572037741542">
        <ele>289.49000000000001</ele>
        <time>2025-04-30T14:11:39Z</time>
      </trkpt>
      <trkpt lat="43.046115003526211" lon="-9.073727019131184">
        <ele>288.52999999999997</ele>
        <time>2025-04-30T14:11:40Z</time>
      </trkpt>
      <trkpt lat="43.046321030706167" lon="-9.073843024671078">
        <ele>287.56999999999999</ele>
        <time>2025-04-30T14:11:41Z</time>
      </trkpt>
      <trkpt lat="43.046527979895473" lon="-9.073960036039352">
        <ele>286.61000000000001</ele>
        <time>2025-04-30T14:11:42Z</time>
      </trkpt>
      <trkpt lat="43.046745993196964" lon="-9.074035976082087">
        <ele>285.17000000000002</ele>
        <time>2025-04-30T14:11:43Z</time>
      </trkpt>
      <trkpt lat="43.046963000670075" lon="-9.074096996337175">
        <ele>284.20999999999998</ele>
        <time>2025-04-30T14:11:44Z</time>
      </trkpt>
      <trkpt lat="43.047888027504086" lon="-9.074345016852021">
        <ele>277.95999999999998</ele>
        <time>2025-04-30T14:11:48Z</time>
      </trkpt>
      <trkpt lat="43.048119032755494" lon="-9.074435960501432">
        <ele>276.51999999999998</ele>
        <time>2025-04-30T14:11:49Z</time>
      </trkpt>
      <trkpt lat="43.048341991379857" lon="-9.074562024325132">
        <ele>275.06999999999999</ele>
        <time>2025-04-30T14:11:50Z</time>
      </trkpt>
      <trkpt lat="43.04998098872602" lon="-9.075686959549785">
        <ele>263.06</ele>
        <time>2025-04-30T14:11:58Z</time>
      </trkpt>
      <trkpt lat="43.051160993054509" lon="-9.076597988605499">
        <ele>253.93000000000001</ele>
        <time>2025-04-30T14:12:04Z</time>
      </trkpt>
      <trkpt lat="43.051317986100912" lon="-9.076775014400482">
        <ele>252.47999999999999</ele>
        <time>2025-04-30T14:12:05Z</time>
      </trkpt>
      <trkpt lat="43.051448995247483" lon="-9.076979029923677">
        <ele>251.03999999999999</ele>
        <time>2025-04-30T14:12:06Z</time>
      </trkpt>
      <trkpt lat="43.051535999402404" lon="-9.077214980497956">
        <ele>249.59999999999999</ele>
        <time>2025-04-30T14:12:07Z</time>
      </trkpt>
      <trkpt lat="43.051624009385705" lon="-9.07745897769928">
        <ele>248.63999999999999</ele>
        <time>2025-04-30T14:12:08Z</time>
      </trkpt>
      <trkpt lat="43.051711013540626" lon="-9.077711021527648">
        <ele>247.68000000000001</ele>
        <time>2025-04-30T14:12:09Z</time>
      </trkpt>
      <trkpt lat="43.051754012703896" lon="-9.0779950004071">
        <ele>246.72</ele>
        <time>2025-04-30T14:12:10Z</time>
      </trkpt>
      <trkpt lat="43.051798017695546" lon="-9.078285014256835">
        <ele>245.75</ele>
        <time>2025-04-30T14:12:11Z</time>
      </trkpt>
      <trkpt lat="43.051873035728931" lon="-9.078860012814403">
        <ele>244.31</ele>
        <time>2025-04-30T14:12:13Z</time>
      </trkpt>
      <trkpt lat="43.052124995738268" lon="-9.080625995993614">
        <ele>239.50999999999999</ele>
        <time>2025-04-30T14:12:19Z</time>
      </trkpt>
      <trkpt lat="43.052211999893188" lon="-9.080878039821982">
        <ele>238.53999999999999</ele>
        <time>2025-04-30T14:12:20Z</time>
      </trkpt>
      <trkpt lat="43.052308978512883" lon="-9.081143997609615">
        <ele>238.06</ele>
        <time>2025-04-30T14:12:21Z</time>
      </trkpt>
      <trkpt lat="43.053225036710501" lon="-9.082420980557799">
        <ele>232.78</ele>
        <time>2025-04-30T14:12:27Z</time>
      </trkpt>
      <trkpt lat="43.053410025313497" lon="-9.082560958340764">
        <ele>231.81</ele>
        <time>2025-04-30T14:12:28Z</time>
      </trkpt>
      <trkpt lat="43.053609011694789" lon="-9.08265701495111">
        <ele>230.84999999999999</ele>
        <time>2025-04-30T14:12:29Z</time>
      </trkpt>
      <trkpt lat="43.054031962528825" lon="-9.082779977470636">
        <ele>229.41</ele>
        <time>2025-04-30T14:12:31Z</time>
      </trkpt>
      <trkpt lat="43.054255004972219" lon="-9.082789029926062">
        <ele>228.44999999999999</ele>
        <time>2025-04-30T14:12:32Z</time>
      </trkpt>
      <trkpt lat="43.055121023207903" lon="-9.082818031311035">
        <ele>223.63999999999999</ele>
        <time>2025-04-30T14:12:36Z</time>
      </trkpt>
      <trkpt lat="43.055335013195872" lon="-9.082890031859279">
        <ele>222.19999999999999</ele>
        <time>2025-04-30T14:12:37Z</time>
      </trkpt>
      <trkpt lat="43.055570963770151" lon="-9.082967983558774">
        <ele>220.75999999999999</ele>
        <time>2025-04-30T14:12:38Z</time>
      </trkpt>
      <trkpt lat="43.057190012186766" lon="-9.083960987627506">
        <ele>216.91</ele>
        <time>2025-04-30T14:12:46Z</time>
      </trkpt>
      <trkpt lat="43.058155020698905" lon="-9.084903029724956">
        <ele>221.72</ele>
        <time>2025-04-30T14:12:53Z</time>
      </trkpt>
      <trkpt lat="43.05842399597168" lon="-9.085200000554323">
        <ele>222.68000000000001</ele>
        <time>2025-04-30T14:12:56Z</time>
      </trkpt>
      <trkpt lat="43.058473030105233" lon="-9.085296979174018">
        <ele>222.68000000000001</ele>
        <time>2025-04-30T14:12:57Z</time>
      </trkpt>
      <trkpt lat="43.058514017611742" lon="-9.085379960015416">
        <ele>223.16</ele>
        <time>2025-04-30T14:12:58Z</time>
      </trkpt>
      <trkpt lat="43.058546958491206" lon="-9.085446009412408">
        <ele>223.16</ele>
        <time>2025-04-30T14:12:59Z</time>
      </trkpt>
      <trkpt lat="43.05857403203845" lon="-9.085498983040452">
        <ele>223.16</ele>
        <time>2025-04-30T14:13:00Z</time>
      </trkpt>
      <trkpt lat="43.05859599262476" lon="-9.085542988032103">
        <ele>223.16</ele>
        <time>2025-04-30T14:13:01Z</time>
      </trkpt>
      <trkpt lat="43.058624994009733" lon="-9.085599984973669">
        <ele>223.16</ele>
        <time>2025-04-30T14:13:09Z</time>
      </trkpt>
      <trkpt lat="43.058661036193371" lon="-9.085671985521913">
        <ele>223.16</ele>
        <time>2025-04-30T14:13:16Z</time>
      </trkpt>
      <trkpt lat="43.058661036193371" lon="-9.085671985521913">
        <ele>223.16</ele>
        <time>2025-04-30T14:13:17Z</time>
      </trkpt>
      <trkpt lat="43.058635974302888" lon="-9.085694029927254">
        <ele>223.16</ele>
        <time>2025-04-30T14:13:18Z</time>
      </trkpt>
      <trkpt lat="43.05857302621007" lon="-9.08575102686882">
        <ele>223.16</ele>
        <time>2025-04-30T14:13:19Z</time>
      </trkpt>
      <trkpt lat="43.058497002348304" lon="-9.085820009931922">
        <ele>223.16</ele>
        <time>2025-04-30T14:13:20Z</time>
      </trkpt>
      <trkpt lat="43.058413015678525" lon="-9.085892010480166">
        <ele>223.63999999999999</ele>
        <time>2025-04-30T14:13:21Z</time>
      </trkpt>
      <trkpt lat="43.058291980996728" lon="-9.085953030735254">
        <ele>223.63999999999999</ele>
        <time>2025-04-30T14:13:22Z</time>
      </trkpt>
      <trkpt lat="43.057376006618142" lon="-9.086573962122202">
        <ele>226.05000000000001</ele>
        <time>2025-04-30T14:13:28Z</time>
      </trkpt>
      <trkpt lat="43.057234017178416" lon="-9.086731960996985">
        <ele>227.00999999999999</ele>
        <time>2025-04-30T14:13:29Z</time>
      </trkpt>
      <trkpt lat="43.057103008031845" lon="-9.086904041469097">
        <ele>227.49000000000001</ele>
        <time>2025-04-30T14:13:30Z</time>
      </trkpt>
      <trkpt lat="43.056965041905642" lon="-9.087088024243712">
        <ele>227.97</ele>
        <time>2025-04-30T14:13:31Z</time>
      </trkpt>
      <trkpt lat="43.056858005002141" lon="-9.087289022281766">
        <ele>228.44999999999999</ele>
        <time>2025-04-30T14:13:32Z</time>
      </trkpt>
      <trkpt lat="43.056757003068924" lon="-9.08751298673451">
        <ele>228.93000000000001</ele>
        <time>2025-04-30T14:13:33Z</time>
      </trkpt>
      <trkpt lat="43.056671004742384" lon="-9.087755978107452">
        <ele>229.88999999999999</ele>
        <time>2025-04-30T14:13:34Z</time>
      </trkpt>
      <trkpt lat="43.056582994759083" lon="-9.088003998622298">
        <ele>229.88999999999999</ele>
        <time>2025-04-30T14:13:35Z</time>
      </trkpt>
      <trkpt lat="43.056520968675613" lon="-9.088273979723454">
        <ele>230.84999999999999</ele>
        <time>2025-04-30T14:13:36Z</time>
      </trkpt>
      <trkpt lat="43.05646900087595" lon="-9.088553013280034">
        <ele>231.33000000000001</ele>
        <time>2025-04-30T14:13:37Z</time>
      </trkpt>
      <trkpt lat="43.055849997326732" lon="-9.09112399443984">
        <ele>235.18000000000001</ele>
        <time>2025-04-30T14:13:46Z</time>
      </trkpt>
      <trkpt lat="43.054822040721774" lon="-9.094362007454038">
        <ele>236.13999999999999</ele>
        <time>2025-04-30T14:13:57Z</time>
      </trkpt>
      <trkpt lat="43.054257016628981" lon="-9.095777040347457">
        <ele>234.69999999999999</ele>
        <time>2025-04-30T14:14:02Z</time>
      </trkpt>
      <trkpt lat="43.054108992218971" lon="-9.096017014235258">
        <ele>234.22</ele>
        <time>2025-04-30T14:14:03Z</time>
      </trkpt>
      <trkpt lat="43.053920986130834" lon="-9.096205020323396">
        <ele>233.74000000000001</ele>
        <time>2025-04-30T14:14:04Z</time>
      </trkpt>
      <trkpt lat="43.053732980042696" lon="-9.096390008926392">
        <ele>232.78</ele>
        <time>2025-04-30T14:14:05Z</time>
      </trkpt>
      <trkpt lat="43.053530976176262" lon="-9.096552031114698">
        <ele>231.81</ele>
        <time>2025-04-30T14:14:06Z</time>
      </trkpt>
      <trkpt lat="43.053322015330195" lon="-9.096697960048914">
        <ele>230.37</ele>
        <time>2025-04-30T14:14:07Z</time>
      </trkpt>
      <trkpt lat="43.05309796705842" lon="-9.096830980852246">
        <ele>229.41</ele>
        <time>2025-04-30T14:14:08Z</time>
      </trkpt>
      <trkpt lat="43.050978016108274" lon="-9.098204020410776">
        <ele>220.75999999999999</ele>
        <time>2025-04-30T14:14:18Z</time>
      </trkpt>
      <trkpt lat="43.049989035353065" lon="-9.099570019170642">
        <ele>215.94999999999999</ele>
        <time>2025-04-30T14:14:24Z</time>
      </trkpt>
      <trkpt lat="43.048649020493031" lon="-9.101962968707085">
        <ele>204.41999999999999</ele>
        <time>2025-04-30T14:14:34Z</time>
      </trkpt>
      <trkpt lat="43.047599019482732" lon="-9.103372972458601">
        <ele>196.72999999999999</ele>
        <time>2025-04-30T14:14:40Z</time>
      </trkpt>
      <trkpt lat="43.045988017693162" lon="-9.105257978662849">
        <ele>185.19</ele>
        <time>2025-04-30T14:14:48Z</time>
      </trkpt>
      <trkpt lat="43.045244039967656" lon="-9.105970021337271">
        <ele>182.31</ele>
        <time>2025-04-30T14:14:52Z</time>
      </trkpt>
      <trkpt lat="43.045068020001054" lon="-9.106090972200036">
        <ele>181.83000000000001</ele>
        <time>2025-04-30T14:14:53Z</time>
      </trkpt>
      <trkpt lat="43.044883031398058" lon="-9.106168001890183">
        <ele>181.83000000000001</ele>
        <time>2025-04-30T14:14:54Z</time>
      </trkpt>
      <trkpt lat="43.04469795897603" lon="-9.106232961639762">
        <ele>181.34999999999999</ele>
        <time>2025-04-30T14:14:55Z</time>
      </trkpt>
      <trkpt lat="43.044510958716273" lon="-9.106299011036754">
        <ele>181.34999999999999</ele>
        <time>2025-04-30T14:14:56Z</time>
      </trkpt>
      <trkpt lat="43.042970029637218" lon="-9.107066038995981">
        <ele>181.34999999999999</ele>
        <time>2025-04-30T14:15:04Z</time>
      </trkpt>
      <trkpt lat="43.041364978998899" lon="-9.108567992225289">
        <ele>185.19</ele>
        <time>2025-04-30T14:15:13Z</time>
      </trkpt>
      <trkpt lat="43.040105011314154" lon="-9.10951497964561">
        <ele>188.56</ele>
        <time>2025-04-30T14:15:20Z</time>
      </trkpt>
      <trkpt lat="43.038472970947623" lon="-9.110019989311695">
        <ele>193.36000000000001</ele>
        <time>2025-04-30T14:15:28Z</time>
      </trkpt>
      <trkpt lat="43.036200972273946" lon="-9.110702024772763">
        <ele>200.09</ele>
        <time>2025-04-30T14:15:39Z</time>
      </trkpt>
      <trkpt lat="43.034224016591907" lon="-9.11190097220242">
        <ele>207.30000000000001</ele>
        <time>2025-04-30T14:15:50Z</time>
      </trkpt>
      <trkpt lat="43.031929973512888" lon="-9.113390017300844">
        <ele>213.06999999999999</ele>
        <time>2025-04-30T14:16:03Z</time>
      </trkpt>
      <trkpt lat="43.031367966905236" lon="-9.113695034757257">
        <ele>214.99000000000001</ele>
        <time>2025-04-30T14:16:06Z</time>
      </trkpt>
      <trkpt lat="43.031169986352324" lon="-9.113735016435385">
        <ele>215.47</ele>
        <time>2025-04-30T14:16:07Z</time>
      </trkpt>
      <trkpt lat="43.030969994142652" lon="-9.113774998113513">
        <ele>215.94999999999999</ele>
        <time>2025-04-30T14:16:08Z</time>
      </trkpt>
      <trkpt lat="43.030768996104598" lon="-9.113814979791641">
        <ele>216.43000000000001</ele>
        <time>2025-04-30T14:16:09Z</time>
      </trkpt>
      <trkpt lat="43.030563974753022" lon="-9.113802993670106">
        <ele>216.91</ele>
        <time>2025-04-30T14:16:10Z</time>
      </trkpt>
      <trkpt lat="43.030353002250195" lon="-9.113773992285132">
        <ele>216.91</ele>
        <time>2025-04-30T14:16:11Z</time>
      </trkpt>
      <trkpt lat="43.030144963413477" lon="-9.113714983686805">
        <ele>217.40000000000001</ele>
        <time>2025-04-30T14:16:12Z</time>
      </trkpt>
      <trkpt lat="43.029950000345707" lon="-9.113630997017026">
        <ele>217.88</ele>
        <time>2025-04-30T14:16:13Z</time>
      </trkpt>
      <trkpt lat="43.029743973165751" lon="-9.113486995920539">
        <ele>217.88</ele>
        <time>2025-04-30T14:16:14Z</time>
      </trkpt>
      <trkpt lat="43.029544986784458" lon="-9.113348023965955">
        <ele>217.88</ele>
        <time>2025-04-30T14:16:15Z</time>
      </trkpt>
      <trkpt lat="43.029358992353082" lon="-9.113189019262791">
        <ele>218.36000000000001</ele>
        <time>2025-04-30T14:16:16Z</time>
      </trkpt>
      <trkpt lat="43.027913030236959" lon="-9.111961992457509">
        <ele>220.28</ele>
        <time>2025-04-30T14:16:24Z</time>
      </trkpt>
      <trkpt lat="43.027556966990232" lon="-9.111708020791411">
        <ele>220.75999999999999</ele>
        <time>2025-04-30T14:16:26Z</time>
      </trkpt>
      <trkpt lat="43.027365021407604" lon="-9.111636020243168">
        <ele>221.24000000000001</ele>
        <time>2025-04-30T14:16:27Z</time>
      </trkpt>
      <trkpt lat="43.027181960642338" lon="-9.111570976674557">
        <ele>221.72</ele>
        <time>2025-04-30T14:16:28Z</time>
      </trkpt>
      <trkpt lat="43.02699001505971" lon="-9.111553961411119">
        <ele>221.72</ele>
        <time>2025-04-30T14:16:29Z</time>
      </trkpt>
      <trkpt lat="43.026799997314811" lon="-9.111537029966712">
        <ele>222.19999999999999</ele>
        <time>2025-04-30T14:16:30Z</time>
      </trkpt>
      <trkpt lat="43.026615008711815" lon="-9.111544992774725">
        <ele>222.68000000000001</ele>
        <time>2025-04-30T14:16:31Z</time>
      </trkpt>
      <trkpt lat="43.026427002623677" lon="-9.111578017473221">
        <ele>222.68000000000001</ele>
        <time>2025-04-30T14:16:32Z</time>
      </trkpt>
      <trkpt lat="43.026248971000314" lon="-9.111630991101265">
        <ele>222.68000000000001</ele>
        <time>2025-04-30T14:16:33Z</time>
      </trkpt>
      <trkpt lat="43.026070017367601" lon="-9.111702991649509">
        <ele>223.16</ele>
        <time>2025-04-30T14:16:34Z</time>
      </trkpt>
      <trkpt lat="43.025888968259096" lon="-9.111774992197752">
        <ele>223.16</ele>
        <time>2025-04-30T14:16:35Z</time>
      </trkpt>
      <trkpt lat="43.023458970710635" lon="-9.112971005961299">
        <ele>218.36000000000001</ele>
        <time>2025-04-30T14:16:48Z</time>
      </trkpt>
      <trkpt lat="43.021897003054619" lon="-9.113749014213681">
        <ele>216.91</ele>
        <time>2025-04-30T14:16:57Z</time>
      </trkpt>
      <trkpt lat="43.021430969238281" lon="-9.114082027226687">
        <ele>217.40000000000001</ele>
        <time>2025-04-30T14:17:00Z</time>
      </trkpt>
      <trkpt lat="43.021283028647304" lon="-9.114239020273089">
        <ele>217.40000000000001</ele>
        <time>2025-04-30T14:17:01Z</time>
      </trkpt>
      <trkpt lat="43.021142967045307" lon="-9.114411016926169">
        <ele>217.40000000000001</ele>
        <time>2025-04-30T14:17:02Z</time>
      </trkpt>
      <trkpt lat="43.020899975672364" lon="-9.114800021052361">
        <ele>217.40000000000001</ele>
        <time>2025-04-30T14:17:04Z</time>
      </trkpt>
      <trkpt lat="43.020787993445992" lon="-9.114982997998595">
        <ele>217.40000000000001</ele>
        <time>2025-04-30T14:17:05Z</time>
      </trkpt>
      <trkpt lat="43.020710041746497" lon="-9.115215009078383">
        <ele>217.40000000000001</ele>
        <time>2025-04-30T14:17:06Z</time>
      </trkpt>
      <trkpt lat="43.020634017884731" lon="-9.11544400267303">
        <ele>216.91</ele>
        <time>2025-04-30T14:17:07Z</time>
      </trkpt>
      <trkpt lat="43.020556988194585" lon="-9.115675007924438">
        <ele>216.91</ele>
        <time>2025-04-30T14:17:08Z</time>
      </trkpt>
      <trkpt lat="43.019866989925504" lon="-9.117753971368074">
        <ele>212.11000000000001</ele>
        <time>2025-04-30T14:17:17Z</time>
      </trkpt>
      <trkpt lat="43.019026033580303" lon="-9.118869015946984">
        <ele>207.30000000000001</ele>
        <time>2025-04-30T14:17:23Z</time>
      </trkpt>
      <trkpt lat="43.017578981816769" lon="-9.119922034442425">
        <ele>196.72999999999999</ele>
        <time>2025-04-30T14:17:31Z</time>
      </trkpt>
      <trkpt lat="43.017117977142334" lon="-9.120518993586302">
        <ele>191.44</ele>
        <time>2025-04-30T14:17:34Z</time>
      </trkpt>
      <trkpt lat="43.017005994915962" lon="-9.120716974139214">
        <ele>190</ele>
        <time>2025-04-30T14:17:35Z</time>
      </trkpt>
      <trkpt lat="43.016892001032829" lon="-9.120958037674427">
        <ele>188.08000000000001</ele>
        <time>2025-04-30T14:17:36Z</time>
      </trkpt>
      <trkpt lat="43.016790999099612" lon="-9.121207986027002">
        <ele>186.15000000000001</ele>
        <time>2025-04-30T14:17:37Z</time>
      </trkpt>
      <trkpt lat="43.016726961359382" lon="-9.121488025411964">
        <ele>184.71000000000001</ele>
        <time>2025-04-30T14:17:38Z</time>
      </trkpt>
      <trkpt lat="43.016668036580086" lon="-9.121768986806274">
        <ele>182.78999999999999</ele>
        <time>2025-04-30T14:17:39Z</time>
      </trkpt>
      <trkpt lat="43.016598969697952" lon="-9.122056988999248">
        <ele>180.87</ele>
        <time>2025-04-30T14:17:40Z</time>
      </trkpt>
      <trkpt lat="43.016134025529027" lon="-9.124458990991116">
        <ele>166.44999999999999</ele>
        <time>2025-04-30T14:17:48Z</time>
      </trkpt>
      <trkpt lat="43.015738986432552" lon="-9.125942001119256">
        <ele>161.16</ele>
        <time>2025-04-30T14:17:53Z</time>
      </trkpt>
      <trkpt lat="43.015326010063291" lon="-9.126710034906864">
        <ele>159.72</ele>
        <time>2025-04-30T14:17:56Z</time>
      </trkpt>
      <trkpt lat="43.015176979824901" lon="-9.126941040158272">
        <ele>159.24000000000001</ele>
        <time>2025-04-30T14:17:57Z</time>
      </trkpt>
      <trkpt lat="43.014149023219943" lon="-9.128197990357876">
        <ele>161.63999999999999</ele>
        <time>2025-04-30T14:18:03Z</time>
      </trkpt>
      <trkpt lat="43.014008961617947" lon="-9.128445005044341">
        <ele>162.59999999999999</ele>
        <time>2025-04-30T14:18:04Z</time>
      </trkpt>
      <trkpt lat="43.01388499327004" lon="-9.128703000023961">
        <ele>163.56</ele>
        <time>2025-04-30T14:18:05Z</time>
      </trkpt>
      <trkpt lat="43.013801006600261" lon="-9.128997959196568">
        <ele>164.52000000000001</ele>
        <time>2025-04-30T14:18:06Z</time>
      </trkpt>
      <trkpt lat="43.013717019930482" lon="-9.129293002188206">
        <ele>165.47999999999999</ele>
        <time>2025-04-30T14:18:07Z</time>
      </trkpt>
      <trkpt lat="43.013676032423973" lon="-9.129593996331096">
        <ele>166.93000000000001</ele>
        <time>2025-04-30T14:18:08Z</time>
      </trkpt>
      <trkpt lat="43.013665974140167" lon="-9.12990303710103">
        <ele>167.88999999999999</ele>
        <time>2025-04-30T14:18:09Z</time>
      </trkpt>
      <trkpt lat="43.013680977746844" lon="-9.130212999880314">
        <ele>169.33000000000001</ele>
        <time>2025-04-30T14:18:10Z</time>
      </trkpt>
      <trkpt lat="43.013737974688411" lon="-9.130506031215191">
        <ele>170.28999999999999</ele>
        <time>2025-04-30T14:18:11Z</time>
      </trkpt>
      <trkpt lat="43.013812992721796" lon="-9.130796967074275">
        <ele>171.72999999999999</ele>
        <time>2025-04-30T14:18:12Z</time>
      </trkpt>
      <trkpt lat="43.013919023796916" lon="-9.131068959832192">
        <ele>173.16999999999999</ele>
        <time>2025-04-30T14:18:13Z</time>
      </trkpt>
      <trkpt lat="43.014039974659681" lon="-9.131332989782095">
        <ele>174.62</ele>
        <time>2025-04-30T14:18:14Z</time>
      </trkpt>
      <trkpt lat="43.014180036261678" lon="-9.131582016125321">
        <ele>176.53999999999999</ele>
        <time>2025-04-30T14:18:15Z</time>
      </trkpt>
      <trkpt lat="43.014337029308081" lon="-9.131800029426813">
        <ele>177.97999999999999</ele>
        <time>2025-04-30T14:18:16Z</time>
      </trkpt>
      <trkpt lat="43.014915967360139" lon="-9.132608966901898">
        <ele>184.22999999999999</ele>
        <time>2025-04-30T14:18:20Z</time>
      </trkpt>
      <trkpt lat="43.015032978728414" lon="-9.132851036265492">
        <ele>185.19</ele>
        <time>2025-04-30T14:18:21Z</time>
      </trkpt>
      <trkpt lat="43.015131969004869" lon="-9.133113976567984">
        <ele>186.63</ele>
        <time>2025-04-30T14:18:22Z</time>
      </trkpt>
      <trkpt lat="43.015230037271976" lon="-9.133371971547604">
        <ele>188.08000000000001</ele>
        <time>2025-04-30T14:18:23Z</time>
      </trkpt>
      <trkpt lat="43.01525903865695" lon="-9.133638013154268">
        <ele>189.03999999999999</ele>
        <time>2025-04-30T14:18:24Z</time>
      </trkpt>
      <trkpt lat="43.015288040041924" lon="-9.133913023397327">
        <ele>190</ele>
        <time>2025-04-30T14:18:25Z</time>
      </trkpt>
      <trkpt lat="43.015294997021556" lon="-9.134184010326862">
        <ele>190.96000000000001</ele>
        <time>2025-04-30T14:18:26Z</time>
      </trkpt>
      <trkpt lat="43.015279993414879" lon="-9.134448962286115">
        <ele>191.91999999999999</ele>
        <time>2025-04-30T14:18:27Z</time>
      </trkpt>
      <trkpt lat="43.015225008130074" lon="-9.134710980579257">
        <ele>192.88</ele>
        <time>2025-04-30T14:18:28Z</time>
      </trkpt>
      <trkpt lat="43.015170022845268" lon="-9.134966963902116">
        <ele>193.84</ele>
        <time>2025-04-30T14:18:29Z</time>
      </trkpt>
      <trkpt lat="43.015100033953786" lon="-9.135204004123807">
        <ele>194.80000000000001</ele>
        <time>2025-04-30T14:18:30Z</time>
      </trkpt>
      <trkpt lat="43.015009006485343" lon="-9.135439032688737">
        <ele>195.28</ele>
        <time>2025-04-30T14:18:31Z</time>
      </trkpt>
      <trkpt lat="43.014908004552126" lon="-9.135689986869693">
        <ele>195.77000000000001</ele>
        <time>2025-04-30T14:18:32Z</time>
      </trkpt>
      <trkpt lat="43.014521012082696" lon="-9.136636974290013">
        <ele>196.72999999999999</ele>
        <time>2025-04-30T14:18:36Z</time>
      </trkpt>
      <trkpt lat="43.014435013756156" lon="-9.136895975098014">
        <ele>196.72999999999999</ele>
        <time>2025-04-30T14:18:37Z</time>
      </trkpt>
      <trkpt lat="43.01408096216619" lon="-9.138273959979415">
        <ele>194.80000000000001</ele>
        <time>2025-04-30T14:18:42Z</time>
      </trkpt>
      <trkpt lat="43.013981971889734" lon="-9.138531032949686">
        <ele>193.36000000000001</ele>
        <time>2025-04-30T14:18:43Z</time>
      </trkpt>
      <trkpt lat="43.013861021026969" lon="-9.138783998787403">
        <ele>192.40000000000001</ele>
        <time>2025-04-30T14:18:44Z</time>
      </trkpt>
      <trkpt lat="43.01373403519392" lon="-9.139022966846824">
        <ele>191.44</ele>
        <time>2025-04-30T14:18:45Z</time>
      </trkpt>
      <trkpt lat="43.013576958328485" lon="-9.139235028997064">
        <ele>190.47999999999999</ele>
        <time>2025-04-30T14:18:46Z</time>
      </trkpt>
      <trkpt lat="43.013417031615973" lon="-9.139450024813414">
        <ele>189.03999999999999</ele>
        <time>2025-04-30T14:18:47Z</time>
      </trkpt>
      <trkpt lat="43.012976981699467" lon="-9.14013197645545">
        <ele>184.71000000000001</ele>
        <time>2025-04-30T14:18:50Z</time>
      </trkpt>
      <trkpt lat="43.012859970331192" lon="-9.140408998355269">
        <ele>183.27000000000001</ele>
        <time>2025-04-30T14:18:51Z</time>
      </trkpt>
      <trkpt lat="43.012743964791298" lon="-9.140681996941567">
        <ele>181.83000000000001</ele>
        <time>2025-04-30T14:18:52Z</time>
      </trkpt>
      <trkpt lat="43.012666013091803" lon="-9.140980979427695">
        <ele>179.90000000000001</ele>
        <time>2025-04-30T14:18:53Z</time>
      </trkpt>
      <trkpt lat="43.012589989230037" lon="-9.141280967742205">
        <ele>178.46000000000001</ele>
        <time>2025-04-30T14:18:54Z</time>
      </trkpt>
      <trkpt lat="43.012559982016683" lon="-9.141592020168901">
        <ele>177.02000000000001</ele>
        <time>2025-04-30T14:18:55Z</time>
      </trkpt>
      <trkpt lat="43.012528968974948" lon="-9.141903994604945">
        <ele>175.09999999999999</ele>
        <time>2025-04-30T14:18:56Z</time>
      </trkpt>
      <trkpt lat="43.012555036693811" lon="-9.142220998182893">
        <ele>173.66</ele>
        <time>2025-04-30T14:18:57Z</time>
      </trkpt>
      <trkpt lat="43.012586971744895" lon="-9.142541019245982">
        <ele>171.72999999999999</ele>
        <time>2025-04-30T14:18:58Z</time>
      </trkpt>
      <trkpt lat="43.012648997828364" lon="-9.142851987853646">
        <ele>170.28999999999999</ele>
        <time>2025-04-30T14:18:59Z</time>
      </trkpt>
      <trkpt lat="43.012714963406324" lon="-9.143163962289691">
        <ele>168.37</ele>
        <time>2025-04-30T14:19:00Z</time>
      </trkpt>
      <trkpt lat="43.012933982536197" lon="-9.144401969388127">
        <ele>161.63999999999999</ele>
        <time>2025-04-30T14:19:04Z</time>
      </trkpt>
      <trkpt lat="43.01291897892952" lon="-9.14468402042985">
        <ele>160.19999999999999</ele>
        <time>2025-04-30T14:19:05Z</time>
      </trkpt>
      <trkpt lat="43.012901963666081" lon="-9.144981997087598">
        <ele>158.75</ele>
        <time>2025-04-30T14:19:06Z</time>
      </trkpt>
      <trkpt lat="43.012866005301476" lon="-9.145278967916966">
        <ele>157.78999999999999</ele>
        <time>2025-04-30T14:19:07Z</time>
      </trkpt>
      <trkpt lat="43.012797022238374" lon="-9.145568981766701">
        <ele>156.83000000000001</ele>
        <time>2025-04-30T14:19:08Z</time>
      </trkpt>
      <trkpt lat="43.012714041396976" lon="-9.14584600366652">
        <ele>155.87</ele>
        <time>2025-04-30T14:19:09Z</time>
      </trkpt>
      <trkpt lat="43.01261899061501" lon="-9.146106010302901">
        <ele>154.91</ele>
        <time>2025-04-30T14:19:10Z</time>
      </trkpt>
      <trkpt lat="43.012487981468439" lon="-9.146337015554309">
        <ele>153.94999999999999</ele>
        <time>2025-04-30T14:19:11Z</time>
      </trkpt>
      <trkpt lat="43.012340040877461" lon="-9.146549999713898">
        <ele>152.99000000000001</ele>
        <time>2025-04-30T14:19:12Z</time>
      </trkpt>
      <trkpt lat="43.012192016467452" lon="-9.146755021065474">
        <ele>152.03</ele>
        <time>2025-04-30T14:19:13Z</time>
      </trkpt>
      <trkpt lat="43.012041980400681" lon="-9.146945038810372">
        <ele>151.53999999999999</ele>
        <time>2025-04-30T14:19:14Z</time>
      </trkpt>
      <trkpt lat="43.01137201488018" lon="-9.147918010130525">
        <ele>148.18000000000001</ele>
        <time>2025-04-30T14:19:19Z</time>
      </trkpt>
      <trkpt lat="43.011274030432105" lon="-9.148148009553552">
        <ele>147.69999999999999</ele>
        <time>2025-04-30T14:19:20Z</time>
      </trkpt>
      <trkpt lat="43.011185014620423" lon="-9.148375997319818">
        <ele>147.69999999999999</ele>
        <time>2025-04-30T14:19:21Z</time>
      </trkpt>
      <trkpt lat="43.011128017678857" lon="-9.148615971207619">
        <ele>147.22</ele>
        <time>2025-04-30T14:19:22Z</time>
      </trkpt>
      <trkpt lat="43.011074038222432" lon="-9.148845970630646">
        <ele>146.25999999999999</ele>
        <time>2025-04-30T14:19:23Z</time>
      </trkpt>
      <trkpt lat="43.011020980775356" lon="-9.149067001417279">
        <ele>145.78</ele>
        <time>2025-04-30T14:19:24Z</time>
      </trkpt>
      <trkpt lat="43.010456040501595" lon="-9.151289965957403">
        <ele>142.41</ele>
        <time>2025-04-30T14:19:34Z</time>
      </trkpt>
      <trkpt lat="43.010058989748359" lon="-9.153072964400053">
        <ele>140.97</ele>
        <time>2025-04-30T14:19:42Z</time>
      </trkpt>
      <trkpt lat="43.010058989748359" lon="-9.153297012671828">
        <ele>141.44999999999999</ele>
        <time>2025-04-30T14:19:43Z</time>
      </trkpt>
      <trkpt lat="43.010080028325319" lon="-9.153503961861134">
        <ele>141.44999999999999</ele>
        <time>2025-04-30T14:19:44Z</time>
      </trkpt>
      <trkpt lat="43.010099977254868" lon="-9.153700014576316">
        <ele>142.41</ele>
        <time>2025-04-30T14:19:45Z</time>
      </trkpt>
      <trkpt lat="43.010111963376403" lon="-9.153886009007692">
        <ele>142.88999999999999</ele>
        <time>2025-04-30T14:19:46Z</time>
      </trkpt>
      <trkpt lat="43.010194022208452" lon="-9.154233019798994">
        <ele>143.84999999999999</ele>
        <time>2025-04-30T14:19:48Z</time>
      </trkpt>
      <trkpt lat="43.010606998577714" lon="-9.155791969969869">
        <ele>146.25999999999999</ele>
        <time>2025-04-30T14:19:58Z</time>
      </trkpt>
      <trkpt lat="43.010659972205758" lon="-9.156117020174861">
        <ele>145.30000000000001</ele>
        <time>2025-04-30T14:20:00Z</time>
      </trkpt>
      <trkpt lat="43.010680004954338" lon="-9.156278958544135">
        <ele>144.81999999999999</ele>
        <time>2025-04-30T14:20:01Z</time>
      </trkpt>
      <trkpt lat="43.010681010782719" lon="-9.156434023752809">
        <ele>144.81999999999999</ele>
        <time>2025-04-30T14:20:02Z</time>
      </trkpt>
      <trkpt lat="43.010680004954338" lon="-9.156591016799212">
        <ele>144.34</ele>
        <time>2025-04-30T14:20:03Z</time>
      </trkpt>
      <trkpt lat="43.010668018832803" lon="-9.156752033159137">
        <ele>143.84999999999999</ele>
        <time>2025-04-30T14:20:04Z</time>
      </trkpt>
      <trkpt lat="43.010376999154687" lon="-9.158032033592463">
        <ele>138.09</ele>
        <time>2025-04-30T14:20:11Z</time>
      </trkpt>
      <trkpt lat="43.009884981438518" lon="-9.159999014809728">
        <ele>130.88</ele>
        <time>2025-04-30T14:20:19Z</time>
      </trkpt>
      <trkpt lat="43.009630003944039" lon="-9.162932010367513">
        <ele>127.03</ele>
        <time>2025-04-30T14:20:30Z</time>
      </trkpt>
      <trkpt lat="43.009708961471915" lon="-9.166336990892887">
        <ele>130.40000000000001</ele>
        <time>2025-04-30T14:20:42Z</time>
      </trkpt>
      <trkpt lat="43.00967400893569" lon="-9.166853986680508">
        <ele>130.88</ele>
        <time>2025-04-30T14:20:44Z</time>
      </trkpt>
      <trkpt lat="43.009608965367079" lon="-9.16709303855896">
        <ele>130.88</ele>
        <time>2025-04-30T14:20:45Z</time>
      </trkpt>
      <trkpt lat="43.00954501144588" lon="-9.167328989133239">
        <ele>130.88</ele>
        <time>2025-04-30T14:20:46Z</time>
      </trkpt>
      <trkpt lat="43.009467981755733" lon="-9.167550019919872">
        <ele>130.40000000000001</ele>
        <time>2025-04-30T14:20:47Z</time>
      </trkpt>
      <trkpt lat="43.009372008964419" lon="-9.167726039886475">
        <ele>129.91999999999999</ele>
        <time>2025-04-30T14:20:48Z</time>
      </trkpt>
      <trkpt lat="43.009213004261255" lon="-9.167922008782625">
        <ele>129.91999999999999</ele>
        <time>2025-04-30T14:20:49Z</time>
      </trkpt>
      <trkpt lat="43.009065985679626" lon="-9.168101968243718">
        <ele>129.43000000000001</ele>
        <time>2025-04-30T14:20:50Z</time>
      </trkpt>
      <trkpt lat="43.008916033431888" lon="-9.168286034837365">
        <ele>128.94999999999999</ele>
        <time>2025-04-30T14:20:51Z</time>
      </trkpt>
      <trkpt lat="43.008338017389178" lon="-9.169105030596256">
        <ele>127.03</ele>
        <time>2025-04-30T14:20:55Z</time>
      </trkpt>
      <trkpt lat="43.008207008242607" lon="-9.169332012534142">
        <ele>126.55</ele>
        <time>2025-04-30T14:20:56Z</time>
      </trkpt>
      <trkpt lat="43.007339984178543" lon="-9.170934967696667">
        <ele>121.26000000000001</ele>
        <time>2025-04-30T14:21:03Z</time>
      </trkpt>
      <trkpt lat="43.007177961990237" lon="-9.171118028461933">
        <ele>120.3</ele>
        <time>2025-04-30T14:21:04Z</time>
      </trkpt>
      <trkpt lat="43.005455983802676" lon="-9.172974033281207">
        <ele>110.69</ele>
        <time>2025-04-30T14:21:14Z</time>
      </trkpt>
      <trkpt lat="43.005308965221047" lon="-9.17319699190557">
        <ele>109.25</ele>
        <time>2025-04-30T14:21:15Z</time>
      </trkpt>
      <trkpt lat="43.005187008529902" lon="-9.173439983278513">
        <ele>108.29000000000001</ele>
        <time>2025-04-30T14:21:16Z</time>
      </trkpt>
      <trkpt lat="43.004483012482524" lon="-9.174942020326853">
        <ele>100.59999999999999</ele>
        <time>2025-04-30T14:21:22Z</time>
      </trkpt>
      <trkpt lat="43.00432501360774" lon="-9.175145030021668">
        <ele>99.629999999999995</ele>
        <time>2025-04-30T14:21:23Z</time>
      </trkpt>
      <trkpt lat="43.004160979762673" lon="-9.175334963947535">
        <ele>98.670000000000002</ele>
        <time>2025-04-30T14:21:24Z</time>
      </trkpt>
      <trkpt lat="43.003982026129961" lon="-9.175491034984589">
        <ele>97.709999999999994</ele>
        <time>2025-04-30T14:21:25Z</time>
      </trkpt>
      <trkpt lat="43.003789996728301" lon="-9.175615003332496">
        <ele>96.75</ele>
        <time>2025-04-30T14:21:26Z</time>
      </trkpt>
      <trkpt lat="43.003586987033486" lon="-9.175693960860372">
        <ele>95.790000000000006</ele>
        <time>2025-04-30T14:21:27Z</time>
      </trkpt>
      <trkpt lat="43.003382971510291" lon="-9.17577400803566">
        <ele>94.829999999999998</ele>
        <time>2025-04-30T14:21:28Z</time>
      </trkpt>
      <trkpt lat="43.003179961815476" lon="-9.175852965563536">
        <ele>93.870000000000005</ele>
        <time>2025-04-30T14:21:29Z</time>
      </trkpt>
      <trkpt lat="43.001499976962805" lon="-9.176438022404909">
        <ele>90.5</ele>
        <time>2025-04-30T14:21:37Z</time>
      </trkpt>
      <trkpt lat="43.000229028984904" lon="-9.177231034263969">
        <ele>92.900000000000006</ele>
        <time>2025-04-30T14:21:43Z</time>
      </trkpt>
      <trkpt lat="42.998209996148944" lon="-9.178671967238188">
        <ele>94.829999999999998</ele>
        <time>2025-04-30T14:21:53Z</time>
      </trkpt>
      <trkpt lat="42.998030036687851" lon="-9.178768023848534">
        <ele>94.829999999999998</ele>
        <time>2025-04-30T14:21:54Z</time>
      </trkpt>
      <trkpt lat="42.997853010892868" lon="-9.178857039660215">
        <ele>94.829999999999998</ele>
        <time>2025-04-30T14:21:55Z</time>
      </trkpt>
      <trkpt lat="42.996373018249869" lon="-9.179529016837478">
        <ele>94.829999999999998</ele>
        <time>2025-04-30T14:22:04Z</time>
      </trkpt>
      <trkpt lat="42.99530197866261" lon="-9.180562002584338">
        <ele>97.230000000000004</ele>
        <time>2025-04-30T14:22:12Z</time>
      </trkpt>
      <trkpt lat="42.995154038071632" lon="-9.180685970932245">
        <ele>97.230000000000004</ele>
        <time>2025-04-30T14:22:13Z</time>
      </trkpt>
      <trkpt lat="42.993609001860023" lon="-9.181834040209651">
        <ele>96.75</ele>
        <time>2025-04-30T14:22:22Z</time>
      </trkpt>
      <trkpt lat="42.992148958146572" lon="-9.182684971019626">
        <ele>93.390000000000001</ele>
        <time>2025-04-30T14:22:29Z</time>
      </trkpt>
      <trkpt lat="42.990693021565676" lon="-9.183278996497393">
        <ele>91.459999999999994</ele>
        <time>2025-04-30T14:22:35Z</time>
      </trkpt>
      <trkpt lat="42.989117978140712" lon="-9.183914009481669">
        <ele>90.019999999999996</ele>
        <time>2025-04-30T14:22:44Z</time>
      </trkpt>
      <trkpt lat="42.986334012821317" lon="-9.185080016031861">
        <ele>88.099999999999994</ele>
        <time>2025-04-30T14:23:00Z</time>
      </trkpt>
      <trkpt lat="42.983554992824793" lon="-9.186148038133979">
        <ele>89.060000000000002</ele>
        <time>2025-04-30T14:23:15Z</time>
      </trkpt>
      <trkpt lat="42.981740981340408" lon="-9.186897967010737">
        <ele>91.939999999999998</ele>
        <time>2025-04-30T14:23:25Z</time>
      </trkpt>
      <trkpt lat="42.979883970692754" lon="-9.187628030776978">
        <ele>90.5</ele>
        <time>2025-04-30T14:23:36Z</time>
      </trkpt>
      <trkpt lat="42.978346981108189" lon="-9.188253991305828">
        <ele>87.620000000000005</ele>
        <time>2025-04-30T14:23:46Z</time>
      </trkpt>
      <trkpt lat="42.977954037487507" lon="-9.188407966867089">
        <ele>87.140000000000001</ele>
        <time>2025-04-30T14:23:50Z</time>
      </trkpt>
      <trkpt lat="42.977888993918896" lon="-9.188453983515501">
        <ele>87.140000000000001</ele>
        <time>2025-04-30T14:23:51Z</time>
      </trkpt>
      <trkpt lat="42.977838031947613" lon="-9.188489019870758">
        <ele>87.140000000000001</ele>
        <time>2025-04-30T14:23:52Z</time>
      </trkpt>
      <trkpt lat="42.977808024734259" lon="-9.188754977658391">
        <ele>86.659999999999997</ele>
        <time>2025-04-30T14:23:53Z</time>
      </trkpt>
      <trkpt lat="42.977808024734259" lon="-9.188754977658391">
        <ele>86.659999999999997</ele>
        <time>2025-04-30T14:23:54Z</time>
      </trkpt>
      <trkpt lat="42.977795032784343" lon="-9.188800994306803">
        <ele>86.180000000000007</ele>
        <time>2025-04-30T14:23:55Z</time>
      </trkpt>
      <trkpt lat="42.97776703722775" lon="-9.188896967098117">
        <ele>86.180000000000007</ele>
        <time>2025-04-30T14:23:56Z</time>
      </trkpt>
      <trkpt lat="42.977739963680506" lon="-9.188993023708463">
        <ele>86.180000000000007</ele>
        <time>2025-04-30T14:23:57Z</time>
      </trkpt>
      <trkpt lat="42.977675003930926" lon="-9.189086984843016">
        <ele>86.180000000000007</ele>
        <time>2025-04-30T14:23:58Z</time>
      </trkpt>
      <trkpt lat="42.97759898006916" lon="-9.18913702480495">
        <ele>86.180000000000007</ele>
        <time>2025-04-30T14:23:59Z</time>
      </trkpt>
      <trkpt lat="42.977593028917909" lon="-9.18914096429944">
        <ele>86.180000000000007</ele>
        <time>2025-04-30T14:24:00Z</time>
      </trkpt>
      <trkpt lat="42.977356994524598" lon="-9.189177006483078">
        <ele>85.689999999999998</ele>
        <time>2025-04-30T14:24:01Z</time>
      </trkpt>
      <trkpt lat="42.977313995361328" lon="-9.189291000366211">
        <ele>85.689999999999998</ele>
        <time>2025-04-30T14:24:02Z</time>
      </trkpt>
      <trkpt lat="42.977267978712916" lon="-9.189414968714118">
        <ele>85.689999999999998</ele>
        <time>2025-04-30T14:24:03Z</time>
      </trkpt>
      <trkpt lat="42.977224979549646" lon="-9.189554024487734">
        <ele>85.689999999999998</ele>
        <time>2025-04-30T14:24:04Z</time>
      </trkpt>
      <trkpt lat="42.977184997871518" lon="-9.189701965078712">
        <ele>85.689999999999998</ele>
        <time>2025-04-30T14:24:05Z</time>
      </trkpt>
      <trkpt lat="42.976741008460522" lon="-9.191034017130733">
        <ele>84.730000000000004</ele>
        <time>2025-04-30T14:24:12Z</time>
      </trkpt>
      <trkpt lat="42.975719003006816" lon="-9.192718025296927">
        <ele>85.209999999999994</ele>
        <time>2025-04-30T14:24:20Z</time>
      </trkpt>
      <trkpt lat="42.973528979346156" lon="-9.195783035829663">
        <ele>91.459999999999994</ele>
        <time>2025-04-30T14:24:34Z</time>
      </trkpt>
      <trkpt lat="42.971847988665104" lon="-9.198131980374456">
        <ele>102.04000000000001</ele>
        <time>2025-04-30T14:24:44Z</time>
      </trkpt>
      <trkpt lat="42.969342973083258" lon="-9.201608039438725">
        <ele>120.78</ele>
        <time>2025-04-30T14:24:58Z</time>
      </trkpt>
      <trkpt lat="42.966735027730465" lon="-9.20523002743721">
        <ele>143.37</ele>
        <time>2025-04-30T14:25:12Z</time>
      </trkpt>
      <trkpt lat="42.964832000434399" lon="-9.207674022763968">
        <ele>156.83000000000001</ele>
        <time>2025-04-30T14:25:22Z</time>
      </trkpt>
      <trkpt lat="42.963312026113272" lon="-9.208798035979271">
        <ele>161.16</ele>
        <time>2025-04-30T14:25:29Z</time>
      </trkpt>
      <trkpt lat="42.961317971348763" lon="-9.209451992064714">
        <ele>160.68000000000001</ele>
        <time>2025-04-30T14:25:37Z</time>
      </trkpt>
      <trkpt lat="42.957925982773304" lon="-9.21019496396184">
        <ele>149.62</ele>
        <time>2025-04-30T14:25:50Z</time>
      </trkpt>
      <trkpt lat="42.955419039353728" lon="-9.211151003837585">
        <ele>130.88</ele>
        <time>2025-04-30T14:26:00Z</time>
      </trkpt>
      <trkpt lat="42.953745005652308" lon="-9.212496969848871">
        <ele>115.98</ele>
        <time>2025-04-30T14:26:07Z</time>
      </trkpt>
      <trkpt lat="42.952312035486102" lon="-9.214387005195022">
        <ele>103</ele>
        <time>2025-04-30T14:26:14Z</time>
      </trkpt>
      <trkpt lat="42.950859032571316" lon="-9.216522965580225">
        <ele>88.579999999999998</ele>
        <time>2025-04-30T14:26:22Z</time>
      </trkpt>
      <trkpt lat="42.948584016412497" lon="-9.219855023548007">
        <ele>66.950000000000003</ele>
        <time>2025-04-30T14:26:35Z</time>
      </trkpt>
      <trkpt lat="42.94689598493278" lon="-9.222294995561242">
        <ele>51.090000000000003</ele>
        <time>2025-04-30T14:26:45Z</time>
      </trkpt>
      <trkpt lat="42.945782030001283" lon="-9.22349302098155">
        <ele>41.469999999999999</ele>
        <time>2025-04-30T14:26:53Z</time>
      </trkpt>
      <trkpt lat="42.944661034271121" lon="-9.224457023665309">
        <ele>33.299999999999997</ele>
        <time>2025-04-30T14:27:02Z</time>
      </trkpt>
      <trkpt lat="42.944558020681143" lon="-9.224518965929747">
        <ele>32.340000000000003</ele>
        <time>2025-04-30T14:27:03Z</time>
      </trkpt>
      <trkpt lat="42.944460036233068" lon="-9.224532041698694">
        <ele>31.379999999999999</ele>
        <time>2025-04-30T14:27:04Z</time>
      </trkpt>
      <trkpt lat="42.944366997107863" lon="-9.224540004506707">
        <ele>30.899999999999999</ele>
        <time>2025-04-30T14:27:05Z</time>
      </trkpt>
      <trkpt lat="42.944286027923226" lon="-9.22454503364861">
        <ele>29.940000000000001</ele>
        <time>2025-04-30T14:27:06Z</time>
      </trkpt>
      <trkpt lat="42.944204974919558" lon="-9.224529024213553">
        <ele>29.460000000000001</ele>
        <time>2025-04-30T14:27:07Z</time>
      </trkpt>
      <trkpt lat="42.944129034876823" lon="-9.224514020606875">
        <ele>28.5</ele>
        <time>2025-04-30T14:27:08Z</time>
      </trkpt>
      <trkpt lat="42.943990984931588" lon="-9.224675036966801">
        <ele>28.02</ele>
        <time>2025-04-30T14:27:09Z</time>
      </trkpt>
      <trkpt lat="42.94397204183042" lon="-9.224684005603194">
        <ele>27.530000000000001</ele>
        <time>2025-04-30T14:27:10Z</time>
      </trkpt>
      <trkpt lat="42.943904986605048" lon="-9.224718036130071">
        <ele>27.050000000000001</ele>
        <time>2025-04-30T14:27:11Z</time>
      </trkpt>
      <trkpt lat="42.943745981901884" lon="-9.22473999671638">
        <ele>27.050000000000001</ele>
        <time>2025-04-30T14:27:12Z</time>
      </trkpt>
      <trkpt lat="42.943671969696879" lon="-9.224862037226558">
        <ele>26.57</ele>
        <time>2025-04-30T14:27:13Z</time>
      </trkpt>
      <trkpt lat="42.943597035482526" lon="-9.224988017231226">
        <ele>26.57</ele>
        <time>2025-04-30T14:27:14Z</time>
      </trkpt>
      <trkpt lat="42.94347801245749" lon="-9.225236959755421">
        <ele>27.050000000000001</ele>
        <time>2025-04-30T14:27:16Z</time>
      </trkpt>
      <trkpt lat="42.943424033001065" lon="-9.225372998043895">
        <ele>27.050000000000001</ele>
        <time>2025-04-30T14:27:17Z</time>
      </trkpt>
      <trkpt lat="42.943339040502906" lon="-9.225629987195134">
        <ele>27.050000000000001</ele>
        <time>2025-04-30T14:27:19Z</time>
      </trkpt>
      <trkpt lat="42.942945007234812" lon="-9.227469982579351">
        <ele>22.25</ele>
        <time>2025-04-30T14:27:31Z</time>
      </trkpt>
      <trkpt lat="42.942954981699586" lon="-9.228421999141574">
        <ele>18.399999999999999</ele>
        <time>2025-04-30T14:27:37Z</time>
      </trkpt>
      <trkpt lat="42.942965039983392" lon="-9.228577986359596">
        <ele>17.920000000000002</ele>
        <time>2025-04-30T14:27:38Z</time>
      </trkpt>
      <trkpt lat="42.942994963377714" lon="-9.229051982983947">
        <ele>16</ele>
        <time>2025-04-30T14:27:41Z</time>
      </trkpt>
      <trkpt lat="42.943031005561352" lon="-9.229203024879098">
        <ele>15.039999999999999</ele>
        <time>2025-04-30T14:27:42Z</time>
      </trkpt>
      <trkpt lat="42.943123038858175" lon="-9.229493960738182">
        <ele>14.08</ele>
        <time>2025-04-30T14:27:44Z</time>
      </trkpt>
      <trkpt lat="42.943304004147649" lon="-9.230086980387569">
        <ele>11.67</ele>
        <time>2025-04-30T14:27:48Z</time>
      </trkpt>
      <trkpt lat="42.943329988047481" lon="-9.2302390281111">
        <ele>11.19</ele>
        <time>2025-04-30T14:27:49Z</time>
      </trkpt>
      <trkpt lat="42.943345997482538" lon="-9.230391997843981">
        <ele>10.23</ele>
        <time>2025-04-30T14:27:50Z</time>
      </trkpt>
      <trkpt lat="42.943325964733958" lon="-9.230542033910751">
        <ele>9.75</ele>
        <time>2025-04-30T14:27:51Z</time>
      </trkpt>
      <trkpt lat="42.943301992490888" lon="-9.230696009472013">
        <ele>9.27</ele>
        <time>2025-04-30T14:27:52Z</time>
      </trkpt>
      <trkpt lat="42.943281037732959" lon="-9.230849985033274">
        <ele>8.789999999999999</ele>
        <time>2025-04-30T14:27:53Z</time>
      </trkpt>
      <trkpt lat="42.942978031933308" lon="-9.232690986245871">
        <ele>1.1</ele>
        <time>2025-04-30T14:28:05Z</time>
      </trkpt>
      <trkpt lat="42.942922040820122" lon="-9.232827024534345">
        <ele>1.1</ele>
        <time>2025-04-30T14:28:06Z</time>
      </trkpt>
      <trkpt lat="42.94285599142313" lon="-9.232961973175407">
        <ele>1.58</ele>
        <time>2025-04-30T14:28:07Z</time>
      </trkpt>
      <trkpt lat="42.94218803755939" lon="-9.233986996114254">
        <ele>5.42</ele>
        <time>2025-04-30T14:28:16Z</time>
      </trkpt>
      <trkpt lat="42.94208100065589" lon="-9.234111970290542">
        <ele>5.42</ele>
        <time>2025-04-30T14:28:17Z</time>
      </trkpt>
      <trkpt lat="42.942001037299633" lon="-9.234228981658816">
        <ele>4.94</ele>
        <time>2025-04-30T14:28:18Z</time>
      </trkpt>
      <trkpt lat="42.941442970186472" lon="-9.234999027103186">
        <ele>6.87</ele>
        <time>2025-04-30T14:28:25Z</time>
      </trkpt>
      <trkpt lat="42.941342974081635" lon="-9.2350759729743">
        <ele>7.83</ele>
        <time>2025-04-30T14:28:26Z</time>
      </trkpt>
      <trkpt lat="42.941240966320038" lon="-9.23511796630919">
        <ele>8.310000000000001</ele>
        <time>2025-04-30T14:28:27Z</time>
      </trkpt>
      <trkpt lat="42.941124038770795" lon="-9.235144034028053">
        <ele>9.27</ele>
        <time>2025-04-30T14:28:28Z</time>
      </trkpt>
      <trkpt lat="42.941008033230901" lon="-9.23515903763473">
        <ele>9.75</ele>
        <time>2025-04-30T14:28:29Z</time>
      </trkpt>
      <trkpt lat="42.940889010205865" lon="-9.235168006271124">
        <ele>10.23</ele>
        <time>2025-04-30T14:28:30Z</time>
      </trkpt>
      <trkpt lat="42.940186019986868" lon="-9.235084019601345">
        <ele>14.56</ele>
        <time>2025-04-30T14:28:36Z</time>
      </trkpt>
      <trkpt lat="42.940065991133451" lon="-9.235130036249757">
        <ele>15.039999999999999</ele>
        <time>2025-04-30T14:28:37Z</time>
      </trkpt>
      <trkpt lat="42.939958032220602" lon="-9.235178986564279">
        <ele>16</ele>
        <time>2025-04-30T14:28:38Z</time>
      </trkpt>
      <trkpt lat="42.939864993095398" lon="-9.235270014032722">
        <ele>16.960000000000001</ele>
        <time>2025-04-30T14:28:39Z</time>
      </trkpt>
      <trkpt lat="42.939767008647323" lon="-9.235383002087474">
        <ele>17.920000000000002</ele>
        <time>2025-04-30T14:28:40Z</time>
      </trkpt>
      <trkpt lat="42.939656032249331" lon="-9.235510993748903">
        <ele>18.399999999999999</ele>
        <time>2025-04-30T14:28:41Z</time>
      </trkpt>
      <trkpt lat="42.939555030316114" lon="-9.235648037865758">
        <ele>18.879999999999999</ele>
        <time>2025-04-30T14:28:42Z</time>
      </trkpt>
      <trkpt lat="42.939322013407946" lon="-9.235951965674758">
        <ele>20.809999999999999</ele>
        <time>2025-04-30T14:28:44Z</time>
      </trkpt>
      <trkpt lat="42.939178012311459" lon="-9.236077023670077">
        <ele>21.77</ele>
        <time>2025-04-30T14:28:45Z</time>
      </trkpt>
      <trkpt lat="42.939019007608294" lon="-9.236174002289772">
        <ele>22.73</ele>
        <time>2025-04-30T14:28:46Z</time>
      </trkpt>
      <trkpt lat="42.937896000221372" lon="-9.23677196726203">
        <ele>28.5</ele>
        <time>2025-04-30T14:28:53Z</time>
      </trkpt>
      <trkpt lat="42.937738001346588" lon="-9.236811026930809">
        <ele>29.460000000000001</ele>
        <time>2025-04-30T14:28:54Z</time>
      </trkpt>
      <trkpt lat="42.937586959451437" lon="-9.236819995567203">
        <ele>29.940000000000001</ele>
        <time>2025-04-30T14:28:55Z</time>
      </trkpt>
      <trkpt lat="42.937443964183331" lon="-9.236770961433649">
        <ele>30.899999999999999</ele>
        <time>2025-04-30T14:28:56Z</time>
      </trkpt>
      <trkpt lat="42.937305998057127" lon="-9.236700972542167">
        <ele>31.859999999999999</ele>
        <time>2025-04-30T14:28:57Z</time>
      </trkpt>
      <trkpt lat="42.937167026102543" lon="-9.236617991700769">
        <ele>32.82</ele>
        <time>2025-04-30T14:28:58Z</time>
      </trkpt>
      <trkpt lat="42.93554998934269" lon="-9.235794972628355">
        <ele>42.439999999999998</ele>
        <time>2025-04-30T14:29:08Z</time>
      </trkpt>
      <trkpt lat="42.934192959219217" lon="-9.235714003443718">
        <ele>49.159999999999997</ele>
        <time>2025-04-30T14:29:16Z</time>
      </trkpt>
      <trkpt lat="42.932851016521454" lon="-9.235949032008648">
        <ele>57.82</ele>
        <time>2025-04-30T14:29:24Z</time>
      </trkpt>
      <trkpt lat="42.932697040960193" lon="-9.235921958461404">
        <ele>58.780000000000001</ele>
        <time>2025-04-30T14:29:25Z</time>
      </trkpt>
      <trkpt lat="42.932395040988922" lon="-9.235830008983612">
        <ele>60.700000000000003</ele>
        <time>2025-04-30T14:29:27Z</time>
      </trkpt>
      <trkpt lat="42.931920038536191" lon="-9.235643008723855">
        <ele>62.619999999999997</ele>
        <time>2025-04-30T14:29:30Z</time>
      </trkpt>
      <trkpt lat="42.931753993034363" lon="-9.235604032874107">
        <ele>63.100000000000001</ele>
        <time>2025-04-30T14:29:31Z</time>
      </trkpt>
      <trkpt lat="42.931584008038044" lon="-9.235581988468766">
        <ele>63.579999999999998</ele>
        <time>2025-04-30T14:29:32Z</time>
      </trkpt>
      <trkpt lat="42.931407988071442" lon="-9.235606966540217">
        <ele>64.549999999999997</ele>
        <time>2025-04-30T14:29:33Z</time>
      </trkpt>
      <trkpt lat="42.93123297393322" lon="-9.2356320284307">
        <ele>65.030000000000001</ele>
        <time>2025-04-30T14:29:34Z</time>
      </trkpt>
      <trkpt lat="42.931062988936901" lon="-9.235691959038377">
        <ele>65.989999999999995</ele>
        <time>2025-04-30T14:29:35Z</time>
      </trkpt>
      <trkpt lat="42.930899960920215" lon="-9.235765971243382">
        <ele>66.469999999999999</ele>
        <time>2025-04-30T14:29:36Z</time>
      </trkpt>
      <trkpt lat="42.930738022550941" lon="-9.235848030075431">
        <ele>66.950000000000003</ele>
        <time>2025-04-30T14:29:37Z</time>
      </trkpt>
      <trkpt lat="42.930613970384002" lon="-9.235993037000299">
        <ele>67.909999999999997</ele>
        <time>2025-04-30T14:29:38Z</time>
      </trkpt>
      <trkpt lat="42.930487990379333" lon="-9.236139971762896">
        <ele>68.390000000000001</ele>
        <time>2025-04-30T14:29:39Z</time>
      </trkpt>
      <trkpt lat="42.930355975404382" lon="-9.236281039193273">
        <ele>68.870000000000005</ele>
        <time>2025-04-30T14:29:40Z</time>
      </trkpt>
      <trkpt lat="42.929177982732654" lon="-9.237456014379859">
        <ele>70.790000000000006</ele>
        <time>2025-04-30T14:29:49Z</time>
      </trkpt>
      <trkpt lat="42.929059965535998" lon="-9.237571014091373">
        <ele>70.310000000000002</ele>
        <time>2025-04-30T14:29:50Z</time>
      </trkpt>
      <trkpt lat="42.928836001083255" lon="-9.237812999635935">
        <ele>68.390000000000001</ele>
        <time>2025-04-30T14:29:52Z</time>
      </trkpt>
      <trkpt lat="42.928748996928334" lon="-9.23797401599586">
        <ele>67.430000000000007</ele>
        <time>2025-04-30T14:29:53Z</time>
      </trkpt>
      <trkpt lat="42.928693005815148" lon="-9.238156992942095">
        <ele>66.469999999999999</ele>
        <time>2025-04-30T14:29:54Z</time>
      </trkpt>
      <trkpt lat="42.928643971681595" lon="-9.238343993201852">
        <ele>65.510000000000005</ele>
        <time>2025-04-30T14:29:55Z</time>
      </trkpt>
      <trkpt lat="42.928627040237188" lon="-9.238529987633228">
        <ele>64.549999999999997</ele>
        <time>2025-04-30T14:29:56Z</time>
      </trkpt>
      <trkpt lat="42.928636008873582" lon="-9.238714976236224">
        <ele>63.100000000000001</ele>
        <time>2025-04-30T14:29:57Z</time>
      </trkpt>
      <trkpt lat="42.928672973066568" lon="-9.238908011466265">
        <ele>61.659999999999997</ele>
        <time>2025-04-30T14:29:58Z</time>
      </trkpt>
      <trkpt lat="42.928737010806799" lon="-9.239100040867925">
        <ele>60.700000000000003</ele>
        <time>2025-04-30T14:29:59Z</time>
      </trkpt>
      <trkpt lat="42.928832983598113" lon="-9.239291986450553">
        <ele>59.259999999999998</ele>
        <time>2025-04-30T14:30:00Z</time>
      </trkpt>
      <trkpt lat="42.928943037986755" lon="-9.239493990316987">
        <ele>57.82</ele>
        <time>2025-04-30T14:30:01Z</time>
      </trkpt>
      <trkpt lat="42.929591964930296" lon="-9.240626972168684">
        <ele>53.009999999999998</ele>
        <time>2025-04-30T14:30:07Z</time>
      </trkpt>
      <trkpt lat="42.929637981578708" lon="-9.240794023498893">
        <ele>52.530000000000001</ele>
        <time>2025-04-30T14:30:08Z</time>
      </trkpt>
      <trkpt lat="42.929677963256836" lon="-9.240940036252141">
        <ele>52.530000000000001</ele>
        <time>2025-04-30T14:30:09Z</time>
      </trkpt>
      <trkpt lat="42.929677963256836" lon="-9.241108009591699">
        <ele>52.049999999999997</ele>
        <time>2025-04-30T14:30:10Z</time>
      </trkpt>
      <trkpt lat="42.929661031812429" lon="-9.241254022344947">
        <ele>52.049999999999997</ele>
        <time>2025-04-30T14:30:11Z</time>
      </trkpt>
      <trkpt lat="42.929624989628792" lon="-9.24141202121973">
        <ele>51.57</ele>
        <time>2025-04-30T14:30:12Z</time>
      </trkpt>
      <trkpt lat="42.929586013779044" lon="-9.24158301204443">
        <ele>50.609999999999999</ele>
        <time>2025-04-30T14:30:13Z</time>
      </trkpt>
      <trkpt lat="42.929532034322619" lon="-9.241733970120549">
        <ele>49.649999999999999</ele>
        <time>2025-04-30T14:30:14Z</time>
      </trkpt>
      <trkpt lat="42.929455004632473" lon="-9.241901021450758">
        <ele>49.159999999999997</ele>
        <time>2025-04-30T14:30:15Z</time>
      </trkpt>
      <trkpt lat="42.929374035447836" lon="-9.24207704141736">
        <ele>48.200000000000003</ele>
        <time>2025-04-30T14:30:16Z</time>
      </trkpt>
      <trkpt lat="42.928283968940377" lon="-9.243808994069696">
        <ele>40.509999999999998</ele>
        <time>2025-04-30T14:30:26Z</time>
      </trkpt>
      <trkpt lat="42.927476959303021" lon="-9.245140040293336">
        <ele>36.670000000000002</ele>
        <time>2025-04-30T14:30:33Z</time>
      </trkpt>
      <trkpt lat="42.927392972633243" lon="-9.245357969775796">
        <ele>36.670000000000002</ele>
        <time>2025-04-30T14:30:34Z</time>
      </trkpt>
      <trkpt lat="42.927333964034915" lon="-9.245596015825868">
        <ele>36.189999999999998</ele>
        <time>2025-04-30T14:30:35Z</time>
      </trkpt>
      <trkpt lat="42.927291970700026" lon="-9.245834983885288">
        <ele>35.710000000000001</ele>
        <time>2025-04-30T14:30:36Z</time>
      </trkpt>
      <trkpt lat="42.927252994850278" lon="-9.246071018278599">
        <ele>35.229999999999997</ele>
        <time>2025-04-30T14:30:37Z</time>
      </trkpt>
      <trkpt lat="42.927241008728743" lon="-9.246311997994781">
        <ele>35.229999999999997</ele>
        <time>2025-04-30T14:30:38Z</time>
      </trkpt>
      <trkpt lat="42.927330024540424" lon="-9.248465979471803">
        <ele>33.299999999999997</ele>
        <time>2025-04-30T14:30:47Z</time>
      </trkpt>
      <trkpt lat="42.927480982616544" lon="-9.249157989397645">
        <ele>32.340000000000003</ele>
        <time>2025-04-30T14:30:50Z</time>
      </trkpt>
      <trkpt lat="42.92805003002286" lon="-9.25086697563529">
        <ele>29.940000000000001</ele>
        <time>2025-04-30T14:30:59Z</time>
      </trkpt>
      <trkpt lat="42.928134016692638" lon="-9.251209041103721">
        <ele>29.460000000000001</ele>
        <time>2025-04-30T14:31:01Z</time>
      </trkpt>
      <trkpt lat="42.92815899476409" lon="-9.25137902610004">
        <ele>28.98</ele>
        <time>2025-04-30T14:31:02Z</time>
      </trkpt>
      <trkpt lat="42.928167041391134" lon="-9.2515520285815">
        <ele>28.98</ele>
        <time>2025-04-30T14:31:03Z</time>
      </trkpt>
      <trkpt lat="42.928176010027528" lon="-9.251732993870974">
        <ele>28.5</ele>
        <time>2025-04-30T14:31:04Z</time>
      </trkpt>
      <trkpt lat="42.928162012249231" lon="-9.251901973038912">
        <ele>28.5</ele>
        <time>2025-04-30T14:31:05Z</time>
      </trkpt>
      <trkpt lat="42.928144996985793" lon="-9.252075981348753">
        <ele>28.5</ele>
        <time>2025-04-30T14:31:06Z</time>
      </trkpt>
      <trkpt lat="42.928111972287297" lon="-9.252642011269927">
        <ele>27.050000000000001</ele>
        <time>2025-04-30T14:31:09Z</time>
      </trkpt>
      <trkpt lat="42.928147008642554" lon="-9.252849966287613">
        <ele>26.57</ele>
        <time>2025-04-30T14:31:10Z</time>
      </trkpt>
      <trkpt lat="42.928196964785457" lon="-9.253053981810808">
        <ele>26.09</ele>
        <time>2025-04-30T14:31:11Z</time>
      </trkpt>
      <trkpt lat="42.928540958091617" lon="-9.25505599938333">
        <ele>17.920000000000002</ele>
        <time>2025-04-30T14:31:20Z</time>
      </trkpt>
      <trkpt lat="42.92830802500248" lon="-9.256698014214635">
        <ele>13.6</ele>
        <time>2025-04-30T14:31:27Z</time>
      </trkpt>
      <trkpt lat="42.927938969805837" lon="-9.257749021053314">
        <ele>9.75</ele>
        <time>2025-04-30T14:31:32Z</time>
      </trkpt>
      <trkpt lat="42.927827993407845" lon="-9.257931997999549">
        <ele>9.27</ele>
        <time>2025-04-30T14:31:33Z</time>
      </trkpt>
      <trkpt lat="42.927717017009854" lon="-9.258114974945784">
        <ele>8.789999999999999</ele>
        <time>2025-04-30T14:31:34Z</time>
      </trkpt>
      <trkpt lat="42.926705991849303" lon="-9.259317023679614">
        <ele>6.87</ele>
        <time>2025-04-30T14:31:43Z</time>
      </trkpt>
      <trkpt lat="42.925564041361213" lon="-9.260537009686232">
        <ele>7.83</ele>
        <time>2025-04-30T14:31:54Z</time>
      </trkpt>
      <trkpt lat="42.92547401972115" lon="-9.260638011619449">
        <ele>8.310000000000001</ele>
        <time>2025-04-30T14:31:55Z</time>
      </trkpt>
      <trkpt lat="42.924109026789665" lon="-9.262127978727222">
        <ele>11.67</ele>
        <time>2025-04-30T14:32:10Z</time>
      </trkpt>
      <trkpt lat="42.923100013285875" lon="-9.263206981122494">
        <ele>10.710000000000001</ele>
        <time>2025-04-30T14:32:21Z</time>
      </trkpt>
      <trkpt lat="42.922826008871198" lon="-9.263502024114132">
        <ele>11.19</ele>
        <time>2025-04-30T14:32:24Z</time>
      </trkpt>
      <trkpt lat="42.922458965331316" lon="-9.263898991048336">
        <ele>11.67</ele>
        <time>2025-04-30T14:32:28Z</time>
      </trkpt>
      <trkpt lat="42.922367015853524" lon="-9.263998987153173">
        <ele>11.67</ele>
        <time>2025-04-30T14:32:29Z</time>
      </trkpt>
      <trkpt lat="42.921187011525035" lon="-9.265276975929737">
        <ele>14.56</ele>
        <time>2025-04-30T14:32:42Z</time>
      </trkpt>
      <trkpt lat="42.920268019661307" lon="-9.266257993876934">
        <ele>16.960000000000001</ele>
        <time>2025-04-30T14:32:52Z</time>
      </trkpt>
      <trkpt lat="42.920177998021245" lon="-9.266355978325009">
        <ele>17.440000000000001</ele>
        <time>2025-04-30T14:32:53Z</time>
      </trkpt>
      <trkpt lat="42.919254982843995" lon="-9.267314029857516">
        <ele>21.289999999999999</ele>
        <time>2025-04-30T14:33:03Z</time>
      </trkpt>
      <trkpt lat="42.919150041416287" lon="-9.267381001263857">
        <ele>21.289999999999999</ele>
        <time>2025-04-30T14:33:04Z</time>
      </trkpt>
      <trkpt lat="42.919047027826309" lon="-9.267442021518946">
        <ele>21.77</ele>
        <time>2025-04-30T14:33:05Z</time>
      </trkpt>
      <trkpt lat="42.918932028114796" lon="-9.267460964620113">
        <ele>22.25</ele>
        <time>2025-04-30T14:33:06Z</time>
      </trkpt>
      <trkpt lat="42.918815016746521" lon="-9.267479991540313">
        <ele>22.25</ele>
        <time>2025-04-30T14:33:07Z</time>
      </trkpt>
      <trkpt lat="42.918699011206627" lon="-9.267500024288893">
        <ele>22.25</ele>
        <time>2025-04-30T14:33:08Z</time>
      </trkpt>
      <trkpt lat="42.917293030768633" lon="-9.267503963783383">
        <ele>22.25</ele>
        <time>2025-04-30T14:33:20Z</time>
      </trkpt>
      <trkpt lat="42.9156559612602" lon="-9.267521984875202">
        <ele>23.690000000000001</ele>
        <time>2025-04-30T14:33:34Z</time>
      </trkpt>
      <trkpt lat="42.914249980822206" lon="-9.267526008188725">
        <ele>23.210000000000001</ele>
        <time>2025-04-30T14:33:47Z</time>
      </trkpt>
      <trkpt lat="42.914146967232227" lon="-9.267474040389061">
        <ele>23.690000000000001</ele>
        <time>2025-04-30T14:33:48Z</time>
      </trkpt>
      <trkpt lat="42.914059963077307" lon="-9.26743003539741">
        <ele>23.690000000000001</ele>
        <time>2025-04-30T14:33:49Z</time>
      </trkpt>
      <trkpt lat="42.913971031084657" lon="-9.26738603040576">
        <ele>24.170000000000002</ele>
        <time>2025-04-30T14:33:50Z</time>
      </trkpt>
      <trkpt lat="42.913906993344426" lon="-9.267354011535645">
        <ele>24.170000000000002</ele>
        <time>2025-04-30T14:33:51Z</time>
      </trkpt>
      <trkpt lat="42.913839016109705" lon="-9.267231971025467">
        <ele>24.649999999999999</ele>
        <time>2025-04-30T14:33:52Z</time>
      </trkpt>
      <trkpt lat="42.913800040259957" lon="-9.267160976305604">
        <ele>24.649999999999999</ele>
        <time>2025-04-30T14:33:53Z</time>
      </trkpt>
      <trkpt lat="42.913758968934417" lon="-9.267013035714626">
        <ele>25.129999999999999</ele>
        <time>2025-04-30T14:33:54Z</time>
      </trkpt>
      <trkpt lat="42.913725022226572" lon="-9.266884038224816">
        <ele>25.129999999999999</ele>
        <time>2025-04-30T14:33:55Z</time>
      </trkpt>
      <trkpt lat="42.913689985871315" lon="-9.26674397662282">
        <ele>25.609999999999999</ele>
        <time>2025-04-30T14:33:56Z</time>
      </trkpt>
      <trkpt lat="42.913398966193199" lon="-9.265199024230242">
        <ele>29.460000000000001</ele>
        <time>2025-04-30T14:34:07Z</time>
      </trkpt>
      <trkpt lat="42.913317997008562" lon="-9.264930970966816">
        <ele>29.460000000000001</ele>
        <time>2025-04-30T14:34:09Z</time>
      </trkpt>
      <trkpt lat="42.91316301561892" lon="-9.264531992375851">
        <ele>28.02</ele>
        <time>2025-04-30T14:34:12Z</time>
      </trkpt>
      <trkpt lat="42.913107024505734" lon="-9.264406012371182">
        <ele>27.530000000000001</ele>
        <time>2025-04-30T14:34:13Z</time>
      </trkpt>
      <trkpt lat="42.913007028400898" lon="-9.264323031529784">
        <ele>26.57</ele>
        <time>2025-04-30T14:34:14Z</time>
      </trkpt>
      <trkpt lat="42.912907032296062" lon="-9.264266034588218">
        <ele>26.09</ele>
        <time>2025-04-30T14:34:15Z</time>
      </trkpt>
      <trkpt lat="42.912791026756167" lon="-9.264199985191226">
        <ele>25.609999999999999</ele>
        <time>2025-04-30T14:34:16Z</time>
      </trkpt>
      <trkpt lat="42.912695975974202" lon="-9.264174001291394">
        <ele>24.649999999999999</ele>
        <time>2025-04-30T14:34:17Z</time>
      </trkpt>
      <trkpt lat="42.91258399374783" lon="-9.26414399407804">
        <ele>24.170000000000002</ele>
        <time>2025-04-30T14:34:18Z</time>
      </trkpt>
      <trkpt lat="42.911770027130842" lon="-9.263849034905434">
        <ele>21.77</ele>
        <time>2025-04-30T14:34:26Z</time>
      </trkpt>
      <trkpt lat="42.911288989707828" lon="-9.263678966090083">
        <ele>23.210000000000001</ele>
        <time>2025-04-30T14:34:32Z</time>
      </trkpt>
      <trkpt lat="42.911211960017681" lon="-9.263655999675393">
        <ele>23.690000000000001</ele>
        <time>2025-04-30T14:34:33Z</time>
      </trkpt>
      <trkpt lat="42.911135014146566" lon="-9.263633033260703">
        <ele>24.170000000000002</ele>
        <time>2025-04-30T14:34:34Z</time>
      </trkpt>
      <trkpt lat="42.911058990284801" lon="-9.263601014390588">
        <ele>24.649999999999999</ele>
        <time>2025-04-30T14:34:35Z</time>
      </trkpt>
      <trkpt lat="42.910982966423035" lon="-9.263559021055698">
        <ele>25.609999999999999</ele>
        <time>2025-04-30T14:34:36Z</time>
      </trkpt>
      <trkpt lat="42.910840976983309" lon="-9.263476962223649">
        <ele>26.57</ele>
        <time>2025-04-30T14:34:38Z</time>
      </trkpt>
      <trkpt lat="42.91077702306211" lon="-9.263428011909127">
        <ele>27.050000000000001</ele>
        <time>2025-04-30T14:34:39Z</time>
      </trkpt>
      <trkpt lat="42.910711979493499" lon="-9.263378977775574">
        <ele>27.050000000000001</ele>
        <time>2025-04-30T14:34:40Z</time>
      </trkpt>
      <trkpt lat="42.910539982840419" lon="-9.263247968629003">
        <ele>28.02</ele>
        <time>2025-04-30T14:34:43Z</time>
      </trkpt>
      <trkpt lat="42.910482985898852" lon="-9.263204969465733">
        <ele>28.5</ele>
        <time>2025-04-30T14:34:44Z</time>
      </trkpt>
      <trkpt lat="42.910380978137255" lon="-9.263128023594618">
        <ele>28.98</ele>
        <time>2025-04-30T14:34:46Z</time>
      </trkpt>
      <trkpt lat="42.910338984802365" lon="-9.263098016381264">
        <ele>29.460000000000001</ele>
        <time>2025-04-30T14:34:47Z</time>
      </trkpt>
      <trkpt lat="42.910295985639095" lon="-9.26306800916791">
        <ele>29.940000000000001</ele>
        <time>2025-04-30T14:34:48Z</time>
      </trkpt>
      <trkpt lat="42.910256003960967" lon="-9.263038001954556">
        <ele>30.420000000000002</ele>
        <time>2025-04-30T14:34:49Z</time>
      </trkpt>
      <trkpt lat="42.91022096760571" lon="-9.263009000569582">
        <ele>30.420000000000002</ele>
        <time>2025-04-30T14:34:50Z</time>
      </trkpt>
      <trkpt lat="42.910182997584343" lon="-9.262977987527847">
        <ele>30.899999999999999</ele>
        <time>2025-04-30T14:34:51Z</time>
      </trkpt>
      <trkpt lat="42.910131029784679" lon="-9.262933982536197">
        <ele>30.899999999999999</ele>
        <time>2025-04-30T14:34:52Z</time>
      </trkpt>
      <trkpt lat="42.910104962065816" lon="-9.2629199847579">
        <ele>30.899999999999999</ele>
        <time>2025-04-30T14:34:53Z</time>
      </trkpt>
      <trkpt lat="42.909947969019413" lon="-9.26283298060298">
        <ele>31.379999999999999</ele>
        <time>2025-04-30T14:34:57Z</time>
      </trkpt>
      <trkpt lat="42.909908993169665" lon="-9.262812025845051">
        <ele>31.379999999999999</ele>
        <time>2025-04-30T14:34:58Z</time>
      </trkpt>
      <trkpt lat="42.909594001248479" lon="-9.262637011706829">
        <ele>31.379999999999999</ele>
        <time>2025-04-30T14:35:06Z</time>
      </trkpt>
      <trkpt lat="42.909566005691886" lon="-9.262622008100152">
        <ele>30.899999999999999</ele>
        <time>2025-04-30T14:35:07Z</time>
      </trkpt>
      <trkpt lat="42.909533986821771" lon="-9.262603987008333">
        <ele>30.899999999999999</ele>
        <time>2025-04-30T14:35:08Z</time>
      </trkpt>
      <trkpt lat="42.909502973780036" lon="-9.262586971744895">
        <ele>30.899999999999999</ele>
        <time>2025-04-30T14:35:09Z</time>
      </trkpt>
      <trkpt lat="42.909477995708585" lon="-9.262572973966599">
        <ele>30.899999999999999</ele>
        <time>2025-04-30T14:35:10Z</time>
      </trkpt>
      <trkpt lat="42.909453017637134" lon="-9.262559982016683">
        <ele>30.899999999999999</ele>
        <time>2025-04-30T14:35:11Z</time>
      </trkpt>
      <trkpt lat="42.909419992938638" lon="-9.262541038915515">
        <ele>30.899999999999999</ele>
        <time>2025-04-30T14:35:12Z</time>
      </trkpt>
      <trkpt lat="42.909093014895916" lon="-9.262464009225369">
        <ele>27.050000000000001</ele>
        <time>2025-04-30T14:35:21Z</time>
      </trkpt>
      <trkpt lat="42.908743992447853" lon="-9.262656960636377">
        <ele>19.84</ele>
        <time>2025-04-30T14:35:31Z</time>
      </trkpt>
      <trkpt lat="42.908709039911628" lon="-9.262686967849731">
        <ele>19.359999999999999</ele>
        <time>2025-04-30T14:35:32Z</time>
      </trkpt>
      <trkpt lat="42.908676015213132" lon="-9.262714963406324">
        <ele>18.399999999999999</ele>
        <time>2025-04-30T14:35:33Z</time>
      </trkpt>
      <trkpt lat="42.908639973029494" lon="-9.262745976448059">
        <ele>17.440000000000001</ele>
        <time>2025-04-30T14:35:34Z</time>
      </trkpt>
      <trkpt lat="42.908602003008127" lon="-9.262779001146555">
        <ele>16.960000000000001</ele>
        <time>2025-04-30T14:35:35Z</time>
      </trkpt>
      <trkpt lat="42.90856302715838" lon="-9.262812025845051">
        <ele>16</ele>
        <time>2025-04-30T14:35:36Z</time>
      </trkpt>
      <trkpt lat="42.908526984974742" lon="-9.262843038886786">
        <ele>15.039999999999999</ele>
        <time>2025-04-30T14:35:37Z</time>
      </trkpt>
      <trkpt lat="42.908493960276246" lon="-9.262871034443378">
        <ele>14.56</ele>
        <time>2025-04-30T14:35:38Z</time>
      </trkpt>
      <trkpt lat="42.908464958891273" lon="-9.26289601251483">
        <ele>13.6</ele>
        <time>2025-04-30T14:35:39Z</time>
      </trkpt>
      <trkpt lat="42.90837099775672" lon="-9.262976981699467">
        <ele>13.119999999999999</ele>
        <time>2025-04-30T14:35:40Z</time>
      </trkpt>
      <trkpt lat="42.90837099775672" lon="-9.262976981699467">
        <ele>12.15</ele>
        <time>2025-04-30T14:35:41Z</time>
      </trkpt>
      <trkpt lat="42.90837099775672" lon="-9.262976981699467">
        <ele>11.67</ele>
        <time>2025-04-30T14:35:42Z</time>
      </trkpt>
      <trkpt lat="42.908345013856888" lon="-9.262999026104808">
        <ele>11.19</ele>
        <time>2025-04-30T14:35:43Z</time>
      </trkpt>
      <trkpt lat="42.908319029957056" lon="-9.263020986691117">
        <ele>10.710000000000001</ele>
        <time>2025-04-30T14:35:44Z</time>
      </trkpt>
      <trkpt lat="42.908245017752051" lon="-9.263085024431348">
        <ele>9.27</ele>
        <time>2025-04-30T14:35:47Z</time>
      </trkpt>
      <trkpt lat="42.907990040257573" lon="-9.263264983892441">
        <ele>3.5</ele>
        <time>2025-04-30T14:35:57Z</time>
      </trkpt>
      <trkpt lat="42.9079420119524" lon="-9.26328401081264">
        <ele>3.98</ele>
        <time>2025-04-30T14:35:59Z</time>
      </trkpt>
      <trkpt lat="42.9079420119524" lon="-9.26328401081264">
        <ele>4.46</ele>
        <time>2025-04-30T14:36:06Z</time>
      </trkpt>
      <trkpt lat="42.907900018617511" lon="-9.263300020247698">
        <ele>4.46</ele>
        <time>2025-04-30T14:36:07Z</time>
      </trkpt>
      <trkpt lat="42.90781301446259" lon="-9.263258026912808">
        <ele>4.94</ele>
        <time>2025-04-30T14:36:08Z</time>
      </trkpt>
      <trkpt lat="42.907819971442223" lon="-9.263229025527835">
        <ele>5.42</ele>
        <time>2025-04-30T14:36:09Z</time>
      </trkpt>
      <trkpt lat="42.907828018069267" lon="-9.263193989172578">
        <ele>5.42</ele>
        <time>2025-04-30T14:36:10Z</time>
      </trkpt>
      <trkpt lat="42.907837992534041" lon="-9.263157024979591">
        <ele>5.42</ele>
        <time>2025-04-30T14:36:11Z</time>
      </trkpt>
      <trkpt lat="42.907848972827196" lon="-9.26311201415956">
        <ele>5.91</ele>
        <time>2025-04-30T14:36:12Z</time>
      </trkpt>
      <trkpt lat="42.907860958948731" lon="-9.263067003339529">
        <ele>5.91</ele>
        <time>2025-04-30T14:36:13Z</time>
      </trkpt>
      <trkpt lat="42.907788036391139" lon="-9.262598035857081">
        <ele>5.91</ele>
        <time>2025-04-30T14:36:23Z</time>
      </trkpt>
      <trkpt lat="42.90766297839582" lon="-9.262578003108501">
        <ele>4.94</ele>
        <time>2025-04-30T14:36:26Z</time>
      </trkpt>
      <trkpt lat="42.90761997923255" lon="-9.262570962309837">
        <ele>4.46</ele>
        <time>2025-04-30T14:36:27Z</time>
      </trkpt>
      <trkpt lat="42.90757698006928" lon="-9.262565011158586">
        <ele>3.98</ele>
        <time>2025-04-30T14:36:28Z</time>
      </trkpt>
      <trkpt lat="42.90753498673439" lon="-9.262557970359922">
        <ele>3.5</ele>
        <time>2025-04-30T14:36:29Z</time>
      </trkpt>
      <trkpt lat="42.907496010884643" lon="-9.26255201920867">
        <ele>3.5</ele>
        <time>2025-04-30T14:36:30Z</time>
      </trkpt>
      <trkpt lat="42.907456029206514" lon="-9.262544978410006">
        <ele>3.02</ele>
        <time>2025-04-30T14:36:31Z</time>
      </trkpt>
      <trkpt lat="42.907418981194496" lon="-9.262538021430373">
        <ele>2.54</ele>
        <time>2025-04-30T14:36:32Z</time>
      </trkpt>
      <trkpt lat="42.907381011173129" lon="-9.26253198646009">
        <ele>2.06</ele>
        <time>2025-04-30T14:36:33Z</time>
      </trkpt>
      <trkpt lat="42.907344968989491" lon="-9.262525029480457">
        <ele>2.06</ele>
        <time>2025-04-30T14:36:34Z</time>
      </trkpt>
      <trkpt lat="42.907311022281647" lon="-9.262518994510174">
        <ele>2.06</ele>
        <time>2025-04-30T14:36:35Z</time>
      </trkpt>
      <trkpt lat="42.907269028946757" lon="-9.262512037530541">
        <ele>2.06</ele>
        <time>2025-04-30T14:36:36Z</time>
      </trkpt>
      <trkpt lat="42.907224018126726" lon="-9.262503990903497">
        <ele>2.06</ele>
        <time>2025-04-30T14:36:37Z</time>
      </trkpt>
      <trkpt lat="42.907179007306695" lon="-9.262496028095484">
        <ele>2.06</ele>
        <time>2025-04-30T14:36:38Z</time>
      </trkpt>
      <trkpt lat="42.907129973173141" lon="-9.262486975640059">
        <ele>1.58</ele>
        <time>2025-04-30T14:36:39Z</time>
      </trkpt>
      <trkpt lat="42.907082028687" lon="-9.262478007003665">
        <ele>1.58</ele>
        <time>2025-04-30T14:36:40Z</time>
      </trkpt>
      <trkpt lat="42.90703902952373" lon="-9.26246996037662">
        <ele>1.58</ele>
        <time>2025-04-30T14:36:41Z</time>
      </trkpt>
      <trkpt lat="42.906633010134101" lon="-9.262397037819028">
        <ele>3.98</ele>
        <time>2025-04-30T14:36:51Z</time>
      </trkpt>
      <trkpt lat="42.906562015414238" lon="-9.262259993702173">
        <ele>4.94</ele>
        <time>2025-04-30T14:36:54Z</time>
      </trkpt>
      <trkpt lat="42.906535025686026" lon="-9.26220802590251">
        <ele>4.94</ele>
        <time>2025-04-30T14:36:55Z</time>
      </trkpt>
      <trkpt lat="42.90648297406733" lon="-9.262107023969293">
        <ele>4.94</ele>
        <time>2025-04-30T14:36:57Z</time>
      </trkpt>
      <trkpt lat="42.90631097741425" lon="-9.261775016784668">
        <ele>4.94</ele>
        <time>2025-04-30T14:37:03Z</time>
      </trkpt>
      <trkpt lat="42.906299997121096" lon="-9.261753978207707">
        <ele>4.94</ele>
        <time>2025-04-30T14:37:04Z</time>
      </trkpt>
      <trkpt lat="42.90617804042995" lon="-9.261555997654796">
        <ele>4.94</ele>
        <time>2025-04-30T14:37:08Z</time>
      </trkpt>
      <trkpt lat="42.906097993254662" lon="-9.261476034298539">
        <ele>4.46</ele>
        <time>2025-04-30T14:37:10Z</time>
      </trkpt>
      <trkpt lat="42.905982993543148" lon="-9.261403027921915">
        <ele>4.46</ele>
        <time>2025-04-30T14:37:12Z</time>
      </trkpt>
      <trkpt lat="42.90592398494482" lon="-9.26139498129487">
        <ele>4.46</ele>
        <time>2025-04-30T14:37:13Z</time>
      </trkpt>
      <trkpt lat="42.905860031023622" lon="-9.261392969638109">
        <ele>3.98</ele>
        <time>2025-04-30T14:37:14Z</time>
      </trkpt>
      <trkpt lat="42.905700020492077" lon="-9.261421971023083">
        <ele>3.02</ele>
        <time>2025-04-30T14:37:17Z</time>
      </trkpt>
      <trkpt lat="42.905592983588576" lon="-9.261497994884849">
        <ele>2.54</ele>
        <time>2025-04-30T14:37:19Z</time>
      </trkpt>
      <trkpt lat="42.905555013567209" lon="-9.261546023190022">
        <ele>2.06</ele>
        <time>2025-04-30T14:37:20Z</time>
      </trkpt>
      <trkpt lat="42.905516037717462" lon="-9.261593967676163">
        <ele>2.06</ele>
        <time>2025-04-30T14:37:21Z</time>
      </trkpt>
      <trkpt lat="42.905477983877063" lon="-9.261641995981336">
        <ele>1.58</ele>
        <time>2025-04-30T14:37:22Z</time>
      </trkpt>
      <trkpt lat="42.905440013855696" lon="-9.261689018458128">
        <ele>1.58</ele>
        <time>2025-04-30T14:37:23Z</time>
      </trkpt>
      <trkpt lat="42.905362984165549" lon="-9.261784991249442">
        <ele>1.1</ele>
        <time>2025-04-30T14:37:25Z</time>
      </trkpt>
      <trkpt lat="42.905155029147863" lon="-9.262072993442416">
        <ele>-0.34</ele>
        <time>2025-04-30T14:37:31Z</time>
      </trkpt>
      <trkpt lat="42.905115969479084" lon="-9.262110963463783">
        <ele>-0.34</ele>
        <time>2025-04-30T14:37:32Z</time>
      </trkpt>
      <trkpt lat="42.905087973922491" lon="-9.26212202757597">
        <ele>-0.34</ele>
        <time>2025-04-30T14:37:33Z</time>
      </trkpt>
      <trkpt lat="42.90504296310246" lon="-9.262129990383983">
        <ele>-0.82</ele>
        <time>2025-04-30T14:37:34Z</time>
      </trkpt>
      <trkpt lat="42.904981020838022" lon="-9.262139964848757">
        <ele>-0.82</ele>
        <time>2025-04-30T14:37:35Z</time>
      </trkpt>
      <trkpt lat="42.904959982261062" lon="-9.262139964848757">
        <ele>-1.3</ele>
        <time>2025-04-30T14:37:36Z</time>
      </trkpt>
      <trkpt lat="42.90489200502634" lon="-9.262153962627053">
        <ele>-1.3</ele>
        <time>2025-04-30T14:37:37Z</time>
      </trkpt>
      <trkpt lat="42.904851017519832" lon="-9.262179024517536">
        <ele>-1.79</ele>
        <time>2025-04-30T14:37:38Z</time>
      </trkpt>
      <trkpt lat="42.904811035841703" lon="-9.262202996760607">
        <ele>-1.79</ele>
        <time>2025-04-30T14:37:39Z</time>
      </trkpt>
      <trkpt lat="42.904778011143208" lon="-9.26225102506578">
        <ele>-2.27</ele>
        <time>2025-04-30T14:37:40Z</time>
      </trkpt>
      <trkpt lat="42.904730988666415" lon="-9.262271979823709">
        <ele>-2.27</ele>
        <time>2025-04-30T14:37:41Z</time>
      </trkpt>
      <trkpt lat="42.904685977846384" lon="-9.262291006743908">
        <ele>-2.27</ele>
        <time>2025-04-30T14:37:42Z</time>
      </trkpt>
      <trkpt lat="42.904642978683114" lon="-9.262310033664107">
        <ele>-2.75</ele>
        <time>2025-04-30T14:37:43Z</time>
      </trkpt>
      <trkpt lat="42.904605008661747" lon="-9.262326965108514">
        <ele>-2.75</ele>
        <time>2025-04-30T14:37:44Z</time>
      </trkpt>
      <trkpt lat="42.904582964256406" lon="-9.26233702339232">
        <ele>-2.27</ele>
        <time>2025-04-30T14:37:45Z</time>
      </trkpt>
      <trkpt lat="42.904557986184955" lon="-9.262348003685474">
        <ele>-1.79</ele>
        <time>2025-04-30T14:37:55Z</time>
      </trkpt>
      <trkpt lat="42.904533008113503" lon="-9.262358983978629">
        <ele>-1.3</ele>
        <time>2025-04-30T14:37:56Z</time>
      </trkpt>
      <trkpt lat="42.904498977586627" lon="-9.262372981756926">
        <ele>-0.82</ele>
        <time>2025-04-30T14:37:57Z</time>
      </trkpt>
      <trkpt lat="42.904443992301822" lon="-9.262397037819028">
        <ele>0.14</ele>
        <time>2025-04-30T14:37:59Z</time>
      </trkpt>
      <trkpt lat="42.904443992301822" lon="-9.262397037819028">
        <ele>0.14</ele>
        <time>2025-04-30T14:38:00Z</time>
      </trkpt>
      <trkpt lat="42.904351959004998" lon="-9.262528968974948">
        <ele>0.14</ele>
        <time>2025-04-30T14:38:01Z</time>
      </trkpt>
      <trkpt lat="42.904161019250751" lon="-9.262744970619679">
        <ele>1.1</ele>
        <time>2025-04-30T14:38:06Z</time>
      </trkpt>
      <trkpt lat="42.904125982895494" lon="-9.262780006974936">
        <ele>1.58</ele>
        <time>2025-04-30T14:38:07Z</time>
      </trkpt>
      <trkpt lat="42.903977036476135" lon="-9.262929037213326">
        <ele>2.54</ele>
        <time>2025-04-30T14:38:11Z</time>
      </trkpt>
      <trkpt lat="42.903937976807356" lon="-9.262968013063073">
        <ele>2.54</ele>
        <time>2025-04-30T14:38:12Z</time>
      </trkpt>
      <trkpt lat="42.903907969594002" lon="-9.262998020276427">
        <ele>2.54</ele>
        <time>2025-04-30T14:38:13Z</time>
      </trkpt>
      <trkpt lat="42.903877040371299" lon="-9.263128023594618">
        <ele>3.02</ele>
        <time>2025-04-30T14:38:15Z</time>
      </trkpt>
      <trkpt lat="42.903860025107861" lon="-9.263200024142861">
        <ele>3.02</ele>
        <time>2025-04-30T14:38:16Z</time>
      </trkpt>
      <trkpt lat="42.903846027329564" lon="-9.263259032741189">
        <ele>3.02</ele>
        <time>2025-04-30T14:38:17Z</time>
      </trkpt>
      <trkpt lat="42.903834963217378" lon="-9.26330597139895">
        <ele>3.5</ele>
        <time>2025-04-30T14:38:18Z</time>
      </trkpt>
      <trkpt lat="42.903828006237745" lon="-9.263332961127162">
        <ele>3.98</ele>
        <time>2025-04-30T14:38:19Z</time>
      </trkpt>
      <trkpt lat="42.903828006237745" lon="-9.263332961127162">
        <ele>4.46</ele>
        <time>2025-04-30T14:38:20Z</time>
      </trkpt>
      <trkpt lat="42.903801016509533" lon="-9.263448966667056">
        <ele>5.42</ele>
        <time>2025-04-30T14:38:31Z</time>
      </trkpt>
      <trkpt lat="42.903801016509533" lon="-9.263448966667056">
        <ele>5.42</ele>
        <time>2025-04-30T14:38:32Z</time>
      </trkpt>
      <trkpt lat="42.904149033129215" lon="-9.263227013871074">
        <ele>8.310000000000001</ele>
        <time>2025-04-30T14:38:46Z</time>
      </trkpt>
      <trkpt lat="42.904174011200666" lon="-9.263216033577919">
        <ele>8.310000000000001</ele>
        <time>2025-04-30T14:38:47Z</time>
      </trkpt>
      <trkpt lat="42.904199995100498" lon="-9.263205975294113">
        <ele>8.310000000000001</ele>
        <time>2025-04-30T14:38:48Z</time>
      </trkpt>
      <trkpt lat="42.904221033677459" lon="-9.26319700665772">
        <ele>8.310000000000001</ele>
        <time>2025-04-30T14:38:49Z</time>
      </trkpt>
      <trkpt lat="42.904240982607007" lon="-9.263188038021326">
        <ele>8.789999999999999</ele>
        <time>2025-04-30T14:38:50Z</time>
      </trkpt>
      <trkpt lat="42.90465303696692" lon="-9.263187032192946">
        <ele>10.23</ele>
        <time>2025-04-30T14:39:02Z</time>
      </trkpt>
      <trkpt lat="42.90465303696692" lon="-9.263187032192946">
        <ele>10.23</ele>
        <time>2025-04-30T14:39:10Z</time>
      </trkpt>
      <trkpt lat="42.904766025021672" lon="-9.263121988624334">
        <ele>9.27</ele>
        <time>2025-04-30T14:39:18Z</time>
      </trkpt>
      <trkpt lat="42.904754038900137" lon="-9.263173034414649">
        <ele>9.27</ele>
        <time>2025-04-30T14:39:19Z</time>
      </trkpt>
      <trkpt lat="42.904766025021672" lon="-9.263170016929507">
        <ele>9.27</ele>
        <time>2025-04-30T14:39:20Z</time>
      </trkpt>
      <trkpt lat="42.905017985031009" lon="-9.262883020564914">
        <ele>6.87</ele>
        <time>2025-04-30T14:39:31Z</time>
      </trkpt>
      <trkpt lat="42.905400032177567" lon="-9.262741031125188">
        <ele>5.42</ele>
        <time>2025-04-30T14:39:41Z</time>
      </trkpt>
      <trkpt lat="42.905569011345506" lon="-9.26268101669848">
        <ele>6.87</ele>
        <time>2025-04-30T14:39:47Z</time>
      </trkpt>
      <trkpt lat="42.905580997467041" lon="-9.262667018920183">
        <ele>7.35</ele>
        <time>2025-04-30T14:39:51Z</time>
      </trkpt>
      <trkpt lat="42.90557898581028" lon="-9.262642040848732">
        <ele>7.35</ele>
        <time>2025-04-30T14:39:52Z</time>
      </trkpt>
      <trkpt lat="42.905576974153519" lon="-9.262605998665094">
        <ele>7.35</ele>
        <time>2025-04-30T14:39:53Z</time>
      </trkpt>
      <trkpt lat="42.905570017173886" lon="-9.2625090200454">
        <ele>6.39</ele>
        <time>2025-04-30T14:40:06Z</time>
      </trkpt>
      <trkpt lat="42.905563982203603" lon="-9.262416986748576">
        <ele>6.39</ele>
        <time>2025-04-30T14:40:17Z</time>
      </trkpt>
      <trkpt lat="42.905813008546829" lon="-9.262561993673444">
        <ele>67.909999999999997</ele>
        <time>2025-04-30T14:44:01Z</time>
      </trkpt>
      <trkpt lat="42.905810996890068" lon="-9.262651009485126">
        <ele>59.259999999999998</ele>
        <time>2025-04-30T14:44:41Z</time>
      </trkpt>
      <trkpt lat="42.905701026320457" lon="-9.262784030288458">
        <ele>43.399999999999999</ele>
        <time>2025-04-30T14:44:55Z</time>
      </trkpt>
      <trkpt lat="42.905749976634979" lon="-9.262785036116839">
        <ele>39.07</ele>
        <time>2025-04-30T14:45:08Z</time>
      </trkpt>
      <trkpt lat="42.905770009383559" lon="-9.262785958126187">
        <ele>38.590000000000003</ele>
        <time>2025-04-30T14:45:09Z</time>
      </trkpt>
      <trkpt lat="42.905752994120121" lon="-9.262675987556577">
        <ele>36.670000000000002</ele>
        <time>2025-04-30T14:45:11Z</time>
      </trkpt>
      <trkpt lat="42.90583798661828" lon="-9.262675987556577">
        <ele>35.710000000000001</ele>
        <time>2025-04-30T14:45:12Z</time>
      </trkpt>
      <trkpt lat="42.905968995764852" lon="-9.262689985334873">
        <ele>29.940000000000001</ele>
        <time>2025-04-30T14:45:24Z</time>
      </trkpt>
      <trkpt lat="42.906136969104409" lon="-9.262723010033369">
        <ele>26.09</ele>
        <time>2025-04-30T14:45:41Z</time>
      </trkpt>
      <trkpt lat="42.906456990167499" lon="-9.262814037501812">
        <ele>24.170000000000002</ele>
        <time>2025-04-30T14:45:52Z</time>
      </trkpt>
      <trkpt lat="42.90661096572876" lon="-9.262869022786617">
        <ele>24.170000000000002</ele>
        <time>2025-04-30T14:45:53Z</time>
      </trkpt>
      <trkpt lat="42.90661096572876" lon="-9.262869022786617">
        <ele>23.210000000000001</ele>
        <time>2025-04-30T14:45:54Z</time>
      </trkpt>
      <trkpt lat="42.90661096572876" lon="-9.262869022786617">
        <ele>22.73</ele>
        <time>2025-04-30T14:45:55Z</time>
      </trkpt>
      <trkpt lat="42.906950013712049" lon="-9.262699959799647">
        <ele>16.960000000000001</ele>
        <time>2025-04-30T14:46:06Z</time>
      </trkpt>
      <trkpt lat="42.907145982608199" lon="-9.262714963406324">
        <ele>15.52</ele>
        <time>2025-04-30T14:46:11Z</time>
      </trkpt>
      <trkpt lat="42.907291995361447" lon="-9.262819988653064">
        <ele>14.56</ele>
        <time>2025-04-30T14:46:16Z</time>
      </trkpt>
      <trkpt lat="42.907323008403182" lon="-9.262852007523179">
        <ele>14.08</ele>
        <time>2025-04-30T14:46:17Z</time>
      </trkpt>
      <trkpt lat="42.907470026984811" lon="-9.262998020276427">
        <ele>13.6</ele>
        <time>2025-04-30T14:46:18Z</time>
      </trkpt>
      <trkpt lat="42.907761968672276" lon="-9.263055017217994">
        <ele>11.19</ele>
        <time>2025-04-30T14:46:29Z</time>
      </trkpt>
      <trkpt lat="42.907875962555408" lon="-9.263016041368246">
        <ele>10.23</ele>
        <time>2025-04-30T14:46:33Z</time>
      </trkpt>
      <trkpt lat="42.907917033880949" lon="-9.262730972841382">
        <ele>10.710000000000001</ele>
        <time>2025-04-30T14:46:38Z</time>
      </trkpt>
      <trkpt lat="42.907901024445891" lon="-9.262683028355241">
        <ele>10.23</ele>
        <time>2025-04-30T14:46:39Z</time>
      </trkpt>
      <trkpt lat="42.907887026667595" lon="-9.262640029191971">
        <ele>9.75</ele>
        <time>2025-04-30T14:46:40Z</time>
      </trkpt>
      <trkpt lat="42.907790970057249" lon="-9.262598035857081">
        <ele>9.75</ele>
        <time>2025-04-30T14:46:41Z</time>
      </trkpt>
      <trkpt lat="42.90774897672236" lon="-9.262592000886798">
        <ele>9.27</ele>
        <time>2025-04-30T14:46:42Z</time>
      </trkpt>
      <trkpt lat="42.907692985609174" lon="-9.262583032250404">
        <ele>8.310000000000001</ele>
        <time>2025-04-30T14:46:43Z</time>
      </trkpt>
      <trkpt lat="42.90764101780951" lon="-9.26257498562336">
        <ele>7.83</ele>
        <time>2025-04-30T14:46:44Z</time>
      </trkpt>
      <trkpt lat="42.907588966190815" lon="-9.262567022815347">
        <ele>6.87</ele>
        <time>2025-04-30T14:46:45Z</time>
      </trkpt>
      <trkpt lat="42.906957976520061" lon="-9.262455962598324">
        <ele>2.54</ele>
        <time>2025-04-30T14:46:57Z</time>
      </trkpt>
      <trkpt lat="42.906790003180504" lon="-9.262426039204001">
        <ele>1.58</ele>
        <time>2025-04-30T14:47:00Z</time>
      </trkpt>
      <trkpt lat="42.906727977097034" lon="-9.262414975091815">
        <ele>1.58</ele>
        <time>2025-04-30T14:47:01Z</time>
      </trkpt>
      <trkpt lat="42.906633010134101" lon="-9.262397037819028">
        <ele>1.58</ele>
        <time>2025-04-30T14:47:02Z</time>
      </trkpt>
      <trkpt lat="42.90660903789103" lon="-9.262351021170616">
        <ele>1.1</ele>
        <time>2025-04-30T14:47:03Z</time>
      </trkpt>
      <trkpt lat="42.906577019020915" lon="-9.262288995087147">
        <ele>1.58</ele>
        <time>2025-04-30T14:47:04Z</time>
      </trkpt>
      <trkpt lat="42.906541982665658" lon="-9.262223029509187">
        <ele>1.58</ele>
        <time>2025-04-30T14:47:05Z</time>
      </trkpt>
      <trkpt lat="42.906247023493052" lon="-9.261624980717897">
        <ele>2.54</ele>
        <time>2025-04-30T14:47:13Z</time>
      </trkpt>
      <trkpt lat="42.906204024329782" lon="-9.261581981554627">
        <ele>2.54</ele>
        <time>2025-04-30T14:47:14Z</time>
      </trkpt>
      <trkpt lat="42.906105034053326" lon="-9.261483997106552">
        <ele>3.02</ele>
        <time>2025-04-30T14:47:16Z</time>
      </trkpt>
      <trkpt lat="42.906031021848321" lon="-9.261409984901547">
        <ele>3.02</ele>
        <time>2025-04-30T14:47:17Z</time>
      </trkpt>
      <trkpt lat="42.905924990773201" lon="-9.26139498129487">
        <ele>3.02</ele>
        <time>2025-04-30T14:47:19Z</time>
      </trkpt>
      <trkpt lat="42.905861958861351" lon="-9.261391963809729">
        <ele>3.02</ele>
        <time>2025-04-30T14:47:20Z</time>
      </trkpt>
      <trkpt lat="42.90581502020359" lon="-9.261401016265154">
        <ele>2.54</ele>
        <time>2025-04-30T14:47:21Z</time>
      </trkpt>
      <trkpt lat="42.905776966363192" lon="-9.261407973244786">
        <ele>2.06</ele>
        <time>2025-04-30T14:47:22Z</time>
      </trkpt>
      <trkpt lat="42.905743019655347" lon="-9.26141400821507">
        <ele>2.06</ele>
        <time>2025-04-30T14:47:23Z</time>
      </trkpt>
      <trkpt lat="42.905646041035652" lon="-9.261432029306889">
        <ele>1.58</ele>
        <time>2025-04-30T14:47:26Z</time>
      </trkpt>
      <trkpt lat="42.905585020780563" lon="-9.261507969349623">
        <ele>1.58</ele>
        <time>2025-04-30T14:47:27Z</time>
      </trkpt>
      <trkpt lat="42.905547972768545" lon="-9.261553985998035">
        <ele>1.58</ele>
        <time>2025-04-30T14:47:28Z</time>
      </trkpt>
      <trkpt lat="42.905510002747178" lon="-9.261601008474827">
        <ele>1.58</ele>
        <time>2025-04-30T14:47:29Z</time>
      </trkpt>
      <trkpt lat="42.90547396056354" lon="-9.261647025123239">
        <ele>1.1</ele>
        <time>2025-04-30T14:47:30Z</time>
      </trkpt>
      <trkpt lat="42.905441019684076" lon="-9.261689018458128">
        <ele>1.1</ele>
        <time>2025-04-30T14:47:31Z</time>
      </trkpt>
      <trkpt lat="42.9054069891572" lon="-9.261730005964637">
        <ele>1.1</ele>
        <time>2025-04-30T14:47:32Z</time>
      </trkpt>
      <trkpt lat="42.905286960303783" lon="-9.261893033981323">
        <ele>0.14</ele>
        <time>2025-04-30T14:47:41Z</time>
      </trkpt>
      <trkpt lat="42.905286960303783" lon="-9.261893033981323">
        <ele>0.14</ele>
        <time>2025-04-30T14:48:03Z</time>
      </trkpt>
      <trkpt lat="42.905238009989262" lon="-9.261990012601018">
        <ele>0.14</ele>
        <time>2025-04-30T14:48:12Z</time>
      </trkpt>
    </trkseg>
  </trk>

</gpx>